<?xml version="1.0" encoding="UTF-8" standalone="no" ?>
<gpx xmlns="http://www.topografix.com/GPX/1/1" xmlns:xsi="http://www.w3.org/2001/XMLSchema-instance" xsi:schemaLocation="http://www.topografix.com/GPX/1/1 http://www.topografix.com/GPX/1/1/gpx.xsd" version="1.1" creator="VisuGPX - https://www.visugpx.com">
  <metadata>
    <name>Sortie Moto</name>
  </metadata>
  <trk>
    <name><![CDATA[Journal actif: 2020-03-14 11:39]]></name>
    <trkseg>
      <trkpt lat="45.90717" lon="6.15222">
        <ele>449.07</ele>
        <time>2020-03-14T09:39:09Z</time>
      </trkpt>
      <trkpt lat="45.9071" lon="6.15214">
        <ele>449.55</ele>
        <time>2020-03-14T09:39:39Z</time>
      </trkpt>
      <trkpt lat="45.90709" lon="6.15212">
        <ele>449.07</ele>
        <time>2020-03-14T09:39:46Z</time>
      </trkpt>
      <trkpt lat="45.90707" lon="6.15214">
        <ele>448.59</ele>
        <time>2020-03-14T09:39:48Z</time>
      </trkpt>
      <trkpt lat="45.90665" lon="6.15199">
        <ele>447.63</ele>
        <time>2020-03-14T09:39:55Z</time>
      </trkpt>
      <trkpt lat="45.90676" lon="6.1525">
        <ele>448.11</ele>
        <time>2020-03-14T09:40:00Z</time>
      </trkpt>
      <trkpt lat="45.90696" lon="6.15242">
        <ele>449.55</ele>
        <time>2020-03-14T09:40:05Z</time>
      </trkpt>
      <trkpt lat="45.90723" lon="6.15237">
        <ele>451.48</ele>
        <time>2020-03-14T09:40:13Z</time>
      </trkpt>
      <trkpt lat="45.90722" lon="6.1524">
        <ele>451.48</ele>
        <time>2020-03-14T09:40:14Z</time>
      </trkpt>
      <trkpt lat="45.90721" lon="6.15245">
        <ele>451.48</ele>
        <time>2020-03-14T09:40:15Z</time>
      </trkpt>
      <trkpt lat="45.90719" lon="6.15252">
        <ele>451.96</ele>
        <time>2020-03-14T09:40:16Z</time>
      </trkpt>
      <trkpt lat="45.90717" lon="6.15261">
        <ele>451.96</ele>
        <time>2020-03-14T09:40:17Z</time>
      </trkpt>
      <trkpt lat="45.90715" lon="6.15271">
        <ele>452.44</ele>
        <time>2020-03-14T09:40:18Z</time>
      </trkpt>
      <trkpt lat="45.90702" lon="6.1533">
        <ele>452.92</ele>
        <time>2020-03-14T09:40:23Z</time>
      </trkpt>
      <trkpt lat="45.90696" lon="6.15353">
        <ele>452.92</ele>
        <time>2020-03-14T09:40:25Z</time>
      </trkpt>
      <trkpt lat="45.90669" lon="6.15441">
        <ele>452.44</ele>
        <time>2020-03-14T09:40:33Z</time>
      </trkpt>
      <trkpt lat="45.90641" lon="6.15512">
        <ele>452.92</ele>
        <time>2020-03-14T09:40:40Z</time>
      </trkpt>
      <trkpt lat="45.90623" lon="6.15578">
        <ele>453.4</ele>
        <time>2020-03-14T09:40:48Z</time>
      </trkpt>
      <trkpt lat="45.90611" lon="6.15595">
        <ele>452.92</ele>
        <time>2020-03-14T09:40:51Z</time>
      </trkpt>
      <trkpt lat="45.90603" lon="6.15591">
        <ele>452.92</ele>
        <time>2020-03-14T09:40:52Z</time>
      </trkpt>
      <trkpt lat="45.90601" lon="6.15594">
        <ele>452.92</ele>
        <time>2020-03-14T09:40:53Z</time>
      </trkpt>
      <trkpt lat="45.90599" lon="6.15606">
        <ele>452.92</ele>
        <time>2020-03-14T09:40:54Z</time>
      </trkpt>
      <trkpt lat="45.90599" lon="6.15612">
        <ele>452.44</ele>
        <time>2020-03-14T09:40:55Z</time>
      </trkpt>
      <trkpt lat="45.90603" lon="6.15634">
        <ele>452.44</ele>
        <time>2020-03-14T09:40:56Z</time>
      </trkpt>
      <trkpt lat="45.906" lon="6.1565">
        <ele>451.96</ele>
        <time>2020-03-14T09:40:57Z</time>
      </trkpt>
      <trkpt lat="45.90566" lon="6.15794">
        <ele>451.48</ele>
        <time>2020-03-14T09:41:07Z</time>
      </trkpt>
      <trkpt lat="45.90539" lon="6.15855">
        <ele>450.52</ele>
        <time>2020-03-14T09:41:13Z</time>
      </trkpt>
      <trkpt lat="45.90462" lon="6.1594">
        <ele>448.59</ele>
        <time>2020-03-14T09:41:22Z</time>
      </trkpt>
      <trkpt lat="45.90348" lon="6.15998">
        <ele>450.52</ele>
        <time>2020-03-14T09:41:32Z</time>
      </trkpt>
      <trkpt lat="45.90219" lon="6.16052">
        <ele>449.07</ele>
        <time>2020-03-14T09:41:43Z</time>
      </trkpt>
      <trkpt lat="45.90096" lon="6.16123">
        <ele>446.19</ele>
        <time>2020-03-14T09:41:53Z</time>
      </trkpt>
      <trkpt lat="45.89952" lon="6.16179">
        <ele>447.15</ele>
        <time>2020-03-14T09:42:04Z</time>
      </trkpt>
      <trkpt lat="45.8994" lon="6.16184">
        <ele>448.11</ele>
        <time>2020-03-14T09:42:05Z</time>
      </trkpt>
      <trkpt lat="45.89914" lon="6.162">
        <ele>450.03</ele>
        <time>2020-03-14T09:42:07Z</time>
      </trkpt>
      <trkpt lat="45.89839" lon="6.16276">
        <ele>451</ele>
        <time>2020-03-14T09:42:15Z</time>
      </trkpt>
      <trkpt lat="45.89798" lon="6.16327">
        <ele>449.55</ele>
        <time>2020-03-14T09:42:20Z</time>
      </trkpt>
      <trkpt lat="45.89726" lon="6.16417">
        <ele>451</ele>
        <time>2020-03-14T09:42:29Z</time>
      </trkpt>
      <trkpt lat="45.8967" lon="6.16487">
        <ele>454.84</ele>
        <time>2020-03-14T09:42:36Z</time>
      </trkpt>
      <trkpt lat="45.89626" lon="6.16542">
        <ele>457.24</ele>
        <time>2020-03-14T09:42:41Z</time>
      </trkpt>
      <trkpt lat="45.89578" lon="6.166">
        <ele>460.13</ele>
        <time>2020-03-14T09:42:48Z</time>
      </trkpt>
      <trkpt lat="45.89537" lon="6.16646">
        <ele>463.01</ele>
        <time>2020-03-14T09:42:55Z</time>
      </trkpt>
      <trkpt lat="45.89532" lon="6.16651">
        <ele>463.49</ele>
        <time>2020-03-14T09:42:56Z</time>
      </trkpt>
      <trkpt lat="45.89527" lon="6.16658">
        <ele>463.97</ele>
        <time>2020-03-14T09:42:57Z</time>
      </trkpt>
      <trkpt lat="45.89521" lon="6.16665">
        <ele>464.45</ele>
        <time>2020-03-14T09:42:58Z</time>
      </trkpt>
      <trkpt lat="45.89515" lon="6.16673">
        <ele>464.45</ele>
        <time>2020-03-14T09:42:59Z</time>
      </trkpt>
      <trkpt lat="45.8945" lon="6.16761">
        <ele>462.05</ele>
        <time>2020-03-14T09:43:09Z</time>
      </trkpt>
      <trkpt lat="45.89391" lon="6.16825">
        <ele>464.45</ele>
        <time>2020-03-14T09:43:15Z</time>
      </trkpt>
      <trkpt lat="45.89313" lon="6.16869">
        <ele>469.26</ele>
        <time>2020-03-14T09:43:23Z</time>
      </trkpt>
      <trkpt lat="45.89265" lon="6.16891">
        <ele>470.22</ele>
        <time>2020-03-14T09:43:28Z</time>
      </trkpt>
      <trkpt lat="45.89255" lon="6.16898">
        <ele>470.22</ele>
        <time>2020-03-14T09:43:29Z</time>
      </trkpt>
      <trkpt lat="45.89206" lon="6.16932">
        <ele>470.22</ele>
        <time>2020-03-14T09:43:34Z</time>
      </trkpt>
      <trkpt lat="45.89198" lon="6.16942">
        <ele>470.22</ele>
        <time>2020-03-14T09:43:35Z</time>
      </trkpt>
      <trkpt lat="45.89191" lon="6.16952">
        <ele>470.22</ele>
        <time>2020-03-14T09:43:36Z</time>
      </trkpt>
      <trkpt lat="45.89184" lon="6.16966">
        <ele>469.74</ele>
        <time>2020-03-14T09:43:37Z</time>
      </trkpt>
      <trkpt lat="45.89177" lon="6.1698">
        <ele>469.74</ele>
        <time>2020-03-14T09:43:38Z</time>
      </trkpt>
      <trkpt lat="45.89171" lon="6.16996">
        <ele>469.74</ele>
        <time>2020-03-14T09:43:39Z</time>
      </trkpt>
      <trkpt lat="45.89133" lon="6.17082">
        <ele>469.74</ele>
        <time>2020-03-14T09:43:45Z</time>
      </trkpt>
      <trkpt lat="45.89053" lon="6.17185">
        <ele>470.7</ele>
        <time>2020-03-14T09:43:54Z</time>
      </trkpt>
      <trkpt lat="45.88964" lon="6.17289">
        <ele>473.11</ele>
        <time>2020-03-14T09:44:03Z</time>
      </trkpt>
      <trkpt lat="45.88951" lon="6.17299">
        <ele>473.59</ele>
        <time>2020-03-14T09:44:04Z</time>
      </trkpt>
      <trkpt lat="45.88939" lon="6.17309">
        <ele>473.59</ele>
        <time>2020-03-14T09:44:05Z</time>
      </trkpt>
      <trkpt lat="45.88903" lon="6.17335">
        <ele>474.55</ele>
        <time>2020-03-14T09:44:08Z</time>
      </trkpt>
      <trkpt lat="45.88829" lon="6.17392">
        <ele>473.59</ele>
        <time>2020-03-14T09:44:15Z</time>
      </trkpt>
      <trkpt lat="45.8882" lon="6.17397">
        <ele>473.59</ele>
        <time>2020-03-14T09:44:16Z</time>
      </trkpt>
      <trkpt lat="45.88776" lon="6.17409">
        <ele>473.59</ele>
        <time>2020-03-14T09:44:22Z</time>
      </trkpt>
      <trkpt lat="45.88771" lon="6.17411">
        <ele>473.11</ele>
        <time>2020-03-14T09:44:23Z</time>
      </trkpt>
      <trkpt lat="45.8876" lon="6.17402">
        <ele>473.11</ele>
        <time>2020-03-14T09:44:24Z</time>
      </trkpt>
      <trkpt lat="45.88758" lon="6.17401">
        <ele>473.11</ele>
        <time>2020-03-14T09:44:25Z</time>
      </trkpt>
      <trkpt lat="45.8875" lon="6.174">
        <ele>473.59</ele>
        <time>2020-03-14T09:44:26Z</time>
      </trkpt>
      <trkpt lat="45.88743" lon="6.17408">
        <ele>473.59</ele>
        <time>2020-03-14T09:44:27Z</time>
      </trkpt>
      <trkpt lat="45.88733" lon="6.17422">
        <ele>473.59</ele>
        <time>2020-03-14T09:44:28Z</time>
      </trkpt>
      <trkpt lat="45.88723" lon="6.17424">
        <ele>473.59</ele>
        <time>2020-03-14T09:44:29Z</time>
      </trkpt>
      <trkpt lat="45.88712" lon="6.17427">
        <ele>474.07</ele>
        <time>2020-03-14T09:44:30Z</time>
      </trkpt>
      <trkpt lat="45.88635" lon="6.17475">
        <ele>474.55</ele>
        <time>2020-03-14T09:44:39Z</time>
      </trkpt>
      <trkpt lat="45.88543" lon="6.17569">
        <ele>476.95</ele>
        <time>2020-03-14T09:44:52Z</time>
      </trkpt>
      <trkpt lat="45.88524" lon="6.17587">
        <ele>477.91</ele>
        <time>2020-03-14T09:44:55Z</time>
      </trkpt>
      <trkpt lat="45.88507" lon="6.17605">
        <ele>478.87</ele>
        <time>2020-03-14T09:44:59Z</time>
      </trkpt>
      <trkpt lat="45.88492" lon="6.17623">
        <ele>478.87</ele>
        <time>2020-03-14T09:45:01Z</time>
      </trkpt>
      <trkpt lat="45.88489" lon="6.17625">
        <ele>479.35</ele>
        <time>2020-03-14T09:45:02Z</time>
      </trkpt>
      <trkpt lat="45.88481" lon="6.17631">
        <ele>479.35</ele>
        <time>2020-03-14T09:45:03Z</time>
      </trkpt>
      <trkpt lat="45.88449" lon="6.17667">
        <ele>481.76</ele>
        <time>2020-03-14T09:45:10Z</time>
      </trkpt>
      <trkpt lat="45.88446" lon="6.1767">
        <ele>482.72</ele>
        <time>2020-03-14T09:45:12Z</time>
      </trkpt>
      <trkpt lat="45.88429" lon="6.17688">
        <ele>488.01</ele>
        <time>2020-03-14T09:45:27Z</time>
      </trkpt>
      <trkpt lat="45.88394" lon="6.17725">
        <ele>490.41</ele>
        <time>2020-03-14T09:45:39Z</time>
      </trkpt>
      <trkpt lat="45.88391" lon="6.17729">
        <ele>490.89</ele>
        <time>2020-03-14T09:45:40Z</time>
      </trkpt>
      <trkpt lat="45.88388" lon="6.17733">
        <ele>490.89</ele>
        <time>2020-03-14T09:45:41Z</time>
      </trkpt>
      <trkpt lat="45.88384" lon="6.17737">
        <ele>490.89</ele>
        <time>2020-03-14T09:45:42Z</time>
      </trkpt>
      <trkpt lat="45.88359" lon="6.17762">
        <ele>491.85</ele>
        <time>2020-03-14T09:45:47Z</time>
      </trkpt>
      <trkpt lat="45.88327" lon="6.17784">
        <ele>492.81</ele>
        <time>2020-03-14T09:45:52Z</time>
      </trkpt>
      <trkpt lat="45.88287" lon="6.17807">
        <ele>494.26</ele>
        <time>2020-03-14T09:45:58Z</time>
      </trkpt>
      <trkpt lat="45.88279" lon="6.17809">
        <ele>494.74</ele>
        <time>2020-03-14T09:45:59Z</time>
      </trkpt>
      <trkpt lat="45.88272" lon="6.17812">
        <ele>494.74</ele>
        <time>2020-03-14T09:46:00Z</time>
      </trkpt>
      <trkpt lat="45.88246" lon="6.17822">
        <ele>496.18</ele>
        <time>2020-03-14T09:46:03Z</time>
      </trkpt>
      <trkpt lat="45.88221" lon="6.1783">
        <ele>497.14</ele>
        <time>2020-03-14T09:46:06Z</time>
      </trkpt>
      <trkpt lat="45.88214" lon="6.17827">
        <ele>498.1</ele>
        <time>2020-03-14T09:46:07Z</time>
      </trkpt>
      <trkpt lat="45.88205" lon="6.17824">
        <ele>498.1</ele>
        <time>2020-03-14T09:46:08Z</time>
      </trkpt>
      <trkpt lat="45.88196" lon="6.17827">
        <ele>498.1</ele>
        <time>2020-03-14T09:46:09Z</time>
      </trkpt>
      <trkpt lat="45.88187" lon="6.1783">
        <ele>498.1</ele>
        <time>2020-03-14T09:46:10Z</time>
      </trkpt>
      <trkpt lat="45.88177" lon="6.17834">
        <ele>498.1</ele>
        <time>2020-03-14T09:46:11Z</time>
      </trkpt>
      <trkpt lat="45.88161" lon="6.17844">
        <ele>499.06</ele>
        <time>2020-03-14T09:46:13Z</time>
      </trkpt>
      <trkpt lat="45.88152" lon="6.1785">
        <ele>499.06</ele>
        <time>2020-03-14T09:46:14Z</time>
      </trkpt>
      <trkpt lat="45.88097" lon="6.1791">
        <ele>499.06</ele>
        <time>2020-03-14T09:46:22Z</time>
      </trkpt>
      <trkpt lat="45.88066" lon="6.1795">
        <ele>498.1</ele>
        <time>2020-03-14T09:46:27Z</time>
      </trkpt>
      <trkpt lat="45.88057" lon="6.17959">
        <ele>497.62</ele>
        <time>2020-03-14T09:46:28Z</time>
      </trkpt>
      <trkpt lat="45.88048" lon="6.17967">
        <ele>497.14</ele>
        <time>2020-03-14T09:46:29Z</time>
      </trkpt>
      <trkpt lat="45.88021" lon="6.17975">
        <ele>496.18</ele>
        <time>2020-03-14T09:46:32Z</time>
      </trkpt>
      <trkpt lat="45.87932" lon="6.18032">
        <ele>493.77</ele>
        <time>2020-03-14T09:46:41Z</time>
      </trkpt>
      <trkpt lat="45.87849" lon="6.18073">
        <ele>491.37</ele>
        <time>2020-03-14T09:46:51Z</time>
      </trkpt>
      <trkpt lat="45.87838" lon="6.18078">
        <ele>490.89</ele>
        <time>2020-03-14T09:46:53Z</time>
      </trkpt>
      <trkpt lat="45.87769" lon="6.18107">
        <ele>489.93</ele>
        <time>2020-03-14T09:47:01Z</time>
      </trkpt>
      <trkpt lat="45.87628" lon="6.18173">
        <ele>487.05</ele>
        <time>2020-03-14T09:47:15Z</time>
      </trkpt>
      <trkpt lat="45.87588" lon="6.1819">
        <ele>486.08</ele>
        <time>2020-03-14T09:47:20Z</time>
      </trkpt>
      <trkpt lat="45.87582" lon="6.18192">
        <ele>485.6</ele>
        <time>2020-03-14T09:47:21Z</time>
      </trkpt>
      <trkpt lat="45.87522" lon="6.18209">
        <ele>485.12</ele>
        <time>2020-03-14T09:47:28Z</time>
      </trkpt>
      <trkpt lat="45.87485" lon="6.18217">
        <ele>486.08</ele>
        <time>2020-03-14T09:47:35Z</time>
      </trkpt>
      <trkpt lat="45.87485" lon="6.18217">
        <ele>486.08</ele>
        <time>2020-03-14T09:48:03Z</time>
      </trkpt>
      <trkpt lat="45.87481" lon="6.18218">
        <ele>487.05</ele>
        <time>2020-03-14T09:48:21Z</time>
      </trkpt>
      <trkpt lat="45.87474" lon="6.18219">
        <ele>487.05</ele>
        <time>2020-03-14T09:48:22Z</time>
      </trkpt>
      <trkpt lat="45.87402" lon="6.18238">
        <ele>486.56</ele>
        <time>2020-03-14T09:48:28Z</time>
      </trkpt>
      <trkpt lat="45.87253" lon="6.18299">
        <ele>485.6</ele>
        <time>2020-03-14T09:48:41Z</time>
      </trkpt>
      <trkpt lat="45.8724" lon="6.18305">
        <ele>485.6</ele>
        <time>2020-03-14T09:48:42Z</time>
      </trkpt>
      <trkpt lat="45.87105" lon="6.18383">
        <ele>483.68</ele>
        <time>2020-03-14T09:48:51Z</time>
      </trkpt>
      <trkpt lat="45.87016" lon="6.18437">
        <ele>482.24</ele>
        <time>2020-03-14T09:48:58Z</time>
      </trkpt>
      <trkpt lat="45.86949" lon="6.18479">
        <ele>483.2</ele>
        <time>2020-03-14T09:49:04Z</time>
      </trkpt>
      <trkpt lat="45.86792" lon="6.1858">
        <ele>478.87</ele>
        <time>2020-03-14T09:49:15Z</time>
      </trkpt>
      <trkpt lat="45.86676" lon="6.18692">
        <ele>475.03</ele>
        <time>2020-03-14T09:49:23Z</time>
      </trkpt>
      <trkpt lat="45.86572" lon="6.18798">
        <ele>472.14</ele>
        <time>2020-03-14T09:49:31Z</time>
      </trkpt>
      <trkpt lat="45.86465" lon="6.18909">
        <ele>468.78</ele>
        <time>2020-03-14T09:49:42Z</time>
      </trkpt>
      <trkpt lat="45.86384" lon="6.18994">
        <ele>465.9</ele>
        <time>2020-03-14T09:49:51Z</time>
      </trkpt>
      <trkpt lat="45.86364" lon="6.19012">
        <ele>464.93</ele>
        <time>2020-03-14T09:49:53Z</time>
      </trkpt>
      <trkpt lat="45.86355" lon="6.1902">
        <ele>464.93</ele>
        <time>2020-03-14T09:49:54Z</time>
      </trkpt>
      <trkpt lat="45.86339" lon="6.19036">
        <ele>463.97</ele>
        <time>2020-03-14T09:49:56Z</time>
      </trkpt>
      <trkpt lat="45.86269" lon="6.19112">
        <ele>465.42</ele>
        <time>2020-03-14T09:50:05Z</time>
      </trkpt>
      <trkpt lat="45.8626" lon="6.19121">
        <ele>465.42</ele>
        <time>2020-03-14T09:50:06Z</time>
      </trkpt>
      <trkpt lat="45.8625" lon="6.19128">
        <ele>465.9</ele>
        <time>2020-03-14T09:50:07Z</time>
      </trkpt>
      <trkpt lat="45.86161" lon="6.19197">
        <ele>468.78</ele>
        <time>2020-03-14T09:50:16Z</time>
      </trkpt>
      <trkpt lat="45.86152" lon="6.19208">
        <ele>469.26</ele>
        <time>2020-03-14T09:50:17Z</time>
      </trkpt>
      <trkpt lat="45.86128" lon="6.19239">
        <ele>471.66</ele>
        <time>2020-03-14T09:50:20Z</time>
      </trkpt>
      <trkpt lat="45.86116" lon="6.19264">
        <ele>471.66</ele>
        <time>2020-03-14T09:50:22Z</time>
      </trkpt>
      <trkpt lat="45.86097" lon="6.19323">
        <ele>472.14</ele>
        <time>2020-03-14T09:50:26Z</time>
      </trkpt>
      <trkpt lat="45.86093" lon="6.19339">
        <ele>472.14</ele>
        <time>2020-03-14T09:50:27Z</time>
      </trkpt>
      <trkpt lat="45.86093" lon="6.19355">
        <ele>472.63</ele>
        <time>2020-03-14T09:50:28Z</time>
      </trkpt>
      <trkpt lat="45.86094" lon="6.19372">
        <ele>473.11</ele>
        <time>2020-03-14T09:50:29Z</time>
      </trkpt>
      <trkpt lat="45.86095" lon="6.19387">
        <ele>474.07</ele>
        <time>2020-03-14T09:50:30Z</time>
      </trkpt>
      <trkpt lat="45.86094" lon="6.19415">
        <ele>474.55</ele>
        <time>2020-03-14T09:50:32Z</time>
      </trkpt>
      <trkpt lat="45.86093" lon="6.19442">
        <ele>475.99</ele>
        <time>2020-03-14T09:50:34Z</time>
      </trkpt>
      <trkpt lat="45.86086" lon="6.19468">
        <ele>477.43</ele>
        <time>2020-03-14T09:50:36Z</time>
      </trkpt>
      <trkpt lat="45.86076" lon="6.19496">
        <ele>479.35</ele>
        <time>2020-03-14T09:50:39Z</time>
      </trkpt>
      <trkpt lat="45.86069" lon="6.19509">
        <ele>479.84</ele>
        <time>2020-03-14T09:50:40Z</time>
      </trkpt>
      <trkpt lat="45.86042" lon="6.19537">
        <ele>480.8</ele>
        <time>2020-03-14T09:50:44Z</time>
      </trkpt>
      <trkpt lat="45.86035" lon="6.19544">
        <ele>481.28</ele>
        <time>2020-03-14T09:50:45Z</time>
      </trkpt>
      <trkpt lat="45.86028" lon="6.19551">
        <ele>481.76</ele>
        <time>2020-03-14T09:50:46Z</time>
      </trkpt>
      <trkpt lat="45.85971" lon="6.19607">
        <ele>482.72</ele>
        <time>2020-03-14T09:50:55Z</time>
      </trkpt>
      <trkpt lat="45.85964" lon="6.19612">
        <ele>483.2</ele>
        <time>2020-03-14T09:50:56Z</time>
      </trkpt>
      <trkpt lat="45.85957" lon="6.19617">
        <ele>483.2</ele>
        <time>2020-03-14T09:50:57Z</time>
      </trkpt>
      <trkpt lat="45.85949" lon="6.19622">
        <ele>483.2</ele>
        <time>2020-03-14T09:50:58Z</time>
      </trkpt>
      <trkpt lat="45.85942" lon="6.19628">
        <ele>482.72</ele>
        <time>2020-03-14T09:50:59Z</time>
      </trkpt>
      <trkpt lat="45.85909" lon="6.19652">
        <ele>482.72</ele>
        <time>2020-03-14T09:51:04Z</time>
      </trkpt>
      <trkpt lat="45.85876" lon="6.19674">
        <ele>481.28</ele>
        <time>2020-03-14T09:51:09Z</time>
      </trkpt>
      <trkpt lat="45.85868" lon="6.19679">
        <ele>481.28</ele>
        <time>2020-03-14T09:51:10Z</time>
      </trkpt>
      <trkpt lat="45.85861" lon="6.19684">
        <ele>481.28</ele>
        <time>2020-03-14T09:51:11Z</time>
      </trkpt>
      <trkpt lat="45.8584" lon="6.19704">
        <ele>481.28</ele>
        <time>2020-03-14T09:51:14Z</time>
      </trkpt>
      <trkpt lat="45.85828" lon="6.1972">
        <ele>482.24</ele>
        <time>2020-03-14T09:51:16Z</time>
      </trkpt>
      <trkpt lat="45.85823" lon="6.19729">
        <ele>483.2</ele>
        <time>2020-03-14T09:51:17Z</time>
      </trkpt>
      <trkpt lat="45.85807" lon="6.19755">
        <ele>486.08</ele>
        <time>2020-03-14T09:51:20Z</time>
      </trkpt>
      <trkpt lat="45.85793" lon="6.19769">
        <ele>488.01</ele>
        <time>2020-03-14T09:51:22Z</time>
      </trkpt>
      <trkpt lat="45.85785" lon="6.19774">
        <ele>488.97</ele>
        <time>2020-03-14T09:51:23Z</time>
      </trkpt>
      <trkpt lat="45.85777" lon="6.19779">
        <ele>489.93</ele>
        <time>2020-03-14T09:51:24Z</time>
      </trkpt>
      <trkpt lat="45.85768" lon="6.19781">
        <ele>490.89</ele>
        <time>2020-03-14T09:51:25Z</time>
      </trkpt>
      <trkpt lat="45.85758" lon="6.19781">
        <ele>491.37</ele>
        <time>2020-03-14T09:51:26Z</time>
      </trkpt>
      <trkpt lat="45.85749" lon="6.1978">
        <ele>492.33</ele>
        <time>2020-03-14T09:51:27Z</time>
      </trkpt>
      <trkpt lat="45.8574" lon="6.1978">
        <ele>492.81</ele>
        <time>2020-03-14T09:51:28Z</time>
      </trkpt>
      <trkpt lat="45.85732" lon="6.19779">
        <ele>493.29</ele>
        <time>2020-03-14T09:51:29Z</time>
      </trkpt>
      <trkpt lat="45.85724" lon="6.19772">
        <ele>494.26</ele>
        <time>2020-03-14T09:51:30Z</time>
      </trkpt>
      <trkpt lat="45.85717" lon="6.19766">
        <ele>495.22</ele>
        <time>2020-03-14T09:51:31Z</time>
      </trkpt>
      <trkpt lat="45.85709" lon="6.19759">
        <ele>495.7</ele>
        <time>2020-03-14T09:51:32Z</time>
      </trkpt>
      <trkpt lat="45.8569" lon="6.19743">
        <ele>496.66</ele>
        <time>2020-03-14T09:51:34Z</time>
      </trkpt>
      <trkpt lat="45.85679" lon="6.19737">
        <ele>497.14</ele>
        <time>2020-03-14T09:51:35Z</time>
      </trkpt>
      <trkpt lat="45.85667" lon="6.19733">
        <ele>497.62</ele>
        <time>2020-03-14T09:51:36Z</time>
      </trkpt>
      <trkpt lat="45.85653" lon="6.19731">
        <ele>497.62</ele>
        <time>2020-03-14T09:51:37Z</time>
      </trkpt>
      <trkpt lat="45.8564" lon="6.19734">
        <ele>498.1</ele>
        <time>2020-03-14T09:51:38Z</time>
      </trkpt>
      <trkpt lat="45.85626" lon="6.19736">
        <ele>498.1</ele>
        <time>2020-03-14T09:51:39Z</time>
      </trkpt>
      <trkpt lat="45.85612" lon="6.19742">
        <ele>498.58</ele>
        <time>2020-03-14T09:51:40Z</time>
      </trkpt>
      <trkpt lat="45.85601" lon="6.19754">
        <ele>499.06</ele>
        <time>2020-03-14T09:51:41Z</time>
      </trkpt>
      <trkpt lat="45.8559" lon="6.19765">
        <ele>499.54</ele>
        <time>2020-03-14T09:51:42Z</time>
      </trkpt>
      <trkpt lat="45.85579" lon="6.19776">
        <ele>500.02</ele>
        <time>2020-03-14T09:51:43Z</time>
      </trkpt>
      <trkpt lat="45.85491" lon="6.19899">
        <ele>506.75</ele>
        <time>2020-03-14T09:51:52Z</time>
      </trkpt>
      <trkpt lat="45.85431" lon="6.20026">
        <ele>512.04</ele>
        <time>2020-03-14T09:51:58Z</time>
      </trkpt>
      <trkpt lat="45.85367" lon="6.20178">
        <ele>519.25</ele>
        <time>2020-03-14T09:52:06Z</time>
      </trkpt>
      <trkpt lat="45.85337" lon="6.20264">
        <ele>525.5</ele>
        <time>2020-03-14T09:52:11Z</time>
      </trkpt>
      <trkpt lat="45.85313" lon="6.20437">
        <ele>532.71</ele>
        <time>2020-03-14T09:52:22Z</time>
      </trkpt>
      <trkpt lat="45.8531" lon="6.2045">
        <ele>533.19</ele>
        <time>2020-03-14T09:52:23Z</time>
      </trkpt>
      <trkpt lat="45.85307" lon="6.20464">
        <ele>533.19</ele>
        <time>2020-03-14T09:52:24Z</time>
      </trkpt>
      <trkpt lat="45.85304" lon="6.20476">
        <ele>533.67</ele>
        <time>2020-03-14T09:52:25Z</time>
      </trkpt>
      <trkpt lat="45.85298" lon="6.20485">
        <ele>534.15</ele>
        <time>2020-03-14T09:52:26Z</time>
      </trkpt>
      <trkpt lat="45.85292" lon="6.20493">
        <ele>534.63</ele>
        <time>2020-03-14T09:52:27Z</time>
      </trkpt>
      <trkpt lat="45.85285" lon="6.20502">
        <ele>534.63</ele>
        <time>2020-03-14T09:52:28Z</time>
      </trkpt>
      <trkpt lat="45.85278" lon="6.20513">
        <ele>535.11</ele>
        <time>2020-03-14T09:52:29Z</time>
      </trkpt>
      <trkpt lat="45.85187" lon="6.20635">
        <ele>539.44</ele>
        <time>2020-03-14T09:52:39Z</time>
      </trkpt>
      <trkpt lat="45.8506" lon="6.20797">
        <ele>545.2</ele>
        <time>2020-03-14T09:52:49Z</time>
      </trkpt>
      <trkpt lat="45.84956" lon="6.20948">
        <ele>545.69</ele>
        <time>2020-03-14T09:52:55Z</time>
      </trkpt>
      <trkpt lat="45.84879" lon="6.21085">
        <ele>545.69</ele>
        <time>2020-03-14T09:53:02Z</time>
      </trkpt>
      <trkpt lat="45.8477" lon="6.21277">
        <ele>547.61</ele>
        <time>2020-03-14T09:53:13Z</time>
      </trkpt>
      <trkpt lat="45.84691" lon="6.21408">
        <ele>552.9</ele>
        <time>2020-03-14T09:53:23Z</time>
      </trkpt>
      <trkpt lat="45.84682" lon="6.21413">
        <ele>553.38</ele>
        <time>2020-03-14T09:53:24Z</time>
      </trkpt>
      <trkpt lat="45.84673" lon="6.21418">
        <ele>553.38</ele>
        <time>2020-03-14T09:53:25Z</time>
      </trkpt>
      <trkpt lat="45.84663" lon="6.21412">
        <ele>554.34</ele>
        <time>2020-03-14T09:53:26Z</time>
      </trkpt>
      <trkpt lat="45.84654" lon="6.21405">
        <ele>554.82</ele>
        <time>2020-03-14T09:53:27Z</time>
      </trkpt>
      <trkpt lat="45.84645" lon="6.21398">
        <ele>555.3</ele>
        <time>2020-03-14T09:53:28Z</time>
      </trkpt>
      <trkpt lat="45.84626" lon="6.21375">
        <ele>554.34</ele>
        <time>2020-03-14T09:53:30Z</time>
      </trkpt>
      <trkpt lat="45.84538" lon="6.21264">
        <ele>547.13</ele>
        <time>2020-03-14T09:53:38Z</time>
      </trkpt>
      <trkpt lat="45.8453" lon="6.21256">
        <ele>546.17</ele>
        <time>2020-03-14T09:53:39Z</time>
      </trkpt>
      <trkpt lat="45.84521" lon="6.21254">
        <ele>544.72</ele>
        <time>2020-03-14T09:53:40Z</time>
      </trkpt>
      <trkpt lat="45.84513" lon="6.21255">
        <ele>543.76</ele>
        <time>2020-03-14T09:53:41Z</time>
      </trkpt>
      <trkpt lat="45.84507" lon="6.21267">
        <ele>542.8</ele>
        <time>2020-03-14T09:53:42Z</time>
      </trkpt>
      <trkpt lat="45.84499" lon="6.21281">
        <ele>541.36</ele>
        <time>2020-03-14T09:53:43Z</time>
      </trkpt>
      <trkpt lat="45.84489" lon="6.213">
        <ele>539.92</ele>
        <time>2020-03-14T09:53:44Z</time>
      </trkpt>
      <trkpt lat="45.84431" lon="6.21383">
        <ele>532.71</ele>
        <time>2020-03-14T09:53:50Z</time>
      </trkpt>
      <trkpt lat="45.84425" lon="6.21386">
        <ele>531.27</ele>
        <time>2020-03-14T09:53:51Z</time>
      </trkpt>
      <trkpt lat="45.84425" lon="6.21384">
        <ele>529.82</ele>
        <time>2020-03-14T09:53:52Z</time>
      </trkpt>
      <trkpt lat="45.84423" lon="6.21376">
        <ele>528.86</ele>
        <time>2020-03-14T09:53:53Z</time>
      </trkpt>
      <trkpt lat="45.84421" lon="6.21363">
        <ele>528.38</ele>
        <time>2020-03-14T09:53:54Z</time>
      </trkpt>
      <trkpt lat="45.84421" lon="6.21342">
        <ele>527.42</ele>
        <time>2020-03-14T09:53:55Z</time>
      </trkpt>
      <trkpt lat="45.84423" lon="6.21253">
        <ele>523.09</ele>
        <time>2020-03-14T09:53:59Z</time>
      </trkpt>
      <trkpt lat="45.8442" lon="6.21238">
        <ele>522.13</ele>
        <time>2020-03-14T09:54:00Z</time>
      </trkpt>
      <trkpt lat="45.84415" lon="6.2122">
        <ele>521.17</ele>
        <time>2020-03-14T09:54:01Z</time>
      </trkpt>
      <trkpt lat="45.84366" lon="6.211">
        <ele>513.48</ele>
        <time>2020-03-14T09:54:08Z</time>
      </trkpt>
      <trkpt lat="45.84362" lon="6.2109">
        <ele>513</ele>
        <time>2020-03-14T09:54:09Z</time>
      </trkpt>
      <trkpt lat="45.84358" lon="6.21084">
        <ele>512.04</ele>
        <time>2020-03-14T09:54:10Z</time>
      </trkpt>
      <trkpt lat="45.84353" lon="6.21082">
        <ele>511.08</ele>
        <time>2020-03-14T09:54:11Z</time>
      </trkpt>
      <trkpt lat="45.84348" lon="6.21082">
        <ele>509.64</ele>
        <time>2020-03-14T09:54:12Z</time>
      </trkpt>
      <trkpt lat="45.84346" lon="6.2109">
        <ele>509.16</ele>
        <time>2020-03-14T09:54:13Z</time>
      </trkpt>
      <trkpt lat="45.84343" lon="6.21102">
        <ele>508.19</ele>
        <time>2020-03-14T09:54:14Z</time>
      </trkpt>
      <trkpt lat="45.84341" lon="6.21119">
        <ele>507.23</ele>
        <time>2020-03-14T09:54:15Z</time>
      </trkpt>
      <trkpt lat="45.84338" lon="6.21138">
        <ele>505.79</ele>
        <time>2020-03-14T09:54:16Z</time>
      </trkpt>
      <trkpt lat="45.84339" lon="6.21156">
        <ele>504.83</ele>
        <time>2020-03-14T09:54:17Z</time>
      </trkpt>
      <trkpt lat="45.8434" lon="6.21174">
        <ele>503.87</ele>
        <time>2020-03-14T09:54:18Z</time>
      </trkpt>
      <trkpt lat="45.84342" lon="6.21187">
        <ele>502.43</ele>
        <time>2020-03-14T09:54:19Z</time>
      </trkpt>
      <trkpt lat="45.84341" lon="6.21208">
        <ele>501.46</ele>
        <time>2020-03-14T09:54:20Z</time>
      </trkpt>
      <trkpt lat="45.84339" lon="6.21229">
        <ele>500.02</ele>
        <time>2020-03-14T09:54:21Z</time>
      </trkpt>
      <trkpt lat="45.84332" lon="6.21246">
        <ele>499.06</ele>
        <time>2020-03-14T09:54:22Z</time>
      </trkpt>
      <trkpt lat="45.84324" lon="6.21264">
        <ele>497.62</ele>
        <time>2020-03-14T09:54:23Z</time>
      </trkpt>
      <trkpt lat="45.84315" lon="6.21281">
        <ele>496.18</ele>
        <time>2020-03-14T09:54:24Z</time>
      </trkpt>
      <trkpt lat="45.84303" lon="6.21294">
        <ele>494.74</ele>
        <time>2020-03-14T09:54:25Z</time>
      </trkpt>
      <trkpt lat="45.84293" lon="6.21307">
        <ele>493.77</ele>
        <time>2020-03-14T09:54:26Z</time>
      </trkpt>
      <trkpt lat="45.84284" lon="6.21322">
        <ele>492.81</ele>
        <time>2020-03-14T09:54:27Z</time>
      </trkpt>
      <trkpt lat="45.84278" lon="6.21336">
        <ele>491.85</ele>
        <time>2020-03-14T09:54:28Z</time>
      </trkpt>
      <trkpt lat="45.84272" lon="6.21351">
        <ele>491.85</ele>
        <time>2020-03-14T09:54:29Z</time>
      </trkpt>
      <trkpt lat="45.84265" lon="6.21366">
        <ele>491.37</ele>
        <time>2020-03-14T09:54:30Z</time>
      </trkpt>
      <trkpt lat="45.84225" lon="6.21476">
        <ele>486.56</ele>
        <time>2020-03-14T09:54:37Z</time>
      </trkpt>
      <trkpt lat="45.84215" lon="6.21488">
        <ele>486.08</ele>
        <time>2020-03-14T09:54:38Z</time>
      </trkpt>
      <trkpt lat="45.84204" lon="6.215">
        <ele>485.6</ele>
        <time>2020-03-14T09:54:39Z</time>
      </trkpt>
      <trkpt lat="45.84192" lon="6.2151">
        <ele>485.6</ele>
        <time>2020-03-14T09:54:40Z</time>
      </trkpt>
      <trkpt lat="45.8418" lon="6.21521">
        <ele>485.6</ele>
        <time>2020-03-14T09:54:41Z</time>
      </trkpt>
      <trkpt lat="45.84075" lon="6.21608">
        <ele>484.16</ele>
        <time>2020-03-14T09:54:50Z</time>
      </trkpt>
      <trkpt lat="45.84001" lon="6.21662">
        <ele>477.91</ele>
        <time>2020-03-14T09:54:57Z</time>
      </trkpt>
      <trkpt lat="45.83991" lon="6.21665">
        <ele>476.95</ele>
        <time>2020-03-14T09:54:58Z</time>
      </trkpt>
      <trkpt lat="45.83983" lon="6.21668">
        <ele>476.47</ele>
        <time>2020-03-14T09:54:59Z</time>
      </trkpt>
      <trkpt lat="45.83968" lon="6.21658">
        <ele>475.51</ele>
        <time>2020-03-14T09:55:01Z</time>
      </trkpt>
      <trkpt lat="45.8396" lon="6.21662">
        <ele>474.55</ele>
        <time>2020-03-14T09:55:02Z</time>
      </trkpt>
      <trkpt lat="45.83958" lon="6.21665">
        <ele>474.07</ele>
        <time>2020-03-14T09:55:03Z</time>
      </trkpt>
      <trkpt lat="45.8395" lon="6.21686">
        <ele>473.11</ele>
        <time>2020-03-14T09:55:04Z</time>
      </trkpt>
      <trkpt lat="45.83939" lon="6.21692">
        <ele>472.63</ele>
        <time>2020-03-14T09:55:05Z</time>
      </trkpt>
      <trkpt lat="45.83927" lon="6.21694">
        <ele>471.66</ele>
        <time>2020-03-14T09:55:06Z</time>
      </trkpt>
      <trkpt lat="45.83799" lon="6.21707">
        <ele>462.05</ele>
        <time>2020-03-14T09:55:17Z</time>
      </trkpt>
      <trkpt lat="45.83743" lon="6.21703">
        <ele>455.8</ele>
        <time>2020-03-14T09:55:24Z</time>
      </trkpt>
      <trkpt lat="45.83743" lon="6.21703">
        <ele>455.32</ele>
        <time>2020-03-14T09:55:38Z</time>
      </trkpt>
      <trkpt lat="45.83737" lon="6.21703">
        <ele>453.4</ele>
        <time>2020-03-14T09:55:59Z</time>
      </trkpt>
      <trkpt lat="45.8373" lon="6.21702">
        <ele>452.92</ele>
        <time>2020-03-14T09:56:00Z</time>
      </trkpt>
      <trkpt lat="45.83693" lon="6.21692">
        <ele>450.03</ele>
        <time>2020-03-14T09:56:04Z</time>
      </trkpt>
      <trkpt lat="45.836" lon="6.21702">
        <ele>446.19</ele>
        <time>2020-03-14T09:56:12Z</time>
      </trkpt>
      <trkpt lat="45.83449" lon="6.21712">
        <ele>446.67</ele>
        <time>2020-03-14T09:56:23Z</time>
      </trkpt>
      <trkpt lat="45.83364" lon="6.21745">
        <ele>447.15</ele>
        <time>2020-03-14T09:56:27Z</time>
      </trkpt>
      <trkpt lat="45.83347" lon="6.21758">
        <ele>447.15</ele>
        <time>2020-03-14T09:56:28Z</time>
      </trkpt>
      <trkpt lat="45.83333" lon="6.21777">
        <ele>447.15</ele>
        <time>2020-03-14T09:56:29Z</time>
      </trkpt>
      <trkpt lat="45.83317" lon="6.21798">
        <ele>447.15</ele>
        <time>2020-03-14T09:56:30Z</time>
      </trkpt>
      <trkpt lat="45.83305" lon="6.21825">
        <ele>446.67</ele>
        <time>2020-03-14T09:56:31Z</time>
      </trkpt>
      <trkpt lat="45.83292" lon="6.21852">
        <ele>446.19</ele>
        <time>2020-03-14T09:56:32Z</time>
      </trkpt>
      <trkpt lat="45.83279" lon="6.21879">
        <ele>446.19</ele>
        <time>2020-03-14T09:56:33Z</time>
      </trkpt>
      <trkpt lat="45.83262" lon="6.21903">
        <ele>445.71</ele>
        <time>2020-03-14T09:56:34Z</time>
      </trkpt>
      <trkpt lat="45.83244" lon="6.21926">
        <ele>445.23</ele>
        <time>2020-03-14T09:56:35Z</time>
      </trkpt>
      <trkpt lat="45.83226" lon="6.21948">
        <ele>444.75</ele>
        <time>2020-03-14T09:56:36Z</time>
      </trkpt>
      <trkpt lat="45.83206" lon="6.21966">
        <ele>445.23</ele>
        <time>2020-03-14T09:56:37Z</time>
      </trkpt>
      <trkpt lat="45.83185" lon="6.21983">
        <ele>445.23</ele>
        <time>2020-03-14T09:56:38Z</time>
      </trkpt>
      <trkpt lat="45.83162" lon="6.21997">
        <ele>445.71</ele>
        <time>2020-03-14T09:56:39Z</time>
      </trkpt>
      <trkpt lat="45.83139" lon="6.22008">
        <ele>445.71</ele>
        <time>2020-03-14T09:56:40Z</time>
      </trkpt>
      <trkpt lat="45.82997" lon="6.22066">
        <ele>450.03</ele>
        <time>2020-03-14T09:56:47Z</time>
      </trkpt>
      <trkpt lat="45.82875" lon="6.22098">
        <ele>451.96</ele>
        <time>2020-03-14T09:56:54Z</time>
      </trkpt>
      <trkpt lat="45.82718" lon="6.22131">
        <ele>452.92</ele>
        <time>2020-03-14T09:57:03Z</time>
      </trkpt>
      <trkpt lat="45.82691" lon="6.22142">
        <ele>452.44</ele>
        <time>2020-03-14T09:57:05Z</time>
      </trkpt>
      <trkpt lat="45.82605" lon="6.22218">
        <ele>451.96</ele>
        <time>2020-03-14T09:57:13Z</time>
      </trkpt>
      <trkpt lat="45.8255" lon="6.22307">
        <ele>451.48</ele>
        <time>2020-03-14T09:57:19Z</time>
      </trkpt>
      <trkpt lat="45.82434" lon="6.22507">
        <ele>449.07</ele>
        <time>2020-03-14T09:57:30Z</time>
      </trkpt>
      <trkpt lat="45.82333" lon="6.22672">
        <ele>448.59</ele>
        <time>2020-03-14T09:57:40Z</time>
      </trkpt>
      <trkpt lat="45.8232" lon="6.22685">
        <ele>448.59</ele>
        <time>2020-03-14T09:57:41Z</time>
      </trkpt>
      <trkpt lat="45.82304" lon="6.22693">
        <ele>448.59</ele>
        <time>2020-03-14T09:57:42Z</time>
      </trkpt>
      <trkpt lat="45.82288" lon="6.22702">
        <ele>448.59</ele>
        <time>2020-03-14T09:57:43Z</time>
      </trkpt>
      <trkpt lat="45.82272" lon="6.22703">
        <ele>448.11</ele>
        <time>2020-03-14T09:57:44Z</time>
      </trkpt>
      <trkpt lat="45.82256" lon="6.22705">
        <ele>448.11</ele>
        <time>2020-03-14T09:57:45Z</time>
      </trkpt>
      <trkpt lat="45.82227" lon="6.22707">
        <ele>447.15</ele>
        <time>2020-03-14T09:57:47Z</time>
      </trkpt>
      <trkpt lat="45.82211" lon="6.22704">
        <ele>447.15</ele>
        <time>2020-03-14T09:57:48Z</time>
      </trkpt>
      <trkpt lat="45.82171" lon="6.22681">
        <ele>447.15</ele>
        <time>2020-03-14T09:57:51Z</time>
      </trkpt>
      <trkpt lat="45.8216" lon="6.22676">
        <ele>447.15</ele>
        <time>2020-03-14T09:57:52Z</time>
      </trkpt>
      <trkpt lat="45.82147" lon="6.22679">
        <ele>446.67</ele>
        <time>2020-03-14T09:57:53Z</time>
      </trkpt>
      <trkpt lat="45.82134" lon="6.22689">
        <ele>446.19</ele>
        <time>2020-03-14T09:57:54Z</time>
      </trkpt>
      <trkpt lat="45.8212" lon="6.227">
        <ele>446.19</ele>
        <time>2020-03-14T09:57:55Z</time>
      </trkpt>
      <trkpt lat="45.82106" lon="6.22712">
        <ele>446.19</ele>
        <time>2020-03-14T09:57:56Z</time>
      </trkpt>
      <trkpt lat="45.82082" lon="6.22737">
        <ele>446.19</ele>
        <time>2020-03-14T09:57:58Z</time>
      </trkpt>
      <trkpt lat="45.8207" lon="6.22752">
        <ele>446.67</ele>
        <time>2020-03-14T09:57:59Z</time>
      </trkpt>
      <trkpt lat="45.82028" lon="6.22801">
        <ele>446.19</ele>
        <time>2020-03-14T09:58:02Z</time>
      </trkpt>
      <trkpt lat="45.82012" lon="6.22817">
        <ele>446.19</ele>
        <time>2020-03-14T09:58:03Z</time>
      </trkpt>
      <trkpt lat="45.8191" lon="6.22875">
        <ele>446.19</ele>
        <time>2020-03-14T09:58:09Z</time>
      </trkpt>
      <trkpt lat="45.81843" lon="6.22893">
        <ele>447.15</ele>
        <time>2020-03-14T09:58:13Z</time>
      </trkpt>
      <trkpt lat="45.818" lon="6.22917">
        <ele>447.63</ele>
        <time>2020-03-14T09:58:16Z</time>
      </trkpt>
      <trkpt lat="45.81787" lon="6.22923">
        <ele>447.63</ele>
        <time>2020-03-14T09:58:17Z</time>
      </trkpt>
      <trkpt lat="45.81771" lon="6.22923">
        <ele>448.11</ele>
        <time>2020-03-14T09:58:18Z</time>
      </trkpt>
      <trkpt lat="45.81754" lon="6.22921">
        <ele>448.11</ele>
        <time>2020-03-14T09:58:19Z</time>
      </trkpt>
      <trkpt lat="45.81738" lon="6.22913">
        <ele>448.11</ele>
        <time>2020-03-14T09:58:20Z</time>
      </trkpt>
      <trkpt lat="45.81621" lon="6.22903">
        <ele>448.59</ele>
        <time>2020-03-14T09:58:27Z</time>
      </trkpt>
      <trkpt lat="45.81607" lon="6.22909">
        <ele>448.59</ele>
        <time>2020-03-14T09:58:28Z</time>
      </trkpt>
      <trkpt lat="45.81592" lon="6.22914">
        <ele>448.59</ele>
        <time>2020-03-14T09:58:29Z</time>
      </trkpt>
      <trkpt lat="45.81576" lon="6.22922">
        <ele>448.59</ele>
        <time>2020-03-14T09:58:30Z</time>
      </trkpt>
      <trkpt lat="45.81562" lon="6.22935">
        <ele>448.11</ele>
        <time>2020-03-14T09:58:31Z</time>
      </trkpt>
      <trkpt lat="45.81546" lon="6.22948">
        <ele>448.11</ele>
        <time>2020-03-14T09:58:32Z</time>
      </trkpt>
      <trkpt lat="45.81529" lon="6.22959">
        <ele>448.11</ele>
        <time>2020-03-14T09:58:33Z</time>
      </trkpt>
      <trkpt lat="45.81513" lon="6.2297">
        <ele>447.63</ele>
        <time>2020-03-14T09:58:34Z</time>
      </trkpt>
      <trkpt lat="45.81462" lon="6.23004">
        <ele>447.15</ele>
        <time>2020-03-14T09:58:37Z</time>
      </trkpt>
      <trkpt lat="45.81447" lon="6.23018">
        <ele>447.15</ele>
        <time>2020-03-14T09:58:38Z</time>
      </trkpt>
      <trkpt lat="45.81403" lon="6.23061">
        <ele>447.15</ele>
        <time>2020-03-14T09:58:41Z</time>
      </trkpt>
      <trkpt lat="45.81388" lon="6.23071">
        <ele>447.15</ele>
        <time>2020-03-14T09:58:42Z</time>
      </trkpt>
      <trkpt lat="45.81372" lon="6.23075">
        <ele>447.63</ele>
        <time>2020-03-14T09:58:43Z</time>
      </trkpt>
      <trkpt lat="45.81355" lon="6.23071">
        <ele>447.63</ele>
        <time>2020-03-14T09:58:44Z</time>
      </trkpt>
      <trkpt lat="45.81338" lon="6.23067">
        <ele>448.11</ele>
        <time>2020-03-14T09:58:45Z</time>
      </trkpt>
      <trkpt lat="45.81322" lon="6.23063">
        <ele>448.11</ele>
        <time>2020-03-14T09:58:46Z</time>
      </trkpt>
      <trkpt lat="45.81304" lon="6.23065">
        <ele>448.11</ele>
        <time>2020-03-14T09:58:47Z</time>
      </trkpt>
      <trkpt lat="45.81242" lon="6.23079">
        <ele>447.15</ele>
        <time>2020-03-14T09:58:50Z</time>
      </trkpt>
      <trkpt lat="45.81145" lon="6.23119">
        <ele>446.19</ele>
        <time>2020-03-14T09:58:55Z</time>
      </trkpt>
      <trkpt lat="45.81126" lon="6.23122">
        <ele>446.67</ele>
        <time>2020-03-14T09:58:56Z</time>
      </trkpt>
      <trkpt lat="45.81068" lon="6.23133">
        <ele>447.15</ele>
        <time>2020-03-14T09:58:59Z</time>
      </trkpt>
      <trkpt lat="45.81049" lon="6.23136">
        <ele>447.15</ele>
        <time>2020-03-14T09:59:00Z</time>
      </trkpt>
      <trkpt lat="45.80934" lon="6.23169">
        <ele>445.71</ele>
        <time>2020-03-14T09:59:06Z</time>
      </trkpt>
      <trkpt lat="45.80861" lon="6.23172">
        <ele>445.23</ele>
        <time>2020-03-14T09:59:10Z</time>
      </trkpt>
      <trkpt lat="45.80847" lon="6.23181">
        <ele>445.23</ele>
        <time>2020-03-14T09:59:11Z</time>
      </trkpt>
      <trkpt lat="45.80817" lon="6.23201">
        <ele>445.23</ele>
        <time>2020-03-14T09:59:13Z</time>
      </trkpt>
      <trkpt lat="45.80798" lon="6.23204">
        <ele>445.23</ele>
        <time>2020-03-14T09:59:14Z</time>
      </trkpt>
      <trkpt lat="45.80725" lon="6.23216">
        <ele>445.71</ele>
        <time>2020-03-14T09:59:18Z</time>
      </trkpt>
      <trkpt lat="45.80709" lon="6.23214">
        <ele>445.71</ele>
        <time>2020-03-14T09:59:19Z</time>
      </trkpt>
      <trkpt lat="45.80693" lon="6.23212">
        <ele>445.71</ele>
        <time>2020-03-14T09:59:20Z</time>
      </trkpt>
      <trkpt lat="45.80678" lon="6.23209">
        <ele>445.71</ele>
        <time>2020-03-14T09:59:21Z</time>
      </trkpt>
      <trkpt lat="45.80663" lon="6.23211">
        <ele>445.71</ele>
        <time>2020-03-14T09:59:22Z</time>
      </trkpt>
      <trkpt lat="45.80647" lon="6.23215">
        <ele>445.71</ele>
        <time>2020-03-14T09:59:23Z</time>
      </trkpt>
      <trkpt lat="45.8063" lon="6.2322">
        <ele>445.71</ele>
        <time>2020-03-14T09:59:24Z</time>
      </trkpt>
      <trkpt lat="45.80601" lon="6.23227">
        <ele>445.71</ele>
        <time>2020-03-14T09:59:26Z</time>
      </trkpt>
      <trkpt lat="45.80587" lon="6.23223">
        <ele>446.19</ele>
        <time>2020-03-14T09:59:27Z</time>
      </trkpt>
      <trkpt lat="45.80573" lon="6.23216">
        <ele>446.19</ele>
        <time>2020-03-14T09:59:28Z</time>
      </trkpt>
      <trkpt lat="45.80524" lon="6.23184">
        <ele>445.71</ele>
        <time>2020-03-14T09:59:31Z</time>
      </trkpt>
      <trkpt lat="45.80475" lon="6.23159">
        <ele>445.71</ele>
        <time>2020-03-14T09:59:34Z</time>
      </trkpt>
      <trkpt lat="45.80457" lon="6.23149">
        <ele>445.71</ele>
        <time>2020-03-14T09:59:35Z</time>
      </trkpt>
      <trkpt lat="45.80312" lon="6.23022">
        <ele>446.67</ele>
        <time>2020-03-14T09:59:44Z</time>
      </trkpt>
      <trkpt lat="45.80178" lon="6.22939">
        <ele>447.15</ele>
        <time>2020-03-14T09:59:53Z</time>
      </trkpt>
      <trkpt lat="45.80125" lon="6.22915">
        <ele>447.15</ele>
        <time>2020-03-14T09:59:57Z</time>
      </trkpt>
      <trkpt lat="45.80113" lon="6.22913">
        <ele>447.15</ele>
        <time>2020-03-14T09:59:58Z</time>
      </trkpt>
      <trkpt lat="45.80101" lon="6.22912">
        <ele>447.15</ele>
        <time>2020-03-14T09:59:59Z</time>
      </trkpt>
      <trkpt lat="45.80032" lon="6.22919">
        <ele>447.15</ele>
        <time>2020-03-14T10:00:04Z</time>
      </trkpt>
      <trkpt lat="45.80019" lon="6.22924">
        <ele>447.15</ele>
        <time>2020-03-14T10:00:05Z</time>
      </trkpt>
      <trkpt lat="45.80006" lon="6.22934">
        <ele>446.67</ele>
        <time>2020-03-14T10:00:06Z</time>
      </trkpt>
      <trkpt lat="45.79992" lon="6.22944">
        <ele>446.67</ele>
        <time>2020-03-14T10:00:07Z</time>
      </trkpt>
      <trkpt lat="45.7998" lon="6.22958">
        <ele>446.67</ele>
        <time>2020-03-14T10:00:08Z</time>
      </trkpt>
      <trkpt lat="45.79967" lon="6.22972">
        <ele>446.19</ele>
        <time>2020-03-14T10:00:09Z</time>
      </trkpt>
      <trkpt lat="45.79932" lon="6.23014">
        <ele>446.19</ele>
        <time>2020-03-14T10:00:12Z</time>
      </trkpt>
      <trkpt lat="45.7988" lon="6.23081">
        <ele>448.11</ele>
        <time>2020-03-14T10:00:17Z</time>
      </trkpt>
      <trkpt lat="45.79867" lon="6.23096">
        <ele>448.59</ele>
        <time>2020-03-14T10:00:18Z</time>
      </trkpt>
      <trkpt lat="45.79852" lon="6.23111">
        <ele>448.59</ele>
        <time>2020-03-14T10:00:19Z</time>
      </trkpt>
      <trkpt lat="45.79835" lon="6.23124">
        <ele>449.07</ele>
        <time>2020-03-14T10:00:20Z</time>
      </trkpt>
      <trkpt lat="45.79815" lon="6.23133">
        <ele>449.07</ele>
        <time>2020-03-14T10:00:21Z</time>
      </trkpt>
      <trkpt lat="45.79793" lon="6.23141">
        <ele>449.07</ele>
        <time>2020-03-14T10:00:22Z</time>
      </trkpt>
      <trkpt lat="45.79766" lon="6.23146">
        <ele>449.55</ele>
        <time>2020-03-14T10:00:23Z</time>
      </trkpt>
      <trkpt lat="45.7962" lon="6.23175">
        <ele>450.03</ele>
        <time>2020-03-14T10:00:27Z</time>
      </trkpt>
      <trkpt lat="45.79397" lon="6.23218">
        <ele>451.96</ele>
        <time>2020-03-14T10:00:33Z</time>
      </trkpt>
      <trkpt lat="45.79303" lon="6.23231">
        <ele>453.4</ele>
        <time>2020-03-14T10:00:37Z</time>
      </trkpt>
      <trkpt lat="45.79284" lon="6.23227">
        <ele>453.88</ele>
        <time>2020-03-14T10:00:38Z</time>
      </trkpt>
      <trkpt lat="45.79265" lon="6.23221">
        <ele>453.88</ele>
        <time>2020-03-14T10:00:39Z</time>
      </trkpt>
      <trkpt lat="45.79248" lon="6.23208">
        <ele>453.88</ele>
        <time>2020-03-14T10:00:40Z</time>
      </trkpt>
      <trkpt lat="45.7923" lon="6.23195">
        <ele>454.36</ele>
        <time>2020-03-14T10:00:41Z</time>
      </trkpt>
      <trkpt lat="45.79214" lon="6.2318">
        <ele>454.84</ele>
        <time>2020-03-14T10:00:42Z</time>
      </trkpt>
      <trkpt lat="45.79199" lon="6.23166">
        <ele>454.84</ele>
        <time>2020-03-14T10:00:43Z</time>
      </trkpt>
      <trkpt lat="45.79183" lon="6.23158">
        <ele>455.32</ele>
        <time>2020-03-14T10:00:44Z</time>
      </trkpt>
      <trkpt lat="45.79166" lon="6.23152">
        <ele>455.8</ele>
        <time>2020-03-14T10:00:45Z</time>
      </trkpt>
      <trkpt lat="45.79149" lon="6.23153">
        <ele>456.28</ele>
        <time>2020-03-14T10:00:46Z</time>
      </trkpt>
      <trkpt lat="45.79131" lon="6.23155">
        <ele>456.28</ele>
        <time>2020-03-14T10:00:47Z</time>
      </trkpt>
      <trkpt lat="45.7899" lon="6.23175">
        <ele>457.72</ele>
        <time>2020-03-14T10:00:56Z</time>
      </trkpt>
      <trkpt lat="45.78953" lon="6.2318">
        <ele>457.72</ele>
        <time>2020-03-14T10:00:59Z</time>
      </trkpt>
      <trkpt lat="45.78942" lon="6.23179">
        <ele>458.21</ele>
        <time>2020-03-14T10:01:00Z</time>
      </trkpt>
      <trkpt lat="45.78832" lon="6.23146">
        <ele>457.72</ele>
        <time>2020-03-14T10:01:09Z</time>
      </trkpt>
      <trkpt lat="45.78667" lon="6.23092">
        <ele>456.28</ele>
        <time>2020-03-14T10:01:18Z</time>
      </trkpt>
      <trkpt lat="45.78533" lon="6.23059">
        <ele>458.21</ele>
        <time>2020-03-14T10:01:26Z</time>
      </trkpt>
      <trkpt lat="45.78446" lon="6.23071">
        <ele>459.17</ele>
        <time>2020-03-14T10:01:33Z</time>
      </trkpt>
      <trkpt lat="45.78386" lon="6.23078">
        <ele>459.17</ele>
        <time>2020-03-14T10:01:37Z</time>
      </trkpt>
      <trkpt lat="45.78371" lon="6.23077">
        <ele>458.69</ele>
        <time>2020-03-14T10:01:38Z</time>
      </trkpt>
      <trkpt lat="45.78339" lon="6.23073">
        <ele>458.21</ele>
        <time>2020-03-14T10:01:40Z</time>
      </trkpt>
      <trkpt lat="45.78324" lon="6.23066">
        <ele>457.72</ele>
        <time>2020-03-14T10:01:41Z</time>
      </trkpt>
      <trkpt lat="45.78309" lon="6.23057">
        <ele>457.24</ele>
        <time>2020-03-14T10:01:42Z</time>
      </trkpt>
      <trkpt lat="45.78295" lon="6.23049">
        <ele>457.24</ele>
        <time>2020-03-14T10:01:43Z</time>
      </trkpt>
      <trkpt lat="45.78283" lon="6.23037">
        <ele>457.24</ele>
        <time>2020-03-14T10:01:44Z</time>
      </trkpt>
      <trkpt lat="45.78271" lon="6.23024">
        <ele>457.72</ele>
        <time>2020-03-14T10:01:45Z</time>
      </trkpt>
      <trkpt lat="45.78163" lon="6.2289">
        <ele>463.97</ele>
        <time>2020-03-14T10:01:55Z</time>
      </trkpt>
      <trkpt lat="45.78157" lon="6.22881">
        <ele>464.45</ele>
        <time>2020-03-14T10:01:56Z</time>
      </trkpt>
      <trkpt lat="45.78152" lon="6.22874">
        <ele>464.45</ele>
        <time>2020-03-14T10:01:57Z</time>
      </trkpt>
      <trkpt lat="45.78151" lon="6.22854">
        <ele>464.45</ele>
        <time>2020-03-14T10:01:58Z</time>
      </trkpt>
      <trkpt lat="45.78157" lon="6.22842">
        <ele>464.45</ele>
        <time>2020-03-14T10:01:59Z</time>
      </trkpt>
      <trkpt lat="45.78164" lon="6.22831">
        <ele>464.45</ele>
        <time>2020-03-14T10:02:00Z</time>
      </trkpt>
      <trkpt lat="45.78171" lon="6.22818">
        <ele>464.93</ele>
        <time>2020-03-14T10:02:01Z</time>
      </trkpt>
      <trkpt lat="45.78179" lon="6.22806">
        <ele>464.45</ele>
        <time>2020-03-14T10:02:02Z</time>
      </trkpt>
      <trkpt lat="45.78259" lon="6.22685">
        <ele>464.93</ele>
        <time>2020-03-14T10:02:11Z</time>
      </trkpt>
      <trkpt lat="45.78362" lon="6.22551">
        <ele>465.42</ele>
        <time>2020-03-14T10:02:21Z</time>
      </trkpt>
      <trkpt lat="45.78453" lon="6.2243">
        <ele>464.93</ele>
        <time>2020-03-14T10:02:29Z</time>
      </trkpt>
      <trkpt lat="45.78468" lon="6.22409">
        <ele>464.45</ele>
        <time>2020-03-14T10:02:30Z</time>
      </trkpt>
      <trkpt lat="45.78484" lon="6.22389">
        <ele>463.97</ele>
        <time>2020-03-14T10:02:31Z</time>
      </trkpt>
      <trkpt lat="45.78501" lon="6.22367">
        <ele>463.49</ele>
        <time>2020-03-14T10:02:32Z</time>
      </trkpt>
      <trkpt lat="45.78619" lon="6.22213">
        <ele>461.57</ele>
        <time>2020-03-14T10:02:39Z</time>
      </trkpt>
      <trkpt lat="45.78751" lon="6.2204">
        <ele>459.65</ele>
        <time>2020-03-14T10:02:46Z</time>
      </trkpt>
      <trkpt lat="45.7884" lon="6.21923">
        <ele>457.24</ele>
        <time>2020-03-14T10:02:52Z</time>
      </trkpt>
      <trkpt lat="45.78942" lon="6.21789">
        <ele>455.8</ele>
        <time>2020-03-14T10:03:01Z</time>
      </trkpt>
      <trkpt lat="45.78977" lon="6.21745">
        <ele>455.32</ele>
        <time>2020-03-14T10:03:07Z</time>
      </trkpt>
      <trkpt lat="45.79019" lon="6.2169">
        <ele>453.88</ele>
        <time>2020-03-14T10:03:15Z</time>
      </trkpt>
      <trkpt lat="45.79025" lon="6.21681">
        <ele>453.4</ele>
        <time>2020-03-14T10:03:16Z</time>
      </trkpt>
      <trkpt lat="45.79111" lon="6.21571">
        <ele>451.96</ele>
        <time>2020-03-14T10:03:27Z</time>
      </trkpt>
      <trkpt lat="45.79228" lon="6.21415">
        <ele>450.52</ele>
        <time>2020-03-14T10:03:40Z</time>
      </trkpt>
      <trkpt lat="45.79285" lon="6.2136">
        <ele>450.03</ele>
        <time>2020-03-14T10:03:45Z</time>
      </trkpt>
      <trkpt lat="45.79298" lon="6.21353">
        <ele>449.55</ele>
        <time>2020-03-14T10:03:46Z</time>
      </trkpt>
      <trkpt lat="45.79323" lon="6.21342">
        <ele>449.07</ele>
        <time>2020-03-14T10:03:48Z</time>
      </trkpt>
      <trkpt lat="45.79375" lon="6.21336">
        <ele>449.55</ele>
        <time>2020-03-14T10:03:52Z</time>
      </trkpt>
      <trkpt lat="45.79389" lon="6.21335">
        <ele>449.55</ele>
        <time>2020-03-14T10:03:53Z</time>
      </trkpt>
      <trkpt lat="45.79504" lon="6.21321">
        <ele>450.03</ele>
        <time>2020-03-14T10:04:01Z</time>
      </trkpt>
      <trkpt lat="45.79639" lon="6.21304">
        <ele>450.03</ele>
        <time>2020-03-14T10:04:11Z</time>
      </trkpt>
      <trkpt lat="45.79811" lon="6.21282">
        <ele>448.11</ele>
        <time>2020-03-14T10:04:22Z</time>
      </trkpt>
      <trkpt lat="45.7996" lon="6.21264">
        <ele>447.63</ele>
        <time>2020-03-14T10:04:31Z</time>
      </trkpt>
      <trkpt lat="45.80104" lon="6.21248">
        <ele>449.07</ele>
        <time>2020-03-14T10:04:40Z</time>
      </trkpt>
      <trkpt lat="45.80256" lon="6.21228">
        <ele>450.52</ele>
        <time>2020-03-14T10:04:48Z</time>
      </trkpt>
      <trkpt lat="45.80343" lon="6.21211">
        <ele>450.52</ele>
        <time>2020-03-14T10:04:51Z</time>
      </trkpt>
      <trkpt lat="45.80429" lon="6.21194">
        <ele>450.03</ele>
        <time>2020-03-14T10:04:55Z</time>
      </trkpt>
      <trkpt lat="45.80623" lon="6.21155">
        <ele>448.59</ele>
        <time>2020-03-14T10:05:05Z</time>
      </trkpt>
      <trkpt lat="45.80789" lon="6.21105">
        <ele>447.15</ele>
        <time>2020-03-14T10:05:14Z</time>
      </trkpt>
      <trkpt lat="45.80915" lon="6.2108">
        <ele>447.63</ele>
        <time>2020-03-14T10:05:20Z</time>
      </trkpt>
      <trkpt lat="45.81046" lon="6.21053">
        <ele>447.63</ele>
        <time>2020-03-14T10:05:25Z</time>
      </trkpt>
      <trkpt lat="45.81122" lon="6.21033">
        <ele>446.67</ele>
        <time>2020-03-14T10:05:29Z</time>
      </trkpt>
      <trkpt lat="45.81247" lon="6.20999">
        <ele>445.71</ele>
        <time>2020-03-14T10:05:38Z</time>
      </trkpt>
      <trkpt lat="45.81278" lon="6.20989">
        <ele>444.75</ele>
        <time>2020-03-14T10:05:41Z</time>
      </trkpt>
      <trkpt lat="45.81362" lon="6.20962">
        <ele>444.27</ele>
        <time>2020-03-14T10:05:51Z</time>
      </trkpt>
      <trkpt lat="45.81379" lon="6.20956">
        <ele>444.27</ele>
        <time>2020-03-14T10:05:54Z</time>
      </trkpt>
      <trkpt lat="45.81382" lon="6.20955">
        <ele>444.27</ele>
        <time>2020-03-14T10:05:55Z</time>
      </trkpt>
      <trkpt lat="45.81391" lon="6.20952">
        <ele>445.23</ele>
        <time>2020-03-14T10:06:00Z</time>
      </trkpt>
      <trkpt lat="45.81398" lon="6.2095">
        <ele>445.23</ele>
        <time>2020-03-14T10:06:06Z</time>
      </trkpt>
      <trkpt lat="45.81434" lon="6.20931">
        <ele>446.19</ele>
        <time>2020-03-14T10:06:10Z</time>
      </trkpt>
      <trkpt lat="45.81461" lon="6.20906">
        <ele>447.15</ele>
        <time>2020-03-14T10:06:13Z</time>
      </trkpt>
      <trkpt lat="45.81471" lon="6.20896">
        <ele>448.11</ele>
        <time>2020-03-14T10:06:14Z</time>
      </trkpt>
      <trkpt lat="45.81529" lon="6.2084">
        <ele>452.92</ele>
        <time>2020-03-14T10:06:20Z</time>
      </trkpt>
      <trkpt lat="45.81541" lon="6.20835">
        <ele>452.92</ele>
        <time>2020-03-14T10:06:21Z</time>
      </trkpt>
      <trkpt lat="45.81552" lon="6.2083">
        <ele>453.4</ele>
        <time>2020-03-14T10:06:22Z</time>
      </trkpt>
      <trkpt lat="45.81564" lon="6.20826">
        <ele>453.4</ele>
        <time>2020-03-14T10:06:23Z</time>
      </trkpt>
      <trkpt lat="45.81576" lon="6.20823">
        <ele>453.4</ele>
        <time>2020-03-14T10:06:24Z</time>
      </trkpt>
      <trkpt lat="45.81715" lon="6.20806">
        <ele>453.4</ele>
        <time>2020-03-14T10:06:35Z</time>
      </trkpt>
      <trkpt lat="45.81781" lon="6.2079">
        <ele>452.44</ele>
        <time>2020-03-14T10:06:40Z</time>
      </trkpt>
      <trkpt lat="45.81794" lon="6.20786">
        <ele>452.44</ele>
        <time>2020-03-14T10:06:41Z</time>
      </trkpt>
      <trkpt lat="45.81807" lon="6.20781">
        <ele>452.44</ele>
        <time>2020-03-14T10:06:42Z</time>
      </trkpt>
      <trkpt lat="45.81951" lon="6.20701">
        <ele>449.55</ele>
        <time>2020-03-14T10:06:51Z</time>
      </trkpt>
      <trkpt lat="45.82035" lon="6.20676">
        <ele>446.67</ele>
        <time>2020-03-14T10:06:55Z</time>
      </trkpt>
      <trkpt lat="45.82054" lon="6.20675">
        <ele>445.71</ele>
        <time>2020-03-14T10:06:56Z</time>
      </trkpt>
      <trkpt lat="45.82072" lon="6.20674">
        <ele>445.23</ele>
        <time>2020-03-14T10:06:57Z</time>
      </trkpt>
      <trkpt lat="45.82089" lon="6.20683">
        <ele>444.75</ele>
        <time>2020-03-14T10:06:58Z</time>
      </trkpt>
      <trkpt lat="45.82107" lon="6.20693">
        <ele>443.79</ele>
        <time>2020-03-14T10:06:59Z</time>
      </trkpt>
      <trkpt lat="45.82125" lon="6.20703">
        <ele>443.31</ele>
        <time>2020-03-14T10:07:00Z</time>
      </trkpt>
      <trkpt lat="45.82154" lon="6.20724">
        <ele>442.82</ele>
        <time>2020-03-14T10:07:02Z</time>
      </trkpt>
      <trkpt lat="45.82166" lon="6.20738">
        <ele>442.82</ele>
        <time>2020-03-14T10:07:03Z</time>
      </trkpt>
      <trkpt lat="45.82177" lon="6.20756">
        <ele>442.82</ele>
        <time>2020-03-14T10:07:04Z</time>
      </trkpt>
      <trkpt lat="45.82189" lon="6.20775">
        <ele>443.31</ele>
        <time>2020-03-14T10:07:05Z</time>
      </trkpt>
      <trkpt lat="45.82203" lon="6.20792">
        <ele>443.31</ele>
        <time>2020-03-14T10:07:06Z</time>
      </trkpt>
      <trkpt lat="45.82217" lon="6.20809">
        <ele>443.31</ele>
        <time>2020-03-14T10:07:07Z</time>
      </trkpt>
      <trkpt lat="45.82234" lon="6.20823">
        <ele>443.31</ele>
        <time>2020-03-14T10:07:08Z</time>
      </trkpt>
      <trkpt lat="45.8228" lon="6.20862">
        <ele>443.31</ele>
        <time>2020-03-14T10:07:11Z</time>
      </trkpt>
      <trkpt lat="45.82297" lon="6.2087">
        <ele>443.31</ele>
        <time>2020-03-14T10:07:12Z</time>
      </trkpt>
      <trkpt lat="45.82314" lon="6.20878">
        <ele>443.31</ele>
        <time>2020-03-14T10:07:13Z</time>
      </trkpt>
      <trkpt lat="45.82332" lon="6.2088">
        <ele>442.82</ele>
        <time>2020-03-14T10:07:14Z</time>
      </trkpt>
      <trkpt lat="45.82352" lon="6.2088">
        <ele>442.82</ele>
        <time>2020-03-14T10:07:15Z</time>
      </trkpt>
      <trkpt lat="45.82372" lon="6.20875">
        <ele>442.82</ele>
        <time>2020-03-14T10:07:16Z</time>
      </trkpt>
      <trkpt lat="45.82393" lon="6.2087">
        <ele>442.82</ele>
        <time>2020-03-14T10:07:17Z</time>
      </trkpt>
      <trkpt lat="45.82513" lon="6.20842">
        <ele>443.79</ele>
        <time>2020-03-14T10:07:24Z</time>
      </trkpt>
      <trkpt lat="45.82592" lon="6.20814">
        <ele>443.79</ele>
        <time>2020-03-14T10:07:30Z</time>
      </trkpt>
      <trkpt lat="45.82603" lon="6.20802">
        <ele>443.79</ele>
        <time>2020-03-14T10:07:31Z</time>
      </trkpt>
      <trkpt lat="45.82624" lon="6.20777">
        <ele>444.27</ele>
        <time>2020-03-14T10:07:33Z</time>
      </trkpt>
      <trkpt lat="45.82635" lon="6.20764">
        <ele>444.27</ele>
        <time>2020-03-14T10:07:34Z</time>
      </trkpt>
      <trkpt lat="45.82669" lon="6.20728">
        <ele>444.27</ele>
        <time>2020-03-14T10:07:37Z</time>
      </trkpt>
      <trkpt lat="45.82681" lon="6.20719">
        <ele>444.27</ele>
        <time>2020-03-14T10:07:38Z</time>
      </trkpt>
      <trkpt lat="45.82696" lon="6.20713">
        <ele>444.27</ele>
        <time>2020-03-14T10:07:39Z</time>
      </trkpt>
      <trkpt lat="45.82757" lon="6.20696">
        <ele>445.23</ele>
        <time>2020-03-14T10:07:43Z</time>
      </trkpt>
      <trkpt lat="45.82888" lon="6.20662">
        <ele>445.71</ele>
        <time>2020-03-14T10:07:52Z</time>
      </trkpt>
      <trkpt lat="45.8299" lon="6.20632">
        <ele>445.71</ele>
        <time>2020-03-14T10:08:00Z</time>
      </trkpt>
      <trkpt lat="45.82996" lon="6.20627">
        <ele>445.71</ele>
        <time>2020-03-14T10:08:01Z</time>
      </trkpt>
      <trkpt lat="45.83001" lon="6.20618">
        <ele>445.71</ele>
        <time>2020-03-14T10:08:02Z</time>
      </trkpt>
      <trkpt lat="45.83002" lon="6.2061">
        <ele>445.71</ele>
        <time>2020-03-14T10:08:03Z</time>
      </trkpt>
      <trkpt lat="45.83" lon="6.20599">
        <ele>445.71</ele>
        <time>2020-03-14T10:08:04Z</time>
      </trkpt>
      <trkpt lat="45.82997" lon="6.20589">
        <ele>445.71</ele>
        <time>2020-03-14T10:08:05Z</time>
      </trkpt>
      <trkpt lat="45.82989" lon="6.20577">
        <ele>445.71</ele>
        <time>2020-03-14T10:08:06Z</time>
      </trkpt>
      <trkpt lat="45.8298" lon="6.20564">
        <ele>445.71</ele>
        <time>2020-03-14T10:08:07Z</time>
      </trkpt>
      <trkpt lat="45.8297" lon="6.20551">
        <ele>445.71</ele>
        <time>2020-03-14T10:08:08Z</time>
      </trkpt>
      <trkpt lat="45.82873" lon="6.20432">
        <ele>446.19</ele>
        <time>2020-03-14T10:08:19Z</time>
      </trkpt>
      <trkpt lat="45.82829" lon="6.20358">
        <ele>448.11</ele>
        <time>2020-03-14T10:08:25Z</time>
      </trkpt>
      <trkpt lat="45.82823" lon="6.20345">
        <ele>448.59</ele>
        <time>2020-03-14T10:08:26Z</time>
      </trkpt>
      <trkpt lat="45.82774" lon="6.20228">
        <ele>449.55</ele>
        <time>2020-03-14T10:08:34Z</time>
      </trkpt>
      <trkpt lat="45.8277" lon="6.20211">
        <ele>449.07</ele>
        <time>2020-03-14T10:08:35Z</time>
      </trkpt>
      <trkpt lat="45.82761" lon="6.20052">
        <ele>451</ele>
        <time>2020-03-14T10:08:44Z</time>
      </trkpt>
      <trkpt lat="45.82752" lon="6.19874">
        <ele>451.48</ele>
        <time>2020-03-14T10:08:55Z</time>
      </trkpt>
      <trkpt lat="45.82741" lon="6.19743">
        <ele>452.92</ele>
        <time>2020-03-14T10:09:03Z</time>
      </trkpt>
      <trkpt lat="45.82738" lon="6.19715">
        <ele>452.44</ele>
        <time>2020-03-14T10:09:05Z</time>
      </trkpt>
      <trkpt lat="45.82736" lon="6.1969">
        <ele>452.44</ele>
        <time>2020-03-14T10:09:07Z</time>
      </trkpt>
      <trkpt lat="45.82734" lon="6.1968">
        <ele>452.44</ele>
        <time>2020-03-14T10:09:08Z</time>
      </trkpt>
      <trkpt lat="45.82733" lon="6.19669">
        <ele>452.44</ele>
        <time>2020-03-14T10:09:09Z</time>
      </trkpt>
      <trkpt lat="45.82739" lon="6.19642">
        <ele>452.44</ele>
        <time>2020-03-14T10:09:10Z</time>
      </trkpt>
      <trkpt lat="45.82739" lon="6.19642">
        <ele>451.96</ele>
        <time>2020-03-14T10:09:11Z</time>
      </trkpt>
      <trkpt lat="45.82742" lon="6.1963">
        <ele>451.96</ele>
        <time>2020-03-14T10:09:12Z</time>
      </trkpt>
      <trkpt lat="45.82743" lon="6.19627">
        <ele>451.48</ele>
        <time>2020-03-14T10:09:13Z</time>
      </trkpt>
      <trkpt lat="45.82738" lon="6.19596">
        <ele>451.48</ele>
        <time>2020-03-14T10:09:14Z</time>
      </trkpt>
      <trkpt lat="45.82743" lon="6.19581">
        <ele>451</ele>
        <time>2020-03-14T10:09:15Z</time>
      </trkpt>
      <trkpt lat="45.82748" lon="6.19565">
        <ele>450.52</ele>
        <time>2020-03-14T10:09:16Z</time>
      </trkpt>
      <trkpt lat="45.82794" lon="6.19378">
        <ele>449.07</ele>
        <time>2020-03-14T10:09:26Z</time>
      </trkpt>
      <trkpt lat="45.82847" lon="6.19113">
        <ele>451</ele>
        <time>2020-03-14T10:09:39Z</time>
      </trkpt>
      <trkpt lat="45.82888" lon="6.18896">
        <ele>452.92</ele>
        <time>2020-03-14T10:09:50Z</time>
      </trkpt>
      <trkpt lat="45.82932" lon="6.1867">
        <ele>452.92</ele>
        <time>2020-03-14T10:10:01Z</time>
      </trkpt>
      <trkpt lat="45.82984" lon="6.18408">
        <ele>451.48</ele>
        <time>2020-03-14T10:10:13Z</time>
      </trkpt>
      <trkpt lat="45.83019" lon="6.18216">
        <ele>453.4</ele>
        <time>2020-03-14T10:10:23Z</time>
      </trkpt>
      <trkpt lat="45.83051" lon="6.18049">
        <ele>454.84</ele>
        <time>2020-03-14T10:10:34Z</time>
      </trkpt>
      <trkpt lat="45.83054" lon="6.18031">
        <ele>455.32</ele>
        <time>2020-03-14T10:10:36Z</time>
      </trkpt>
      <trkpt lat="45.83056" lon="6.18022">
        <ele>455.32</ele>
        <time>2020-03-14T10:10:37Z</time>
      </trkpt>
      <trkpt lat="45.83071" lon="6.17985">
        <ele>455.8</ele>
        <time>2020-03-14T10:10:41Z</time>
      </trkpt>
      <trkpt lat="45.83071" lon="6.17978">
        <ele>456.28</ele>
        <time>2020-03-14T10:10:42Z</time>
      </trkpt>
      <trkpt lat="45.8307" lon="6.17948">
        <ele>456.76</ele>
        <time>2020-03-14T10:10:44Z</time>
      </trkpt>
      <trkpt lat="45.83073" lon="6.17934">
        <ele>457.24</ele>
        <time>2020-03-14T10:10:45Z</time>
      </trkpt>
      <trkpt lat="45.83093" lon="6.17832">
        <ele>458.69</ele>
        <time>2020-03-14T10:10:52Z</time>
      </trkpt>
      <trkpt lat="45.83128" lon="6.1766">
        <ele>459.65</ele>
        <time>2020-03-14T10:11:02Z</time>
      </trkpt>
      <trkpt lat="45.8316" lon="6.17507">
        <ele>460.13</ele>
        <time>2020-03-14T10:11:12Z</time>
      </trkpt>
      <trkpt lat="45.8317" lon="6.17466">
        <ele>461.09</ele>
        <time>2020-03-14T10:11:18Z</time>
      </trkpt>
      <trkpt lat="45.83174" lon="6.17445">
        <ele>461.57</ele>
        <time>2020-03-14T10:11:22Z</time>
      </trkpt>
      <trkpt lat="45.83177" lon="6.17435">
        <ele>461.57</ele>
        <time>2020-03-14T10:11:23Z</time>
      </trkpt>
      <trkpt lat="45.83194" lon="6.17344">
        <ele>461.09</ele>
        <time>2020-03-14T10:11:28Z</time>
      </trkpt>
      <trkpt lat="45.83204" lon="6.17281">
        <ele>462.53</ele>
        <time>2020-03-14T10:11:33Z</time>
      </trkpt>
      <trkpt lat="45.83217" lon="6.17247">
        <ele>464.93</ele>
        <time>2020-03-14T10:11:38Z</time>
      </trkpt>
      <trkpt lat="45.83222" lon="6.17239">
        <ele>465.9</ele>
        <time>2020-03-14T10:11:42Z</time>
      </trkpt>
      <trkpt lat="45.83224" lon="6.17232">
        <ele>465.9</ele>
        <time>2020-03-14T10:11:43Z</time>
      </trkpt>
      <trkpt lat="45.83217" lon="6.17217">
        <ele>465.9</ele>
        <time>2020-03-14T10:11:44Z</time>
      </trkpt>
      <trkpt lat="45.83222" lon="6.17196">
        <ele>465.42</ele>
        <time>2020-03-14T10:11:46Z</time>
      </trkpt>
      <trkpt lat="45.83228" lon="6.17175">
        <ele>463.01</ele>
        <time>2020-03-14T10:11:51Z</time>
      </trkpt>
      <trkpt lat="45.83236" lon="6.17138">
        <ele>463.01</ele>
        <time>2020-03-14T10:12:00Z</time>
      </trkpt>
      <trkpt lat="45.83259" lon="6.17016">
        <ele>463.97</ele>
        <time>2020-03-14T10:12:10Z</time>
      </trkpt>
      <trkpt lat="45.83272" lon="6.16946">
        <ele>462.53</ele>
        <time>2020-03-14T10:12:18Z</time>
      </trkpt>
      <trkpt lat="45.83283" lon="6.16895">
        <ele>461.57</ele>
        <time>2020-03-14T10:12:25Z</time>
      </trkpt>
      <trkpt lat="45.83295" lon="6.16834">
        <ele>462.05</ele>
        <time>2020-03-14T10:12:30Z</time>
      </trkpt>
      <trkpt lat="45.83299" lon="6.1681">
        <ele>462.53</ele>
        <time>2020-03-14T10:12:32Z</time>
      </trkpt>
      <trkpt lat="45.83302" lon="6.16796">
        <ele>462.53</ele>
        <time>2020-03-14T10:12:33Z</time>
      </trkpt>
      <trkpt lat="45.83304" lon="6.16783">
        <ele>462.05</ele>
        <time>2020-03-14T10:12:34Z</time>
      </trkpt>
      <trkpt lat="45.83306" lon="6.16769">
        <ele>462.05</ele>
        <time>2020-03-14T10:12:35Z</time>
      </trkpt>
      <trkpt lat="45.83309" lon="6.16757">
        <ele>462.53</ele>
        <time>2020-03-14T10:12:36Z</time>
      </trkpt>
      <trkpt lat="45.83325" lon="6.16665">
        <ele>465.9</ele>
        <time>2020-03-14T10:12:45Z</time>
      </trkpt>
      <trkpt lat="45.83352" lon="6.16526">
        <ele>466.86</ele>
        <time>2020-03-14T10:12:56Z</time>
      </trkpt>
      <trkpt lat="45.83365" lon="6.16459">
        <ele>467.34</ele>
        <time>2020-03-14T10:13:03Z</time>
      </trkpt>
      <trkpt lat="45.83373" lon="6.16427">
        <ele>468.78</ele>
        <time>2020-03-14T10:13:06Z</time>
      </trkpt>
      <trkpt lat="45.83379" lon="6.16405">
        <ele>469.74</ele>
        <time>2020-03-14T10:13:08Z</time>
      </trkpt>
      <trkpt lat="45.83383" lon="6.16392">
        <ele>470.22</ele>
        <time>2020-03-14T10:13:09Z</time>
      </trkpt>
      <trkpt lat="45.83388" lon="6.16381">
        <ele>470.7</ele>
        <time>2020-03-14T10:13:10Z</time>
      </trkpt>
      <trkpt lat="45.83409" lon="6.16337">
        <ele>472.14</ele>
        <time>2020-03-14T10:13:14Z</time>
      </trkpt>
      <trkpt lat="45.83413" lon="6.16328">
        <ele>472.14</ele>
        <time>2020-03-14T10:13:15Z</time>
      </trkpt>
      <trkpt lat="45.83462" lon="6.16236">
        <ele>469.74</ele>
        <time>2020-03-14T10:13:24Z</time>
      </trkpt>
      <trkpt lat="45.83556" lon="6.16118">
        <ele>467.82</ele>
        <time>2020-03-14T10:13:34Z</time>
      </trkpt>
      <trkpt lat="45.83562" lon="6.16109">
        <ele>467.82</ele>
        <time>2020-03-14T10:13:35Z</time>
      </trkpt>
      <trkpt lat="45.83572" lon="6.16097">
        <ele>466.86</ele>
        <time>2020-03-14T10:13:37Z</time>
      </trkpt>
      <trkpt lat="45.83575" lon="6.16093">
        <ele>466.38</ele>
        <time>2020-03-14T10:13:38Z</time>
      </trkpt>
      <trkpt lat="45.83578" lon="6.1609">
        <ele>466.38</ele>
        <time>2020-03-14T10:13:39Z</time>
      </trkpt>
      <trkpt lat="45.83581" lon="6.16087">
        <ele>466.38</ele>
        <time>2020-03-14T10:13:40Z</time>
      </trkpt>
      <trkpt lat="45.83583" lon="6.16084">
        <ele>466.38</ele>
        <time>2020-03-14T10:13:41Z</time>
      </trkpt>
      <trkpt lat="45.83586" lon="6.1608">
        <ele>465.9</ele>
        <time>2020-03-14T10:13:42Z</time>
      </trkpt>
      <trkpt lat="45.83597" lon="6.16086">
        <ele>465.9</ele>
        <time>2020-03-14T10:13:43Z</time>
      </trkpt>
      <trkpt lat="45.83598" lon="6.16086">
        <ele>465.42</ele>
        <time>2020-03-14T10:13:50Z</time>
      </trkpt>
      <trkpt lat="45.83606" lon="6.16079">
        <ele>464.93</ele>
        <time>2020-03-14T10:13:54Z</time>
      </trkpt>
      <trkpt lat="45.8361" lon="6.16067">
        <ele>464.45</ele>
        <time>2020-03-14T10:13:55Z</time>
      </trkpt>
      <trkpt lat="45.83611" lon="6.16053">
        <ele>464.45</ele>
        <time>2020-03-14T10:13:57Z</time>
      </trkpt>
      <trkpt lat="45.83616" lon="6.16045">
        <ele>463.97</ele>
        <time>2020-03-14T10:13:58Z</time>
      </trkpt>
      <trkpt lat="45.83683" lon="6.15958">
        <ele>462.53</ele>
        <time>2020-03-14T10:14:06Z</time>
      </trkpt>
      <trkpt lat="45.83787" lon="6.15826">
        <ele>461.09</ele>
        <time>2020-03-14T10:14:17Z</time>
      </trkpt>
      <trkpt lat="45.839" lon="6.15682">
        <ele>458.21</ele>
        <time>2020-03-14T10:14:28Z</time>
      </trkpt>
      <trkpt lat="45.84033" lon="6.15513">
        <ele>458.21</ele>
        <time>2020-03-14T10:14:38Z</time>
      </trkpt>
      <trkpt lat="45.84216" lon="6.15279">
        <ele>456.28</ele>
        <time>2020-03-14T10:14:51Z</time>
      </trkpt>
      <trkpt lat="45.84353" lon="6.15102">
        <ele>456.28</ele>
        <time>2020-03-14T10:15:03Z</time>
      </trkpt>
      <trkpt lat="45.84463" lon="6.14951">
        <ele>456.76</ele>
        <time>2020-03-14T10:15:14Z</time>
      </trkpt>
      <trkpt lat="45.84524" lon="6.14885">
        <ele>457.72</ele>
        <time>2020-03-14T10:15:21Z</time>
      </trkpt>
      <trkpt lat="45.8453" lon="6.1488">
        <ele>457.24</ele>
        <time>2020-03-14T10:15:22Z</time>
      </trkpt>
      <trkpt lat="45.84538" lon="6.14877">
        <ele>457.24</ele>
        <time>2020-03-14T10:15:23Z</time>
      </trkpt>
      <trkpt lat="45.84552" lon="6.14883">
        <ele>458.21</ele>
        <time>2020-03-14T10:15:24Z</time>
      </trkpt>
      <trkpt lat="45.84555" lon="6.14882">
        <ele>458.69</ele>
        <time>2020-03-14T10:15:25Z</time>
      </trkpt>
      <trkpt lat="45.84565" lon="6.14876">
        <ele>459.17</ele>
        <time>2020-03-14T10:15:26Z</time>
      </trkpt>
      <trkpt lat="45.84571" lon="6.14868">
        <ele>459.17</ele>
        <time>2020-03-14T10:15:27Z</time>
      </trkpt>
      <trkpt lat="45.84576" lon="6.14854">
        <ele>459.65</ele>
        <time>2020-03-14T10:15:28Z</time>
      </trkpt>
      <trkpt lat="45.84577" lon="6.14843">
        <ele>459.65</ele>
        <time>2020-03-14T10:15:29Z</time>
      </trkpt>
      <trkpt lat="45.84578" lon="6.14831">
        <ele>459.17</ele>
        <time>2020-03-14T10:15:30Z</time>
      </trkpt>
      <trkpt lat="45.84582" lon="6.1482">
        <ele>459.17</ele>
        <time>2020-03-14T10:15:31Z</time>
      </trkpt>
      <trkpt lat="45.84589" lon="6.14808">
        <ele>459.17</ele>
        <time>2020-03-14T10:15:32Z</time>
      </trkpt>
      <trkpt lat="45.84597" lon="6.14794">
        <ele>459.65</ele>
        <time>2020-03-14T10:15:33Z</time>
      </trkpt>
      <trkpt lat="45.84707" lon="6.14688">
        <ele>461.57</ele>
        <time>2020-03-14T10:15:43Z</time>
      </trkpt>
      <trkpt lat="45.84827" lon="6.14616">
        <ele>461.09</ele>
        <time>2020-03-14T10:15:52Z</time>
      </trkpt>
      <trkpt lat="45.8497" lon="6.14561">
        <ele>460.13</ele>
        <time>2020-03-14T10:16:02Z</time>
      </trkpt>
      <trkpt lat="45.85065" lon="6.14526">
        <ele>458.21</ele>
        <time>2020-03-14T10:16:10Z</time>
      </trkpt>
      <trkpt lat="45.85224" lon="6.14465">
        <ele>455.8</ele>
        <time>2020-03-14T10:16:22Z</time>
      </trkpt>
      <trkpt lat="45.85413" lon="6.14394">
        <ele>453.88</ele>
        <time>2020-03-14T10:16:35Z</time>
      </trkpt>
      <trkpt lat="45.85615" lon="6.1432">
        <ele>451</ele>
        <time>2020-03-14T10:16:48Z</time>
      </trkpt>
      <trkpt lat="45.8582" lon="6.14242">
        <ele>447.15</ele>
        <time>2020-03-14T10:17:01Z</time>
      </trkpt>
      <trkpt lat="45.85946" lon="6.14197">
        <ele>445.71</ele>
        <time>2020-03-14T10:17:11Z</time>
      </trkpt>
      <trkpt lat="45.86035" lon="6.14164">
        <ele>447.63</ele>
        <time>2020-03-14T10:17:19Z</time>
      </trkpt>
      <trkpt lat="45.8616" lon="6.14119">
        <ele>451.48</ele>
        <time>2020-03-14T10:17:30Z</time>
      </trkpt>
      <trkpt lat="45.8617" lon="6.14115">
        <ele>451.96</ele>
        <time>2020-03-14T10:17:31Z</time>
      </trkpt>
      <trkpt lat="45.86181" lon="6.14111">
        <ele>452.44</ele>
        <time>2020-03-14T10:17:32Z</time>
      </trkpt>
      <trkpt lat="45.86191" lon="6.14107">
        <ele>452.92</ele>
        <time>2020-03-14T10:17:33Z</time>
      </trkpt>
      <trkpt lat="45.862" lon="6.14103">
        <ele>452.92</ele>
        <time>2020-03-14T10:17:34Z</time>
      </trkpt>
      <trkpt lat="45.86208" lon="6.14099">
        <ele>452.92</ele>
        <time>2020-03-14T10:17:35Z</time>
      </trkpt>
      <trkpt lat="45.86215" lon="6.14097">
        <ele>453.4</ele>
        <time>2020-03-14T10:17:36Z</time>
      </trkpt>
      <trkpt lat="45.86223" lon="6.14093">
        <ele>453.88</ele>
        <time>2020-03-14T10:17:38Z</time>
      </trkpt>
      <trkpt lat="45.86223" lon="6.14093">
        <ele>453.88</ele>
        <time>2020-03-14T10:17:39Z</time>
      </trkpt>
      <trkpt lat="45.86241" lon="6.14089">
        <ele>454.36</ele>
        <time>2020-03-14T10:17:40Z</time>
      </trkpt>
      <trkpt lat="45.86244" lon="6.14089">
        <ele>454.84</ele>
        <time>2020-03-14T10:17:41Z</time>
      </trkpt>
      <trkpt lat="45.86254" lon="6.14089">
        <ele>455.32</ele>
        <time>2020-03-14T10:17:42Z</time>
      </trkpt>
      <trkpt lat="45.86269" lon="6.14076">
        <ele>455.32</ele>
        <time>2020-03-14T10:17:43Z</time>
      </trkpt>
      <trkpt lat="45.86274" lon="6.14075">
        <ele>455.32</ele>
        <time>2020-03-14T10:17:44Z</time>
      </trkpt>
      <trkpt lat="45.86283" lon="6.14073">
        <ele>455.32</ele>
        <time>2020-03-14T10:17:45Z</time>
      </trkpt>
      <trkpt lat="45.86293" lon="6.1407">
        <ele>455.32</ele>
        <time>2020-03-14T10:17:46Z</time>
      </trkpt>
      <trkpt lat="45.86303" lon="6.14066">
        <ele>455.32</ele>
        <time>2020-03-14T10:17:47Z</time>
      </trkpt>
      <trkpt lat="45.86313" lon="6.14063">
        <ele>454.84</ele>
        <time>2020-03-14T10:17:48Z</time>
      </trkpt>
      <trkpt lat="45.86406" lon="6.14026">
        <ele>452.92</ele>
        <time>2020-03-14T10:17:58Z</time>
      </trkpt>
      <trkpt lat="45.86515" lon="6.13986">
        <ele>452.44</ele>
        <time>2020-03-14T10:18:08Z</time>
      </trkpt>
      <trkpt lat="45.8659" lon="6.13979">
        <ele>450.03</ele>
        <time>2020-03-14T10:18:14Z</time>
      </trkpt>
      <trkpt lat="45.86639" lon="6.13988">
        <ele>449.07</ele>
        <time>2020-03-14T10:18:18Z</time>
      </trkpt>
      <trkpt lat="45.86651" lon="6.13991">
        <ele>449.07</ele>
        <time>2020-03-14T10:18:19Z</time>
      </trkpt>
      <trkpt lat="45.86825" lon="6.14027">
        <ele>451.96</ele>
        <time>2020-03-14T10:18:32Z</time>
      </trkpt>
      <trkpt lat="45.86946" lon="6.14049">
        <ele>456.76</ele>
        <time>2020-03-14T10:18:42Z</time>
      </trkpt>
      <trkpt lat="45.87058" lon="6.14071">
        <ele>459.17</ele>
        <time>2020-03-14T10:18:51Z</time>
      </trkpt>
      <trkpt lat="45.87132" lon="6.14089">
        <ele>460.61</ele>
        <time>2020-03-14T10:18:57Z</time>
      </trkpt>
      <trkpt lat="45.87145" lon="6.14093">
        <ele>460.13</ele>
        <time>2020-03-14T10:18:58Z</time>
      </trkpt>
      <trkpt lat="45.87286" lon="6.14128">
        <ele>457.72</ele>
        <time>2020-03-14T10:19:09Z</time>
      </trkpt>
      <trkpt lat="45.87371" lon="6.14148">
        <ele>453.88</ele>
        <time>2020-03-14T10:19:16Z</time>
      </trkpt>
      <trkpt lat="45.87382" lon="6.1415">
        <ele>453.4</ele>
        <time>2020-03-14T10:19:17Z</time>
      </trkpt>
      <trkpt lat="45.87507" lon="6.14157">
        <ele>451.48</ele>
        <time>2020-03-14T10:19:27Z</time>
      </trkpt>
      <trkpt lat="45.87679" lon="6.14165">
        <ele>455.8</ele>
        <time>2020-03-14T10:19:40Z</time>
      </trkpt>
      <trkpt lat="45.87855" lon="6.14172">
        <ele>458.69</ele>
        <time>2020-03-14T10:19:53Z</time>
      </trkpt>
      <trkpt lat="45.87868" lon="6.14173">
        <ele>458.21</ele>
        <time>2020-03-14T10:19:54Z</time>
      </trkpt>
      <trkpt lat="45.87947" lon="6.14177">
        <ele>454.36</ele>
        <time>2020-03-14T10:20:01Z</time>
      </trkpt>
      <trkpt lat="45.87989" lon="6.1418">
        <ele>451.48</ele>
        <time>2020-03-14T10:20:06Z</time>
      </trkpt>
      <trkpt lat="45.88017" lon="6.14182">
        <ele>447.15</ele>
        <time>2020-03-14T10:20:14Z</time>
      </trkpt>
      <trkpt lat="45.88069" lon="6.14185">
        <ele>445.23</ele>
        <time>2020-03-14T10:20:25Z</time>
      </trkpt>
      <trkpt lat="45.88085" lon="6.14185">
        <ele>445.23</ele>
        <time>2020-03-14T10:20:27Z</time>
      </trkpt>
      <trkpt lat="45.8819" lon="6.14192">
        <ele>441.38</ele>
        <time>2020-03-14T10:20:39Z</time>
      </trkpt>
      <trkpt lat="45.88267" lon="6.14194">
        <ele>437.54</ele>
        <time>2020-03-14T10:20:48Z</time>
      </trkpt>
      <trkpt lat="45.88316" lon="6.14196">
        <ele>436.1</ele>
        <time>2020-03-14T10:20:55Z</time>
      </trkpt>
      <trkpt lat="45.88392" lon="6.14209">
        <ele>436.58</ele>
        <time>2020-03-14T10:21:05Z</time>
      </trkpt>
      <trkpt lat="45.88488" lon="6.14227">
        <ele>440.9</ele>
        <time>2020-03-14T10:21:13Z</time>
      </trkpt>
      <trkpt lat="45.88584" lon="6.14262">
        <ele>444.27</ele>
        <time>2020-03-14T10:21:24Z</time>
      </trkpt>
      <trkpt lat="45.88647" lon="6.14293">
        <ele>446.67</ele>
        <time>2020-03-14T10:21:34Z</time>
      </trkpt>
      <trkpt lat="45.8872" lon="6.14323">
        <ele>447.63</ele>
        <time>2020-03-14T10:21:41Z</time>
      </trkpt>
      <trkpt lat="45.88852" lon="6.14357">
        <ele>448.11</ele>
        <time>2020-03-14T10:21:54Z</time>
      </trkpt>
      <trkpt lat="45.88863" lon="6.14358">
        <ele>447.63</ele>
        <time>2020-03-14T10:21:55Z</time>
      </trkpt>
      <trkpt lat="45.88875" lon="6.14358">
        <ele>447.63</ele>
        <time>2020-03-14T10:21:56Z</time>
      </trkpt>
      <trkpt lat="45.88969" lon="6.14347">
        <ele>445.71</ele>
        <time>2020-03-14T10:22:04Z</time>
      </trkpt>
      <trkpt lat="45.88982" lon="6.14343">
        <ele>445.71</ele>
        <time>2020-03-14T10:22:05Z</time>
      </trkpt>
      <trkpt lat="45.88994" lon="6.14334">
        <ele>445.23</ele>
        <time>2020-03-14T10:22:06Z</time>
      </trkpt>
      <trkpt lat="45.89006" lon="6.14323">
        <ele>445.23</ele>
        <time>2020-03-14T10:22:07Z</time>
      </trkpt>
      <trkpt lat="45.89015" lon="6.14309">
        <ele>445.23</ele>
        <time>2020-03-14T10:22:08Z</time>
      </trkpt>
      <trkpt lat="45.89024" lon="6.14296">
        <ele>445.23</ele>
        <time>2020-03-14T10:22:09Z</time>
      </trkpt>
      <trkpt lat="45.89032" lon="6.14282">
        <ele>445.23</ele>
        <time>2020-03-14T10:22:10Z</time>
      </trkpt>
      <trkpt lat="45.8904" lon="6.1427">
        <ele>445.23</ele>
        <time>2020-03-14T10:22:11Z</time>
      </trkpt>
      <trkpt lat="45.89044" lon="6.14254">
        <ele>445.23</ele>
        <time>2020-03-14T10:22:12Z</time>
      </trkpt>
      <trkpt lat="45.89052" lon="6.14222">
        <ele>445.23</ele>
        <time>2020-03-14T10:22:14Z</time>
      </trkpt>
      <trkpt lat="45.89056" lon="6.14204">
        <ele>445.71</ele>
        <time>2020-03-14T10:22:15Z</time>
      </trkpt>
      <trkpt lat="45.89057" lon="6.14189">
        <ele>445.23</ele>
        <time>2020-03-14T10:22:16Z</time>
      </trkpt>
      <trkpt lat="45.89082" lon="6.14041">
        <ele>445.71</ele>
        <time>2020-03-14T10:22:26Z</time>
      </trkpt>
      <trkpt lat="45.8909" lon="6.14022">
        <ele>446.19</ele>
        <time>2020-03-14T10:22:28Z</time>
      </trkpt>
      <trkpt lat="45.89094" lon="6.14014">
        <ele>446.19</ele>
        <time>2020-03-14T10:22:29Z</time>
      </trkpt>
      <trkpt lat="45.89112" lon="6.13979">
        <ele>447.15</ele>
        <time>2020-03-14T10:22:33Z</time>
      </trkpt>
      <trkpt lat="45.89153" lon="6.13903">
        <ele>446.19</ele>
        <time>2020-03-14T10:22:41Z</time>
      </trkpt>
      <trkpt lat="45.89171" lon="6.13872">
        <ele>448.59</ele>
        <time>2020-03-14T10:22:45Z</time>
      </trkpt>
      <trkpt lat="45.89176" lon="6.13863">
        <ele>449.55</ele>
        <time>2020-03-14T10:22:46Z</time>
      </trkpt>
      <trkpt lat="45.89247" lon="6.1374">
        <ele>452.44</ele>
        <time>2020-03-14T10:22:58Z</time>
      </trkpt>
      <trkpt lat="45.89252" lon="6.13731">
        <ele>452.44</ele>
        <time>2020-03-14T10:22:59Z</time>
      </trkpt>
      <trkpt lat="45.89319" lon="6.1362">
        <ele>453.4</ele>
        <time>2020-03-14T10:23:09Z</time>
      </trkpt>
      <trkpt lat="45.89394" lon="6.13511">
        <ele>454.36</ele>
        <time>2020-03-14T10:23:19Z</time>
      </trkpt>
      <trkpt lat="45.89426" lon="6.13466">
        <ele>453.88</ele>
        <time>2020-03-14T10:23:25Z</time>
      </trkpt>
      <trkpt lat="45.89457" lon="6.13427">
        <ele>452.92</ele>
        <time>2020-03-14T10:23:35Z</time>
      </trkpt>
      <trkpt lat="45.89459" lon="6.13423">
        <ele>452.44</ele>
        <time>2020-03-14T10:23:36Z</time>
      </trkpt>
      <trkpt lat="45.89486" lon="6.13394">
        <ele>450.03</ele>
        <time>2020-03-14T10:23:46Z</time>
      </trkpt>
      <trkpt lat="45.8949" lon="6.1339">
        <ele>449.55</ele>
        <time>2020-03-14T10:23:47Z</time>
      </trkpt>
      <trkpt lat="45.89499" lon="6.13379">
        <ele>449.07</ele>
        <time>2020-03-14T10:23:49Z</time>
      </trkpt>
      <trkpt lat="45.89504" lon="6.13373">
        <ele>448.59</ele>
        <time>2020-03-14T10:23:50Z</time>
      </trkpt>
      <trkpt lat="45.8954" lon="6.13333">
        <ele>449.55</ele>
        <time>2020-03-14T10:23:58Z</time>
      </trkpt>
      <trkpt lat="45.89573" lon="6.13293">
        <ele>448.59</ele>
        <time>2020-03-14T10:24:08Z</time>
      </trkpt>
      <trkpt lat="45.89612" lon="6.13249">
        <ele>449.07</ele>
        <time>2020-03-14T10:24:17Z</time>
      </trkpt>
      <trkpt lat="45.89635" lon="6.13223">
        <ele>449.55</ele>
        <time>2020-03-14T10:24:26Z</time>
      </trkpt>
      <trkpt lat="45.89648" lon="6.13208">
        <ele>449.55</ele>
        <time>2020-03-14T10:24:29Z</time>
      </trkpt>
      <trkpt lat="45.89676" lon="6.13187">
        <ele>448.59</ele>
        <time>2020-03-14T10:24:35Z</time>
      </trkpt>
      <trkpt lat="45.89677" lon="6.13186">
        <ele>448.59</ele>
        <time>2020-03-14T10:24:36Z</time>
      </trkpt>
      <trkpt lat="45.89681" lon="6.13183">
        <ele>449.07</ele>
        <time>2020-03-14T10:24:37Z</time>
      </trkpt>
      <trkpt lat="45.89685" lon="6.13181">
        <ele>449.07</ele>
        <time>2020-03-14T10:24:38Z</time>
      </trkpt>
      <trkpt lat="45.89689" lon="6.13162">
        <ele>449.07</ele>
        <time>2020-03-14T10:24:39Z</time>
      </trkpt>
      <trkpt lat="45.8972" lon="6.13133">
        <ele>449.55</ele>
        <time>2020-03-14T10:24:42Z</time>
      </trkpt>
      <trkpt lat="45.89758" lon="6.13087">
        <ele>451</ele>
        <time>2020-03-14T10:24:46Z</time>
      </trkpt>
      <trkpt lat="45.89773" lon="6.13059">
        <ele>451.96</ele>
        <time>2020-03-14T10:24:48Z</time>
      </trkpt>
      <trkpt lat="45.89778" lon="6.13043">
        <ele>451.96</ele>
        <time>2020-03-14T10:24:49Z</time>
      </trkpt>
      <trkpt lat="45.89781" lon="6.13027">
        <ele>451.48</ele>
        <time>2020-03-14T10:24:50Z</time>
      </trkpt>
      <trkpt lat="45.89783" lon="6.13009">
        <ele>451.48</ele>
        <time>2020-03-14T10:24:51Z</time>
      </trkpt>
      <trkpt lat="45.89786" lon="6.12991">
        <ele>451.48</ele>
        <time>2020-03-14T10:24:52Z</time>
      </trkpt>
      <trkpt lat="45.89798" lon="6.12932">
        <ele>451</ele>
        <time>2020-03-14T10:24:56Z</time>
      </trkpt>
      <trkpt lat="45.89802" lon="6.1292">
        <ele>451</ele>
        <time>2020-03-14T10:24:57Z</time>
      </trkpt>
      <trkpt lat="45.89808" lon="6.12912">
        <ele>451</ele>
        <time>2020-03-14T10:24:58Z</time>
      </trkpt>
      <trkpt lat="45.89816" lon="6.12906">
        <ele>451</ele>
        <time>2020-03-14T10:24:59Z</time>
      </trkpt>
      <trkpt lat="45.89826" lon="6.12905">
        <ele>451</ele>
        <time>2020-03-14T10:25:00Z</time>
      </trkpt>
      <trkpt lat="45.89837" lon="6.12905">
        <ele>451.48</ele>
        <time>2020-03-14T10:25:01Z</time>
      </trkpt>
      <trkpt lat="45.89847" lon="6.12903">
        <ele>451.96</ele>
        <time>2020-03-14T10:25:02Z</time>
      </trkpt>
      <trkpt lat="45.89858" lon="6.12899">
        <ele>451.96</ele>
        <time>2020-03-14T10:25:03Z</time>
      </trkpt>
      <trkpt lat="45.89868" lon="6.12895">
        <ele>451.96</ele>
        <time>2020-03-14T10:25:04Z</time>
      </trkpt>
      <trkpt lat="45.8998" lon="6.12831">
        <ele>450.52</ele>
        <time>2020-03-14T10:25:16Z</time>
      </trkpt>
      <trkpt lat="45.90069" lon="6.12771">
        <ele>445.71</ele>
        <time>2020-03-14T10:25:25Z</time>
      </trkpt>
      <trkpt lat="45.90088" lon="6.12761">
        <ele>445.71</ele>
        <time>2020-03-14T10:25:27Z</time>
      </trkpt>
      <trkpt lat="45.90096" lon="6.12757">
        <ele>445.23</ele>
        <time>2020-03-14T10:25:28Z</time>
      </trkpt>
      <trkpt lat="45.90105" lon="6.12752">
        <ele>444.75</ele>
        <time>2020-03-14T10:25:29Z</time>
      </trkpt>
      <trkpt lat="45.90111" lon="6.1276">
        <ele>444.27</ele>
        <time>2020-03-14T10:25:30Z</time>
      </trkpt>
      <trkpt lat="45.90118" lon="6.12769">
        <ele>443.31</ele>
        <time>2020-03-14T10:25:31Z</time>
      </trkpt>
      <trkpt lat="45.90122" lon="6.12785">
        <ele>443.31</ele>
        <time>2020-03-14T10:25:32Z</time>
      </trkpt>
      <trkpt lat="45.90125" lon="6.128">
        <ele>443.31</ele>
        <time>2020-03-14T10:25:33Z</time>
      </trkpt>
      <trkpt lat="45.90129" lon="6.12813">
        <ele>442.82</ele>
        <time>2020-03-14T10:25:34Z</time>
      </trkpt>
      <trkpt lat="45.90143" lon="6.12856">
        <ele>442.34</ele>
        <time>2020-03-14T10:25:38Z</time>
      </trkpt>
      <trkpt lat="45.90147" lon="6.12867">
        <ele>442.34</ele>
        <time>2020-03-14T10:25:39Z</time>
      </trkpt>
      <trkpt lat="45.90166" lon="6.12923">
        <ele>441.86</ele>
        <time>2020-03-14T10:25:44Z</time>
      </trkpt>
      <trkpt lat="45.90169" lon="6.12936">
        <ele>441.86</ele>
        <time>2020-03-14T10:25:45Z</time>
      </trkpt>
      <trkpt lat="45.90173" lon="6.1295">
        <ele>441.38</ele>
        <time>2020-03-14T10:25:46Z</time>
      </trkpt>
      <trkpt lat="45.90198" lon="6.13051">
        <ele>440.9</ele>
        <time>2020-03-14T10:25:54Z</time>
      </trkpt>
      <trkpt lat="45.90215" lon="6.13114">
        <ele>436.58</ele>
        <time>2020-03-14T10:26:00Z</time>
      </trkpt>
      <trkpt lat="45.90218" lon="6.13118">
        <ele>436.1</ele>
        <time>2020-03-14T10:26:01Z</time>
      </trkpt>
      <trkpt lat="45.90226" lon="6.13123">
        <ele>435.61</ele>
        <time>2020-03-14T10:26:02Z</time>
      </trkpt>
      <trkpt lat="45.90233" lon="6.13119">
        <ele>436.1</ele>
        <time>2020-03-14T10:26:03Z</time>
      </trkpt>
      <trkpt lat="45.90243" lon="6.13112">
        <ele>436.1</ele>
        <time>2020-03-14T10:26:04Z</time>
      </trkpt>
      <trkpt lat="45.90266" lon="6.13098">
        <ele>435.61</ele>
        <time>2020-03-14T10:26:06Z</time>
      </trkpt>
      <trkpt lat="45.90276" lon="6.13091">
        <ele>435.61</ele>
        <time>2020-03-14T10:26:07Z</time>
      </trkpt>
      <trkpt lat="45.90296" lon="6.13082">
        <ele>436.1</ele>
        <time>2020-03-14T10:26:09Z</time>
      </trkpt>
      <trkpt lat="45.90305" lon="6.13078">
        <ele>436.1</ele>
        <time>2020-03-14T10:26:10Z</time>
      </trkpt>
      <trkpt lat="45.90314" lon="6.13073">
        <ele>436.58</ele>
        <time>2020-03-14T10:26:11Z</time>
      </trkpt>
      <trkpt lat="45.90321" lon="6.1307">
        <ele>437.06</ele>
        <time>2020-03-14T10:26:12Z</time>
      </trkpt>
      <trkpt lat="45.90328" lon="6.13066">
        <ele>438.02</ele>
        <time>2020-03-14T10:26:13Z</time>
      </trkpt>
      <trkpt lat="45.90334" lon="6.13063">
        <ele>438.5</ele>
        <time>2020-03-14T10:26:14Z</time>
      </trkpt>
      <trkpt lat="45.9034" lon="6.1306">
        <ele>438.5</ele>
        <time>2020-03-14T10:26:15Z</time>
      </trkpt>
      <trkpt lat="45.90347" lon="6.13061">
        <ele>438.98</ele>
        <time>2020-03-14T10:26:16Z</time>
      </trkpt>
      <trkpt lat="45.90353" lon="6.13065">
        <ele>439.46</ele>
        <time>2020-03-14T10:26:17Z</time>
      </trkpt>
      <trkpt lat="45.9036" lon="6.13069">
        <ele>439.94</ele>
        <time>2020-03-14T10:26:18Z</time>
      </trkpt>
      <trkpt lat="45.90365" lon="6.13072">
        <ele>440.42</ele>
        <time>2020-03-14T10:26:19Z</time>
      </trkpt>
      <trkpt lat="45.9037" lon="6.13075">
        <ele>440.9</ele>
        <time>2020-03-14T10:26:20Z</time>
      </trkpt>
      <trkpt lat="45.90382" lon="6.13083">
        <ele>441.86</ele>
        <time>2020-03-14T10:26:22Z</time>
      </trkpt>
      <trkpt lat="45.90391" lon="6.13088">
        <ele>442.34</ele>
        <time>2020-03-14T10:26:23Z</time>
      </trkpt>
      <trkpt lat="45.90417" lon="6.13104">
        <ele>443.79</ele>
        <time>2020-03-14T10:26:26Z</time>
      </trkpt>
      <trkpt lat="45.90426" lon="6.13109">
        <ele>443.31</ele>
        <time>2020-03-14T10:26:27Z</time>
      </trkpt>
      <trkpt lat="45.90435" lon="6.13114">
        <ele>443.31</ele>
        <time>2020-03-14T10:26:28Z</time>
      </trkpt>
      <trkpt lat="45.90454" lon="6.13128">
        <ele>442.82</ele>
        <time>2020-03-14T10:26:30Z</time>
      </trkpt>
      <trkpt lat="45.90462" lon="6.13137">
        <ele>442.82</ele>
        <time>2020-03-14T10:26:31Z</time>
      </trkpt>
      <trkpt lat="45.90512" lon="6.13196">
        <ele>441.86</ele>
        <time>2020-03-14T10:26:39Z</time>
      </trkpt>
      <trkpt lat="45.90522" lon="6.13209">
        <ele>440.9</ele>
        <time>2020-03-14T10:26:49Z</time>
      </trkpt>
      <trkpt lat="45.90524" lon="6.13213">
        <ele>440.9</ele>
        <time>2020-03-14T10:26:51Z</time>
      </trkpt>
      <trkpt lat="45.90529" lon="6.1323">
        <ele>440.9</ele>
        <time>2020-03-14T10:26:53Z</time>
      </trkpt>
      <trkpt lat="45.90528" lon="6.13239">
        <ele>440.9</ele>
        <time>2020-03-14T10:26:54Z</time>
      </trkpt>
      <trkpt lat="45.9053" lon="6.13242">
        <ele>441.38</ele>
        <time>2020-03-14T10:26:55Z</time>
      </trkpt>
      <trkpt lat="45.90538" lon="6.13253">
        <ele>441.38</ele>
        <time>2020-03-14T10:26:56Z</time>
      </trkpt>
      <trkpt lat="45.90543" lon="6.1325">
        <ele>441.38</ele>
        <time>2020-03-14T10:26:57Z</time>
      </trkpt>
      <trkpt lat="45.90549" lon="6.13239">
        <ele>441.86</ele>
        <time>2020-03-14T10:26:58Z</time>
      </trkpt>
      <trkpt lat="45.90549" lon="6.13235">
        <ele>441.86</ele>
        <time>2020-03-14T10:26:59Z</time>
      </trkpt>
      <trkpt lat="45.90547" lon="6.13223">
        <ele>442.34</ele>
        <time>2020-03-14T10:27:00Z</time>
      </trkpt>
      <trkpt lat="45.90561" lon="6.13185">
        <ele>441.86</ele>
        <time>2020-03-14T10:27:04Z</time>
      </trkpt>
      <trkpt lat="45.90572" lon="6.13161">
        <ele>441.86</ele>
        <time>2020-03-14T10:27:06Z</time>
      </trkpt>
      <trkpt lat="45.90586" lon="6.1313">
        <ele>441.86</ele>
        <time>2020-03-14T10:27:09Z</time>
      </trkpt>
      <trkpt lat="45.90594" lon="6.13127">
        <ele>442.34</ele>
        <time>2020-03-14T10:27:10Z</time>
      </trkpt>
      <trkpt lat="45.906" lon="6.13124">
        <ele>442.82</ele>
        <time>2020-03-14T10:27:11Z</time>
      </trkpt>
      <trkpt lat="45.90607" lon="6.13122">
        <ele>443.31</ele>
        <time>2020-03-14T10:27:12Z</time>
      </trkpt>
      <trkpt lat="45.90615" lon="6.13119">
        <ele>443.31</ele>
        <time>2020-03-14T10:27:13Z</time>
      </trkpt>
      <trkpt lat="45.90622" lon="6.13115">
        <ele>443.79</ele>
        <time>2020-03-14T10:27:14Z</time>
      </trkpt>
      <trkpt lat="45.90634" lon="6.13113">
        <ele>444.27</ele>
        <time>2020-03-14T10:27:15Z</time>
      </trkpt>
      <trkpt lat="45.90721" lon="6.13117">
        <ele>448.59</ele>
        <time>2020-03-14T10:27:24Z</time>
      </trkpt>
      <trkpt lat="45.90765" lon="6.13117">
        <ele>449.55</ele>
        <time>2020-03-14T10:27:30Z</time>
      </trkpt>
      <trkpt lat="45.90829" lon="6.13115">
        <ele>451</ele>
        <time>2020-03-14T10:27:36Z</time>
      </trkpt>
      <trkpt lat="45.9084" lon="6.13115">
        <ele>451.48</ele>
        <time>2020-03-14T10:27:37Z</time>
      </trkpt>
      <trkpt lat="45.90903" lon="6.13112">
        <ele>451.96</ele>
        <time>2020-03-14T10:27:44Z</time>
      </trkpt>
      <trkpt lat="45.90933" lon="6.13116">
        <ele>452.44</ele>
        <time>2020-03-14T10:27:47Z</time>
      </trkpt>
      <trkpt lat="45.90944" lon="6.13119">
        <ele>452.92</ele>
        <time>2020-03-14T10:27:48Z</time>
      </trkpt>
      <trkpt lat="45.90954" lon="6.1312">
        <ele>453.88</ele>
        <time>2020-03-14T10:27:49Z</time>
      </trkpt>
      <trkpt lat="45.90965" lon="6.13123">
        <ele>455.32</ele>
        <time>2020-03-14T10:27:50Z</time>
      </trkpt>
      <trkpt lat="45.90976" lon="6.13125">
        <ele>456.76</ele>
        <time>2020-03-14T10:27:51Z</time>
      </trkpt>
      <trkpt lat="45.90988" lon="6.13127">
        <ele>457.72</ele>
        <time>2020-03-14T10:27:52Z</time>
      </trkpt>
      <trkpt lat="45.911" lon="6.13147">
        <ele>460.61</ele>
        <time>2020-03-14T10:28:02Z</time>
      </trkpt>
      <trkpt lat="45.91152" lon="6.13156">
        <ele>459.65</ele>
        <time>2020-03-14T10:28:07Z</time>
      </trkpt>
      <trkpt lat="45.91159" lon="6.13158">
        <ele>459.17</ele>
        <time>2020-03-14T10:28:08Z</time>
      </trkpt>
      <trkpt lat="45.91169" lon="6.13181">
        <ele>459.17</ele>
        <time>2020-03-14T10:28:09Z</time>
      </trkpt>
      <trkpt lat="45.91175" lon="6.13185">
        <ele>458.69</ele>
        <time>2020-03-14T10:28:11Z</time>
      </trkpt>
      <trkpt lat="45.91182" lon="6.1319">
        <ele>458.69</ele>
        <time>2020-03-14T10:28:12Z</time>
      </trkpt>
      <trkpt lat="45.91188" lon="6.13189">
        <ele>458.69</ele>
        <time>2020-03-14T10:28:13Z</time>
      </trkpt>
      <trkpt lat="45.91194" lon="6.13184">
        <ele>458.69</ele>
        <time>2020-03-14T10:28:14Z</time>
      </trkpt>
      <trkpt lat="45.91195" lon="6.13183">
        <ele>459.17</ele>
        <time>2020-03-14T10:28:15Z</time>
      </trkpt>
      <trkpt lat="45.912" lon="6.13156">
        <ele>459.17</ele>
        <time>2020-03-14T10:28:16Z</time>
      </trkpt>
      <trkpt lat="45.91207" lon="6.1315">
        <ele>459.17</ele>
        <time>2020-03-14T10:28:17Z</time>
      </trkpt>
      <trkpt lat="45.91216" lon="6.13143">
        <ele>459.17</ele>
        <time>2020-03-14T10:28:18Z</time>
      </trkpt>
      <trkpt lat="45.91227" lon="6.13135">
        <ele>459.65</ele>
        <time>2020-03-14T10:28:19Z</time>
      </trkpt>
      <trkpt lat="45.91237" lon="6.13128">
        <ele>459.17</ele>
        <time>2020-03-14T10:28:20Z</time>
      </trkpt>
      <trkpt lat="45.91324" lon="6.1307">
        <ele>459.65</ele>
        <time>2020-03-14T10:28:29Z</time>
      </trkpt>
      <trkpt lat="45.91333" lon="6.13065">
        <ele>459.65</ele>
        <time>2020-03-14T10:28:30Z</time>
      </trkpt>
      <trkpt lat="45.91342" lon="6.13058">
        <ele>460.13</ele>
        <time>2020-03-14T10:28:31Z</time>
      </trkpt>
      <trkpt lat="45.91351" lon="6.13051">
        <ele>460.13</ele>
        <time>2020-03-14T10:28:32Z</time>
      </trkpt>
      <trkpt lat="45.9136" lon="6.13044">
        <ele>460.13</ele>
        <time>2020-03-14T10:28:33Z</time>
      </trkpt>
      <trkpt lat="45.91368" lon="6.13039">
        <ele>460.13</ele>
        <time>2020-03-14T10:28:34Z</time>
      </trkpt>
      <trkpt lat="45.91377" lon="6.13034">
        <ele>460.13</ele>
        <time>2020-03-14T10:28:35Z</time>
      </trkpt>
      <trkpt lat="45.91386" lon="6.13029">
        <ele>460.13</ele>
        <time>2020-03-14T10:28:36Z</time>
      </trkpt>
      <trkpt lat="45.9143" lon="6.12998">
        <ele>461.09</ele>
        <time>2020-03-14T10:28:44Z</time>
      </trkpt>
      <trkpt lat="45.91452" lon="6.12983">
        <ele>461.57</ele>
        <time>2020-03-14T10:28:57Z</time>
      </trkpt>
      <trkpt lat="45.91479" lon="6.12965">
        <ele>463.49</ele>
        <time>2020-03-14T10:29:11Z</time>
      </trkpt>
      <trkpt lat="45.915" lon="6.12951">
        <ele>463.01</ele>
        <time>2020-03-14T10:29:25Z</time>
      </trkpt>
      <trkpt lat="45.91501" lon="6.1295">
        <ele>463.49</ele>
        <time>2020-03-14T10:29:26Z</time>
      </trkpt>
    </trkseg>
  </trk>
  <trk>
    <name><![CDATA[Journal actif: 2020-03-14 12:29]]></name>
    <trkseg>
      <trkpt lat="45.91546" lon="6.12918">
        <ele>462.53</ele>
        <time>2020-03-14T10:29:35Z</time>
      </trkpt>
      <trkpt lat="45.91594" lon="6.12885">
        <ele>461.57</ele>
        <time>2020-03-14T10:29:48Z</time>
      </trkpt>
      <trkpt lat="45.91607" lon="6.12889">
        <ele>461.57</ele>
        <time>2020-03-14T10:29:50Z</time>
      </trkpt>
      <trkpt lat="45.91612" lon="6.12888">
        <ele>461.57</ele>
        <time>2020-03-14T10:29:51Z</time>
      </trkpt>
      <trkpt lat="45.9162" lon="6.12881">
        <ele>461.57</ele>
        <time>2020-03-14T10:29:52Z</time>
      </trkpt>
      <trkpt lat="45.91629" lon="6.12862">
        <ele>461.57</ele>
        <time>2020-03-14T10:29:54Z</time>
      </trkpt>
      <trkpt lat="45.9171" lon="6.12809">
        <ele>461.09</ele>
        <time>2020-03-14T10:30:04Z</time>
      </trkpt>
      <trkpt lat="45.91716" lon="6.12804">
        <ele>460.61</ele>
        <time>2020-03-14T10:30:05Z</time>
      </trkpt>
      <trkpt lat="45.91722" lon="6.128">
        <ele>460.61</ele>
        <time>2020-03-14T10:30:06Z</time>
      </trkpt>
      <trkpt lat="45.91726" lon="6.12796">
        <ele>460.61</ele>
        <time>2020-03-14T10:30:08Z</time>
      </trkpt>
      <trkpt lat="45.91753" lon="6.12793">
        <ele>460.61</ele>
        <time>2020-03-14T10:30:13Z</time>
      </trkpt>
      <trkpt lat="45.91759" lon="6.12793">
        <ele>461.09</ele>
        <time>2020-03-14T10:30:16Z</time>
      </trkpt>
      <trkpt lat="45.91762" lon="6.12793">
        <ele>461.57</ele>
        <time>2020-03-14T10:30:17Z</time>
      </trkpt>
      <trkpt lat="45.91765" lon="6.12788">
        <ele>462.05</ele>
        <time>2020-03-14T10:30:18Z</time>
      </trkpt>
      <trkpt lat="45.91766" lon="6.12782">
        <ele>462.05</ele>
        <time>2020-03-14T10:30:19Z</time>
      </trkpt>
      <trkpt lat="45.91772" lon="6.12768">
        <ele>462.05</ele>
        <time>2020-03-14T10:30:21Z</time>
      </trkpt>
      <trkpt lat="45.91776" lon="6.12762">
        <ele>462.05</ele>
        <time>2020-03-14T10:30:22Z</time>
      </trkpt>
      <trkpt lat="45.91783" lon="6.12756">
        <ele>462.05</ele>
        <time>2020-03-14T10:30:24Z</time>
      </trkpt>
      <trkpt lat="45.91798" lon="6.12746">
        <ele>461.57</ele>
        <time>2020-03-14T10:30:25Z</time>
      </trkpt>
      <trkpt lat="45.91843" lon="6.12717">
        <ele>461.09</ele>
        <time>2020-03-14T10:30:32Z</time>
      </trkpt>
      <trkpt lat="45.91855" lon="6.12709">
        <ele>460.61</ele>
        <time>2020-03-14T10:30:34Z</time>
      </trkpt>
      <trkpt lat="45.91865" lon="6.12701">
        <ele>461.09</ele>
        <time>2020-03-14T10:30:36Z</time>
      </trkpt>
      <trkpt lat="45.91868" lon="6.12699">
        <ele>461.09</ele>
        <time>2020-03-14T10:30:37Z</time>
      </trkpt>
      <trkpt lat="45.91871" lon="6.12697">
        <ele>460.61</ele>
        <time>2020-03-14T10:30:38Z</time>
      </trkpt>
      <trkpt lat="45.91873" lon="6.12695">
        <ele>460.61</ele>
        <time>2020-03-14T10:30:39Z</time>
      </trkpt>
      <trkpt lat="45.91879" lon="6.12691">
        <ele>460.13</ele>
        <time>2020-03-14T10:30:41Z</time>
      </trkpt>
      <trkpt lat="45.91889" lon="6.12684">
        <ele>460.13</ele>
        <time>2020-03-14T10:30:43Z</time>
      </trkpt>
      <trkpt lat="45.91896" lon="6.1268">
        <ele>460.13</ele>
        <time>2020-03-14T10:30:44Z</time>
      </trkpt>
      <trkpt lat="45.91903" lon="6.12675">
        <ele>460.13</ele>
        <time>2020-03-14T10:30:45Z</time>
      </trkpt>
      <trkpt lat="45.91933" lon="6.12656">
        <ele>460.13</ele>
        <time>2020-03-14T10:30:49Z</time>
      </trkpt>
      <trkpt lat="45.91936" lon="6.12651">
        <ele>460.13</ele>
        <time>2020-03-14T10:30:50Z</time>
      </trkpt>
      <trkpt lat="45.91938" lon="6.12647">
        <ele>459.65</ele>
        <time>2020-03-14T10:30:51Z</time>
      </trkpt>
      <trkpt lat="45.91939" lon="6.12644">
        <ele>459.17</ele>
        <time>2020-03-14T10:30:52Z</time>
      </trkpt>
      <trkpt lat="45.9194" lon="6.12642">
        <ele>458.69</ele>
        <time>2020-03-14T10:30:53Z</time>
      </trkpt>
      <trkpt lat="45.91941" lon="6.1264">
        <ele>458.21</ele>
        <time>2020-03-14T10:30:54Z</time>
      </trkpt>
      <trkpt lat="45.91942" lon="6.12637">
        <ele>457.72</ele>
        <time>2020-03-14T10:30:55Z</time>
      </trkpt>
      <trkpt lat="45.91944" lon="6.12633">
        <ele>457.72</ele>
        <time>2020-03-14T10:30:56Z</time>
      </trkpt>
      <trkpt lat="45.91947" lon="6.12627">
        <ele>457.72</ele>
        <time>2020-03-14T10:30:57Z</time>
      </trkpt>
      <trkpt lat="45.9195" lon="6.1262">
        <ele>457.72</ele>
        <time>2020-03-14T10:30:58Z</time>
      </trkpt>
      <trkpt lat="45.91959" lon="6.12593">
        <ele>457.72</ele>
        <time>2020-03-14T10:31:01Z</time>
      </trkpt>
      <trkpt lat="45.91964" lon="6.12585">
        <ele>457.24</ele>
        <time>2020-03-14T10:31:02Z</time>
      </trkpt>
      <trkpt lat="45.91968" lon="6.1258">
        <ele>457.24</ele>
        <time>2020-03-14T10:31:03Z</time>
      </trkpt>
      <trkpt lat="45.91975" lon="6.12576">
        <ele>456.76</ele>
        <time>2020-03-14T10:31:04Z</time>
      </trkpt>
      <trkpt lat="45.91982" lon="6.12573">
        <ele>456.76</ele>
        <time>2020-03-14T10:31:05Z</time>
      </trkpt>
      <trkpt lat="45.91989" lon="6.1257">
        <ele>456.76</ele>
        <time>2020-03-14T10:31:06Z</time>
      </trkpt>
      <trkpt lat="45.91996" lon="6.12568">
        <ele>456.76</ele>
        <time>2020-03-14T10:31:07Z</time>
      </trkpt>
      <trkpt lat="45.92002" lon="6.12565">
        <ele>456.76</ele>
        <time>2020-03-14T10:31:08Z</time>
      </trkpt>
      <trkpt lat="45.92069" lon="6.12561">
        <ele>460.61</ele>
        <time>2020-03-14T10:31:15Z</time>
      </trkpt>
      <trkpt lat="45.92159" lon="6.12559">
        <ele>463.97</ele>
        <time>2020-03-14T10:31:23Z</time>
      </trkpt>
      <trkpt lat="45.92236" lon="6.12557">
        <ele>465.42</ele>
        <time>2020-03-14T10:31:30Z</time>
      </trkpt>
      <trkpt lat="45.92334" lon="6.12556">
        <ele>465.42</ele>
        <time>2020-03-14T10:31:38Z</time>
      </trkpt>
      <trkpt lat="45.92395" lon="6.12565">
        <ele>463.01</ele>
        <time>2020-03-14T10:31:43Z</time>
      </trkpt>
      <trkpt lat="45.92406" lon="6.12574">
        <ele>462.05</ele>
        <time>2020-03-14T10:31:44Z</time>
      </trkpt>
      <trkpt lat="45.92418" lon="6.12582">
        <ele>461.09</ele>
        <time>2020-03-14T10:31:45Z</time>
      </trkpt>
      <trkpt lat="45.92429" lon="6.12591">
        <ele>459.65</ele>
        <time>2020-03-14T10:31:46Z</time>
      </trkpt>
      <trkpt lat="45.9244" lon="6.12601">
        <ele>458.69</ele>
        <time>2020-03-14T10:31:47Z</time>
      </trkpt>
      <trkpt lat="45.9245" lon="6.12615">
        <ele>457.24</ele>
        <time>2020-03-14T10:31:48Z</time>
      </trkpt>
      <trkpt lat="45.92501" lon="6.12685">
        <ele>454.84</ele>
        <time>2020-03-14T10:31:53Z</time>
      </trkpt>
      <trkpt lat="45.92514" lon="6.12696">
        <ele>455.32</ele>
        <time>2020-03-14T10:31:54Z</time>
      </trkpt>
      <trkpt lat="45.92527" lon="6.12704">
        <ele>455.32</ele>
        <time>2020-03-14T10:31:55Z</time>
      </trkpt>
      <trkpt lat="45.9254" lon="6.12713">
        <ele>456.28</ele>
        <time>2020-03-14T10:31:56Z</time>
      </trkpt>
      <trkpt lat="45.92554" lon="6.12717">
        <ele>456.76</ele>
        <time>2020-03-14T10:31:57Z</time>
      </trkpt>
      <trkpt lat="45.92569" lon="6.1272">
        <ele>457.24</ele>
        <time>2020-03-14T10:31:58Z</time>
      </trkpt>
      <trkpt lat="45.92584" lon="6.12721">
        <ele>457.72</ele>
        <time>2020-03-14T10:31:59Z</time>
      </trkpt>
      <trkpt lat="45.926" lon="6.12717">
        <ele>458.21</ele>
        <time>2020-03-14T10:32:00Z</time>
      </trkpt>
      <trkpt lat="45.92616" lon="6.12712">
        <ele>458.21</ele>
        <time>2020-03-14T10:32:01Z</time>
      </trkpt>
      <trkpt lat="45.92631" lon="6.12702">
        <ele>459.17</ele>
        <time>2020-03-14T10:32:02Z</time>
      </trkpt>
      <trkpt lat="45.92646" lon="6.12689">
        <ele>459.17</ele>
        <time>2020-03-14T10:32:03Z</time>
      </trkpt>
      <trkpt lat="45.92659" lon="6.12677">
        <ele>459.17</ele>
        <time>2020-03-14T10:32:04Z</time>
      </trkpt>
      <trkpt lat="45.92672" lon="6.12652">
        <ele>459.17</ele>
        <time>2020-03-14T10:32:05Z</time>
      </trkpt>
      <trkpt lat="45.92683" lon="6.12631">
        <ele>459.17</ele>
        <time>2020-03-14T10:32:06Z</time>
      </trkpt>
      <trkpt lat="45.92694" lon="6.12611">
        <ele>459.17</ele>
        <time>2020-03-14T10:32:07Z</time>
      </trkpt>
      <trkpt lat="45.92702" lon="6.12593">
        <ele>459.17</ele>
        <time>2020-03-14T10:32:08Z</time>
      </trkpt>
      <trkpt lat="45.92708" lon="6.12571">
        <ele>458.21</ele>
        <time>2020-03-14T10:32:11Z</time>
      </trkpt>
      <trkpt lat="45.92749" lon="6.12527">
        <ele>457.24</ele>
        <time>2020-03-14T10:32:12Z</time>
      </trkpt>
      <trkpt lat="45.92762" lon="6.12515">
        <ele>456.76</ele>
        <time>2020-03-14T10:32:13Z</time>
      </trkpt>
      <trkpt lat="45.92779" lon="6.12506">
        <ele>456.28</ele>
        <time>2020-03-14T10:32:14Z</time>
      </trkpt>
      <trkpt lat="45.92797" lon="6.12498">
        <ele>455.8</ele>
        <time>2020-03-14T10:32:15Z</time>
      </trkpt>
      <trkpt lat="45.92815" lon="6.12489">
        <ele>455.32</ele>
        <time>2020-03-14T10:32:16Z</time>
      </trkpt>
      <trkpt lat="45.92832" lon="6.1248">
        <ele>454.84</ele>
        <time>2020-03-14T10:32:17Z</time>
      </trkpt>
      <trkpt lat="45.92895" lon="6.12416">
        <ele>454.36</ele>
        <time>2020-03-14T10:32:21Z</time>
      </trkpt>
      <trkpt lat="45.92907" lon="6.12404">
        <ele>454.36</ele>
        <time>2020-03-14T10:32:22Z</time>
      </trkpt>
      <trkpt lat="45.92921" lon="6.12397">
        <ele>454.36</ele>
        <time>2020-03-14T10:32:23Z</time>
      </trkpt>
      <trkpt lat="45.92933" lon="6.12391">
        <ele>453.88</ele>
        <time>2020-03-14T10:32:24Z</time>
      </trkpt>
      <trkpt lat="45.92948" lon="6.12385">
        <ele>453.88</ele>
        <time>2020-03-14T10:32:25Z</time>
      </trkpt>
      <trkpt lat="45.92973" lon="6.12385">
        <ele>454.36</ele>
        <time>2020-03-14T10:32:27Z</time>
      </trkpt>
      <trkpt lat="45.92982" lon="6.12389">
        <ele>454.36</ele>
        <time>2020-03-14T10:32:28Z</time>
      </trkpt>
      <trkpt lat="45.92989" lon="6.12391">
        <ele>453.88</ele>
        <time>2020-03-14T10:32:29Z</time>
      </trkpt>
      <trkpt lat="45.92993" lon="6.12392">
        <ele>454.36</ele>
        <time>2020-03-14T10:32:30Z</time>
      </trkpt>
      <trkpt lat="45.92996" lon="6.12394">
        <ele>454.36</ele>
        <time>2020-03-14T10:32:31Z</time>
      </trkpt>
      <trkpt lat="45.92998" lon="6.12396">
        <ele>454.84</ele>
        <time>2020-03-14T10:32:32Z</time>
      </trkpt>
      <trkpt lat="45.93005" lon="6.12401">
        <ele>455.32</ele>
        <time>2020-03-14T10:32:34Z</time>
      </trkpt>
      <trkpt lat="45.9301" lon="6.12405">
        <ele>455.8</ele>
        <time>2020-03-14T10:32:35Z</time>
      </trkpt>
      <trkpt lat="45.93017" lon="6.1241">
        <ele>455.8</ele>
        <time>2020-03-14T10:32:36Z</time>
      </trkpt>
      <trkpt lat="45.93022" lon="6.12424">
        <ele>455.8</ele>
        <time>2020-03-14T10:32:37Z</time>
      </trkpt>
      <trkpt lat="45.93031" lon="6.12428">
        <ele>456.28</ele>
        <time>2020-03-14T10:32:38Z</time>
      </trkpt>
      <trkpt lat="45.9305" lon="6.12444">
        <ele>456.76</ele>
        <time>2020-03-14T10:32:40Z</time>
      </trkpt>
      <trkpt lat="45.93084" lon="6.12498">
        <ele>457.72</ele>
        <time>2020-03-14T10:32:44Z</time>
      </trkpt>
      <trkpt lat="45.93092" lon="6.12512">
        <ele>458.21</ele>
        <time>2020-03-14T10:32:45Z</time>
      </trkpt>
      <trkpt lat="45.93167" lon="6.12645">
        <ele>457.72</ele>
        <time>2020-03-14T10:32:53Z</time>
      </trkpt>
      <trkpt lat="45.93243" lon="6.12761">
        <ele>452.92</ele>
        <time>2020-03-14T10:33:01Z</time>
      </trkpt>
      <trkpt lat="45.93255" lon="6.12772">
        <ele>452.92</ele>
        <time>2020-03-14T10:33:02Z</time>
      </trkpt>
      <trkpt lat="45.93316" lon="6.12817">
        <ele>453.88</ele>
        <time>2020-03-14T10:33:09Z</time>
      </trkpt>
      <trkpt lat="45.93323" lon="6.12823">
        <ele>454.36</ele>
        <time>2020-03-14T10:33:15Z</time>
      </trkpt>
      <trkpt lat="45.93328" lon="6.12827">
        <ele>454.84</ele>
        <time>2020-03-14T10:33:19Z</time>
      </trkpt>
      <trkpt lat="45.93335" lon="6.12836">
        <ele>454.84</ele>
        <time>2020-03-14T10:33:20Z</time>
      </trkpt>
      <trkpt lat="45.93337" lon="6.12844">
        <ele>455.32</ele>
        <time>2020-03-14T10:33:21Z</time>
      </trkpt>
      <trkpt lat="45.93339" lon="6.1285">
        <ele>455.32</ele>
        <time>2020-03-14T10:33:22Z</time>
      </trkpt>
      <trkpt lat="45.93341" lon="6.12855">
        <ele>455.32</ele>
        <time>2020-03-14T10:33:23Z</time>
      </trkpt>
      <trkpt lat="45.93343" lon="6.12861">
        <ele>455.32</ele>
        <time>2020-03-14T10:33:24Z</time>
      </trkpt>
      <trkpt lat="45.93344" lon="6.12868">
        <ele>455.32</ele>
        <time>2020-03-14T10:33:25Z</time>
      </trkpt>
      <trkpt lat="45.93346" lon="6.12876">
        <ele>455.32</ele>
        <time>2020-03-14T10:33:26Z</time>
      </trkpt>
      <trkpt lat="45.93371" lon="6.12971">
        <ele>455.32</ele>
        <time>2020-03-14T10:33:35Z</time>
      </trkpt>
      <trkpt lat="45.93395" lon="6.1307">
        <ele>456.76</ele>
        <time>2020-03-14T10:33:41Z</time>
      </trkpt>
      <trkpt lat="45.93401" lon="6.13087">
        <ele>457.24</ele>
        <time>2020-03-14T10:33:42Z</time>
      </trkpt>
      <trkpt lat="45.93406" lon="6.13104">
        <ele>457.72</ele>
        <time>2020-03-14T10:33:43Z</time>
      </trkpt>
      <trkpt lat="45.93417" lon="6.13118">
        <ele>458.21</ele>
        <time>2020-03-14T10:33:44Z</time>
      </trkpt>
      <trkpt lat="45.93428" lon="6.13131">
        <ele>458.69</ele>
        <time>2020-03-14T10:33:45Z</time>
      </trkpt>
      <trkpt lat="45.93439" lon="6.13144">
        <ele>459.17</ele>
        <time>2020-03-14T10:33:46Z</time>
      </trkpt>
      <trkpt lat="45.93503" lon="6.13205">
        <ele>461.57</ele>
        <time>2020-03-14T10:33:51Z</time>
      </trkpt>
      <trkpt lat="45.93515" lon="6.13223">
        <ele>462.05</ele>
        <time>2020-03-14T10:33:52Z</time>
      </trkpt>
      <trkpt lat="45.93535" lon="6.1327">
        <ele>463.01</ele>
        <time>2020-03-14T10:33:54Z</time>
      </trkpt>
      <trkpt lat="45.93545" lon="6.13294">
        <ele>463.49</ele>
        <time>2020-03-14T10:33:55Z</time>
      </trkpt>
      <trkpt lat="45.93618" lon="6.1348">
        <ele>466.38</ele>
        <time>2020-03-14T10:34:03Z</time>
      </trkpt>
      <trkpt lat="45.9372" lon="6.13756">
        <ele>472.14</ele>
        <time>2020-03-14T10:34:17Z</time>
      </trkpt>
      <trkpt lat="45.93797" lon="6.14101">
        <ele>484.64</ele>
        <time>2020-03-14T10:34:28Z</time>
      </trkpt>
      <trkpt lat="45.93843" lon="6.14256">
        <ele>492.81</ele>
        <time>2020-03-14T10:34:36Z</time>
      </trkpt>
      <trkpt lat="45.93905" lon="6.1438">
        <ele>499.54</ele>
        <time>2020-03-14T10:34:44Z</time>
      </trkpt>
      <trkpt lat="45.9393" lon="6.14419">
        <ele>501.95</ele>
        <time>2020-03-14T10:34:47Z</time>
      </trkpt>
      <trkpt lat="45.9394" lon="6.14448">
        <ele>503.87</ele>
        <time>2020-03-14T10:34:50Z</time>
      </trkpt>
      <trkpt lat="45.93948" lon="6.14453">
        <ele>503.87</ele>
        <time>2020-03-14T10:34:51Z</time>
      </trkpt>
      <trkpt lat="45.93961" lon="6.1449">
        <ele>504.35</ele>
        <time>2020-03-14T10:34:53Z</time>
      </trkpt>
      <trkpt lat="45.93969" lon="6.14511">
        <ele>504.35</ele>
        <time>2020-03-14T10:34:54Z</time>
      </trkpt>
      <trkpt lat="45.94043" lon="6.14651">
        <ele>506.27</ele>
        <time>2020-03-14T10:35:02Z</time>
      </trkpt>
      <trkpt lat="45.94169" lon="6.14902">
        <ele>507.71</ele>
        <time>2020-03-14T10:35:18Z</time>
      </trkpt>
      <trkpt lat="45.94238" lon="6.15074">
        <ele>507.71</ele>
        <time>2020-03-14T10:35:29Z</time>
      </trkpt>
      <trkpt lat="45.94242" lon="6.15086">
        <ele>507.71</ele>
        <time>2020-03-14T10:35:30Z</time>
      </trkpt>
      <trkpt lat="45.9424" lon="6.15106">
        <ele>507.71</ele>
        <time>2020-03-14T10:35:33Z</time>
      </trkpt>
      <trkpt lat="45.94253" lon="6.15138">
        <ele>507.71</ele>
        <time>2020-03-14T10:35:34Z</time>
      </trkpt>
      <trkpt lat="45.94266" lon="6.15144">
        <ele>508.19</ele>
        <time>2020-03-14T10:35:36Z</time>
      </trkpt>
      <trkpt lat="45.94274" lon="6.15163">
        <ele>508.67</ele>
        <time>2020-03-14T10:35:38Z</time>
      </trkpt>
      <trkpt lat="45.94299" lon="6.15213">
        <ele>509.16</ele>
        <time>2020-03-14T10:35:39Z</time>
      </trkpt>
      <trkpt lat="45.94427" lon="6.15413">
        <ele>510.6</ele>
        <time>2020-03-14T10:35:52Z</time>
      </trkpt>
      <trkpt lat="45.9458" lon="6.15629">
        <ele>512.52</ele>
        <time>2020-03-14T10:36:06Z</time>
      </trkpt>
      <trkpt lat="45.94673" lon="6.15757">
        <ele>513.48</ele>
        <time>2020-03-14T10:36:10Z</time>
      </trkpt>
      <trkpt lat="45.94831" lon="6.16011">
        <ele>519.73</ele>
        <time>2020-03-14T10:36:17Z</time>
      </trkpt>
      <trkpt lat="45.94861" lon="6.16062">
        <ele>522.13</ele>
        <time>2020-03-14T10:36:19Z</time>
      </trkpt>
      <trkpt lat="45.94894" lon="6.16095">
        <ele>523.09</ele>
        <time>2020-03-14T10:36:21Z</time>
      </trkpt>
      <trkpt lat="45.94912" lon="6.16108">
        <ele>523.58</ele>
        <time>2020-03-14T10:36:22Z</time>
      </trkpt>
      <trkpt lat="45.94932" lon="6.16112">
        <ele>524.06</ele>
        <time>2020-03-14T10:36:23Z</time>
      </trkpt>
      <trkpt lat="45.94953" lon="6.16113">
        <ele>524.06</ele>
        <time>2020-03-14T10:36:24Z</time>
      </trkpt>
      <trkpt lat="45.94974" lon="6.16111">
        <ele>523.58</ele>
        <time>2020-03-14T10:36:25Z</time>
      </trkpt>
      <trkpt lat="45.94994" lon="6.16109">
        <ele>523.09</ele>
        <time>2020-03-14T10:36:26Z</time>
      </trkpt>
      <trkpt lat="45.95014" lon="6.1611">
        <ele>523.09</ele>
        <time>2020-03-14T10:36:27Z</time>
      </trkpt>
      <trkpt lat="45.95034" lon="6.16118">
        <ele>522.61</ele>
        <time>2020-03-14T10:36:28Z</time>
      </trkpt>
      <trkpt lat="45.95054" lon="6.16134">
        <ele>522.13</ele>
        <time>2020-03-14T10:36:29Z</time>
      </trkpt>
      <trkpt lat="45.95074" lon="6.16153">
        <ele>521.65</ele>
        <time>2020-03-14T10:36:30Z</time>
      </trkpt>
      <trkpt lat="45.95095" lon="6.16172">
        <ele>521.17</ele>
        <time>2020-03-14T10:36:31Z</time>
      </trkpt>
      <trkpt lat="45.95117" lon="6.16187">
        <ele>520.69</ele>
        <time>2020-03-14T10:36:32Z</time>
      </trkpt>
      <trkpt lat="45.95138" lon="6.16199">
        <ele>519.73</ele>
        <time>2020-03-14T10:36:33Z</time>
      </trkpt>
      <trkpt lat="45.9516" lon="6.16207">
        <ele>519.25</ele>
        <time>2020-03-14T10:36:34Z</time>
      </trkpt>
      <trkpt lat="45.95183" lon="6.16211">
        <ele>518.77</ele>
        <time>2020-03-14T10:36:35Z</time>
      </trkpt>
      <trkpt lat="45.95207" lon="6.16215">
        <ele>517.81</ele>
        <time>2020-03-14T10:36:36Z</time>
      </trkpt>
      <trkpt lat="45.95229" lon="6.1622">
        <ele>516.85</ele>
        <time>2020-03-14T10:36:37Z</time>
      </trkpt>
      <trkpt lat="45.95251" lon="6.16228">
        <ele>516.37</ele>
        <time>2020-03-14T10:36:38Z</time>
      </trkpt>
      <trkpt lat="45.95272" lon="6.16245">
        <ele>515.4</ele>
        <time>2020-03-14T10:36:40Z</time>
      </trkpt>
      <trkpt lat="45.95316" lon="6.16279">
        <ele>514.92</ele>
        <time>2020-03-14T10:36:41Z</time>
      </trkpt>
      <trkpt lat="45.9534" lon="6.16293">
        <ele>514.44</ele>
        <time>2020-03-14T10:36:42Z</time>
      </trkpt>
      <trkpt lat="45.95394" lon="6.16312">
        <ele>513.96</ele>
        <time>2020-03-14T10:36:44Z</time>
      </trkpt>
      <trkpt lat="45.95422" lon="6.16321">
        <ele>513.48</ele>
        <time>2020-03-14T10:36:45Z</time>
      </trkpt>
      <trkpt lat="45.95642" lon="6.16387">
        <ele>513.48</ele>
        <time>2020-03-14T10:36:52Z</time>
      </trkpt>
      <trkpt lat="45.95837" lon="6.16457">
        <ele>512.04</ele>
        <time>2020-03-14T10:36:59Z</time>
      </trkpt>
      <trkpt lat="45.95877" lon="6.16477">
        <ele>510.12</ele>
        <time>2020-03-14T10:37:03Z</time>
      </trkpt>
      <trkpt lat="45.95917" lon="6.1651">
        <ele>509.64</ele>
        <time>2020-03-14T10:37:04Z</time>
      </trkpt>
      <trkpt lat="45.95924" lon="6.16518">
        <ele>510.12</ele>
        <time>2020-03-14T10:37:05Z</time>
      </trkpt>
      <trkpt lat="45.95941" lon="6.16539">
        <ele>510.12</ele>
        <time>2020-03-14T10:37:10Z</time>
      </trkpt>
      <trkpt lat="45.95945" lon="6.16543">
        <ele>510.12</ele>
        <time>2020-03-14T10:37:11Z</time>
      </trkpt>
      <trkpt lat="45.95948" lon="6.16569">
        <ele>509.64</ele>
        <time>2020-03-14T10:37:13Z</time>
      </trkpt>
      <trkpt lat="45.95952" lon="6.16585">
        <ele>508.67</ele>
        <time>2020-03-14T10:37:15Z</time>
      </trkpt>
      <trkpt lat="45.95959" lon="6.16591">
        <ele>508.67</ele>
        <time>2020-03-14T10:37:16Z</time>
      </trkpt>
      <trkpt lat="45.95965" lon="6.16593">
        <ele>509.16</ele>
        <time>2020-03-14T10:37:17Z</time>
      </trkpt>
      <trkpt lat="45.95982" lon="6.16582">
        <ele>508.19</ele>
        <time>2020-03-14T10:37:20Z</time>
      </trkpt>
      <trkpt lat="45.96017" lon="6.16565">
        <ele>505.79</ele>
        <time>2020-03-14T10:37:23Z</time>
      </trkpt>
      <trkpt lat="45.9603" lon="6.16566">
        <ele>505.31</ele>
        <time>2020-03-14T10:37:24Z</time>
      </trkpt>
      <trkpt lat="45.96139" lon="6.16568">
        <ele>505.79</ele>
        <time>2020-03-14T10:37:32Z</time>
      </trkpt>
      <trkpt lat="45.96274" lon="6.16543">
        <ele>507.23</ele>
        <time>2020-03-14T10:37:43Z</time>
      </trkpt>
      <trkpt lat="45.96407" lon="6.16503">
        <ele>505.79</ele>
        <time>2020-03-14T10:37:53Z</time>
      </trkpt>
      <trkpt lat="45.96558" lon="6.16457">
        <ele>510.12</ele>
        <time>2020-03-14T10:38:02Z</time>
      </trkpt>
      <trkpt lat="45.96717" lon="6.16406">
        <ele>508.67</ele>
        <time>2020-03-14T10:38:14Z</time>
      </trkpt>
      <trkpt lat="45.968" lon="6.16383">
        <ele>506.75</ele>
        <time>2020-03-14T10:38:22Z</time>
      </trkpt>
      <trkpt lat="45.96824" lon="6.1638">
        <ele>508.19</ele>
        <time>2020-03-14T10:38:25Z</time>
      </trkpt>
      <trkpt lat="45.96917" lon="6.1638">
        <ele>512.52</ele>
        <time>2020-03-14T10:38:34Z</time>
      </trkpt>
      <trkpt lat="45.97069" lon="6.16389">
        <ele>513.96</ele>
        <time>2020-03-14T10:38:45Z</time>
      </trkpt>
      <trkpt lat="45.97196" lon="6.16396">
        <ele>515.4</ele>
        <time>2020-03-14T10:38:55Z</time>
      </trkpt>
      <trkpt lat="45.97348" lon="6.16403">
        <ele>516.37</ele>
        <time>2020-03-14T10:39:06Z</time>
      </trkpt>
      <trkpt lat="45.9749" lon="6.16412">
        <ele>518.77</ele>
        <time>2020-03-14T10:39:17Z</time>
      </trkpt>
      <trkpt lat="45.97661" lon="6.1642">
        <ele>521.65</ele>
        <time>2020-03-14T10:39:30Z</time>
      </trkpt>
      <trkpt lat="45.97761" lon="6.16423">
        <ele>523.58</ele>
        <time>2020-03-14T10:39:39Z</time>
      </trkpt>
      <trkpt lat="45.97772" lon="6.16423">
        <ele>524.06</ele>
        <time>2020-03-14T10:39:40Z</time>
      </trkpt>
      <trkpt lat="45.97794" lon="6.16425">
        <ele>525.5</ele>
        <time>2020-03-14T10:39:42Z</time>
      </trkpt>
      <trkpt lat="45.97806" lon="6.16426">
        <ele>527.42</ele>
        <time>2020-03-14T10:39:43Z</time>
      </trkpt>
      <trkpt lat="45.97851" lon="6.1643">
        <ele>531.27</ele>
        <time>2020-03-14T10:39:47Z</time>
      </trkpt>
      <trkpt lat="45.97856" lon="6.1643">
        <ele>531.75</ele>
        <time>2020-03-14T10:39:48Z</time>
      </trkpt>
      <trkpt lat="45.9786" lon="6.1643">
        <ele>532.23</ele>
        <time>2020-03-14T10:39:49Z</time>
      </trkpt>
      <trkpt lat="45.97864" lon="6.16431">
        <ele>532.71</ele>
        <time>2020-03-14T10:39:50Z</time>
      </trkpt>
      <trkpt lat="45.97868" lon="6.16431">
        <ele>533.19</ele>
        <time>2020-03-14T10:39:51Z</time>
      </trkpt>
      <trkpt lat="45.97873" lon="6.16431">
        <ele>533.19</ele>
        <time>2020-03-14T10:39:52Z</time>
      </trkpt>
      <trkpt lat="45.97878" lon="6.16432">
        <ele>533.67</ele>
        <time>2020-03-14T10:39:53Z</time>
      </trkpt>
      <trkpt lat="45.97881" lon="6.16432">
        <ele>534.15</ele>
        <time>2020-03-14T10:39:54Z</time>
      </trkpt>
      <trkpt lat="45.97881" lon="6.16432">
        <ele>534.63</ele>
        <time>2020-03-14T10:39:55Z</time>
      </trkpt>
      <trkpt lat="45.97881" lon="6.16432">
        <ele>534.63</ele>
        <time>2020-03-14T10:40:04Z</time>
      </trkpt>
      <trkpt lat="45.97887" lon="6.16405">
        <ele>526.94</ele>
        <time>2020-03-14T10:45:42Z</time>
      </trkpt>
      <trkpt lat="45.97884" lon="6.16405">
        <ele>521.65</ele>
        <time>2020-03-14T10:45:52Z</time>
      </trkpt>
      <trkpt lat="45.97878" lon="6.16432">
        <ele>520.69</ele>
        <time>2020-03-14T10:45:54Z</time>
      </trkpt>
      <trkpt lat="45.97872" lon="6.16431">
        <ele>521.17</ele>
        <time>2020-03-14T10:45:55Z</time>
      </trkpt>
      <trkpt lat="45.97865" lon="6.16431">
        <ele>520.69</ele>
        <time>2020-03-14T10:45:56Z</time>
      </trkpt>
      <trkpt lat="45.97851" lon="6.1643">
        <ele>520.69</ele>
        <time>2020-03-14T10:45:58Z</time>
      </trkpt>
      <trkpt lat="45.97852" lon="6.16432">
        <ele>520.21</ele>
        <time>2020-03-14T10:45:59Z</time>
      </trkpt>
      <trkpt lat="45.97861" lon="6.1643">
        <ele>521.65</ele>
        <time>2020-03-14T10:46:04Z</time>
      </trkpt>
      <trkpt lat="45.97863" lon="6.16431">
        <ele>521.65</ele>
        <time>2020-03-14T10:46:05Z</time>
      </trkpt>
      <trkpt lat="45.97868" lon="6.16431">
        <ele>521.17</ele>
        <time>2020-03-14T10:46:06Z</time>
      </trkpt>
      <trkpt lat="45.97874" lon="6.16431">
        <ele>521.17</ele>
        <time>2020-03-14T10:46:07Z</time>
      </trkpt>
      <trkpt lat="45.97883" lon="6.16432">
        <ele>520.69</ele>
        <time>2020-03-14T10:46:08Z</time>
      </trkpt>
      <trkpt lat="45.97895" lon="6.16433">
        <ele>520.21</ele>
        <time>2020-03-14T10:46:09Z</time>
      </trkpt>
      <trkpt lat="45.98002" lon="6.16455">
        <ele>520.21</ele>
        <time>2020-03-14T10:46:16Z</time>
      </trkpt>
      <trkpt lat="45.98202" lon="6.16514">
        <ele>523.09</ele>
        <time>2020-03-14T10:46:30Z</time>
      </trkpt>
      <trkpt lat="45.98342" lon="6.16571">
        <ele>524.54</ele>
        <time>2020-03-14T10:46:38Z</time>
      </trkpt>
      <trkpt lat="45.98512" lon="6.16672">
        <ele>525.98</ele>
        <time>2020-03-14T10:46:45Z</time>
      </trkpt>
      <trkpt lat="45.98686" lon="6.16835">
        <ele>527.9</ele>
        <time>2020-03-14T10:46:53Z</time>
      </trkpt>
      <trkpt lat="45.98885" lon="6.16979">
        <ele>529.34</ele>
        <time>2020-03-14T10:47:02Z</time>
      </trkpt>
      <trkpt lat="45.99076" lon="6.17108">
        <ele>529.82</ele>
        <time>2020-03-14T10:47:12Z</time>
      </trkpt>
      <trkpt lat="45.99268" lon="6.17257">
        <ele>533.19</ele>
        <time>2020-03-14T10:47:23Z</time>
      </trkpt>
      <trkpt lat="45.99425" lon="6.17384">
        <ele>538.48</ele>
        <time>2020-03-14T10:47:33Z</time>
      </trkpt>
      <trkpt lat="45.9949" lon="6.17419">
        <ele>540.4</ele>
        <time>2020-03-14T10:47:37Z</time>
      </trkpt>
      <trkpt lat="45.99507" lon="6.17432">
        <ele>540.4</ele>
        <time>2020-03-14T10:47:38Z</time>
      </trkpt>
      <trkpt lat="45.9966" lon="6.17583">
        <ele>540.4</ele>
        <time>2020-03-14T10:47:48Z</time>
      </trkpt>
      <trkpt lat="45.99735" lon="6.17681">
        <ele>538.96</ele>
        <time>2020-03-14T10:47:52Z</time>
      </trkpt>
      <trkpt lat="45.99841" lon="6.17823">
        <ele>540.4</ele>
        <time>2020-03-14T10:47:58Z</time>
      </trkpt>
      <trkpt lat="45.99926" lon="6.1794">
        <ele>541.36</ele>
        <time>2020-03-14T10:48:05Z</time>
      </trkpt>
      <trkpt lat="45.99973" lon="6.18003">
        <ele>542.8</ele>
        <time>2020-03-14T10:48:11Z</time>
      </trkpt>
      <trkpt lat="45.99977" lon="6.18013">
        <ele>543.28</ele>
        <time>2020-03-14T10:48:12Z</time>
      </trkpt>
      <trkpt lat="45.99979" lon="6.18022">
        <ele>543.28</ele>
        <time>2020-03-14T10:48:13Z</time>
      </trkpt>
      <trkpt lat="45.99991" lon="6.18028">
        <ele>543.76</ele>
        <time>2020-03-14T10:48:14Z</time>
      </trkpt>
      <trkpt lat="45.99993" lon="6.18031">
        <ele>544.24</ele>
        <time>2020-03-14T10:48:15Z</time>
      </trkpt>
      <trkpt lat="45.99999" lon="6.18041">
        <ele>544.24</ele>
        <time>2020-03-14T10:48:16Z</time>
      </trkpt>
      <trkpt lat="46.00005" lon="6.18048">
        <ele>544.72</ele>
        <time>2020-03-14T10:48:17Z</time>
      </trkpt>
      <trkpt lat="46.00012" lon="6.18057">
        <ele>545.2</ele>
        <time>2020-03-14T10:48:18Z</time>
      </trkpt>
      <trkpt lat="46.00091" lon="6.18166">
        <ele>547.13</ele>
        <time>2020-03-14T10:48:27Z</time>
      </trkpt>
      <trkpt lat="46.00188" lon="6.18335">
        <ele>548.57</ele>
        <time>2020-03-14T10:48:38Z</time>
      </trkpt>
      <trkpt lat="46.0024" lon="6.18513">
        <ele>549.53</ele>
        <time>2020-03-14T10:48:46Z</time>
      </trkpt>
      <trkpt lat="46.00313" lon="6.18764">
        <ele>550.97</ele>
        <time>2020-03-14T10:48:55Z</time>
      </trkpt>
      <trkpt lat="46.00324" lon="6.18786">
        <ele>551.93</ele>
        <time>2020-03-14T10:48:56Z</time>
      </trkpt>
      <trkpt lat="46.00338" lon="6.18807">
        <ele>552.9</ele>
        <time>2020-03-14T10:48:57Z</time>
      </trkpt>
      <trkpt lat="46.00353" lon="6.18826">
        <ele>553.86</ele>
        <time>2020-03-14T10:48:58Z</time>
      </trkpt>
      <trkpt lat="46.0037" lon="6.18844">
        <ele>554.82</ele>
        <time>2020-03-14T10:48:59Z</time>
      </trkpt>
      <trkpt lat="46.00387" lon="6.18861">
        <ele>556.26</ele>
        <time>2020-03-14T10:49:00Z</time>
      </trkpt>
      <trkpt lat="46.00499" lon="6.18999">
        <ele>562.51</ele>
        <time>2020-03-14T10:49:07Z</time>
      </trkpt>
      <trkpt lat="46.00557" lon="6.1913">
        <ele>568.76</ele>
        <time>2020-03-14T10:49:11Z</time>
      </trkpt>
      <trkpt lat="46.00634" lon="6.19342">
        <ele>580.29</ele>
        <time>2020-03-14T10:49:16Z</time>
      </trkpt>
      <trkpt lat="46.00677" lon="6.1946">
        <ele>588.95</ele>
        <time>2020-03-14T10:49:20Z</time>
      </trkpt>
      <trkpt lat="46.0069" lon="6.19494">
        <ele>592.79</ele>
        <time>2020-03-14T10:49:22Z</time>
      </trkpt>
      <trkpt lat="46.00694" lon="6.19508">
        <ele>594.23</ele>
        <time>2020-03-14T10:49:23Z</time>
      </trkpt>
      <trkpt lat="46.00693" lon="6.19521">
        <ele>595.19</ele>
        <time>2020-03-14T10:49:24Z</time>
      </trkpt>
      <trkpt lat="46.0069" lon="6.19534">
        <ele>595.67</ele>
        <time>2020-03-14T10:49:25Z</time>
      </trkpt>
      <trkpt lat="46.00677" lon="6.19539">
        <ele>596.64</ele>
        <time>2020-03-14T10:49:26Z</time>
      </trkpt>
      <trkpt lat="46.0067" lon="6.19536">
        <ele>597.12</ele>
        <time>2020-03-14T10:49:27Z</time>
      </trkpt>
      <trkpt lat="46.00661" lon="6.19522">
        <ele>598.08</ele>
        <time>2020-03-14T10:49:28Z</time>
      </trkpt>
      <trkpt lat="46.00653" lon="6.19505">
        <ele>598.56</ele>
        <time>2020-03-14T10:49:29Z</time>
      </trkpt>
      <trkpt lat="46.00643" lon="6.19483">
        <ele>599.52</ele>
        <time>2020-03-14T10:49:30Z</time>
      </trkpt>
      <trkpt lat="46.00578" lon="6.19353">
        <ele>604.81</ele>
        <time>2020-03-14T10:49:35Z</time>
      </trkpt>
      <trkpt lat="46.00565" lon="6.19336">
        <ele>606.25</ele>
        <time>2020-03-14T10:49:36Z</time>
      </trkpt>
      <trkpt lat="46.00552" lon="6.19323">
        <ele>606.73</ele>
        <time>2020-03-14T10:49:37Z</time>
      </trkpt>
      <trkpt lat="46.00539" lon="6.19313">
        <ele>607.69</ele>
        <time>2020-03-14T10:49:38Z</time>
      </trkpt>
      <trkpt lat="46.00527" lon="6.19308">
        <ele>608.65</ele>
        <time>2020-03-14T10:49:39Z</time>
      </trkpt>
      <trkpt lat="46.00514" lon="6.1931">
        <ele>609.61</ele>
        <time>2020-03-14T10:49:40Z</time>
      </trkpt>
      <trkpt lat="46.00502" lon="6.19317">
        <ele>610.09</ele>
        <time>2020-03-14T10:49:41Z</time>
      </trkpt>
      <trkpt lat="46.00493" lon="6.19329">
        <ele>611.06</ele>
        <time>2020-03-14T10:49:42Z</time>
      </trkpt>
      <trkpt lat="46.00485" lon="6.19346">
        <ele>611.54</ele>
        <time>2020-03-14T10:49:43Z</time>
      </trkpt>
      <trkpt lat="46.0048" lon="6.19365">
        <ele>612.5</ele>
        <time>2020-03-14T10:49:44Z</time>
      </trkpt>
      <trkpt lat="46.0048" lon="6.19382">
        <ele>612.98</ele>
        <time>2020-03-14T10:49:45Z</time>
      </trkpt>
      <trkpt lat="46.00488" lon="6.19403">
        <ele>613.94</ele>
        <time>2020-03-14T10:49:46Z</time>
      </trkpt>
      <trkpt lat="46.00495" lon="6.19423">
        <ele>614.42</ele>
        <time>2020-03-14T10:49:47Z</time>
      </trkpt>
      <trkpt lat="46.00508" lon="6.19444">
        <ele>615.38</ele>
        <time>2020-03-14T10:49:48Z</time>
      </trkpt>
      <trkpt lat="46.00522" lon="6.19468">
        <ele>616.34</ele>
        <time>2020-03-14T10:49:49Z</time>
      </trkpt>
      <trkpt lat="46.00541" lon="6.19487">
        <ele>617.78</ele>
        <time>2020-03-14T10:49:50Z</time>
      </trkpt>
      <trkpt lat="46.0056" lon="6.19504">
        <ele>618.75</ele>
        <time>2020-03-14T10:49:51Z</time>
      </trkpt>
      <trkpt lat="46.00577" lon="6.19521">
        <ele>619.71</ele>
        <time>2020-03-14T10:49:52Z</time>
      </trkpt>
      <trkpt lat="46.00593" lon="6.19541">
        <ele>620.19</ele>
        <time>2020-03-14T10:49:53Z</time>
      </trkpt>
      <trkpt lat="46.00609" lon="6.19563">
        <ele>621.15</ele>
        <time>2020-03-14T10:49:54Z</time>
      </trkpt>
      <trkpt lat="46.0062" lon="6.19593">
        <ele>622.11</ele>
        <time>2020-03-14T10:49:55Z</time>
      </trkpt>
      <trkpt lat="46.00633" lon="6.19625">
        <ele>622.59</ele>
        <time>2020-03-14T10:49:56Z</time>
      </trkpt>
      <trkpt lat="46.00701" lon="6.19818">
        <ele>628.84</ele>
        <time>2020-03-14T10:50:01Z</time>
      </trkpt>
      <trkpt lat="46.00758" lon="6.20087">
        <ele>640.38</ele>
        <time>2020-03-14T10:50:08Z</time>
      </trkpt>
      <trkpt lat="46.00842" lon="6.20406">
        <ele>654.8</ele>
        <time>2020-03-14T10:50:18Z</time>
      </trkpt>
      <trkpt lat="46.00881" lon="6.20528">
        <ele>656.72</ele>
        <time>2020-03-14T10:50:23Z</time>
      </trkpt>
      <trkpt lat="46.00894" lon="6.2055">
        <ele>656.72</ele>
        <time>2020-03-14T10:50:24Z</time>
      </trkpt>
      <trkpt lat="46.00909" lon="6.2057">
        <ele>657.2</ele>
        <time>2020-03-14T10:50:25Z</time>
      </trkpt>
      <trkpt lat="46.00926" lon="6.2059">
        <ele>657.2</ele>
        <time>2020-03-14T10:50:27Z</time>
      </trkpt>
      <trkpt lat="46.01066" lon="6.20756">
        <ele>656.24</ele>
        <time>2020-03-14T10:50:33Z</time>
      </trkpt>
      <trkpt lat="46.01272" lon="6.21005">
        <ele>661.04</ele>
        <time>2020-03-14T10:50:41Z</time>
      </trkpt>
      <trkpt lat="46.01398" lon="6.21183">
        <ele>665.85</ele>
        <time>2020-03-14T10:50:47Z</time>
      </trkpt>
      <trkpt lat="46.01436" lon="6.21239">
        <ele>666.81</ele>
        <time>2020-03-14T10:50:49Z</time>
      </trkpt>
      <trkpt lat="46.01459" lon="6.21264">
        <ele>667.77</ele>
        <time>2020-03-14T10:50:50Z</time>
      </trkpt>
      <trkpt lat="46.01675" lon="6.21483">
        <ele>674.98</ele>
        <time>2020-03-14T10:50:59Z</time>
      </trkpt>
      <trkpt lat="46.01711" lon="6.2154">
        <ele>675.46</ele>
        <time>2020-03-14T10:51:01Z</time>
      </trkpt>
      <trkpt lat="46.01726" lon="6.2157">
        <ele>675.94</ele>
        <time>2020-03-14T10:51:02Z</time>
      </trkpt>
      <trkpt lat="46.01836" lon="6.21837">
        <ele>677.39</ele>
        <time>2020-03-14T10:51:10Z</time>
      </trkpt>
      <trkpt lat="46.01921" lon="6.22116">
        <ele>680.27</ele>
        <time>2020-03-14T10:51:17Z</time>
      </trkpt>
      <trkpt lat="46.01976" lon="6.22457">
        <ele>684.6</ele>
        <time>2020-03-14T10:51:25Z</time>
      </trkpt>
      <trkpt lat="46.02034" lon="6.22859">
        <ele>692.29</ele>
        <time>2020-03-14T10:51:35Z</time>
      </trkpt>
      <trkpt lat="46.02047" lon="6.22927">
        <ele>693.73</ele>
        <time>2020-03-14T10:51:37Z</time>
      </trkpt>
      <trkpt lat="46.02057" lon="6.2296">
        <ele>694.69</ele>
        <time>2020-03-14T10:51:38Z</time>
      </trkpt>
      <trkpt lat="46.02069" lon="6.22991">
        <ele>695.17</ele>
        <time>2020-03-14T10:51:39Z</time>
      </trkpt>
      <trkpt lat="46.02085" lon="6.23019">
        <ele>695.65</ele>
        <time>2020-03-14T10:51:40Z</time>
      </trkpt>
      <trkpt lat="46.02102" lon="6.23041">
        <ele>696.61</ele>
        <time>2020-03-14T10:51:41Z</time>
      </trkpt>
      <trkpt lat="46.02119" lon="6.23062">
        <ele>697.09</ele>
        <time>2020-03-14T10:51:42Z</time>
      </trkpt>
      <trkpt lat="46.02134" lon="6.23083">
        <ele>697.57</ele>
        <time>2020-03-14T10:51:43Z</time>
      </trkpt>
      <trkpt lat="46.02148" lon="6.23103">
        <ele>698.05</ele>
        <time>2020-03-14T10:51:44Z</time>
      </trkpt>
      <trkpt lat="46.02161" lon="6.23122">
        <ele>698.53</ele>
        <time>2020-03-14T10:51:45Z</time>
      </trkpt>
      <trkpt lat="46.02225" lon="6.2325">
        <ele>702.86</ele>
        <time>2020-03-14T10:51:52Z</time>
      </trkpt>
      <trkpt lat="46.02286" lon="6.23371">
        <ele>706.71</ele>
        <time>2020-03-14T10:51:58Z</time>
      </trkpt>
      <trkpt lat="46.02301" lon="6.23387">
        <ele>707.67</ele>
        <time>2020-03-14T10:51:59Z</time>
      </trkpt>
      <trkpt lat="46.02318" lon="6.23402">
        <ele>708.63</ele>
        <time>2020-03-14T10:52:00Z</time>
      </trkpt>
      <trkpt lat="46.02394" lon="6.2347">
        <ele>714.88</ele>
        <time>2020-03-14T10:52:04Z</time>
      </trkpt>
      <trkpt lat="46.02411" lon="6.23493">
        <ele>716.32</ele>
        <time>2020-03-14T10:52:05Z</time>
      </trkpt>
      <trkpt lat="46.02427" lon="6.23519">
        <ele>717.76</ele>
        <time>2020-03-14T10:52:06Z</time>
      </trkpt>
      <trkpt lat="46.02441" lon="6.2355">
        <ele>719.2</ele>
        <time>2020-03-14T10:52:07Z</time>
      </trkpt>
      <trkpt lat="46.02455" lon="6.23581">
        <ele>720.16</ele>
        <time>2020-03-14T10:52:08Z</time>
      </trkpt>
      <trkpt lat="46.02503" lon="6.23667">
        <ele>723.53</ele>
        <time>2020-03-14T10:52:11Z</time>
      </trkpt>
      <trkpt lat="46.0252" lon="6.23691">
        <ele>724.49</ele>
        <time>2020-03-14T10:52:12Z</time>
      </trkpt>
      <trkpt lat="46.02539" lon="6.23711">
        <ele>725.45</ele>
        <time>2020-03-14T10:52:13Z</time>
      </trkpt>
      <trkpt lat="46.0256" lon="6.23728">
        <ele>725.93</ele>
        <time>2020-03-14T10:52:14Z</time>
      </trkpt>
      <trkpt lat="46.02582" lon="6.2374">
        <ele>726.89</ele>
        <time>2020-03-14T10:52:15Z</time>
      </trkpt>
      <trkpt lat="46.02606" lon="6.23751">
        <ele>727.86</ele>
        <time>2020-03-14T10:52:16Z</time>
      </trkpt>
      <trkpt lat="46.0263" lon="6.23756">
        <ele>729.3</ele>
        <time>2020-03-14T10:52:17Z</time>
      </trkpt>
      <trkpt lat="46.02654" lon="6.23762">
        <ele>730.26</ele>
        <time>2020-03-14T10:52:18Z</time>
      </trkpt>
      <trkpt lat="46.02828" lon="6.23792">
        <ele>737.95</ele>
        <time>2020-03-14T10:52:26Z</time>
      </trkpt>
      <trkpt lat="46.02996" lon="6.23867">
        <ele>743.24</ele>
        <time>2020-03-14T10:52:35Z</time>
      </trkpt>
      <trkpt lat="46.03101" lon="6.2396">
        <ele>743.72</ele>
        <time>2020-03-14T10:52:41Z</time>
      </trkpt>
      <trkpt lat="46.03195" lon="6.24065">
        <ele>744.68</ele>
        <time>2020-03-14T10:52:45Z</time>
      </trkpt>
      <trkpt lat="46.03284" lon="6.24188">
        <ele>747.08</ele>
        <time>2020-03-14T10:52:50Z</time>
      </trkpt>
      <trkpt lat="46.03318" lon="6.24239">
        <ele>747.56</ele>
        <time>2020-03-14T10:52:53Z</time>
      </trkpt>
      <trkpt lat="46.03331" lon="6.24249">
        <ele>748.04</ele>
        <time>2020-03-14T10:52:54Z</time>
      </trkpt>
      <trkpt lat="46.03344" lon="6.24259">
        <ele>748.04</ele>
        <time>2020-03-14T10:52:55Z</time>
      </trkpt>
      <trkpt lat="46.03359" lon="6.24266">
        <ele>748.04</ele>
        <time>2020-03-14T10:52:56Z</time>
      </trkpt>
      <trkpt lat="46.03374" lon="6.24271">
        <ele>748.52</ele>
        <time>2020-03-14T10:52:57Z</time>
      </trkpt>
      <trkpt lat="46.0339" lon="6.2427">
        <ele>749</ele>
        <time>2020-03-14T10:52:58Z</time>
      </trkpt>
      <trkpt lat="46.03405" lon="6.24267">
        <ele>749</ele>
        <time>2020-03-14T10:52:59Z</time>
      </trkpt>
      <trkpt lat="46.0342" lon="6.2426">
        <ele>749.49</ele>
        <time>2020-03-14T10:53:00Z</time>
      </trkpt>
      <trkpt lat="46.03435" lon="6.24251">
        <ele>749.49</ele>
        <time>2020-03-14T10:53:01Z</time>
      </trkpt>
      <trkpt lat="46.03448" lon="6.24236">
        <ele>749.97</ele>
        <time>2020-03-14T10:53:02Z</time>
      </trkpt>
      <trkpt lat="46.03461" lon="6.24216">
        <ele>750.93</ele>
        <time>2020-03-14T10:53:03Z</time>
      </trkpt>
      <trkpt lat="46.03475" lon="6.24194">
        <ele>751.89</ele>
        <time>2020-03-14T10:53:04Z</time>
      </trkpt>
      <trkpt lat="46.03491" lon="6.24168">
        <ele>752.37</ele>
        <time>2020-03-14T10:53:05Z</time>
      </trkpt>
      <trkpt lat="46.03521" lon="6.24118">
        <ele>754.29</ele>
        <time>2020-03-14T10:53:07Z</time>
      </trkpt>
      <trkpt lat="46.03538" lon="6.24098">
        <ele>755.25</ele>
        <time>2020-03-14T10:53:08Z</time>
      </trkpt>
      <trkpt lat="46.03555" lon="6.24084">
        <ele>756.21</ele>
        <time>2020-03-14T10:53:09Z</time>
      </trkpt>
      <trkpt lat="46.03578" lon="6.24076">
        <ele>757.66</ele>
        <time>2020-03-14T10:53:10Z</time>
      </trkpt>
      <trkpt lat="46.036" lon="6.24071">
        <ele>758.62</ele>
        <time>2020-03-14T10:53:11Z</time>
      </trkpt>
      <trkpt lat="46.03623" lon="6.24073">
        <ele>759.58</ele>
        <time>2020-03-14T10:53:12Z</time>
      </trkpt>
      <trkpt lat="46.03644" lon="6.24078">
        <ele>760.06</ele>
        <time>2020-03-14T10:53:13Z</time>
      </trkpt>
      <trkpt lat="46.03666" lon="6.24089">
        <ele>761.5</ele>
        <time>2020-03-14T10:53:14Z</time>
      </trkpt>
      <trkpt lat="46.03686" lon="6.24109">
        <ele>762.46</ele>
        <time>2020-03-14T10:53:15Z</time>
      </trkpt>
      <trkpt lat="46.03707" lon="6.2413">
        <ele>763.9</ele>
        <time>2020-03-14T10:53:16Z</time>
      </trkpt>
      <trkpt lat="46.03725" lon="6.24157">
        <ele>765.35</ele>
        <time>2020-03-14T10:53:17Z</time>
      </trkpt>
      <trkpt lat="46.03744" lon="6.24185">
        <ele>766.79</ele>
        <time>2020-03-14T10:53:18Z</time>
      </trkpt>
      <trkpt lat="46.03762" lon="6.24215">
        <ele>768.23</ele>
        <time>2020-03-14T10:53:19Z</time>
      </trkpt>
      <trkpt lat="46.03775" lon="6.24251">
        <ele>770.15</ele>
        <time>2020-03-14T10:53:20Z</time>
      </trkpt>
      <trkpt lat="46.03789" lon="6.24289">
        <ele>771.6</ele>
        <time>2020-03-14T10:53:21Z</time>
      </trkpt>
      <trkpt lat="46.03799" lon="6.2433">
        <ele>773.52</ele>
        <time>2020-03-14T10:53:22Z</time>
      </trkpt>
      <trkpt lat="46.03807" lon="6.24373">
        <ele>774.96</ele>
        <time>2020-03-14T10:53:23Z</time>
      </trkpt>
      <trkpt lat="46.0385" lon="6.24551">
        <ele>785.05</ele>
        <time>2020-03-14T10:53:28Z</time>
      </trkpt>
      <trkpt lat="46.03861" lon="6.2458">
        <ele>786.5</ele>
        <time>2020-03-14T10:53:29Z</time>
      </trkpt>
      <trkpt lat="46.03877" lon="6.24605">
        <ele>787.94</ele>
        <time>2020-03-14T10:53:30Z</time>
      </trkpt>
      <trkpt lat="46.03893" lon="6.24629">
        <ele>788.9</ele>
        <time>2020-03-14T10:53:31Z</time>
      </trkpt>
      <trkpt lat="46.03911" lon="6.24648">
        <ele>789.86</ele>
        <time>2020-03-14T10:53:32Z</time>
      </trkpt>
      <trkpt lat="46.03931" lon="6.24668">
        <ele>790.34</ele>
        <time>2020-03-14T10:53:33Z</time>
      </trkpt>
      <trkpt lat="46.03952" lon="6.24683">
        <ele>790.82</ele>
        <time>2020-03-14T10:53:34Z</time>
      </trkpt>
      <trkpt lat="46.03975" lon="6.24697">
        <ele>791.3</ele>
        <time>2020-03-14T10:53:35Z</time>
      </trkpt>
      <trkpt lat="46.04" lon="6.24706">
        <ele>791.3</ele>
        <time>2020-03-14T10:53:36Z</time>
      </trkpt>
      <trkpt lat="46.04025" lon="6.24712">
        <ele>791.3</ele>
        <time>2020-03-14T10:53:37Z</time>
      </trkpt>
      <trkpt lat="46.04074" lon="6.2473">
        <ele>790.82</ele>
        <time>2020-03-14T10:53:39Z</time>
      </trkpt>
      <trkpt lat="46.04098" lon="6.24744">
        <ele>789.86</ele>
        <time>2020-03-14T10:53:40Z</time>
      </trkpt>
      <trkpt lat="46.04121" lon="6.24762">
        <ele>788.9</ele>
        <time>2020-03-14T10:53:41Z</time>
      </trkpt>
      <trkpt lat="46.04142" lon="6.24786">
        <ele>787.94</ele>
        <time>2020-03-14T10:53:42Z</time>
      </trkpt>
      <trkpt lat="46.04163" lon="6.2481">
        <ele>786.98</ele>
        <time>2020-03-14T10:53:43Z</time>
      </trkpt>
      <trkpt lat="46.04184" lon="6.24837">
        <ele>786.02</ele>
        <time>2020-03-14T10:53:44Z</time>
      </trkpt>
      <trkpt lat="46.0434" lon="6.25075">
        <ele>788.42</ele>
        <time>2020-03-14T10:53:52Z</time>
      </trkpt>
      <trkpt lat="46.04353" lon="6.25105">
        <ele>789.86</ele>
        <time>2020-03-14T10:53:53Z</time>
      </trkpt>
      <trkpt lat="46.04364" lon="6.25137">
        <ele>791.3</ele>
        <time>2020-03-14T10:53:54Z</time>
      </trkpt>
      <trkpt lat="46.04417" lon="6.25367">
        <ele>798.03</ele>
        <time>2020-03-14T10:54:01Z</time>
      </trkpt>
      <trkpt lat="46.04479" lon="6.2556">
        <ele>801.4</ele>
        <time>2020-03-14T10:54:07Z</time>
      </trkpt>
      <trkpt lat="46.04535" lon="6.2568">
        <ele>801.4</ele>
        <time>2020-03-14T10:54:13Z</time>
      </trkpt>
      <trkpt lat="46.04641" lon="6.25899">
        <ele>798.99</ele>
        <time>2020-03-14T10:54:25Z</time>
      </trkpt>
      <trkpt lat="46.04731" lon="6.26084">
        <ele>797.55</ele>
        <time>2020-03-14T10:54:35Z</time>
      </trkpt>
      <trkpt lat="46.04848" lon="6.26323">
        <ele>790.34</ele>
        <time>2020-03-14T10:54:47Z</time>
      </trkpt>
      <trkpt lat="46.04944" lon="6.26443">
        <ele>784.09</ele>
        <time>2020-03-14T10:54:54Z</time>
      </trkpt>
      <trkpt lat="46.05074" lon="6.26564">
        <ele>775.44</ele>
        <time>2020-03-14T10:55:02Z</time>
      </trkpt>
      <trkpt lat="46.05098" lon="6.26609">
        <ele>773.04</ele>
        <time>2020-03-14T10:55:04Z</time>
      </trkpt>
      <trkpt lat="46.05109" lon="6.26633">
        <ele>772.56</ele>
        <time>2020-03-14T10:55:05Z</time>
      </trkpt>
      <trkpt lat="46.05119" lon="6.26657">
        <ele>771.6</ele>
        <time>2020-03-14T10:55:06Z</time>
      </trkpt>
      <trkpt lat="46.05126" lon="6.26685">
        <ele>771.11</ele>
        <time>2020-03-14T10:55:07Z</time>
      </trkpt>
      <trkpt lat="46.05133" lon="6.26712">
        <ele>770.15</ele>
        <time>2020-03-14T10:55:08Z</time>
      </trkpt>
      <trkpt lat="46.05141" lon="6.2674">
        <ele>769.19</ele>
        <time>2020-03-14T10:55:09Z</time>
      </trkpt>
      <trkpt lat="46.05144" lon="6.26768">
        <ele>768.23</ele>
        <time>2020-03-14T10:55:10Z</time>
      </trkpt>
      <trkpt lat="46.05147" lon="6.26797">
        <ele>767.75</ele>
        <time>2020-03-14T10:55:11Z</time>
      </trkpt>
      <trkpt lat="46.05149" lon="6.26824">
        <ele>767.27</ele>
        <time>2020-03-14T10:55:12Z</time>
      </trkpt>
      <trkpt lat="46.05148" lon="6.26851">
        <ele>766.79</ele>
        <time>2020-03-14T10:55:13Z</time>
      </trkpt>
      <trkpt lat="46.05128" lon="6.27089">
        <ele>763.9</ele>
        <time>2020-03-14T10:55:22Z</time>
      </trkpt>
      <trkpt lat="46.05128" lon="6.27302">
        <ele>761.02</ele>
        <time>2020-03-14T10:55:29Z</time>
      </trkpt>
      <trkpt lat="46.05157" lon="6.27524">
        <ele>755.25</ele>
        <time>2020-03-14T10:55:34Z</time>
      </trkpt>
      <trkpt lat="46.05199" lon="6.27693">
        <ele>750.93</ele>
        <time>2020-03-14T10:55:39Z</time>
      </trkpt>
      <trkpt lat="46.05275" lon="6.27914">
        <ele>748.04</ele>
        <time>2020-03-14T10:55:44Z</time>
      </trkpt>
      <trkpt lat="46.05365" lon="6.28169">
        <ele>743.72</ele>
        <time>2020-03-14T10:55:49Z</time>
      </trkpt>
      <trkpt lat="46.0552" lon="6.28614">
        <ele>733.14</ele>
        <time>2020-03-14T10:55:59Z</time>
      </trkpt>
      <trkpt lat="46.05594" lon="6.28817">
        <ele>727.37</ele>
        <time>2020-03-14T10:56:05Z</time>
      </trkpt>
      <trkpt lat="46.05637" lon="6.28897">
        <ele>724.01</ele>
        <time>2020-03-14T10:56:08Z</time>
      </trkpt>
      <trkpt lat="46.05652" lon="6.28922">
        <ele>722.57</ele>
        <time>2020-03-14T10:56:09Z</time>
      </trkpt>
      <trkpt lat="46.05671" lon="6.28942">
        <ele>721.61</ele>
        <time>2020-03-14T10:56:10Z</time>
      </trkpt>
      <trkpt lat="46.05691" lon="6.28959">
        <ele>720.16</ele>
        <time>2020-03-14T10:56:11Z</time>
      </trkpt>
      <trkpt lat="46.05712" lon="6.28973">
        <ele>719.2</ele>
        <time>2020-03-14T10:56:12Z</time>
      </trkpt>
      <trkpt lat="46.05733" lon="6.28987">
        <ele>718.72</ele>
        <time>2020-03-14T10:56:13Z</time>
      </trkpt>
      <trkpt lat="46.05755" lon="6.28995">
        <ele>717.28</ele>
        <time>2020-03-14T10:56:14Z</time>
      </trkpt>
      <trkpt lat="46.05777" lon="6.29003">
        <ele>716.32</ele>
        <time>2020-03-14T10:56:15Z</time>
      </trkpt>
      <trkpt lat="46.058" lon="6.29007">
        <ele>714.88</ele>
        <time>2020-03-14T10:56:16Z</time>
      </trkpt>
      <trkpt lat="46.05822" lon="6.2901">
        <ele>713.44</ele>
        <time>2020-03-14T10:56:17Z</time>
      </trkpt>
      <trkpt lat="46.05844" lon="6.29007">
        <ele>712.47</ele>
        <time>2020-03-14T10:56:18Z</time>
      </trkpt>
      <trkpt lat="46.05864" lon="6.29005">
        <ele>711.03</ele>
        <time>2020-03-14T10:56:19Z</time>
      </trkpt>
      <trkpt lat="46.05883" lon="6.29002">
        <ele>709.59</ele>
        <time>2020-03-14T10:56:20Z</time>
      </trkpt>
      <trkpt lat="46.06037" lon="6.28953">
        <ele>700.46</ele>
        <time>2020-03-14T10:56:29Z</time>
      </trkpt>
      <trkpt lat="46.0624" lon="6.28884">
        <ele>689.4</ele>
        <time>2020-03-14T10:56:39Z</time>
      </trkpt>
      <trkpt lat="46.06373" lon="6.28847">
        <ele>682.19</ele>
        <time>2020-03-14T10:56:44Z</time>
      </trkpt>
      <trkpt lat="46.06419" lon="6.28838">
        <ele>677.87</ele>
        <time>2020-03-14T10:56:47Z</time>
      </trkpt>
      <trkpt lat="46.06434" lon="6.28858">
        <ele>676.91</ele>
        <time>2020-03-14T10:56:48Z</time>
      </trkpt>
      <trkpt lat="46.06439" lon="6.28859">
        <ele>675.94</ele>
        <time>2020-03-14T10:56:49Z</time>
      </trkpt>
      <trkpt lat="46.06452" lon="6.28852">
        <ele>675.46</ele>
        <time>2020-03-14T10:56:50Z</time>
      </trkpt>
      <trkpt lat="46.06456" lon="6.28849">
        <ele>675.46</ele>
        <time>2020-03-14T10:56:51Z</time>
      </trkpt>
      <trkpt lat="46.06471" lon="6.28828">
        <ele>674.98</ele>
        <time>2020-03-14T10:56:52Z</time>
      </trkpt>
      <trkpt lat="46.06489" lon="6.28823">
        <ele>674.02</ele>
        <time>2020-03-14T10:56:53Z</time>
      </trkpt>
      <trkpt lat="46.06511" lon="6.28815">
        <ele>673.54</ele>
        <time>2020-03-14T10:56:54Z</time>
      </trkpt>
      <trkpt lat="46.06643" lon="6.28735">
        <ele>666.81</ele>
        <time>2020-03-14T10:56:59Z</time>
      </trkpt>
      <trkpt lat="46.0676" lon="6.28678">
        <ele>659.6</ele>
        <time>2020-03-14T10:57:04Z</time>
      </trkpt>
      <trkpt lat="46.06781" lon="6.28674">
        <ele>658.64</ele>
        <time>2020-03-14T10:57:05Z</time>
      </trkpt>
      <trkpt lat="46.06801" lon="6.28673">
        <ele>657.2</ele>
        <time>2020-03-14T10:57:06Z</time>
      </trkpt>
      <trkpt lat="46.06819" lon="6.28677">
        <ele>656.24</ele>
        <time>2020-03-14T10:57:07Z</time>
      </trkpt>
      <trkpt lat="46.06838" lon="6.28682">
        <ele>655.28</ele>
        <time>2020-03-14T10:57:08Z</time>
      </trkpt>
      <trkpt lat="46.06856" lon="6.28687">
        <ele>654.31</ele>
        <time>2020-03-14T10:57:09Z</time>
      </trkpt>
      <trkpt lat="46.06873" lon="6.28696">
        <ele>653.35</ele>
        <time>2020-03-14T10:57:10Z</time>
      </trkpt>
      <trkpt lat="46.06889" lon="6.28706">
        <ele>652.39</ele>
        <time>2020-03-14T10:57:11Z</time>
      </trkpt>
      <trkpt lat="46.06907" lon="6.28716">
        <ele>651.43</ele>
        <time>2020-03-14T10:57:12Z</time>
      </trkpt>
      <trkpt lat="46.07075" lon="6.28813">
        <ele>643.26</ele>
        <time>2020-03-14T10:57:22Z</time>
      </trkpt>
      <trkpt lat="46.07199" lon="6.28826">
        <ele>636.05</ele>
        <time>2020-03-14T10:57:29Z</time>
      </trkpt>
      <trkpt lat="46.07341" lon="6.28853">
        <ele>627.4</ele>
        <time>2020-03-14T10:57:37Z</time>
      </trkpt>
      <trkpt lat="46.07389" lon="6.28883">
        <ele>623.55</ele>
        <time>2020-03-14T10:57:40Z</time>
      </trkpt>
      <trkpt lat="46.07403" lon="6.28897">
        <ele>622.59</ele>
        <time>2020-03-14T10:57:41Z</time>
      </trkpt>
      <trkpt lat="46.07416" lon="6.28913">
        <ele>621.63</ele>
        <time>2020-03-14T10:57:42Z</time>
      </trkpt>
      <trkpt lat="46.07428" lon="6.28931">
        <ele>620.67</ele>
        <time>2020-03-14T10:57:43Z</time>
      </trkpt>
      <trkpt lat="46.07439" lon="6.28949">
        <ele>619.71</ele>
        <time>2020-03-14T10:57:44Z</time>
      </trkpt>
      <trkpt lat="46.07449" lon="6.28967">
        <ele>618.75</ele>
        <time>2020-03-14T10:57:45Z</time>
      </trkpt>
      <trkpt lat="46.07459" lon="6.28987">
        <ele>618.26</ele>
        <time>2020-03-14T10:57:46Z</time>
      </trkpt>
      <trkpt lat="46.07467" lon="6.29008">
        <ele>617.3</ele>
        <time>2020-03-14T10:57:47Z</time>
      </trkpt>
      <trkpt lat="46.07473" lon="6.29032">
        <ele>616.82</ele>
        <time>2020-03-14T10:57:48Z</time>
      </trkpt>
      <trkpt lat="46.07479" lon="6.29055">
        <ele>616.34</ele>
        <time>2020-03-14T10:57:49Z</time>
      </trkpt>
      <trkpt lat="46.07512" lon="6.29178">
        <ele>613.46</ele>
        <time>2020-03-14T10:57:55Z</time>
      </trkpt>
      <trkpt lat="46.07519" lon="6.29195">
        <ele>612.02</ele>
        <time>2020-03-14T10:57:56Z</time>
      </trkpt>
      <trkpt lat="46.07516" lon="6.29224">
        <ele>611.54</ele>
        <time>2020-03-14T10:57:57Z</time>
      </trkpt>
      <trkpt lat="46.0751" lon="6.29244">
        <ele>611.06</ele>
        <time>2020-03-14T10:57:58Z</time>
      </trkpt>
      <trkpt lat="46.07503" lon="6.29263">
        <ele>610.57</ele>
        <time>2020-03-14T10:57:59Z</time>
      </trkpt>
      <trkpt lat="46.07474" lon="6.29349">
        <ele>609.13</ele>
        <time>2020-03-14T10:58:03Z</time>
      </trkpt>
      <trkpt lat="46.07465" lon="6.29372">
        <ele>608.65</ele>
        <time>2020-03-14T10:58:04Z</time>
      </trkpt>
      <trkpt lat="46.07453" lon="6.29393">
        <ele>608.17</ele>
        <time>2020-03-14T10:58:05Z</time>
      </trkpt>
      <trkpt lat="46.07328" lon="6.29584">
        <ele>601.44</ele>
        <time>2020-03-14T10:58:14Z</time>
      </trkpt>
      <trkpt lat="46.07238" lon="6.29698">
        <ele>596.64</ele>
        <time>2020-03-14T10:58:20Z</time>
      </trkpt>
      <trkpt lat="46.07156" lon="6.29789">
        <ele>591.83</ele>
        <time>2020-03-14T10:58:26Z</time>
      </trkpt>
      <trkpt lat="46.07146" lon="6.29805">
        <ele>590.87</ele>
        <time>2020-03-14T10:58:27Z</time>
      </trkpt>
      <trkpt lat="46.07092" lon="6.29952">
        <ele>587.5</ele>
        <time>2020-03-14T10:58:35Z</time>
      </trkpt>
      <trkpt lat="46.0708" lon="6.30029">
        <ele>584.62</ele>
        <time>2020-03-14T10:58:40Z</time>
      </trkpt>
      <trkpt lat="46.07077" lon="6.30054">
        <ele>584.14</ele>
        <time>2020-03-14T10:58:41Z</time>
      </trkpt>
      <trkpt lat="46.07078" lon="6.30057">
        <ele>583.66</ele>
        <time>2020-03-14T10:58:42Z</time>
      </trkpt>
      <trkpt lat="46.07084" lon="6.30079">
        <ele>582.22</ele>
        <time>2020-03-14T10:58:44Z</time>
      </trkpt>
      <trkpt lat="46.07082" lon="6.30096">
        <ele>582.22</ele>
        <time>2020-03-14T10:58:45Z</time>
      </trkpt>
      <trkpt lat="46.07065" lon="6.30136">
        <ele>581.25</ele>
        <time>2020-03-14T10:58:47Z</time>
      </trkpt>
      <trkpt lat="46.07059" lon="6.30151">
        <ele>580.29</ele>
        <time>2020-03-14T10:58:48Z</time>
      </trkpt>
      <trkpt lat="46.07046" lon="6.30209">
        <ele>578.85</ele>
        <time>2020-03-14T10:58:52Z</time>
      </trkpt>
      <trkpt lat="46.07044" lon="6.30221">
        <ele>578.37</ele>
        <time>2020-03-14T10:58:53Z</time>
      </trkpt>
      <trkpt lat="46.07031" lon="6.30238">
        <ele>577.41</ele>
        <time>2020-03-14T10:58:54Z</time>
      </trkpt>
      <trkpt lat="46.07021" lon="6.30242">
        <ele>577.41</ele>
        <time>2020-03-14T10:58:55Z</time>
      </trkpt>
      <trkpt lat="46.07008" lon="6.30249">
        <ele>576.93</ele>
        <time>2020-03-14T10:58:56Z</time>
      </trkpt>
      <trkpt lat="46.06936" lon="6.30284">
        <ele>576.93</ele>
        <time>2020-03-14T10:59:03Z</time>
      </trkpt>
      <trkpt lat="46.06921" lon="6.30291">
        <ele>576.93</ele>
        <time>2020-03-14T10:59:05Z</time>
      </trkpt>
      <trkpt lat="46.06913" lon="6.30295">
        <ele>576.93</ele>
        <time>2020-03-14T10:59:06Z</time>
      </trkpt>
    </trkseg>
  </trk>
  <trk>
    <name><![CDATA[Journal actif: 2020-04-01 17:18]]></name>
    <trkseg>
      <trkpt lat="46.06749" lon="6.31167">
        <ele>562.03</ele>
        <time>2020-04-01T15:18:11Z</time>
      </trkpt>
      <trkpt lat="46.06752" lon="6.31169">
        <ele>562.51</ele>
        <time>2020-04-01T15:18:22Z</time>
      </trkpt>
      <trkpt lat="46.06746" lon="6.3117">
        <ele>550.49</ele>
        <time>2020-04-01T15:18:37Z</time>
      </trkpt>
      <trkpt lat="46.06744" lon="6.31178">
        <ele>547.61</ele>
        <time>2020-04-01T15:18:58Z</time>
      </trkpt>
      <trkpt lat="46.06741" lon="6.3118">
        <ele>551.93</ele>
        <time>2020-04-01T15:19:30Z</time>
      </trkpt>
      <trkpt lat="46.0673" lon="6.31196">
        <ele>551.93</ele>
        <time>2020-04-01T15:19:51Z</time>
      </trkpt>
      <trkpt lat="46.06725" lon="6.31239">
        <ele>548.09</ele>
        <time>2020-04-01T15:20:01Z</time>
      </trkpt>
      <trkpt lat="46.06718" lon="6.31253">
        <ele>547.61</ele>
        <time>2020-04-01T15:20:02Z</time>
      </trkpt>
      <trkpt lat="46.06718" lon="6.31254">
        <ele>547.61</ele>
        <time>2020-04-01T15:20:03Z</time>
      </trkpt>
      <trkpt lat="46.06719" lon="6.31262">
        <ele>547.13</ele>
        <time>2020-04-01T15:20:04Z</time>
      </trkpt>
      <trkpt lat="46.0672" lon="6.31268">
        <ele>546.65</ele>
        <time>2020-04-01T15:20:05Z</time>
      </trkpt>
      <trkpt lat="46.06723" lon="6.31268">
        <ele>547.61</ele>
        <time>2020-04-01T15:20:06Z</time>
      </trkpt>
      <trkpt lat="46.06727" lon="6.31269">
        <ele>547.61</ele>
        <time>2020-04-01T15:20:07Z</time>
      </trkpt>
      <trkpt lat="46.06728" lon="6.3127">
        <ele>547.61</ele>
        <time>2020-04-01T15:20:08Z</time>
      </trkpt>
      <trkpt lat="46.06731" lon="6.31276">
        <ele>547.13</ele>
        <time>2020-04-01T15:20:09Z</time>
      </trkpt>
      <trkpt lat="46.06734" lon="6.31284">
        <ele>547.13</ele>
        <time>2020-04-01T15:20:10Z</time>
      </trkpt>
      <trkpt lat="46.06737" lon="6.31293">
        <ele>546.65</ele>
        <time>2020-04-01T15:20:11Z</time>
      </trkpt>
      <trkpt lat="46.06741" lon="6.31304">
        <ele>546.65</ele>
        <time>2020-04-01T15:20:12Z</time>
      </trkpt>
      <trkpt lat="46.06744" lon="6.31315">
        <ele>546.65</ele>
        <time>2020-04-01T15:20:13Z</time>
      </trkpt>
      <trkpt lat="46.06747" lon="6.31324">
        <ele>546.17</ele>
        <time>2020-04-01T15:20:14Z</time>
      </trkpt>
      <trkpt lat="46.0675" lon="6.31334">
        <ele>546.17</ele>
        <time>2020-04-01T15:20:15Z</time>
      </trkpt>
      <trkpt lat="46.0675" lon="6.31346">
        <ele>546.17</ele>
        <time>2020-04-01T15:20:16Z</time>
      </trkpt>
      <trkpt lat="46.06751" lon="6.3136">
        <ele>546.65</ele>
        <time>2020-04-01T15:20:17Z</time>
      </trkpt>
      <trkpt lat="46.06752" lon="6.31373">
        <ele>546.17</ele>
        <time>2020-04-01T15:20:18Z</time>
      </trkpt>
      <trkpt lat="46.06753" lon="6.31386">
        <ele>546.17</ele>
        <time>2020-04-01T15:20:19Z</time>
      </trkpt>
      <trkpt lat="46.06759" lon="6.31397">
        <ele>545.2</ele>
        <time>2020-04-01T15:20:20Z</time>
      </trkpt>
      <trkpt lat="46.06773" lon="6.31427">
        <ele>543.76</ele>
        <time>2020-04-01T15:20:23Z</time>
      </trkpt>
      <trkpt lat="46.0678" lon="6.31441">
        <ele>543.28</ele>
        <time>2020-04-01T15:20:24Z</time>
      </trkpt>
      <trkpt lat="46.0679" lon="6.31442">
        <ele>545.2</ele>
        <time>2020-04-01T15:20:25Z</time>
      </trkpt>
      <trkpt lat="46.06799" lon="6.31443">
        <ele>545.2</ele>
        <time>2020-04-01T15:20:26Z</time>
      </trkpt>
      <trkpt lat="46.06809" lon="6.31444">
        <ele>545.2</ele>
        <time>2020-04-01T15:20:27Z</time>
      </trkpt>
      <trkpt lat="46.06906" lon="6.31443">
        <ele>542.8</ele>
        <time>2020-04-01T15:20:35Z</time>
      </trkpt>
      <trkpt lat="46.06919" lon="6.31442">
        <ele>542.32</ele>
        <time>2020-04-01T15:20:36Z</time>
      </trkpt>
      <trkpt lat="46.06931" lon="6.3144">
        <ele>541.84</ele>
        <time>2020-04-01T15:20:37Z</time>
      </trkpt>
      <trkpt lat="46.07021" lon="6.31424">
        <ele>537.51</ele>
        <time>2020-04-01T15:20:46Z</time>
      </trkpt>
      <trkpt lat="46.07116" lon="6.31409">
        <ele>535.11</ele>
        <time>2020-04-01T15:20:54Z</time>
      </trkpt>
      <trkpt lat="46.07191" lon="6.31396">
        <ele>531.75</ele>
        <time>2020-04-01T15:21:00Z</time>
      </trkpt>
      <trkpt lat="46.07204" lon="6.31393">
        <ele>531.27</ele>
        <time>2020-04-01T15:21:01Z</time>
      </trkpt>
      <trkpt lat="46.07216" lon="6.31391">
        <ele>530.3</ele>
        <time>2020-04-01T15:21:02Z</time>
      </trkpt>
      <trkpt lat="46.07342" lon="6.3137">
        <ele>525.98</ele>
        <time>2020-04-01T15:21:12Z</time>
      </trkpt>
      <trkpt lat="46.07373" lon="6.31366">
        <ele>525.5</ele>
        <time>2020-04-01T15:21:15Z</time>
      </trkpt>
      <trkpt lat="46.07381" lon="6.31365">
        <ele>525.5</ele>
        <time>2020-04-01T15:21:16Z</time>
      </trkpt>
      <trkpt lat="46.074" lon="6.31394">
        <ele>525.02</ele>
        <time>2020-04-01T15:21:17Z</time>
      </trkpt>
      <trkpt lat="46.07406" lon="6.31399">
        <ele>525.02</ele>
        <time>2020-04-01T15:21:19Z</time>
      </trkpt>
      <trkpt lat="46.07415" lon="6.31405">
        <ele>524.54</ele>
        <time>2020-04-01T15:21:20Z</time>
      </trkpt>
      <trkpt lat="46.07415" lon="6.31405">
        <ele>524.54</ele>
        <time>2020-04-01T15:21:22Z</time>
      </trkpt>
      <trkpt lat="46.07437" lon="6.31409">
        <ele>524.06</ele>
        <time>2020-04-01T15:21:23Z</time>
      </trkpt>
      <trkpt lat="46.07446" lon="6.31429">
        <ele>523.58</ele>
        <time>2020-04-01T15:21:24Z</time>
      </trkpt>
      <trkpt lat="46.07449" lon="6.31437">
        <ele>523.58</ele>
        <time>2020-04-01T15:21:25Z</time>
      </trkpt>
      <trkpt lat="46.07451" lon="6.31448">
        <ele>523.09</ele>
        <time>2020-04-01T15:21:26Z</time>
      </trkpt>
      <trkpt lat="46.0745" lon="6.31458">
        <ele>523.09</ele>
        <time>2020-04-01T15:21:27Z</time>
      </trkpt>
      <trkpt lat="46.07446" lon="6.31464">
        <ele>523.09</ele>
        <time>2020-04-01T15:21:28Z</time>
      </trkpt>
      <trkpt lat="46.07442" lon="6.31471">
        <ele>523.58</ele>
        <time>2020-04-01T15:21:29Z</time>
      </trkpt>
      <trkpt lat="46.07439" lon="6.31476">
        <ele>524.06</ele>
        <time>2020-04-01T15:21:30Z</time>
      </trkpt>
      <trkpt lat="46.07431" lon="6.31471">
        <ele>524.06</ele>
        <time>2020-04-01T15:21:31Z</time>
      </trkpt>
      <trkpt lat="46.07429" lon="6.31467">
        <ele>524.54</ele>
        <time>2020-04-01T15:21:32Z</time>
      </trkpt>
      <trkpt lat="46.07429" lon="6.31467">
        <ele>525.5</ele>
        <time>2020-04-01T15:21:38Z</time>
      </trkpt>
      <trkpt lat="46.07476" lon="6.3155">
        <ele>516.37</ele>
        <time>2020-04-01T15:24:11Z</time>
      </trkpt>
      <trkpt lat="46.07424" lon="6.31461">
        <ele>527.9</ele>
        <time>2020-04-01T15:24:40Z</time>
      </trkpt>
      <trkpt lat="46.07424" lon="6.31466">
        <ele>528.86</ele>
        <time>2020-04-01T15:24:43Z</time>
      </trkpt>
      <trkpt lat="46.07433" lon="6.31474">
        <ele>529.82</ele>
        <time>2020-04-01T15:24:47Z</time>
      </trkpt>
      <trkpt lat="46.07438" lon="6.31477">
        <ele>529.82</ele>
        <time>2020-04-01T15:24:48Z</time>
      </trkpt>
      <trkpt lat="46.07441" lon="6.31473">
        <ele>530.3</ele>
        <time>2020-04-01T15:24:49Z</time>
      </trkpt>
      <trkpt lat="46.07445" lon="6.31466">
        <ele>530.3</ele>
        <time>2020-04-01T15:24:50Z</time>
      </trkpt>
      <trkpt lat="46.0745" lon="6.31459">
        <ele>530.3</ele>
        <time>2020-04-01T15:24:51Z</time>
      </trkpt>
      <trkpt lat="46.07451" lon="6.31452">
        <ele>529.82</ele>
        <time>2020-04-01T15:24:52Z</time>
      </trkpt>
      <trkpt lat="46.0745" lon="6.31442">
        <ele>529.82</ele>
        <time>2020-04-01T15:24:54Z</time>
      </trkpt>
      <trkpt lat="46.07448" lon="6.31434">
        <ele>529.34</ele>
        <time>2020-04-01T15:24:55Z</time>
      </trkpt>
      <trkpt lat="46.07444" lon="6.31425">
        <ele>529.82</ele>
        <time>2020-04-01T15:24:56Z</time>
      </trkpt>
      <trkpt lat="46.07439" lon="6.31415">
        <ele>529.82</ele>
        <time>2020-04-01T15:24:57Z</time>
      </trkpt>
      <trkpt lat="46.07443" lon="6.31379">
        <ele>529.82</ele>
        <time>2020-04-01T15:24:58Z</time>
      </trkpt>
      <trkpt lat="46.07444" lon="6.31372">
        <ele>529.82</ele>
        <time>2020-04-01T15:24:59Z</time>
      </trkpt>
      <trkpt lat="46.07443" lon="6.3136">
        <ele>529.82</ele>
        <time>2020-04-01T15:25:00Z</time>
      </trkpt>
      <trkpt lat="46.07439" lon="6.31349">
        <ele>529.82</ele>
        <time>2020-04-01T15:25:01Z</time>
      </trkpt>
      <trkpt lat="46.07434" lon="6.3134">
        <ele>529.82</ele>
        <time>2020-04-01T15:25:02Z</time>
      </trkpt>
      <trkpt lat="46.07427" lon="6.31334">
        <ele>529.82</ele>
        <time>2020-04-01T15:25:03Z</time>
      </trkpt>
      <trkpt lat="46.07419" lon="6.31333">
        <ele>529.82</ele>
        <time>2020-04-01T15:25:04Z</time>
      </trkpt>
      <trkpt lat="46.07419" lon="6.31333">
        <ele>529.82</ele>
        <time>2020-04-01T15:25:05Z</time>
      </trkpt>
      <trkpt lat="46.07401" lon="6.31342">
        <ele>529.82</ele>
        <time>2020-04-01T15:25:06Z</time>
      </trkpt>
      <trkpt lat="46.07398" lon="6.31347">
        <ele>530.3</ele>
        <time>2020-04-01T15:25:07Z</time>
      </trkpt>
      <trkpt lat="46.07385" lon="6.31365">
        <ele>530.3</ele>
        <time>2020-04-01T15:25:08Z</time>
      </trkpt>
      <trkpt lat="46.07373" lon="6.31366">
        <ele>530.3</ele>
        <time>2020-04-01T15:25:09Z</time>
      </trkpt>
      <trkpt lat="46.07361" lon="6.31367">
        <ele>530.79</ele>
        <time>2020-04-01T15:25:10Z</time>
      </trkpt>
      <trkpt lat="46.07347" lon="6.31369">
        <ele>531.27</ele>
        <time>2020-04-01T15:25:11Z</time>
      </trkpt>
      <trkpt lat="46.07334" lon="6.31371">
        <ele>531.27</ele>
        <time>2020-04-01T15:25:12Z</time>
      </trkpt>
      <trkpt lat="46.07178" lon="6.31398">
        <ele>533.19</ele>
        <time>2020-04-01T15:25:23Z</time>
      </trkpt>
      <trkpt lat="46.07037" lon="6.31422">
        <ele>537.51</ele>
        <time>2020-04-01T15:25:34Z</time>
      </trkpt>
      <trkpt lat="46.06953" lon="6.31436">
        <ele>538.96</ele>
        <time>2020-04-01T15:25:43Z</time>
      </trkpt>
      <trkpt lat="46.0693" lon="6.3144">
        <ele>538.96</ele>
        <time>2020-04-01T15:25:45Z</time>
      </trkpt>
      <trkpt lat="46.06918" lon="6.31442">
        <ele>538.96</ele>
        <time>2020-04-01T15:25:46Z</time>
      </trkpt>
      <trkpt lat="46.06821" lon="6.31445">
        <ele>539.44</ele>
        <time>2020-04-01T15:25:55Z</time>
      </trkpt>
      <trkpt lat="46.06785" lon="6.31442">
        <ele>541.84</ele>
        <time>2020-04-01T15:26:02Z</time>
      </trkpt>
      <trkpt lat="46.06777" lon="6.31436">
        <ele>542.32</ele>
        <time>2020-04-01T15:26:04Z</time>
      </trkpt>
      <trkpt lat="46.06775" lon="6.31431">
        <ele>542.32</ele>
        <time>2020-04-01T15:26:05Z</time>
      </trkpt>
      <trkpt lat="46.06771" lon="6.31423">
        <ele>542.8</ele>
        <time>2020-04-01T15:26:06Z</time>
      </trkpt>
      <trkpt lat="46.06767" lon="6.31414">
        <ele>542.8</ele>
        <time>2020-04-01T15:26:07Z</time>
      </trkpt>
      <trkpt lat="46.06762" lon="6.31404">
        <ele>543.28</ele>
        <time>2020-04-01T15:26:08Z</time>
      </trkpt>
      <trkpt lat="46.06758" lon="6.31396">
        <ele>543.76</ele>
        <time>2020-04-01T15:26:09Z</time>
      </trkpt>
      <trkpt lat="46.06752" lon="6.31377">
        <ele>545.2</ele>
        <time>2020-04-01T15:26:11Z</time>
      </trkpt>
      <trkpt lat="46.06751" lon="6.31369">
        <ele>546.17</ele>
        <time>2020-04-01T15:26:12Z</time>
      </trkpt>
      <trkpt lat="46.06751" lon="6.31361">
        <ele>546.65</ele>
        <time>2020-04-01T15:26:13Z</time>
      </trkpt>
      <trkpt lat="46.06751" lon="6.31355">
        <ele>547.13</ele>
        <time>2020-04-01T15:26:14Z</time>
      </trkpt>
      <trkpt lat="46.06741" lon="6.31304">
        <ele>548.57</ele>
        <time>2020-04-01T15:26:21Z</time>
      </trkpt>
      <trkpt lat="46.06736" lon="6.31289">
        <ele>549.05</ele>
        <time>2020-04-01T15:26:23Z</time>
      </trkpt>
      <trkpt lat="46.06733" lon="6.31283">
        <ele>549.53</ele>
        <time>2020-04-01T15:26:24Z</time>
      </trkpt>
      <trkpt lat="46.06731" lon="6.31277">
        <ele>550.01</ele>
        <time>2020-04-01T15:26:25Z</time>
      </trkpt>
      <trkpt lat="46.06729" lon="6.31271">
        <ele>550.01</ele>
        <time>2020-04-01T15:26:26Z</time>
      </trkpt>
      <trkpt lat="46.06735" lon="6.31257">
        <ele>550.49</ele>
        <time>2020-04-01T15:26:27Z</time>
      </trkpt>
      <trkpt lat="46.06733" lon="6.31253">
        <ele>550.97</ele>
        <time>2020-04-01T15:26:28Z</time>
      </trkpt>
      <trkpt lat="46.06726" lon="6.31243">
        <ele>552.41</ele>
        <time>2020-04-01T15:26:30Z</time>
      </trkpt>
      <trkpt lat="46.06725" lon="6.31235">
        <ele>552.9</ele>
        <time>2020-04-01T15:26:31Z</time>
      </trkpt>
      <trkpt lat="46.06724" lon="6.31228">
        <ele>553.86</ele>
        <time>2020-04-01T15:26:33Z</time>
      </trkpt>
      <trkpt lat="46.06721" lon="6.31212">
        <ele>554.34</ele>
        <time>2020-04-01T15:26:34Z</time>
      </trkpt>
      <trkpt lat="46.06717" lon="6.31206">
        <ele>554.34</ele>
        <time>2020-04-01T15:26:35Z</time>
      </trkpt>
      <trkpt lat="46.06713" lon="6.31201">
        <ele>554.34</ele>
        <time>2020-04-01T15:26:36Z</time>
      </trkpt>
      <trkpt lat="46.0671" lon="6.31197">
        <ele>554.34</ele>
        <time>2020-04-01T15:26:37Z</time>
      </trkpt>
      <trkpt lat="46.06707" lon="6.31194">
        <ele>554.34</ele>
        <time>2020-04-01T15:26:38Z</time>
      </trkpt>
      <trkpt lat="46.06705" lon="6.31191">
        <ele>554.34</ele>
        <time>2020-04-01T15:26:39Z</time>
      </trkpt>
      <trkpt lat="46.06699" lon="6.31184">
        <ele>553.86</ele>
        <time>2020-04-01T15:26:41Z</time>
      </trkpt>
      <trkpt lat="46.0669" lon="6.31173">
        <ele>552.9</ele>
        <time>2020-04-01T15:26:43Z</time>
      </trkpt>
      <trkpt lat="46.06684" lon="6.31167">
        <ele>552.41</ele>
        <time>2020-04-01T15:26:44Z</time>
      </trkpt>
      <trkpt lat="46.06639" lon="6.31127">
        <ele>551.93</ele>
        <time>2020-04-01T15:26:50Z</time>
      </trkpt>
      <trkpt lat="46.06631" lon="6.31122">
        <ele>552.41</ele>
        <time>2020-04-01T15:26:51Z</time>
      </trkpt>
      <trkpt lat="46.06624" lon="6.31115">
        <ele>552.9</ele>
        <time>2020-04-01T15:26:52Z</time>
      </trkpt>
      <trkpt lat="46.06605" lon="6.31103">
        <ele>552.9</ele>
        <time>2020-04-01T15:26:55Z</time>
      </trkpt>
      <trkpt lat="46.066" lon="6.311">
        <ele>552.9</ele>
        <time>2020-04-01T15:26:56Z</time>
      </trkpt>
      <trkpt lat="46.06599" lon="6.3109">
        <ele>552.9</ele>
        <time>2020-04-01T15:26:57Z</time>
      </trkpt>
      <trkpt lat="46.066" lon="6.31082">
        <ele>552.9</ele>
        <time>2020-04-01T15:26:58Z</time>
      </trkpt>
      <trkpt lat="46.06602" lon="6.3107">
        <ele>552.9</ele>
        <time>2020-04-01T15:26:59Z</time>
      </trkpt>
      <trkpt lat="46.06604" lon="6.31055">
        <ele>552.9</ele>
        <time>2020-04-01T15:27:00Z</time>
      </trkpt>
      <trkpt lat="46.06611" lon="6.31005">
        <ele>552.9</ele>
        <time>2020-04-01T15:27:03Z</time>
      </trkpt>
      <trkpt lat="46.06621" lon="6.30959">
        <ele>554.34</ele>
        <time>2020-04-01T15:27:07Z</time>
      </trkpt>
      <trkpt lat="46.06628" lon="6.30924">
        <ele>554.82</ele>
        <time>2020-04-01T15:27:10Z</time>
      </trkpt>
      <trkpt lat="46.06632" lon="6.30913">
        <ele>554.82</ele>
        <time>2020-04-01T15:27:11Z</time>
      </trkpt>
      <trkpt lat="46.06649" lon="6.30911">
        <ele>554.82</ele>
        <time>2020-04-01T15:27:12Z</time>
      </trkpt>
      <trkpt lat="46.06649" lon="6.30911">
        <ele>555.3</ele>
        <time>2020-04-01T15:27:13Z</time>
      </trkpt>
      <trkpt lat="46.06656" lon="6.3091">
        <ele>555.3</ele>
        <time>2020-04-01T15:27:14Z</time>
      </trkpt>
      <trkpt lat="46.06692" lon="6.30901">
        <ele>558.18</ele>
        <time>2020-04-01T15:27:18Z</time>
      </trkpt>
      <trkpt lat="46.06697" lon="6.30893">
        <ele>558.18</ele>
        <time>2020-04-01T15:27:19Z</time>
      </trkpt>
      <trkpt lat="46.06703" lon="6.30884">
        <ele>558.18</ele>
        <time>2020-04-01T15:27:20Z</time>
      </trkpt>
      <trkpt lat="46.06722" lon="6.30854">
        <ele>558.66</ele>
        <time>2020-04-01T15:27:23Z</time>
      </trkpt>
      <trkpt lat="46.06749" lon="6.30812">
        <ele>560.11</ele>
        <time>2020-04-01T15:27:28Z</time>
      </trkpt>
      <trkpt lat="46.06749" lon="6.30812">
        <ele>560.11</ele>
        <time>2020-04-01T15:27:29Z</time>
      </trkpt>
      <trkpt lat="46.06758" lon="6.30798">
        <ele>560.59</ele>
        <time>2020-04-01T15:27:36Z</time>
      </trkpt>
      <trkpt lat="46.06758" lon="6.30798">
        <ele>561.07</ele>
        <time>2020-04-01T15:28:27Z</time>
      </trkpt>
      <trkpt lat="46.06759" lon="6.30801">
        <ele>569.72</ele>
        <time>2020-04-01T15:30:08Z</time>
      </trkpt>
      <trkpt lat="46.06776" lon="6.30784">
        <ele>559.62</ele>
        <time>2020-04-01T15:30:17Z</time>
      </trkpt>
      <trkpt lat="46.06791" lon="6.30772">
        <ele>561.07</ele>
        <time>2020-04-01T15:30:19Z</time>
      </trkpt>
      <trkpt lat="46.06799" lon="6.30765">
        <ele>562.03</ele>
        <time>2020-04-01T15:30:20Z</time>
      </trkpt>
      <trkpt lat="46.06797" lon="6.30756">
        <ele>564.91</ele>
        <time>2020-04-01T15:30:25Z</time>
      </trkpt>
      <trkpt lat="46.06789" lon="6.30718">
        <ele>566.83</ele>
        <time>2020-04-01T15:30:27Z</time>
      </trkpt>
      <trkpt lat="46.06786" lon="6.30703">
        <ele>567.8</ele>
        <time>2020-04-01T15:30:28Z</time>
      </trkpt>
      <trkpt lat="46.06784" lon="6.30652">
        <ele>571.16</ele>
        <time>2020-04-01T15:30:33Z</time>
      </trkpt>
      <trkpt lat="46.06783" lon="6.30631">
        <ele>573.56</ele>
        <time>2020-04-01T15:30:35Z</time>
      </trkpt>
      <trkpt lat="46.06782" lon="6.3062">
        <ele>575.01</ele>
        <time>2020-04-01T15:30:36Z</time>
      </trkpt>
      <trkpt lat="46.06784" lon="6.30605">
        <ele>575.97</ele>
        <time>2020-04-01T15:30:37Z</time>
      </trkpt>
      <trkpt lat="46.06818" lon="6.30496">
        <ele>578.85</ele>
        <time>2020-04-01T15:30:47Z</time>
      </trkpt>
      <trkpt lat="46.0685" lon="6.30405">
        <ele>582.22</ele>
        <time>2020-04-01T15:30:56Z</time>
      </trkpt>
      <trkpt lat="46.06858" lon="6.3037">
        <ele>583.66</ele>
        <time>2020-04-01T15:30:59Z</time>
      </trkpt>
      <trkpt lat="46.06858" lon="6.30358">
        <ele>583.66</ele>
        <time>2020-04-01T15:31:00Z</time>
      </trkpt>
      <trkpt lat="46.06861" lon="6.3026">
        <ele>586.06</ele>
        <time>2020-04-01T15:31:08Z</time>
      </trkpt>
      <trkpt lat="46.06864" lon="6.30249">
        <ele>586.06</ele>
        <time>2020-04-01T15:31:09Z</time>
      </trkpt>
      <trkpt lat="46.06867" lon="6.3024">
        <ele>586.54</ele>
        <time>2020-04-01T15:31:10Z</time>
      </trkpt>
      <trkpt lat="46.06885" lon="6.30233">
        <ele>586.54</ele>
        <time>2020-04-01T15:31:11Z</time>
      </trkpt>
      <trkpt lat="46.0695" lon="6.30196">
        <ele>587.98</ele>
        <time>2020-04-01T15:31:18Z</time>
      </trkpt>
      <trkpt lat="46.0697" lon="6.30177">
        <ele>587.98</ele>
        <time>2020-04-01T15:31:20Z</time>
      </trkpt>
      <trkpt lat="46.07045" lon="6.30075">
        <ele>589.91</ele>
        <time>2020-04-01T15:31:29Z</time>
      </trkpt>
      <trkpt lat="46.0705" lon="6.30068">
        <ele>590.87</ele>
        <time>2020-04-01T15:31:30Z</time>
      </trkpt>
      <trkpt lat="46.07055" lon="6.30062">
        <ele>591.83</ele>
        <time>2020-04-01T15:31:31Z</time>
      </trkpt>
      <trkpt lat="46.0706" lon="6.30057">
        <ele>592.31</ele>
        <time>2020-04-01T15:31:32Z</time>
      </trkpt>
      <trkpt lat="46.07065" lon="6.30053">
        <ele>592.79</ele>
        <time>2020-04-01T15:31:33Z</time>
      </trkpt>
      <trkpt lat="46.07078" lon="6.30057">
        <ele>593.27</ele>
        <time>2020-04-01T15:31:34Z</time>
      </trkpt>
      <trkpt lat="46.0708" lon="6.30058">
        <ele>593.75</ele>
        <time>2020-04-01T15:31:35Z</time>
      </trkpt>
      <trkpt lat="46.07088" lon="6.30059">
        <ele>593.75</ele>
        <time>2020-04-01T15:31:36Z</time>
      </trkpt>
      <trkpt lat="46.07093" lon="6.30053">
        <ele>593.75</ele>
        <time>2020-04-01T15:31:37Z</time>
      </trkpt>
      <trkpt lat="46.071" lon="6.30038">
        <ele>592.31</ele>
        <time>2020-04-01T15:31:39Z</time>
      </trkpt>
      <trkpt lat="46.07215" lon="6.29943">
        <ele>590.87</ele>
        <time>2020-04-01T15:31:48Z</time>
      </trkpt>
      <trkpt lat="46.07315" lon="6.29864">
        <ele>592.79</ele>
        <time>2020-04-01T15:31:58Z</time>
      </trkpt>
      <trkpt lat="46.07369" lon="6.29822">
        <ele>595.19</ele>
        <time>2020-04-01T15:32:05Z</time>
      </trkpt>
      <trkpt lat="46.07496" lon="6.29743">
        <ele>596.15</ele>
        <time>2020-04-01T15:32:15Z</time>
      </trkpt>
      <trkpt lat="46.0751" lon="6.29737">
        <ele>596.15</ele>
        <time>2020-04-01T15:32:16Z</time>
      </trkpt>
      <trkpt lat="46.07524" lon="6.29736">
        <ele>596.15</ele>
        <time>2020-04-01T15:32:17Z</time>
      </trkpt>
      <trkpt lat="46.0758" lon="6.29743">
        <ele>596.15</ele>
        <time>2020-04-01T15:32:21Z</time>
      </trkpt>
      <trkpt lat="46.07593" lon="6.29749">
        <ele>595.67</ele>
        <time>2020-04-01T15:32:22Z</time>
      </trkpt>
      <trkpt lat="46.07622" lon="6.2976">
        <ele>594.23</ele>
        <time>2020-04-01T15:32:24Z</time>
      </trkpt>
      <trkpt lat="46.07637" lon="6.29761">
        <ele>593.27</ele>
        <time>2020-04-01T15:32:25Z</time>
      </trkpt>
      <trkpt lat="46.07653" lon="6.29761">
        <ele>592.31</ele>
        <time>2020-04-01T15:32:26Z</time>
      </trkpt>
      <trkpt lat="46.07669" lon="6.29758">
        <ele>591.35</ele>
        <time>2020-04-01T15:32:27Z</time>
      </trkpt>
      <trkpt lat="46.07683" lon="6.29749">
        <ele>590.39</ele>
        <time>2020-04-01T15:32:28Z</time>
      </trkpt>
      <trkpt lat="46.07698" lon="6.29739">
        <ele>588.95</ele>
        <time>2020-04-01T15:32:29Z</time>
      </trkpt>
      <trkpt lat="46.07714" lon="6.29729">
        <ele>587.5</ele>
        <time>2020-04-01T15:32:30Z</time>
      </trkpt>
      <trkpt lat="46.07797" lon="6.29667">
        <ele>587.5</ele>
        <time>2020-04-01T15:32:36Z</time>
      </trkpt>
      <trkpt lat="46.07805" lon="6.29657">
        <ele>587.98</ele>
        <time>2020-04-01T15:32:37Z</time>
      </trkpt>
      <trkpt lat="46.07812" lon="6.29649">
        <ele>588.46</ele>
        <time>2020-04-01T15:32:38Z</time>
      </trkpt>
      <trkpt lat="46.07817" lon="6.29641">
        <ele>588.46</ele>
        <time>2020-04-01T15:32:39Z</time>
      </trkpt>
      <trkpt lat="46.0782" lon="6.29634">
        <ele>588.95</ele>
        <time>2020-04-01T15:32:40Z</time>
      </trkpt>
      <trkpt lat="46.07819" lon="6.29624">
        <ele>589.43</ele>
        <time>2020-04-01T15:32:41Z</time>
      </trkpt>
      <trkpt lat="46.07814" lon="6.29621">
        <ele>589.91</ele>
        <time>2020-04-01T15:32:42Z</time>
      </trkpt>
      <trkpt lat="46.07808" lon="6.29617">
        <ele>590.39</ele>
        <time>2020-04-01T15:32:43Z</time>
      </trkpt>
      <trkpt lat="46.07802" lon="6.29618">
        <ele>590.87</ele>
        <time>2020-04-01T15:32:44Z</time>
      </trkpt>
      <trkpt lat="46.07793" lon="6.29624">
        <ele>591.35</ele>
        <time>2020-04-01T15:32:45Z</time>
      </trkpt>
      <trkpt lat="46.07784" lon="6.29631">
        <ele>591.35</ele>
        <time>2020-04-01T15:32:46Z</time>
      </trkpt>
      <trkpt lat="46.07774" lon="6.29638">
        <ele>591.83</ele>
        <time>2020-04-01T15:32:47Z</time>
      </trkpt>
      <trkpt lat="46.07766" lon="6.29645">
        <ele>591.83</ele>
        <time>2020-04-01T15:32:48Z</time>
      </trkpt>
      <trkpt lat="46.07758" lon="6.2965">
        <ele>592.31</ele>
        <time>2020-04-01T15:32:50Z</time>
      </trkpt>
      <trkpt lat="46.07742" lon="6.29645">
        <ele>592.31</ele>
        <time>2020-04-01T15:32:51Z</time>
      </trkpt>
      <trkpt lat="46.07734" lon="6.29641">
        <ele>592.31</ele>
        <time>2020-04-01T15:32:52Z</time>
      </trkpt>
      <trkpt lat="46.07722" lon="6.29634">
        <ele>592.31</ele>
        <time>2020-04-01T15:32:53Z</time>
      </trkpt>
      <trkpt lat="46.07717" lon="6.2962">
        <ele>592.79</ele>
        <time>2020-04-01T15:32:54Z</time>
      </trkpt>
      <trkpt lat="46.07712" lon="6.29603">
        <ele>592.79</ele>
        <time>2020-04-01T15:32:55Z</time>
      </trkpt>
      <trkpt lat="46.07706" lon="6.29584">
        <ele>593.27</ele>
        <time>2020-04-01T15:32:56Z</time>
      </trkpt>
      <trkpt lat="46.07699" lon="6.29563">
        <ele>594.23</ele>
        <time>2020-04-01T15:32:57Z</time>
      </trkpt>
      <trkpt lat="46.07624" lon="6.29359">
        <ele>605.77</ele>
        <time>2020-04-01T15:33:05Z</time>
      </trkpt>
      <trkpt lat="46.07533" lon="6.29207">
        <ele>616.34</ele>
        <time>2020-04-01T15:33:12Z</time>
      </trkpt>
      <trkpt lat="46.07482" lon="6.29066">
        <ele>624.03</ele>
        <time>2020-04-01T15:33:18Z</time>
      </trkpt>
      <trkpt lat="46.07452" lon="6.28973">
        <ele>627.88</ele>
        <time>2020-04-01T15:33:22Z</time>
      </trkpt>
      <trkpt lat="46.0744" lon="6.28952">
        <ele>628.36</ele>
        <time>2020-04-01T15:33:23Z</time>
      </trkpt>
      <trkpt lat="46.07427" lon="6.2893">
        <ele>629.32</ele>
        <time>2020-04-01T15:33:24Z</time>
      </trkpt>
      <trkpt lat="46.07413" lon="6.28908">
        <ele>629.8</ele>
        <time>2020-04-01T15:33:25Z</time>
      </trkpt>
      <trkpt lat="46.07395" lon="6.28889">
        <ele>630.76</ele>
        <time>2020-04-01T15:33:26Z</time>
      </trkpt>
      <trkpt lat="46.07375" lon="6.28873">
        <ele>631.72</ele>
        <time>2020-04-01T15:33:27Z</time>
      </trkpt>
      <trkpt lat="46.07353" lon="6.28858">
        <ele>633.17</ele>
        <time>2020-04-01T15:33:28Z</time>
      </trkpt>
      <trkpt lat="46.07329" lon="6.28847">
        <ele>634.13</ele>
        <time>2020-04-01T15:33:29Z</time>
      </trkpt>
      <trkpt lat="46.07304" lon="6.28838">
        <ele>635.57</ele>
        <time>2020-04-01T15:33:30Z</time>
      </trkpt>
      <trkpt lat="46.07277" lon="6.28833">
        <ele>637.49</ele>
        <time>2020-04-01T15:33:31Z</time>
      </trkpt>
      <trkpt lat="46.07249" lon="6.28829">
        <ele>638.93</ele>
        <time>2020-04-01T15:33:32Z</time>
      </trkpt>
      <trkpt lat="46.07221" lon="6.28826">
        <ele>640.38</ele>
        <time>2020-04-01T15:33:33Z</time>
      </trkpt>
      <trkpt lat="46.07053" lon="6.28807">
        <ele>649.03</ele>
        <time>2020-04-01T15:33:39Z</time>
      </trkpt>
      <trkpt lat="46.07028" lon="6.288">
        <ele>650.47</ele>
        <time>2020-04-01T15:33:40Z</time>
      </trkpt>
      <trkpt lat="46.07005" lon="6.28786">
        <ele>651.91</ele>
        <time>2020-04-01T15:33:41Z</time>
      </trkpt>
      <trkpt lat="46.06982" lon="6.2877">
        <ele>654.31</ele>
        <time>2020-04-01T15:33:42Z</time>
      </trkpt>
      <trkpt lat="46.0696" lon="6.28754">
        <ele>656.24</ele>
        <time>2020-04-01T15:33:43Z</time>
      </trkpt>
      <trkpt lat="46.06828" lon="6.2868">
        <ele>665.37</ele>
        <time>2020-04-01T15:33:49Z</time>
      </trkpt>
      <trkpt lat="46.06806" lon="6.28674">
        <ele>666.33</ele>
        <time>2020-04-01T15:33:50Z</time>
      </trkpt>
      <trkpt lat="46.06782" lon="6.28674">
        <ele>667.77</ele>
        <time>2020-04-01T15:33:51Z</time>
      </trkpt>
      <trkpt lat="46.06759" lon="6.28678">
        <ele>668.73</ele>
        <time>2020-04-01T15:33:52Z</time>
      </trkpt>
      <trkpt lat="46.06735" lon="6.28683">
        <ele>669.7</ele>
        <time>2020-04-01T15:33:53Z</time>
      </trkpt>
      <trkpt lat="46.06712" lon="6.28694">
        <ele>671.14</ele>
        <time>2020-04-01T15:33:54Z</time>
      </trkpt>
      <trkpt lat="46.0669" lon="6.28707">
        <ele>672.58</ele>
        <time>2020-04-01T15:33:55Z</time>
      </trkpt>
      <trkpt lat="46.06667" lon="6.28721">
        <ele>673.54</ele>
        <time>2020-04-01T15:33:56Z</time>
      </trkpt>
      <trkpt lat="46.06525" lon="6.28806">
        <ele>679.79</ele>
        <time>2020-04-01T15:34:03Z</time>
      </trkpt>
      <trkpt lat="46.06469" lon="6.28829">
        <ele>682.67</ele>
        <time>2020-04-01T15:34:07Z</time>
      </trkpt>
      <trkpt lat="46.06452" lon="6.28819">
        <ele>683.15</ele>
        <time>2020-04-01T15:34:08Z</time>
      </trkpt>
      <trkpt lat="46.06439" lon="6.28817">
        <ele>684.12</ele>
        <time>2020-04-01T15:34:10Z</time>
      </trkpt>
      <trkpt lat="46.0643" lon="6.28824">
        <ele>684.12</ele>
        <time>2020-04-01T15:34:11Z</time>
      </trkpt>
      <trkpt lat="46.0642" lon="6.28838">
        <ele>684.12</ele>
        <time>2020-04-01T15:34:12Z</time>
      </trkpt>
      <trkpt lat="46.06407" lon="6.2884">
        <ele>684.12</ele>
        <time>2020-04-01T15:34:13Z</time>
      </trkpt>
      <trkpt lat="46.06392" lon="6.28843">
        <ele>684.6</ele>
        <time>2020-04-01T15:34:14Z</time>
      </trkpt>
      <trkpt lat="46.06375" lon="6.28847">
        <ele>685.08</ele>
        <time>2020-04-01T15:34:15Z</time>
      </trkpt>
      <trkpt lat="46.06244" lon="6.28883">
        <ele>691.33</ele>
        <time>2020-04-01T15:34:21Z</time>
      </trkpt>
      <trkpt lat="46.05948" lon="6.28981">
        <ele>707.19</ele>
        <time>2020-04-01T15:34:34Z</time>
      </trkpt>
      <trkpt lat="46.058" lon="6.29007">
        <ele>714.88</ele>
        <time>2020-04-01T15:34:40Z</time>
      </trkpt>
      <trkpt lat="46.05774" lon="6.29002">
        <ele>716.32</ele>
        <time>2020-04-01T15:34:41Z</time>
      </trkpt>
      <trkpt lat="46.05749" lon="6.28994">
        <ele>717.76</ele>
        <time>2020-04-01T15:34:42Z</time>
      </trkpt>
      <trkpt lat="46.05725" lon="6.28982">
        <ele>719.2</ele>
        <time>2020-04-01T15:34:43Z</time>
      </trkpt>
      <trkpt lat="46.05702" lon="6.28967">
        <ele>720.16</ele>
        <time>2020-04-01T15:34:44Z</time>
      </trkpt>
      <trkpt lat="46.05679" lon="6.2895">
        <ele>721.13</ele>
        <time>2020-04-01T15:34:45Z</time>
      </trkpt>
      <trkpt lat="46.05658" lon="6.28927">
        <ele>722.09</ele>
        <time>2020-04-01T15:34:46Z</time>
      </trkpt>
      <trkpt lat="46.05639" lon="6.28901">
        <ele>723.53</ele>
        <time>2020-04-01T15:34:47Z</time>
      </trkpt>
      <trkpt lat="46.05621" lon="6.28872">
        <ele>724.97</ele>
        <time>2020-04-01T15:34:48Z</time>
      </trkpt>
      <trkpt lat="46.05605" lon="6.28843">
        <ele>726.41</ele>
        <time>2020-04-01T15:34:49Z</time>
      </trkpt>
      <trkpt lat="46.05591" lon="6.2881">
        <ele>727.86</ele>
        <time>2020-04-01T15:34:50Z</time>
      </trkpt>
      <trkpt lat="46.05578" lon="6.28777">
        <ele>728.82</ele>
        <time>2020-04-01T15:34:51Z</time>
      </trkpt>
      <trkpt lat="46.05475" lon="6.28481">
        <ele>738.91</ele>
        <time>2020-04-01T15:35:00Z</time>
      </trkpt>
      <trkpt lat="46.05359" lon="6.28153">
        <ele>746.6</ele>
        <time>2020-04-01T15:35:11Z</time>
      </trkpt>
      <trkpt lat="46.05245" lon="6.27827">
        <ele>753.33</ele>
        <time>2020-04-01T15:35:23Z</time>
      </trkpt>
      <trkpt lat="46.05163" lon="6.27554">
        <ele>755.73</ele>
        <time>2020-04-01T15:35:33Z</time>
      </trkpt>
      <trkpt lat="46.05128" lon="6.27304">
        <ele>761.5</ele>
        <time>2020-04-01T15:35:42Z</time>
      </trkpt>
      <trkpt lat="46.05134" lon="6.27024">
        <ele>768.23</ele>
        <time>2020-04-01T15:35:52Z</time>
      </trkpt>
      <trkpt lat="46.05139" lon="6.26736">
        <ele>772.08</ele>
        <time>2020-04-01T15:36:02Z</time>
      </trkpt>
      <trkpt lat="46.05106" lon="6.26627">
        <ele>774</ele>
        <time>2020-04-01T15:36:06Z</time>
      </trkpt>
      <trkpt lat="46.05094" lon="6.26602">
        <ele>774.96</ele>
        <time>2020-04-01T15:36:07Z</time>
      </trkpt>
      <trkpt lat="46.05082" lon="6.26578">
        <ele>775.92</ele>
        <time>2020-04-01T15:36:08Z</time>
      </trkpt>
      <trkpt lat="46.05068" lon="6.26556">
        <ele>776.88</ele>
        <time>2020-04-01T15:36:09Z</time>
      </trkpt>
      <trkpt lat="46.05055" lon="6.26538">
        <ele>777.84</ele>
        <time>2020-04-01T15:36:10Z</time>
      </trkpt>
      <trkpt lat="46.05037" lon="6.26521">
        <ele>778.81</ele>
        <time>2020-04-01T15:36:11Z</time>
      </trkpt>
      <trkpt lat="46.05021" lon="6.26505">
        <ele>779.77</ele>
        <time>2020-04-01T15:36:12Z</time>
      </trkpt>
      <trkpt lat="46.05006" lon="6.2649">
        <ele>780.73</ele>
        <time>2020-04-01T15:36:13Z</time>
      </trkpt>
      <trkpt lat="46.0499" lon="6.26475">
        <ele>781.69</ele>
        <time>2020-04-01T15:36:14Z</time>
      </trkpt>
      <trkpt lat="46.04857" lon="6.26338">
        <ele>788.42</ele>
        <time>2020-04-01T15:36:23Z</time>
      </trkpt>
      <trkpt lat="46.04737" lon="6.26097">
        <ele>797.07</ele>
        <time>2020-04-01T15:36:34Z</time>
      </trkpt>
      <trkpt lat="46.04582" lon="6.25778">
        <ele>802.84</ele>
        <time>2020-04-01T15:36:48Z</time>
      </trkpt>
      <trkpt lat="46.04487" lon="6.25578">
        <ele>803.32</ele>
        <time>2020-04-01T15:36:57Z</time>
      </trkpt>
      <trkpt lat="46.04449" lon="6.25489">
        <ele>803.32</ele>
        <time>2020-04-01T15:37:01Z</time>
      </trkpt>
      <trkpt lat="46.04443" lon="6.25464">
        <ele>803.32</ele>
        <time>2020-04-01T15:37:02Z</time>
      </trkpt>
      <trkpt lat="46.04372" lon="6.25163">
        <ele>798.51</ele>
        <time>2020-04-01T15:37:13Z</time>
      </trkpt>
      <trkpt lat="46.04318" lon="6.25031">
        <ele>791.78</ele>
        <time>2020-04-01T15:37:19Z</time>
      </trkpt>
      <trkpt lat="46.04213" lon="6.24879">
        <ele>784.57</ele>
        <time>2020-04-01T15:37:26Z</time>
      </trkpt>
      <trkpt lat="46.04118" lon="6.24759">
        <ele>786.5</ele>
        <time>2020-04-01T15:37:31Z</time>
      </trkpt>
      <trkpt lat="46.04097" lon="6.24744">
        <ele>787.46</ele>
        <time>2020-04-01T15:37:32Z</time>
      </trkpt>
      <trkpt lat="46.04075" lon="6.24731">
        <ele>787.94</ele>
        <time>2020-04-01T15:37:33Z</time>
      </trkpt>
      <trkpt lat="46.04053" lon="6.24721">
        <ele>788.9</ele>
        <time>2020-04-01T15:37:34Z</time>
      </trkpt>
      <trkpt lat="46.04029" lon="6.24713">
        <ele>789.38</ele>
        <time>2020-04-01T15:37:35Z</time>
      </trkpt>
      <trkpt lat="46.04005" lon="6.24707">
        <ele>790.34</ele>
        <time>2020-04-01T15:37:36Z</time>
      </trkpt>
      <trkpt lat="46.03961" lon="6.24688">
        <ele>790.82</ele>
        <time>2020-04-01T15:37:38Z</time>
      </trkpt>
      <trkpt lat="46.0394" lon="6.24675">
        <ele>791.3</ele>
        <time>2020-04-01T15:37:39Z</time>
      </trkpt>
      <trkpt lat="46.0392" lon="6.24657">
        <ele>790.82</ele>
        <time>2020-04-01T15:37:40Z</time>
      </trkpt>
      <trkpt lat="46.039" lon="6.24637">
        <ele>790.82</ele>
        <time>2020-04-01T15:37:41Z</time>
      </trkpt>
      <trkpt lat="46.03882" lon="6.24613">
        <ele>790.82</ele>
        <time>2020-04-01T15:37:42Z</time>
      </trkpt>
      <trkpt lat="46.03864" lon="6.24586">
        <ele>790.34</ele>
        <time>2020-04-01T15:37:43Z</time>
      </trkpt>
      <trkpt lat="46.03851" lon="6.24553">
        <ele>789.86</ele>
        <time>2020-04-01T15:37:44Z</time>
      </trkpt>
      <trkpt lat="46.03839" lon="6.24519">
        <ele>789.38</ele>
        <time>2020-04-01T15:37:45Z</time>
      </trkpt>
      <trkpt lat="46.03831" lon="6.24482">
        <ele>788.42</ele>
        <time>2020-04-01T15:37:46Z</time>
      </trkpt>
      <trkpt lat="46.03822" lon="6.24445">
        <ele>786.98</ele>
        <time>2020-04-01T15:37:47Z</time>
      </trkpt>
      <trkpt lat="46.03773" lon="6.24244">
        <ele>777.84</ele>
        <time>2020-04-01T15:37:53Z</time>
      </trkpt>
      <trkpt lat="46.03763" lon="6.24215">
        <ele>774.96</ele>
        <time>2020-04-01T15:37:55Z</time>
      </trkpt>
      <trkpt lat="46.03717" lon="6.24144">
        <ele>771.6</ele>
        <time>2020-04-01T15:37:57Z</time>
      </trkpt>
      <trkpt lat="46.03701" lon="6.24123">
        <ele>770.15</ele>
        <time>2020-04-01T15:37:58Z</time>
      </trkpt>
      <trkpt lat="46.03684" lon="6.24107">
        <ele>768.71</ele>
        <time>2020-04-01T15:37:59Z</time>
      </trkpt>
      <trkpt lat="46.03667" lon="6.2409">
        <ele>767.27</ele>
        <time>2020-04-01T15:38:00Z</time>
      </trkpt>
      <trkpt lat="46.03648" lon="6.2408">
        <ele>766.31</ele>
        <time>2020-04-01T15:38:01Z</time>
      </trkpt>
      <trkpt lat="46.03629" lon="6.24074">
        <ele>764.87</ele>
        <time>2020-04-01T15:38:02Z</time>
      </trkpt>
      <trkpt lat="46.03609" lon="6.24072">
        <ele>764.39</ele>
        <time>2020-04-01T15:38:03Z</time>
      </trkpt>
      <trkpt lat="46.03589" lon="6.24072">
        <ele>763.42</ele>
        <time>2020-04-01T15:38:04Z</time>
      </trkpt>
      <trkpt lat="46.0357" lon="6.24078">
        <ele>762.94</ele>
        <time>2020-04-01T15:38:05Z</time>
      </trkpt>
      <trkpt lat="46.03552" lon="6.24086">
        <ele>762.94</ele>
        <time>2020-04-01T15:38:06Z</time>
      </trkpt>
      <trkpt lat="46.03536" lon="6.24099">
        <ele>762.46</ele>
        <time>2020-04-01T15:38:07Z</time>
      </trkpt>
      <trkpt lat="46.03523" lon="6.24115">
        <ele>761.98</ele>
        <time>2020-04-01T15:38:08Z</time>
      </trkpt>
      <trkpt lat="46.03512" lon="6.24133">
        <ele>761.5</ele>
        <time>2020-04-01T15:38:09Z</time>
      </trkpt>
      <trkpt lat="46.035" lon="6.24153">
        <ele>761.02</ele>
        <time>2020-04-01T15:38:10Z</time>
      </trkpt>
      <trkpt lat="46.03489" lon="6.24172">
        <ele>760.06</ele>
        <time>2020-04-01T15:38:11Z</time>
      </trkpt>
      <trkpt lat="46.03455" lon="6.24225">
        <ele>757.18</ele>
        <time>2020-04-01T15:38:14Z</time>
      </trkpt>
      <trkpt lat="46.03442" lon="6.2424">
        <ele>755.25</ele>
        <time>2020-04-01T15:38:16Z</time>
      </trkpt>
      <trkpt lat="46.0341" lon="6.24257">
        <ele>754.29</ele>
        <time>2020-04-01T15:38:17Z</time>
      </trkpt>
      <trkpt lat="46.03394" lon="6.24262">
        <ele>753.33</ele>
        <time>2020-04-01T15:38:18Z</time>
      </trkpt>
      <trkpt lat="46.03376" lon="6.24261">
        <ele>752.85</ele>
        <time>2020-04-01T15:38:19Z</time>
      </trkpt>
      <trkpt lat="46.03359" lon="6.24257">
        <ele>752.37</ele>
        <time>2020-04-01T15:38:20Z</time>
      </trkpt>
      <trkpt lat="46.03343" lon="6.24247">
        <ele>751.41</ele>
        <time>2020-04-01T15:38:21Z</time>
      </trkpt>
      <trkpt lat="46.03327" lon="6.24234">
        <ele>750.93</ele>
        <time>2020-04-01T15:38:22Z</time>
      </trkpt>
      <trkpt lat="46.03309" lon="6.2422">
        <ele>749.97</ele>
        <time>2020-04-01T15:38:23Z</time>
      </trkpt>
      <trkpt lat="46.03293" lon="6.24202">
        <ele>749.49</ele>
        <time>2020-04-01T15:38:24Z</time>
      </trkpt>
      <trkpt lat="46.03278" lon="6.24178">
        <ele>749</ele>
        <time>2020-04-01T15:38:25Z</time>
      </trkpt>
      <trkpt lat="46.03262" lon="6.24153">
        <ele>748.52</ele>
        <time>2020-04-01T15:38:26Z</time>
      </trkpt>
      <trkpt lat="46.03114" lon="6.23974">
        <ele>747.08</ele>
        <time>2020-04-01T15:38:34Z</time>
      </trkpt>
      <trkpt lat="46.0301" lon="6.23875">
        <ele>745.16</ele>
        <time>2020-04-01T15:38:39Z</time>
      </trkpt>
      <trkpt lat="46.02819" lon="6.2379">
        <ele>741.79</ele>
        <time>2020-04-01T15:38:47Z</time>
      </trkpt>
      <trkpt lat="46.02609" lon="6.23752">
        <ele>733.62</ele>
        <time>2020-04-01T15:38:56Z</time>
      </trkpt>
      <trkpt lat="46.02562" lon="6.23729">
        <ele>730.74</ele>
        <time>2020-04-01T15:38:58Z</time>
      </trkpt>
      <trkpt lat="46.0254" lon="6.23712">
        <ele>729.3</ele>
        <time>2020-04-01T15:38:59Z</time>
      </trkpt>
      <trkpt lat="46.02519" lon="6.2369">
        <ele>728.34</ele>
        <time>2020-04-01T15:39:00Z</time>
      </trkpt>
      <trkpt lat="46.02501" lon="6.23664">
        <ele>727.37</ele>
        <time>2020-04-01T15:39:01Z</time>
      </trkpt>
      <trkpt lat="46.02484" lon="6.23636">
        <ele>726.41</ele>
        <time>2020-04-01T15:39:02Z</time>
      </trkpt>
      <trkpt lat="46.02468" lon="6.23609">
        <ele>725.45</ele>
        <time>2020-04-01T15:39:03Z</time>
      </trkpt>
      <trkpt lat="46.02455" lon="6.2358">
        <ele>724.49</ele>
        <time>2020-04-01T15:39:04Z</time>
      </trkpt>
      <trkpt lat="46.02442" lon="6.23553">
        <ele>723.53</ele>
        <time>2020-04-01T15:39:05Z</time>
      </trkpt>
      <trkpt lat="46.02404" lon="6.2348">
        <ele>720.65</ele>
        <time>2020-04-01T15:39:08Z</time>
      </trkpt>
      <trkpt lat="46.02387" lon="6.23465">
        <ele>719.68</ele>
        <time>2020-04-01T15:39:09Z</time>
      </trkpt>
      <trkpt lat="46.02371" lon="6.2345">
        <ele>718.24</ele>
        <time>2020-04-01T15:39:10Z</time>
      </trkpt>
      <trkpt lat="46.02294" lon="6.2338">
        <ele>712.95</ele>
        <time>2020-04-01T15:39:15Z</time>
      </trkpt>
      <trkpt lat="46.02281" lon="6.23361">
        <ele>711.51</ele>
        <time>2020-04-01T15:39:16Z</time>
      </trkpt>
      <trkpt lat="46.02268" lon="6.23341">
        <ele>710.07</ele>
        <time>2020-04-01T15:39:17Z</time>
      </trkpt>
      <trkpt lat="46.02165" lon="6.23131">
        <ele>704.3</ele>
        <time>2020-04-01T15:39:26Z</time>
      </trkpt>
      <trkpt lat="46.02136" lon="6.23085">
        <ele>703.82</ele>
        <time>2020-04-01T15:39:28Z</time>
      </trkpt>
      <trkpt lat="46.02119" lon="6.23062">
        <ele>703.34</ele>
        <time>2020-04-01T15:39:29Z</time>
      </trkpt>
      <trkpt lat="46.02083" lon="6.23017">
        <ele>702.38</ele>
        <time>2020-04-01T15:39:31Z</time>
      </trkpt>
      <trkpt lat="46.02068" lon="6.22989">
        <ele>701.9</ele>
        <time>2020-04-01T15:39:32Z</time>
      </trkpt>
      <trkpt lat="46.02056" lon="6.22956">
        <ele>701.9</ele>
        <time>2020-04-01T15:39:33Z</time>
      </trkpt>
      <trkpt lat="46.02045" lon="6.22922">
        <ele>701.42</ele>
        <time>2020-04-01T15:39:34Z</time>
      </trkpt>
      <trkpt lat="46.02039" lon="6.22886">
        <ele>700.94</ele>
        <time>2020-04-01T15:39:35Z</time>
      </trkpt>
      <trkpt lat="46.02033" lon="6.22849">
        <ele>700.46</ele>
        <time>2020-04-01T15:39:36Z</time>
      </trkpt>
      <trkpt lat="46.02027" lon="6.22812">
        <ele>699.5</ele>
        <time>2020-04-01T15:39:37Z</time>
      </trkpt>
      <trkpt lat="46.01959" lon="6.22347">
        <ele>692.29</ele>
        <time>2020-04-01T15:39:49Z</time>
      </trkpt>
      <trkpt lat="46.01891" lon="6.22002">
        <ele>685.56</ele>
        <time>2020-04-01T15:39:58Z</time>
      </trkpt>
      <trkpt lat="46.0179" lon="6.21725">
        <ele>683.15</ele>
        <time>2020-04-01T15:40:06Z</time>
      </trkpt>
      <trkpt lat="46.01724" lon="6.21565">
        <ele>682.19</ele>
        <time>2020-04-01T15:40:12Z</time>
      </trkpt>
      <trkpt lat="46.01694" lon="6.21508">
        <ele>681.71</ele>
        <time>2020-04-01T15:40:13Z</time>
      </trkpt>
      <trkpt lat="46.01676" lon="6.21484">
        <ele>681.23</ele>
        <time>2020-04-01T15:40:14Z</time>
      </trkpt>
      <trkpt lat="46.01657" lon="6.21462">
        <ele>680.75</ele>
        <time>2020-04-01T15:40:15Z</time>
      </trkpt>
      <trkpt lat="46.01471" lon="6.21277">
        <ele>677.39</ele>
        <time>2020-04-01T15:40:24Z</time>
      </trkpt>
      <trkpt lat="46.01414" lon="6.21213">
        <ele>675.46</ele>
        <time>2020-04-01T15:40:27Z</time>
      </trkpt>
      <trkpt lat="46.01399" lon="6.21186">
        <ele>674.98</ele>
        <time>2020-04-01T15:40:28Z</time>
      </trkpt>
      <trkpt lat="46.01279" lon="6.21014">
        <ele>669.7</ele>
        <time>2020-04-01T15:40:35Z</time>
      </trkpt>
      <trkpt lat="46.01191" lon="6.20906">
        <ele>667.29</ele>
        <time>2020-04-01T15:40:40Z</time>
      </trkpt>
      <trkpt lat="46.01051" lon="6.2074">
        <ele>662.01</ele>
        <time>2020-04-01T15:40:49Z</time>
      </trkpt>
      <trkpt lat="46.00892" lon="6.20546">
        <ele>660.56</ele>
        <time>2020-04-01T15:40:59Z</time>
      </trkpt>
      <trkpt lat="46.00879" lon="6.20523">
        <ele>660.08</ele>
        <time>2020-04-01T15:41:00Z</time>
      </trkpt>
      <trkpt lat="46.0087" lon="6.20498">
        <ele>659.6</ele>
        <time>2020-04-01T15:41:01Z</time>
      </trkpt>
      <trkpt lat="46.00861" lon="6.20474">
        <ele>659.6</ele>
        <time>2020-04-01T15:41:02Z</time>
      </trkpt>
      <trkpt lat="46.00853" lon="6.20449">
        <ele>659.6</ele>
        <time>2020-04-01T15:41:03Z</time>
      </trkpt>
      <trkpt lat="46.00847" lon="6.20424">
        <ele>659.12</ele>
        <time>2020-04-01T15:41:04Z</time>
      </trkpt>
      <trkpt lat="46.0078" lon="6.20183">
        <ele>653.35</ele>
        <time>2020-04-01T15:41:13Z</time>
      </trkpt>
      <trkpt lat="46.00707" lon="6.19844">
        <ele>638.45</ele>
        <time>2020-04-01T15:41:25Z</time>
      </trkpt>
      <trkpt lat="46.00646" lon="6.19658">
        <ele>630.28</ele>
        <time>2020-04-01T15:41:32Z</time>
      </trkpt>
      <trkpt lat="46.006" lon="6.1955">
        <ele>625.47</ele>
        <time>2020-04-01T15:41:37Z</time>
      </trkpt>
      <trkpt lat="46.00587" lon="6.19533">
        <ele>624.51</ele>
        <time>2020-04-01T15:41:38Z</time>
      </trkpt>
      <trkpt lat="46.00573" lon="6.19516">
        <ele>623.55</ele>
        <time>2020-04-01T15:41:39Z</time>
      </trkpt>
      <trkpt lat="46.00529" lon="6.19476">
        <ele>620.19</ele>
        <time>2020-04-01T15:41:42Z</time>
      </trkpt>
      <trkpt lat="46.00518" lon="6.1946">
        <ele>618.75</ele>
        <time>2020-04-01T15:41:43Z</time>
      </trkpt>
      <trkpt lat="46.00486" lon="6.19398">
        <ele>615.38</ele>
        <time>2020-04-01T15:41:47Z</time>
      </trkpt>
      <trkpt lat="46.0048" lon="6.19382">
        <ele>614.42</ele>
        <time>2020-04-01T15:41:48Z</time>
      </trkpt>
      <trkpt lat="46.0048" lon="6.19365">
        <ele>613.94</ele>
        <time>2020-04-01T15:41:49Z</time>
      </trkpt>
      <trkpt lat="46.00484" lon="6.19347">
        <ele>612.98</ele>
        <time>2020-04-01T15:41:50Z</time>
      </trkpt>
      <trkpt lat="46.00491" lon="6.19332">
        <ele>612.02</ele>
        <time>2020-04-01T15:41:51Z</time>
      </trkpt>
      <trkpt lat="46.005" lon="6.19318">
        <ele>609.61</ele>
        <time>2020-04-01T15:41:53Z</time>
      </trkpt>
      <trkpt lat="46.00512" lon="6.19311">
        <ele>608.65</ele>
        <time>2020-04-01T15:41:54Z</time>
      </trkpt>
      <trkpt lat="46.00539" lon="6.19314">
        <ele>606.73</ele>
        <time>2020-04-01T15:41:55Z</time>
      </trkpt>
      <trkpt lat="46.00551" lon="6.19322">
        <ele>605.29</ele>
        <time>2020-04-01T15:41:56Z</time>
      </trkpt>
      <trkpt lat="46.00562" lon="6.19332">
        <ele>604.33</ele>
        <time>2020-04-01T15:41:57Z</time>
      </trkpt>
      <trkpt lat="46.00571" lon="6.19344">
        <ele>603.36</ele>
        <time>2020-04-01T15:41:58Z</time>
      </trkpt>
      <trkpt lat="46.0058" lon="6.19356">
        <ele>602.4</ele>
        <time>2020-04-01T15:41:59Z</time>
      </trkpt>
      <trkpt lat="46.00644" lon="6.19484">
        <ele>598.56</ele>
        <time>2020-04-01T15:42:07Z</time>
      </trkpt>
      <trkpt lat="46.0065" lon="6.19499">
        <ele>598.08</ele>
        <time>2020-04-01T15:42:08Z</time>
      </trkpt>
      <trkpt lat="46.00657" lon="6.19512">
        <ele>597.6</ele>
        <time>2020-04-01T15:42:09Z</time>
      </trkpt>
      <trkpt lat="46.00662" lon="6.19524">
        <ele>597.12</ele>
        <time>2020-04-01T15:42:10Z</time>
      </trkpt>
      <trkpt lat="46.00667" lon="6.19535">
        <ele>597.12</ele>
        <time>2020-04-01T15:42:11Z</time>
      </trkpt>
      <trkpt lat="46.00676" lon="6.19538">
        <ele>597.12</ele>
        <time>2020-04-01T15:42:12Z</time>
      </trkpt>
      <trkpt lat="46.00684" lon="6.1954">
        <ele>596.64</ele>
        <time>2020-04-01T15:42:13Z</time>
      </trkpt>
      <trkpt lat="46.00691" lon="6.19533">
        <ele>596.64</ele>
        <time>2020-04-01T15:42:14Z</time>
      </trkpt>
      <trkpt lat="46.00693" lon="6.19522">
        <ele>597.12</ele>
        <time>2020-04-01T15:42:15Z</time>
      </trkpt>
      <trkpt lat="46.00694" lon="6.19511">
        <ele>597.12</ele>
        <time>2020-04-01T15:42:16Z</time>
      </trkpt>
      <trkpt lat="46.00691" lon="6.19497">
        <ele>597.12</ele>
        <time>2020-04-01T15:42:17Z</time>
      </trkpt>
      <trkpt lat="46.00685" lon="6.19481">
        <ele>596.15</ele>
        <time>2020-04-01T15:42:18Z</time>
      </trkpt>
      <trkpt lat="46.00678" lon="6.19462">
        <ele>595.67</ele>
        <time>2020-04-01T15:42:19Z</time>
      </trkpt>
      <trkpt lat="46.00669" lon="6.19441">
        <ele>594.71</ele>
        <time>2020-04-01T15:42:20Z</time>
      </trkpt>
      <trkpt lat="46.00593" lon="6.19223">
        <ele>584.14</ele>
        <time>2020-04-01T15:42:29Z</time>
      </trkpt>
      <trkpt lat="46.00493" lon="6.18988">
        <ele>569.72</ele>
        <time>2020-04-01T15:42:38Z</time>
      </trkpt>
      <trkpt lat="46.00468" lon="6.18952">
        <ele>566.83</ele>
        <time>2020-04-01T15:42:40Z</time>
      </trkpt>
      <trkpt lat="46.00456" lon="6.18936">
        <ele>565.39</ele>
        <time>2020-04-01T15:42:41Z</time>
      </trkpt>
      <trkpt lat="46.00444" lon="6.1892">
        <ele>564.43</ele>
        <time>2020-04-01T15:42:42Z</time>
      </trkpt>
      <trkpt lat="46.00411" lon="6.18886">
        <ele>562.03</ele>
        <time>2020-04-01T15:42:45Z</time>
      </trkpt>
      <trkpt lat="46.00402" lon="6.18877">
        <ele>561.07</ele>
        <time>2020-04-01T15:42:46Z</time>
      </trkpt>
      <trkpt lat="46.00404" lon="6.18857">
        <ele>560.11</ele>
        <time>2020-04-01T15:42:47Z</time>
      </trkpt>
      <trkpt lat="46.00401" lon="6.18848">
        <ele>559.62</ele>
        <time>2020-04-01T15:42:48Z</time>
      </trkpt>
      <trkpt lat="46.00403" lon="6.18838">
        <ele>559.14</ele>
        <time>2020-04-01T15:42:49Z</time>
      </trkpt>
      <trkpt lat="46.00407" lon="6.18829">
        <ele>558.66</ele>
        <time>2020-04-01T15:42:50Z</time>
      </trkpt>
      <trkpt lat="46.00416" lon="6.18822">
        <ele>558.18</ele>
        <time>2020-04-01T15:42:51Z</time>
      </trkpt>
      <trkpt lat="46.00423" lon="6.18819">
        <ele>557.7</ele>
        <time>2020-04-01T15:42:52Z</time>
      </trkpt>
      <trkpt lat="46.00433" lon="6.18823">
        <ele>556.74</ele>
        <time>2020-04-01T15:42:53Z</time>
      </trkpt>
      <trkpt lat="46.0044" lon="6.18834">
        <ele>556.26</ele>
        <time>2020-04-01T15:42:54Z</time>
      </trkpt>
      <trkpt lat="46.00444" lon="6.18847">
        <ele>555.78</ele>
        <time>2020-04-01T15:42:55Z</time>
      </trkpt>
      <trkpt lat="46.00448" lon="6.18858">
        <ele>555.78</ele>
        <time>2020-04-01T15:42:56Z</time>
      </trkpt>
      <trkpt lat="46.00452" lon="6.18867">
        <ele>555.3</ele>
        <time>2020-04-01T15:42:57Z</time>
      </trkpt>
      <trkpt lat="46.00445" lon="6.18891">
        <ele>555.3</ele>
        <time>2020-04-01T15:42:58Z</time>
      </trkpt>
      <trkpt lat="46.00437" lon="6.189">
        <ele>554.82</ele>
        <time>2020-04-01T15:42:59Z</time>
      </trkpt>
      <trkpt lat="46.00427" lon="6.18913">
        <ele>554.34</ele>
        <time>2020-04-01T15:43:00Z</time>
      </trkpt>
      <trkpt lat="46.00407" lon="6.18945">
        <ele>552.9</ele>
        <time>2020-04-01T15:43:02Z</time>
      </trkpt>
      <trkpt lat="46.00398" lon="6.18967">
        <ele>552.9</ele>
        <time>2020-04-01T15:43:03Z</time>
      </trkpt>
      <trkpt lat="46.00393" lon="6.18992">
        <ele>553.38</ele>
        <time>2020-04-01T15:43:04Z</time>
      </trkpt>
      <trkpt lat="46.00353" lon="6.19181">
        <ele>558.66</ele>
        <time>2020-04-01T15:43:10Z</time>
      </trkpt>
      <trkpt lat="46.00291" lon="6.19517">
        <ele>562.51</ele>
        <time>2020-04-01T15:43:20Z</time>
      </trkpt>
      <trkpt lat="46.0028" lon="6.19777">
        <ele>564.43</ele>
        <time>2020-04-01T15:43:28Z</time>
      </trkpt>
      <trkpt lat="46.00274" lon="6.19805">
        <ele>564.91</ele>
        <time>2020-04-01T15:43:29Z</time>
      </trkpt>
      <trkpt lat="46.00265" lon="6.19831">
        <ele>564.91</ele>
        <time>2020-04-01T15:43:30Z</time>
      </trkpt>
      <trkpt lat="46.00209" lon="6.19981">
        <ele>566.83</ele>
        <time>2020-04-01T15:43:37Z</time>
      </trkpt>
      <trkpt lat="46.00195" lon="6.20018">
        <ele>567.32</ele>
        <time>2020-04-01T15:43:41Z</time>
      </trkpt>
      <trkpt lat="46.00193" lon="6.20021">
        <ele>567.32</ele>
        <time>2020-04-01T15:43:42Z</time>
      </trkpt>
      <trkpt lat="46.00185" lon="6.20001">
        <ele>567.32</ele>
        <time>2020-04-01T15:43:47Z</time>
      </trkpt>
      <trkpt lat="46.00184" lon="6.19998">
        <ele>565.87</ele>
        <time>2020-04-01T15:43:56Z</time>
      </trkpt>
      <trkpt lat="46.00182" lon="6.19998">
        <ele>566.83</ele>
        <time>2020-04-01T15:44:10Z</time>
      </trkpt>
      <trkpt lat="46.00183" lon="6.19996">
        <ele>567.32</ele>
        <time>2020-04-01T15:44:28Z</time>
      </trkpt>
      <trkpt lat="46.00182" lon="6.19996">
        <ele>567.32</ele>
        <time>2020-04-01T15:45:28Z</time>
      </trkpt>
      <trkpt lat="46.00182" lon="6.19996">
        <ele>567.32</ele>
        <time>2020-04-01T15:45:43Z</time>
      </trkpt>
      <trkpt lat="46.00166" lon="6.20013">
        <ele>574.53</ele>
        <time>2020-04-01T16:45:44Z</time>
      </trkpt>
      <trkpt lat="46.00166" lon="6.20012">
        <ele>577.41</ele>
        <time>2020-04-01T16:45:46Z</time>
      </trkpt>
      <trkpt lat="46.00191" lon="6.20028">
        <ele>580.77</ele>
        <time>2020-04-01T16:45:48Z</time>
      </trkpt>
      <trkpt lat="46.0019" lon="6.20031">
        <ele>574.53</ele>
        <time>2020-04-01T16:45:52Z</time>
      </trkpt>
      <trkpt lat="46.00192" lon="6.20026">
        <ele>573.08</ele>
        <time>2020-04-01T16:45:58Z</time>
      </trkpt>
      <trkpt lat="46.00194" lon="6.2002">
        <ele>573.08</ele>
        <time>2020-04-01T16:45:59Z</time>
      </trkpt>
      <trkpt lat="46.00197" lon="6.20011">
        <ele>572.6</ele>
        <time>2020-04-01T16:46:00Z</time>
      </trkpt>
      <trkpt lat="46.00209" lon="6.1998">
        <ele>573.08</ele>
        <time>2020-04-01T16:46:02Z</time>
      </trkpt>
      <trkpt lat="46.00218" lon="6.19956">
        <ele>573.56</ele>
        <time>2020-04-01T16:46:03Z</time>
      </trkpt>
      <trkpt lat="46.00231" lon="6.19924">
        <ele>573.08</ele>
        <time>2020-04-01T16:46:04Z</time>
      </trkpt>
      <trkpt lat="46.00278" lon="6.19794">
        <ele>571.64</ele>
        <time>2020-04-01T16:46:08Z</time>
      </trkpt>
      <trkpt lat="46.00282" lon="6.1976">
        <ele>571.64</ele>
        <time>2020-04-01T16:46:09Z</time>
      </trkpt>
      <trkpt lat="46.00285" lon="6.19729">
        <ele>571.64</ele>
        <time>2020-04-01T16:46:10Z</time>
      </trkpt>
      <trkpt lat="46.00288" lon="6.19595">
        <ele>571.16</ele>
        <time>2020-04-01T16:46:14Z</time>
      </trkpt>
      <trkpt lat="46.00294" lon="6.19488">
        <ele>570.68</ele>
        <time>2020-04-01T16:46:17Z</time>
      </trkpt>
      <trkpt lat="46.00312" lon="6.19385">
        <ele>570.68</ele>
        <time>2020-04-01T16:46:20Z</time>
      </trkpt>
      <trkpt lat="46.0037" lon="6.19094">
        <ele>571.64</ele>
        <time>2020-04-01T16:46:29Z</time>
      </trkpt>
      <trkpt lat="46.00391" lon="6.18998">
        <ele>569.24</ele>
        <time>2020-04-01T16:46:34Z</time>
      </trkpt>
      <trkpt lat="46.00394" lon="6.18986">
        <ele>567.8</ele>
        <time>2020-04-01T16:46:35Z</time>
      </trkpt>
      <trkpt lat="46.00396" lon="6.18976">
        <ele>566.83</ele>
        <time>2020-04-01T16:46:36Z</time>
      </trkpt>
      <trkpt lat="46.00398" lon="6.18967">
        <ele>566.35</ele>
        <time>2020-04-01T16:46:37Z</time>
      </trkpt>
      <trkpt lat="46.00399" lon="6.18961">
        <ele>565.39</ele>
        <time>2020-04-01T16:46:38Z</time>
      </trkpt>
      <trkpt lat="46.00395" lon="6.18952">
        <ele>564.91</ele>
        <time>2020-04-01T16:46:39Z</time>
      </trkpt>
      <trkpt lat="46.0039" lon="6.18949">
        <ele>563.95</ele>
        <time>2020-04-01T16:46:40Z</time>
      </trkpt>
      <trkpt lat="46.00384" lon="6.18945">
        <ele>563.47</ele>
        <time>2020-04-01T16:46:41Z</time>
      </trkpt>
      <trkpt lat="46.00379" lon="6.18942">
        <ele>562.51</ele>
        <time>2020-04-01T16:46:42Z</time>
      </trkpt>
      <trkpt lat="46.00371" lon="6.18934">
        <ele>562.03</ele>
        <time>2020-04-01T16:46:43Z</time>
      </trkpt>
      <trkpt lat="46.00364" lon="6.18928">
        <ele>562.03</ele>
        <time>2020-04-01T16:46:44Z</time>
      </trkpt>
      <trkpt lat="46.0036" lon="6.18918">
        <ele>561.55</ele>
        <time>2020-04-01T16:46:45Z</time>
      </trkpt>
      <trkpt lat="46.00358" lon="6.18908">
        <ele>561.55</ele>
        <time>2020-04-01T16:46:46Z</time>
      </trkpt>
      <trkpt lat="46.0036" lon="6.18897">
        <ele>561.55</ele>
        <time>2020-04-01T16:46:47Z</time>
      </trkpt>
      <trkpt lat="46.00362" lon="6.18887">
        <ele>561.55</ele>
        <time>2020-04-01T16:46:48Z</time>
      </trkpt>
      <trkpt lat="46.00369" lon="6.18883">
        <ele>561.55</ele>
        <time>2020-04-01T16:46:49Z</time>
      </trkpt>
      <trkpt lat="46.00377" lon="6.18878">
        <ele>561.55</ele>
        <time>2020-04-01T16:46:50Z</time>
      </trkpt>
      <trkpt lat="46.00384" lon="6.18877">
        <ele>561.55</ele>
        <time>2020-04-01T16:46:51Z</time>
      </trkpt>
      <trkpt lat="46.00394" lon="6.18882">
        <ele>562.51</ele>
        <time>2020-04-01T16:46:53Z</time>
      </trkpt>
      <trkpt lat="46.00421" lon="6.18896">
        <ele>563.95</ele>
        <time>2020-04-01T16:46:55Z</time>
      </trkpt>
      <trkpt lat="46.00491" lon="6.18984">
        <ele>567.8</ele>
        <time>2020-04-01T16:46:58Z</time>
      </trkpt>
      <trkpt lat="46.00591" lon="6.19219">
        <ele>580.29</ele>
        <time>2020-04-01T16:47:05Z</time>
      </trkpt>
      <trkpt lat="46.0065" lon="6.19389">
        <ele>591.83</ele>
        <time>2020-04-01T16:47:11Z</time>
      </trkpt>
      <trkpt lat="46.00686" lon="6.19483">
        <ele>598.56</ele>
        <time>2020-04-01T16:47:16Z</time>
      </trkpt>
      <trkpt lat="46.00691" lon="6.19495">
        <ele>600</ele>
        <time>2020-04-01T16:47:17Z</time>
      </trkpt>
      <trkpt lat="46.00694" lon="6.19509">
        <ele>600.48</ele>
        <time>2020-04-01T16:47:18Z</time>
      </trkpt>
      <trkpt lat="46.00693" lon="6.19519">
        <ele>600.96</ele>
        <time>2020-04-01T16:47:19Z</time>
      </trkpt>
      <trkpt lat="46.00691" lon="6.19532">
        <ele>601.92</ele>
        <time>2020-04-01T16:47:20Z</time>
      </trkpt>
      <trkpt lat="46.00682" lon="6.19541">
        <ele>602.88</ele>
        <time>2020-04-01T16:47:21Z</time>
      </trkpt>
      <trkpt lat="46.00671" lon="6.19536">
        <ele>604.33</ele>
        <time>2020-04-01T16:47:22Z</time>
      </trkpt>
      <trkpt lat="46.00661" lon="6.19522">
        <ele>605.77</ele>
        <time>2020-04-01T16:47:23Z</time>
      </trkpt>
      <trkpt lat="46.00655" lon="6.19508">
        <ele>606.73</ele>
        <time>2020-04-01T16:47:24Z</time>
      </trkpt>
      <trkpt lat="46.00647" lon="6.1949">
        <ele>607.69</ele>
        <time>2020-04-01T16:47:25Z</time>
      </trkpt>
      <trkpt lat="46.00587" lon="6.19366">
        <ele>613.46</ele>
        <time>2020-04-01T16:47:31Z</time>
      </trkpt>
      <trkpt lat="46.00552" lon="6.19323">
        <ele>616.82</ele>
        <time>2020-04-01T16:47:34Z</time>
      </trkpt>
      <trkpt lat="46.0054" lon="6.19314">
        <ele>618.26</ele>
        <time>2020-04-01T16:47:35Z</time>
      </trkpt>
      <trkpt lat="46.0053" lon="6.19309">
        <ele>618.75</ele>
        <time>2020-04-01T16:47:36Z</time>
      </trkpt>
      <trkpt lat="46.00519" lon="6.19307">
        <ele>619.23</ele>
        <time>2020-04-01T16:47:37Z</time>
      </trkpt>
      <trkpt lat="46.00508" lon="6.19313">
        <ele>619.23</ele>
        <time>2020-04-01T16:47:38Z</time>
      </trkpt>
      <trkpt lat="46.00497" lon="6.1932">
        <ele>619.71</ele>
        <time>2020-04-01T16:47:39Z</time>
      </trkpt>
      <trkpt lat="46.00491" lon="6.19333">
        <ele>619.71</ele>
        <time>2020-04-01T16:47:40Z</time>
      </trkpt>
      <trkpt lat="46.00484" lon="6.19348">
        <ele>620.19</ele>
        <time>2020-04-01T16:47:41Z</time>
      </trkpt>
      <trkpt lat="46.0048" lon="6.19364">
        <ele>620.19</ele>
        <time>2020-04-01T16:47:42Z</time>
      </trkpt>
      <trkpt lat="46.0048" lon="6.19382">
        <ele>620.67</ele>
        <time>2020-04-01T16:47:43Z</time>
      </trkpt>
      <trkpt lat="46.00486" lon="6.19399">
        <ele>620.67</ele>
        <time>2020-04-01T16:47:44Z</time>
      </trkpt>
      <trkpt lat="46.00493" lon="6.19417">
        <ele>620.67</ele>
        <time>2020-04-01T16:47:45Z</time>
      </trkpt>
      <trkpt lat="46.00502" lon="6.19434">
        <ele>621.15</ele>
        <time>2020-04-01T16:47:46Z</time>
      </trkpt>
      <trkpt lat="46.00513" lon="6.19452">
        <ele>622.11</ele>
        <time>2020-04-01T16:47:47Z</time>
      </trkpt>
      <trkpt lat="46.00525" lon="6.19472">
        <ele>623.07</ele>
        <time>2020-04-01T16:47:48Z</time>
      </trkpt>
      <trkpt lat="46.00538" lon="6.19484">
        <ele>624.03</ele>
        <time>2020-04-01T16:47:49Z</time>
      </trkpt>
      <trkpt lat="46.00553" lon="6.19498">
        <ele>624.99</ele>
        <time>2020-04-01T16:47:50Z</time>
      </trkpt>
      <trkpt lat="46.00569" lon="6.19512">
        <ele>625.96</ele>
        <time>2020-04-01T16:47:51Z</time>
      </trkpt>
      <trkpt lat="46.00584" lon="6.19529">
        <ele>626.92</ele>
        <time>2020-04-01T16:47:52Z</time>
      </trkpt>
      <trkpt lat="46.00598" lon="6.19547">
        <ele>627.88</ele>
        <time>2020-04-01T16:47:53Z</time>
      </trkpt>
      <trkpt lat="46.00611" lon="6.19568">
        <ele>628.84</ele>
        <time>2020-04-01T16:47:54Z</time>
      </trkpt>
      <trkpt lat="46.0062" lon="6.19592">
        <ele>629.8</ele>
        <time>2020-04-01T16:47:55Z</time>
      </trkpt>
      <trkpt lat="46.0063" lon="6.19617">
        <ele>630.76</ele>
        <time>2020-04-01T16:47:56Z</time>
      </trkpt>
      <trkpt lat="46.00702" lon="6.19822">
        <ele>638.45</ele>
        <time>2020-04-01T16:48:04Z</time>
      </trkpt>
      <trkpt lat="46.00767" lon="6.20126">
        <ele>650.47</ele>
        <time>2020-04-01T16:48:15Z</time>
      </trkpt>
      <trkpt lat="46.00858" lon="6.20466">
        <ele>662.01</ele>
        <time>2020-04-01T16:48:28Z</time>
      </trkpt>
      <trkpt lat="46.00867" lon="6.20491">
        <ele>662.49</ele>
        <time>2020-04-01T16:48:29Z</time>
      </trkpt>
      <trkpt lat="46.00876" lon="6.20514">
        <ele>662.97</ele>
        <time>2020-04-01T16:48:30Z</time>
      </trkpt>
      <trkpt lat="46.00886" lon="6.20536">
        <ele>662.97</ele>
        <time>2020-04-01T16:48:31Z</time>
      </trkpt>
      <trkpt lat="46.00899" lon="6.20556">
        <ele>662.97</ele>
        <time>2020-04-01T16:48:32Z</time>
      </trkpt>
      <trkpt lat="46.00913" lon="6.20575">
        <ele>662.97</ele>
        <time>2020-04-01T16:48:33Z</time>
      </trkpt>
      <trkpt lat="46.01068" lon="6.20759">
        <ele>663.93</ele>
        <time>2020-04-01T16:48:43Z</time>
      </trkpt>
      <trkpt lat="46.01267" lon="6.21">
        <ele>669.7</ele>
        <time>2020-04-01T16:48:55Z</time>
      </trkpt>
      <trkpt lat="46.01406" lon="6.21198">
        <ele>674.5</ele>
        <time>2020-04-01T16:49:04Z</time>
      </trkpt>
      <trkpt lat="46.01437" lon="6.2124">
        <ele>675.94</ele>
        <time>2020-04-01T16:49:06Z</time>
      </trkpt>
      <trkpt lat="46.01454" lon="6.21258">
        <ele>676.42</ele>
        <time>2020-04-01T16:49:07Z</time>
      </trkpt>
      <trkpt lat="46.01612" lon="6.21416">
        <ele>680.75</ele>
        <time>2020-04-01T16:49:16Z</time>
      </trkpt>
      <trkpt lat="46.01729" lon="6.21577">
        <ele>684.6</ele>
        <time>2020-04-01T16:49:24Z</time>
      </trkpt>
      <trkpt lat="46.0185" lon="6.21877">
        <ele>687</ele>
        <time>2020-04-01T16:49:35Z</time>
      </trkpt>
      <trkpt lat="46.01927" lon="6.22145">
        <ele>689.4</ele>
        <time>2020-04-01T16:49:44Z</time>
      </trkpt>
      <trkpt lat="46.0197" lon="6.2242">
        <ele>692.29</ele>
        <time>2020-04-01T16:49:53Z</time>
      </trkpt>
      <trkpt lat="46.02022" lon="6.22776">
        <ele>700.46</ele>
        <time>2020-04-01T16:50:05Z</time>
      </trkpt>
      <trkpt lat="46.02044" lon="6.22917">
        <ele>702.38</ele>
        <time>2020-04-01T16:50:10Z</time>
      </trkpt>
      <trkpt lat="46.02052" lon="6.22943">
        <ele>702.86</ele>
        <time>2020-04-01T16:50:11Z</time>
      </trkpt>
      <trkpt lat="46.02061" lon="6.2297">
        <ele>703.34</ele>
        <time>2020-04-01T16:50:12Z</time>
      </trkpt>
      <trkpt lat="46.02071" lon="6.22994">
        <ele>703.82</ele>
        <time>2020-04-01T16:50:13Z</time>
      </trkpt>
      <trkpt lat="46.02083" lon="6.23016">
        <ele>704.3</ele>
        <time>2020-04-01T16:50:14Z</time>
      </trkpt>
      <trkpt lat="46.02097" lon="6.23035">
        <ele>704.78</ele>
        <time>2020-04-01T16:50:15Z</time>
      </trkpt>
      <trkpt lat="46.02112" lon="6.23053">
        <ele>705.75</ele>
        <time>2020-04-01T16:50:16Z</time>
      </trkpt>
      <trkpt lat="46.02126" lon="6.23071">
        <ele>705.75</ele>
        <time>2020-04-01T16:50:17Z</time>
      </trkpt>
      <trkpt lat="46.02152" lon="6.23108">
        <ele>706.23</ele>
        <time>2020-04-01T16:50:19Z</time>
      </trkpt>
      <trkpt lat="46.02226" lon="6.23252">
        <ele>708.63</ele>
        <time>2020-04-01T16:50:27Z</time>
      </trkpt>
      <trkpt lat="46.02293" lon="6.2338">
        <ele>711.99</ele>
        <time>2020-04-01T16:50:34Z</time>
      </trkpt>
      <trkpt lat="46.02307" lon="6.23392">
        <ele>712.95</ele>
        <time>2020-04-01T16:50:35Z</time>
      </trkpt>
      <trkpt lat="46.02321" lon="6.23405">
        <ele>713.44</ele>
        <time>2020-04-01T16:50:36Z</time>
      </trkpt>
      <trkpt lat="46.02397" lon="6.23474">
        <ele>717.76</ele>
        <time>2020-04-01T16:50:40Z</time>
      </trkpt>
      <trkpt lat="46.02415" lon="6.23498">
        <ele>719.2</ele>
        <time>2020-04-01T16:50:41Z</time>
      </trkpt>
      <trkpt lat="46.0243" lon="6.23525">
        <ele>720.16</ele>
        <time>2020-04-01T16:50:42Z</time>
      </trkpt>
      <trkpt lat="46.02443" lon="6.23554">
        <ele>721.61</ele>
        <time>2020-04-01T16:50:43Z</time>
      </trkpt>
      <trkpt lat="46.02456" lon="6.23584">
        <ele>722.57</ele>
        <time>2020-04-01T16:50:44Z</time>
      </trkpt>
      <trkpt lat="46.0253" lon="6.23702">
        <ele>727.37</ele>
        <time>2020-04-01T16:50:49Z</time>
      </trkpt>
      <trkpt lat="46.02548" lon="6.23719">
        <ele>727.86</ele>
        <time>2020-04-01T16:50:50Z</time>
      </trkpt>
      <trkpt lat="46.02566" lon="6.23732">
        <ele>728.82</ele>
        <time>2020-04-01T16:50:51Z</time>
      </trkpt>
      <trkpt lat="46.02586" lon="6.23741">
        <ele>729.78</ele>
        <time>2020-04-01T16:50:52Z</time>
      </trkpt>
      <trkpt lat="46.02606" lon="6.23751">
        <ele>730.74</ele>
        <time>2020-04-01T16:50:53Z</time>
      </trkpt>
      <trkpt lat="46.02627" lon="6.23756">
        <ele>731.7</ele>
        <time>2020-04-01T16:50:54Z</time>
      </trkpt>
      <trkpt lat="46.02648" lon="6.2376">
        <ele>732.18</ele>
        <time>2020-04-01T16:50:55Z</time>
      </trkpt>
      <trkpt lat="46.029" lon="6.23816">
        <ele>743.24</ele>
        <time>2020-04-01T16:51:07Z</time>
      </trkpt>
      <trkpt lat="46.0305" lon="6.23902">
        <ele>746.12</ele>
        <time>2020-04-01T16:51:15Z</time>
      </trkpt>
      <trkpt lat="46.03066" lon="6.2392">
        <ele>746.6</ele>
        <time>2020-04-01T16:51:16Z</time>
      </trkpt>
      <trkpt lat="46.03232" lon="6.24109">
        <ele>749</ele>
        <time>2020-04-01T16:51:27Z</time>
      </trkpt>
      <trkpt lat="46.03302" lon="6.24222">
        <ele>749.49</ele>
        <time>2020-04-01T16:51:34Z</time>
      </trkpt>
      <trkpt lat="46.03313" lon="6.24234">
        <ele>749.49</ele>
        <time>2020-04-01T16:51:35Z</time>
      </trkpt>
      <trkpt lat="46.03324" lon="6.24245">
        <ele>749.97</ele>
        <time>2020-04-01T16:51:36Z</time>
      </trkpt>
      <trkpt lat="46.03337" lon="6.24254">
        <ele>749.97</ele>
        <time>2020-04-01T16:51:37Z</time>
      </trkpt>
      <trkpt lat="46.03351" lon="6.24264">
        <ele>750.45</ele>
        <time>2020-04-01T16:51:38Z</time>
      </trkpt>
      <trkpt lat="46.03366" lon="6.24268">
        <ele>750.93</ele>
        <time>2020-04-01T16:51:39Z</time>
      </trkpt>
      <trkpt lat="46.03382" lon="6.24272">
        <ele>751.41</ele>
        <time>2020-04-01T16:51:40Z</time>
      </trkpt>
      <trkpt lat="46.03397" lon="6.24269">
        <ele>751.89</ele>
        <time>2020-04-01T16:51:41Z</time>
      </trkpt>
      <trkpt lat="46.03413" lon="6.24265">
        <ele>752.37</ele>
        <time>2020-04-01T16:51:42Z</time>
      </trkpt>
      <trkpt lat="46.03428" lon="6.24255">
        <ele>752.85</ele>
        <time>2020-04-01T16:51:43Z</time>
      </trkpt>
      <trkpt lat="46.03441" lon="6.24247">
        <ele>753.81</ele>
        <time>2020-04-01T16:51:44Z</time>
      </trkpt>
      <trkpt lat="46.03454" lon="6.24226">
        <ele>754.77</ele>
        <time>2020-04-01T16:51:45Z</time>
      </trkpt>
      <trkpt lat="46.03467" lon="6.24207">
        <ele>755.73</ele>
        <time>2020-04-01T16:51:46Z</time>
      </trkpt>
      <trkpt lat="46.0348" lon="6.24186">
        <ele>756.69</ele>
        <time>2020-04-01T16:51:47Z</time>
      </trkpt>
      <trkpt lat="46.03494" lon="6.24164">
        <ele>757.66</ele>
        <time>2020-04-01T16:51:48Z</time>
      </trkpt>
      <trkpt lat="46.03521" lon="6.24118">
        <ele>759.1</ele>
        <time>2020-04-01T16:51:50Z</time>
      </trkpt>
      <trkpt lat="46.03537" lon="6.24099">
        <ele>760.06</ele>
        <time>2020-04-01T16:51:51Z</time>
      </trkpt>
      <trkpt lat="46.03554" lon="6.24084">
        <ele>760.54</ele>
        <time>2020-04-01T16:51:52Z</time>
      </trkpt>
      <trkpt lat="46.03573" lon="6.24077">
        <ele>761.5</ele>
        <time>2020-04-01T16:51:53Z</time>
      </trkpt>
      <trkpt lat="46.03593" lon="6.24071">
        <ele>762.46</ele>
        <time>2020-04-01T16:51:54Z</time>
      </trkpt>
      <trkpt lat="46.03612" lon="6.24072">
        <ele>763.42</ele>
        <time>2020-04-01T16:51:55Z</time>
      </trkpt>
      <trkpt lat="46.03632" lon="6.24074">
        <ele>764.39</ele>
        <time>2020-04-01T16:51:56Z</time>
      </trkpt>
      <trkpt lat="46.03652" lon="6.24082">
        <ele>764.87</ele>
        <time>2020-04-01T16:51:57Z</time>
      </trkpt>
      <trkpt lat="46.03671" lon="6.24094">
        <ele>765.83</ele>
        <time>2020-04-01T16:51:58Z</time>
      </trkpt>
      <trkpt lat="46.03689" lon="6.24111">
        <ele>766.79</ele>
        <time>2020-04-01T16:51:59Z</time>
      </trkpt>
      <trkpt lat="46.03707" lon="6.2413">
        <ele>767.75</ele>
        <time>2020-04-01T16:52:00Z</time>
      </trkpt>
      <trkpt lat="46.03724" lon="6.24155">
        <ele>769.19</ele>
        <time>2020-04-01T16:52:01Z</time>
      </trkpt>
      <trkpt lat="46.03741" lon="6.2418">
        <ele>770.63</ele>
        <time>2020-04-01T16:52:02Z</time>
      </trkpt>
      <trkpt lat="46.03758" lon="6.24206">
        <ele>772.08</ele>
        <time>2020-04-01T16:52:03Z</time>
      </trkpt>
      <trkpt lat="46.03771" lon="6.24238">
        <ele>773.52</ele>
        <time>2020-04-01T16:52:04Z</time>
      </trkpt>
      <trkpt lat="46.03782" lon="6.24271">
        <ele>775.44</ele>
        <time>2020-04-01T16:52:05Z</time>
      </trkpt>
      <trkpt lat="46.03794" lon="6.24305">
        <ele>776.88</ele>
        <time>2020-04-01T16:52:06Z</time>
      </trkpt>
      <trkpt lat="46.03802" lon="6.24345">
        <ele>778.81</ele>
        <time>2020-04-01T16:52:07Z</time>
      </trkpt>
      <trkpt lat="46.03809" lon="6.24386">
        <ele>780.73</ele>
        <time>2020-04-01T16:52:08Z</time>
      </trkpt>
      <trkpt lat="46.03842" lon="6.24532">
        <ele>787.94</ele>
        <time>2020-04-01T16:52:12Z</time>
      </trkpt>
      <trkpt lat="46.03853" lon="6.24559">
        <ele>788.9</ele>
        <time>2020-04-01T16:52:13Z</time>
      </trkpt>
      <trkpt lat="46.03865" lon="6.24587">
        <ele>790.34</ele>
        <time>2020-04-01T16:52:14Z</time>
      </trkpt>
      <trkpt lat="46.0388" lon="6.2461">
        <ele>791.3</ele>
        <time>2020-04-01T16:52:15Z</time>
      </trkpt>
      <trkpt lat="46.03896" lon="6.24632">
        <ele>792.74</ele>
        <time>2020-04-01T16:52:16Z</time>
      </trkpt>
      <trkpt lat="46.03914" lon="6.2465">
        <ele>793.22</ele>
        <time>2020-04-01T16:52:17Z</time>
      </trkpt>
      <trkpt lat="46.03932" lon="6.24668">
        <ele>794.19</ele>
        <time>2020-04-01T16:52:18Z</time>
      </trkpt>
      <trkpt lat="46.03951" lon="6.24682">
        <ele>794.67</ele>
        <time>2020-04-01T16:52:19Z</time>
      </trkpt>
      <trkpt lat="46.03972" lon="6.24695">
        <ele>795.15</ele>
        <time>2020-04-01T16:52:20Z</time>
      </trkpt>
      <trkpt lat="46.03994" lon="6.24704">
        <ele>795.63</ele>
        <time>2020-04-01T16:52:21Z</time>
      </trkpt>
      <trkpt lat="46.04017" lon="6.24711">
        <ele>795.63</ele>
        <time>2020-04-01T16:52:22Z</time>
      </trkpt>
      <trkpt lat="46.04084" lon="6.24736">
        <ele>795.15</ele>
        <time>2020-04-01T16:52:25Z</time>
      </trkpt>
      <trkpt lat="46.04106" lon="6.24749">
        <ele>794.67</ele>
        <time>2020-04-01T16:52:26Z</time>
      </trkpt>
      <trkpt lat="46.04126" lon="6.24768">
        <ele>794.19</ele>
        <time>2020-04-01T16:52:27Z</time>
      </trkpt>
      <trkpt lat="46.04145" lon="6.2479">
        <ele>793.22</ele>
        <time>2020-04-01T16:52:28Z</time>
      </trkpt>
      <trkpt lat="46.04164" lon="6.24812">
        <ele>792.26</ele>
        <time>2020-04-01T16:52:29Z</time>
      </trkpt>
      <trkpt lat="46.04183" lon="6.24835">
        <ele>791.3</ele>
        <time>2020-04-01T16:52:30Z</time>
      </trkpt>
      <trkpt lat="46.04328" lon="6.2505">
        <ele>791.78</ele>
        <time>2020-04-01T16:52:39Z</time>
      </trkpt>
      <trkpt lat="46.04341" lon="6.25076">
        <ele>792.26</ele>
        <time>2020-04-01T16:52:40Z</time>
      </trkpt>
      <trkpt lat="46.04353" lon="6.25104">
        <ele>793.71</ele>
        <time>2020-04-01T16:52:41Z</time>
      </trkpt>
      <trkpt lat="46.04363" lon="6.25134">
        <ele>795.15</ele>
        <time>2020-04-01T16:52:42Z</time>
      </trkpt>
      <trkpt lat="46.04373" lon="6.25164">
        <ele>796.11</ele>
        <time>2020-04-01T16:52:43Z</time>
      </trkpt>
      <trkpt lat="46.04379" lon="6.25195">
        <ele>797.07</ele>
        <time>2020-04-01T16:52:44Z</time>
      </trkpt>
      <trkpt lat="46.04453" lon="6.25502">
        <ele>806.2</ele>
        <time>2020-04-01T16:52:54Z</time>
      </trkpt>
      <trkpt lat="46.0455" lon="6.25714">
        <ele>807.64</ele>
        <time>2020-04-01T16:53:02Z</time>
      </trkpt>
      <trkpt lat="46.04694" lon="6.26008">
        <ele>804.76</ele>
        <time>2020-04-01T16:53:14Z</time>
      </trkpt>
      <trkpt lat="46.04806" lon="6.26243">
        <ele>798.51</ele>
        <time>2020-04-01T16:53:24Z</time>
      </trkpt>
      <trkpt lat="46.04877" lon="6.26369">
        <ele>793.22</ele>
        <time>2020-04-01T16:53:32Z</time>
      </trkpt>
      <trkpt lat="46.0498" lon="6.26468">
        <ele>786.02</ele>
        <time>2020-04-01T16:53:41Z</time>
      </trkpt>
      <trkpt lat="46.05043" lon="6.26526">
        <ele>781.69</ele>
        <time>2020-04-01T16:53:47Z</time>
      </trkpt>
      <trkpt lat="46.05124" lon="6.26678">
        <ele>776.4</ele>
        <time>2020-04-01T16:53:55Z</time>
      </trkpt>
      <trkpt lat="46.05148" lon="6.26841">
        <ele>773.52</ele>
        <time>2020-04-01T16:54:03Z</time>
      </trkpt>
      <trkpt lat="46.05143" lon="6.2692">
        <ele>772.56</ele>
        <time>2020-04-01T16:54:07Z</time>
      </trkpt>
      <trkpt lat="46.05125" lon="6.27143">
        <ele>770.15</ele>
        <time>2020-04-01T16:54:17Z</time>
      </trkpt>
      <trkpt lat="46.05129" lon="6.27321">
        <ele>766.79</ele>
        <time>2020-04-01T16:54:23Z</time>
      </trkpt>
      <trkpt lat="46.05156" lon="6.27516">
        <ele>761.02</ele>
        <time>2020-04-01T16:54:28Z</time>
      </trkpt>
      <trkpt lat="46.05236" lon="6.27802">
        <ele>754.29</ele>
        <time>2020-04-01T16:54:37Z</time>
      </trkpt>
      <trkpt lat="46.05359" lon="6.28152">
        <ele>748.52</ele>
        <time>2020-04-01T16:54:49Z</time>
      </trkpt>
      <trkpt lat="46.05466" lon="6.28456">
        <ele>739.87</ele>
        <time>2020-04-01T16:55:00Z</time>
      </trkpt>
      <trkpt lat="46.05578" lon="6.28777">
        <ele>733.14</ele>
        <time>2020-04-01T16:55:11Z</time>
      </trkpt>
      <trkpt lat="46.0566" lon="6.28929">
        <ele>724.97</ele>
        <time>2020-04-01T16:55:17Z</time>
      </trkpt>
      <trkpt lat="46.05678" lon="6.28948">
        <ele>724.01</ele>
        <time>2020-04-01T16:55:18Z</time>
      </trkpt>
      <trkpt lat="46.05698" lon="6.28963">
        <ele>722.57</ele>
        <time>2020-04-01T16:55:19Z</time>
      </trkpt>
      <trkpt lat="46.05718" lon="6.28977">
        <ele>721.13</ele>
        <time>2020-04-01T16:55:20Z</time>
      </trkpt>
      <trkpt lat="46.05739" lon="6.2899">
        <ele>720.16</ele>
        <time>2020-04-01T16:55:21Z</time>
      </trkpt>
      <trkpt lat="46.05761" lon="6.28998">
        <ele>719.2</ele>
        <time>2020-04-01T16:55:22Z</time>
      </trkpt>
      <trkpt lat="46.05783" lon="6.29004">
        <ele>717.76</ele>
        <time>2020-04-01T16:55:23Z</time>
      </trkpt>
      <trkpt lat="46.05807" lon="6.29008">
        <ele>716.8</ele>
        <time>2020-04-01T16:55:24Z</time>
      </trkpt>
      <trkpt lat="46.0583" lon="6.29009">
        <ele>715.36</ele>
        <time>2020-04-01T16:55:25Z</time>
      </trkpt>
      <trkpt lat="46.05853" lon="6.29006">
        <ele>714.4</ele>
        <time>2020-04-01T16:55:26Z</time>
      </trkpt>
      <trkpt lat="46.05877" lon="6.29003">
        <ele>712.95</ele>
        <time>2020-04-01T16:55:27Z</time>
      </trkpt>
      <trkpt lat="46.05901" lon="6.28998">
        <ele>711.99</ele>
        <time>2020-04-01T16:55:28Z</time>
      </trkpt>
      <trkpt lat="46.06131" lon="6.28921">
        <ele>700.46</ele>
        <time>2020-04-01T16:55:38Z</time>
      </trkpt>
      <trkpt lat="46.0636" lon="6.2885">
        <ele>687</ele>
        <time>2020-04-01T16:55:49Z</time>
      </trkpt>
      <trkpt lat="46.06416" lon="6.28838">
        <ele>683.15</ele>
        <time>2020-04-01T16:55:53Z</time>
      </trkpt>
      <trkpt lat="46.06425" lon="6.28837">
        <ele>682.19</ele>
        <time>2020-04-01T16:55:54Z</time>
      </trkpt>
      <trkpt lat="46.06434" lon="6.28858">
        <ele>681.23</ele>
        <time>2020-04-01T16:55:55Z</time>
      </trkpt>
      <trkpt lat="46.06441" lon="6.28859">
        <ele>680.75</ele>
        <time>2020-04-01T16:55:56Z</time>
      </trkpt>
      <trkpt lat="46.06454" lon="6.28851">
        <ele>680.27</ele>
        <time>2020-04-01T16:55:57Z</time>
      </trkpt>
      <trkpt lat="46.06459" lon="6.28832">
        <ele>679.79</ele>
        <time>2020-04-01T16:55:58Z</time>
      </trkpt>
      <trkpt lat="46.06471" lon="6.28829">
        <ele>679.31</ele>
        <time>2020-04-01T16:55:59Z</time>
      </trkpt>
      <trkpt lat="46.06485" lon="6.28825">
        <ele>678.83</ele>
        <time>2020-04-01T16:56:00Z</time>
      </trkpt>
      <trkpt lat="46.06501" lon="6.2882">
        <ele>678.35</ele>
        <time>2020-04-01T16:56:01Z</time>
      </trkpt>
      <trkpt lat="46.06653" lon="6.28729">
        <ele>671.14</ele>
        <time>2020-04-01T16:56:09Z</time>
      </trkpt>
      <trkpt lat="46.06752" lon="6.28679">
        <ele>665.85</ele>
        <time>2020-04-01T16:56:14Z</time>
      </trkpt>
      <trkpt lat="46.06773" lon="6.28675">
        <ele>664.89</ele>
        <time>2020-04-01T16:56:15Z</time>
      </trkpt>
      <trkpt lat="46.06795" lon="6.28671">
        <ele>663.93</ele>
        <time>2020-04-01T16:56:16Z</time>
      </trkpt>
      <trkpt lat="46.06816" lon="6.28677">
        <ele>662.97</ele>
        <time>2020-04-01T16:56:17Z</time>
      </trkpt>
      <trkpt lat="46.06838" lon="6.28682">
        <ele>662.01</ele>
        <time>2020-04-01T16:56:18Z</time>
      </trkpt>
      <trkpt lat="46.0686" lon="6.28689">
        <ele>660.56</ele>
        <time>2020-04-01T16:56:19Z</time>
      </trkpt>
      <trkpt lat="46.0688" lon="6.28701">
        <ele>659.6</ele>
        <time>2020-04-01T16:56:20Z</time>
      </trkpt>
      <trkpt lat="46.06901" lon="6.28713">
        <ele>658.64</ele>
        <time>2020-04-01T16:56:21Z</time>
      </trkpt>
      <trkpt lat="46.06921" lon="6.28727">
        <ele>657.68</ele>
        <time>2020-04-01T16:56:22Z</time>
      </trkpt>
      <trkpt lat="46.07086" lon="6.28815">
        <ele>647.59</ele>
        <time>2020-04-01T16:56:30Z</time>
      </trkpt>
      <trkpt lat="46.07331" lon="6.28848">
        <ele>632.2</ele>
        <time>2020-04-01T16:56:41Z</time>
      </trkpt>
      <trkpt lat="46.07373" lon="6.28871">
        <ele>629.8</ele>
        <time>2020-04-01T16:56:43Z</time>
      </trkpt>
      <trkpt lat="46.07392" lon="6.28887">
        <ele>628.36</ele>
        <time>2020-04-01T16:56:44Z</time>
      </trkpt>
      <trkpt lat="46.0741" lon="6.28905">
        <ele>627.4</ele>
        <time>2020-04-01T16:56:45Z</time>
      </trkpt>
      <trkpt lat="46.07425" lon="6.28928">
        <ele>626.44</ele>
        <time>2020-04-01T16:56:46Z</time>
      </trkpt>
      <trkpt lat="46.0744" lon="6.28951">
        <ele>625.47</ele>
        <time>2020-04-01T16:56:47Z</time>
      </trkpt>
      <trkpt lat="46.07453" lon="6.28975">
        <ele>624.51</ele>
        <time>2020-04-01T16:56:48Z</time>
      </trkpt>
      <trkpt lat="46.07464" lon="6.29002">
        <ele>623.55</ele>
        <time>2020-04-01T16:56:49Z</time>
      </trkpt>
      <trkpt lat="46.07473" lon="6.29031">
        <ele>622.59</ele>
        <time>2020-04-01T16:56:50Z</time>
      </trkpt>
      <trkpt lat="46.0748" lon="6.2906">
        <ele>622.11</ele>
        <time>2020-04-01T16:56:51Z</time>
      </trkpt>
      <trkpt lat="46.07513" lon="6.2918">
        <ele>617.78</ele>
        <time>2020-04-01T16:56:56Z</time>
      </trkpt>
      <trkpt lat="46.07522" lon="6.29206">
        <ele>616.82</ele>
        <time>2020-04-01T16:56:57Z</time>
      </trkpt>
      <trkpt lat="46.07516" lon="6.29225">
        <ele>615.86</ele>
        <time>2020-04-01T16:56:58Z</time>
      </trkpt>
      <trkpt lat="46.07509" lon="6.29245">
        <ele>615.86</ele>
        <time>2020-04-01T16:56:59Z</time>
      </trkpt>
      <trkpt lat="46.07502" lon="6.29268">
        <ele>615.86</ele>
        <time>2020-04-01T16:57:00Z</time>
      </trkpt>
      <trkpt lat="46.07474" lon="6.29348">
        <ele>614.42</ele>
        <time>2020-04-01T16:57:03Z</time>
      </trkpt>
      <trkpt lat="46.07463" lon="6.29375">
        <ele>613.46</ele>
        <time>2020-04-01T16:57:04Z</time>
      </trkpt>
      <trkpt lat="46.0745" lon="6.29398">
        <ele>612.5</ele>
        <time>2020-04-01T16:57:05Z</time>
      </trkpt>
      <trkpt lat="46.07297" lon="6.29625">
        <ele>603.85</ele>
        <time>2020-04-01T16:57:16Z</time>
      </trkpt>
      <trkpt lat="46.07259" lon="6.29675">
        <ele>600.96</ele>
        <time>2020-04-01T16:57:19Z</time>
      </trkpt>
      <trkpt lat="46.07246" lon="6.29691">
        <ele>600.48</ele>
        <time>2020-04-01T16:57:20Z</time>
      </trkpt>
      <trkpt lat="46.07151" lon="6.29796">
        <ele>594.71</ele>
        <time>2020-04-01T16:57:28Z</time>
      </trkpt>
      <trkpt lat="46.07099" lon="6.29925">
        <ele>590.87</ele>
        <time>2020-04-01T16:57:36Z</time>
      </trkpt>
      <trkpt lat="46.0708" lon="6.30029">
        <ele>590.87</ele>
        <time>2020-04-01T16:57:43Z</time>
      </trkpt>
      <trkpt lat="46.07074" lon="6.30047">
        <ele>590.87</ele>
        <time>2020-04-01T16:57:44Z</time>
      </trkpt>
      <trkpt lat="46.07077" lon="6.30055">
        <ele>590.87</ele>
        <time>2020-04-01T16:57:45Z</time>
      </trkpt>
      <trkpt lat="46.07085" lon="6.30077">
        <ele>589.91</ele>
        <time>2020-04-01T16:57:47Z</time>
      </trkpt>
      <trkpt lat="46.07083" lon="6.30088">
        <ele>589.91</ele>
        <time>2020-04-01T16:57:48Z</time>
      </trkpt>
      <trkpt lat="46.0708" lon="6.30101">
        <ele>589.43</ele>
        <time>2020-04-01T16:57:49Z</time>
      </trkpt>
      <trkpt lat="46.07075" lon="6.30113">
        <ele>589.43</ele>
        <time>2020-04-01T16:57:50Z</time>
      </trkpt>
      <trkpt lat="46.0707" lon="6.30125">
        <ele>589.43</ele>
        <time>2020-04-01T16:57:51Z</time>
      </trkpt>
      <trkpt lat="46.07064" lon="6.30138">
        <ele>588.95</ele>
        <time>2020-04-01T16:57:52Z</time>
      </trkpt>
      <trkpt lat="46.07058" lon="6.30151">
        <ele>588.95</ele>
        <time>2020-04-01T16:57:53Z</time>
      </trkpt>
      <trkpt lat="46.07055" lon="6.30168">
        <ele>588.95</ele>
        <time>2020-04-01T16:57:54Z</time>
      </trkpt>
      <trkpt lat="46.07046" lon="6.30211">
        <ele>587.98</ele>
        <time>2020-04-01T16:57:57Z</time>
      </trkpt>
      <trkpt lat="46.07044" lon="6.30221">
        <ele>587.5</ele>
        <time>2020-04-01T16:57:58Z</time>
      </trkpt>
      <trkpt lat="46.07031" lon="6.30238">
        <ele>587.5</ele>
        <time>2020-04-01T16:57:59Z</time>
      </trkpt>
      <trkpt lat="46.07026" lon="6.3024">
        <ele>587.02</ele>
        <time>2020-04-01T16:58:00Z</time>
      </trkpt>
      <trkpt lat="46.07015" lon="6.30245">
        <ele>587.02</ele>
        <time>2020-04-01T16:58:01Z</time>
      </trkpt>
      <trkpt lat="46.0691" lon="6.30297">
        <ele>585.58</ele>
        <time>2020-04-01T16:58:09Z</time>
      </trkpt>
      <trkpt lat="46.06872" lon="6.30315">
        <ele>584.62</ele>
        <time>2020-04-01T16:58:14Z</time>
      </trkpt>
      <trkpt lat="46.06868" lon="6.30317">
        <ele>584.62</ele>
        <time>2020-04-01T16:58:15Z</time>
      </trkpt>
      <trkpt lat="46.06859" lon="6.30321">
        <ele>584.62</ele>
        <time>2020-04-01T16:58:16Z</time>
      </trkpt>
      <trkpt lat="46.06859" lon="6.30322">
        <ele>584.62</ele>
        <time>2020-04-01T16:58:17Z</time>
      </trkpt>
      <trkpt lat="46.06859" lon="6.30331">
        <ele>584.14</ele>
        <time>2020-04-01T16:58:18Z</time>
      </trkpt>
      <trkpt lat="46.06859" lon="6.3034">
        <ele>584.14</ele>
        <time>2020-04-01T16:58:19Z</time>
      </trkpt>
      <trkpt lat="46.06858" lon="6.3035">
        <ele>584.14</ele>
        <time>2020-04-01T16:58:20Z</time>
      </trkpt>
      <trkpt lat="46.06858" lon="6.30359">
        <ele>583.66</ele>
        <time>2020-04-01T16:58:21Z</time>
      </trkpt>
      <trkpt lat="46.06858" lon="6.3037">
        <ele>583.18</ele>
        <time>2020-04-01T16:58:22Z</time>
      </trkpt>
      <trkpt lat="46.06857" lon="6.30384">
        <ele>582.7</ele>
        <time>2020-04-01T16:58:23Z</time>
      </trkpt>
      <trkpt lat="46.06854" lon="6.30394">
        <ele>582.22</ele>
        <time>2020-04-01T16:58:24Z</time>
      </trkpt>
      <trkpt lat="46.06849" lon="6.30407">
        <ele>581.73</ele>
        <time>2020-04-01T16:58:25Z</time>
      </trkpt>
      <trkpt lat="46.06844" lon="6.3042">
        <ele>581.25</ele>
        <time>2020-04-01T16:58:26Z</time>
      </trkpt>
      <trkpt lat="46.0684" lon="6.30433">
        <ele>580.77</ele>
        <time>2020-04-01T16:58:27Z</time>
      </trkpt>
      <trkpt lat="46.06812" lon="6.30513">
        <ele>577.41</ele>
        <time>2020-04-01T16:58:35Z</time>
      </trkpt>
      <trkpt lat="46.06808" lon="6.30524">
        <ele>576.93</ele>
        <time>2020-04-01T16:58:36Z</time>
      </trkpt>
      <trkpt lat="46.06804" lon="6.30536">
        <ele>576.93</ele>
        <time>2020-04-01T16:58:37Z</time>
      </trkpt>
      <trkpt lat="46.06799" lon="6.30549">
        <ele>576.45</ele>
        <time>2020-04-01T16:58:38Z</time>
      </trkpt>
      <trkpt lat="46.06791" lon="6.30578">
        <ele>575.49</ele>
        <time>2020-04-01T16:58:40Z</time>
      </trkpt>
      <trkpt lat="46.06787" lon="6.30591">
        <ele>575.01</ele>
        <time>2020-04-01T16:58:41Z</time>
      </trkpt>
      <trkpt lat="46.06754" lon="6.30684">
        <ele>570.68</ele>
        <time>2020-04-01T16:58:48Z</time>
      </trkpt>
      <trkpt lat="46.06748" lon="6.30697">
        <ele>569.72</ele>
        <time>2020-04-01T16:58:50Z</time>
      </trkpt>
      <trkpt lat="46.0668" lon="6.30824">
        <ele>566.35</ele>
        <time>2020-04-01T16:58:58Z</time>
      </trkpt>
      <trkpt lat="46.06654" lon="6.30872">
        <ele>565.39</ele>
        <time>2020-04-01T16:59:02Z</time>
      </trkpt>
      <trkpt lat="46.0665" lon="6.3088">
        <ele>564.91</ele>
        <time>2020-04-01T16:59:03Z</time>
      </trkpt>
      <trkpt lat="46.06646" lon="6.30887">
        <ele>563.95</ele>
        <time>2020-04-01T16:59:04Z</time>
      </trkpt>
      <trkpt lat="46.06643" lon="6.30893">
        <ele>563.95</ele>
        <time>2020-04-01T16:59:05Z</time>
      </trkpt>
      <trkpt lat="46.0664" lon="6.30898">
        <ele>563.47</ele>
        <time>2020-04-01T16:59:06Z</time>
      </trkpt>
      <trkpt lat="46.06643" lon="6.30909">
        <ele>562.51</ele>
        <time>2020-04-01T16:59:08Z</time>
      </trkpt>
      <trkpt lat="46.06653" lon="6.3091">
        <ele>562.51</ele>
        <time>2020-04-01T16:59:09Z</time>
      </trkpt>
      <trkpt lat="46.06661" lon="6.30908">
        <ele>562.03</ele>
        <time>2020-04-01T16:59:10Z</time>
      </trkpt>
      <trkpt lat="46.0667" lon="6.30906">
        <ele>561.55</ele>
        <time>2020-04-01T16:59:11Z</time>
      </trkpt>
      <trkpt lat="46.06686" lon="6.30902">
        <ele>561.55</ele>
        <time>2020-04-01T16:59:13Z</time>
      </trkpt>
      <trkpt lat="46.06694" lon="6.30898">
        <ele>561.55</ele>
        <time>2020-04-01T16:59:14Z</time>
      </trkpt>
      <trkpt lat="46.067" lon="6.30888">
        <ele>562.03</ele>
        <time>2020-04-01T16:59:15Z</time>
      </trkpt>
      <trkpt lat="46.06744" lon="6.30821">
        <ele>562.03</ele>
        <time>2020-04-01T16:59:22Z</time>
      </trkpt>
      <trkpt lat="46.06747" lon="6.30815">
        <ele>561.55</ele>
        <time>2020-04-01T16:59:23Z</time>
      </trkpt>
      <trkpt lat="46.06749" lon="6.30812">
        <ele>561.55</ele>
        <time>2020-04-01T16:59:24Z</time>
      </trkpt>
      <trkpt lat="46.06751" lon="6.3081">
        <ele>561.55</ele>
        <time>2020-04-01T16:59:25Z</time>
      </trkpt>
      <trkpt lat="46.06751" lon="6.3081">
        <ele>561.07</ele>
        <time>2020-04-01T16:59:35Z</time>
      </trkpt>
      <trkpt lat="46.06753" lon="6.30807">
        <ele>560.11</ele>
        <time>2020-04-01T17:00:03Z</time>
      </trkpt>
    </trkseg>
  </trk>
  <trk>
    <name><![CDATA[Journal actif: 2020-04-03 15:17]]></name>
    <trkseg>
      <trkpt lat="46.06809" lon="6.30818">
        <ele>541.84</ele>
        <time>2020-04-03T13:17:11Z</time>
      </trkpt>
      <trkpt lat="46.06812" lon="6.30873">
        <ele>538.96</ele>
        <time>2020-04-03T13:17:16Z</time>
      </trkpt>
      <trkpt lat="46.06812" lon="6.30888">
        <ele>538.48</ele>
        <time>2020-04-03T13:17:18Z</time>
      </trkpt>
      <trkpt lat="46.06812" lon="6.30905">
        <ele>538.48</ele>
        <time>2020-04-03T13:17:20Z</time>
      </trkpt>
      <trkpt lat="46.06814" lon="6.30929">
        <ele>538.48</ele>
        <time>2020-04-03T13:17:21Z</time>
      </trkpt>
      <trkpt lat="46.06811" lon="6.30936">
        <ele>537.99</ele>
        <time>2020-04-03T13:17:22Z</time>
      </trkpt>
      <trkpt lat="46.06808" lon="6.30946">
        <ele>537.99</ele>
        <time>2020-04-03T13:17:23Z</time>
      </trkpt>
      <trkpt lat="46.06804" lon="6.30956">
        <ele>537.51</ele>
        <time>2020-04-03T13:17:24Z</time>
      </trkpt>
      <trkpt lat="46.06801" lon="6.30966">
        <ele>537.51</ele>
        <time>2020-04-03T13:17:25Z</time>
      </trkpt>
      <trkpt lat="46.0678" lon="6.31033">
        <ele>534.15</ele>
        <time>2020-04-03T13:17:31Z</time>
      </trkpt>
      <trkpt lat="46.06759" lon="6.31106">
        <ele>527.9</ele>
        <time>2020-04-03T13:17:37Z</time>
      </trkpt>
      <trkpt lat="46.06741" lon="6.31169">
        <ele>525.5</ele>
        <time>2020-04-03T13:17:43Z</time>
      </trkpt>
      <trkpt lat="46.06739" lon="6.31177">
        <ele>525.5</ele>
        <time>2020-04-03T13:17:44Z</time>
      </trkpt>
      <trkpt lat="46.06734" lon="6.31189">
        <ele>525.5</ele>
        <time>2020-04-03T13:17:46Z</time>
      </trkpt>
      <trkpt lat="46.06726" lon="6.31204">
        <ele>525.5</ele>
        <time>2020-04-03T13:17:50Z</time>
      </trkpt>
      <trkpt lat="46.06725" lon="6.31206">
        <ele>525.5</ele>
        <time>2020-04-03T13:17:51Z</time>
      </trkpt>
      <trkpt lat="46.06723" lon="6.3121">
        <ele>525.5</ele>
        <time>2020-04-03T13:17:52Z</time>
      </trkpt>
      <trkpt lat="46.06722" lon="6.31213">
        <ele>525.5</ele>
        <time>2020-04-03T13:17:53Z</time>
      </trkpt>
      <trkpt lat="46.06722" lon="6.31214">
        <ele>525.5</ele>
        <time>2020-04-03T13:17:54Z</time>
      </trkpt>
      <trkpt lat="46.06724" lon="6.3123">
        <ele>525.5</ele>
        <time>2020-04-03T13:17:55Z</time>
      </trkpt>
      <trkpt lat="46.06718" lon="6.31253">
        <ele>525.5</ele>
        <time>2020-04-03T13:17:57Z</time>
      </trkpt>
      <trkpt lat="46.06718" lon="6.31258">
        <ele>525.5</ele>
        <time>2020-04-03T13:17:58Z</time>
      </trkpt>
      <trkpt lat="46.06728" lon="6.3127">
        <ele>525.98</ele>
        <time>2020-04-03T13:17:59Z</time>
      </trkpt>
      <trkpt lat="46.06728" lon="6.3127">
        <ele>525.98</ele>
        <time>2020-04-03T13:18:00Z</time>
      </trkpt>
      <trkpt lat="46.06731" lon="6.31276">
        <ele>525.98</ele>
        <time>2020-04-03T13:18:01Z</time>
      </trkpt>
      <trkpt lat="46.06734" lon="6.31284">
        <ele>525.98</ele>
        <time>2020-04-03T13:18:02Z</time>
      </trkpt>
      <trkpt lat="46.06737" lon="6.31293">
        <ele>525.98</ele>
        <time>2020-04-03T13:18:03Z</time>
      </trkpt>
      <trkpt lat="46.06741" lon="6.31304">
        <ele>525.98</ele>
        <time>2020-04-03T13:18:04Z</time>
      </trkpt>
      <trkpt lat="46.06745" lon="6.31316">
        <ele>525.98</ele>
        <time>2020-04-03T13:18:05Z</time>
      </trkpt>
      <trkpt lat="46.06748" lon="6.31329">
        <ele>525.98</ele>
        <time>2020-04-03T13:18:06Z</time>
      </trkpt>
      <trkpt lat="46.06752" lon="6.3138">
        <ele>525.98</ele>
        <time>2020-04-03T13:18:10Z</time>
      </trkpt>
      <trkpt lat="46.06756" lon="6.31391">
        <ele>525.98</ele>
        <time>2020-04-03T13:18:11Z</time>
      </trkpt>
      <trkpt lat="46.0676" lon="6.314">
        <ele>526.46</ele>
        <time>2020-04-03T13:18:12Z</time>
      </trkpt>
      <trkpt lat="46.06776" lon="6.31433">
        <ele>526.94</ele>
        <time>2020-04-03T13:18:18Z</time>
      </trkpt>
      <trkpt lat="46.06782" lon="6.31442">
        <ele>526.94</ele>
        <time>2020-04-03T13:18:19Z</time>
      </trkpt>
      <trkpt lat="46.06788" lon="6.31442">
        <ele>526.94</ele>
        <time>2020-04-03T13:18:20Z</time>
      </trkpt>
      <trkpt lat="46.06798" lon="6.31443">
        <ele>526.94</ele>
        <time>2020-04-03T13:18:21Z</time>
      </trkpt>
      <trkpt lat="46.06809" lon="6.31444">
        <ele>526.94</ele>
        <time>2020-04-03T13:18:22Z</time>
      </trkpt>
      <trkpt lat="46.06848" lon="6.31446">
        <ele>526.94</ele>
        <time>2020-04-03T13:18:25Z</time>
      </trkpt>
      <trkpt lat="46.06923" lon="6.31441">
        <ele>528.86</ele>
        <time>2020-04-03T13:18:31Z</time>
      </trkpt>
      <trkpt lat="46.06935" lon="6.31439">
        <ele>528.86</ele>
        <time>2020-04-03T13:18:32Z</time>
      </trkpt>
      <trkpt lat="46.06977" lon="6.31432">
        <ele>529.82</ele>
        <time>2020-04-03T13:18:36Z</time>
      </trkpt>
      <trkpt lat="46.06986" lon="6.31431">
        <ele>530.3</ele>
        <time>2020-04-03T13:18:37Z</time>
      </trkpt>
      <trkpt lat="46.07002" lon="6.31429">
        <ele>530.3</ele>
        <time>2020-04-03T13:18:39Z</time>
      </trkpt>
      <trkpt lat="46.07009" lon="6.31428">
        <ele>530.3</ele>
        <time>2020-04-03T13:18:40Z</time>
      </trkpt>
      <trkpt lat="46.07016" lon="6.31425">
        <ele>530.79</ele>
        <time>2020-04-03T13:18:41Z</time>
      </trkpt>
      <trkpt lat="46.07091" lon="6.31414">
        <ele>532.71</ele>
        <time>2020-04-03T13:18:48Z</time>
      </trkpt>
      <trkpt lat="46.07174" lon="6.31399">
        <ele>529.34</ele>
        <time>2020-04-03T13:18:55Z</time>
      </trkpt>
      <trkpt lat="46.07291" lon="6.31378">
        <ele>527.42</ele>
        <time>2020-04-03T13:19:05Z</time>
      </trkpt>
      <trkpt lat="46.07376" lon="6.31365">
        <ele>526.94</ele>
        <time>2020-04-03T13:19:13Z</time>
      </trkpt>
      <trkpt lat="46.07385" lon="6.31365">
        <ele>526.46</ele>
        <time>2020-04-03T13:19:14Z</time>
      </trkpt>
      <trkpt lat="46.074" lon="6.31394">
        <ele>525.98</ele>
        <time>2020-04-03T13:19:15Z</time>
      </trkpt>
      <trkpt lat="46.07409" lon="6.31401">
        <ele>525.02</ele>
        <time>2020-04-03T13:19:17Z</time>
      </trkpt>
      <trkpt lat="46.07433" lon="6.31402">
        <ele>524.54</ele>
        <time>2020-04-03T13:19:19Z</time>
      </trkpt>
      <trkpt lat="46.07438" lon="6.31412">
        <ele>524.06</ele>
        <time>2020-04-03T13:19:20Z</time>
      </trkpt>
      <trkpt lat="46.07443" lon="6.31423">
        <ele>523.58</ele>
        <time>2020-04-03T13:19:21Z</time>
      </trkpt>
      <trkpt lat="46.07447" lon="6.31432">
        <ele>523.58</ele>
        <time>2020-04-03T13:19:22Z</time>
      </trkpt>
      <trkpt lat="46.0745" lon="6.31442">
        <ele>523.09</ele>
        <time>2020-04-03T13:19:23Z</time>
      </trkpt>
      <trkpt lat="46.07451" lon="6.31451">
        <ele>523.09</ele>
        <time>2020-04-03T13:19:24Z</time>
      </trkpt>
      <trkpt lat="46.07449" lon="6.3146">
        <ele>522.61</ele>
        <time>2020-04-03T13:19:25Z</time>
      </trkpt>
      <trkpt lat="46.07445" lon="6.31466">
        <ele>522.61</ele>
        <time>2020-04-03T13:19:26Z</time>
      </trkpt>
      <trkpt lat="46.07442" lon="6.31472">
        <ele>522.13</ele>
        <time>2020-04-03T13:19:27Z</time>
      </trkpt>
      <trkpt lat="46.07438" lon="6.31478">
        <ele>522.13</ele>
        <time>2020-04-03T13:19:28Z</time>
      </trkpt>
      <trkpt lat="46.07431" lon="6.31471">
        <ele>521.65</ele>
        <time>2020-04-03T13:19:29Z</time>
      </trkpt>
      <trkpt lat="46.07429" lon="6.31467">
        <ele>521.65</ele>
        <time>2020-04-03T13:19:30Z</time>
      </trkpt>
      <trkpt lat="46.07428" lon="6.31465">
        <ele>521.65</ele>
        <time>2020-04-03T13:19:38Z</time>
      </trkpt>
      <trkpt lat="46.07421" lon="6.31473">
        <ele>528.86</ele>
        <time>2020-04-03T13:21:50Z</time>
      </trkpt>
      <trkpt lat="46.07428" lon="6.31465">
        <ele>529.82</ele>
        <time>2020-04-03T13:21:52Z</time>
      </trkpt>
      <trkpt lat="46.07436" lon="6.31482">
        <ele>528.38</ele>
        <time>2020-04-03T13:21:53Z</time>
      </trkpt>
      <trkpt lat="46.07452" lon="6.31456">
        <ele>526.94</ele>
        <time>2020-04-03T13:21:54Z</time>
      </trkpt>
      <trkpt lat="46.07435" lon="6.31477">
        <ele>526.46</ele>
        <time>2020-04-03T13:21:55Z</time>
      </trkpt>
      <trkpt lat="46.07452" lon="6.31456">
        <ele>525.98</ele>
        <time>2020-04-03T13:21:56Z</time>
      </trkpt>
      <trkpt lat="46.07448" lon="6.31462">
        <ele>525.02</ele>
        <time>2020-04-03T13:21:57Z</time>
      </trkpt>
      <trkpt lat="46.07452" lon="6.31456">
        <ele>525.02</ele>
        <time>2020-04-03T13:21:58Z</time>
      </trkpt>
      <trkpt lat="46.07449" lon="6.31437">
        <ele>525.02</ele>
        <time>2020-04-03T13:21:59Z</time>
      </trkpt>
      <trkpt lat="46.07443" lon="6.31423">
        <ele>525.5</ele>
        <time>2020-04-03T13:22:00Z</time>
      </trkpt>
      <trkpt lat="46.07439" lon="6.31414">
        <ele>525.98</ele>
        <time>2020-04-03T13:22:01Z</time>
      </trkpt>
      <trkpt lat="46.07443" lon="6.31379">
        <ele>525.02</ele>
        <time>2020-04-03T13:22:02Z</time>
      </trkpt>
      <trkpt lat="46.07443" lon="6.3136">
        <ele>525.5</ele>
        <time>2020-04-03T13:22:03Z</time>
      </trkpt>
      <trkpt lat="46.07432" lon="6.31338">
        <ele>525.98</ele>
        <time>2020-04-03T13:22:05Z</time>
      </trkpt>
      <trkpt lat="46.07432" lon="6.31338">
        <ele>525.98</ele>
        <time>2020-04-03T13:22:06Z</time>
      </trkpt>
      <trkpt lat="46.07407" lon="6.31334">
        <ele>526.94</ele>
        <time>2020-04-03T13:22:08Z</time>
      </trkpt>
      <trkpt lat="46.074" lon="6.31344">
        <ele>526.46</ele>
        <time>2020-04-03T13:22:09Z</time>
      </trkpt>
      <trkpt lat="46.074" lon="6.31344">
        <ele>526.46</ele>
        <time>2020-04-03T13:22:10Z</time>
      </trkpt>
      <trkpt lat="46.07394" lon="6.31364">
        <ele>526.46</ele>
        <time>2020-04-03T13:22:11Z</time>
      </trkpt>
      <trkpt lat="46.07395" lon="6.31371">
        <ele>525.98</ele>
        <time>2020-04-03T13:22:12Z</time>
      </trkpt>
      <trkpt lat="46.07398" lon="6.31384">
        <ele>525.98</ele>
        <time>2020-04-03T13:22:13Z</time>
      </trkpt>
      <trkpt lat="46.07393" lon="6.31413">
        <ele>525.5</ele>
        <time>2020-04-03T13:22:14Z</time>
      </trkpt>
      <trkpt lat="46.07388" lon="6.31427">
        <ele>525.02</ele>
        <time>2020-04-03T13:22:15Z</time>
      </trkpt>
      <trkpt lat="46.07383" lon="6.31442">
        <ele>524.06</ele>
        <time>2020-04-03T13:22:16Z</time>
      </trkpt>
      <trkpt lat="46.07373" lon="6.3146">
        <ele>523.58</ele>
        <time>2020-04-03T13:22:17Z</time>
      </trkpt>
      <trkpt lat="46.07373" lon="6.3146">
        <ele>523.58</ele>
        <time>2020-04-03T13:22:18Z</time>
      </trkpt>
      <trkpt lat="46.0726" lon="6.31607">
        <ele>520.21</ele>
        <time>2020-04-03T13:22:26Z</time>
      </trkpt>
      <trkpt lat="46.07136" lon="6.31797">
        <ele>518.77</ele>
        <time>2020-04-03T13:22:38Z</time>
      </trkpt>
      <trkpt lat="46.07059" lon="6.31974">
        <ele>518.29</ele>
        <time>2020-04-03T13:22:48Z</time>
      </trkpt>
      <trkpt lat="46.07026" lon="6.32133">
        <ele>517.33</ele>
        <time>2020-04-03T13:22:55Z</time>
      </trkpt>
      <trkpt lat="46.07046" lon="6.323">
        <ele>514.44</ele>
        <time>2020-04-03T13:23:02Z</time>
      </trkpt>
      <trkpt lat="46.07097" lon="6.32541">
        <ele>503.87</ele>
        <time>2020-04-03T13:23:13Z</time>
      </trkpt>
      <trkpt lat="46.07112" lon="6.32696">
        <ele>497.62</ele>
        <time>2020-04-03T13:23:21Z</time>
      </trkpt>
      <trkpt lat="46.07114" lon="6.32727">
        <ele>496.18</ele>
        <time>2020-04-03T13:23:23Z</time>
      </trkpt>
      <trkpt lat="46.07114" lon="6.32741">
        <ele>495.7</ele>
        <time>2020-04-03T13:23:24Z</time>
      </trkpt>
      <trkpt lat="46.07108" lon="6.32753">
        <ele>495.22</ele>
        <time>2020-04-03T13:23:25Z</time>
      </trkpt>
      <trkpt lat="46.07108" lon="6.32763">
        <ele>494.74</ele>
        <time>2020-04-03T13:23:26Z</time>
      </trkpt>
      <trkpt lat="46.07111" lon="6.32771">
        <ele>494.26</ele>
        <time>2020-04-03T13:23:27Z</time>
      </trkpt>
      <trkpt lat="46.07115" lon="6.3278">
        <ele>493.29</ele>
        <time>2020-04-03T13:23:28Z</time>
      </trkpt>
      <trkpt lat="46.0712" lon="6.32782">
        <ele>493.29</ele>
        <time>2020-04-03T13:23:29Z</time>
      </trkpt>
      <trkpt lat="46.07127" lon="6.32781">
        <ele>492.81</ele>
        <time>2020-04-03T13:23:30Z</time>
      </trkpt>
      <trkpt lat="46.07136" lon="6.32773">
        <ele>492.33</ele>
        <time>2020-04-03T13:23:31Z</time>
      </trkpt>
      <trkpt lat="46.07136" lon="6.32764">
        <ele>491.85</ele>
        <time>2020-04-03T13:23:32Z</time>
      </trkpt>
      <trkpt lat="46.07136" lon="6.32755">
        <ele>491.85</ele>
        <time>2020-04-03T13:23:33Z</time>
      </trkpt>
      <trkpt lat="46.07125" lon="6.32742">
        <ele>492.33</ele>
        <time>2020-04-03T13:23:34Z</time>
      </trkpt>
      <trkpt lat="46.07124" lon="6.32731">
        <ele>492.81</ele>
        <time>2020-04-03T13:23:35Z</time>
      </trkpt>
      <trkpt lat="46.07122" lon="6.32716">
        <ele>493.29</ele>
        <time>2020-04-03T13:23:36Z</time>
      </trkpt>
      <trkpt lat="46.07102" lon="6.32527">
        <ele>501.95</ele>
        <time>2020-04-03T13:23:48Z</time>
      </trkpt>
      <trkpt lat="46.07058" lon="6.32345">
        <ele>511.08</ele>
        <time>2020-04-03T13:23:59Z</time>
      </trkpt>
      <trkpt lat="46.07027" lon="6.322">
        <ele>515.88</ele>
        <time>2020-04-03T13:24:08Z</time>
      </trkpt>
      <trkpt lat="46.07025" lon="6.32164">
        <ele>516.85</ele>
        <time>2020-04-03T13:24:11Z</time>
      </trkpt>
      <trkpt lat="46.07026" lon="6.32147">
        <ele>517.33</ele>
        <time>2020-04-03T13:24:13Z</time>
      </trkpt>
      <trkpt lat="46.07027" lon="6.32123">
        <ele>517.81</ele>
        <time>2020-04-03T13:24:16Z</time>
      </trkpt>
      <trkpt lat="46.07027" lon="6.32117">
        <ele>517.81</ele>
        <time>2020-04-03T13:24:17Z</time>
      </trkpt>
      <trkpt lat="46.07027" lon="6.32111">
        <ele>517.81</ele>
        <time>2020-04-03T13:24:18Z</time>
      </trkpt>
      <trkpt lat="46.07021" lon="6.32101">
        <ele>517.81</ele>
        <time>2020-04-03T13:24:19Z</time>
      </trkpt>
      <trkpt lat="46.07017" lon="6.32099">
        <ele>518.29</ele>
        <time>2020-04-03T13:24:20Z</time>
      </trkpt>
      <trkpt lat="46.07012" lon="6.32098">
        <ele>518.29</ele>
        <time>2020-04-03T13:24:21Z</time>
      </trkpt>
      <trkpt lat="46.07005" lon="6.32096">
        <ele>518.77</ele>
        <time>2020-04-03T13:24:22Z</time>
      </trkpt>
      <trkpt lat="46.06999" lon="6.32094">
        <ele>518.77</ele>
        <time>2020-04-03T13:24:23Z</time>
      </trkpt>
      <trkpt lat="46.06993" lon="6.32092">
        <ele>518.77</ele>
        <time>2020-04-03T13:24:24Z</time>
      </trkpt>
      <trkpt lat="46.06981" lon="6.32085">
        <ele>519.25</ele>
        <time>2020-04-03T13:24:25Z</time>
      </trkpt>
      <trkpt lat="46.06981" lon="6.32085">
        <ele>519.25</ele>
        <time>2020-04-03T13:24:26Z</time>
      </trkpt>
      <trkpt lat="46.06979" lon="6.32078">
        <ele>519.73</ele>
        <time>2020-04-03T13:24:27Z</time>
      </trkpt>
      <trkpt lat="46.06976" lon="6.3207">
        <ele>519.73</ele>
        <time>2020-04-03T13:24:28Z</time>
      </trkpt>
      <trkpt lat="46.06952" lon="6.31986">
        <ele>521.17</ele>
        <time>2020-04-03T13:24:37Z</time>
      </trkpt>
      <trkpt lat="46.06948" lon="6.31974">
        <ele>521.17</ele>
        <time>2020-04-03T13:24:40Z</time>
      </trkpt>
      <trkpt lat="46.06965" lon="6.3196">
        <ele>521.65</ele>
        <time>2020-04-03T13:24:47Z</time>
      </trkpt>
      <trkpt lat="46.06989" lon="6.31946">
        <ele>522.13</ele>
        <time>2020-04-03T13:24:51Z</time>
      </trkpt>
      <trkpt lat="46.06997" lon="6.31938">
        <ele>522.61</ele>
        <time>2020-04-03T13:24:54Z</time>
      </trkpt>
      <trkpt lat="46.06983" lon="6.31919">
        <ele>522.61</ele>
        <time>2020-04-03T13:25:02Z</time>
      </trkpt>
      <trkpt lat="46.0698" lon="6.31921">
        <ele>522.61</ele>
        <time>2020-04-03T13:25:03Z</time>
      </trkpt>
      <trkpt lat="46.06953" lon="6.31938">
        <ele>522.13</ele>
        <time>2020-04-03T13:25:13Z</time>
      </trkpt>
      <trkpt lat="46.0694" lon="6.31949">
        <ele>522.61</ele>
        <time>2020-04-03T13:25:15Z</time>
      </trkpt>
      <trkpt lat="46.06941" lon="6.31952">
        <ele>522.13</ele>
        <time>2020-04-03T13:25:16Z</time>
      </trkpt>
      <trkpt lat="46.06942" lon="6.31955">
        <ele>522.13</ele>
        <time>2020-04-03T13:25:17Z</time>
      </trkpt>
      <trkpt lat="46.06943" lon="6.31958">
        <ele>521.65</ele>
        <time>2020-04-03T13:25:18Z</time>
      </trkpt>
      <trkpt lat="46.06944" lon="6.31961">
        <ele>522.13</ele>
        <time>2020-04-03T13:25:19Z</time>
      </trkpt>
      <trkpt lat="46.06945" lon="6.31963">
        <ele>522.13</ele>
        <time>2020-04-03T13:25:20Z</time>
      </trkpt>
      <trkpt lat="46.06949" lon="6.3196">
        <ele>522.61</ele>
        <time>2020-04-03T13:25:29Z</time>
      </trkpt>
      <trkpt lat="46.06943" lon="6.31959">
        <ele>523.09</ele>
        <time>2020-04-03T13:25:32Z</time>
      </trkpt>
      <trkpt lat="46.06928" lon="6.31913">
        <ele>524.54</ele>
        <time>2020-04-03T13:25:37Z</time>
      </trkpt>
      <trkpt lat="46.06898" lon="6.31813">
        <ele>527.42</ele>
        <time>2020-04-03T13:25:47Z</time>
      </trkpt>
      <trkpt lat="46.06841" lon="6.31628">
        <ele>535.11</ele>
        <time>2020-04-03T13:26:02Z</time>
      </trkpt>
      <trkpt lat="46.06797" lon="6.31495">
        <ele>538.96</ele>
        <time>2020-04-03T13:26:12Z</time>
      </trkpt>
      <trkpt lat="46.06791" lon="6.31474">
        <ele>539.92</ele>
        <time>2020-04-03T13:26:14Z</time>
      </trkpt>
      <trkpt lat="46.06788" lon="6.31467">
        <ele>539.92</ele>
        <time>2020-04-03T13:26:15Z</time>
      </trkpt>
      <trkpt lat="46.06787" lon="6.31463">
        <ele>539.92</ele>
        <time>2020-04-03T13:26:16Z</time>
      </trkpt>
      <trkpt lat="46.06793" lon="6.31443">
        <ele>540.4</ele>
        <time>2020-04-03T13:26:17Z</time>
      </trkpt>
      <trkpt lat="46.06797" lon="6.31443">
        <ele>540.88</ele>
        <time>2020-04-03T13:26:18Z</time>
      </trkpt>
      <trkpt lat="46.06806" lon="6.31444">
        <ele>541.36</ele>
        <time>2020-04-03T13:26:19Z</time>
      </trkpt>
      <trkpt lat="46.06809" lon="6.31444">
        <ele>541.84</ele>
        <time>2020-04-03T13:26:20Z</time>
      </trkpt>
      <trkpt lat="46.06819" lon="6.31444">
        <ele>542.32</ele>
        <time>2020-04-03T13:26:21Z</time>
      </trkpt>
      <trkpt lat="46.06831" lon="6.31445">
        <ele>542.32</ele>
        <time>2020-04-03T13:26:22Z</time>
      </trkpt>
      <trkpt lat="46.06856" lon="6.31447">
        <ele>542.8</ele>
        <time>2020-04-03T13:26:24Z</time>
      </trkpt>
      <trkpt lat="46.06969" lon="6.31434">
        <ele>539.92</ele>
        <time>2020-04-03T13:26:33Z</time>
      </trkpt>
      <trkpt lat="46.07024" lon="6.31424">
        <ele>537.51</ele>
        <time>2020-04-03T13:26:39Z</time>
      </trkpt>
      <trkpt lat="46.07138" lon="6.31405">
        <ele>533.19</ele>
        <time>2020-04-03T13:26:48Z</time>
      </trkpt>
      <trkpt lat="46.07298" lon="6.31377">
        <ele>528.86</ele>
        <time>2020-04-03T13:27:00Z</time>
      </trkpt>
      <trkpt lat="46.07369" lon="6.31366">
        <ele>527.42</ele>
        <time>2020-04-03T13:27:06Z</time>
      </trkpt>
      <trkpt lat="46.07379" lon="6.31365">
        <ele>527.42</ele>
        <time>2020-04-03T13:27:07Z</time>
      </trkpt>
      <trkpt lat="46.07387" lon="6.31365">
        <ele>526.94</ele>
        <time>2020-04-03T13:27:08Z</time>
      </trkpt>
      <trkpt lat="46.07387" lon="6.31365">
        <ele>525.98</ele>
        <time>2020-04-03T13:27:09Z</time>
      </trkpt>
      <trkpt lat="46.07402" lon="6.31395">
        <ele>525.98</ele>
        <time>2020-04-03T13:27:10Z</time>
      </trkpt>
      <trkpt lat="46.07402" lon="6.31395">
        <ele>525.5</ele>
        <time>2020-04-03T13:27:11Z</time>
      </trkpt>
      <trkpt lat="46.07409" lon="6.31401">
        <ele>525.02</ele>
        <time>2020-04-03T13:27:12Z</time>
      </trkpt>
      <trkpt lat="46.0742" lon="6.31404">
        <ele>524.06</ele>
        <time>2020-04-03T13:27:13Z</time>
      </trkpt>
      <trkpt lat="46.07438" lon="6.3139">
        <ele>523.58</ele>
        <time>2020-04-03T13:27:14Z</time>
      </trkpt>
      <trkpt lat="46.07443" lon="6.31379">
        <ele>523.58</ele>
        <time>2020-04-03T13:27:15Z</time>
      </trkpt>
      <trkpt lat="46.07452" lon="6.31363">
        <ele>523.58</ele>
        <time>2020-04-03T13:27:16Z</time>
      </trkpt>
      <trkpt lat="46.07463" lon="6.31356">
        <ele>523.09</ele>
        <time>2020-04-03T13:27:17Z</time>
      </trkpt>
      <trkpt lat="46.07476" lon="6.3135">
        <ele>522.61</ele>
        <time>2020-04-03T13:27:18Z</time>
      </trkpt>
      <trkpt lat="46.0749" lon="6.31347">
        <ele>522.13</ele>
        <time>2020-04-03T13:27:19Z</time>
      </trkpt>
      <trkpt lat="46.07506" lon="6.31344">
        <ele>521.65</ele>
        <time>2020-04-03T13:27:20Z</time>
      </trkpt>
      <trkpt lat="46.07684" lon="6.31315">
        <ele>514.92</ele>
        <time>2020-04-03T13:27:31Z</time>
      </trkpt>
      <trkpt lat="46.07811" lon="6.31311">
        <ele>506.75</ele>
        <time>2020-04-03T13:27:37Z</time>
      </trkpt>
      <trkpt lat="46.08083" lon="6.31304">
        <ele>494.26</ele>
        <time>2020-04-03T13:27:50Z</time>
      </trkpt>
      <trkpt lat="46.08371" lon="6.31298">
        <ele>487.05</ele>
        <time>2020-04-03T13:28:04Z</time>
      </trkpt>
      <trkpt lat="46.08642" lon="6.31289">
        <ele>483.68</ele>
        <time>2020-04-03T13:28:18Z</time>
      </trkpt>
      <trkpt lat="46.08829" lon="6.31311">
        <ele>480.32</ele>
        <time>2020-04-03T13:28:27Z</time>
      </trkpt>
      <trkpt lat="46.09158" lon="6.31363">
        <ele>475.99</ele>
        <time>2020-04-03T13:28:43Z</time>
      </trkpt>
      <trkpt lat="46.09447" lon="6.31367">
        <ele>477.91</ele>
        <time>2020-04-03T13:28:57Z</time>
      </trkpt>
      <trkpt lat="46.09704" lon="6.31368">
        <ele>475.03</ele>
        <time>2020-04-03T13:29:09Z</time>
      </trkpt>
      <trkpt lat="46.10027" lon="6.31367">
        <ele>474.55</ele>
        <time>2020-04-03T13:29:23Z</time>
      </trkpt>
      <trkpt lat="46.10373" lon="6.31367">
        <ele>475.03</ele>
        <time>2020-04-03T13:29:38Z</time>
      </trkpt>
      <trkpt lat="46.10634" lon="6.31366">
        <ele>474.55</ele>
        <time>2020-04-03T13:29:50Z</time>
      </trkpt>
      <trkpt lat="46.10919" lon="6.31366">
        <ele>477.43</ele>
        <time>2020-04-03T13:30:03Z</time>
      </trkpt>
      <trkpt lat="46.11248" lon="6.31367">
        <ele>475.03</ele>
        <time>2020-04-03T13:30:18Z</time>
      </trkpt>
      <trkpt lat="46.11591" lon="6.31368">
        <ele>469.26</ele>
        <time>2020-04-03T13:30:34Z</time>
      </trkpt>
      <trkpt lat="46.1195" lon="6.31371">
        <ele>463.97</ele>
        <time>2020-04-03T13:30:50Z</time>
      </trkpt>
      <trkpt lat="46.12073" lon="6.31371">
        <ele>462.53</ele>
        <time>2020-04-03T13:30:58Z</time>
      </trkpt>
      <trkpt lat="46.1211" lon="6.31372">
        <ele>462.53</ele>
        <time>2020-04-03T13:31:01Z</time>
      </trkpt>
      <trkpt lat="46.1212" lon="6.31372">
        <ele>462.05</ele>
        <time>2020-04-03T13:31:02Z</time>
      </trkpt>
      <trkpt lat="46.1213" lon="6.31373">
        <ele>462.05</ele>
        <time>2020-04-03T13:31:03Z</time>
      </trkpt>
      <trkpt lat="46.12136" lon="6.31373">
        <ele>462.05</ele>
        <time>2020-04-03T13:31:04Z</time>
      </trkpt>
      <trkpt lat="46.12148" lon="6.31387">
        <ele>462.05</ele>
        <time>2020-04-03T13:31:05Z</time>
      </trkpt>
      <trkpt lat="46.12156" lon="6.31382">
        <ele>462.05</ele>
        <time>2020-04-03T13:31:06Z</time>
      </trkpt>
      <trkpt lat="46.12167" lon="6.31371">
        <ele>462.05</ele>
        <time>2020-04-03T13:31:07Z</time>
      </trkpt>
      <trkpt lat="46.12179" lon="6.31372">
        <ele>462.05</ele>
        <time>2020-04-03T13:31:08Z</time>
      </trkpt>
      <trkpt lat="46.12193" lon="6.31373">
        <ele>462.05</ele>
        <time>2020-04-03T13:31:09Z</time>
      </trkpt>
      <trkpt lat="46.12337" lon="6.31376">
        <ele>460.61</ele>
        <time>2020-04-03T13:31:17Z</time>
      </trkpt>
      <trkpt lat="46.12588" lon="6.31359">
        <ele>454.36</ele>
        <time>2020-04-03T13:31:29Z</time>
      </trkpt>
      <trkpt lat="46.12856" lon="6.31316">
        <ele>448.11</ele>
        <time>2020-04-03T13:31:41Z</time>
      </trkpt>
      <trkpt lat="46.13171" lon="6.31268">
        <ele>445.71</ele>
        <time>2020-04-03T13:31:55Z</time>
      </trkpt>
      <trkpt lat="46.13298" lon="6.31272">
        <ele>442.34</ele>
        <time>2020-04-03T13:32:02Z</time>
      </trkpt>
      <trkpt lat="46.13316" lon="6.31273">
        <ele>441.38</ele>
        <time>2020-04-03T13:32:03Z</time>
      </trkpt>
      <trkpt lat="46.135" lon="6.31195">
        <ele>438.02</ele>
        <time>2020-04-03T13:32:12Z</time>
      </trkpt>
      <trkpt lat="46.135" lon="6.31195">
        <ele>438.02</ele>
        <time>2020-04-03T13:32:13Z</time>
      </trkpt>
      <trkpt lat="46.13516" lon="6.31189">
        <ele>438.5</ele>
        <time>2020-04-03T13:32:14Z</time>
      </trkpt>
      <trkpt lat="46.13533" lon="6.31188">
        <ele>438.98</ele>
        <time>2020-04-03T13:32:15Z</time>
      </trkpt>
      <trkpt lat="46.13566" lon="6.31205">
        <ele>439.46</ele>
        <time>2020-04-03T13:32:16Z</time>
      </trkpt>
      <trkpt lat="46.13566" lon="6.31205">
        <ele>440.42</ele>
        <time>2020-04-03T13:32:17Z</time>
      </trkpt>
      <trkpt lat="46.13596" lon="6.31235">
        <ele>441.38</ele>
        <time>2020-04-03T13:32:18Z</time>
      </trkpt>
      <trkpt lat="46.13765" lon="6.31426">
        <ele>450.03</ele>
        <time>2020-04-03T13:32:30Z</time>
      </trkpt>
      <trkpt lat="46.13935" lon="6.3153">
        <ele>455.32</ele>
        <time>2020-04-03T13:32:39Z</time>
      </trkpt>
      <trkpt lat="46.1396" lon="6.31544">
        <ele>455.8</ele>
        <time>2020-04-03T13:32:42Z</time>
      </trkpt>
      <trkpt lat="46.1406" lon="6.31604">
        <ele>456.76</ele>
        <time>2020-04-03T13:32:49Z</time>
      </trkpt>
      <trkpt lat="46.14273" lon="6.31726">
        <ele>457.72</ele>
        <time>2020-04-03T13:33:01Z</time>
      </trkpt>
      <trkpt lat="46.14334" lon="6.31756">
        <ele>458.69</ele>
        <time>2020-04-03T13:33:04Z</time>
      </trkpt>
      <trkpt lat="46.14355" lon="6.31761">
        <ele>459.65</ele>
        <time>2020-04-03T13:33:05Z</time>
      </trkpt>
      <trkpt lat="46.144" lon="6.31773">
        <ele>460.13</ele>
        <time>2020-04-03T13:33:06Z</time>
      </trkpt>
      <trkpt lat="46.144" lon="6.31773">
        <ele>461.57</ele>
        <time>2020-04-03T13:33:07Z</time>
      </trkpt>
      <trkpt lat="46.14423" lon="6.31771">
        <ele>462.53</ele>
        <time>2020-04-03T13:33:08Z</time>
      </trkpt>
      <trkpt lat="46.14446" lon="6.31766">
        <ele>463.97</ele>
        <time>2020-04-03T13:33:09Z</time>
      </trkpt>
      <trkpt lat="46.14611" lon="6.31729">
        <ele>471.18</ele>
        <time>2020-04-03T13:33:15Z</time>
      </trkpt>
      <trkpt lat="46.14635" lon="6.31733">
        <ele>472.63</ele>
        <time>2020-04-03T13:33:16Z</time>
      </trkpt>
      <trkpt lat="46.14659" lon="6.31738">
        <ele>474.07</ele>
        <time>2020-04-03T13:33:17Z</time>
      </trkpt>
      <trkpt lat="46.14682" lon="6.31746">
        <ele>475.51</ele>
        <time>2020-04-03T13:33:18Z</time>
      </trkpt>
      <trkpt lat="46.14704" lon="6.31757">
        <ele>476.95</ele>
        <time>2020-04-03T13:33:19Z</time>
      </trkpt>
      <trkpt lat="46.14726" lon="6.31769">
        <ele>478.39</ele>
        <time>2020-04-03T13:33:20Z</time>
      </trkpt>
      <trkpt lat="46.14852" lon="6.31844">
        <ele>483.68</ele>
        <time>2020-04-03T13:33:27Z</time>
      </trkpt>
      <trkpt lat="46.14896" lon="6.31877">
        <ele>484.16</ele>
        <time>2020-04-03T13:33:30Z</time>
      </trkpt>
      <trkpt lat="46.14907" lon="6.31893">
        <ele>484.64</ele>
        <time>2020-04-03T13:33:31Z</time>
      </trkpt>
      <trkpt lat="46.14919" lon="6.31906">
        <ele>484.64</ele>
        <time>2020-04-03T13:33:32Z</time>
      </trkpt>
      <trkpt lat="46.14928" lon="6.31921">
        <ele>484.64</ele>
        <time>2020-04-03T13:33:33Z</time>
      </trkpt>
      <trkpt lat="46.14936" lon="6.31936">
        <ele>484.64</ele>
        <time>2020-04-03T13:33:34Z</time>
      </trkpt>
      <trkpt lat="46.14936" lon="6.31936">
        <ele>485.12</ele>
        <time>2020-04-03T13:33:35Z</time>
      </trkpt>
      <trkpt lat="46.14946" lon="6.31972">
        <ele>485.12</ele>
        <time>2020-04-03T13:33:36Z</time>
      </trkpt>
      <trkpt lat="46.14949" lon="6.31991">
        <ele>485.6</ele>
        <time>2020-04-03T13:33:37Z</time>
      </trkpt>
      <trkpt lat="46.14952" lon="6.32008">
        <ele>486.08</ele>
        <time>2020-04-03T13:33:38Z</time>
      </trkpt>
      <trkpt lat="46.14953" lon="6.32024">
        <ele>486.08</ele>
        <time>2020-04-03T13:33:39Z</time>
      </trkpt>
      <trkpt lat="46.14952" lon="6.3204">
        <ele>486.08</ele>
        <time>2020-04-03T13:33:40Z</time>
      </trkpt>
      <trkpt lat="46.14952" lon="6.32055">
        <ele>486.56</ele>
        <time>2020-04-03T13:33:41Z</time>
      </trkpt>
      <trkpt lat="46.14945" lon="6.32077">
        <ele>486.56</ele>
        <time>2020-04-03T13:33:42Z</time>
      </trkpt>
      <trkpt lat="46.14943" lon="6.32084">
        <ele>486.56</ele>
        <time>2020-04-03T13:33:43Z</time>
      </trkpt>
      <trkpt lat="46.14946" lon="6.321">
        <ele>486.56</ele>
        <time>2020-04-03T13:33:44Z</time>
      </trkpt>
      <trkpt lat="46.14957" lon="6.32137">
        <ele>487.05</ele>
        <time>2020-04-03T13:33:46Z</time>
      </trkpt>
      <trkpt lat="46.14957" lon="6.32159">
        <ele>487.05</ele>
        <time>2020-04-03T13:33:47Z</time>
      </trkpt>
      <trkpt lat="46.1496" lon="6.32347">
        <ele>488.97</ele>
        <time>2020-04-03T13:33:54Z</time>
      </trkpt>
      <trkpt lat="46.14966" lon="6.32373">
        <ele>489.45</ele>
        <time>2020-04-03T13:33:55Z</time>
      </trkpt>
      <trkpt lat="46.14973" lon="6.324">
        <ele>489.93</ele>
        <time>2020-04-03T13:33:56Z</time>
      </trkpt>
      <trkpt lat="46.15016" lon="6.32592">
        <ele>493.77</ele>
        <time>2020-04-03T13:34:03Z</time>
      </trkpt>
      <trkpt lat="46.15022" lon="6.32624">
        <ele>494.74</ele>
        <time>2020-04-03T13:34:04Z</time>
      </trkpt>
      <trkpt lat="46.1502" lon="6.32651">
        <ele>495.7</ele>
        <time>2020-04-03T13:34:05Z</time>
      </trkpt>
      <trkpt lat="46.15018" lon="6.32679">
        <ele>496.66</ele>
        <time>2020-04-03T13:34:06Z</time>
      </trkpt>
      <trkpt lat="46.15014" lon="6.32707">
        <ele>498.1</ele>
        <time>2020-04-03T13:34:07Z</time>
      </trkpt>
      <trkpt lat="46.15011" lon="6.32734">
        <ele>499.06</ele>
        <time>2020-04-03T13:34:08Z</time>
      </trkpt>
      <trkpt lat="46.14999" lon="6.32808">
        <ele>504.83</ele>
        <time>2020-04-03T13:34:12Z</time>
      </trkpt>
      <trkpt lat="46.14997" lon="6.3285">
        <ele>506.27</ele>
        <time>2020-04-03T13:34:13Z</time>
      </trkpt>
      <trkpt lat="46.14997" lon="6.3285">
        <ele>507.23</ele>
        <time>2020-04-03T13:34:14Z</time>
      </trkpt>
      <trkpt lat="46.14997" lon="6.32886">
        <ele>508.67</ele>
        <time>2020-04-03T13:34:15Z</time>
      </trkpt>
      <trkpt lat="46.15" lon="6.32902">
        <ele>510.12</ele>
        <time>2020-04-03T13:34:16Z</time>
      </trkpt>
      <trkpt lat="46.15" lon="6.32902">
        <ele>511.08</ele>
        <time>2020-04-03T13:34:17Z</time>
      </trkpt>
      <trkpt lat="46.15003" lon="6.32918">
        <ele>512.04</ele>
        <time>2020-04-03T13:34:18Z</time>
      </trkpt>
      <trkpt lat="46.15013" lon="6.32946">
        <ele>513</ele>
        <time>2020-04-03T13:34:19Z</time>
      </trkpt>
      <trkpt lat="46.15013" lon="6.32946">
        <ele>513.96</ele>
        <time>2020-04-03T13:34:20Z</time>
      </trkpt>
      <trkpt lat="46.15089" lon="6.3309">
        <ele>523.09</ele>
        <time>2020-04-03T13:34:30Z</time>
      </trkpt>
      <trkpt lat="46.15165" lon="6.33192">
        <ele>532.23</ele>
        <time>2020-04-03T13:34:39Z</time>
      </trkpt>
      <trkpt lat="46.15196" lon="6.33229">
        <ele>535.59</ele>
        <time>2020-04-03T13:34:43Z</time>
      </trkpt>
      <trkpt lat="46.15204" lon="6.33243">
        <ele>536.07</ele>
        <time>2020-04-03T13:34:44Z</time>
      </trkpt>
      <trkpt lat="46.15212" lon="6.33259">
        <ele>537.03</ele>
        <time>2020-04-03T13:34:45Z</time>
      </trkpt>
      <trkpt lat="46.15221" lon="6.33276">
        <ele>537.51</ele>
        <time>2020-04-03T13:34:46Z</time>
      </trkpt>
      <trkpt lat="46.15226" lon="6.33298">
        <ele>537.99</ele>
        <time>2020-04-03T13:34:47Z</time>
      </trkpt>
      <trkpt lat="46.1523" lon="6.33322">
        <ele>537.99</ele>
        <time>2020-04-03T13:34:48Z</time>
      </trkpt>
      <trkpt lat="46.1523" lon="6.33347">
        <ele>537.99</ele>
        <time>2020-04-03T13:34:49Z</time>
      </trkpt>
      <trkpt lat="46.15224" lon="6.33374">
        <ele>537.99</ele>
        <time>2020-04-03T13:34:50Z</time>
      </trkpt>
      <trkpt lat="46.15217" lon="6.33399">
        <ele>537.99</ele>
        <time>2020-04-03T13:34:51Z</time>
      </trkpt>
      <trkpt lat="46.15183" lon="6.33499">
        <ele>538.96</ele>
        <time>2020-04-03T13:34:56Z</time>
      </trkpt>
      <trkpt lat="46.1518" lon="6.33518">
        <ele>539.44</ele>
        <time>2020-04-03T13:34:57Z</time>
      </trkpt>
      <trkpt lat="46.15178" lon="6.33537">
        <ele>539.92</ele>
        <time>2020-04-03T13:34:58Z</time>
      </trkpt>
      <trkpt lat="46.15177" lon="6.33556">
        <ele>540.4</ele>
        <time>2020-04-03T13:34:59Z</time>
      </trkpt>
      <trkpt lat="46.15178" lon="6.33574">
        <ele>540.88</ele>
        <time>2020-04-03T13:35:00Z</time>
      </trkpt>
      <trkpt lat="46.1518" lon="6.33591">
        <ele>540.88</ele>
        <time>2020-04-03T13:35:01Z</time>
      </trkpt>
      <trkpt lat="46.15184" lon="6.33606">
        <ele>541.36</ele>
        <time>2020-04-03T13:35:02Z</time>
      </trkpt>
      <trkpt lat="46.15189" lon="6.3362">
        <ele>541.84</ele>
        <time>2020-04-03T13:35:03Z</time>
      </trkpt>
      <trkpt lat="46.15234" lon="6.33791">
        <ele>543.76</ele>
        <time>2020-04-03T13:35:13Z</time>
      </trkpt>
      <trkpt lat="46.15249" lon="6.33871">
        <ele>543.76</ele>
        <time>2020-04-03T13:35:17Z</time>
      </trkpt>
      <trkpt lat="46.15259" lon="6.33926">
        <ele>543.28</ele>
        <time>2020-04-03T13:35:19Z</time>
      </trkpt>
      <trkpt lat="46.15288" lon="6.34036">
        <ele>539.44</ele>
        <time>2020-04-03T13:35:25Z</time>
      </trkpt>
      <trkpt lat="46.15288" lon="6.34036">
        <ele>538.96</ele>
        <time>2020-04-03T13:35:26Z</time>
      </trkpt>
      <trkpt lat="46.1529" lon="6.34057">
        <ele>538.96</ele>
        <time>2020-04-03T13:35:27Z</time>
      </trkpt>
      <trkpt lat="46.15289" lon="6.34077">
        <ele>538.96</ele>
        <time>2020-04-03T13:35:28Z</time>
      </trkpt>
      <trkpt lat="46.15288" lon="6.34095">
        <ele>539.44</ele>
        <time>2020-04-03T13:35:29Z</time>
      </trkpt>
      <trkpt lat="46.15288" lon="6.34113">
        <ele>540.4</ele>
        <time>2020-04-03T13:35:30Z</time>
      </trkpt>
      <trkpt lat="46.15286" lon="6.34161">
        <ele>543.28</ele>
        <time>2020-04-03T13:35:33Z</time>
      </trkpt>
      <trkpt lat="46.15289" lon="6.34188">
        <ele>544.72</ele>
        <time>2020-04-03T13:35:34Z</time>
      </trkpt>
      <trkpt lat="46.15289" lon="6.34188">
        <ele>545.2</ele>
        <time>2020-04-03T13:35:35Z</time>
      </trkpt>
      <trkpt lat="46.15295" lon="6.34214">
        <ele>546.17</ele>
        <time>2020-04-03T13:35:36Z</time>
      </trkpt>
      <trkpt lat="46.153" lon="6.34228">
        <ele>546.65</ele>
        <time>2020-04-03T13:35:37Z</time>
      </trkpt>
      <trkpt lat="46.153" lon="6.34228">
        <ele>547.13</ele>
        <time>2020-04-03T13:35:38Z</time>
      </trkpt>
      <trkpt lat="46.15312" lon="6.34258">
        <ele>548.09</ele>
        <time>2020-04-03T13:35:39Z</time>
      </trkpt>
      <trkpt lat="46.15357" lon="6.34374">
        <ele>551.45</ele>
        <time>2020-04-03T13:35:47Z</time>
      </trkpt>
      <trkpt lat="46.15362" lon="6.34387">
        <ele>552.41</ele>
        <time>2020-04-03T13:35:48Z</time>
      </trkpt>
      <trkpt lat="46.15366" lon="6.34397">
        <ele>552.41</ele>
        <time>2020-04-03T13:35:49Z</time>
      </trkpt>
      <trkpt lat="46.15363" lon="6.34418">
        <ele>552.9</ele>
        <time>2020-04-03T13:35:50Z</time>
      </trkpt>
      <trkpt lat="46.15356" lon="6.34424">
        <ele>553.38</ele>
        <time>2020-04-03T13:35:51Z</time>
      </trkpt>
      <trkpt lat="46.15347" lon="6.34431">
        <ele>554.82</ele>
        <time>2020-04-03T13:35:52Z</time>
      </trkpt>
      <trkpt lat="46.15334" lon="6.34433">
        <ele>555.78</ele>
        <time>2020-04-03T13:35:53Z</time>
      </trkpt>
      <trkpt lat="46.15322" lon="6.3443">
        <ele>557.22</ele>
        <time>2020-04-03T13:35:54Z</time>
      </trkpt>
      <trkpt lat="46.15299" lon="6.34416">
        <ele>558.66</ele>
        <time>2020-04-03T13:35:55Z</time>
      </trkpt>
      <trkpt lat="46.15299" lon="6.34416">
        <ele>560.11</ele>
        <time>2020-04-03T13:35:56Z</time>
      </trkpt>
      <trkpt lat="46.15288" lon="6.34408">
        <ele>561.07</ele>
        <time>2020-04-03T13:35:57Z</time>
      </trkpt>
      <trkpt lat="46.1528" lon="6.344">
        <ele>562.03</ele>
        <time>2020-04-03T13:35:58Z</time>
      </trkpt>
      <trkpt lat="46.15274" lon="6.34391">
        <ele>562.99</ele>
        <time>2020-04-03T13:35:59Z</time>
      </trkpt>
      <trkpt lat="46.15268" lon="6.34384">
        <ele>562.99</ele>
        <time>2020-04-03T13:36:00Z</time>
      </trkpt>
      <trkpt lat="46.15262" lon="6.34381">
        <ele>563.47</ele>
        <time>2020-04-03T13:36:01Z</time>
      </trkpt>
      <trkpt lat="46.15258" lon="6.34381">
        <ele>563.95</ele>
        <time>2020-04-03T13:36:02Z</time>
      </trkpt>
      <trkpt lat="46.15251" lon="6.34372">
        <ele>564.43</ele>
        <time>2020-04-03T13:36:03Z</time>
      </trkpt>
      <trkpt lat="46.15247" lon="6.34365">
        <ele>564.43</ele>
        <time>2020-04-03T13:36:04Z</time>
      </trkpt>
      <trkpt lat="46.15241" lon="6.34356">
        <ele>564.43</ele>
        <time>2020-04-03T13:36:05Z</time>
      </trkpt>
      <trkpt lat="46.15213" lon="6.34307">
        <ele>564.43</ele>
        <time>2020-04-03T13:36:10Z</time>
      </trkpt>
      <trkpt lat="46.1521" lon="6.343">
        <ele>564.43</ele>
        <time>2020-04-03T13:36:11Z</time>
      </trkpt>
      <trkpt lat="46.15207" lon="6.34295">
        <ele>563.95</ele>
        <time>2020-04-03T13:36:12Z</time>
      </trkpt>
      <trkpt lat="46.15205" lon="6.34294">
        <ele>563.95</ele>
        <time>2020-04-03T13:36:13Z</time>
      </trkpt>
      <trkpt lat="46.15202" lon="6.34299">
        <ele>563.95</ele>
        <time>2020-04-03T13:36:14Z</time>
      </trkpt>
      <trkpt lat="46.15197" lon="6.34305">
        <ele>563.47</ele>
        <time>2020-04-03T13:36:15Z</time>
      </trkpt>
      <trkpt lat="46.1517" lon="6.3434">
        <ele>562.51</ele>
        <time>2020-04-03T13:36:19Z</time>
      </trkpt>
      <trkpt lat="46.15161" lon="6.34355">
        <ele>562.03</ele>
        <time>2020-04-03T13:36:20Z</time>
      </trkpt>
      <trkpt lat="46.15154" lon="6.34367">
        <ele>561.55</ele>
        <time>2020-04-03T13:36:21Z</time>
      </trkpt>
      <trkpt lat="46.15111" lon="6.34441">
        <ele>561.07</ele>
        <time>2020-04-03T13:36:27Z</time>
      </trkpt>
      <trkpt lat="46.15104" lon="6.34457">
        <ele>561.55</ele>
        <time>2020-04-03T13:36:28Z</time>
      </trkpt>
      <trkpt lat="46.1507" lon="6.34535">
        <ele>565.87</ele>
        <time>2020-04-03T13:36:33Z</time>
      </trkpt>
      <trkpt lat="46.15062" lon="6.3455">
        <ele>566.83</ele>
        <time>2020-04-03T13:36:34Z</time>
      </trkpt>
      <trkpt lat="46.15052" lon="6.34564">
        <ele>568.28</ele>
        <time>2020-04-03T13:36:35Z</time>
      </trkpt>
      <trkpt lat="46.14991" lon="6.34635">
        <ele>574.53</ele>
        <time>2020-04-03T13:36:41Z</time>
      </trkpt>
      <trkpt lat="46.14981" lon="6.34646">
        <ele>575.49</ele>
        <time>2020-04-03T13:36:42Z</time>
      </trkpt>
      <trkpt lat="46.1497" lon="6.34659">
        <ele>576.45</ele>
        <time>2020-04-03T13:36:43Z</time>
      </trkpt>
      <trkpt lat="46.14959" lon="6.3467">
        <ele>577.41</ele>
        <time>2020-04-03T13:36:44Z</time>
      </trkpt>
      <trkpt lat="46.14946" lon="6.34679">
        <ele>578.37</ele>
        <time>2020-04-03T13:36:45Z</time>
      </trkpt>
      <trkpt lat="46.14933" lon="6.34687">
        <ele>579.81</ele>
        <time>2020-04-03T13:36:46Z</time>
      </trkpt>
      <trkpt lat="46.14921" lon="6.34695">
        <ele>580.77</ele>
        <time>2020-04-03T13:36:47Z</time>
      </trkpt>
      <trkpt lat="46.14909" lon="6.34703">
        <ele>582.22</ele>
        <time>2020-04-03T13:36:48Z</time>
      </trkpt>
      <trkpt lat="46.14899" lon="6.34715">
        <ele>583.66</ele>
        <time>2020-04-03T13:36:49Z</time>
      </trkpt>
      <trkpt lat="46.14888" lon="6.3473">
        <ele>585.1</ele>
        <time>2020-04-03T13:36:50Z</time>
      </trkpt>
      <trkpt lat="46.1488" lon="6.34748">
        <ele>586.54</ele>
        <time>2020-04-03T13:36:51Z</time>
      </trkpt>
      <trkpt lat="46.14823" lon="6.34887">
        <ele>600.96</ele>
        <time>2020-04-03T13:36:59Z</time>
      </trkpt>
      <trkpt lat="46.14816" lon="6.34899">
        <ele>602.4</ele>
        <time>2020-04-03T13:37:00Z</time>
      </trkpt>
      <trkpt lat="46.14806" lon="6.3491">
        <ele>603.85</ele>
        <time>2020-04-03T13:37:01Z</time>
      </trkpt>
      <trkpt lat="46.14703" lon="6.34996">
        <ele>619.71</ele>
        <time>2020-04-03T13:37:11Z</time>
      </trkpt>
      <trkpt lat="46.14693" lon="6.35004">
        <ele>621.15</ele>
        <time>2020-04-03T13:37:12Z</time>
      </trkpt>
      <trkpt lat="46.14621" lon="6.35087">
        <ele>630.28</ele>
        <time>2020-04-03T13:37:20Z</time>
      </trkpt>
      <trkpt lat="46.14621" lon="6.35087">
        <ele>631.24</ele>
        <time>2020-04-03T13:37:21Z</time>
      </trkpt>
      <trkpt lat="46.14615" lon="6.35095">
        <ele>632.2</ele>
        <time>2020-04-03T13:37:22Z</time>
      </trkpt>
      <trkpt lat="46.14608" lon="6.35105">
        <ele>633.65</ele>
        <time>2020-04-03T13:37:23Z</time>
      </trkpt>
      <trkpt lat="46.14603" lon="6.35116">
        <ele>634.61</ele>
        <time>2020-04-03T13:37:24Z</time>
      </trkpt>
      <trkpt lat="46.146" lon="6.35129">
        <ele>635.57</ele>
        <time>2020-04-03T13:37:25Z</time>
      </trkpt>
      <trkpt lat="46.14569" lon="6.35242">
        <ele>639.89</ele>
        <time>2020-04-03T13:37:34Z</time>
      </trkpt>
      <trkpt lat="46.14559" lon="6.35282">
        <ele>640.86</ele>
        <time>2020-04-03T13:37:37Z</time>
      </trkpt>
      <trkpt lat="46.14559" lon="6.35282">
        <ele>641.34</ele>
        <time>2020-04-03T13:37:38Z</time>
      </trkpt>
      <trkpt lat="46.14556" lon="6.35294">
        <ele>641.82</ele>
        <time>2020-04-03T13:37:39Z</time>
      </trkpt>
      <trkpt lat="46.14553" lon="6.35319">
        <ele>642.78</ele>
        <time>2020-04-03T13:37:41Z</time>
      </trkpt>
      <trkpt lat="46.14553" lon="6.35331">
        <ele>643.74</ele>
        <time>2020-04-03T13:37:42Z</time>
      </trkpt>
      <trkpt lat="46.1455" lon="6.35414">
        <ele>648.55</ele>
        <time>2020-04-03T13:37:49Z</time>
      </trkpt>
      <trkpt lat="46.1455" lon="6.35422">
        <ele>649.51</ele>
        <time>2020-04-03T13:37:50Z</time>
      </trkpt>
      <trkpt lat="46.14543" lon="6.35427">
        <ele>650.47</ele>
        <time>2020-04-03T13:37:51Z</time>
      </trkpt>
      <trkpt lat="46.14539" lon="6.35427">
        <ele>651.43</ele>
        <time>2020-04-03T13:37:52Z</time>
      </trkpt>
      <trkpt lat="46.14532" lon="6.35428">
        <ele>651.91</ele>
        <time>2020-04-03T13:37:53Z</time>
      </trkpt>
      <trkpt lat="46.14426" lon="6.35429">
        <ele>657.2</ele>
        <time>2020-04-03T13:38:02Z</time>
      </trkpt>
      <trkpt lat="46.14405" lon="6.35423">
        <ele>660.08</ele>
        <time>2020-04-03T13:38:05Z</time>
      </trkpt>
      <trkpt lat="46.14395" lon="6.35421">
        <ele>661.52</ele>
        <time>2020-04-03T13:38:06Z</time>
      </trkpt>
      <trkpt lat="46.14385" lon="6.35421">
        <ele>662.49</ele>
        <time>2020-04-03T13:38:07Z</time>
      </trkpt>
      <trkpt lat="46.14285" lon="6.35449">
        <ele>665.85</ele>
        <time>2020-04-03T13:38:16Z</time>
      </trkpt>
      <trkpt lat="46.14238" lon="6.35464">
        <ele>665.85</ele>
        <time>2020-04-03T13:38:19Z</time>
      </trkpt>
      <trkpt lat="46.14116" lon="6.35515">
        <ele>670.18</ele>
        <time>2020-04-03T13:38:30Z</time>
      </trkpt>
      <trkpt lat="46.14005" lon="6.35577">
        <ele>675.94</ele>
        <time>2020-04-03T13:38:39Z</time>
      </trkpt>
      <trkpt lat="46.13888" lon="6.35596">
        <ele>682.19</ele>
        <time>2020-04-03T13:38:48Z</time>
      </trkpt>
      <trkpt lat="46.13835" lon="6.35599">
        <ele>684.12</ele>
        <time>2020-04-03T13:38:52Z</time>
      </trkpt>
      <trkpt lat="46.13822" lon="6.35601">
        <ele>685.08</ele>
        <time>2020-04-03T13:38:53Z</time>
      </trkpt>
      <trkpt lat="46.13697" lon="6.35676">
        <ele>690.84</ele>
        <time>2020-04-03T13:39:01Z</time>
      </trkpt>
      <trkpt lat="46.13697" lon="6.35676">
        <ele>691.33</ele>
        <time>2020-04-03T13:39:02Z</time>
      </trkpt>
      <trkpt lat="46.13643" lon="6.35691">
        <ele>693.25</ele>
        <time>2020-04-03T13:39:05Z</time>
      </trkpt>
      <trkpt lat="46.13625" lon="6.35695">
        <ele>693.25</ele>
        <time>2020-04-03T13:39:06Z</time>
      </trkpt>
      <trkpt lat="46.13608" lon="6.35706">
        <ele>693.73</ele>
        <time>2020-04-03T13:39:07Z</time>
      </trkpt>
      <trkpt lat="46.13591" lon="6.35719">
        <ele>693.73</ele>
        <time>2020-04-03T13:39:08Z</time>
      </trkpt>
      <trkpt lat="46.13574" lon="6.35732">
        <ele>693.73</ele>
        <time>2020-04-03T13:39:09Z</time>
      </trkpt>
      <trkpt lat="46.13555" lon="6.35743">
        <ele>694.21</ele>
        <time>2020-04-03T13:39:10Z</time>
      </trkpt>
      <trkpt lat="46.13534" lon="6.35751">
        <ele>694.21</ele>
        <time>2020-04-03T13:39:11Z</time>
      </trkpt>
      <trkpt lat="46.13454" lon="6.35785">
        <ele>695.65</ele>
        <time>2020-04-03T13:39:15Z</time>
      </trkpt>
      <trkpt lat="46.13435" lon="6.35793">
        <ele>695.65</ele>
        <time>2020-04-03T13:39:16Z</time>
      </trkpt>
      <trkpt lat="46.13414" lon="6.35796">
        <ele>695.65</ele>
        <time>2020-04-03T13:39:17Z</time>
      </trkpt>
      <trkpt lat="46.1324" lon="6.35827">
        <ele>694.21</ele>
        <time>2020-04-03T13:39:25Z</time>
      </trkpt>
      <trkpt lat="46.13105" lon="6.35877">
        <ele>693.25</ele>
        <time>2020-04-03T13:39:31Z</time>
      </trkpt>
      <trkpt lat="46.13088" lon="6.35891">
        <ele>693.73</ele>
        <time>2020-04-03T13:39:33Z</time>
      </trkpt>
      <trkpt lat="46.12963" lon="6.35994">
        <ele>695.17</ele>
        <time>2020-04-03T13:39:40Z</time>
      </trkpt>
      <trkpt lat="46.12935" lon="6.36019">
        <ele>696.13</ele>
        <time>2020-04-03T13:39:42Z</time>
      </trkpt>
      <trkpt lat="46.12921" lon="6.36032">
        <ele>696.13</ele>
        <time>2020-04-03T13:39:43Z</time>
      </trkpt>
      <trkpt lat="46.12909" lon="6.36049">
        <ele>696.13</ele>
        <time>2020-04-03T13:39:44Z</time>
      </trkpt>
      <trkpt lat="46.12824" lon="6.36185">
        <ele>695.65</ele>
        <time>2020-04-03T13:39:51Z</time>
      </trkpt>
      <trkpt lat="46.12816" lon="6.36199">
        <ele>695.17</ele>
        <time>2020-04-03T13:39:52Z</time>
      </trkpt>
      <trkpt lat="46.12808" lon="6.3621">
        <ele>695.17</ele>
        <time>2020-04-03T13:39:53Z</time>
      </trkpt>
      <trkpt lat="46.12801" lon="6.36217">
        <ele>694.69</ele>
        <time>2020-04-03T13:39:54Z</time>
      </trkpt>
      <trkpt lat="46.12796" lon="6.36224">
        <ele>694.69</ele>
        <time>2020-04-03T13:39:55Z</time>
      </trkpt>
      <trkpt lat="46.12787" lon="6.36227">
        <ele>694.69</ele>
        <time>2020-04-03T13:39:56Z</time>
      </trkpt>
      <trkpt lat="46.12782" lon="6.36222">
        <ele>694.69</ele>
        <time>2020-04-03T13:39:57Z</time>
      </trkpt>
      <trkpt lat="46.12775" lon="6.36215">
        <ele>694.21</ele>
        <time>2020-04-03T13:39:58Z</time>
      </trkpt>
      <trkpt lat="46.12765" lon="6.36206">
        <ele>694.21</ele>
        <time>2020-04-03T13:39:59Z</time>
      </trkpt>
      <trkpt lat="46.12738" lon="6.36181">
        <ele>693.73</ele>
        <time>2020-04-03T13:40:00Z</time>
      </trkpt>
      <trkpt lat="46.12722" lon="6.3617">
        <ele>693.25</ele>
        <time>2020-04-03T13:40:01Z</time>
      </trkpt>
      <trkpt lat="46.12722" lon="6.3617">
        <ele>692.77</ele>
        <time>2020-04-03T13:40:02Z</time>
      </trkpt>
      <trkpt lat="46.12705" lon="6.36159">
        <ele>691.81</ele>
        <time>2020-04-03T13:40:03Z</time>
      </trkpt>
      <trkpt lat="46.12686" lon="6.36154">
        <ele>691.33</ele>
        <time>2020-04-03T13:40:04Z</time>
      </trkpt>
      <trkpt lat="46.12668" lon="6.36149">
        <ele>690.36</ele>
        <time>2020-04-03T13:40:05Z</time>
      </trkpt>
      <trkpt lat="46.1265" lon="6.36146">
        <ele>689.88</ele>
        <time>2020-04-03T13:40:06Z</time>
      </trkpt>
      <trkpt lat="46.12528" lon="6.36143">
        <ele>683.15</ele>
        <time>2020-04-03T13:40:14Z</time>
      </trkpt>
      <trkpt lat="46.12407" lon="6.36129">
        <ele>677.87</ele>
        <time>2020-04-03T13:40:24Z</time>
      </trkpt>
      <trkpt lat="46.12398" lon="6.36128">
        <ele>677.39</ele>
        <time>2020-04-03T13:40:25Z</time>
      </trkpt>
      <trkpt lat="46.1239" lon="6.36125">
        <ele>676.91</ele>
        <time>2020-04-03T13:40:26Z</time>
      </trkpt>
      <trkpt lat="46.12384" lon="6.36123">
        <ele>676.42</ele>
        <time>2020-04-03T13:40:27Z</time>
      </trkpt>
      <trkpt lat="46.12375" lon="6.36118">
        <ele>675.46</ele>
        <time>2020-04-03T13:40:28Z</time>
      </trkpt>
      <trkpt lat="46.12375" lon="6.36118">
        <ele>674.5</ele>
        <time>2020-04-03T13:40:29Z</time>
      </trkpt>
      <trkpt lat="46.12373" lon="6.36117">
        <ele>674.02</ele>
        <time>2020-04-03T13:40:30Z</time>
      </trkpt>
      <trkpt lat="46.12371" lon="6.36116">
        <ele>673.06</ele>
        <time>2020-04-03T13:40:31Z</time>
      </trkpt>
      <trkpt lat="46.1238" lon="6.36121">
        <ele>669.7</ele>
        <time>2020-04-03T13:40:37Z</time>
      </trkpt>
      <trkpt lat="46.1238" lon="6.36121">
        <ele>669.7</ele>
        <time>2020-04-03T13:40:38Z</time>
      </trkpt>
      <trkpt lat="46.1238" lon="6.36121">
        <ele>669.22</ele>
        <time>2020-04-03T13:40:39Z</time>
      </trkpt>
      <trkpt lat="46.1238" lon="6.36121">
        <ele>669.22</ele>
        <time>2020-04-03T13:40:50Z</time>
      </trkpt>
      <trkpt lat="46.12392" lon="6.36105">
        <ele>661.52</ele>
        <time>2020-04-03T13:52:55Z</time>
      </trkpt>
      <trkpt lat="46.1238" lon="6.36121">
        <ele>672.1</ele>
        <time>2020-04-03T13:53:03Z</time>
      </trkpt>
      <trkpt lat="46.12373" lon="6.36117">
        <ele>672.58</ele>
        <time>2020-04-03T13:53:04Z</time>
      </trkpt>
      <trkpt lat="46.12372" lon="6.36116">
        <ele>672.58</ele>
        <time>2020-04-03T13:53:05Z</time>
      </trkpt>
      <trkpt lat="46.1238" lon="6.36121">
        <ele>673.06</ele>
        <time>2020-04-03T13:53:06Z</time>
      </trkpt>
      <trkpt lat="46.1238" lon="6.36121">
        <ele>673.54</ele>
        <time>2020-04-03T13:53:07Z</time>
      </trkpt>
      <trkpt lat="46.1238" lon="6.36121">
        <ele>673.54</ele>
        <time>2020-04-03T13:53:08Z</time>
      </trkpt>
      <trkpt lat="46.1238" lon="6.36121">
        <ele>673.54</ele>
        <time>2020-04-03T13:53:09Z</time>
      </trkpt>
      <trkpt lat="46.12373" lon="6.36117">
        <ele>674.02</ele>
        <time>2020-04-03T13:53:12Z</time>
      </trkpt>
      <trkpt lat="46.12371" lon="6.36115">
        <ele>674.02</ele>
        <time>2020-04-03T13:53:13Z</time>
      </trkpt>
      <trkpt lat="46.12366" lon="6.36112">
        <ele>674.02</ele>
        <time>2020-04-03T13:53:14Z</time>
      </trkpt>
      <trkpt lat="46.12359" lon="6.36108">
        <ele>674.02</ele>
        <time>2020-04-03T13:53:15Z</time>
      </trkpt>
      <trkpt lat="46.12351" lon="6.36103">
        <ele>674.02</ele>
        <time>2020-04-03T13:53:16Z</time>
      </trkpt>
      <trkpt lat="46.12293" lon="6.36061">
        <ele>671.62</ele>
        <time>2020-04-03T13:53:24Z</time>
      </trkpt>
      <trkpt lat="46.12198" lon="6.35988">
        <ele>665.37</ele>
        <time>2020-04-03T13:53:34Z</time>
      </trkpt>
      <trkpt lat="46.12083" lon="6.359">
        <ele>658.16</ele>
        <time>2020-04-03T13:53:46Z</time>
      </trkpt>
      <trkpt lat="46.12004" lon="6.35835">
        <ele>653.35</ele>
        <time>2020-04-03T13:53:56Z</time>
      </trkpt>
      <trkpt lat="46.11947" lon="6.35806">
        <ele>649.99</ele>
        <time>2020-04-03T13:54:02Z</time>
      </trkpt>
      <trkpt lat="46.11885" lon="6.35787">
        <ele>646.14</ele>
        <time>2020-04-03T13:54:10Z</time>
      </trkpt>
      <trkpt lat="46.11802" lon="6.35765">
        <ele>643.26</ele>
        <time>2020-04-03T13:54:19Z</time>
      </trkpt>
      <trkpt lat="46.1179" lon="6.35765">
        <ele>642.78</ele>
        <time>2020-04-03T13:54:20Z</time>
      </trkpt>
      <trkpt lat="46.11779" lon="6.35768">
        <ele>642.3</ele>
        <time>2020-04-03T13:54:21Z</time>
      </trkpt>
      <trkpt lat="46.11768" lon="6.35775">
        <ele>641.82</ele>
        <time>2020-04-03T13:54:22Z</time>
      </trkpt>
      <trkpt lat="46.11757" lon="6.35782">
        <ele>641.34</ele>
        <time>2020-04-03T13:54:23Z</time>
      </trkpt>
      <trkpt lat="46.11746" lon="6.35791">
        <ele>640.86</ele>
        <time>2020-04-03T13:54:24Z</time>
      </trkpt>
      <trkpt lat="46.11724" lon="6.35804">
        <ele>638.93</ele>
        <time>2020-04-03T13:54:26Z</time>
      </trkpt>
      <trkpt lat="46.11713" lon="6.35806">
        <ele>637.97</ele>
        <time>2020-04-03T13:54:27Z</time>
      </trkpt>
      <trkpt lat="46.11702" lon="6.35806">
        <ele>637.01</ele>
        <time>2020-04-03T13:54:28Z</time>
      </trkpt>
      <trkpt lat="46.11691" lon="6.358">
        <ele>636.05</ele>
        <time>2020-04-03T13:54:29Z</time>
      </trkpt>
      <trkpt lat="46.11679" lon="6.35792">
        <ele>635.09</ele>
        <time>2020-04-03T13:54:30Z</time>
      </trkpt>
      <trkpt lat="46.11668" lon="6.35778">
        <ele>634.13</ele>
        <time>2020-04-03T13:54:31Z</time>
      </trkpt>
      <trkpt lat="46.11657" lon="6.35762">
        <ele>633.17</ele>
        <time>2020-04-03T13:54:32Z</time>
      </trkpt>
      <trkpt lat="46.11625" lon="6.35716">
        <ele>630.28</ele>
        <time>2020-04-03T13:54:35Z</time>
      </trkpt>
      <trkpt lat="46.11615" lon="6.35703">
        <ele>629.8</ele>
        <time>2020-04-03T13:54:36Z</time>
      </trkpt>
      <trkpt lat="46.11604" lon="6.35693">
        <ele>628.84</ele>
        <time>2020-04-03T13:54:37Z</time>
      </trkpt>
      <trkpt lat="46.11594" lon="6.35686">
        <ele>628.36</ele>
        <time>2020-04-03T13:54:38Z</time>
      </trkpt>
      <trkpt lat="46.11584" lon="6.35684">
        <ele>627.88</ele>
        <time>2020-04-03T13:54:39Z</time>
      </trkpt>
      <trkpt lat="46.11574" lon="6.35685">
        <ele>627.4</ele>
        <time>2020-04-03T13:54:40Z</time>
      </trkpt>
      <trkpt lat="46.11566" lon="6.3569">
        <ele>626.92</ele>
        <time>2020-04-03T13:54:41Z</time>
      </trkpt>
      <trkpt lat="46.11558" lon="6.357">
        <ele>626.44</ele>
        <time>2020-04-03T13:54:42Z</time>
      </trkpt>
      <trkpt lat="46.11552" lon="6.35707">
        <ele>625.47</ele>
        <time>2020-04-03T13:54:43Z</time>
      </trkpt>
      <trkpt lat="46.11551" lon="6.35724">
        <ele>624.99</ele>
        <time>2020-04-03T13:54:44Z</time>
      </trkpt>
      <trkpt lat="46.1155" lon="6.3574">
        <ele>624.51</ele>
        <time>2020-04-03T13:54:45Z</time>
      </trkpt>
      <trkpt lat="46.11552" lon="6.35754">
        <ele>624.03</ele>
        <time>2020-04-03T13:54:46Z</time>
      </trkpt>
      <trkpt lat="46.11557" lon="6.35772">
        <ele>623.55</ele>
        <time>2020-04-03T13:54:47Z</time>
      </trkpt>
      <trkpt lat="46.11561" lon="6.35792">
        <ele>622.59</ele>
        <time>2020-04-03T13:54:48Z</time>
      </trkpt>
      <trkpt lat="46.11563" lon="6.35813">
        <ele>621.63</ele>
        <time>2020-04-03T13:54:49Z</time>
      </trkpt>
      <trkpt lat="46.11566" lon="6.35835">
        <ele>620.67</ele>
        <time>2020-04-03T13:54:50Z</time>
      </trkpt>
      <trkpt lat="46.1157" lon="6.35856">
        <ele>620.19</ele>
        <time>2020-04-03T13:54:51Z</time>
      </trkpt>
      <trkpt lat="46.11577" lon="6.35879">
        <ele>619.23</ele>
        <time>2020-04-03T13:54:52Z</time>
      </trkpt>
      <trkpt lat="46.11597" lon="6.35956">
        <ele>615.38</ele>
        <time>2020-04-03T13:54:56Z</time>
      </trkpt>
      <trkpt lat="46.11597" lon="6.35971">
        <ele>614.42</ele>
        <time>2020-04-03T13:54:57Z</time>
      </trkpt>
      <trkpt lat="46.11593" lon="6.35984">
        <ele>613.46</ele>
        <time>2020-04-03T13:54:58Z</time>
      </trkpt>
      <trkpt lat="46.11586" lon="6.35996">
        <ele>612.5</ele>
        <time>2020-04-03T13:54:59Z</time>
      </trkpt>
      <trkpt lat="46.11577" lon="6.36009">
        <ele>611.54</ele>
        <time>2020-04-03T13:55:00Z</time>
      </trkpt>
      <trkpt lat="46.11569" lon="6.36022">
        <ele>611.06</ele>
        <time>2020-04-03T13:55:01Z</time>
      </trkpt>
      <trkpt lat="46.11561" lon="6.36031">
        <ele>610.09</ele>
        <time>2020-04-03T13:55:02Z</time>
      </trkpt>
      <trkpt lat="46.1155" lon="6.36038">
        <ele>609.61</ele>
        <time>2020-04-03T13:55:03Z</time>
      </trkpt>
      <trkpt lat="46.11535" lon="6.36046">
        <ele>609.13</ele>
        <time>2020-04-03T13:55:04Z</time>
      </trkpt>
      <trkpt lat="46.11523" lon="6.36047">
        <ele>608.65</ele>
        <time>2020-04-03T13:55:05Z</time>
      </trkpt>
      <trkpt lat="46.11509" lon="6.36048">
        <ele>608.17</ele>
        <time>2020-04-03T13:55:06Z</time>
      </trkpt>
      <trkpt lat="46.11496" lon="6.36047">
        <ele>607.69</ele>
        <time>2020-04-03T13:55:07Z</time>
      </trkpt>
      <trkpt lat="46.11461" lon="6.36011">
        <ele>607.21</ele>
        <time>2020-04-03T13:55:10Z</time>
      </trkpt>
      <trkpt lat="46.11449" lon="6.35995">
        <ele>607.21</ele>
        <time>2020-04-03T13:55:11Z</time>
      </trkpt>
      <trkpt lat="46.11417" lon="6.35954">
        <ele>606.25</ele>
        <time>2020-04-03T13:55:14Z</time>
      </trkpt>
      <trkpt lat="46.11404" lon="6.35948">
        <ele>606.25</ele>
        <time>2020-04-03T13:55:15Z</time>
      </trkpt>
      <trkpt lat="46.11391" lon="6.35941">
        <ele>605.77</ele>
        <time>2020-04-03T13:55:16Z</time>
      </trkpt>
      <trkpt lat="46.11376" lon="6.35939">
        <ele>605.29</ele>
        <time>2020-04-03T13:55:17Z</time>
      </trkpt>
      <trkpt lat="46.1136" lon="6.35939">
        <ele>604.33</ele>
        <time>2020-04-03T13:55:18Z</time>
      </trkpt>
      <trkpt lat="46.11344" lon="6.3594">
        <ele>603.36</ele>
        <time>2020-04-03T13:55:19Z</time>
      </trkpt>
      <trkpt lat="46.11328" lon="6.35947">
        <ele>602.4</ele>
        <time>2020-04-03T13:55:20Z</time>
      </trkpt>
      <trkpt lat="46.11312" lon="6.35955">
        <ele>601.44</ele>
        <time>2020-04-03T13:55:21Z</time>
      </trkpt>
      <trkpt lat="46.11295" lon="6.35962">
        <ele>600.48</ele>
        <time>2020-04-03T13:55:22Z</time>
      </trkpt>
      <trkpt lat="46.1125" lon="6.35983">
        <ele>598.56</ele>
        <time>2020-04-03T13:55:25Z</time>
      </trkpt>
      <trkpt lat="46.11236" lon="6.35986">
        <ele>597.6</ele>
        <time>2020-04-03T13:55:26Z</time>
      </trkpt>
      <trkpt lat="46.11221" lon="6.35986">
        <ele>596.64</ele>
        <time>2020-04-03T13:55:27Z</time>
      </trkpt>
      <trkpt lat="46.11204" lon="6.35986">
        <ele>595.67</ele>
        <time>2020-04-03T13:55:28Z</time>
      </trkpt>
      <trkpt lat="46.11187" lon="6.35989">
        <ele>594.23</ele>
        <time>2020-04-03T13:55:29Z</time>
      </trkpt>
      <trkpt lat="46.11134" lon="6.36002">
        <ele>590.87</ele>
        <time>2020-04-03T13:55:32Z</time>
      </trkpt>
      <trkpt lat="46.11118" lon="6.36005">
        <ele>589.91</ele>
        <time>2020-04-03T13:55:33Z</time>
      </trkpt>
      <trkpt lat="46.11104" lon="6.36003">
        <ele>588.95</ele>
        <time>2020-04-03T13:55:34Z</time>
      </trkpt>
      <trkpt lat="46.11091" lon="6.36002">
        <ele>588.46</ele>
        <time>2020-04-03T13:55:35Z</time>
      </trkpt>
      <trkpt lat="46.1108" lon="6.36005">
        <ele>587.5</ele>
        <time>2020-04-03T13:55:36Z</time>
      </trkpt>
      <trkpt lat="46.11067" lon="6.3601">
        <ele>587.02</ele>
        <time>2020-04-03T13:55:37Z</time>
      </trkpt>
      <trkpt lat="46.11059" lon="6.36022">
        <ele>587.02</ele>
        <time>2020-04-03T13:55:38Z</time>
      </trkpt>
      <trkpt lat="46.11049" lon="6.36036">
        <ele>586.54</ele>
        <time>2020-04-03T13:55:39Z</time>
      </trkpt>
      <trkpt lat="46.11039" lon="6.36051">
        <ele>586.06</ele>
        <time>2020-04-03T13:55:40Z</time>
      </trkpt>
      <trkpt lat="46.11031" lon="6.36063">
        <ele>585.58</ele>
        <time>2020-04-03T13:55:41Z</time>
      </trkpt>
      <trkpt lat="46.11019" lon="6.36072">
        <ele>585.58</ele>
        <time>2020-04-03T13:55:42Z</time>
      </trkpt>
      <trkpt lat="46.11007" lon="6.36081">
        <ele>585.1</ele>
        <time>2020-04-03T13:55:43Z</time>
      </trkpt>
      <trkpt lat="46.10997" lon="6.36082">
        <ele>584.62</ele>
        <time>2020-04-03T13:55:44Z</time>
      </trkpt>
      <trkpt lat="46.10984" lon="6.36085">
        <ele>584.14</ele>
        <time>2020-04-03T13:55:45Z</time>
      </trkpt>
      <trkpt lat="46.1097" lon="6.36087">
        <ele>583.66</ele>
        <time>2020-04-03T13:55:46Z</time>
      </trkpt>
      <trkpt lat="46.10956" lon="6.36091">
        <ele>583.18</ele>
        <time>2020-04-03T13:55:47Z</time>
      </trkpt>
      <trkpt lat="46.10945" lon="6.36104">
        <ele>582.7</ele>
        <time>2020-04-03T13:55:48Z</time>
      </trkpt>
      <trkpt lat="46.10932" lon="6.36118">
        <ele>582.22</ele>
        <time>2020-04-03T13:55:49Z</time>
      </trkpt>
      <trkpt lat="46.1092" lon="6.36132">
        <ele>581.73</ele>
        <time>2020-04-03T13:55:50Z</time>
      </trkpt>
      <trkpt lat="46.10908" lon="6.36145">
        <ele>581.73</ele>
        <time>2020-04-03T13:55:51Z</time>
      </trkpt>
      <trkpt lat="46.10893" lon="6.36155">
        <ele>580.77</ele>
        <time>2020-04-03T13:55:52Z</time>
      </trkpt>
      <trkpt lat="46.10876" lon="6.36161">
        <ele>580.29</ele>
        <time>2020-04-03T13:55:53Z</time>
      </trkpt>
      <trkpt lat="46.10859" lon="6.36163">
        <ele>579.81</ele>
        <time>2020-04-03T13:55:54Z</time>
      </trkpt>
      <trkpt lat="46.10841" lon="6.36165">
        <ele>579.33</ele>
        <time>2020-04-03T13:55:55Z</time>
      </trkpt>
      <trkpt lat="46.10799" lon="6.3617">
        <ele>576.93</ele>
        <time>2020-04-03T13:55:58Z</time>
      </trkpt>
      <trkpt lat="46.10788" lon="6.36174">
        <ele>576.45</ele>
        <time>2020-04-03T13:55:59Z</time>
      </trkpt>
      <trkpt lat="46.10779" lon="6.36186">
        <ele>575.97</ele>
        <time>2020-04-03T13:56:00Z</time>
      </trkpt>
      <trkpt lat="46.1077" lon="6.36201">
        <ele>575.49</ele>
        <time>2020-04-03T13:56:01Z</time>
      </trkpt>
      <trkpt lat="46.10762" lon="6.3622">
        <ele>575.01</ele>
        <time>2020-04-03T13:56:02Z</time>
      </trkpt>
      <trkpt lat="46.10753" lon="6.36238">
        <ele>574.53</ele>
        <time>2020-04-03T13:56:03Z</time>
      </trkpt>
      <trkpt lat="46.10745" lon="6.36253">
        <ele>574.04</ele>
        <time>2020-04-03T13:56:04Z</time>
      </trkpt>
      <trkpt lat="46.10734" lon="6.36262">
        <ele>573.08</ele>
        <time>2020-04-03T13:56:05Z</time>
      </trkpt>
      <trkpt lat="46.10724" lon="6.36271">
        <ele>573.08</ele>
        <time>2020-04-03T13:56:06Z</time>
      </trkpt>
      <trkpt lat="46.10712" lon="6.36273">
        <ele>572.6</ele>
        <time>2020-04-03T13:56:07Z</time>
      </trkpt>
      <trkpt lat="46.107" lon="6.36272">
        <ele>572.6</ele>
        <time>2020-04-03T13:56:08Z</time>
      </trkpt>
      <trkpt lat="46.10688" lon="6.36267">
        <ele>572.6</ele>
        <time>2020-04-03T13:56:09Z</time>
      </trkpt>
      <trkpt lat="46.10676" lon="6.36262">
        <ele>573.08</ele>
        <time>2020-04-03T13:56:10Z</time>
      </trkpt>
      <trkpt lat="46.10665" lon="6.36257">
        <ele>573.08</ele>
        <time>2020-04-03T13:56:11Z</time>
      </trkpt>
      <trkpt lat="46.10653" lon="6.36255">
        <ele>573.08</ele>
        <time>2020-04-03T13:56:12Z</time>
      </trkpt>
      <trkpt lat="46.1064" lon="6.36259">
        <ele>573.08</ele>
        <time>2020-04-03T13:56:13Z</time>
      </trkpt>
      <trkpt lat="46.10626" lon="6.36268">
        <ele>573.56</ele>
        <time>2020-04-03T13:56:14Z</time>
      </trkpt>
      <trkpt lat="46.10611" lon="6.36278">
        <ele>573.08</ele>
        <time>2020-04-03T13:56:15Z</time>
      </trkpt>
      <trkpt lat="46.10597" lon="6.36292">
        <ele>573.08</ele>
        <time>2020-04-03T13:56:16Z</time>
      </trkpt>
      <trkpt lat="46.10581" lon="6.36307">
        <ele>573.08</ele>
        <time>2020-04-03T13:56:17Z</time>
      </trkpt>
      <trkpt lat="46.10566" lon="6.36322">
        <ele>573.08</ele>
        <time>2020-04-03T13:56:18Z</time>
      </trkpt>
      <trkpt lat="46.1055" lon="6.36338">
        <ele>572.6</ele>
        <time>2020-04-03T13:56:19Z</time>
      </trkpt>
      <trkpt lat="46.10518" lon="6.36367">
        <ele>572.12</ele>
        <time>2020-04-03T13:56:21Z</time>
      </trkpt>
      <trkpt lat="46.10502" lon="6.36375">
        <ele>572.12</ele>
        <time>2020-04-03T13:56:22Z</time>
      </trkpt>
      <trkpt lat="46.10457" lon="6.36398">
        <ele>572.12</ele>
        <time>2020-04-03T13:56:25Z</time>
      </trkpt>
      <trkpt lat="46.10446" lon="6.36411">
        <ele>572.12</ele>
        <time>2020-04-03T13:56:26Z</time>
      </trkpt>
      <trkpt lat="46.10435" lon="6.36429">
        <ele>572.12</ele>
        <time>2020-04-03T13:56:27Z</time>
      </trkpt>
      <trkpt lat="46.10422" lon="6.36447">
        <ele>572.12</ele>
        <time>2020-04-03T13:56:28Z</time>
      </trkpt>
      <trkpt lat="46.10408" lon="6.36466">
        <ele>571.64</ele>
        <time>2020-04-03T13:56:29Z</time>
      </trkpt>
      <trkpt lat="46.10393" lon="6.36486">
        <ele>570.68</ele>
        <time>2020-04-03T13:56:30Z</time>
      </trkpt>
      <trkpt lat="46.10375" lon="6.36502">
        <ele>570.68</ele>
        <time>2020-04-03T13:56:31Z</time>
      </trkpt>
      <trkpt lat="46.10358" lon="6.36518">
        <ele>569.72</ele>
        <time>2020-04-03T13:56:32Z</time>
      </trkpt>
      <trkpt lat="46.10159" lon="6.36679">
        <ele>559.62</ele>
        <time>2020-04-03T13:56:43Z</time>
      </trkpt>
      <trkpt lat="46.10013" lon="6.36833">
        <ele>553.86</ele>
        <time>2020-04-03T13:56:52Z</time>
      </trkpt>
      <trkpt lat="46.09982" lon="6.36863">
        <ele>552.41</ele>
        <time>2020-04-03T13:56:54Z</time>
      </trkpt>
      <trkpt lat="46.0988" lon="6.36923">
        <ele>547.61</ele>
        <time>2020-04-03T13:57:00Z</time>
      </trkpt>
      <trkpt lat="46.09864" lon="6.36924">
        <ele>546.65</ele>
        <time>2020-04-03T13:57:01Z</time>
      </trkpt>
      <trkpt lat="46.09848" lon="6.36926">
        <ele>545.69</ele>
        <time>2020-04-03T13:57:02Z</time>
      </trkpt>
      <trkpt lat="46.09805" lon="6.36933">
        <ele>542.32</ele>
        <time>2020-04-03T13:57:05Z</time>
      </trkpt>
      <trkpt lat="46.09794" lon="6.36939">
        <ele>541.84</ele>
        <time>2020-04-03T13:57:06Z</time>
      </trkpt>
      <trkpt lat="46.09785" lon="6.36951">
        <ele>540.88</ele>
        <time>2020-04-03T13:57:07Z</time>
      </trkpt>
      <trkpt lat="46.09777" lon="6.36966">
        <ele>539.92</ele>
        <time>2020-04-03T13:57:08Z</time>
      </trkpt>
      <trkpt lat="46.09768" lon="6.36984">
        <ele>538.48</ele>
        <time>2020-04-03T13:57:09Z</time>
      </trkpt>
      <trkpt lat="46.09687" lon="6.37138">
        <ele>530.79</ele>
        <time>2020-04-03T13:57:18Z</time>
      </trkpt>
      <trkpt lat="46.09676" lon="6.37148">
        <ele>529.82</ele>
        <time>2020-04-03T13:57:19Z</time>
      </trkpt>
      <trkpt lat="46.09664" lon="6.37158">
        <ele>528.86</ele>
        <time>2020-04-03T13:57:20Z</time>
      </trkpt>
      <trkpt lat="46.09624" lon="6.37186">
        <ele>526.46</ele>
        <time>2020-04-03T13:57:25Z</time>
      </trkpt>
      <trkpt lat="46.09551" lon="6.37234">
        <ele>524.06</ele>
        <time>2020-04-03T13:57:33Z</time>
      </trkpt>
      <trkpt lat="46.09531" lon="6.37247">
        <ele>523.09</ele>
        <time>2020-04-03T13:57:35Z</time>
      </trkpt>
      <trkpt lat="46.09523" lon="6.37256">
        <ele>523.09</ele>
        <time>2020-04-03T13:57:36Z</time>
      </trkpt>
      <trkpt lat="46.09514" lon="6.37265">
        <ele>522.61</ele>
        <time>2020-04-03T13:57:37Z</time>
      </trkpt>
      <trkpt lat="46.09419" lon="6.37377">
        <ele>514.92</ele>
        <time>2020-04-03T13:57:49Z</time>
      </trkpt>
      <trkpt lat="46.09412" lon="6.37387">
        <ele>514.92</ele>
        <time>2020-04-03T13:57:50Z</time>
      </trkpt>
      <trkpt lat="46.0939" lon="6.37425">
        <ele>514.44</ele>
        <time>2020-04-03T13:57:53Z</time>
      </trkpt>
      <trkpt lat="46.09332" lon="6.37553">
        <ele>510.12</ele>
        <time>2020-04-03T13:58:02Z</time>
      </trkpt>
      <trkpt lat="46.09315" lon="6.37577">
        <ele>508.19</ele>
        <time>2020-04-03T13:58:04Z</time>
      </trkpt>
      <trkpt lat="46.09263" lon="6.37641">
        <ele>506.27</ele>
        <time>2020-04-03T13:58:10Z</time>
      </trkpt>
      <trkpt lat="46.09217" lon="6.37728">
        <ele>502.43</ele>
        <time>2020-04-03T13:58:18Z</time>
      </trkpt>
      <trkpt lat="46.09144" lon="6.37868">
        <ele>500.02</ele>
        <time>2020-04-03T13:58:25Z</time>
      </trkpt>
      <trkpt lat="46.0905" lon="6.38033">
        <ele>496.18</ele>
        <time>2020-04-03T13:58:33Z</time>
      </trkpt>
      <trkpt lat="46.09021" lon="6.38089">
        <ele>495.22</ele>
        <time>2020-04-03T13:58:36Z</time>
      </trkpt>
      <trkpt lat="46.09016" lon="6.38108">
        <ele>495.22</ele>
        <time>2020-04-03T13:58:37Z</time>
      </trkpt>
      <trkpt lat="46.09011" lon="6.38132">
        <ele>494.74</ele>
        <time>2020-04-03T13:58:38Z</time>
      </trkpt>
      <trkpt lat="46.09007" lon="6.38155">
        <ele>494.74</ele>
        <time>2020-04-03T13:58:39Z</time>
      </trkpt>
      <trkpt lat="46.09002" lon="6.38177">
        <ele>494.26</ele>
        <time>2020-04-03T13:58:40Z</time>
      </trkpt>
      <trkpt lat="46.08992" lon="6.38222">
        <ele>492.33</ele>
        <time>2020-04-03T13:58:42Z</time>
      </trkpt>
      <trkpt lat="46.08984" lon="6.38241">
        <ele>491.37</ele>
        <time>2020-04-03T13:58:43Z</time>
      </trkpt>
      <trkpt lat="46.08972" lon="6.38259">
        <ele>490.41</ele>
        <time>2020-04-03T13:58:44Z</time>
      </trkpt>
      <trkpt lat="46.08926" lon="6.38326">
        <ele>487.05</ele>
        <time>2020-04-03T13:58:48Z</time>
      </trkpt>
      <trkpt lat="46.08918" lon="6.38345">
        <ele>486.56</ele>
        <time>2020-04-03T13:58:49Z</time>
      </trkpt>
      <trkpt lat="46.0891" lon="6.38366">
        <ele>485.6</ele>
        <time>2020-04-03T13:58:50Z</time>
      </trkpt>
      <trkpt lat="46.08869" lon="6.38558">
        <ele>479.84</ele>
        <time>2020-04-03T13:58:58Z</time>
      </trkpt>
      <trkpt lat="46.08861" lon="6.38602">
        <ele>478.39</ele>
        <time>2020-04-03T13:59:00Z</time>
      </trkpt>
      <trkpt lat="46.08856" lon="6.38623">
        <ele>477.91</ele>
        <time>2020-04-03T13:59:01Z</time>
      </trkpt>
      <trkpt lat="46.0885" lon="6.38644">
        <ele>476.95</ele>
        <time>2020-04-03T13:59:02Z</time>
      </trkpt>
      <trkpt lat="46.08845" lon="6.38665">
        <ele>475.51</ele>
        <time>2020-04-03T13:59:03Z</time>
      </trkpt>
      <trkpt lat="46.08837" lon="6.38685">
        <ele>474.55</ele>
        <time>2020-04-03T13:59:04Z</time>
      </trkpt>
      <trkpt lat="46.08829" lon="6.38705">
        <ele>473.59</ele>
        <time>2020-04-03T13:59:05Z</time>
      </trkpt>
      <trkpt lat="46.0882" lon="6.38725">
        <ele>473.11</ele>
        <time>2020-04-03T13:59:06Z</time>
      </trkpt>
      <trkpt lat="46.08811" lon="6.38745">
        <ele>472.14</ele>
        <time>2020-04-03T13:59:07Z</time>
      </trkpt>
      <trkpt lat="46.08803" lon="6.38765">
        <ele>470.7</ele>
        <time>2020-04-03T13:59:08Z</time>
      </trkpt>
      <trkpt lat="46.08792" lon="6.38784">
        <ele>469.74</ele>
        <time>2020-04-03T13:59:09Z</time>
      </trkpt>
      <trkpt lat="46.08781" lon="6.38801">
        <ele>468.78</ele>
        <time>2020-04-03T13:59:10Z</time>
      </trkpt>
      <trkpt lat="46.08742" lon="6.38869">
        <ele>465.9</ele>
        <time>2020-04-03T13:59:14Z</time>
      </trkpt>
      <trkpt lat="46.08736" lon="6.38888">
        <ele>465.42</ele>
        <time>2020-04-03T13:59:15Z</time>
      </trkpt>
      <trkpt lat="46.0873" lon="6.38908">
        <ele>464.93</ele>
        <time>2020-04-03T13:59:16Z</time>
      </trkpt>
      <trkpt lat="46.08728" lon="6.38929">
        <ele>464.45</ele>
        <time>2020-04-03T13:59:17Z</time>
      </trkpt>
      <trkpt lat="46.08725" lon="6.3895">
        <ele>463.97</ele>
        <time>2020-04-03T13:59:18Z</time>
      </trkpt>
      <trkpt lat="46.08723" lon="6.38969">
        <ele>463.97</ele>
        <time>2020-04-03T13:59:19Z</time>
      </trkpt>
      <trkpt lat="46.08721" lon="6.38985">
        <ele>464.45</ele>
        <time>2020-04-03T13:59:20Z</time>
      </trkpt>
      <trkpt lat="46.08729" lon="6.39059">
        <ele>462.53</ele>
        <time>2020-04-03T13:59:27Z</time>
      </trkpt>
      <trkpt lat="46.08722" lon="6.39058">
        <ele>462.05</ele>
        <time>2020-04-03T13:59:28Z</time>
      </trkpt>
      <trkpt lat="46.08709" lon="6.39057">
        <ele>460.61</ele>
        <time>2020-04-03T13:59:31Z</time>
      </trkpt>
      <trkpt lat="46.08708" lon="6.39065">
        <ele>460.13</ele>
        <time>2020-04-03T13:59:32Z</time>
      </trkpt>
      <trkpt lat="46.08707" lon="6.39074">
        <ele>460.13</ele>
        <time>2020-04-03T13:59:33Z</time>
      </trkpt>
      <trkpt lat="46.08707" lon="6.39083">
        <ele>459.65</ele>
        <time>2020-04-03T13:59:34Z</time>
      </trkpt>
      <trkpt lat="46.08706" lon="6.39096">
        <ele>459.17</ele>
        <time>2020-04-03T13:59:35Z</time>
      </trkpt>
      <trkpt lat="46.08706" lon="6.39112">
        <ele>459.17</ele>
        <time>2020-04-03T13:59:36Z</time>
      </trkpt>
      <trkpt lat="46.08706" lon="6.39131">
        <ele>459.17</ele>
        <time>2020-04-03T13:59:37Z</time>
      </trkpt>
      <trkpt lat="46.08705" lon="6.39153">
        <ele>458.69</ele>
        <time>2020-04-03T13:59:38Z</time>
      </trkpt>
      <trkpt lat="46.08692" lon="6.3931">
        <ele>458.21</ele>
        <time>2020-04-03T13:59:45Z</time>
      </trkpt>
      <trkpt lat="46.08688" lon="6.39332">
        <ele>458.21</ele>
        <time>2020-04-03T13:59:46Z</time>
      </trkpt>
      <trkpt lat="46.08664" lon="6.39485">
        <ele>457.72</ele>
        <time>2020-04-03T13:59:53Z</time>
      </trkpt>
      <trkpt lat="46.08662" lon="6.39509">
        <ele>457.24</ele>
        <time>2020-04-03T13:59:54Z</time>
      </trkpt>
      <trkpt lat="46.08663" lon="6.39532">
        <ele>457.24</ele>
        <time>2020-04-03T13:59:55Z</time>
      </trkpt>
      <trkpt lat="46.0868" lon="6.39709">
        <ele>452.92</ele>
        <time>2020-04-03T14:00:03Z</time>
      </trkpt>
      <trkpt lat="46.08677" lon="6.39883">
        <ele>447.15</ele>
        <time>2020-04-03T14:00:12Z</time>
      </trkpt>
      <trkpt lat="46.0866" lon="6.39949">
        <ele>445.71</ele>
        <time>2020-04-03T14:00:16Z</time>
      </trkpt>
      <trkpt lat="46.08653" lon="6.39965">
        <ele>445.71</ele>
        <time>2020-04-03T14:00:17Z</time>
      </trkpt>
      <trkpt lat="46.08645" lon="6.3998">
        <ele>445.71</ele>
        <time>2020-04-03T14:00:18Z</time>
      </trkpt>
      <trkpt lat="46.08638" lon="6.39995">
        <ele>445.23</ele>
        <time>2020-04-03T14:00:19Z</time>
      </trkpt>
      <trkpt lat="46.08631" lon="6.4001">
        <ele>445.23</ele>
        <time>2020-04-03T14:00:20Z</time>
      </trkpt>
      <trkpt lat="46.08621" lon="6.40022">
        <ele>445.23</ele>
        <time>2020-04-03T14:00:21Z</time>
      </trkpt>
      <trkpt lat="46.08611" lon="6.40032">
        <ele>445.23</ele>
        <time>2020-04-03T14:00:22Z</time>
      </trkpt>
      <trkpt lat="46.08533" lon="6.40108">
        <ele>446.19</ele>
        <time>2020-04-03T14:00:31Z</time>
      </trkpt>
      <trkpt lat="46.08466" lon="6.40166">
        <ele>448.59</ele>
        <time>2020-04-03T14:00:42Z</time>
      </trkpt>
      <trkpt lat="46.08445" lon="6.40185">
        <ele>448.59</ele>
        <time>2020-04-03T14:00:45Z</time>
      </trkpt>
      <trkpt lat="46.08437" lon="6.40192">
        <ele>448.59</ele>
        <time>2020-04-03T14:00:46Z</time>
      </trkpt>
      <trkpt lat="46.08424" lon="6.40204">
        <ele>449.55</ele>
        <time>2020-04-03T14:00:48Z</time>
      </trkpt>
      <trkpt lat="46.08417" lon="6.40209">
        <ele>449.55</ele>
        <time>2020-04-03T14:00:49Z</time>
      </trkpt>
      <trkpt lat="46.08412" lon="6.40213">
        <ele>450.03</ele>
        <time>2020-04-03T14:00:50Z</time>
      </trkpt>
      <trkpt lat="46.08408" lon="6.40217">
        <ele>450.52</ele>
        <time>2020-04-03T14:00:51Z</time>
      </trkpt>
      <trkpt lat="46.08403" lon="6.40221">
        <ele>451</ele>
        <time>2020-04-03T14:00:52Z</time>
      </trkpt>
      <trkpt lat="46.08346" lon="6.40274">
        <ele>452.92</ele>
        <time>2020-04-03T14:01:00Z</time>
      </trkpt>
      <trkpt lat="46.08243" lon="6.40365">
        <ele>453.88</ele>
        <time>2020-04-03T14:01:12Z</time>
      </trkpt>
      <trkpt lat="46.08198" lon="6.40403">
        <ele>453.88</ele>
        <time>2020-04-03T14:01:19Z</time>
      </trkpt>
      <trkpt lat="46.0819" lon="6.40395">
        <ele>453.88</ele>
        <time>2020-04-03T14:01:20Z</time>
      </trkpt>
      <trkpt lat="46.08184" lon="6.40387">
        <ele>454.36</ele>
        <time>2020-04-03T14:01:21Z</time>
      </trkpt>
      <trkpt lat="46.08177" lon="6.40377">
        <ele>454.36</ele>
        <time>2020-04-03T14:01:22Z</time>
      </trkpt>
      <trkpt lat="46.08168" lon="6.40368">
        <ele>454.36</ele>
        <time>2020-04-03T14:01:23Z</time>
      </trkpt>
      <trkpt lat="46.08149" lon="6.40337">
        <ele>455.32</ele>
        <time>2020-04-03T14:01:27Z</time>
      </trkpt>
      <trkpt lat="46.08138" lon="6.40322">
        <ele>455.8</ele>
        <time>2020-04-03T14:01:29Z</time>
      </trkpt>
      <trkpt lat="46.08133" lon="6.40315">
        <ele>456.28</ele>
        <time>2020-04-03T14:01:30Z</time>
      </trkpt>
      <trkpt lat="46.08127" lon="6.40308">
        <ele>456.28</ele>
        <time>2020-04-03T14:01:31Z</time>
      </trkpt>
      <trkpt lat="46.08104" lon="6.40276">
        <ele>457.24</ele>
        <time>2020-04-03T14:01:34Z</time>
      </trkpt>
      <trkpt lat="46.08038" lon="6.40215">
        <ele>458.69</ele>
        <time>2020-04-03T14:01:42Z</time>
      </trkpt>
      <trkpt lat="46.08031" lon="6.40209">
        <ele>458.69</ele>
        <time>2020-04-03T14:01:43Z</time>
      </trkpt>
      <trkpt lat="46.08029" lon="6.40207">
        <ele>458.69</ele>
        <time>2020-04-03T14:01:44Z</time>
      </trkpt>
      <trkpt lat="46.08025" lon="6.40187">
        <ele>458.21</ele>
        <time>2020-04-03T14:01:45Z</time>
      </trkpt>
      <trkpt lat="46.0802" lon="6.40183">
        <ele>458.21</ele>
        <time>2020-04-03T14:01:46Z</time>
      </trkpt>
      <trkpt lat="46.0801" lon="6.40189">
        <ele>458.21</ele>
        <time>2020-04-03T14:01:47Z</time>
      </trkpt>
      <trkpt lat="46.08001" lon="6.40188">
        <ele>457.72</ele>
        <time>2020-04-03T14:01:48Z</time>
      </trkpt>
      <trkpt lat="46.07991" lon="6.40186">
        <ele>457.24</ele>
        <time>2020-04-03T14:01:49Z</time>
      </trkpt>
      <trkpt lat="46.07926" lon="6.40185">
        <ele>455.32</ele>
        <time>2020-04-03T14:01:58Z</time>
      </trkpt>
      <trkpt lat="46.07913" lon="6.40185">
        <ele>455.32</ele>
        <time>2020-04-03T14:02:07Z</time>
      </trkpt>
      <trkpt lat="46.07913" lon="6.40185">
        <ele>455.32</ele>
        <time>2020-04-03T14:02:21Z</time>
      </trkpt>
      <trkpt lat="46.0791" lon="6.40186">
        <ele>455.32</ele>
        <time>2020-04-03T14:02:22Z</time>
      </trkpt>
      <trkpt lat="46.07904" lon="6.40187">
        <ele>455.32</ele>
        <time>2020-04-03T14:02:23Z</time>
      </trkpt>
      <trkpt lat="46.07846" lon="6.40189">
        <ele>455.8</ele>
        <time>2020-04-03T14:02:31Z</time>
      </trkpt>
      <trkpt lat="46.07837" lon="6.40189">
        <ele>455.8</ele>
        <time>2020-04-03T14:02:32Z</time>
      </trkpt>
      <trkpt lat="46.07828" lon="6.40188">
        <ele>456.28</ele>
        <time>2020-04-03T14:02:33Z</time>
      </trkpt>
      <trkpt lat="46.07782" lon="6.40185">
        <ele>457.24</ele>
        <time>2020-04-03T14:02:38Z</time>
      </trkpt>
      <trkpt lat="46.0774" lon="6.40183">
        <ele>458.21</ele>
        <time>2020-04-03T14:02:43Z</time>
      </trkpt>
      <trkpt lat="46.07732" lon="6.40183">
        <ele>457.72</ele>
        <time>2020-04-03T14:02:44Z</time>
      </trkpt>
      <trkpt lat="46.07645" lon="6.40181">
        <ele>455.32</ele>
        <time>2020-04-03T14:02:54Z</time>
      </trkpt>
      <trkpt lat="46.07564" lon="6.402">
        <ele>456.28</ele>
        <time>2020-04-03T14:03:03Z</time>
      </trkpt>
      <trkpt lat="46.07555" lon="6.40204">
        <ele>456.76</ele>
        <time>2020-04-03T14:03:04Z</time>
      </trkpt>
      <trkpt lat="46.07456" lon="6.40268">
        <ele>457.24</ele>
        <time>2020-04-03T14:03:15Z</time>
      </trkpt>
      <trkpt lat="46.07435" lon="6.40284">
        <ele>456.28</ele>
        <time>2020-04-03T14:03:18Z</time>
      </trkpt>
      <trkpt lat="46.07429" lon="6.40283">
        <ele>455.8</ele>
        <time>2020-04-03T14:03:19Z</time>
      </trkpt>
      <trkpt lat="46.07419" lon="6.40276">
        <ele>455.32</ele>
        <time>2020-04-03T14:03:20Z</time>
      </trkpt>
      <trkpt lat="46.07412" lon="6.40279">
        <ele>454.84</ele>
        <time>2020-04-03T14:03:21Z</time>
      </trkpt>
      <trkpt lat="46.07404" lon="6.4029">
        <ele>454.84</ele>
        <time>2020-04-03T14:03:22Z</time>
      </trkpt>
      <trkpt lat="46.074" lon="6.40299">
        <ele>454.36</ele>
        <time>2020-04-03T14:03:23Z</time>
      </trkpt>
      <trkpt lat="46.074" lon="6.40299">
        <ele>453.88</ele>
        <time>2020-04-03T14:03:24Z</time>
      </trkpt>
      <trkpt lat="46.07402" lon="6.40332">
        <ele>453.4</ele>
        <time>2020-04-03T14:03:25Z</time>
      </trkpt>
      <trkpt lat="46.07397" lon="6.40345">
        <ele>452.92</ele>
        <time>2020-04-03T14:03:26Z</time>
      </trkpt>
      <trkpt lat="46.0739" lon="6.4036">
        <ele>452.92</ele>
        <time>2020-04-03T14:03:27Z</time>
      </trkpt>
      <trkpt lat="46.07351" lon="6.40443">
        <ele>454.36</ele>
        <time>2020-04-03T14:03:32Z</time>
      </trkpt>
      <trkpt lat="46.07344" lon="6.4046">
        <ele>455.32</ele>
        <time>2020-04-03T14:03:33Z</time>
      </trkpt>
      <trkpt lat="46.07301" lon="6.40559">
        <ele>459.17</ele>
        <time>2020-04-03T14:03:39Z</time>
      </trkpt>
      <trkpt lat="46.07291" lon="6.40593">
        <ele>459.65</ele>
        <time>2020-04-03T14:03:41Z</time>
      </trkpt>
      <trkpt lat="46.07288" lon="6.40609">
        <ele>460.13</ele>
        <time>2020-04-03T14:03:42Z</time>
      </trkpt>
      <trkpt lat="46.07287" lon="6.40628">
        <ele>460.13</ele>
        <time>2020-04-03T14:03:43Z</time>
      </trkpt>
      <trkpt lat="46.07286" lon="6.40646">
        <ele>460.13</ele>
        <time>2020-04-03T14:03:44Z</time>
      </trkpt>
      <trkpt lat="46.07286" lon="6.40665">
        <ele>459.65</ele>
        <time>2020-04-03T14:03:45Z</time>
      </trkpt>
      <trkpt lat="46.07289" lon="6.40683">
        <ele>459.65</ele>
        <time>2020-04-03T14:03:46Z</time>
      </trkpt>
      <trkpt lat="46.07292" lon="6.40702">
        <ele>459.65</ele>
        <time>2020-04-03T14:03:47Z</time>
      </trkpt>
      <trkpt lat="46.07297" lon="6.40718">
        <ele>459.17</ele>
        <time>2020-04-03T14:03:48Z</time>
      </trkpt>
      <trkpt lat="46.07302" lon="6.40736">
        <ele>459.17</ele>
        <time>2020-04-03T14:03:49Z</time>
      </trkpt>
      <trkpt lat="46.07308" lon="6.40754">
        <ele>458.69</ele>
        <time>2020-04-03T14:03:50Z</time>
      </trkpt>
      <trkpt lat="46.07343" lon="6.40829">
        <ele>456.28</ele>
        <time>2020-04-03T14:03:55Z</time>
      </trkpt>
      <trkpt lat="46.07356" lon="6.40847">
        <ele>455.8</ele>
        <time>2020-04-03T14:03:57Z</time>
      </trkpt>
      <trkpt lat="46.0736" lon="6.4086">
        <ele>455.32</ele>
        <time>2020-04-03T14:03:58Z</time>
      </trkpt>
      <trkpt lat="46.07364" lon="6.40874">
        <ele>454.84</ele>
        <time>2020-04-03T14:03:59Z</time>
      </trkpt>
      <trkpt lat="46.07364" lon="6.40889">
        <ele>454.84</ele>
        <time>2020-04-03T14:04:00Z</time>
      </trkpt>
      <trkpt lat="46.07365" lon="6.40907">
        <ele>454.36</ele>
        <time>2020-04-03T14:04:01Z</time>
      </trkpt>
      <trkpt lat="46.07366" lon="6.40928">
        <ele>453.88</ele>
        <time>2020-04-03T14:04:02Z</time>
      </trkpt>
      <trkpt lat="46.07363" lon="6.40948">
        <ele>453.4</ele>
        <time>2020-04-03T14:04:03Z</time>
      </trkpt>
      <trkpt lat="46.0736" lon="6.4097">
        <ele>452.92</ele>
        <time>2020-04-03T14:04:04Z</time>
      </trkpt>
      <trkpt lat="46.07357" lon="6.40992">
        <ele>452.92</ele>
        <time>2020-04-03T14:04:05Z</time>
      </trkpt>
      <trkpt lat="46.07353" lon="6.41014">
        <ele>451.96</ele>
        <time>2020-04-03T14:04:06Z</time>
      </trkpt>
      <trkpt lat="46.07347" lon="6.41036">
        <ele>451.96</ele>
        <time>2020-04-03T14:04:07Z</time>
      </trkpt>
      <trkpt lat="46.0734" lon="6.41058">
        <ele>451.96</ele>
        <time>2020-04-03T14:04:08Z</time>
      </trkpt>
      <trkpt lat="46.07319" lon="6.41126">
        <ele>452.44</ele>
        <time>2020-04-03T14:04:11Z</time>
      </trkpt>
      <trkpt lat="46.07314" lon="6.41149">
        <ele>452.92</ele>
        <time>2020-04-03T14:04:12Z</time>
      </trkpt>
      <trkpt lat="46.07279" lon="6.41421">
        <ele>453.4</ele>
        <time>2020-04-03T14:04:23Z</time>
      </trkpt>
      <trkpt lat="46.07241" lon="6.41727">
        <ele>453.4</ele>
        <time>2020-04-03T14:04:35Z</time>
      </trkpt>
      <trkpt lat="46.07208" lon="6.41886">
        <ele>454.84</ele>
        <time>2020-04-03T14:04:43Z</time>
      </trkpt>
      <trkpt lat="46.07174" lon="6.4201">
        <ele>451.48</ele>
        <time>2020-04-03T14:04:50Z</time>
      </trkpt>
      <trkpt lat="46.07173" lon="6.42019">
        <ele>451</ele>
        <time>2020-04-03T14:04:51Z</time>
      </trkpt>
      <trkpt lat="46.07172" lon="6.42025">
        <ele>450.52</ele>
        <time>2020-04-03T14:04:52Z</time>
      </trkpt>
      <trkpt lat="46.07171" lon="6.42029">
        <ele>450.03</ele>
        <time>2020-04-03T14:04:53Z</time>
      </trkpt>
      <trkpt lat="46.07171" lon="6.42032">
        <ele>449.55</ele>
        <time>2020-04-03T14:04:54Z</time>
      </trkpt>
      <trkpt lat="46.07177" lon="6.42033">
        <ele>449.07</ele>
        <time>2020-04-03T14:04:55Z</time>
      </trkpt>
      <trkpt lat="46.07181" lon="6.42034">
        <ele>448.59</ele>
        <time>2020-04-03T14:04:56Z</time>
      </trkpt>
      <trkpt lat="46.07187" lon="6.42034">
        <ele>448.11</ele>
        <time>2020-04-03T14:04:57Z</time>
      </trkpt>
      <trkpt lat="46.07196" lon="6.42035">
        <ele>447.63</ele>
        <time>2020-04-03T14:04:58Z</time>
      </trkpt>
      <trkpt lat="46.07266" lon="6.42054">
        <ele>447.15</ele>
        <time>2020-04-03T14:05:04Z</time>
      </trkpt>
      <trkpt lat="46.07296" lon="6.42058">
        <ele>447.63</ele>
        <time>2020-04-03T14:05:10Z</time>
      </trkpt>
      <trkpt lat="46.07297" lon="6.42058">
        <ele>447.63</ele>
        <time>2020-04-03T14:05:14Z</time>
      </trkpt>
      <trkpt lat="46.07301" lon="6.42053">
        <ele>448.11</ele>
        <time>2020-04-03T14:05:15Z</time>
      </trkpt>
      <trkpt lat="46.07301" lon="6.42049">
        <ele>448.11</ele>
        <time>2020-04-03T14:05:16Z</time>
      </trkpt>
      <trkpt lat="46.073" lon="6.42045">
        <ele>448.59</ele>
        <time>2020-04-03T14:05:17Z</time>
      </trkpt>
      <trkpt lat="46.073" lon="6.42041">
        <ele>448.59</ele>
        <time>2020-04-03T14:05:18Z</time>
      </trkpt>
      <trkpt lat="46.073" lon="6.42036">
        <ele>449.07</ele>
        <time>2020-04-03T14:05:19Z</time>
      </trkpt>
      <trkpt lat="46.07299" lon="6.42031">
        <ele>449.07</ele>
        <time>2020-04-03T14:05:20Z</time>
      </trkpt>
      <trkpt lat="46.07299" lon="6.42026">
        <ele>449.55</ele>
        <time>2020-04-03T14:05:21Z</time>
      </trkpt>
      <trkpt lat="46.07299" lon="6.4202">
        <ele>449.55</ele>
        <time>2020-04-03T14:05:22Z</time>
      </trkpt>
      <trkpt lat="46.07294" lon="6.41946">
        <ele>451.96</ele>
        <time>2020-04-03T14:05:36Z</time>
      </trkpt>
      <trkpt lat="46.07293" lon="6.41928">
        <ele>452.44</ele>
        <time>2020-04-03T14:05:46Z</time>
      </trkpt>
      <trkpt lat="46.07291" lon="6.41913">
        <ele>453.88</ele>
        <time>2020-04-03T14:05:50Z</time>
      </trkpt>
      <trkpt lat="46.07291" lon="6.4193">
        <ele>454.36</ele>
        <time>2020-04-03T14:05:51Z</time>
      </trkpt>
      <trkpt lat="46.07289" lon="6.41931">
        <ele>454.84</ele>
        <time>2020-04-03T14:05:52Z</time>
      </trkpt>
      <trkpt lat="46.07285" lon="6.41928">
        <ele>456.28</ele>
        <time>2020-04-03T14:06:04Z</time>
      </trkpt>
      <trkpt lat="46.07283" lon="6.41934">
        <ele>453.88</ele>
        <time>2020-04-03T14:45:34Z</time>
      </trkpt>
      <trkpt lat="46.07285" lon="6.41931">
        <ele>452.44</ele>
        <time>2020-04-03T14:45:36Z</time>
      </trkpt>
      <trkpt lat="46.07289" lon="6.4193">
        <ele>452.92</ele>
        <time>2020-04-03T14:45:37Z</time>
      </trkpt>
      <trkpt lat="46.07293" lon="6.4193">
        <ele>452.92</ele>
        <time>2020-04-03T14:45:38Z</time>
      </trkpt>
      <trkpt lat="46.07293" lon="6.41929">
        <ele>452.44</ele>
        <time>2020-04-03T14:45:39Z</time>
      </trkpt>
      <trkpt lat="46.07292" lon="6.41921">
        <ele>451.96</ele>
        <time>2020-04-03T14:45:40Z</time>
      </trkpt>
      <trkpt lat="46.07291" lon="6.4191">
        <ele>451.48</ele>
        <time>2020-04-03T14:45:41Z</time>
      </trkpt>
      <trkpt lat="46.0729" lon="6.41896">
        <ele>451</ele>
        <time>2020-04-03T14:45:42Z</time>
      </trkpt>
      <trkpt lat="46.07289" lon="6.41882">
        <ele>450.52</ele>
        <time>2020-04-03T14:45:43Z</time>
      </trkpt>
      <trkpt lat="46.07288" lon="6.4187">
        <ele>450.52</ele>
        <time>2020-04-03T14:45:44Z</time>
      </trkpt>
      <trkpt lat="46.07287" lon="6.4186">
        <ele>450.52</ele>
        <time>2020-04-03T14:45:45Z</time>
      </trkpt>
      <trkpt lat="46.07286" lon="6.41848">
        <ele>450.03</ele>
        <time>2020-04-03T14:45:46Z</time>
      </trkpt>
      <trkpt lat="46.07287" lon="6.4184">
        <ele>450.03</ele>
        <time>2020-04-03T14:45:47Z</time>
      </trkpt>
      <trkpt lat="46.07288" lon="6.41829">
        <ele>449.55</ele>
        <time>2020-04-03T14:45:48Z</time>
      </trkpt>
      <trkpt lat="46.07293" lon="6.41821">
        <ele>449.07</ele>
        <time>2020-04-03T14:45:49Z</time>
      </trkpt>
      <trkpt lat="46.07297" lon="6.41813">
        <ele>449.07</ele>
        <time>2020-04-03T14:45:50Z</time>
      </trkpt>
      <trkpt lat="46.07308" lon="6.41805">
        <ele>448.59</ele>
        <time>2020-04-03T14:45:51Z</time>
      </trkpt>
      <trkpt lat="46.07318" lon="6.41804">
        <ele>448.11</ele>
        <time>2020-04-03T14:45:52Z</time>
      </trkpt>
      <trkpt lat="46.07327" lon="6.41803">
        <ele>448.11</ele>
        <time>2020-04-03T14:45:53Z</time>
      </trkpt>
      <trkpt lat="46.07335" lon="6.41802">
        <ele>447.63</ele>
        <time>2020-04-03T14:45:54Z</time>
      </trkpt>
      <trkpt lat="46.0734" lon="6.41801">
        <ele>447.63</ele>
        <time>2020-04-03T14:45:55Z</time>
      </trkpt>
      <trkpt lat="46.07343" lon="6.418">
        <ele>448.11</ele>
        <time>2020-04-03T14:45:56Z</time>
      </trkpt>
      <trkpt lat="46.07352" lon="6.41812">
        <ele>448.11</ele>
        <time>2020-04-03T14:45:57Z</time>
      </trkpt>
      <trkpt lat="46.07353" lon="6.41833">
        <ele>449.07</ele>
        <time>2020-04-03T14:46:00Z</time>
      </trkpt>
      <trkpt lat="46.07354" lon="6.41851">
        <ele>449.07</ele>
        <time>2020-04-03T14:46:02Z</time>
      </trkpt>
      <trkpt lat="46.07355" lon="6.4186">
        <ele>449.55</ele>
        <time>2020-04-03T14:46:03Z</time>
      </trkpt>
      <trkpt lat="46.07355" lon="6.41872">
        <ele>449.55</ele>
        <time>2020-04-03T14:46:04Z</time>
      </trkpt>
      <trkpt lat="46.07356" lon="6.41887">
        <ele>449.07</ele>
        <time>2020-04-03T14:46:05Z</time>
      </trkpt>
      <trkpt lat="46.07357" lon="6.41902">
        <ele>449.07</ele>
        <time>2020-04-03T14:46:06Z</time>
      </trkpt>
      <trkpt lat="46.07358" lon="6.41917">
        <ele>449.07</ele>
        <time>2020-04-03T14:46:07Z</time>
      </trkpt>
      <trkpt lat="46.07367" lon="6.42025">
        <ele>451.48</ele>
        <time>2020-04-03T14:46:15Z</time>
      </trkpt>
      <trkpt lat="46.07357" lon="6.42046">
        <ele>451.48</ele>
        <time>2020-04-03T14:46:16Z</time>
      </trkpt>
      <trkpt lat="46.07355" lon="6.42049">
        <ele>451</ele>
        <time>2020-04-03T14:46:17Z</time>
      </trkpt>
      <trkpt lat="46.07349" lon="6.42058">
        <ele>450.52</ele>
        <time>2020-04-03T14:46:18Z</time>
      </trkpt>
      <trkpt lat="46.07335" lon="6.42064">
        <ele>450.52</ele>
        <time>2020-04-03T14:46:19Z</time>
      </trkpt>
      <trkpt lat="46.07325" lon="6.42062">
        <ele>450.52</ele>
        <time>2020-04-03T14:46:20Z</time>
      </trkpt>
      <trkpt lat="46.07314" lon="6.42061">
        <ele>451</ele>
        <time>2020-04-03T14:46:21Z</time>
      </trkpt>
      <trkpt lat="46.0725" lon="6.42052">
        <ele>451.48</ele>
        <time>2020-04-03T14:46:27Z</time>
      </trkpt>
      <trkpt lat="46.07239" lon="6.4205">
        <ele>451</ele>
        <time>2020-04-03T14:46:28Z</time>
      </trkpt>
      <trkpt lat="46.07239" lon="6.42034">
        <ele>451</ele>
        <time>2020-04-03T14:46:29Z</time>
      </trkpt>
      <trkpt lat="46.07238" lon="6.42022">
        <ele>451</ele>
        <time>2020-04-03T14:46:30Z</time>
      </trkpt>
      <trkpt lat="46.07238" lon="6.42007">
        <ele>450.52</ele>
        <time>2020-04-03T14:46:31Z</time>
      </trkpt>
      <trkpt lat="46.07237" lon="6.41988">
        <ele>450.52</ele>
        <time>2020-04-03T14:46:32Z</time>
      </trkpt>
      <trkpt lat="46.07233" lon="6.41852">
        <ele>452.44</ele>
        <time>2020-04-03T14:46:37Z</time>
      </trkpt>
      <trkpt lat="46.07248" lon="6.41688">
        <ele>452.92</ele>
        <time>2020-04-03T14:46:43Z</time>
      </trkpt>
      <trkpt lat="46.07268" lon="6.41516">
        <ele>452.92</ele>
        <time>2020-04-03T14:46:51Z</time>
      </trkpt>
      <trkpt lat="46.07302" lon="6.41235">
        <ele>454.36</ele>
        <time>2020-04-03T14:47:05Z</time>
      </trkpt>
      <trkpt lat="46.07323" lon="6.41113">
        <ele>452.92</ele>
        <time>2020-04-03T14:47:11Z</time>
      </trkpt>
      <trkpt lat="46.07329" lon="6.41093">
        <ele>452.44</ele>
        <time>2020-04-03T14:47:12Z</time>
      </trkpt>
      <trkpt lat="46.07335" lon="6.41074">
        <ele>451.48</ele>
        <time>2020-04-03T14:47:13Z</time>
      </trkpt>
      <trkpt lat="46.07346" lon="6.41037">
        <ele>450.03</ele>
        <time>2020-04-03T14:47:15Z</time>
      </trkpt>
      <trkpt lat="46.07358" lon="6.40983">
        <ele>448.59</ele>
        <time>2020-04-03T14:47:18Z</time>
      </trkpt>
      <trkpt lat="46.07378" lon="6.40888">
        <ele>449.55</ele>
        <time>2020-04-03T14:47:25Z</time>
      </trkpt>
      <trkpt lat="46.07381" lon="6.40876">
        <ele>449.55</ele>
        <time>2020-04-03T14:47:26Z</time>
      </trkpt>
      <trkpt lat="46.07386" lon="6.40866">
        <ele>450.03</ele>
        <time>2020-04-03T14:47:27Z</time>
      </trkpt>
      <trkpt lat="46.07391" lon="6.40857">
        <ele>450.52</ele>
        <time>2020-04-03T14:47:28Z</time>
      </trkpt>
      <trkpt lat="46.07393" lon="6.40849">
        <ele>450.52</ele>
        <time>2020-04-03T14:47:29Z</time>
      </trkpt>
      <trkpt lat="46.07391" lon="6.40837">
        <ele>450.52</ele>
        <time>2020-04-03T14:47:30Z</time>
      </trkpt>
      <trkpt lat="46.07387" lon="6.40826">
        <ele>451</ele>
        <time>2020-04-03T14:47:31Z</time>
      </trkpt>
      <trkpt lat="46.07376" lon="6.4082">
        <ele>451.48</ele>
        <time>2020-04-03T14:47:32Z</time>
      </trkpt>
      <trkpt lat="46.07369" lon="6.40822">
        <ele>451.96</ele>
        <time>2020-04-03T14:47:33Z</time>
      </trkpt>
      <trkpt lat="46.07363" lon="6.40822">
        <ele>451.96</ele>
        <time>2020-04-03T14:47:34Z</time>
      </trkpt>
      <trkpt lat="46.07351" lon="6.40821">
        <ele>451.96</ele>
        <time>2020-04-03T14:47:35Z</time>
      </trkpt>
      <trkpt lat="46.07347" lon="6.40817">
        <ele>451.48</ele>
        <time>2020-04-03T14:47:36Z</time>
      </trkpt>
      <trkpt lat="46.07338" lon="6.40811">
        <ele>451</ele>
        <time>2020-04-03T14:47:37Z</time>
      </trkpt>
      <trkpt lat="46.07329" lon="6.408">
        <ele>450.52</ele>
        <time>2020-04-03T14:47:38Z</time>
      </trkpt>
      <trkpt lat="46.07322" lon="6.40784">
        <ele>450.03</ele>
        <time>2020-04-03T14:47:39Z</time>
      </trkpt>
      <trkpt lat="46.07314" lon="6.40768">
        <ele>450.03</ele>
        <time>2020-04-03T14:47:40Z</time>
      </trkpt>
      <trkpt lat="46.07307" lon="6.40751">
        <ele>449.55</ele>
        <time>2020-04-03T14:47:41Z</time>
      </trkpt>
      <trkpt lat="46.07301" lon="6.40733">
        <ele>449.07</ele>
        <time>2020-04-03T14:47:42Z</time>
      </trkpt>
      <trkpt lat="46.07296" lon="6.40715">
        <ele>448.59</ele>
        <time>2020-04-03T14:47:43Z</time>
      </trkpt>
      <trkpt lat="46.07291" lon="6.40697">
        <ele>448.11</ele>
        <time>2020-04-03T14:47:44Z</time>
      </trkpt>
      <trkpt lat="46.07288" lon="6.40678">
        <ele>447.63</ele>
        <time>2020-04-03T14:47:45Z</time>
      </trkpt>
      <trkpt lat="46.07286" lon="6.40657">
        <ele>447.15</ele>
        <time>2020-04-03T14:47:46Z</time>
      </trkpt>
      <trkpt lat="46.07286" lon="6.40638">
        <ele>446.67</ele>
        <time>2020-04-03T14:47:47Z</time>
      </trkpt>
      <trkpt lat="46.07287" lon="6.40617">
        <ele>446.19</ele>
        <time>2020-04-03T14:47:48Z</time>
      </trkpt>
      <trkpt lat="46.07289" lon="6.40596">
        <ele>445.23</ele>
        <time>2020-04-03T14:47:49Z</time>
      </trkpt>
      <trkpt lat="46.07295" lon="6.40579">
        <ele>444.75</ele>
        <time>2020-04-03T14:47:50Z</time>
      </trkpt>
      <trkpt lat="46.07306" lon="6.40545">
        <ele>443.79</ele>
        <time>2020-04-03T14:47:52Z</time>
      </trkpt>
      <trkpt lat="46.07336" lon="6.40477">
        <ele>443.79</ele>
        <time>2020-04-03T14:47:56Z</time>
      </trkpt>
      <trkpt lat="46.07344" lon="6.4046">
        <ele>443.79</ele>
        <time>2020-04-03T14:47:57Z</time>
      </trkpt>
      <trkpt lat="46.07386" lon="6.40368">
        <ele>444.27</ele>
        <time>2020-04-03T14:48:03Z</time>
      </trkpt>
      <trkpt lat="46.07391" lon="6.40356">
        <ele>444.27</ele>
        <time>2020-04-03T14:48:04Z</time>
      </trkpt>
      <trkpt lat="46.07397" lon="6.40344">
        <ele>444.75</ele>
        <time>2020-04-03T14:48:05Z</time>
      </trkpt>
      <trkpt lat="46.07417" lon="6.40329">
        <ele>444.75</ele>
        <time>2020-04-03T14:48:07Z</time>
      </trkpt>
      <trkpt lat="46.07421" lon="6.40327">
        <ele>445.23</ele>
        <time>2020-04-03T14:48:08Z</time>
      </trkpt>
      <trkpt lat="46.07427" lon="6.40322">
        <ele>445.23</ele>
        <time>2020-04-03T14:48:09Z</time>
      </trkpt>
      <trkpt lat="46.07434" lon="6.40313">
        <ele>445.71</ele>
        <time>2020-04-03T14:48:10Z</time>
      </trkpt>
      <trkpt lat="46.07436" lon="6.40299">
        <ele>445.71</ele>
        <time>2020-04-03T14:48:11Z</time>
      </trkpt>
      <trkpt lat="46.07434" lon="6.40291">
        <ele>445.71</ele>
        <time>2020-04-03T14:48:12Z</time>
      </trkpt>
      <trkpt lat="46.07427" lon="6.40282">
        <ele>445.71</ele>
        <time>2020-04-03T14:48:13Z</time>
      </trkpt>
      <trkpt lat="46.0742" lon="6.40276">
        <ele>446.19</ele>
        <time>2020-04-03T14:48:14Z</time>
      </trkpt>
      <trkpt lat="46.07419" lon="6.40276">
        <ele>446.19</ele>
        <time>2020-04-03T14:48:15Z</time>
      </trkpt>
      <trkpt lat="46.07398" lon="6.40261">
        <ele>446.19</ele>
        <time>2020-04-03T14:48:16Z</time>
      </trkpt>
      <trkpt lat="46.07392" lon="6.40246">
        <ele>446.67</ele>
        <time>2020-04-03T14:48:17Z</time>
      </trkpt>
      <trkpt lat="46.07338" lon="6.40106">
        <ele>448.59</ele>
        <time>2020-04-03T14:48:26Z</time>
      </trkpt>
      <trkpt lat="46.07287" lon="6.39914">
        <ele>451.48</ele>
        <time>2020-04-03T14:48:37Z</time>
      </trkpt>
      <trkpt lat="46.07275" lon="6.39842">
        <ele>451.96</ele>
        <time>2020-04-03T14:48:41Z</time>
      </trkpt>
      <trkpt lat="46.07273" lon="6.39658">
        <ele>452.92</ele>
        <time>2020-04-03T14:48:51Z</time>
      </trkpt>
      <trkpt lat="46.07278" lon="6.39613">
        <ele>454.36</ele>
        <time>2020-04-03T14:48:54Z</time>
      </trkpt>
      <trkpt lat="46.0728" lon="6.39598">
        <ele>454.36</ele>
        <time>2020-04-03T14:48:55Z</time>
      </trkpt>
      <trkpt lat="46.07287" lon="6.39585">
        <ele>454.84</ele>
        <time>2020-04-03T14:48:56Z</time>
      </trkpt>
      <trkpt lat="46.07299" lon="6.39563">
        <ele>454.84</ele>
        <time>2020-04-03T14:48:58Z</time>
      </trkpt>
      <trkpt lat="46.07303" lon="6.39548">
        <ele>455.32</ele>
        <time>2020-04-03T14:48:59Z</time>
      </trkpt>
      <trkpt lat="46.07305" lon="6.39536">
        <ele>455.32</ele>
        <time>2020-04-03T14:49:00Z</time>
      </trkpt>
      <trkpt lat="46.07304" lon="6.39519">
        <ele>455.32</ele>
        <time>2020-04-03T14:49:01Z</time>
      </trkpt>
      <trkpt lat="46.07308" lon="6.39504">
        <ele>455.8</ele>
        <time>2020-04-03T14:49:02Z</time>
      </trkpt>
      <trkpt lat="46.07312" lon="6.39484">
        <ele>455.8</ele>
        <time>2020-04-03T14:49:03Z</time>
      </trkpt>
      <trkpt lat="46.07313" lon="6.39466">
        <ele>455.8</ele>
        <time>2020-04-03T14:49:04Z</time>
      </trkpt>
      <trkpt lat="46.07314" lon="6.39445">
        <ele>455.32</ele>
        <time>2020-04-03T14:49:05Z</time>
      </trkpt>
      <trkpt lat="46.07313" lon="6.39424">
        <ele>454.84</ele>
        <time>2020-04-03T14:49:06Z</time>
      </trkpt>
      <trkpt lat="46.07311" lon="6.39403">
        <ele>454.36</ele>
        <time>2020-04-03T14:49:07Z</time>
      </trkpt>
      <trkpt lat="46.07293" lon="6.39117">
        <ele>451.96</ele>
        <time>2020-04-03T14:49:21Z</time>
      </trkpt>
      <trkpt lat="46.07282" lon="6.38952">
        <ele>455.8</ele>
        <time>2020-04-03T14:49:29Z</time>
      </trkpt>
      <trkpt lat="46.07269" lon="6.38705">
        <ele>461.57</ele>
        <time>2020-04-03T14:49:40Z</time>
      </trkpt>
      <trkpt lat="46.07271" lon="6.38544">
        <ele>464.93</ele>
        <time>2020-04-03T14:49:46Z</time>
      </trkpt>
      <trkpt lat="46.0727" lon="6.38518">
        <ele>465.42</ele>
        <time>2020-04-03T14:49:47Z</time>
      </trkpt>
      <trkpt lat="46.07266" lon="6.38491">
        <ele>466.38</ele>
        <time>2020-04-03T14:49:48Z</time>
      </trkpt>
      <trkpt lat="46.07261" lon="6.38465">
        <ele>466.86</ele>
        <time>2020-04-03T14:49:49Z</time>
      </trkpt>
      <trkpt lat="46.07254" lon="6.3844">
        <ele>467.82</ele>
        <time>2020-04-03T14:49:50Z</time>
      </trkpt>
      <trkpt lat="46.07247" lon="6.38415">
        <ele>468.3</ele>
        <time>2020-04-03T14:49:51Z</time>
      </trkpt>
      <trkpt lat="46.07212" lon="6.38318">
        <ele>471.18</ele>
        <time>2020-04-03T14:49:55Z</time>
      </trkpt>
      <trkpt lat="46.07205" lon="6.38293">
        <ele>471.18</ele>
        <time>2020-04-03T14:49:56Z</time>
      </trkpt>
      <trkpt lat="46.07199" lon="6.38266">
        <ele>471.18</ele>
        <time>2020-04-03T14:49:57Z</time>
      </trkpt>
      <trkpt lat="46.07199" lon="6.38266">
        <ele>471.18</ele>
        <time>2020-04-03T14:49:58Z</time>
      </trkpt>
      <trkpt lat="46.07193" lon="6.38211">
        <ele>470.7</ele>
        <time>2020-04-03T14:49:59Z</time>
      </trkpt>
      <trkpt lat="46.0719" lon="6.38184">
        <ele>470.22</ele>
        <time>2020-04-03T14:50:00Z</time>
      </trkpt>
      <trkpt lat="46.07191" lon="6.38157">
        <ele>469.74</ele>
        <time>2020-04-03T14:50:01Z</time>
      </trkpt>
      <trkpt lat="46.07193" lon="6.38131">
        <ele>468.78</ele>
        <time>2020-04-03T14:50:02Z</time>
      </trkpt>
      <trkpt lat="46.07197" lon="6.38105">
        <ele>467.82</ele>
        <time>2020-04-03T14:50:03Z</time>
      </trkpt>
      <trkpt lat="46.07214" lon="6.37986">
        <ele>466.86</ele>
        <time>2020-04-03T14:50:09Z</time>
      </trkpt>
      <trkpt lat="46.07212" lon="6.37792">
        <ele>467.34</ele>
        <time>2020-04-03T14:50:17Z</time>
      </trkpt>
      <trkpt lat="46.07211" lon="6.37762">
        <ele>467.34</ele>
        <time>2020-04-03T14:50:19Z</time>
      </trkpt>
      <trkpt lat="46.0722" lon="6.37722">
        <ele>467.82</ele>
        <time>2020-04-03T14:50:22Z</time>
      </trkpt>
      <trkpt lat="46.07226" lon="6.37706">
        <ele>467.82</ele>
        <time>2020-04-03T14:50:23Z</time>
      </trkpt>
      <trkpt lat="46.07223" lon="6.37694">
        <ele>467.82</ele>
        <time>2020-04-03T14:50:24Z</time>
      </trkpt>
      <trkpt lat="46.07216" lon="6.37679">
        <ele>468.3</ele>
        <time>2020-04-03T14:50:25Z</time>
      </trkpt>
      <trkpt lat="46.07213" lon="6.37668">
        <ele>468.3</ele>
        <time>2020-04-03T14:50:26Z</time>
      </trkpt>
      <trkpt lat="46.07209" lon="6.37652">
        <ele>468.3</ele>
        <time>2020-04-03T14:50:27Z</time>
      </trkpt>
      <trkpt lat="46.0719" lon="6.37453">
        <ele>467.34</ele>
        <time>2020-04-03T14:50:36Z</time>
      </trkpt>
      <trkpt lat="46.07167" lon="6.37091">
        <ele>466.86</ele>
        <time>2020-04-03T14:50:50Z</time>
      </trkpt>
      <trkpt lat="46.07149" lon="6.36798">
        <ele>465.9</ele>
        <time>2020-04-03T14:51:01Z</time>
      </trkpt>
      <trkpt lat="46.07136" lon="6.36579">
        <ele>465.9</ele>
        <time>2020-04-03T14:51:11Z</time>
      </trkpt>
      <trkpt lat="46.07135" lon="6.36565">
        <ele>465.9</ele>
        <time>2020-04-03T14:51:12Z</time>
      </trkpt>
      <trkpt lat="46.07135" lon="6.36553">
        <ele>465.9</ele>
        <time>2020-04-03T14:51:13Z</time>
      </trkpt>
      <trkpt lat="46.07134" lon="6.36543">
        <ele>465.9</ele>
        <time>2020-04-03T14:51:14Z</time>
      </trkpt>
      <trkpt lat="46.07134" lon="6.36534">
        <ele>465.42</ele>
        <time>2020-04-03T14:51:15Z</time>
      </trkpt>
      <trkpt lat="46.07134" lon="6.36529">
        <ele>465.42</ele>
        <time>2020-04-03T14:51:16Z</time>
      </trkpt>
      <trkpt lat="46.07151" lon="6.36513">
        <ele>465.42</ele>
        <time>2020-04-03T14:51:17Z</time>
      </trkpt>
      <trkpt lat="46.0715" lon="6.36502">
        <ele>464.93</ele>
        <time>2020-04-03T14:51:18Z</time>
      </trkpt>
      <trkpt lat="46.07145" lon="6.36485">
        <ele>464.45</ele>
        <time>2020-04-03T14:51:19Z</time>
      </trkpt>
      <trkpt lat="46.07143" lon="6.36482">
        <ele>464.45</ele>
        <time>2020-04-03T14:51:20Z</time>
      </trkpt>
      <trkpt lat="46.07125" lon="6.3647">
        <ele>464.45</ele>
        <time>2020-04-03T14:51:21Z</time>
      </trkpt>
      <trkpt lat="46.07124" lon="6.36454">
        <ele>464.45</ele>
        <time>2020-04-03T14:51:22Z</time>
      </trkpt>
      <trkpt lat="46.07123" lon="6.36436">
        <ele>464.45</ele>
        <time>2020-04-03T14:51:23Z</time>
      </trkpt>
      <trkpt lat="46.07119" lon="6.36362">
        <ele>463.97</ele>
        <time>2020-04-03T14:51:26Z</time>
      </trkpt>
      <trkpt lat="46.07106" lon="6.36134">
        <ele>463.97</ele>
        <time>2020-04-03T14:51:34Z</time>
      </trkpt>
      <trkpt lat="46.07089" lon="6.35804">
        <ele>460.61</ele>
        <time>2020-04-03T14:51:47Z</time>
      </trkpt>
      <trkpt lat="46.07066" lon="6.35453">
        <ele>460.13</ele>
        <time>2020-04-03T14:51:59Z</time>
      </trkpt>
      <trkpt lat="46.07037" lon="6.35005">
        <ele>459.65</ele>
        <time>2020-04-03T14:52:13Z</time>
      </trkpt>
      <trkpt lat="46.07023" lon="6.34783">
        <ele>460.13</ele>
        <time>2020-04-03T14:52:22Z</time>
      </trkpt>
      <trkpt lat="46.0702" lon="6.34732">
        <ele>461.09</ele>
        <time>2020-04-03T14:52:25Z</time>
      </trkpt>
      <trkpt lat="46.07019" lon="6.34717">
        <ele>461.57</ele>
        <time>2020-04-03T14:52:26Z</time>
      </trkpt>
      <trkpt lat="46.07019" lon="6.34703">
        <ele>462.05</ele>
        <time>2020-04-03T14:52:27Z</time>
      </trkpt>
      <trkpt lat="46.07029" lon="6.34679">
        <ele>462.05</ele>
        <time>2020-04-03T14:52:28Z</time>
      </trkpt>
      <trkpt lat="46.07029" lon="6.34679">
        <ele>462.05</ele>
        <time>2020-04-03T14:52:29Z</time>
      </trkpt>
      <trkpt lat="46.07032" lon="6.34669">
        <ele>462.05</ele>
        <time>2020-04-03T14:52:30Z</time>
      </trkpt>
      <trkpt lat="46.07028" lon="6.34653">
        <ele>462.05</ele>
        <time>2020-04-03T14:52:31Z</time>
      </trkpt>
      <trkpt lat="46.07025" lon="6.34647">
        <ele>462.05</ele>
        <time>2020-04-03T14:52:32Z</time>
      </trkpt>
      <trkpt lat="46.07014" lon="6.34625">
        <ele>462.05</ele>
        <time>2020-04-03T14:52:33Z</time>
      </trkpt>
      <trkpt lat="46.07012" lon="6.34605">
        <ele>462.05</ele>
        <time>2020-04-03T14:52:34Z</time>
      </trkpt>
      <trkpt lat="46.07011" lon="6.34583">
        <ele>462.05</ele>
        <time>2020-04-03T14:52:35Z</time>
      </trkpt>
      <trkpt lat="46.07009" lon="6.34559">
        <ele>462.05</ele>
        <time>2020-04-03T14:52:36Z</time>
      </trkpt>
      <trkpt lat="46.0699" lon="6.34261">
        <ele>464.45</ele>
        <time>2020-04-03T14:52:47Z</time>
      </trkpt>
      <trkpt lat="46.06972" lon="6.3396">
        <ele>466.86</ele>
        <time>2020-04-03T14:52:58Z</time>
      </trkpt>
      <trkpt lat="46.06953" lon="6.33697">
        <ele>467.82</ele>
        <time>2020-04-03T14:53:08Z</time>
      </trkpt>
      <trkpt lat="46.06951" lon="6.33594">
        <ele>468.78</ele>
        <time>2020-04-03T14:53:12Z</time>
      </trkpt>
      <trkpt lat="46.06954" lon="6.33569">
        <ele>469.26</ele>
        <time>2020-04-03T14:53:13Z</time>
      </trkpt>
      <trkpt lat="46.0696" lon="6.33546">
        <ele>469.74</ele>
        <time>2020-04-03T14:53:14Z</time>
      </trkpt>
      <trkpt lat="46.06967" lon="6.33521">
        <ele>470.22</ele>
        <time>2020-04-03T14:53:15Z</time>
      </trkpt>
      <trkpt lat="46.06978" lon="6.33503">
        <ele>471.18</ele>
        <time>2020-04-03T14:53:16Z</time>
      </trkpt>
      <trkpt lat="46.06991" lon="6.33484">
        <ele>471.66</ele>
        <time>2020-04-03T14:53:17Z</time>
      </trkpt>
      <trkpt lat="46.07003" lon="6.33465">
        <ele>471.66</ele>
        <time>2020-04-03T14:53:18Z</time>
      </trkpt>
      <trkpt lat="46.07099" lon="6.33305">
        <ele>473.11</ele>
        <time>2020-04-03T14:53:26Z</time>
      </trkpt>
      <trkpt lat="46.07108" lon="6.3328">
        <ele>473.11</ele>
        <time>2020-04-03T14:53:27Z</time>
      </trkpt>
      <trkpt lat="46.07143" lon="6.33106">
        <ele>475.99</ele>
        <time>2020-04-03T14:53:34Z</time>
      </trkpt>
      <trkpt lat="46.07144" lon="6.33079">
        <ele>476.95</ele>
        <time>2020-04-03T14:53:35Z</time>
      </trkpt>
      <trkpt lat="46.07142" lon="6.33052">
        <ele>477.91</ele>
        <time>2020-04-03T14:53:36Z</time>
      </trkpt>
      <trkpt lat="46.07123" lon="6.32813">
        <ele>488.49</ele>
        <time>2020-04-03T14:53:46Z</time>
      </trkpt>
      <trkpt lat="46.07123" lon="6.32799">
        <ele>489.45</ele>
        <time>2020-04-03T14:53:47Z</time>
      </trkpt>
      <trkpt lat="46.07123" lon="6.32785">
        <ele>489.93</ele>
        <time>2020-04-03T14:53:48Z</time>
      </trkpt>
      <trkpt lat="46.07134" lon="6.32777">
        <ele>490.41</ele>
        <time>2020-04-03T14:53:49Z</time>
      </trkpt>
      <trkpt lat="46.07141" lon="6.32759">
        <ele>490.89</ele>
        <time>2020-04-03T14:53:50Z</time>
      </trkpt>
      <trkpt lat="46.07152" lon="6.32752">
        <ele>491.37</ele>
        <time>2020-04-03T14:53:51Z</time>
      </trkpt>
      <trkpt lat="46.07152" lon="6.32752">
        <ele>490.89</ele>
        <time>2020-04-03T14:53:52Z</time>
      </trkpt>
      <trkpt lat="46.07174" lon="6.32728">
        <ele>490.41</ele>
        <time>2020-04-03T14:53:53Z</time>
      </trkpt>
      <trkpt lat="46.07184" lon="6.32713">
        <ele>489.45</ele>
        <time>2020-04-03T14:53:54Z</time>
      </trkpt>
      <trkpt lat="46.07221" lon="6.32657">
        <ele>486.08</ele>
        <time>2020-04-03T14:53:59Z</time>
      </trkpt>
      <trkpt lat="46.07226" lon="6.3265">
        <ele>486.08</ele>
        <time>2020-04-03T14:54:00Z</time>
      </trkpt>
      <trkpt lat="46.07235" lon="6.32646">
        <ele>485.6</ele>
        <time>2020-04-03T14:54:01Z</time>
      </trkpt>
      <trkpt lat="46.07234" lon="6.32637">
        <ele>484.64</ele>
        <time>2020-04-03T14:54:02Z</time>
      </trkpt>
      <trkpt lat="46.07224" lon="6.32634">
        <ele>484.16</ele>
        <time>2020-04-03T14:54:03Z</time>
      </trkpt>
      <trkpt lat="46.07221" lon="6.32629">
        <ele>483.68</ele>
        <time>2020-04-03T14:54:04Z</time>
      </trkpt>
      <trkpt lat="46.07215" lon="6.3262">
        <ele>483.68</ele>
        <time>2020-04-03T14:54:05Z</time>
      </trkpt>
      <trkpt lat="46.07208" lon="6.32609">
        <ele>483.68</ele>
        <time>2020-04-03T14:54:06Z</time>
      </trkpt>
      <trkpt lat="46.07202" lon="6.32596">
        <ele>484.64</ele>
        <time>2020-04-03T14:54:07Z</time>
      </trkpt>
      <trkpt lat="46.07196" lon="6.32582">
        <ele>485.6</ele>
        <time>2020-04-03T14:54:08Z</time>
      </trkpt>
      <trkpt lat="46.07194" lon="6.32564">
        <ele>487.05</ele>
        <time>2020-04-03T14:54:09Z</time>
      </trkpt>
      <trkpt lat="46.07192" lon="6.32547">
        <ele>488.01</ele>
        <time>2020-04-03T14:54:10Z</time>
      </trkpt>
      <trkpt lat="46.0719" lon="6.32533">
        <ele>488.97</ele>
        <time>2020-04-03T14:54:11Z</time>
      </trkpt>
      <trkpt lat="46.07189" lon="6.32522">
        <ele>489.93</ele>
        <time>2020-04-03T14:54:12Z</time>
      </trkpt>
      <trkpt lat="46.07187" lon="6.32513">
        <ele>490.41</ele>
        <time>2020-04-03T14:54:13Z</time>
      </trkpt>
      <trkpt lat="46.07185" lon="6.32508">
        <ele>490.89</ele>
        <time>2020-04-03T14:54:14Z</time>
      </trkpt>
      <trkpt lat="46.07174" lon="6.32508">
        <ele>491.85</ele>
        <time>2020-04-03T14:54:15Z</time>
      </trkpt>
      <trkpt lat="46.07172" lon="6.32515">
        <ele>492.81</ele>
        <time>2020-04-03T14:54:16Z</time>
      </trkpt>
      <trkpt lat="46.07168" lon="6.32524">
        <ele>492.81</ele>
        <time>2020-04-03T14:54:17Z</time>
      </trkpt>
      <trkpt lat="46.07164" lon="6.32534">
        <ele>493.77</ele>
        <time>2020-04-03T14:54:18Z</time>
      </trkpt>
      <trkpt lat="46.07158" lon="6.3255">
        <ele>498.58</ele>
        <time>2020-04-03T14:54:21Z</time>
      </trkpt>
      <trkpt lat="46.0715" lon="6.32558">
        <ele>500.02</ele>
        <time>2020-04-03T14:54:22Z</time>
      </trkpt>
      <trkpt lat="46.07148" lon="6.32557">
        <ele>500.98</ele>
        <time>2020-04-03T14:54:23Z</time>
      </trkpt>
      <trkpt lat="46.07148" lon="6.32557">
        <ele>501.95</ele>
        <time>2020-04-03T14:54:35Z</time>
      </trkpt>
      <trkpt lat="46.07159" lon="6.32577">
        <ele>501.95</ele>
        <time>2020-04-03T15:28:20Z</time>
      </trkpt>
      <trkpt lat="46.07148" lon="6.32557">
        <ele>495.22</ele>
        <time>2020-04-03T15:28:34Z</time>
      </trkpt>
      <trkpt lat="46.07157" lon="6.32553">
        <ele>495.22</ele>
        <time>2020-04-03T15:28:35Z</time>
      </trkpt>
      <trkpt lat="46.07154" lon="6.3256">
        <ele>495.7</ele>
        <time>2020-04-03T15:28:36Z</time>
      </trkpt>
      <trkpt lat="46.0715" lon="6.32587">
        <ele>496.18</ele>
        <time>2020-04-03T15:28:38Z</time>
      </trkpt>
      <trkpt lat="46.07146" lon="6.32597">
        <ele>496.66</ele>
        <time>2020-04-03T15:28:39Z</time>
      </trkpt>
      <trkpt lat="46.07138" lon="6.32613">
        <ele>497.14</ele>
        <time>2020-04-03T15:28:41Z</time>
      </trkpt>
      <trkpt lat="46.0713" lon="6.32602">
        <ele>497.14</ele>
        <time>2020-04-03T15:28:42Z</time>
      </trkpt>
      <trkpt lat="46.07135" lon="6.32627">
        <ele>497.14</ele>
        <time>2020-04-03T15:28:43Z</time>
      </trkpt>
      <trkpt lat="46.0713" lon="6.32649">
        <ele>496.66</ele>
        <time>2020-04-03T15:28:44Z</time>
      </trkpt>
      <trkpt lat="46.0713" lon="6.32655">
        <ele>496.66</ele>
        <time>2020-04-03T15:28:45Z</time>
      </trkpt>
      <trkpt lat="46.07132" lon="6.32668">
        <ele>496.18</ele>
        <time>2020-04-03T15:28:46Z</time>
      </trkpt>
      <trkpt lat="46.07133" lon="6.32681">
        <ele>495.22</ele>
        <time>2020-04-03T15:28:47Z</time>
      </trkpt>
      <trkpt lat="46.07134" lon="6.32692">
        <ele>494.26</ele>
        <time>2020-04-03T15:28:48Z</time>
      </trkpt>
      <trkpt lat="46.0714" lon="6.32699">
        <ele>493.77</ele>
        <time>2020-04-03T15:28:49Z</time>
      </trkpt>
      <trkpt lat="46.07147" lon="6.32705">
        <ele>492.81</ele>
        <time>2020-04-03T15:28:50Z</time>
      </trkpt>
      <trkpt lat="46.07153" lon="6.32712">
        <ele>492.33</ele>
        <time>2020-04-03T15:28:51Z</time>
      </trkpt>
      <trkpt lat="46.07164" lon="6.32706">
        <ele>491.37</ele>
        <time>2020-04-03T15:28:52Z</time>
      </trkpt>
      <trkpt lat="46.07171" lon="6.327">
        <ele>489.93</ele>
        <time>2020-04-03T15:28:53Z</time>
      </trkpt>
      <trkpt lat="46.07179" lon="6.32692">
        <ele>488.97</ele>
        <time>2020-04-03T15:28:54Z</time>
      </trkpt>
      <trkpt lat="46.07186" lon="6.3268">
        <ele>488.01</ele>
        <time>2020-04-03T15:28:55Z</time>
      </trkpt>
      <trkpt lat="46.07193" lon="6.32667">
        <ele>487.53</ele>
        <time>2020-04-03T15:28:56Z</time>
      </trkpt>
      <trkpt lat="46.07199" lon="6.32657">
        <ele>486.56</ele>
        <time>2020-04-03T15:28:57Z</time>
      </trkpt>
      <trkpt lat="46.07207" lon="6.32643">
        <ele>486.08</ele>
        <time>2020-04-03T15:28:58Z</time>
      </trkpt>
      <trkpt lat="46.07207" lon="6.32638">
        <ele>486.08</ele>
        <time>2020-04-03T15:28:59Z</time>
      </trkpt>
      <trkpt lat="46.07208" lon="6.3263">
        <ele>485.6</ele>
        <time>2020-04-03T15:29:00Z</time>
      </trkpt>
      <trkpt lat="46.07208" lon="6.32624">
        <ele>485.6</ele>
        <time>2020-04-03T15:29:01Z</time>
      </trkpt>
      <trkpt lat="46.07208" lon="6.3262">
        <ele>485.6</ele>
        <time>2020-04-03T15:29:02Z</time>
      </trkpt>
      <trkpt lat="46.07213" lon="6.32618">
        <ele>485.12</ele>
        <time>2020-04-03T15:29:03Z</time>
      </trkpt>
      <trkpt lat="46.07216" lon="6.32622">
        <ele>485.12</ele>
        <time>2020-04-03T15:29:04Z</time>
      </trkpt>
      <trkpt lat="46.07219" lon="6.32627">
        <ele>484.64</ele>
        <time>2020-04-03T15:29:05Z</time>
      </trkpt>
      <trkpt lat="46.07224" lon="6.32634">
        <ele>484.16</ele>
        <time>2020-04-03T15:29:06Z</time>
      </trkpt>
      <trkpt lat="46.07225" lon="6.32643">
        <ele>484.16</ele>
        <time>2020-04-03T15:29:07Z</time>
      </trkpt>
      <trkpt lat="46.0722" lon="6.32658">
        <ele>483.68</ele>
        <time>2020-04-03T15:29:08Z</time>
      </trkpt>
      <trkpt lat="46.07214" lon="6.32667">
        <ele>484.16</ele>
        <time>2020-04-03T15:29:09Z</time>
      </trkpt>
      <trkpt lat="46.07206" lon="6.32678">
        <ele>484.16</ele>
        <time>2020-04-03T15:29:10Z</time>
      </trkpt>
      <trkpt lat="46.07164" lon="6.32741">
        <ele>486.08</ele>
        <time>2020-04-03T15:29:15Z</time>
      </trkpt>
      <trkpt lat="46.07157" lon="6.32748">
        <ele>486.56</ele>
        <time>2020-04-03T15:29:16Z</time>
      </trkpt>
      <trkpt lat="46.07147" lon="6.32757">
        <ele>487.05</ele>
        <time>2020-04-03T15:29:17Z</time>
      </trkpt>
      <trkpt lat="46.07136" lon="6.3275">
        <ele>488.01</ele>
        <time>2020-04-03T15:29:18Z</time>
      </trkpt>
      <trkpt lat="46.07134" lon="6.32749">
        <ele>488.49</ele>
        <time>2020-04-03T15:29:19Z</time>
      </trkpt>
      <trkpt lat="46.07125" lon="6.32738">
        <ele>489.45</ele>
        <time>2020-04-03T15:29:20Z</time>
      </trkpt>
      <trkpt lat="46.07123" lon="6.32724">
        <ele>489.93</ele>
        <time>2020-04-03T15:29:21Z</time>
      </trkpt>
      <trkpt lat="46.07121" lon="6.32706">
        <ele>490.41</ele>
        <time>2020-04-03T15:29:22Z</time>
      </trkpt>
      <trkpt lat="46.07119" lon="6.32683">
        <ele>490.89</ele>
        <time>2020-04-03T15:29:23Z</time>
      </trkpt>
      <trkpt lat="46.07102" lon="6.32524">
        <ele>496.18</ele>
        <time>2020-04-03T15:29:28Z</time>
      </trkpt>
      <trkpt lat="46.07045" lon="6.32298">
        <ele>505.31</ele>
        <time>2020-04-03T15:29:36Z</time>
      </trkpt>
      <trkpt lat="46.07025" lon="6.32178">
        <ele>510.12</ele>
        <time>2020-04-03T15:29:41Z</time>
      </trkpt>
      <trkpt lat="46.07025" lon="6.32159">
        <ele>511.08</ele>
        <time>2020-04-03T15:29:42Z</time>
      </trkpt>
      <trkpt lat="46.07026" lon="6.32141">
        <ele>511.56</ele>
        <time>2020-04-03T15:29:43Z</time>
      </trkpt>
      <trkpt lat="46.07027" lon="6.32116">
        <ele>512.04</ele>
        <time>2020-04-03T15:29:45Z</time>
      </trkpt>
      <trkpt lat="46.07027" lon="6.32107">
        <ele>512.52</ele>
        <time>2020-04-03T15:29:46Z</time>
      </trkpt>
      <trkpt lat="46.0702" lon="6.321">
        <ele>513.48</ele>
        <time>2020-04-03T15:29:47Z</time>
      </trkpt>
      <trkpt lat="46.07014" lon="6.32098">
        <ele>514.44</ele>
        <time>2020-04-03T15:29:48Z</time>
      </trkpt>
      <trkpt lat="46.07005" lon="6.32096">
        <ele>515.4</ele>
        <time>2020-04-03T15:29:49Z</time>
      </trkpt>
      <trkpt lat="46.06997" lon="6.32093">
        <ele>515.88</ele>
        <time>2020-04-03T15:29:50Z</time>
      </trkpt>
      <trkpt lat="46.06989" lon="6.3209">
        <ele>514.92</ele>
        <time>2020-04-03T15:29:51Z</time>
      </trkpt>
      <trkpt lat="46.0698" lon="6.32081">
        <ele>514.92</ele>
        <time>2020-04-03T15:29:52Z</time>
      </trkpt>
      <trkpt lat="46.06975" lon="6.32067">
        <ele>515.4</ele>
        <time>2020-04-03T15:29:53Z</time>
      </trkpt>
      <trkpt lat="46.0697" lon="6.32051">
        <ele>515.4</ele>
        <time>2020-04-03T15:29:54Z</time>
      </trkpt>
      <trkpt lat="46.06956" lon="6.32001">
        <ele>516.37</ele>
        <time>2020-04-03T15:29:57Z</time>
      </trkpt>
      <trkpt lat="46.06934" lon="6.3193">
        <ele>517.33</ele>
        <time>2020-04-03T15:30:02Z</time>
      </trkpt>
      <trkpt lat="46.06908" lon="6.31848">
        <ele>518.29</ele>
        <time>2020-04-03T15:30:08Z</time>
      </trkpt>
      <trkpt lat="46.06904" lon="6.31836">
        <ele>518.77</ele>
        <time>2020-04-03T15:30:09Z</time>
      </trkpt>
      <trkpt lat="46.06892" lon="6.31796">
        <ele>518.77</ele>
        <time>2020-04-03T15:30:12Z</time>
      </trkpt>
      <trkpt lat="46.06832" lon="6.31602">
        <ele>527.42</ele>
        <time>2020-04-03T15:30:25Z</time>
      </trkpt>
      <trkpt lat="46.06808" lon="6.31529">
        <ele>530.79</ele>
        <time>2020-04-03T15:30:30Z</time>
      </trkpt>
      <trkpt lat="46.06773" lon="6.31426">
        <ele>534.63</ele>
        <time>2020-04-03T15:30:39Z</time>
      </trkpt>
      <trkpt lat="46.06764" lon="6.31408">
        <ele>535.11</ele>
        <time>2020-04-03T15:30:41Z</time>
      </trkpt>
      <trkpt lat="46.0676" lon="6.31401">
        <ele>535.59</ele>
        <time>2020-04-03T15:30:42Z</time>
      </trkpt>
      <trkpt lat="46.06757" lon="6.31394">
        <ele>536.07</ele>
        <time>2020-04-03T15:30:43Z</time>
      </trkpt>
      <trkpt lat="46.06755" lon="6.31389">
        <ele>536.55</ele>
        <time>2020-04-03T15:30:44Z</time>
      </trkpt>
      <trkpt lat="46.06752" lon="6.31382">
        <ele>537.03</ele>
        <time>2020-04-03T15:30:45Z</time>
      </trkpt>
      <trkpt lat="46.06752" lon="6.31373">
        <ele>537.51</ele>
        <time>2020-04-03T15:30:46Z</time>
      </trkpt>
      <trkpt lat="46.06751" lon="6.31362">
        <ele>537.99</ele>
        <time>2020-04-03T15:30:47Z</time>
      </trkpt>
      <trkpt lat="46.06751" lon="6.31349">
        <ele>538.48</ele>
        <time>2020-04-03T15:30:48Z</time>
      </trkpt>
      <trkpt lat="46.0675" lon="6.31336">
        <ele>538.96</ele>
        <time>2020-04-03T15:30:49Z</time>
      </trkpt>
      <trkpt lat="46.06748" lon="6.31326">
        <ele>539.44</ele>
        <time>2020-04-03T15:30:50Z</time>
      </trkpt>
      <trkpt lat="46.06745" lon="6.31318">
        <ele>539.92</ele>
        <time>2020-04-03T15:30:51Z</time>
      </trkpt>
      <trkpt lat="46.06743" lon="6.31311">
        <ele>540.4</ele>
        <time>2020-04-03T15:30:52Z</time>
      </trkpt>
      <trkpt lat="46.06741" lon="6.31304">
        <ele>540.88</ele>
        <time>2020-04-03T15:30:53Z</time>
      </trkpt>
      <trkpt lat="46.0674" lon="6.313">
        <ele>540.88</ele>
        <time>2020-04-03T15:30:54Z</time>
      </trkpt>
      <trkpt lat="46.06738" lon="6.31295">
        <ele>540.88</ele>
        <time>2020-04-03T15:30:55Z</time>
      </trkpt>
      <trkpt lat="46.06732" lon="6.3128">
        <ele>540.88</ele>
        <time>2020-04-03T15:30:58Z</time>
      </trkpt>
      <trkpt lat="46.0673" lon="6.31274">
        <ele>540.4</ele>
        <time>2020-04-03T15:30:59Z</time>
      </trkpt>
      <trkpt lat="46.06728" lon="6.3127">
        <ele>539.92</ele>
        <time>2020-04-03T15:31:00Z</time>
      </trkpt>
      <trkpt lat="46.06726" lon="6.31246">
        <ele>539.44</ele>
        <time>2020-04-03T15:31:01Z</time>
      </trkpt>
      <trkpt lat="46.06725" lon="6.31239">
        <ele>538.96</ele>
        <time>2020-04-03T15:31:02Z</time>
      </trkpt>
      <trkpt lat="46.06722" lon="6.31214">
        <ele>538.48</ele>
        <time>2020-04-03T15:31:04Z</time>
      </trkpt>
      <trkpt lat="46.06718" lon="6.31207">
        <ele>537.99</ele>
        <time>2020-04-03T15:31:05Z</time>
      </trkpt>
      <trkpt lat="46.06683" lon="6.31165">
        <ele>536.55</ele>
        <time>2020-04-03T15:31:11Z</time>
      </trkpt>
      <trkpt lat="46.06677" lon="6.31158">
        <ele>536.07</ele>
        <time>2020-04-03T15:31:12Z</time>
      </trkpt>
      <trkpt lat="46.06671" lon="6.31151">
        <ele>536.07</ele>
        <time>2020-04-03T15:31:13Z</time>
      </trkpt>
      <trkpt lat="46.06665" lon="6.31144">
        <ele>536.07</ele>
        <time>2020-04-03T15:31:14Z</time>
      </trkpt>
      <trkpt lat="46.06658" lon="6.3114">
        <ele>536.55</ele>
        <time>2020-04-03T15:31:15Z</time>
      </trkpt>
      <trkpt lat="46.06645" lon="6.31131">
        <ele>536.55</ele>
        <time>2020-04-03T15:31:17Z</time>
      </trkpt>
      <trkpt lat="46.06638" lon="6.31126">
        <ele>537.03</ele>
        <time>2020-04-03T15:31:18Z</time>
      </trkpt>
      <trkpt lat="46.06631" lon="6.31121">
        <ele>537.51</ele>
        <time>2020-04-03T15:31:19Z</time>
      </trkpt>
      <trkpt lat="46.06624" lon="6.31116">
        <ele>538.48</ele>
        <time>2020-04-03T15:31:20Z</time>
      </trkpt>
      <trkpt lat="46.06618" lon="6.31111">
        <ele>538.96</ele>
        <time>2020-04-03T15:31:21Z</time>
      </trkpt>
      <trkpt lat="46.06612" lon="6.31107">
        <ele>539.92</ele>
        <time>2020-04-03T15:31:22Z</time>
      </trkpt>
      <trkpt lat="46.06606" lon="6.31103">
        <ele>540.4</ele>
        <time>2020-04-03T15:31:23Z</time>
      </trkpt>
      <trkpt lat="46.06601" lon="6.311">
        <ele>541.36</ele>
        <time>2020-04-03T15:31:24Z</time>
      </trkpt>
      <trkpt lat="46.066" lon="6.31084">
        <ele>541.84</ele>
        <time>2020-04-03T15:31:25Z</time>
      </trkpt>
      <trkpt lat="46.06601" lon="6.31073">
        <ele>542.32</ele>
        <time>2020-04-03T15:31:26Z</time>
      </trkpt>
      <trkpt lat="46.06604" lon="6.31058">
        <ele>543.76</ele>
        <time>2020-04-03T15:31:27Z</time>
      </trkpt>
      <trkpt lat="46.06605" lon="6.31041">
        <ele>544.72</ele>
        <time>2020-04-03T15:31:28Z</time>
      </trkpt>
      <trkpt lat="46.0662" lon="6.30962">
        <ele>550.49</ele>
        <time>2020-04-03T15:31:34Z</time>
      </trkpt>
      <trkpt lat="46.06622" lon="6.30953">
        <ele>551.45</ele>
        <time>2020-04-03T15:31:35Z</time>
      </trkpt>
      <trkpt lat="46.0663" lon="6.30916">
        <ele>555.3</ele>
        <time>2020-04-03T15:31:38Z</time>
      </trkpt>
      <trkpt lat="46.06636" lon="6.30905">
        <ele>556.26</ele>
        <time>2020-04-03T15:31:39Z</time>
      </trkpt>
      <trkpt lat="46.06649" lon="6.30911">
        <ele>557.22</ele>
        <time>2020-04-03T15:31:40Z</time>
      </trkpt>
      <trkpt lat="46.06653" lon="6.3091">
        <ele>558.18</ele>
        <time>2020-04-03T15:31:41Z</time>
      </trkpt>
      <trkpt lat="46.06663" lon="6.30908">
        <ele>558.66</ele>
        <time>2020-04-03T15:31:42Z</time>
      </trkpt>
      <trkpt lat="46.06689" lon="6.30901">
        <ele>560.11</ele>
        <time>2020-04-03T15:31:45Z</time>
      </trkpt>
      <trkpt lat="46.06696" lon="6.30894">
        <ele>560.11</ele>
        <time>2020-04-03T15:31:46Z</time>
      </trkpt>
      <trkpt lat="46.06703" lon="6.30884">
        <ele>560.11</ele>
        <time>2020-04-03T15:31:47Z</time>
      </trkpt>
      <trkpt lat="46.0671" lon="6.30873">
        <ele>560.11</ele>
        <time>2020-04-03T15:31:48Z</time>
      </trkpt>
      <trkpt lat="46.06717" lon="6.30861">
        <ele>560.59</ele>
        <time>2020-04-03T15:31:49Z</time>
      </trkpt>
      <trkpt lat="46.06738" lon="6.30829">
        <ele>560.11</ele>
        <time>2020-04-03T15:31:52Z</time>
      </trkpt>
      <trkpt lat="46.06743" lon="6.30821">
        <ele>560.11</ele>
        <time>2020-04-03T15:31:53Z</time>
      </trkpt>
      <trkpt lat="46.06747" lon="6.30816">
        <ele>560.11</ele>
        <time>2020-04-03T15:31:54Z</time>
      </trkpt>
      <trkpt lat="46.06749" lon="6.30813">
        <ele>560.11</ele>
        <time>2020-04-03T15:31:55Z</time>
      </trkpt>
      <trkpt lat="46.06747" lon="6.30806">
        <ele>560.11</ele>
        <time>2020-04-03T15:32:04Z</time>
      </trkpt>
    </trkseg>
  </trk>
  <trk>
    <name><![CDATA[Journal actif: 2020-04-04 16:30]]></name>
    <trkseg>
      <trkpt lat="46.06767" lon="6.30791">
        <ele>558.66</ele>
        <time>2020-04-04T14:30:35Z</time>
      </trkpt>
      <trkpt lat="46.0677" lon="6.30789">
        <ele>559.14</ele>
        <time>2020-04-04T14:30:36Z</time>
      </trkpt>
      <trkpt lat="46.06773" lon="6.30786">
        <ele>559.62</ele>
        <time>2020-04-04T14:30:37Z</time>
      </trkpt>
      <trkpt lat="46.06778" lon="6.30782">
        <ele>560.11</ele>
        <time>2020-04-04T14:30:38Z</time>
      </trkpt>
      <trkpt lat="46.06782" lon="6.30779">
        <ele>560.59</ele>
        <time>2020-04-04T14:30:39Z</time>
      </trkpt>
      <trkpt lat="46.06788" lon="6.30775">
        <ele>561.07</ele>
        <time>2020-04-04T14:30:40Z</time>
      </trkpt>
      <trkpt lat="46.06799" lon="6.30765">
        <ele>562.03</ele>
        <time>2020-04-04T14:30:43Z</time>
      </trkpt>
      <trkpt lat="46.06797" lon="6.30756">
        <ele>562.03</ele>
        <time>2020-04-04T14:30:44Z</time>
      </trkpt>
      <trkpt lat="46.06797" lon="6.30755">
        <ele>562.51</ele>
        <time>2020-04-04T14:30:45Z</time>
      </trkpt>
      <trkpt lat="46.06795" lon="6.30744">
        <ele>563.47</ele>
        <time>2020-04-04T14:30:47Z</time>
      </trkpt>
      <trkpt lat="46.06793" lon="6.30734">
        <ele>563.47</ele>
        <time>2020-04-04T14:30:48Z</time>
      </trkpt>
      <trkpt lat="46.0679" lon="6.30722">
        <ele>563.47</ele>
        <time>2020-04-04T14:30:49Z</time>
      </trkpt>
      <trkpt lat="46.06786" lon="6.30705">
        <ele>563.95</ele>
        <time>2020-04-04T14:30:50Z</time>
      </trkpt>
      <trkpt lat="46.06786" lon="6.30693">
        <ele>563.95</ele>
        <time>2020-04-04T14:30:51Z</time>
      </trkpt>
      <trkpt lat="46.06785" lon="6.30678">
        <ele>563.95</ele>
        <time>2020-04-04T14:30:52Z</time>
      </trkpt>
      <trkpt lat="46.06784" lon="6.30663">
        <ele>563.95</ele>
        <time>2020-04-04T14:30:53Z</time>
      </trkpt>
      <trkpt lat="46.06784" lon="6.3065">
        <ele>563.95</ele>
        <time>2020-04-04T14:30:54Z</time>
      </trkpt>
      <trkpt lat="46.06786" lon="6.30594">
        <ele>564.43</ele>
        <time>2020-04-04T14:30:58Z</time>
      </trkpt>
      <trkpt lat="46.0679" lon="6.30578">
        <ele>564.43</ele>
        <time>2020-04-04T14:30:59Z</time>
      </trkpt>
      <trkpt lat="46.06798" lon="6.30552">
        <ele>566.35</ele>
        <time>2020-04-04T14:31:01Z</time>
      </trkpt>
      <trkpt lat="46.06807" lon="6.30529">
        <ele>566.83</ele>
        <time>2020-04-04T14:31:03Z</time>
      </trkpt>
      <trkpt lat="46.0681" lon="6.30519">
        <ele>567.32</ele>
        <time>2020-04-04T14:31:04Z</time>
      </trkpt>
      <trkpt lat="46.06816" lon="6.30502">
        <ele>568.28</ele>
        <time>2020-04-04T14:31:06Z</time>
      </trkpt>
      <trkpt lat="46.06819" lon="6.30495">
        <ele>568.76</ele>
        <time>2020-04-04T14:31:07Z</time>
      </trkpt>
      <trkpt lat="46.06827" lon="6.30471">
        <ele>570.68</ele>
        <time>2020-04-04T14:31:10Z</time>
      </trkpt>
      <trkpt lat="46.06832" lon="6.30456">
        <ele>571.16</ele>
        <time>2020-04-04T14:31:12Z</time>
      </trkpt>
      <trkpt lat="46.06835" lon="6.30447">
        <ele>571.64</ele>
        <time>2020-04-04T14:31:13Z</time>
      </trkpt>
      <trkpt lat="46.06858" lon="6.30368">
        <ele>574.04</ele>
        <time>2020-04-04T14:31:19Z</time>
      </trkpt>
      <trkpt lat="46.06858" lon="6.30354">
        <ele>574.53</ele>
        <time>2020-04-04T14:31:20Z</time>
      </trkpt>
      <trkpt lat="46.06859" lon="6.30339">
        <ele>575.49</ele>
        <time>2020-04-04T14:31:21Z</time>
      </trkpt>
      <trkpt lat="46.06859" lon="6.30324">
        <ele>575.49</ele>
        <time>2020-04-04T14:31:22Z</time>
      </trkpt>
      <trkpt lat="46.0686" lon="6.3031">
        <ele>575.97</ele>
        <time>2020-04-04T14:31:23Z</time>
      </trkpt>
      <trkpt lat="46.06863" lon="6.30251">
        <ele>578.37</ele>
        <time>2020-04-04T14:31:28Z</time>
      </trkpt>
      <trkpt lat="46.06866" lon="6.30242">
        <ele>578.85</ele>
        <time>2020-04-04T14:31:29Z</time>
      </trkpt>
      <trkpt lat="46.06885" lon="6.30233">
        <ele>579.81</ele>
        <time>2020-04-04T14:31:31Z</time>
      </trkpt>
      <trkpt lat="46.06893" lon="6.30229">
        <ele>580.29</ele>
        <time>2020-04-04T14:31:32Z</time>
      </trkpt>
      <trkpt lat="46.06947" lon="6.30198">
        <ele>583.18</ele>
        <time>2020-04-04T14:31:37Z</time>
      </trkpt>
      <trkpt lat="46.06971" lon="6.30177">
        <ele>582.7</ele>
        <time>2020-04-04T14:31:39Z</time>
      </trkpt>
      <trkpt lat="46.06982" lon="6.30166">
        <ele>582.7</ele>
        <time>2020-04-04T14:31:40Z</time>
      </trkpt>
      <trkpt lat="46.07046" lon="6.30074">
        <ele>584.14</ele>
        <time>2020-04-04T14:31:47Z</time>
      </trkpt>
      <trkpt lat="46.07052" lon="6.30066">
        <ele>585.1</ele>
        <time>2020-04-04T14:31:48Z</time>
      </trkpt>
      <trkpt lat="46.07057" lon="6.3006">
        <ele>585.58</ele>
        <time>2020-04-04T14:31:49Z</time>
      </trkpt>
      <trkpt lat="46.07063" lon="6.30055">
        <ele>586.06</ele>
        <time>2020-04-04T14:31:50Z</time>
      </trkpt>
      <trkpt lat="46.07078" lon="6.30057">
        <ele>586.54</ele>
        <time>2020-04-04T14:31:51Z</time>
      </trkpt>
      <trkpt lat="46.07078" lon="6.30057">
        <ele>586.54</ele>
        <time>2020-04-04T14:31:52Z</time>
      </trkpt>
      <trkpt lat="46.07087" lon="6.30059">
        <ele>587.02</ele>
        <time>2020-04-04T14:31:53Z</time>
      </trkpt>
      <trkpt lat="46.07093" lon="6.30053">
        <ele>587.5</ele>
        <time>2020-04-04T14:31:54Z</time>
      </trkpt>
      <trkpt lat="46.07101" lon="6.30038">
        <ele>587.5</ele>
        <time>2020-04-04T14:31:55Z</time>
      </trkpt>
      <trkpt lat="46.07111" lon="6.30029">
        <ele>587.5</ele>
        <time>2020-04-04T14:31:56Z</time>
      </trkpt>
      <trkpt lat="46.07122" lon="6.3002">
        <ele>587.98</ele>
        <time>2020-04-04T14:31:57Z</time>
      </trkpt>
      <trkpt lat="46.07134" lon="6.3001">
        <ele>587.98</ele>
        <time>2020-04-04T14:31:58Z</time>
      </trkpt>
      <trkpt lat="46.07146" lon="6.3">
        <ele>588.46</ele>
        <time>2020-04-04T14:31:59Z</time>
      </trkpt>
      <trkpt lat="46.07257" lon="6.29909">
        <ele>589.91</ele>
        <time>2020-04-04T14:32:08Z</time>
      </trkpt>
      <trkpt lat="46.07326" lon="6.29855">
        <ele>592.31</ele>
        <time>2020-04-04T14:32:16Z</time>
      </trkpt>
      <trkpt lat="46.07395" lon="6.29805">
        <ele>593.75</ele>
        <time>2020-04-04T14:32:23Z</time>
      </trkpt>
      <trkpt lat="46.07496" lon="6.29744">
        <ele>594.23</ele>
        <time>2020-04-04T14:32:29Z</time>
      </trkpt>
      <trkpt lat="46.07511" lon="6.29737">
        <ele>594.23</ele>
        <time>2020-04-04T14:32:30Z</time>
      </trkpt>
      <trkpt lat="46.07539" lon="6.29737">
        <ele>594.71</ele>
        <time>2020-04-04T14:32:32Z</time>
      </trkpt>
      <trkpt lat="46.07553" lon="6.29737">
        <ele>595.19</ele>
        <time>2020-04-04T14:32:33Z</time>
      </trkpt>
      <trkpt lat="46.07576" lon="6.29742">
        <ele>596.15</ele>
        <time>2020-04-04T14:32:35Z</time>
      </trkpt>
      <trkpt lat="46.0761" lon="6.29757">
        <ele>595.19</ele>
        <time>2020-04-04T14:32:39Z</time>
      </trkpt>
      <trkpt lat="46.07617" lon="6.29759">
        <ele>593.27</ele>
        <time>2020-04-04T14:32:41Z</time>
      </trkpt>
      <trkpt lat="46.07638" lon="6.29705">
        <ele>592.79</ele>
        <time>2020-04-04T14:32:43Z</time>
      </trkpt>
      <trkpt lat="46.0764" lon="6.29703">
        <ele>593.27</ele>
        <time>2020-04-04T14:32:44Z</time>
      </trkpt>
      <trkpt lat="46.07652" lon="6.29692">
        <ele>593.27</ele>
        <time>2020-04-04T14:32:45Z</time>
      </trkpt>
      <trkpt lat="46.07696" lon="6.29691">
        <ele>592.31</ele>
        <time>2020-04-04T14:32:48Z</time>
      </trkpt>
      <trkpt lat="46.07723" lon="6.29691">
        <ele>591.35</ele>
        <time>2020-04-04T14:32:52Z</time>
      </trkpt>
      <trkpt lat="46.07729" lon="6.29697">
        <ele>590.39</ele>
        <time>2020-04-04T14:32:55Z</time>
      </trkpt>
      <trkpt lat="46.07753" lon="6.29761">
        <ele>588.46</ele>
        <time>2020-04-04T14:32:59Z</time>
      </trkpt>
      <trkpt lat="46.07791" lon="6.2989">
        <ele>583.66</ele>
        <time>2020-04-04T14:33:03Z</time>
      </trkpt>
      <trkpt lat="46.07794" lon="6.29922">
        <ele>582.22</ele>
        <time>2020-04-04T14:33:04Z</time>
      </trkpt>
      <trkpt lat="46.07796" lon="6.29952">
        <ele>580.77</ele>
        <time>2020-04-04T14:33:05Z</time>
      </trkpt>
      <trkpt lat="46.07798" lon="6.2998">
        <ele>579.33</ele>
        <time>2020-04-04T14:33:06Z</time>
      </trkpt>
      <trkpt lat="46.07798" lon="6.30009">
        <ele>577.89</ele>
        <time>2020-04-04T14:33:07Z</time>
      </trkpt>
      <trkpt lat="46.07795" lon="6.30037">
        <ele>576.45</ele>
        <time>2020-04-04T14:33:08Z</time>
      </trkpt>
      <trkpt lat="46.07793" lon="6.30064">
        <ele>575.01</ele>
        <time>2020-04-04T14:33:09Z</time>
      </trkpt>
      <trkpt lat="46.07787" lon="6.30092">
        <ele>573.56</ele>
        <time>2020-04-04T14:33:10Z</time>
      </trkpt>
      <trkpt lat="46.07781" lon="6.30119">
        <ele>572.12</ele>
        <time>2020-04-04T14:33:11Z</time>
      </trkpt>
      <trkpt lat="46.07773" lon="6.30146">
        <ele>571.16</ele>
        <time>2020-04-04T14:33:12Z</time>
      </trkpt>
      <trkpt lat="46.07764" lon="6.30171">
        <ele>569.24</ele>
        <time>2020-04-04T14:33:13Z</time>
      </trkpt>
      <trkpt lat="46.07752" lon="6.30196">
        <ele>567.8</ele>
        <time>2020-04-04T14:33:14Z</time>
      </trkpt>
      <trkpt lat="46.07739" lon="6.3022">
        <ele>566.35</ele>
        <time>2020-04-04T14:33:15Z</time>
      </trkpt>
      <trkpt lat="46.07727" lon="6.30244">
        <ele>564.91</ele>
        <time>2020-04-04T14:33:16Z</time>
      </trkpt>
      <trkpt lat="46.07643" lon="6.3039">
        <ele>554.82</ele>
        <time>2020-04-04T14:33:24Z</time>
      </trkpt>
      <trkpt lat="46.07636" lon="6.30402">
        <ele>553.86</ele>
        <time>2020-04-04T14:33:25Z</time>
      </trkpt>
      <trkpt lat="46.0763" lon="6.30413">
        <ele>552.9</ele>
        <time>2020-04-04T14:33:26Z</time>
      </trkpt>
      <trkpt lat="46.07619" lon="6.30419">
        <ele>552.9</ele>
        <time>2020-04-04T14:33:27Z</time>
      </trkpt>
      <trkpt lat="46.07612" lon="6.30419">
        <ele>552.41</ele>
        <time>2020-04-04T14:33:28Z</time>
      </trkpt>
      <trkpt lat="46.07605" lon="6.30421">
        <ele>550.97</ele>
        <time>2020-04-04T14:33:29Z</time>
      </trkpt>
      <trkpt lat="46.076" lon="6.30429">
        <ele>550.01</ele>
        <time>2020-04-04T14:33:30Z</time>
      </trkpt>
      <trkpt lat="46.07602" lon="6.30443">
        <ele>549.05</ele>
        <time>2020-04-04T14:33:31Z</time>
      </trkpt>
      <trkpt lat="46.076" lon="6.30461">
        <ele>548.57</ele>
        <time>2020-04-04T14:33:32Z</time>
      </trkpt>
      <trkpt lat="46.07593" lon="6.30474">
        <ele>547.61</ele>
        <time>2020-04-04T14:33:33Z</time>
      </trkpt>
      <trkpt lat="46.07584" lon="6.30492">
        <ele>546.65</ele>
        <time>2020-04-04T14:33:34Z</time>
      </trkpt>
      <trkpt lat="46.07532" lon="6.30622">
        <ele>541.84</ele>
        <time>2020-04-04T14:33:39Z</time>
      </trkpt>
      <trkpt lat="46.07486" lon="6.30815">
        <ele>537.03</ele>
        <time>2020-04-04T14:33:46Z</time>
      </trkpt>
      <trkpt lat="46.07469" lon="6.31051">
        <ele>527.9</ele>
        <time>2020-04-04T14:33:53Z</time>
      </trkpt>
      <trkpt lat="46.07448" lon="6.31235">
        <ele>518.77</ele>
        <time>2020-04-04T14:34:00Z</time>
      </trkpt>
      <trkpt lat="46.07423" lon="6.31307">
        <ele>515.4</ele>
        <time>2020-04-04T14:34:05Z</time>
      </trkpt>
      <trkpt lat="46.07414" lon="6.31329">
        <ele>514.44</ele>
        <time>2020-04-04T14:34:07Z</time>
      </trkpt>
      <trkpt lat="46.07405" lon="6.31337">
        <ele>514.44</ele>
        <time>2020-04-04T14:34:08Z</time>
      </trkpt>
      <trkpt lat="46.07398" lon="6.31348">
        <ele>514.44</ele>
        <time>2020-04-04T14:34:09Z</time>
      </trkpt>
      <trkpt lat="46.07394" lon="6.31362">
        <ele>514.44</ele>
        <time>2020-04-04T14:34:10Z</time>
      </trkpt>
      <trkpt lat="46.07397" lon="6.31379">
        <ele>514.44</ele>
        <time>2020-04-04T14:34:11Z</time>
      </trkpt>
      <trkpt lat="46.074" lon="6.31394">
        <ele>513.96</ele>
        <time>2020-04-04T14:34:12Z</time>
      </trkpt>
      <trkpt lat="46.07394" lon="6.31411">
        <ele>513.96</ele>
        <time>2020-04-04T14:34:13Z</time>
      </trkpt>
      <trkpt lat="46.07389" lon="6.31425">
        <ele>513.96</ele>
        <time>2020-04-04T14:34:14Z</time>
      </trkpt>
      <trkpt lat="46.07374" lon="6.31459">
        <ele>513.48</ele>
        <time>2020-04-04T14:34:16Z</time>
      </trkpt>
      <trkpt lat="46.07281" lon="6.31575">
        <ele>511.08</ele>
        <time>2020-04-04T14:34:23Z</time>
      </trkpt>
      <trkpt lat="46.07136" lon="6.31797">
        <ele>509.64</ele>
        <time>2020-04-04T14:34:34Z</time>
      </trkpt>
      <trkpt lat="46.07055" lon="6.31987">
        <ele>508.67</ele>
        <time>2020-04-04T14:34:42Z</time>
      </trkpt>
      <trkpt lat="46.07025" lon="6.32059">
        <ele>507.71</ele>
        <time>2020-04-04T14:34:46Z</time>
      </trkpt>
      <trkpt lat="46.07019" lon="6.32069">
        <ele>507.71</ele>
        <time>2020-04-04T14:34:47Z</time>
      </trkpt>
      <trkpt lat="46.07012" lon="6.32078">
        <ele>507.71</ele>
        <time>2020-04-04T14:34:48Z</time>
      </trkpt>
      <trkpt lat="46.07006" lon="6.32085">
        <ele>507.71</ele>
        <time>2020-04-04T14:34:49Z</time>
      </trkpt>
      <trkpt lat="46.06999" lon="6.32094">
        <ele>507.71</ele>
        <time>2020-04-04T14:34:50Z</time>
      </trkpt>
      <trkpt lat="46.06992" lon="6.32091">
        <ele>507.71</ele>
        <time>2020-04-04T14:34:51Z</time>
      </trkpt>
      <trkpt lat="46.06985" lon="6.32089">
        <ele>507.71</ele>
        <time>2020-04-04T14:34:52Z</time>
      </trkpt>
      <trkpt lat="46.0698" lon="6.32081">
        <ele>508.19</ele>
        <time>2020-04-04T14:34:53Z</time>
      </trkpt>
      <trkpt lat="46.06976" lon="6.32071">
        <ele>508.19</ele>
        <time>2020-04-04T14:34:54Z</time>
      </trkpt>
      <trkpt lat="46.06972" lon="6.32058">
        <ele>508.67</ele>
        <time>2020-04-04T14:34:55Z</time>
      </trkpt>
      <trkpt lat="46.06953" lon="6.31988">
        <ele>513.96</ele>
        <time>2020-04-04T14:35:01Z</time>
      </trkpt>
      <trkpt lat="46.06948" lon="6.31973">
        <ele>515.4</ele>
        <time>2020-04-04T14:35:06Z</time>
      </trkpt>
      <trkpt lat="46.06966" lon="6.31958">
        <ele>515.4</ele>
        <time>2020-04-04T14:35:10Z</time>
      </trkpt>
      <trkpt lat="46.06969" lon="6.31945">
        <ele>514.92</ele>
        <time>2020-04-04T14:35:17Z</time>
      </trkpt>
      <trkpt lat="46.06969" lon="6.31945">
        <ele>535.59</ele>
        <time>2020-04-04T14:57:01Z</time>
      </trkpt>
      <trkpt lat="46.06942" lon="6.31956">
        <ele>526.94</ele>
        <time>2020-04-04T14:57:13Z</time>
      </trkpt>
      <trkpt lat="46.06941" lon="6.31952">
        <ele>525.5</ele>
        <time>2020-04-04T14:57:14Z</time>
      </trkpt>
      <trkpt lat="46.06959" lon="6.31936">
        <ele>524.06</ele>
        <time>2020-04-04T14:57:15Z</time>
      </trkpt>
      <trkpt lat="46.06941" lon="6.31953">
        <ele>520.69</ele>
        <time>2020-04-04T14:57:18Z</time>
      </trkpt>
      <trkpt lat="46.06943" lon="6.31957">
        <ele>520.21</ele>
        <time>2020-04-04T14:57:19Z</time>
      </trkpt>
      <trkpt lat="46.06947" lon="6.3197">
        <ele>517.33</ele>
        <time>2020-04-04T14:57:23Z</time>
      </trkpt>
      <trkpt lat="46.06949" lon="6.31976">
        <ele>516.37</ele>
        <time>2020-04-04T14:57:24Z</time>
      </trkpt>
      <trkpt lat="46.06952" lon="6.31985">
        <ele>515.88</ele>
        <time>2020-04-04T14:57:25Z</time>
      </trkpt>
      <trkpt lat="46.06975" lon="6.32067">
        <ele>512.52</ele>
        <time>2020-04-04T14:57:31Z</time>
      </trkpt>
      <trkpt lat="46.0698" lon="6.32082">
        <ele>512.52</ele>
        <time>2020-04-04T14:57:32Z</time>
      </trkpt>
      <trkpt lat="46.06985" lon="6.32092">
        <ele>512.04</ele>
        <time>2020-04-04T14:57:33Z</time>
      </trkpt>
      <trkpt lat="46.06997" lon="6.32107">
        <ele>511.08</ele>
        <time>2020-04-04T14:57:35Z</time>
      </trkpt>
      <trkpt lat="46.07011" lon="6.32113">
        <ele>510.6</ele>
        <time>2020-04-04T14:57:37Z</time>
      </trkpt>
      <trkpt lat="46.07016" lon="6.32115">
        <ele>510.12</ele>
        <time>2020-04-04T14:57:38Z</time>
      </trkpt>
      <trkpt lat="46.07026" lon="6.32126">
        <ele>509.64</ele>
        <time>2020-04-04T14:57:39Z</time>
      </trkpt>
      <trkpt lat="46.07026" lon="6.32146">
        <ele>509.16</ele>
        <time>2020-04-04T14:57:40Z</time>
      </trkpt>
      <trkpt lat="46.07029" lon="6.32214">
        <ele>506.75</ele>
        <time>2020-04-04T14:57:44Z</time>
      </trkpt>
      <trkpt lat="46.07081" lon="6.32432">
        <ele>501.95</ele>
        <time>2020-04-04T14:57:50Z</time>
      </trkpt>
      <trkpt lat="46.07107" lon="6.32622">
        <ele>492.81</ele>
        <time>2020-04-04T14:58:00Z</time>
      </trkpt>
      <trkpt lat="46.07114" lon="6.32734">
        <ele>488.49</ele>
        <time>2020-04-04T14:58:07Z</time>
      </trkpt>
      <trkpt lat="46.07108" lon="6.3276">
        <ele>488.01</ele>
        <time>2020-04-04T14:58:10Z</time>
      </trkpt>
      <trkpt lat="46.07112" lon="6.32775">
        <ele>487.53</ele>
        <time>2020-04-04T14:58:11Z</time>
      </trkpt>
      <trkpt lat="46.07115" lon="6.3278">
        <ele>487.05</ele>
        <time>2020-04-04T14:58:12Z</time>
      </trkpt>
      <trkpt lat="46.07123" lon="6.32813">
        <ele>486.08</ele>
        <time>2020-04-04T14:58:13Z</time>
      </trkpt>
      <trkpt lat="46.07125" lon="6.3283">
        <ele>485.12</ele>
        <time>2020-04-04T14:58:14Z</time>
      </trkpt>
      <trkpt lat="46.07143" lon="6.33116">
        <ele>475.51</ele>
        <time>2020-04-04T14:58:24Z</time>
      </trkpt>
      <trkpt lat="46.07141" lon="6.33143">
        <ele>473.59</ele>
        <time>2020-04-04T14:58:26Z</time>
      </trkpt>
      <trkpt lat="46.07136" lon="6.3317">
        <ele>472.63</ele>
        <time>2020-04-04T14:58:27Z</time>
      </trkpt>
      <trkpt lat="46.07108" lon="6.3328">
        <ele>470.7</ele>
        <time>2020-04-04T14:58:31Z</time>
      </trkpt>
      <trkpt lat="46.07087" lon="6.33335">
        <ele>470.22</ele>
        <time>2020-04-04T14:58:32Z</time>
      </trkpt>
      <trkpt lat="46.07074" lon="6.33358">
        <ele>469.74</ele>
        <time>2020-04-04T14:58:33Z</time>
      </trkpt>
      <trkpt lat="46.07061" lon="6.33378">
        <ele>469.74</ele>
        <time>2020-04-04T14:58:35Z</time>
      </trkpt>
      <trkpt lat="46.0699" lon="6.33486">
        <ele>471.18</ele>
        <time>2020-04-04T14:58:41Z</time>
      </trkpt>
      <trkpt lat="46.06978" lon="6.33504">
        <ele>471.18</ele>
        <time>2020-04-04T14:58:44Z</time>
      </trkpt>
      <trkpt lat="46.06973" lon="6.33511">
        <ele>471.18</ele>
        <time>2020-04-04T14:58:45Z</time>
      </trkpt>
      <trkpt lat="46.06969" lon="6.33517">
        <ele>471.18</ele>
        <time>2020-04-04T14:58:46Z</time>
      </trkpt>
      <trkpt lat="46.0696" lon="6.33518">
        <ele>471.18</ele>
        <time>2020-04-04T14:58:47Z</time>
      </trkpt>
      <trkpt lat="46.06954" lon="6.33515">
        <ele>471.18</ele>
        <time>2020-04-04T14:58:48Z</time>
      </trkpt>
      <trkpt lat="46.0694" lon="6.33504">
        <ele>470.7</ele>
        <time>2020-04-04T14:58:50Z</time>
      </trkpt>
      <trkpt lat="46.06928" lon="6.3349">
        <ele>470.7</ele>
        <time>2020-04-04T14:58:52Z</time>
      </trkpt>
      <trkpt lat="46.06918" lon="6.33484">
        <ele>470.7</ele>
        <time>2020-04-04T14:58:53Z</time>
      </trkpt>
      <trkpt lat="46.06835" lon="6.33485">
        <ele>471.66</ele>
        <time>2020-04-04T14:59:01Z</time>
      </trkpt>
      <trkpt lat="46.06827" lon="6.33486">
        <ele>471.66</ele>
        <time>2020-04-04T14:59:02Z</time>
      </trkpt>
      <trkpt lat="46.06821" lon="6.33486">
        <ele>471.66</ele>
        <time>2020-04-04T14:59:03Z</time>
      </trkpt>
      <trkpt lat="46.06821" lon="6.33486">
        <ele>471.66</ele>
        <time>2020-04-04T14:59:04Z</time>
      </trkpt>
      <trkpt lat="46.06805" lon="6.33492">
        <ele>471.66</ele>
        <time>2020-04-04T14:59:05Z</time>
      </trkpt>
      <trkpt lat="46.06798" lon="6.33488">
        <ele>472.14</ele>
        <time>2020-04-04T14:59:06Z</time>
      </trkpt>
      <trkpt lat="46.06789" lon="6.33484">
        <ele>472.14</ele>
        <time>2020-04-04T14:59:07Z</time>
      </trkpt>
      <trkpt lat="46.0678" lon="6.33478">
        <ele>472.14</ele>
        <time>2020-04-04T14:59:08Z</time>
      </trkpt>
      <trkpt lat="46.0673" lon="6.33435">
        <ele>475.99</ele>
        <time>2020-04-04T14:59:15Z</time>
      </trkpt>
      <trkpt lat="46.06723" lon="6.3343">
        <ele>476.47</ele>
        <time>2020-04-04T14:59:16Z</time>
      </trkpt>
      <trkpt lat="46.06707" lon="6.33423">
        <ele>476.95</ele>
        <time>2020-04-04T14:59:18Z</time>
      </trkpt>
      <trkpt lat="46.06697" lon="6.33419">
        <ele>477.91</ele>
        <time>2020-04-04T14:59:19Z</time>
      </trkpt>
      <trkpt lat="46.06676" lon="6.33409">
        <ele>478.87</ele>
        <time>2020-04-04T14:59:21Z</time>
      </trkpt>
      <trkpt lat="46.06666" lon="6.33405">
        <ele>479.35</ele>
        <time>2020-04-04T14:59:22Z</time>
      </trkpt>
      <trkpt lat="46.06657" lon="6.33402">
        <ele>480.32</ele>
        <time>2020-04-04T14:59:23Z</time>
      </trkpt>
      <trkpt lat="46.0664" lon="6.33352">
        <ele>482.72</ele>
        <time>2020-04-04T14:59:27Z</time>
      </trkpt>
      <trkpt lat="46.06633" lon="6.3334">
        <ele>483.68</ele>
        <time>2020-04-04T14:59:28Z</time>
      </trkpt>
      <trkpt lat="46.06624" lon="6.3333">
        <ele>485.12</ele>
        <time>2020-04-04T14:59:29Z</time>
      </trkpt>
      <trkpt lat="46.06613" lon="6.33319">
        <ele>486.08</ele>
        <time>2020-04-04T14:59:30Z</time>
      </trkpt>
      <trkpt lat="46.06599" lon="6.33311">
        <ele>487.05</ele>
        <time>2020-04-04T14:59:31Z</time>
      </trkpt>
      <trkpt lat="46.06574" lon="6.33295">
        <ele>488.49</ele>
        <time>2020-04-04T14:59:33Z</time>
      </trkpt>
      <trkpt lat="46.06565" lon="6.33288">
        <ele>488.97</ele>
        <time>2020-04-04T14:59:34Z</time>
      </trkpt>
      <trkpt lat="46.06557" lon="6.3328">
        <ele>489.45</ele>
        <time>2020-04-04T14:59:35Z</time>
      </trkpt>
      <trkpt lat="46.06554" lon="6.3327">
        <ele>489.45</ele>
        <time>2020-04-04T14:59:36Z</time>
      </trkpt>
      <trkpt lat="46.06561" lon="6.33226">
        <ele>489.45</ele>
        <time>2020-04-04T14:59:38Z</time>
      </trkpt>
      <trkpt lat="46.0656" lon="6.3321">
        <ele>489.45</ele>
        <time>2020-04-04T14:59:39Z</time>
      </trkpt>
      <trkpt lat="46.06557" lon="6.33196">
        <ele>489.45</ele>
        <time>2020-04-04T14:59:40Z</time>
      </trkpt>
      <trkpt lat="46.06551" lon="6.33182">
        <ele>488.97</ele>
        <time>2020-04-04T14:59:41Z</time>
      </trkpt>
      <trkpt lat="46.06545" lon="6.33167">
        <ele>488.01</ele>
        <time>2020-04-04T14:59:42Z</time>
      </trkpt>
      <trkpt lat="46.06498" lon="6.33083">
        <ele>485.6</ele>
        <time>2020-04-04T14:59:47Z</time>
      </trkpt>
      <trkpt lat="46.06474" lon="6.3304">
        <ele>484.64</ele>
        <time>2020-04-04T14:59:49Z</time>
      </trkpt>
      <trkpt lat="46.06465" lon="6.3302">
        <ele>484.16</ele>
        <time>2020-04-04T14:59:50Z</time>
      </trkpt>
      <trkpt lat="46.06454" lon="6.32997">
        <ele>484.16</ele>
        <time>2020-04-04T14:59:51Z</time>
      </trkpt>
      <trkpt lat="46.06441" lon="6.3299">
        <ele>484.16</ele>
        <time>2020-04-04T14:59:52Z</time>
      </trkpt>
      <trkpt lat="46.06426" lon="6.32982">
        <ele>484.16</ele>
        <time>2020-04-04T14:59:53Z</time>
      </trkpt>
      <trkpt lat="46.06411" lon="6.32981">
        <ele>484.64</ele>
        <time>2020-04-04T14:59:54Z</time>
      </trkpt>
      <trkpt lat="46.06396" lon="6.32982">
        <ele>485.6</ele>
        <time>2020-04-04T14:59:55Z</time>
      </trkpt>
      <trkpt lat="46.06381" lon="6.32983">
        <ele>486.08</ele>
        <time>2020-04-04T14:59:56Z</time>
      </trkpt>
      <trkpt lat="46.06368" lon="6.32983">
        <ele>486.56</ele>
        <time>2020-04-04T14:59:57Z</time>
      </trkpt>
      <trkpt lat="46.06357" lon="6.32984">
        <ele>487.05</ele>
        <time>2020-04-04T14:59:58Z</time>
      </trkpt>
      <trkpt lat="46.06348" lon="6.3298">
        <ele>488.01</ele>
        <time>2020-04-04T14:59:59Z</time>
      </trkpt>
      <trkpt lat="46.06336" lon="6.32975">
        <ele>488.97</ele>
        <time>2020-04-04T15:00:00Z</time>
      </trkpt>
      <trkpt lat="46.06328" lon="6.32968">
        <ele>490.41</ele>
        <time>2020-04-04T15:00:02Z</time>
      </trkpt>
      <trkpt lat="46.06331" lon="6.32948">
        <ele>490.89</ele>
        <time>2020-04-04T15:00:03Z</time>
      </trkpt>
      <trkpt lat="46.06331" lon="6.32946">
        <ele>491.85</ele>
        <time>2020-04-04T15:00:04Z</time>
      </trkpt>
      <trkpt lat="46.0633" lon="6.32931">
        <ele>492.81</ele>
        <time>2020-04-04T15:00:05Z</time>
      </trkpt>
      <trkpt lat="46.06329" lon="6.32915">
        <ele>493.77</ele>
        <time>2020-04-04T15:00:06Z</time>
      </trkpt>
      <trkpt lat="46.06326" lon="6.32885">
        <ele>495.7</ele>
        <time>2020-04-04T15:00:08Z</time>
      </trkpt>
      <trkpt lat="46.06325" lon="6.3287">
        <ele>496.66</ele>
        <time>2020-04-04T15:00:09Z</time>
      </trkpt>
      <trkpt lat="46.06325" lon="6.3286">
        <ele>497.14</ele>
        <time>2020-04-04T15:00:10Z</time>
      </trkpt>
      <trkpt lat="46.06326" lon="6.32846">
        <ele>497.62</ele>
        <time>2020-04-04T15:00:11Z</time>
      </trkpt>
      <trkpt lat="46.06326" lon="6.32833">
        <ele>498.58</ele>
        <time>2020-04-04T15:00:12Z</time>
      </trkpt>
      <trkpt lat="46.06327" lon="6.32819">
        <ele>498.58</ele>
        <time>2020-04-04T15:00:13Z</time>
      </trkpt>
      <trkpt lat="46.06327" lon="6.32803">
        <ele>499.54</ele>
        <time>2020-04-04T15:00:14Z</time>
      </trkpt>
      <trkpt lat="46.06326" lon="6.32782">
        <ele>500.5</ele>
        <time>2020-04-04T15:00:15Z</time>
      </trkpt>
      <trkpt lat="46.06324" lon="6.32759">
        <ele>501.95</ele>
        <time>2020-04-04T15:00:16Z</time>
      </trkpt>
      <trkpt lat="46.06288" lon="6.32601">
        <ele>509.16</ele>
        <time>2020-04-04T15:00:21Z</time>
      </trkpt>
      <trkpt lat="46.06274" lon="6.32548">
        <ele>512.52</ele>
        <time>2020-04-04T15:00:23Z</time>
      </trkpt>
      <trkpt lat="46.06269" lon="6.32525">
        <ele>514.92</ele>
        <time>2020-04-04T15:00:24Z</time>
      </trkpt>
      <trkpt lat="46.06263" lon="6.32436">
        <ele>526.46</ele>
        <time>2020-04-04T15:00:30Z</time>
      </trkpt>
      <trkpt lat="46.06263" lon="6.32341">
        <ele>537.51</ele>
        <time>2020-04-04T15:00:39Z</time>
      </trkpt>
      <trkpt lat="46.06267" lon="6.3219">
        <ele>538.48</ele>
        <time>2020-04-04T15:00:47Z</time>
      </trkpt>
      <trkpt lat="46.06256" lon="6.3211">
        <ele>538.96</ele>
        <time>2020-04-04T15:00:51Z</time>
      </trkpt>
      <trkpt lat="46.06252" lon="6.32091">
        <ele>538.96</ele>
        <time>2020-04-04T15:00:52Z</time>
      </trkpt>
      <trkpt lat="46.06246" lon="6.32073">
        <ele>539.44</ele>
        <time>2020-04-04T15:00:53Z</time>
      </trkpt>
      <trkpt lat="46.0624" lon="6.32056">
        <ele>539.92</ele>
        <time>2020-04-04T15:00:54Z</time>
      </trkpt>
      <trkpt lat="46.06234" lon="6.32039">
        <ele>540.4</ele>
        <time>2020-04-04T15:00:55Z</time>
      </trkpt>
      <trkpt lat="46.06209" lon="6.31978">
        <ele>539.92</ele>
        <time>2020-04-04T15:00:59Z</time>
      </trkpt>
      <trkpt lat="46.06205" lon="6.31968">
        <ele>540.4</ele>
        <time>2020-04-04T15:01:00Z</time>
      </trkpt>
      <trkpt lat="46.0617" lon="6.31896">
        <ele>544.24</ele>
        <time>2020-04-04T15:01:07Z</time>
      </trkpt>
      <trkpt lat="46.06145" lon="6.31847">
        <ele>548.09</ele>
        <time>2020-04-04T15:01:10Z</time>
      </trkpt>
      <trkpt lat="46.06135" lon="6.31836">
        <ele>549.53</ele>
        <time>2020-04-04T15:01:11Z</time>
      </trkpt>
      <trkpt lat="46.06126" lon="6.31825">
        <ele>550.97</ele>
        <time>2020-04-04T15:01:12Z</time>
      </trkpt>
      <trkpt lat="46.06109" lon="6.31806">
        <ele>553.86</ele>
        <time>2020-04-04T15:01:14Z</time>
      </trkpt>
      <trkpt lat="46.06103" lon="6.31799">
        <ele>554.82</ele>
        <time>2020-04-04T15:01:15Z</time>
      </trkpt>
      <trkpt lat="46.06098" lon="6.31794">
        <ele>556.26</ele>
        <time>2020-04-04T15:01:16Z</time>
      </trkpt>
      <trkpt lat="46.06094" lon="6.31788">
        <ele>557.7</ele>
        <time>2020-04-04T15:01:17Z</time>
      </trkpt>
      <trkpt lat="46.0609" lon="6.31784">
        <ele>558.66</ele>
        <time>2020-04-04T15:01:18Z</time>
      </trkpt>
      <trkpt lat="46.06087" lon="6.31773">
        <ele>559.62</ele>
        <time>2020-04-04T15:01:19Z</time>
      </trkpt>
      <trkpt lat="46.06082" lon="6.31728">
        <ele>561.07</ele>
        <time>2020-04-04T15:01:21Z</time>
      </trkpt>
      <trkpt lat="46.06039" lon="6.31637">
        <ele>561.07</ele>
        <time>2020-04-04T15:01:27Z</time>
      </trkpt>
      <trkpt lat="46.06038" lon="6.31608">
        <ele>560.59</ele>
        <time>2020-04-04T15:01:28Z</time>
      </trkpt>
      <trkpt lat="46.06044" lon="6.31595">
        <ele>560.11</ele>
        <time>2020-04-04T15:01:29Z</time>
      </trkpt>
      <trkpt lat="46.0605" lon="6.31582">
        <ele>559.62</ele>
        <time>2020-04-04T15:01:30Z</time>
      </trkpt>
      <trkpt lat="46.06059" lon="6.31574">
        <ele>558.66</ele>
        <time>2020-04-04T15:01:32Z</time>
      </trkpt>
      <trkpt lat="46.06078" lon="6.31567">
        <ele>558.66</ele>
        <time>2020-04-04T15:01:33Z</time>
      </trkpt>
      <trkpt lat="46.06088" lon="6.31573">
        <ele>558.66</ele>
        <time>2020-04-04T15:01:34Z</time>
      </trkpt>
      <trkpt lat="46.061" lon="6.31582">
        <ele>558.18</ele>
        <time>2020-04-04T15:01:35Z</time>
      </trkpt>
      <trkpt lat="46.06179" lon="6.31635">
        <ele>558.18</ele>
        <time>2020-04-04T15:01:41Z</time>
      </trkpt>
      <trkpt lat="46.06189" lon="6.3164">
        <ele>558.18</ele>
        <time>2020-04-04T15:01:42Z</time>
      </trkpt>
      <trkpt lat="46.06197" lon="6.31639">
        <ele>557.7</ele>
        <time>2020-04-04T15:01:43Z</time>
      </trkpt>
      <trkpt lat="46.06207" lon="6.31636">
        <ele>557.7</ele>
        <time>2020-04-04T15:01:44Z</time>
      </trkpt>
      <trkpt lat="46.06217" lon="6.31633">
        <ele>557.22</ele>
        <time>2020-04-04T15:01:45Z</time>
      </trkpt>
      <trkpt lat="46.06256" lon="6.31613">
        <ele>555.78</ele>
        <time>2020-04-04T15:01:49Z</time>
      </trkpt>
      <trkpt lat="46.06265" lon="6.31605">
        <ele>555.3</ele>
        <time>2020-04-04T15:01:51Z</time>
      </trkpt>
      <trkpt lat="46.06345" lon="6.3149">
        <ele>554.82</ele>
        <time>2020-04-04T15:02:01Z</time>
      </trkpt>
      <trkpt lat="46.06357" lon="6.31468">
        <ele>555.78</ele>
        <time>2020-04-04T15:02:04Z</time>
      </trkpt>
      <trkpt lat="46.0636" lon="6.31459">
        <ele>556.26</ele>
        <time>2020-04-04T15:02:05Z</time>
      </trkpt>
      <trkpt lat="46.06365" lon="6.31448">
        <ele>556.26</ele>
        <time>2020-04-04T15:02:06Z</time>
      </trkpt>
      <trkpt lat="46.06369" lon="6.31435">
        <ele>555.78</ele>
        <time>2020-04-04T15:02:07Z</time>
      </trkpt>
      <trkpt lat="46.06372" lon="6.31422">
        <ele>555.3</ele>
        <time>2020-04-04T15:02:09Z</time>
      </trkpt>
      <trkpt lat="46.06398" lon="6.31311">
        <ele>553.86</ele>
        <time>2020-04-04T15:02:16Z</time>
      </trkpt>
      <trkpt lat="46.0645" lon="6.31135">
        <ele>554.82</ele>
        <time>2020-04-04T15:02:27Z</time>
      </trkpt>
      <trkpt lat="46.06458" lon="6.31112">
        <ele>556.26</ele>
        <time>2020-04-04T15:02:30Z</time>
      </trkpt>
      <trkpt lat="46.0646" lon="6.31107">
        <ele>556.74</ele>
        <time>2020-04-04T15:02:31Z</time>
      </trkpt>
      <trkpt lat="46.06461" lon="6.311">
        <ele>556.74</ele>
        <time>2020-04-04T15:02:32Z</time>
      </trkpt>
      <trkpt lat="46.06466" lon="6.3109">
        <ele>556.74</ele>
        <time>2020-04-04T15:02:33Z</time>
      </trkpt>
      <trkpt lat="46.06469" lon="6.31087">
        <ele>557.22</ele>
        <time>2020-04-04T15:02:34Z</time>
      </trkpt>
      <trkpt lat="46.06477" lon="6.31088">
        <ele>557.7</ele>
        <time>2020-04-04T15:02:36Z</time>
      </trkpt>
      <trkpt lat="46.06494" lon="6.31088">
        <ele>558.18</ele>
        <time>2020-04-04T15:02:37Z</time>
      </trkpt>
      <trkpt lat="46.06506" lon="6.31088">
        <ele>558.18</ele>
        <time>2020-04-04T15:02:38Z</time>
      </trkpt>
      <trkpt lat="46.06565" lon="6.3109">
        <ele>555.78</ele>
        <time>2020-04-04T15:02:44Z</time>
      </trkpt>
      <trkpt lat="46.06586" lon="6.31095">
        <ele>555.3</ele>
        <time>2020-04-04T15:02:46Z</time>
      </trkpt>
      <trkpt lat="46.06589" lon="6.31096">
        <ele>554.82</ele>
        <time>2020-04-04T15:02:47Z</time>
      </trkpt>
      <trkpt lat="46.06592" lon="6.31097">
        <ele>554.82</ele>
        <time>2020-04-04T15:02:49Z</time>
      </trkpt>
      <trkpt lat="46.06599" lon="6.31087">
        <ele>554.34</ele>
        <time>2020-04-04T15:02:50Z</time>
      </trkpt>
      <trkpt lat="46.066" lon="6.31079">
        <ele>554.34</ele>
        <time>2020-04-04T15:02:51Z</time>
      </trkpt>
      <trkpt lat="46.06602" lon="6.31069">
        <ele>553.86</ele>
        <time>2020-04-04T15:02:52Z</time>
      </trkpt>
      <trkpt lat="46.0662" lon="6.30965">
        <ele>553.86</ele>
        <time>2020-04-04T15:02:58Z</time>
      </trkpt>
      <trkpt lat="46.06626" lon="6.30934">
        <ele>554.34</ele>
        <time>2020-04-04T15:03:01Z</time>
      </trkpt>
      <trkpt lat="46.06632" lon="6.30914">
        <ele>554.34</ele>
        <time>2020-04-04T15:03:04Z</time>
      </trkpt>
      <trkpt lat="46.06637" lon="6.30903">
        <ele>554.82</ele>
        <time>2020-04-04T15:03:05Z</time>
      </trkpt>
      <trkpt lat="46.0664" lon="6.30907">
        <ele>555.3</ele>
        <time>2020-04-04T15:03:07Z</time>
      </trkpt>
      <trkpt lat="46.06644" lon="6.30909">
        <ele>555.78</ele>
        <time>2020-04-04T15:03:08Z</time>
      </trkpt>
      <trkpt lat="46.06659" lon="6.30909">
        <ele>556.26</ele>
        <time>2020-04-04T15:03:09Z</time>
      </trkpt>
      <trkpt lat="46.0668" lon="6.30904">
        <ele>557.22</ele>
        <time>2020-04-04T15:03:12Z</time>
      </trkpt>
      <trkpt lat="46.06697" lon="6.30893">
        <ele>557.7</ele>
        <time>2020-04-04T15:03:13Z</time>
      </trkpt>
      <trkpt lat="46.06704" lon="6.30881">
        <ele>558.18</ele>
        <time>2020-04-04T15:03:14Z</time>
      </trkpt>
      <trkpt lat="46.06748" lon="6.30813">
        <ele>561.07</ele>
        <time>2020-04-04T15:03:21Z</time>
      </trkpt>
      <trkpt lat="46.0675" lon="6.30811">
        <ele>561.55</ele>
        <time>2020-04-04T15:03:22Z</time>
      </trkpt>
      <trkpt lat="46.0675" lon="6.30811">
        <ele>561.55</ele>
        <time>2020-04-04T15:03:23Z</time>
      </trkpt>
      <trkpt lat="46.0675" lon="6.30811">
        <ele>562.03</ele>
        <time>2020-04-04T15:03:39Z</time>
      </trkpt>
      <trkpt lat="46.0675" lon="6.30811">
        <ele>562.03</ele>
        <time>2020-04-04T15:03:55Z</time>
      </trkpt>
    </trkseg>
  </trk>
  <trk>
    <name><![CDATA[Journal actif: 2020-04-07 10:32]]></name>
    <trkseg>
      <trkpt lat="46.06816" lon="6.30471">
        <ele>582.22</ele>
        <time>2020-04-07T08:32:44Z</time>
      </trkpt>
      <trkpt lat="46.06825" lon="6.30471">
        <ele>577.41</ele>
        <time>2020-04-07T08:32:50Z</time>
      </trkpt>
      <trkpt lat="46.06828" lon="6.30467">
        <ele>577.89</ele>
        <time>2020-04-07T08:32:52Z</time>
      </trkpt>
      <trkpt lat="46.0683" lon="6.30461">
        <ele>577.89</ele>
        <time>2020-04-07T08:32:53Z</time>
      </trkpt>
      <trkpt lat="46.06834" lon="6.30451">
        <ele>577.89</ele>
        <time>2020-04-07T08:32:54Z</time>
      </trkpt>
      <trkpt lat="46.06838" lon="6.30439">
        <ele>577.89</ele>
        <time>2020-04-07T08:32:55Z</time>
      </trkpt>
      <trkpt lat="46.06843" lon="6.30424">
        <ele>577.89</ele>
        <time>2020-04-07T08:32:56Z</time>
      </trkpt>
      <trkpt lat="46.06854" lon="6.30394">
        <ele>578.85</ele>
        <time>2020-04-07T08:32:58Z</time>
      </trkpt>
      <trkpt lat="46.06858" lon="6.30364">
        <ele>578.85</ele>
        <time>2020-04-07T08:33:00Z</time>
      </trkpt>
      <trkpt lat="46.06859" lon="6.30333">
        <ele>578.85</ele>
        <time>2020-04-07T08:33:02Z</time>
      </trkpt>
      <trkpt lat="46.06861" lon="6.30259">
        <ele>579.81</ele>
        <time>2020-04-07T08:33:07Z</time>
      </trkpt>
      <trkpt lat="46.06863" lon="6.30253">
        <ele>579.81</ele>
        <time>2020-04-07T08:33:08Z</time>
      </trkpt>
      <trkpt lat="46.06866" lon="6.30242">
        <ele>579.33</ele>
        <time>2020-04-07T08:33:09Z</time>
      </trkpt>
      <trkpt lat="46.06885" lon="6.30233">
        <ele>579.81</ele>
        <time>2020-04-07T08:33:10Z</time>
      </trkpt>
      <trkpt lat="46.06885" lon="6.30233">
        <ele>579.81</ele>
        <time>2020-04-07T08:33:11Z</time>
      </trkpt>
      <trkpt lat="46.06896" lon="6.30228">
        <ele>579.81</ele>
        <time>2020-04-07T08:33:12Z</time>
      </trkpt>
      <trkpt lat="46.06957" lon="6.3019">
        <ele>581.73</ele>
        <time>2020-04-07T08:33:16Z</time>
      </trkpt>
      <trkpt lat="46.0703" lon="6.30097">
        <ele>586.06</ele>
        <time>2020-04-07T08:33:22Z</time>
      </trkpt>
      <trkpt lat="46.07039" lon="6.30085">
        <ele>587.5</ele>
        <time>2020-04-07T08:33:23Z</time>
      </trkpt>
      <trkpt lat="46.07046" lon="6.30075">
        <ele>588.46</ele>
        <time>2020-04-07T08:33:24Z</time>
      </trkpt>
      <trkpt lat="46.07056" lon="6.3006">
        <ele>589.91</ele>
        <time>2020-04-07T08:33:26Z</time>
      </trkpt>
      <trkpt lat="46.07061" lon="6.30057">
        <ele>590.87</ele>
        <time>2020-04-07T08:33:27Z</time>
      </trkpt>
      <trkpt lat="46.07078" lon="6.30057">
        <ele>591.35</ele>
        <time>2020-04-07T08:33:28Z</time>
      </trkpt>
      <trkpt lat="46.0708" lon="6.30058">
        <ele>592.79</ele>
        <time>2020-04-07T08:33:30Z</time>
      </trkpt>
      <trkpt lat="46.07088" lon="6.30059">
        <ele>592.79</ele>
        <time>2020-04-07T08:33:31Z</time>
      </trkpt>
      <trkpt lat="46.07093" lon="6.30053">
        <ele>593.27</ele>
        <time>2020-04-07T08:33:32Z</time>
      </trkpt>
      <trkpt lat="46.07111" lon="6.3003">
        <ele>592.79</ele>
        <time>2020-04-07T08:33:34Z</time>
      </trkpt>
      <trkpt lat="46.07122" lon="6.3002">
        <ele>592.31</ele>
        <time>2020-04-07T08:33:35Z</time>
      </trkpt>
      <trkpt lat="46.07134" lon="6.3001">
        <ele>591.83</ele>
        <time>2020-04-07T08:33:36Z</time>
      </trkpt>
      <trkpt lat="46.07188" lon="6.29965">
        <ele>591.83</ele>
        <time>2020-04-07T08:33:40Z</time>
      </trkpt>
      <trkpt lat="46.07215" lon="6.29943">
        <ele>592.79</ele>
        <time>2020-04-07T08:33:42Z</time>
      </trkpt>
      <trkpt lat="46.07295" lon="6.2988">
        <ele>595.67</ele>
        <time>2020-04-07T08:33:49Z</time>
      </trkpt>
      <trkpt lat="46.07337" lon="6.29846">
        <ele>597.6</ele>
        <time>2020-04-07T08:33:56Z</time>
      </trkpt>
      <trkpt lat="46.07395" lon="6.29805">
        <ele>598.56</ele>
        <time>2020-04-07T08:34:01Z</time>
      </trkpt>
      <trkpt lat="46.07425" lon="6.29786">
        <ele>599.04</ele>
        <time>2020-04-07T08:34:03Z</time>
      </trkpt>
      <trkpt lat="46.07439" lon="6.29776">
        <ele>599.04</ele>
        <time>2020-04-07T08:34:04Z</time>
      </trkpt>
      <trkpt lat="46.07453" lon="6.29767">
        <ele>599.04</ele>
        <time>2020-04-07T08:34:05Z</time>
      </trkpt>
      <trkpt lat="46.07496" lon="6.29743">
        <ele>597.12</ele>
        <time>2020-04-07T08:34:08Z</time>
      </trkpt>
      <trkpt lat="46.07543" lon="6.29737">
        <ele>595.19</ele>
        <time>2020-04-07T08:34:11Z</time>
      </trkpt>
      <trkpt lat="46.07558" lon="6.29737">
        <ele>594.23</ele>
        <time>2020-04-07T08:34:12Z</time>
      </trkpt>
      <trkpt lat="46.07573" lon="6.2974">
        <ele>593.75</ele>
        <time>2020-04-07T08:34:13Z</time>
      </trkpt>
      <trkpt lat="46.07612" lon="6.29758">
        <ele>591.83</ele>
        <time>2020-04-07T08:34:17Z</time>
      </trkpt>
      <trkpt lat="46.07625" lon="6.29761">
        <ele>590.87</ele>
        <time>2020-04-07T08:34:18Z</time>
      </trkpt>
      <trkpt lat="46.07625" lon="6.29761">
        <ele>590.39</ele>
        <time>2020-04-07T08:34:19Z</time>
      </trkpt>
      <trkpt lat="46.07632" lon="6.29761">
        <ele>590.39</ele>
        <time>2020-04-07T08:34:20Z</time>
      </trkpt>
      <trkpt lat="46.07638" lon="6.29705">
        <ele>590.87</ele>
        <time>2020-04-07T08:34:21Z</time>
      </trkpt>
      <trkpt lat="46.07642" lon="6.29702">
        <ele>591.83</ele>
        <time>2020-04-07T08:34:22Z</time>
      </trkpt>
      <trkpt lat="46.07653" lon="6.29691">
        <ele>592.31</ele>
        <time>2020-04-07T08:34:23Z</time>
      </trkpt>
      <trkpt lat="46.07705" lon="6.29693">
        <ele>592.79</ele>
        <time>2020-04-07T08:34:27Z</time>
      </trkpt>
      <trkpt lat="46.07729" lon="6.29697">
        <ele>590.87</ele>
        <time>2020-04-07T08:34:33Z</time>
      </trkpt>
      <trkpt lat="46.07729" lon="6.29697">
        <ele>590.87</ele>
        <time>2020-04-07T08:34:35Z</time>
      </trkpt>
      <trkpt lat="46.0777" lon="6.29807">
        <ele>586.06</ele>
        <time>2020-04-07T08:34:41Z</time>
      </trkpt>
      <trkpt lat="46.07792" lon="6.29896">
        <ele>581.73</ele>
        <time>2020-04-07T08:34:44Z</time>
      </trkpt>
      <trkpt lat="46.07794" lon="6.29926">
        <ele>579.81</ele>
        <time>2020-04-07T08:34:45Z</time>
      </trkpt>
      <trkpt lat="46.07796" lon="6.29955">
        <ele>577.89</ele>
        <time>2020-04-07T08:34:46Z</time>
      </trkpt>
      <trkpt lat="46.07799" lon="6.29983">
        <ele>576.45</ele>
        <time>2020-04-07T08:34:47Z</time>
      </trkpt>
      <trkpt lat="46.07798" lon="6.30012">
        <ele>574.53</ele>
        <time>2020-04-07T08:34:48Z</time>
      </trkpt>
      <trkpt lat="46.07795" lon="6.3004">
        <ele>572.6</ele>
        <time>2020-04-07T08:34:49Z</time>
      </trkpt>
      <trkpt lat="46.07792" lon="6.30068">
        <ele>571.16</ele>
        <time>2020-04-07T08:34:50Z</time>
      </trkpt>
      <trkpt lat="46.07746" lon="6.30207">
        <ele>561.07</ele>
        <time>2020-04-07T08:34:56Z</time>
      </trkpt>
      <trkpt lat="46.07667" lon="6.30347">
        <ele>551.45</ele>
        <time>2020-04-07T08:35:04Z</time>
      </trkpt>
      <trkpt lat="46.07632" lon="6.30408">
        <ele>548.57</ele>
        <time>2020-04-07T08:35:09Z</time>
      </trkpt>
      <trkpt lat="46.07622" lon="6.3042">
        <ele>547.61</ele>
        <time>2020-04-07T08:35:10Z</time>
      </trkpt>
      <trkpt lat="46.07605" lon="6.30421">
        <ele>546.65</ele>
        <time>2020-04-07T08:35:12Z</time>
      </trkpt>
      <trkpt lat="46.076" lon="6.30431">
        <ele>546.17</ele>
        <time>2020-04-07T08:35:13Z</time>
      </trkpt>
      <trkpt lat="46.07602" lon="6.30446">
        <ele>545.69</ele>
        <time>2020-04-07T08:35:14Z</time>
      </trkpt>
      <trkpt lat="46.076" lon="6.30462">
        <ele>545.2</ele>
        <time>2020-04-07T08:35:15Z</time>
      </trkpt>
      <trkpt lat="46.07593" lon="6.30474">
        <ele>544.72</ele>
        <time>2020-04-07T08:35:16Z</time>
      </trkpt>
      <trkpt lat="46.07589" lon="6.30483">
        <ele>544.24</ele>
        <time>2020-04-07T08:35:17Z</time>
      </trkpt>
      <trkpt lat="46.07583" lon="6.30495">
        <ele>543.76</ele>
        <time>2020-04-07T08:35:18Z</time>
      </trkpt>
      <trkpt lat="46.07532" lon="6.30622">
        <ele>541.36</ele>
        <time>2020-04-07T08:35:26Z</time>
      </trkpt>
      <trkpt lat="46.07502" lon="6.30718">
        <ele>539.44</ele>
        <time>2020-04-07T08:35:31Z</time>
      </trkpt>
      <trkpt lat="46.07475" lon="6.30947">
        <ele>534.15</ele>
        <time>2020-04-07T08:35:41Z</time>
      </trkpt>
      <trkpt lat="46.07462" lon="6.31154">
        <ele>524.06</ele>
        <time>2020-04-07T08:35:50Z</time>
      </trkpt>
      <trkpt lat="46.07446" lon="6.31244">
        <ele>519.25</ele>
        <time>2020-04-07T08:35:55Z</time>
      </trkpt>
      <trkpt lat="46.07442" lon="6.31258">
        <ele>518.29</ele>
        <time>2020-04-07T08:35:56Z</time>
      </trkpt>
      <trkpt lat="46.07419" lon="6.31317">
        <ele>516.37</ele>
        <time>2020-04-07T08:36:01Z</time>
      </trkpt>
      <trkpt lat="46.07414" lon="6.31329">
        <ele>516.37</ele>
        <time>2020-04-07T08:36:02Z</time>
      </trkpt>
      <trkpt lat="46.07405" lon="6.31336">
        <ele>516.37</ele>
        <time>2020-04-07T08:36:03Z</time>
      </trkpt>
      <trkpt lat="46.074" lon="6.31345">
        <ele>516.37</ele>
        <time>2020-04-07T08:36:04Z</time>
      </trkpt>
      <trkpt lat="46.07396" lon="6.31355">
        <ele>516.37</ele>
        <time>2020-04-07T08:36:05Z</time>
      </trkpt>
      <trkpt lat="46.07394" lon="6.31367">
        <ele>516.37</ele>
        <time>2020-04-07T08:36:06Z</time>
      </trkpt>
      <trkpt lat="46.07397" lon="6.31378">
        <ele>516.37</ele>
        <time>2020-04-07T08:36:07Z</time>
      </trkpt>
      <trkpt lat="46.07399" lon="6.3139">
        <ele>516.37</ele>
        <time>2020-04-07T08:36:08Z</time>
      </trkpt>
      <trkpt lat="46.07397" lon="6.31403">
        <ele>516.37</ele>
        <time>2020-04-07T08:36:09Z</time>
      </trkpt>
      <trkpt lat="46.07393" lon="6.31414">
        <ele>515.88</ele>
        <time>2020-04-07T08:36:10Z</time>
      </trkpt>
      <trkpt lat="46.07388" lon="6.31427">
        <ele>515.4</ele>
        <time>2020-04-07T08:36:11Z</time>
      </trkpt>
      <trkpt lat="46.07384" lon="6.31439">
        <ele>514.92</ele>
        <time>2020-04-07T08:36:12Z</time>
      </trkpt>
      <trkpt lat="46.07378" lon="6.31454">
        <ele>514.92</ele>
        <time>2020-04-07T08:36:13Z</time>
      </trkpt>
      <trkpt lat="46.07369" lon="6.31464">
        <ele>514.44</ele>
        <time>2020-04-07T08:36:14Z</time>
      </trkpt>
      <trkpt lat="46.07278" lon="6.3158">
        <ele>511.56</ele>
        <time>2020-04-07T08:36:23Z</time>
      </trkpt>
      <trkpt lat="46.07165" lon="6.31748">
        <ele>511.08</ele>
        <time>2020-04-07T08:36:34Z</time>
      </trkpt>
      <trkpt lat="46.07072" lon="6.31938">
        <ele>509.64</ele>
        <time>2020-04-07T08:36:44Z</time>
      </trkpt>
      <trkpt lat="46.07027" lon="6.32121">
        <ele>506.75</ele>
        <time>2020-04-07T08:36:53Z</time>
      </trkpt>
      <trkpt lat="46.07026" lon="6.32141">
        <ele>506.75</ele>
        <time>2020-04-07T08:36:54Z</time>
      </trkpt>
      <trkpt lat="46.07029" lon="6.32218">
        <ele>506.27</ele>
        <time>2020-04-07T08:36:58Z</time>
      </trkpt>
      <trkpt lat="46.07072" lon="6.32399">
        <ele>503.87</ele>
        <time>2020-04-07T08:37:08Z</time>
      </trkpt>
      <trkpt lat="46.07104" lon="6.32584">
        <ele>498.1</ele>
        <time>2020-04-07T08:37:18Z</time>
      </trkpt>
      <trkpt lat="46.07114" lon="6.32726">
        <ele>491.37</ele>
        <time>2020-04-07T08:37:27Z</time>
      </trkpt>
      <trkpt lat="46.07114" lon="6.32737">
        <ele>490.89</ele>
        <time>2020-04-07T08:37:28Z</time>
      </trkpt>
      <trkpt lat="46.07108" lon="6.3275">
        <ele>489.93</ele>
        <time>2020-04-07T08:37:29Z</time>
      </trkpt>
      <trkpt lat="46.07108" lon="6.32759">
        <ele>488.97</ele>
        <time>2020-04-07T08:37:30Z</time>
      </trkpt>
      <trkpt lat="46.07109" lon="6.32768">
        <ele>488.97</ele>
        <time>2020-04-07T08:37:31Z</time>
      </trkpt>
      <trkpt lat="46.07113" lon="6.32777">
        <ele>488.97</ele>
        <time>2020-04-07T08:37:32Z</time>
      </trkpt>
      <trkpt lat="46.07119" lon="6.32781">
        <ele>488.49</ele>
        <time>2020-04-07T08:37:33Z</time>
      </trkpt>
      <trkpt lat="46.07126" lon="6.32781">
        <ele>488.01</ele>
        <time>2020-04-07T08:37:34Z</time>
      </trkpt>
      <trkpt lat="46.07135" lon="6.32777">
        <ele>488.01</ele>
        <time>2020-04-07T08:37:35Z</time>
      </trkpt>
      <trkpt lat="46.07142" lon="6.32759">
        <ele>488.01</ele>
        <time>2020-04-07T08:37:36Z</time>
      </trkpt>
      <trkpt lat="46.07153" lon="6.32752">
        <ele>487.53</ele>
        <time>2020-04-07T08:37:37Z</time>
      </trkpt>
      <trkpt lat="46.07171" lon="6.32733">
        <ele>485.6</ele>
        <time>2020-04-07T08:37:39Z</time>
      </trkpt>
      <trkpt lat="46.07214" lon="6.32667">
        <ele>480.8</ele>
        <time>2020-04-07T08:37:46Z</time>
      </trkpt>
      <trkpt lat="46.07221" lon="6.32658">
        <ele>479.84</ele>
        <time>2020-04-07T08:37:48Z</time>
      </trkpt>
      <trkpt lat="46.07226" lon="6.32649">
        <ele>479.35</ele>
        <time>2020-04-07T08:37:50Z</time>
      </trkpt>
      <trkpt lat="46.07235" lon="6.32646">
        <ele>478.87</ele>
        <time>2020-04-07T08:37:51Z</time>
      </trkpt>
      <trkpt lat="46.07234" lon="6.32639">
        <ele>478.39</ele>
        <time>2020-04-07T08:37:52Z</time>
      </trkpt>
      <trkpt lat="46.07224" lon="6.32634">
        <ele>478.39</ele>
        <time>2020-04-07T08:37:53Z</time>
      </trkpt>
      <trkpt lat="46.07224" lon="6.32634">
        <ele>478.39</ele>
        <time>2020-04-07T08:37:54Z</time>
      </trkpt>
      <trkpt lat="46.07221" lon="6.3263">
        <ele>478.39</ele>
        <time>2020-04-07T08:37:55Z</time>
      </trkpt>
      <trkpt lat="46.07217" lon="6.32623">
        <ele>478.39</ele>
        <time>2020-04-07T08:37:56Z</time>
      </trkpt>
      <trkpt lat="46.07212" lon="6.32615">
        <ele>478.39</ele>
        <time>2020-04-07T08:37:57Z</time>
      </trkpt>
      <trkpt lat="46.07207" lon="6.32607">
        <ele>478.87</ele>
        <time>2020-04-07T08:37:58Z</time>
      </trkpt>
      <trkpt lat="46.07203" lon="6.32599">
        <ele>479.84</ele>
        <time>2020-04-07T08:37:59Z</time>
      </trkpt>
      <trkpt lat="46.07199" lon="6.3259">
        <ele>480.8</ele>
        <time>2020-04-07T08:38:00Z</time>
      </trkpt>
      <trkpt lat="46.07196" lon="6.3258">
        <ele>481.76</ele>
        <time>2020-04-07T08:38:01Z</time>
      </trkpt>
      <trkpt lat="46.07194" lon="6.32567">
        <ele>482.72</ele>
        <time>2020-04-07T08:38:02Z</time>
      </trkpt>
      <trkpt lat="46.07193" lon="6.32554">
        <ele>483.68</ele>
        <time>2020-04-07T08:38:03Z</time>
      </trkpt>
      <trkpt lat="46.07192" lon="6.32543">
        <ele>484.16</ele>
        <time>2020-04-07T08:38:04Z</time>
      </trkpt>
      <trkpt lat="46.07191" lon="6.32534">
        <ele>484.64</ele>
        <time>2020-04-07T08:38:05Z</time>
      </trkpt>
      <trkpt lat="46.07186" lon="6.32512">
        <ele>486.56</ele>
        <time>2020-04-07T08:38:10Z</time>
      </trkpt>
      <trkpt lat="46.07185" lon="6.32507">
        <ele>487.05</ele>
        <time>2020-04-07T08:38:11Z</time>
      </trkpt>
      <trkpt lat="46.07176" lon="6.32505">
        <ele>487.53</ele>
        <time>2020-04-07T08:38:12Z</time>
      </trkpt>
      <trkpt lat="46.07174" lon="6.32509">
        <ele>488.01</ele>
        <time>2020-04-07T08:38:13Z</time>
      </trkpt>
      <trkpt lat="46.07171" lon="6.32517">
        <ele>488.01</ele>
        <time>2020-04-07T08:38:14Z</time>
      </trkpt>
      <trkpt lat="46.07168" lon="6.32524">
        <ele>488.49</ele>
        <time>2020-04-07T08:38:15Z</time>
      </trkpt>
      <trkpt lat="46.07166" lon="6.3253">
        <ele>488.97</ele>
        <time>2020-04-07T08:38:16Z</time>
      </trkpt>
      <trkpt lat="46.07163" lon="6.32536">
        <ele>489.45</ele>
        <time>2020-04-07T08:38:17Z</time>
      </trkpt>
      <trkpt lat="46.07161" lon="6.32541">
        <ele>489.45</ele>
        <time>2020-04-07T08:38:18Z</time>
      </trkpt>
      <trkpt lat="46.07158" lon="6.3255">
        <ele>489.93</ele>
        <time>2020-04-07T08:38:21Z</time>
      </trkpt>
      <trkpt lat="46.07158" lon="6.3255">
        <ele>489.45</ele>
        <time>2020-04-07T08:38:35Z</time>
      </trkpt>
      <trkpt lat="46.07162" lon="6.32556">
        <ele>505.31</ele>
        <time>2020-04-07T09:17:23Z</time>
      </trkpt>
      <trkpt lat="46.07163" lon="6.32548">
        <ele>507.71</ele>
        <time>2020-04-07T09:17:41Z</time>
      </trkpt>
      <trkpt lat="46.07159" lon="6.32547">
        <ele>507.71</ele>
        <time>2020-04-07T09:17:42Z</time>
      </trkpt>
      <trkpt lat="46.07158" lon="6.3255">
        <ele>505.79</ele>
        <time>2020-04-07T09:17:43Z</time>
      </trkpt>
      <trkpt lat="46.07156" lon="6.32554">
        <ele>504.35</ele>
        <time>2020-04-07T09:17:44Z</time>
      </trkpt>
      <trkpt lat="46.07155" lon="6.32558">
        <ele>502.91</ele>
        <time>2020-04-07T09:17:45Z</time>
      </trkpt>
      <trkpt lat="46.07154" lon="6.3256">
        <ele>502.43</ele>
        <time>2020-04-07T09:17:46Z</time>
      </trkpt>
      <trkpt lat="46.07155" lon="6.32563">
        <ele>501.95</ele>
        <time>2020-04-07T09:17:47Z</time>
      </trkpt>
      <trkpt lat="46.07153" lon="6.32562">
        <ele>501.95</ele>
        <time>2020-04-07T09:17:48Z</time>
      </trkpt>
      <trkpt lat="46.07157" lon="6.32552">
        <ele>501.46</ele>
        <time>2020-04-07T09:17:49Z</time>
      </trkpt>
      <trkpt lat="46.0716" lon="6.32545">
        <ele>501.46</ele>
        <time>2020-04-07T09:17:50Z</time>
      </trkpt>
      <trkpt lat="46.07164" lon="6.32534">
        <ele>501.46</ele>
        <time>2020-04-07T09:17:51Z</time>
      </trkpt>
      <trkpt lat="46.07168" lon="6.32524">
        <ele>501.46</ele>
        <time>2020-04-07T09:17:52Z</time>
      </trkpt>
      <trkpt lat="46.07171" lon="6.32516">
        <ele>500.98</ele>
        <time>2020-04-07T09:17:53Z</time>
      </trkpt>
      <trkpt lat="46.07174" lon="6.3251">
        <ele>500.98</ele>
        <time>2020-04-07T09:17:54Z</time>
      </trkpt>
      <trkpt lat="46.0719" lon="6.32527">
        <ele>500.98</ele>
        <time>2020-04-07T09:17:55Z</time>
      </trkpt>
      <trkpt lat="46.0719" lon="6.32527">
        <ele>500.98</ele>
        <time>2020-04-07T09:17:56Z</time>
      </trkpt>
      <trkpt lat="46.07187" lon="6.32515">
        <ele>500.5</ele>
        <time>2020-04-07T09:17:57Z</time>
      </trkpt>
      <trkpt lat="46.07188" lon="6.32518">
        <ele>500.02</ele>
        <time>2020-04-07T09:17:58Z</time>
      </trkpt>
      <trkpt lat="46.07189" lon="6.32525">
        <ele>499.54</ele>
        <time>2020-04-07T09:17:59Z</time>
      </trkpt>
      <trkpt lat="46.07191" lon="6.32536">
        <ele>499.54</ele>
        <time>2020-04-07T09:18:00Z</time>
      </trkpt>
      <trkpt lat="46.07192" lon="6.32551">
        <ele>499.06</ele>
        <time>2020-04-07T09:18:01Z</time>
      </trkpt>
      <trkpt lat="46.07194" lon="6.32567">
        <ele>498.58</ele>
        <time>2020-04-07T09:18:02Z</time>
      </trkpt>
      <trkpt lat="46.07196" lon="6.32582">
        <ele>498.1</ele>
        <time>2020-04-07T09:18:03Z</time>
      </trkpt>
      <trkpt lat="46.07201" lon="6.32594">
        <ele>497.14</ele>
        <time>2020-04-07T09:18:04Z</time>
      </trkpt>
      <trkpt lat="46.07206" lon="6.32604">
        <ele>496.66</ele>
        <time>2020-04-07T09:18:05Z</time>
      </trkpt>
      <trkpt lat="46.07211" lon="6.32614">
        <ele>495.7</ele>
        <time>2020-04-07T09:18:06Z</time>
      </trkpt>
      <trkpt lat="46.07216" lon="6.32622">
        <ele>495.22</ele>
        <time>2020-04-07T09:18:07Z</time>
      </trkpt>
      <trkpt lat="46.07224" lon="6.32634">
        <ele>494.26</ele>
        <time>2020-04-07T09:18:08Z</time>
      </trkpt>
      <trkpt lat="46.07225" lon="6.32642">
        <ele>493.29</ele>
        <time>2020-04-07T09:18:09Z</time>
      </trkpt>
      <trkpt lat="46.0722" lon="6.32658">
        <ele>491.85</ele>
        <time>2020-04-07T09:18:10Z</time>
      </trkpt>
      <trkpt lat="46.07214" lon="6.32667">
        <ele>491.37</ele>
        <time>2020-04-07T09:18:11Z</time>
      </trkpt>
      <trkpt lat="46.07205" lon="6.3268">
        <ele>490.89</ele>
        <time>2020-04-07T09:18:12Z</time>
      </trkpt>
      <trkpt lat="46.07195" lon="6.32696">
        <ele>490.89</ele>
        <time>2020-04-07T09:18:13Z</time>
      </trkpt>
      <trkpt lat="46.07164" lon="6.32741">
        <ele>491.85</ele>
        <time>2020-04-07T09:18:16Z</time>
      </trkpt>
      <trkpt lat="46.07157" lon="6.32748">
        <ele>492.81</ele>
        <time>2020-04-07T09:18:17Z</time>
      </trkpt>
      <trkpt lat="46.07147" lon="6.32757">
        <ele>493.29</ele>
        <time>2020-04-07T09:18:18Z</time>
      </trkpt>
      <trkpt lat="46.07145" lon="6.32758">
        <ele>493.29</ele>
        <time>2020-04-07T09:18:19Z</time>
      </trkpt>
      <trkpt lat="46.07136" lon="6.3275">
        <ele>493.77</ele>
        <time>2020-04-07T09:18:20Z</time>
      </trkpt>
      <trkpt lat="46.07131" lon="6.32746">
        <ele>494.26</ele>
        <time>2020-04-07T09:18:21Z</time>
      </trkpt>
      <trkpt lat="46.07124" lon="6.32733">
        <ele>494.26</ele>
        <time>2020-04-07T09:18:22Z</time>
      </trkpt>
      <trkpt lat="46.07122" lon="6.32719">
        <ele>494.74</ele>
        <time>2020-04-07T09:18:23Z</time>
      </trkpt>
      <trkpt lat="46.07121" lon="6.32701">
        <ele>494.74</ele>
        <time>2020-04-07T09:18:24Z</time>
      </trkpt>
      <trkpt lat="46.07119" lon="6.32681">
        <ele>495.22</ele>
        <time>2020-04-07T09:18:25Z</time>
      </trkpt>
      <trkpt lat="46.07097" lon="6.32497">
        <ele>501.46</ele>
        <time>2020-04-07T09:18:33Z</time>
      </trkpt>
      <trkpt lat="46.07042" lon="6.32286">
        <ele>508.67</ele>
        <time>2020-04-07T09:18:42Z</time>
      </trkpt>
      <trkpt lat="46.07025" lon="6.32156">
        <ele>511.08</ele>
        <time>2020-04-07T09:18:47Z</time>
      </trkpt>
      <trkpt lat="46.07026" lon="6.3213">
        <ele>511.56</ele>
        <time>2020-04-07T09:18:48Z</time>
      </trkpt>
      <trkpt lat="46.07059" lon="6.31973">
        <ele>513.96</ele>
        <time>2020-04-07T09:18:54Z</time>
      </trkpt>
      <trkpt lat="46.07157" lon="6.31761">
        <ele>513.96</ele>
        <time>2020-04-07T09:19:02Z</time>
      </trkpt>
      <trkpt lat="46.07311" lon="6.31532">
        <ele>515.4</ele>
        <time>2020-04-07T09:19:12Z</time>
      </trkpt>
      <trkpt lat="46.07378" lon="6.31455">
        <ele>516.85</ele>
        <time>2020-04-07T09:19:18Z</time>
      </trkpt>
      <trkpt lat="46.07394" lon="6.31438">
        <ele>517.81</ele>
        <time>2020-04-07T09:19:20Z</time>
      </trkpt>
      <trkpt lat="46.07408" lon="6.31415">
        <ele>519.25</ele>
        <time>2020-04-07T09:19:24Z</time>
      </trkpt>
      <trkpt lat="46.07415" lon="6.31405">
        <ele>519.73</ele>
        <time>2020-04-07T09:19:25Z</time>
      </trkpt>
      <trkpt lat="46.07419" lon="6.31404">
        <ele>520.21</ele>
        <time>2020-04-07T09:19:26Z</time>
      </trkpt>
      <trkpt lat="46.07425" lon="6.31402">
        <ele>520.21</ele>
        <time>2020-04-07T09:19:27Z</time>
      </trkpt>
      <trkpt lat="46.07437" lon="6.31411">
        <ele>520.21</ele>
        <time>2020-04-07T09:19:28Z</time>
      </trkpt>
      <trkpt lat="46.07442" lon="6.3142">
        <ele>519.73</ele>
        <time>2020-04-07T09:19:29Z</time>
      </trkpt>
      <trkpt lat="46.07446" lon="6.31429">
        <ele>519.25</ele>
        <time>2020-04-07T09:19:30Z</time>
      </trkpt>
      <trkpt lat="46.07449" lon="6.31436">
        <ele>518.29</ele>
        <time>2020-04-07T09:19:31Z</time>
      </trkpt>
      <trkpt lat="46.0745" lon="6.31445">
        <ele>517.33</ele>
        <time>2020-04-07T09:19:32Z</time>
      </trkpt>
      <trkpt lat="46.07451" lon="6.31452">
        <ele>516.37</ele>
        <time>2020-04-07T09:19:33Z</time>
      </trkpt>
      <trkpt lat="46.0745" lon="6.31459">
        <ele>514.92</ele>
        <time>2020-04-07T09:19:34Z</time>
      </trkpt>
      <trkpt lat="46.07447" lon="6.31464">
        <ele>514.44</ele>
        <time>2020-04-07T09:19:35Z</time>
      </trkpt>
      <trkpt lat="46.07443" lon="6.31469">
        <ele>513.48</ele>
        <time>2020-04-07T09:19:36Z</time>
      </trkpt>
      <trkpt lat="46.07439" lon="6.31475">
        <ele>512.52</ele>
        <time>2020-04-07T09:19:37Z</time>
      </trkpt>
      <trkpt lat="46.07437" lon="6.3148">
        <ele>511.56</ele>
        <time>2020-04-07T09:19:38Z</time>
      </trkpt>
      <trkpt lat="46.07432" lon="6.31491">
        <ele>510.6</ele>
        <time>2020-04-07T09:19:39Z</time>
      </trkpt>
      <trkpt lat="46.07428" lon="6.315">
        <ele>509.64</ele>
        <time>2020-04-07T09:19:40Z</time>
      </trkpt>
      <trkpt lat="46.07425" lon="6.31507">
        <ele>509.16</ele>
        <time>2020-04-07T09:19:41Z</time>
      </trkpt>
      <trkpt lat="46.07422" lon="6.31514">
        <ele>508.67</ele>
        <time>2020-04-07T09:19:42Z</time>
      </trkpt>
      <trkpt lat="46.0742" lon="6.31519">
        <ele>508.19</ele>
        <time>2020-04-07T09:19:43Z</time>
      </trkpt>
      <trkpt lat="46.07416" lon="6.31519">
        <ele>507.71</ele>
        <time>2020-04-07T09:19:44Z</time>
      </trkpt>
      <trkpt lat="46.07411" lon="6.31517">
        <ele>507.23</ele>
        <time>2020-04-07T09:19:45Z</time>
      </trkpt>
      <trkpt lat="46.07406" lon="6.31513">
        <ele>507.23</ele>
        <time>2020-04-07T09:19:46Z</time>
      </trkpt>
      <trkpt lat="46.07402" lon="6.31505">
        <ele>506.75</ele>
        <time>2020-04-07T09:19:47Z</time>
      </trkpt>
      <trkpt lat="46.07398" lon="6.31498">
        <ele>506.75</ele>
        <time>2020-04-07T09:19:48Z</time>
      </trkpt>
      <trkpt lat="46.07395" lon="6.31491">
        <ele>506.27</ele>
        <time>2020-04-07T09:19:49Z</time>
      </trkpt>
      <trkpt lat="46.07389" lon="6.31487">
        <ele>506.27</ele>
        <time>2020-04-07T09:19:50Z</time>
      </trkpt>
      <trkpt lat="46.07386" lon="6.3149">
        <ele>506.27</ele>
        <time>2020-04-07T09:19:51Z</time>
      </trkpt>
      <trkpt lat="46.07383" lon="6.31493">
        <ele>505.79</ele>
        <time>2020-04-07T09:19:52Z</time>
      </trkpt>
      <trkpt lat="46.0738" lon="6.31496">
        <ele>505.79</ele>
        <time>2020-04-07T09:19:53Z</time>
      </trkpt>
      <trkpt lat="46.07378" lon="6.31499">
        <ele>505.31</ele>
        <time>2020-04-07T09:19:54Z</time>
      </trkpt>
      <trkpt lat="46.07375" lon="6.31501">
        <ele>505.31</ele>
        <time>2020-04-07T09:19:55Z</time>
      </trkpt>
      <trkpt lat="46.07373" lon="6.31504">
        <ele>505.31</ele>
        <time>2020-04-07T09:19:56Z</time>
      </trkpt>
      <trkpt lat="46.0737" lon="6.31497">
        <ele>505.79</ele>
        <time>2020-04-07T09:20:03Z</time>
      </trkpt>
      <trkpt lat="46.0737" lon="6.31497">
        <ele>505.79</ele>
        <time>2020-04-07T09:21:10Z</time>
      </trkpt>
      <trkpt lat="46.07367" lon="6.31492">
        <ele>540.4</ele>
        <time>2020-04-07T09:26:17Z</time>
      </trkpt>
      <trkpt lat="46.07375" lon="6.31504">
        <ele>518.77</ele>
        <time>2020-04-07T09:26:31Z</time>
      </trkpt>
      <trkpt lat="46.07392" lon="6.31486">
        <ele>518.77</ele>
        <time>2020-04-07T09:26:33Z</time>
      </trkpt>
      <trkpt lat="46.07393" lon="6.31487">
        <ele>519.25</ele>
        <time>2020-04-07T09:26:34Z</time>
      </trkpt>
      <trkpt lat="46.0739" lon="6.31486">
        <ele>519.25</ele>
        <time>2020-04-07T09:26:35Z</time>
      </trkpt>
      <trkpt lat="46.07391" lon="6.31484">
        <ele>519.25</ele>
        <time>2020-04-07T09:26:36Z</time>
      </trkpt>
      <trkpt lat="46.07396" lon="6.31494">
        <ele>518.77</ele>
        <time>2020-04-07T09:26:37Z</time>
      </trkpt>
      <trkpt lat="46.07398" lon="6.31498">
        <ele>518.77</ele>
        <time>2020-04-07T09:26:38Z</time>
      </trkpt>
      <trkpt lat="46.07401" lon="6.31504">
        <ele>518.29</ele>
        <time>2020-04-07T09:26:39Z</time>
      </trkpt>
      <trkpt lat="46.07404" lon="6.3151">
        <ele>516.85</ele>
        <time>2020-04-07T09:26:40Z</time>
      </trkpt>
      <trkpt lat="46.07406" lon="6.31514">
        <ele>516.85</ele>
        <time>2020-04-07T09:26:41Z</time>
      </trkpt>
      <trkpt lat="46.07413" lon="6.31517">
        <ele>516.37</ele>
        <time>2020-04-07T09:26:42Z</time>
      </trkpt>
      <trkpt lat="46.07416" lon="6.31519">
        <ele>515.88</ele>
        <time>2020-04-07T09:26:43Z</time>
      </trkpt>
      <trkpt lat="46.07419" lon="6.31521">
        <ele>515.88</ele>
        <time>2020-04-07T09:26:44Z</time>
      </trkpt>
      <trkpt lat="46.0742" lon="6.31518">
        <ele>515.4</ele>
        <time>2020-04-07T09:26:45Z</time>
      </trkpt>
      <trkpt lat="46.07422" lon="6.31514">
        <ele>515.4</ele>
        <time>2020-04-07T09:26:46Z</time>
      </trkpt>
      <trkpt lat="46.07425" lon="6.31508">
        <ele>515.4</ele>
        <time>2020-04-07T09:26:47Z</time>
      </trkpt>
      <trkpt lat="46.07429" lon="6.31498">
        <ele>514.92</ele>
        <time>2020-04-07T09:26:48Z</time>
      </trkpt>
      <trkpt lat="46.07434" lon="6.31486">
        <ele>514.92</ele>
        <time>2020-04-07T09:26:49Z</time>
      </trkpt>
      <trkpt lat="46.0744" lon="6.31474">
        <ele>514.44</ele>
        <time>2020-04-07T09:26:50Z</time>
      </trkpt>
      <trkpt lat="46.07451" lon="6.31458">
        <ele>513.96</ele>
        <time>2020-04-07T09:26:52Z</time>
      </trkpt>
      <trkpt lat="46.07451" lon="6.31454">
        <ele>513.48</ele>
        <time>2020-04-07T09:26:53Z</time>
      </trkpt>
      <trkpt lat="46.0745" lon="6.31444">
        <ele>513.48</ele>
        <time>2020-04-07T09:26:54Z</time>
      </trkpt>
      <trkpt lat="46.07448" lon="6.31434">
        <ele>513.48</ele>
        <time>2020-04-07T09:26:55Z</time>
      </trkpt>
      <trkpt lat="46.07443" lon="6.31423">
        <ele>513.48</ele>
        <time>2020-04-07T09:26:56Z</time>
      </trkpt>
      <trkpt lat="46.07439" lon="6.31414">
        <ele>513.96</ele>
        <time>2020-04-07T09:26:57Z</time>
      </trkpt>
      <trkpt lat="46.07443" lon="6.31379">
        <ele>514.44</ele>
        <time>2020-04-07T09:26:58Z</time>
      </trkpt>
      <trkpt lat="46.07444" lon="6.31362">
        <ele>514.92</ele>
        <time>2020-04-07T09:27:00Z</time>
      </trkpt>
      <trkpt lat="46.0744" lon="6.31351">
        <ele>515.4</ele>
        <time>2020-04-07T09:27:01Z</time>
      </trkpt>
      <trkpt lat="46.07435" lon="6.31341">
        <ele>515.88</ele>
        <time>2020-04-07T09:27:02Z</time>
      </trkpt>
      <trkpt lat="46.07427" lon="6.31334">
        <ele>516.37</ele>
        <time>2020-04-07T09:27:03Z</time>
      </trkpt>
      <trkpt lat="46.07419" lon="6.31333">
        <ele>516.37</ele>
        <time>2020-04-07T09:27:04Z</time>
      </trkpt>
      <trkpt lat="46.07409" lon="6.31333">
        <ele>516.37</ele>
        <time>2020-04-07T09:27:05Z</time>
      </trkpt>
      <trkpt lat="46.07401" lon="6.31343">
        <ele>516.85</ele>
        <time>2020-04-07T09:27:06Z</time>
      </trkpt>
      <trkpt lat="46.07398" lon="6.31347">
        <ele>516.85</ele>
        <time>2020-04-07T09:27:07Z</time>
      </trkpt>
      <trkpt lat="46.07381" lon="6.31365">
        <ele>517.33</ele>
        <time>2020-04-07T09:27:08Z</time>
      </trkpt>
      <trkpt lat="46.07368" lon="6.31366">
        <ele>517.33</ele>
        <time>2020-04-07T09:27:09Z</time>
      </trkpt>
      <trkpt lat="46.07353" lon="6.31368">
        <ele>517.33</ele>
        <time>2020-04-07T09:27:10Z</time>
      </trkpt>
      <trkpt lat="46.07336" lon="6.31371">
        <ele>517.81</ele>
        <time>2020-04-07T09:27:11Z</time>
      </trkpt>
      <trkpt lat="46.07201" lon="6.31394">
        <ele>521.17</ele>
        <time>2020-04-07T09:27:20Z</time>
      </trkpt>
      <trkpt lat="46.07059" lon="6.31419">
        <ele>525.02</ele>
        <time>2020-04-07T09:27:31Z</time>
      </trkpt>
      <trkpt lat="46.07006" lon="6.31428">
        <ele>528.38</ele>
        <time>2020-04-07T09:27:37Z</time>
      </trkpt>
      <trkpt lat="46.07" lon="6.31429">
        <ele>528.86</ele>
        <time>2020-04-07T09:27:38Z</time>
      </trkpt>
      <trkpt lat="46.06972" lon="6.31433">
        <ele>529.82</ele>
        <time>2020-04-07T09:27:41Z</time>
      </trkpt>
      <trkpt lat="46.06961" lon="6.31435">
        <ele>531.27</ele>
        <time>2020-04-07T09:27:42Z</time>
      </trkpt>
      <trkpt lat="46.06828" lon="6.31445">
        <ele>539.92</ele>
        <time>2020-04-07T09:27:53Z</time>
      </trkpt>
      <trkpt lat="46.06797" lon="6.31443">
        <ele>540.88</ele>
        <time>2020-04-07T09:27:56Z</time>
      </trkpt>
      <trkpt lat="46.0679" lon="6.31442">
        <ele>541.36</ele>
        <time>2020-04-07T09:27:57Z</time>
      </trkpt>
      <trkpt lat="46.06785" lon="6.31442">
        <ele>541.36</ele>
        <time>2020-04-07T09:27:58Z</time>
      </trkpt>
      <trkpt lat="46.0678" lon="6.31441">
        <ele>541.36</ele>
        <time>2020-04-07T09:27:59Z</time>
      </trkpt>
      <trkpt lat="46.06775" lon="6.31431">
        <ele>541.84</ele>
        <time>2020-04-07T09:28:00Z</time>
      </trkpt>
      <trkpt lat="46.06771" lon="6.31423">
        <ele>542.32</ele>
        <time>2020-04-07T09:28:01Z</time>
      </trkpt>
      <trkpt lat="46.06767" lon="6.31414">
        <ele>542.32</ele>
        <time>2020-04-07T09:28:02Z</time>
      </trkpt>
      <trkpt lat="46.06763" lon="6.31406">
        <ele>542.8</ele>
        <time>2020-04-07T09:28:03Z</time>
      </trkpt>
      <trkpt lat="46.06759" lon="6.31397">
        <ele>542.8</ele>
        <time>2020-04-07T09:28:04Z</time>
      </trkpt>
      <trkpt lat="46.06755" lon="6.3139">
        <ele>542.8</ele>
        <time>2020-04-07T09:28:05Z</time>
      </trkpt>
      <trkpt lat="46.06752" lon="6.31379">
        <ele>543.28</ele>
        <time>2020-04-07T09:28:06Z</time>
      </trkpt>
      <trkpt lat="46.06751" lon="6.31367">
        <ele>543.76</ele>
        <time>2020-04-07T09:28:07Z</time>
      </trkpt>
      <trkpt lat="46.0675" lon="6.31338">
        <ele>545.2</ele>
        <time>2020-04-07T09:28:09Z</time>
      </trkpt>
      <trkpt lat="46.06747" lon="6.31326">
        <ele>545.69</ele>
        <time>2020-04-07T09:28:10Z</time>
      </trkpt>
      <trkpt lat="46.06744" lon="6.31314">
        <ele>546.65</ele>
        <time>2020-04-07T09:28:11Z</time>
      </trkpt>
      <trkpt lat="46.06741" lon="6.31304">
        <ele>548.09</ele>
        <time>2020-04-07T09:28:12Z</time>
      </trkpt>
      <trkpt lat="46.06739" lon="6.31299">
        <ele>549.53</ele>
        <time>2020-04-07T09:28:13Z</time>
      </trkpt>
      <trkpt lat="46.06738" lon="6.31295">
        <ele>550.97</ele>
        <time>2020-04-07T09:28:14Z</time>
      </trkpt>
      <trkpt lat="46.06737" lon="6.31293">
        <ele>551.93</ele>
        <time>2020-04-07T09:28:15Z</time>
      </trkpt>
      <trkpt lat="46.06737" lon="6.31291">
        <ele>553.38</ele>
        <time>2020-04-07T09:28:16Z</time>
      </trkpt>
      <trkpt lat="46.06737" lon="6.31291">
        <ele>554.34</ele>
        <time>2020-04-07T09:28:29Z</time>
      </trkpt>
      <trkpt lat="46.06734" lon="6.31284">
        <ele>556.74</ele>
        <time>2020-04-07T09:28:33Z</time>
      </trkpt>
      <trkpt lat="46.06731" lon="6.31277">
        <ele>558.18</ele>
        <time>2020-04-07T09:28:34Z</time>
      </trkpt>
      <trkpt lat="46.06728" lon="6.3127">
        <ele>559.14</ele>
        <time>2020-04-07T09:28:35Z</time>
      </trkpt>
      <trkpt lat="46.06726" lon="6.31246">
        <ele>560.11</ele>
        <time>2020-04-07T09:28:36Z</time>
      </trkpt>
      <trkpt lat="46.06725" lon="6.31236">
        <ele>561.07</ele>
        <time>2020-04-07T09:28:37Z</time>
      </trkpt>
      <trkpt lat="46.06722" lon="6.31214">
        <ele>561.55</ele>
        <time>2020-04-07T09:28:38Z</time>
      </trkpt>
      <trkpt lat="46.06715" lon="6.31203">
        <ele>562.03</ele>
        <time>2020-04-07T09:28:39Z</time>
      </trkpt>
      <trkpt lat="46.06705" lon="6.31192">
        <ele>562.51</ele>
        <time>2020-04-07T09:28:40Z</time>
      </trkpt>
      <trkpt lat="46.06696" lon="6.31181">
        <ele>562.99</ele>
        <time>2020-04-07T09:28:41Z</time>
      </trkpt>
      <trkpt lat="46.0665" lon="6.31134">
        <ele>565.87</ele>
        <time>2020-04-07T09:28:46Z</time>
      </trkpt>
      <trkpt lat="46.0664" lon="6.31128">
        <ele>566.83</ele>
        <time>2020-04-07T09:28:47Z</time>
      </trkpt>
      <trkpt lat="46.0663" lon="6.31121">
        <ele>567.32</ele>
        <time>2020-04-07T09:28:48Z</time>
      </trkpt>
      <trkpt lat="46.06614" lon="6.31108">
        <ele>567.32</ele>
        <time>2020-04-07T09:28:50Z</time>
      </trkpt>
      <trkpt lat="46.06601" lon="6.311">
        <ele>565.39</ele>
        <time>2020-04-07T09:28:53Z</time>
      </trkpt>
      <trkpt lat="46.06599" lon="6.31089">
        <ele>565.39</ele>
        <time>2020-04-07T09:28:54Z</time>
      </trkpt>
      <trkpt lat="46.06601" lon="6.31074">
        <ele>564.91</ele>
        <time>2020-04-07T09:28:55Z</time>
      </trkpt>
      <trkpt lat="46.06607" lon="6.31024">
        <ele>564.91</ele>
        <time>2020-04-07T09:28:58Z</time>
      </trkpt>
      <trkpt lat="46.0661" lon="6.31008">
        <ele>564.91</ele>
        <time>2020-04-07T09:28:59Z</time>
      </trkpt>
      <trkpt lat="46.0663" lon="6.30918">
        <ele>567.8</ele>
        <time>2020-04-07T09:29:06Z</time>
      </trkpt>
      <trkpt lat="46.06632" lon="6.30913">
        <ele>568.28</ele>
        <time>2020-04-07T09:29:07Z</time>
      </trkpt>
      <trkpt lat="46.06649" lon="6.30911">
        <ele>568.76</ele>
        <time>2020-04-07T09:29:08Z</time>
      </trkpt>
      <trkpt lat="46.06687" lon="6.30902">
        <ele>573.08</ele>
        <time>2020-04-07T09:29:13Z</time>
      </trkpt>
      <trkpt lat="46.06692" lon="6.309">
        <ele>575.01</ele>
        <time>2020-04-07T09:29:14Z</time>
      </trkpt>
      <trkpt lat="46.06698" lon="6.30892">
        <ele>576.45</ele>
        <time>2020-04-07T09:29:15Z</time>
      </trkpt>
      <trkpt lat="46.06709" lon="6.30875">
        <ele>579.33</ele>
        <time>2020-04-07T09:29:17Z</time>
      </trkpt>
      <trkpt lat="46.06716" lon="6.30864">
        <ele>580.29</ele>
        <time>2020-04-07T09:29:18Z</time>
      </trkpt>
      <trkpt lat="46.0674" lon="6.30827">
        <ele>581.73</ele>
        <time>2020-04-07T09:29:22Z</time>
      </trkpt>
      <trkpt lat="46.06743" lon="6.30821">
        <ele>581.73</ele>
        <time>2020-04-07T09:29:23Z</time>
      </trkpt>
      <trkpt lat="46.06746" lon="6.30817">
        <ele>581.73</ele>
        <time>2020-04-07T09:29:24Z</time>
      </trkpt>
      <trkpt lat="46.06747" lon="6.30815">
        <ele>581.73</ele>
        <time>2020-04-07T09:29:25Z</time>
      </trkpt>
      <trkpt lat="46.06747" lon="6.30815">
        <ele>581.25</ele>
        <time>2020-04-07T09:29:35Z</time>
      </trkpt>
      <trkpt lat="46.0675" lon="6.30811">
        <ele>579.81</ele>
        <time>2020-04-07T09:30:04Z</time>
      </trkpt>
    </trkseg>
  </trk>
  <trk>
    <name><![CDATA[Journal actif: 2020-04-11 16:04]]></name>
    <trkseg>
      <trkpt lat="46.07078" lon="6.30057">
        <ele>588.95</ele>
        <time>2020-04-11T14:04:33Z</time>
      </trkpt>
      <trkpt lat="46.07079" lon="6.30057">
        <ele>589.91</ele>
        <time>2020-04-11T14:04:35Z</time>
      </trkpt>
      <trkpt lat="46.07092" lon="6.30054">
        <ele>590.87</ele>
        <time>2020-04-11T14:04:37Z</time>
      </trkpt>
      <trkpt lat="46.0711" lon="6.3003">
        <ele>582.7</ele>
        <time>2020-04-11T14:04:39Z</time>
      </trkpt>
      <trkpt lat="46.07138" lon="6.30007">
        <ele>587.98</ele>
        <time>2020-04-11T14:04:42Z</time>
      </trkpt>
      <trkpt lat="46.07231" lon="6.2993">
        <ele>595.67</ele>
        <time>2020-04-11T14:04:51Z</time>
      </trkpt>
      <trkpt lat="46.07312" lon="6.29866">
        <ele>597.6</ele>
        <time>2020-04-11T14:05:01Z</time>
      </trkpt>
      <trkpt lat="46.07375" lon="6.29818">
        <ele>600</ele>
        <time>2020-04-11T14:05:09Z</time>
      </trkpt>
      <trkpt lat="46.07494" lon="6.29744">
        <ele>597.6</ele>
        <time>2020-04-11T14:05:18Z</time>
      </trkpt>
      <trkpt lat="46.07509" lon="6.29738">
        <ele>597.12</ele>
        <time>2020-04-11T14:05:19Z</time>
      </trkpt>
      <trkpt lat="46.07525" lon="6.29736">
        <ele>596.64</ele>
        <time>2020-04-11T14:05:20Z</time>
      </trkpt>
      <trkpt lat="46.07555" lon="6.29737">
        <ele>595.19</ele>
        <time>2020-04-11T14:05:22Z</time>
      </trkpt>
      <trkpt lat="46.0757" lon="6.29739">
        <ele>594.71</ele>
        <time>2020-04-11T14:05:23Z</time>
      </trkpt>
      <trkpt lat="46.07583" lon="6.29745">
        <ele>594.71</ele>
        <time>2020-04-11T14:05:24Z</time>
      </trkpt>
      <trkpt lat="46.07624" lon="6.29761">
        <ele>594.23</ele>
        <time>2020-04-11T14:05:27Z</time>
      </trkpt>
      <trkpt lat="46.07639" lon="6.29761">
        <ele>593.75</ele>
        <time>2020-04-11T14:05:28Z</time>
      </trkpt>
      <trkpt lat="46.07653" lon="6.29761">
        <ele>593.75</ele>
        <time>2020-04-11T14:05:29Z</time>
      </trkpt>
      <trkpt lat="46.07668" lon="6.29758">
        <ele>593.27</ele>
        <time>2020-04-11T14:05:30Z</time>
      </trkpt>
      <trkpt lat="46.07683" lon="6.29749">
        <ele>592.79</ele>
        <time>2020-04-11T14:05:31Z</time>
      </trkpt>
      <trkpt lat="46.07698" lon="6.29739">
        <ele>592.79</ele>
        <time>2020-04-11T14:05:32Z</time>
      </trkpt>
      <trkpt lat="46.07744" lon="6.2971">
        <ele>591.83</ele>
        <time>2020-04-11T14:05:35Z</time>
      </trkpt>
      <trkpt lat="46.07758" lon="6.297">
        <ele>591.35</ele>
        <time>2020-04-11T14:05:36Z</time>
      </trkpt>
      <trkpt lat="46.07806" lon="6.29657">
        <ele>590.87</ele>
        <time>2020-04-11T14:05:41Z</time>
      </trkpt>
      <trkpt lat="46.07812" lon="6.29649">
        <ele>591.35</ele>
        <time>2020-04-11T14:05:42Z</time>
      </trkpt>
      <trkpt lat="46.07816" lon="6.29643">
        <ele>591.35</ele>
        <time>2020-04-11T14:05:43Z</time>
      </trkpt>
      <trkpt lat="46.07819" lon="6.29635">
        <ele>591.35</ele>
        <time>2020-04-11T14:05:44Z</time>
      </trkpt>
      <trkpt lat="46.0782" lon="6.29625">
        <ele>591.35</ele>
        <time>2020-04-11T14:05:45Z</time>
      </trkpt>
      <trkpt lat="46.07815" lon="6.29621">
        <ele>590.87</ele>
        <time>2020-04-11T14:05:46Z</time>
      </trkpt>
      <trkpt lat="46.07809" lon="6.29617">
        <ele>590.87</ele>
        <time>2020-04-11T14:05:47Z</time>
      </trkpt>
      <trkpt lat="46.07802" lon="6.29618">
        <ele>590.87</ele>
        <time>2020-04-11T14:05:48Z</time>
      </trkpt>
      <trkpt lat="46.07793" lon="6.29623">
        <ele>591.35</ele>
        <time>2020-04-11T14:05:49Z</time>
      </trkpt>
      <trkpt lat="46.07784" lon="6.2963">
        <ele>591.83</ele>
        <time>2020-04-11T14:05:50Z</time>
      </trkpt>
      <trkpt lat="46.07776" lon="6.29637">
        <ele>592.31</ele>
        <time>2020-04-11T14:05:51Z</time>
      </trkpt>
      <trkpt lat="46.07768" lon="6.29643">
        <ele>592.31</ele>
        <time>2020-04-11T14:05:52Z</time>
      </trkpt>
      <trkpt lat="46.0776" lon="6.29649">
        <ele>592.79</ele>
        <time>2020-04-11T14:05:53Z</time>
      </trkpt>
      <trkpt lat="46.07752" lon="6.29649">
        <ele>592.31</ele>
        <time>2020-04-11T14:05:54Z</time>
      </trkpt>
      <trkpt lat="46.07744" lon="6.29646">
        <ele>592.31</ele>
        <time>2020-04-11T14:05:55Z</time>
      </trkpt>
      <trkpt lat="46.07736" lon="6.29642">
        <ele>592.31</ele>
        <time>2020-04-11T14:05:56Z</time>
      </trkpt>
      <trkpt lat="46.07728" lon="6.29638">
        <ele>592.79</ele>
        <time>2020-04-11T14:05:57Z</time>
      </trkpt>
      <trkpt lat="46.07718" lon="6.29622">
        <ele>593.27</ele>
        <time>2020-04-11T14:05:58Z</time>
      </trkpt>
      <trkpt lat="46.07712" lon="6.29603">
        <ele>593.75</ele>
        <time>2020-04-11T14:05:59Z</time>
      </trkpt>
      <trkpt lat="46.07703" lon="6.29578">
        <ele>594.23</ele>
        <time>2020-04-11T14:06:00Z</time>
      </trkpt>
      <trkpt lat="46.07648" lon="6.29423">
        <ele>597.12</ele>
        <time>2020-04-11T14:06:04Z</time>
      </trkpt>
      <trkpt lat="46.07617" lon="6.29341">
        <ele>599.04</ele>
        <time>2020-04-11T14:06:06Z</time>
      </trkpt>
      <trkpt lat="46.07601" lon="6.29301">
        <ele>600.48</ele>
        <time>2020-04-11T14:06:07Z</time>
      </trkpt>
      <trkpt lat="46.07505" lon="6.29141">
        <ele>609.61</ele>
        <time>2020-04-11T14:06:12Z</time>
      </trkpt>
      <trkpt lat="46.07491" lon="6.29103">
        <ele>611.06</ele>
        <time>2020-04-11T14:06:13Z</time>
      </trkpt>
      <trkpt lat="46.07455" lon="6.28978">
        <ele>617.3</ele>
        <time>2020-04-11T14:06:17Z</time>
      </trkpt>
      <trkpt lat="46.07441" lon="6.28954">
        <ele>618.75</ele>
        <time>2020-04-11T14:06:18Z</time>
      </trkpt>
      <trkpt lat="46.07426" lon="6.2893">
        <ele>620.19</ele>
        <time>2020-04-11T14:06:19Z</time>
      </trkpt>
      <trkpt lat="46.07411" lon="6.28905">
        <ele>621.63</ele>
        <time>2020-04-11T14:06:20Z</time>
      </trkpt>
      <trkpt lat="46.07393" lon="6.28887">
        <ele>623.07</ele>
        <time>2020-04-11T14:06:21Z</time>
      </trkpt>
      <trkpt lat="46.07372" lon="6.28871">
        <ele>624.51</ele>
        <time>2020-04-11T14:06:22Z</time>
      </trkpt>
      <trkpt lat="46.07351" lon="6.28857">
        <ele>625.96</ele>
        <time>2020-04-11T14:06:23Z</time>
      </trkpt>
      <trkpt lat="46.07328" lon="6.28846">
        <ele>627.88</ele>
        <time>2020-04-11T14:06:24Z</time>
      </trkpt>
      <trkpt lat="46.07304" lon="6.28838">
        <ele>629.32</ele>
        <time>2020-04-11T14:06:25Z</time>
      </trkpt>
      <trkpt lat="46.0728" lon="6.28834">
        <ele>631.24</ele>
        <time>2020-04-11T14:06:26Z</time>
      </trkpt>
      <trkpt lat="46.07256" lon="6.2883">
        <ele>632.68</ele>
        <time>2020-04-11T14:06:27Z</time>
      </trkpt>
      <trkpt lat="46.07231" lon="6.28827">
        <ele>634.13</ele>
        <time>2020-04-11T14:06:28Z</time>
      </trkpt>
      <trkpt lat="46.07062" lon="6.28809">
        <ele>645.18</ele>
        <time>2020-04-11T14:06:36Z</time>
      </trkpt>
      <trkpt lat="46.0695" lon="6.28747">
        <ele>653.35</ele>
        <time>2020-04-11T14:06:43Z</time>
      </trkpt>
      <trkpt lat="46.06829" lon="6.2868">
        <ele>661.04</ele>
        <time>2020-04-11T14:06:49Z</time>
      </trkpt>
      <trkpt lat="46.06807" lon="6.28674">
        <ele>662.01</ele>
        <time>2020-04-11T14:06:50Z</time>
      </trkpt>
      <trkpt lat="46.06786" lon="6.28673">
        <ele>662.97</ele>
        <time>2020-04-11T14:06:51Z</time>
      </trkpt>
      <trkpt lat="46.06765" lon="6.28677">
        <ele>664.41</ele>
        <time>2020-04-11T14:06:52Z</time>
      </trkpt>
      <trkpt lat="46.06744" lon="6.28681">
        <ele>665.37</ele>
        <time>2020-04-11T14:06:53Z</time>
      </trkpt>
      <trkpt lat="46.06724" lon="6.28687">
        <ele>666.33</ele>
        <time>2020-04-11T14:06:54Z</time>
      </trkpt>
      <trkpt lat="46.06704" lon="6.28699">
        <ele>667.29</ele>
        <time>2020-04-11T14:06:55Z</time>
      </trkpt>
      <trkpt lat="46.06684" lon="6.2871">
        <ele>668.73</ele>
        <time>2020-04-11T14:06:56Z</time>
      </trkpt>
      <trkpt lat="46.06665" lon="6.28722">
        <ele>669.7</ele>
        <time>2020-04-11T14:06:57Z</time>
      </trkpt>
      <trkpt lat="46.06505" lon="6.28818">
        <ele>678.83</ele>
        <time>2020-04-11T14:07:06Z</time>
      </trkpt>
      <trkpt lat="46.06479" lon="6.28826">
        <ele>680.27</ele>
        <time>2020-04-11T14:07:08Z</time>
      </trkpt>
      <trkpt lat="46.06468" lon="6.28829">
        <ele>680.75</ele>
        <time>2020-04-11T14:07:09Z</time>
      </trkpt>
      <trkpt lat="46.06452" lon="6.28819">
        <ele>681.71</ele>
        <time>2020-04-11T14:07:10Z</time>
      </trkpt>
      <trkpt lat="46.06447" lon="6.28817">
        <ele>682.67</ele>
        <time>2020-04-11T14:07:11Z</time>
      </trkpt>
      <trkpt lat="46.06436" lon="6.28819">
        <ele>683.15</ele>
        <time>2020-04-11T14:07:12Z</time>
      </trkpt>
      <trkpt lat="46.06428" lon="6.28826">
        <ele>684.12</ele>
        <time>2020-04-11T14:07:13Z</time>
      </trkpt>
      <trkpt lat="46.06418" lon="6.28838">
        <ele>684.12</ele>
        <time>2020-04-11T14:07:14Z</time>
      </trkpt>
      <trkpt lat="46.06407" lon="6.2884">
        <ele>684.12</ele>
        <time>2020-04-11T14:07:15Z</time>
      </trkpt>
      <trkpt lat="46.06392" lon="6.28843">
        <ele>684.12</ele>
        <time>2020-04-11T14:07:16Z</time>
      </trkpt>
      <trkpt lat="46.06376" lon="6.28847">
        <ele>684.12</ele>
        <time>2020-04-11T14:07:17Z</time>
      </trkpt>
      <trkpt lat="46.0625" lon="6.2888">
        <ele>689.4</ele>
        <time>2020-04-11T14:07:23Z</time>
      </trkpt>
      <trkpt lat="46.05931" lon="6.28987">
        <ele>707.67</ele>
        <time>2020-04-11T14:07:37Z</time>
      </trkpt>
      <trkpt lat="46.05781" lon="6.29004">
        <ele>714.88</ele>
        <time>2020-04-11T14:07:44Z</time>
      </trkpt>
      <trkpt lat="46.05716" lon="6.28976">
        <ele>718.72</ele>
        <time>2020-04-11T14:07:47Z</time>
      </trkpt>
      <trkpt lat="46.05692" lon="6.2896">
        <ele>720.16</ele>
        <time>2020-04-11T14:07:48Z</time>
      </trkpt>
      <trkpt lat="46.0567" lon="6.28941">
        <ele>721.13</ele>
        <time>2020-04-11T14:07:49Z</time>
      </trkpt>
      <trkpt lat="46.05649" lon="6.28918">
        <ele>722.57</ele>
        <time>2020-04-11T14:07:50Z</time>
      </trkpt>
      <trkpt lat="46.05632" lon="6.2889">
        <ele>723.53</ele>
        <time>2020-04-11T14:07:51Z</time>
      </trkpt>
      <trkpt lat="46.05615" lon="6.28862">
        <ele>724.97</ele>
        <time>2020-04-11T14:07:52Z</time>
      </trkpt>
      <trkpt lat="46.056" lon="6.28832">
        <ele>726.41</ele>
        <time>2020-04-11T14:07:53Z</time>
      </trkpt>
      <trkpt lat="46.05587" lon="6.288">
        <ele>727.86</ele>
        <time>2020-04-11T14:07:54Z</time>
      </trkpt>
      <trkpt lat="46.05474" lon="6.28478">
        <ele>741.79</ele>
        <time>2020-04-11T14:08:04Z</time>
      </trkpt>
      <trkpt lat="46.05347" lon="6.28118">
        <ele>751.89</ele>
        <time>2020-04-11T14:08:15Z</time>
      </trkpt>
      <trkpt lat="46.0519" lon="6.27658">
        <ele>757.18</ele>
        <time>2020-04-11T14:08:28Z</time>
      </trkpt>
      <trkpt lat="46.05135" lon="6.27394">
        <ele>760.54</ele>
        <time>2020-04-11T14:08:34Z</time>
      </trkpt>
      <trkpt lat="46.05125" lon="6.27147">
        <ele>765.83</ele>
        <time>2020-04-11T14:08:40Z</time>
      </trkpt>
      <trkpt lat="46.05148" lon="6.26813">
        <ele>775.92</ele>
        <time>2020-04-11T14:08:49Z</time>
      </trkpt>
      <trkpt lat="46.05144" lon="6.26777">
        <ele>776.88</ele>
        <time>2020-04-11T14:08:50Z</time>
      </trkpt>
      <trkpt lat="46.05141" lon="6.2674">
        <ele>777.36</ele>
        <time>2020-04-11T14:08:51Z</time>
      </trkpt>
      <trkpt lat="46.05132" lon="6.26706">
        <ele>777.36</ele>
        <time>2020-04-11T14:08:52Z</time>
      </trkpt>
      <trkpt lat="46.05123" lon="6.26672">
        <ele>777.36</ele>
        <time>2020-04-11T14:08:53Z</time>
      </trkpt>
      <trkpt lat="46.05111" lon="6.26639">
        <ele>777.36</ele>
        <time>2020-04-11T14:08:54Z</time>
      </trkpt>
      <trkpt lat="46.05097" lon="6.26607">
        <ele>777.84</ele>
        <time>2020-04-11T14:08:55Z</time>
      </trkpt>
      <trkpt lat="46.05081" lon="6.26578">
        <ele>778.81</ele>
        <time>2020-04-11T14:08:56Z</time>
      </trkpt>
      <trkpt lat="46.05063" lon="6.2655">
        <ele>779.77</ele>
        <time>2020-04-11T14:08:57Z</time>
      </trkpt>
      <trkpt lat="46.05042" lon="6.26526">
        <ele>780.73</ele>
        <time>2020-04-11T14:08:58Z</time>
      </trkpt>
      <trkpt lat="46.0502" lon="6.26504">
        <ele>782.17</ele>
        <time>2020-04-11T14:08:59Z</time>
      </trkpt>
      <trkpt lat="46.04997" lon="6.26481">
        <ele>783.13</ele>
        <time>2020-04-11T14:09:00Z</time>
      </trkpt>
      <trkpt lat="46.04884" lon="6.26377">
        <ele>789.38</ele>
        <time>2020-04-11T14:09:05Z</time>
      </trkpt>
      <trkpt lat="46.04865" lon="6.26352">
        <ele>790.34</ele>
        <time>2020-04-11T14:09:06Z</time>
      </trkpt>
      <trkpt lat="46.04849" lon="6.26324">
        <ele>791.78</ele>
        <time>2020-04-11T14:09:07Z</time>
      </trkpt>
      <trkpt lat="46.04708" lon="6.26036">
        <ele>803.8</ele>
        <time>2020-04-11T14:09:17Z</time>
      </trkpt>
      <trkpt lat="46.04594" lon="6.25802">
        <ele>811.49</ele>
        <time>2020-04-11T14:09:27Z</time>
      </trkpt>
      <trkpt lat="46.04467" lon="6.25535">
        <ele>813.89</ele>
        <time>2020-04-11T14:09:36Z</time>
      </trkpt>
      <trkpt lat="46.04453" lon="6.25504">
        <ele>813.41</ele>
        <time>2020-04-11T14:09:37Z</time>
      </trkpt>
      <trkpt lat="46.04444" lon="6.25468">
        <ele>812.93</ele>
        <time>2020-04-11T14:09:38Z</time>
      </trkpt>
      <trkpt lat="46.04358" lon="6.25119">
        <ele>805.72</ele>
        <time>2020-04-11T14:09:48Z</time>
      </trkpt>
      <trkpt lat="46.04346" lon="6.25087">
        <ele>804.76</ele>
        <time>2020-04-11T14:09:49Z</time>
      </trkpt>
      <trkpt lat="46.04331" lon="6.25057">
        <ele>803.32</ele>
        <time>2020-04-11T14:09:50Z</time>
      </trkpt>
      <trkpt lat="46.04316" lon="6.25027">
        <ele>801.88</ele>
        <time>2020-04-11T14:09:51Z</time>
      </trkpt>
      <trkpt lat="46.043" lon="6.24998">
        <ele>800.44</ele>
        <time>2020-04-11T14:09:52Z</time>
      </trkpt>
      <trkpt lat="46.04281" lon="6.24972">
        <ele>798.99</ele>
        <time>2020-04-11T14:09:53Z</time>
      </trkpt>
      <trkpt lat="46.04123" lon="6.24765">
        <ele>795.15</ele>
        <time>2020-04-11T14:10:01Z</time>
      </trkpt>
      <trkpt lat="46.04102" lon="6.24746">
        <ele>796.11</ele>
        <time>2020-04-11T14:10:02Z</time>
      </trkpt>
      <trkpt lat="46.04078" lon="6.24733">
        <ele>796.59</ele>
        <time>2020-04-11T14:10:03Z</time>
      </trkpt>
      <trkpt lat="46.04054" lon="6.24721">
        <ele>797.55</ele>
        <time>2020-04-11T14:10:04Z</time>
      </trkpt>
      <trkpt lat="46.0403" lon="6.24713">
        <ele>798.03</ele>
        <time>2020-04-11T14:10:05Z</time>
      </trkpt>
      <trkpt lat="46.04005" lon="6.24707">
        <ele>798.99</ele>
        <time>2020-04-11T14:10:06Z</time>
      </trkpt>
      <trkpt lat="46.03957" lon="6.24686">
        <ele>800.44</ele>
        <time>2020-04-11T14:10:08Z</time>
      </trkpt>
      <trkpt lat="46.03934" lon="6.24671">
        <ele>800.44</ele>
        <time>2020-04-11T14:10:09Z</time>
      </trkpt>
      <trkpt lat="46.03913" lon="6.2465">
        <ele>800.92</ele>
        <time>2020-04-11T14:10:10Z</time>
      </trkpt>
      <trkpt lat="46.03892" lon="6.24629">
        <ele>801.4</ele>
        <time>2020-04-11T14:10:11Z</time>
      </trkpt>
      <trkpt lat="46.03875" lon="6.24602">
        <ele>800.92</ele>
        <time>2020-04-11T14:10:12Z</time>
      </trkpt>
      <trkpt lat="46.03859" lon="6.24573">
        <ele>800.44</ele>
        <time>2020-04-11T14:10:13Z</time>
      </trkpt>
      <trkpt lat="46.03846" lon="6.2454">
        <ele>799.95</ele>
        <time>2020-04-11T14:10:14Z</time>
      </trkpt>
      <trkpt lat="46.03836" lon="6.24504">
        <ele>798.99</ele>
        <time>2020-04-11T14:10:15Z</time>
      </trkpt>
      <trkpt lat="46.03827" lon="6.24467">
        <ele>798.51</ele>
        <time>2020-04-11T14:10:16Z</time>
      </trkpt>
      <trkpt lat="46.03819" lon="6.24429">
        <ele>797.55</ele>
        <time>2020-04-11T14:10:17Z</time>
      </trkpt>
      <trkpt lat="46.03776" lon="6.24252">
        <ele>789.86</ele>
        <time>2020-04-11T14:10:22Z</time>
      </trkpt>
      <trkpt lat="46.03765" lon="6.24221">
        <ele>787.94</ele>
        <time>2020-04-11T14:10:23Z</time>
      </trkpt>
      <trkpt lat="46.0375" lon="6.24194">
        <ele>786.5</ele>
        <time>2020-04-11T14:10:24Z</time>
      </trkpt>
      <trkpt lat="46.03734" lon="6.24169">
        <ele>784.57</ele>
        <time>2020-04-11T14:10:25Z</time>
      </trkpt>
      <trkpt lat="46.03717" lon="6.24145">
        <ele>782.65</ele>
        <time>2020-04-11T14:10:26Z</time>
      </trkpt>
      <trkpt lat="46.037" lon="6.24122">
        <ele>781.21</ele>
        <time>2020-04-11T14:10:27Z</time>
      </trkpt>
      <trkpt lat="46.03681" lon="6.24103">
        <ele>779.77</ele>
        <time>2020-04-11T14:10:28Z</time>
      </trkpt>
      <trkpt lat="46.03661" lon="6.24086">
        <ele>778.32</ele>
        <time>2020-04-11T14:10:29Z</time>
      </trkpt>
      <trkpt lat="46.0364" lon="6.24076">
        <ele>776.88</ele>
        <time>2020-04-11T14:10:30Z</time>
      </trkpt>
      <trkpt lat="46.03619" lon="6.24073">
        <ele>775.92</ele>
        <time>2020-04-11T14:10:31Z</time>
      </trkpt>
      <trkpt lat="46.03599" lon="6.24071">
        <ele>774.96</ele>
        <time>2020-04-11T14:10:32Z</time>
      </trkpt>
      <trkpt lat="46.03579" lon="6.24075">
        <ele>773.52</ele>
        <time>2020-04-11T14:10:33Z</time>
      </trkpt>
      <trkpt lat="46.0356" lon="6.24082">
        <ele>772.56</ele>
        <time>2020-04-11T14:10:34Z</time>
      </trkpt>
      <trkpt lat="46.03543" lon="6.24094">
        <ele>771.6</ele>
        <time>2020-04-11T14:10:35Z</time>
      </trkpt>
      <trkpt lat="46.03527" lon="6.24109">
        <ele>770.63</ele>
        <time>2020-04-11T14:10:36Z</time>
      </trkpt>
      <trkpt lat="46.03514" lon="6.2413">
        <ele>769.67</ele>
        <time>2020-04-11T14:10:37Z</time>
      </trkpt>
      <trkpt lat="46.03501" lon="6.24152">
        <ele>768.23</ele>
        <time>2020-04-11T14:10:38Z</time>
      </trkpt>
      <trkpt lat="46.03488" lon="6.24173">
        <ele>767.27</ele>
        <time>2020-04-11T14:10:39Z</time>
      </trkpt>
      <trkpt lat="46.03448" lon="6.24235">
        <ele>763.9</ele>
        <time>2020-04-11T14:10:42Z</time>
      </trkpt>
      <trkpt lat="46.03431" lon="6.24246">
        <ele>762.94</ele>
        <time>2020-04-11T14:10:43Z</time>
      </trkpt>
      <trkpt lat="46.03415" lon="6.24255">
        <ele>761.98</ele>
        <time>2020-04-11T14:10:44Z</time>
      </trkpt>
      <trkpt lat="46.03397" lon="6.24261">
        <ele>760.54</ele>
        <time>2020-04-11T14:10:45Z</time>
      </trkpt>
      <trkpt lat="46.0338" lon="6.24262">
        <ele>759.58</ele>
        <time>2020-04-11T14:10:46Z</time>
      </trkpt>
      <trkpt lat="46.03362" lon="6.24258">
        <ele>759.1</ele>
        <time>2020-04-11T14:10:47Z</time>
      </trkpt>
      <trkpt lat="46.03346" lon="6.2425">
        <ele>758.14</ele>
        <time>2020-04-11T14:10:48Z</time>
      </trkpt>
      <trkpt lat="46.0333" lon="6.24237">
        <ele>757.66</ele>
        <time>2020-04-11T14:10:49Z</time>
      </trkpt>
      <trkpt lat="46.03312" lon="6.24223">
        <ele>757.18</ele>
        <time>2020-04-11T14:10:50Z</time>
      </trkpt>
      <trkpt lat="46.03298" lon="6.24208">
        <ele>756.69</ele>
        <time>2020-04-11T14:10:51Z</time>
      </trkpt>
      <trkpt lat="46.03283" lon="6.24187">
        <ele>756.69</ele>
        <time>2020-04-11T14:10:52Z</time>
      </trkpt>
      <trkpt lat="46.03149" lon="6.24014">
        <ele>753.81</ele>
        <time>2020-04-11T14:11:00Z</time>
      </trkpt>
      <trkpt lat="46.0302" lon="6.2388">
        <ele>749.49</ele>
        <time>2020-04-11T14:11:07Z</time>
      </trkpt>
      <trkpt lat="46.02998" lon="6.23868">
        <ele>749</ele>
        <time>2020-04-11T14:11:08Z</time>
      </trkpt>
      <trkpt lat="46.02912" lon="6.23821">
        <ele>746.12</ele>
        <time>2020-04-11T14:11:12Z</time>
      </trkpt>
      <trkpt lat="46.02739" lon="6.23776">
        <ele>739.39</ele>
        <time>2020-04-11T14:11:20Z</time>
      </trkpt>
      <trkpt lat="46.02554" lon="6.23723">
        <ele>729.3</ele>
        <time>2020-04-11T14:11:30Z</time>
      </trkpt>
      <trkpt lat="46.02538" lon="6.2371">
        <ele>728.34</ele>
        <time>2020-04-11T14:11:31Z</time>
      </trkpt>
      <trkpt lat="46.02524" lon="6.23695">
        <ele>727.37</ele>
        <time>2020-04-11T14:11:32Z</time>
      </trkpt>
      <trkpt lat="46.02512" lon="6.23682">
        <ele>726.41</ele>
        <time>2020-04-11T14:11:33Z</time>
      </trkpt>
      <trkpt lat="46.02499" lon="6.23661">
        <ele>725.45</ele>
        <time>2020-04-11T14:11:34Z</time>
      </trkpt>
      <trkpt lat="46.02488" lon="6.23643">
        <ele>724.97</ele>
        <time>2020-04-11T14:11:35Z</time>
      </trkpt>
      <trkpt lat="46.02477" lon="6.23624">
        <ele>724.01</ele>
        <time>2020-04-11T14:11:36Z</time>
      </trkpt>
      <trkpt lat="46.02393" lon="6.2347">
        <ele>719.2</ele>
        <time>2020-04-11T14:11:44Z</time>
      </trkpt>
      <trkpt lat="46.02379" lon="6.23458">
        <ele>718.72</ele>
        <time>2020-04-11T14:11:45Z</time>
      </trkpt>
      <trkpt lat="46.02272" lon="6.23348">
        <ele>710.55</ele>
        <time>2020-04-11T14:11:54Z</time>
      </trkpt>
      <trkpt lat="46.02178" lon="6.23154">
        <ele>705.26</ele>
        <time>2020-04-11T14:12:05Z</time>
      </trkpt>
      <trkpt lat="46.02148" lon="6.23102">
        <ele>704.3</ele>
        <time>2020-04-11T14:12:08Z</time>
      </trkpt>
      <trkpt lat="46.02136" lon="6.23085">
        <ele>704.3</ele>
        <time>2020-04-11T14:12:09Z</time>
      </trkpt>
      <trkpt lat="46.02098" lon="6.23035">
        <ele>703.34</ele>
        <time>2020-04-11T14:12:12Z</time>
      </trkpt>
      <trkpt lat="46.02085" lon="6.23019">
        <ele>702.86</ele>
        <time>2020-04-11T14:12:13Z</time>
      </trkpt>
      <trkpt lat="46.02074" lon="6.23">
        <ele>702.38</ele>
        <time>2020-04-11T14:12:14Z</time>
      </trkpt>
      <trkpt lat="46.02065" lon="6.22982">
        <ele>702.38</ele>
        <time>2020-04-11T14:12:15Z</time>
      </trkpt>
      <trkpt lat="46.02058" lon="6.2296">
        <ele>701.9</ele>
        <time>2020-04-11T14:12:16Z</time>
      </trkpt>
      <trkpt lat="46.0205" lon="6.22937">
        <ele>701.9</ele>
        <time>2020-04-11T14:12:17Z</time>
      </trkpt>
      <trkpt lat="46.02043" lon="6.22914">
        <ele>701.9</ele>
        <time>2020-04-11T14:12:18Z</time>
      </trkpt>
      <trkpt lat="46.02039" lon="6.22887">
        <ele>701.42</ele>
        <time>2020-04-11T14:12:19Z</time>
      </trkpt>
      <trkpt lat="46.02034" lon="6.22857">
        <ele>701.42</ele>
        <time>2020-04-11T14:12:20Z</time>
      </trkpt>
      <trkpt lat="46.02008" lon="6.22677">
        <ele>699.5</ele>
        <time>2020-04-11T14:12:24Z</time>
      </trkpt>
      <trkpt lat="46.01957" lon="6.22339">
        <ele>693.25</ele>
        <time>2020-04-11T14:12:30Z</time>
      </trkpt>
      <trkpt lat="46.01886" lon="6.21982">
        <ele>685.08</ele>
        <time>2020-04-11T14:12:37Z</time>
      </trkpt>
      <trkpt lat="46.01781" lon="6.21705">
        <ele>682.19</ele>
        <time>2020-04-11T14:12:43Z</time>
      </trkpt>
      <trkpt lat="46.01697" lon="6.21512">
        <ele>681.23</ele>
        <time>2020-04-11T14:12:48Z</time>
      </trkpt>
      <trkpt lat="46.01674" lon="6.21482">
        <ele>681.23</ele>
        <time>2020-04-11T14:12:49Z</time>
      </trkpt>
      <trkpt lat="46.01648" lon="6.21453">
        <ele>681.23</ele>
        <time>2020-04-11T14:12:50Z</time>
      </trkpt>
      <trkpt lat="46.01499" lon="6.21308">
        <ele>678.83</ele>
        <time>2020-04-11T14:12:55Z</time>
      </trkpt>
      <trkpt lat="46.01422" lon="6.21224">
        <ele>675.94</ele>
        <time>2020-04-11T14:12:58Z</time>
      </trkpt>
      <trkpt lat="46.01304" lon="6.21044">
        <ele>671.14</ele>
        <time>2020-04-11T14:13:04Z</time>
      </trkpt>
      <trkpt lat="46.01078" lon="6.2077">
        <ele>663.45</ele>
        <time>2020-04-11T14:13:15Z</time>
      </trkpt>
      <trkpt lat="46.00898" lon="6.20555">
        <ele>661.52</ele>
        <time>2020-04-11T14:13:25Z</time>
      </trkpt>
      <trkpt lat="46.00884" lon="6.20533">
        <ele>661.04</ele>
        <time>2020-04-11T14:13:26Z</time>
      </trkpt>
      <trkpt lat="46.00873" lon="6.20505">
        <ele>660.56</ele>
        <time>2020-04-11T14:13:27Z</time>
      </trkpt>
      <trkpt lat="46.00862" lon="6.20478">
        <ele>660.08</ele>
        <time>2020-04-11T14:13:28Z</time>
      </trkpt>
      <trkpt lat="46.00853" lon="6.20448">
        <ele>659.6</ele>
        <time>2020-04-11T14:13:29Z</time>
      </trkpt>
      <trkpt lat="46.00845" lon="6.20416">
        <ele>659.6</ele>
        <time>2020-04-11T14:13:30Z</time>
      </trkpt>
      <trkpt lat="46.00753" lon="6.20066">
        <ele>650.47</ele>
        <time>2020-04-11T14:13:40Z</time>
      </trkpt>
      <trkpt lat="46.00705" lon="6.19836">
        <ele>640.86</ele>
        <time>2020-04-11T14:13:45Z</time>
      </trkpt>
      <trkpt lat="46.00683" lon="6.19756">
        <ele>637.49</ele>
        <time>2020-04-11T14:13:47Z</time>
      </trkpt>
      <trkpt lat="46.00669" lon="6.19717">
        <ele>636.05</ele>
        <time>2020-04-11T14:13:48Z</time>
      </trkpt>
      <trkpt lat="46.00604" lon="6.19556">
        <ele>627.88</ele>
        <time>2020-04-11T14:13:53Z</time>
      </trkpt>
      <trkpt lat="46.00589" lon="6.19536">
        <ele>626.92</ele>
        <time>2020-04-11T14:13:54Z</time>
      </trkpt>
      <trkpt lat="46.00573" lon="6.19516">
        <ele>625.47</ele>
        <time>2020-04-11T14:13:55Z</time>
      </trkpt>
      <trkpt lat="46.00538" lon="6.19484">
        <ele>622.11</ele>
        <time>2020-04-11T14:13:57Z</time>
      </trkpt>
      <trkpt lat="46.00525" lon="6.19472">
        <ele>620.19</ele>
        <time>2020-04-11T14:13:58Z</time>
      </trkpt>
      <trkpt lat="46.00509" lon="6.19446">
        <ele>618.75</ele>
        <time>2020-04-11T14:13:59Z</time>
      </trkpt>
      <trkpt lat="46.00497" lon="6.19427">
        <ele>616.82</ele>
        <time>2020-04-11T14:14:00Z</time>
      </trkpt>
      <trkpt lat="46.00489" lon="6.19408">
        <ele>615.38</ele>
        <time>2020-04-11T14:14:01Z</time>
      </trkpt>
      <trkpt lat="46.0048" lon="6.19382">
        <ele>613.94</ele>
        <time>2020-04-11T14:14:02Z</time>
      </trkpt>
      <trkpt lat="46.0048" lon="6.1937">
        <ele>612.5</ele>
        <time>2020-04-11T14:14:03Z</time>
      </trkpt>
      <trkpt lat="46.00483" lon="6.19349">
        <ele>611.06</ele>
        <time>2020-04-11T14:14:04Z</time>
      </trkpt>
      <trkpt lat="46.00491" lon="6.19332">
        <ele>609.61</ele>
        <time>2020-04-11T14:14:05Z</time>
      </trkpt>
      <trkpt lat="46.00502" lon="6.19317">
        <ele>607.69</ele>
        <time>2020-04-11T14:14:06Z</time>
      </trkpt>
      <trkpt lat="46.00516" lon="6.19309">
        <ele>606.25</ele>
        <time>2020-04-11T14:14:07Z</time>
      </trkpt>
      <trkpt lat="46.00532" lon="6.19309">
        <ele>604.81</ele>
        <time>2020-04-11T14:14:08Z</time>
      </trkpt>
      <trkpt lat="46.00547" lon="6.1932">
        <ele>603.36</ele>
        <time>2020-04-11T14:14:09Z</time>
      </trkpt>
      <trkpt lat="46.00563" lon="6.19333">
        <ele>602.88</ele>
        <time>2020-04-11T14:14:10Z</time>
      </trkpt>
      <trkpt lat="46.00579" lon="6.19354">
        <ele>602.4</ele>
        <time>2020-04-11T14:14:11Z</time>
      </trkpt>
      <trkpt lat="46.00595" lon="6.19382">
        <ele>602.88</ele>
        <time>2020-04-11T14:14:12Z</time>
      </trkpt>
      <trkpt lat="46.00609" lon="6.19411">
        <ele>602.88</ele>
        <time>2020-04-11T14:14:13Z</time>
      </trkpt>
      <trkpt lat="46.00662" lon="6.19524">
        <ele>601.44</ele>
        <time>2020-04-11T14:14:18Z</time>
      </trkpt>
      <trkpt lat="46.00671" lon="6.19536">
        <ele>600.96</ele>
        <time>2020-04-11T14:14:19Z</time>
      </trkpt>
      <trkpt lat="46.00679" lon="6.1954">
        <ele>600.96</ele>
        <time>2020-04-11T14:14:20Z</time>
      </trkpt>
      <trkpt lat="46.00687" lon="6.19539">
        <ele>600.96</ele>
        <time>2020-04-11T14:14:21Z</time>
      </trkpt>
      <trkpt lat="46.00692" lon="6.19531">
        <ele>600.96</ele>
        <time>2020-04-11T14:14:22Z</time>
      </trkpt>
      <trkpt lat="46.00693" lon="6.1952">
        <ele>600.48</ele>
        <time>2020-04-11T14:14:23Z</time>
      </trkpt>
      <trkpt lat="46.00694" lon="6.19505">
        <ele>600.48</ele>
        <time>2020-04-11T14:14:24Z</time>
      </trkpt>
      <trkpt lat="46.00689" lon="6.1949">
        <ele>600.48</ele>
        <time>2020-04-11T14:14:25Z</time>
      </trkpt>
      <trkpt lat="46.00681" lon="6.1947">
        <ele>600</ele>
        <time>2020-04-11T14:14:26Z</time>
      </trkpt>
      <trkpt lat="46.0067" lon="6.19444">
        <ele>599.04</ele>
        <time>2020-04-11T14:14:27Z</time>
      </trkpt>
      <trkpt lat="46.00619" lon="6.19298">
        <ele>593.75</ele>
        <time>2020-04-11T14:14:31Z</time>
      </trkpt>
      <trkpt lat="46.00521" lon="6.19044">
        <ele>580.29</ele>
        <time>2020-04-11T14:14:38Z</time>
      </trkpt>
      <trkpt lat="46.00492" lon="6.18985">
        <ele>576.45</ele>
        <time>2020-04-11T14:14:40Z</time>
      </trkpt>
      <trkpt lat="46.0046" lon="6.18941">
        <ele>572.6</ele>
        <time>2020-04-11T14:14:42Z</time>
      </trkpt>
      <trkpt lat="46.00445" lon="6.18922">
        <ele>570.68</ele>
        <time>2020-04-11T14:14:43Z</time>
      </trkpt>
      <trkpt lat="46.00407" lon="6.18882">
        <ele>565.87</ele>
        <time>2020-04-11T14:14:46Z</time>
      </trkpt>
      <trkpt lat="46.00406" lon="6.18862">
        <ele>564.43</ele>
        <time>2020-04-11T14:14:47Z</time>
      </trkpt>
      <trkpt lat="46.00402" lon="6.18851">
        <ele>562.99</ele>
        <time>2020-04-11T14:14:48Z</time>
      </trkpt>
      <trkpt lat="46.00402" lon="6.18842">
        <ele>561.55</ele>
        <time>2020-04-11T14:14:49Z</time>
      </trkpt>
      <trkpt lat="46.00405" lon="6.18831">
        <ele>561.07</ele>
        <time>2020-04-11T14:14:50Z</time>
      </trkpt>
      <trkpt lat="46.00409" lon="6.18827">
        <ele>561.07</ele>
        <time>2020-04-11T14:14:51Z</time>
      </trkpt>
      <trkpt lat="46.00416" lon="6.18822">
        <ele>560.59</ele>
        <time>2020-04-11T14:14:52Z</time>
      </trkpt>
      <trkpt lat="46.00426" lon="6.18818">
        <ele>561.07</ele>
        <time>2020-04-11T14:14:53Z</time>
      </trkpt>
      <trkpt lat="46.00433" lon="6.18823">
        <ele>561.07</ele>
        <time>2020-04-11T14:14:54Z</time>
      </trkpt>
      <trkpt lat="46.0044" lon="6.18836">
        <ele>561.07</ele>
        <time>2020-04-11T14:14:55Z</time>
      </trkpt>
      <trkpt lat="46.00445" lon="6.18849">
        <ele>561.55</ele>
        <time>2020-04-11T14:14:56Z</time>
      </trkpt>
      <trkpt lat="46.0045" lon="6.18862">
        <ele>561.55</ele>
        <time>2020-04-11T14:14:57Z</time>
      </trkpt>
      <trkpt lat="46.00448" lon="6.18889">
        <ele>562.03</ele>
        <time>2020-04-11T14:14:58Z</time>
      </trkpt>
      <trkpt lat="46.00439" lon="6.18897">
        <ele>562.51</ele>
        <time>2020-04-11T14:14:59Z</time>
      </trkpt>
      <trkpt lat="46.00431" lon="6.18908">
        <ele>562.99</ele>
        <time>2020-04-11T14:15:00Z</time>
      </trkpt>
      <trkpt lat="46.0042" lon="6.18923">
        <ele>563.47</ele>
        <time>2020-04-11T14:15:01Z</time>
      </trkpt>
      <trkpt lat="46.0041" lon="6.18939">
        <ele>563.95</ele>
        <time>2020-04-11T14:15:02Z</time>
      </trkpt>
      <trkpt lat="46.004" lon="6.18958">
        <ele>564.91</ele>
        <time>2020-04-11T14:15:03Z</time>
      </trkpt>
      <trkpt lat="46.00395" lon="6.18981">
        <ele>565.87</ele>
        <time>2020-04-11T14:15:04Z</time>
      </trkpt>
      <trkpt lat="46.00389" lon="6.19007">
        <ele>566.35</ele>
        <time>2020-04-11T14:15:05Z</time>
      </trkpt>
      <trkpt lat="46.00383" lon="6.19036">
        <ele>567.32</ele>
        <time>2020-04-11T14:15:06Z</time>
      </trkpt>
      <trkpt lat="46.00314" lon="6.19374">
        <ele>572.12</ele>
        <time>2020-04-11T14:15:16Z</time>
      </trkpt>
      <trkpt lat="46.00287" lon="6.19621">
        <ele>570.68</ele>
        <time>2020-04-11T14:15:23Z</time>
      </trkpt>
      <trkpt lat="46.00283" lon="6.19753">
        <ele>570.2</ele>
        <time>2020-04-11T14:15:27Z</time>
      </trkpt>
      <trkpt lat="46.00279" lon="6.19784">
        <ele>570.2</ele>
        <time>2020-04-11T14:15:28Z</time>
      </trkpt>
      <trkpt lat="46.00272" lon="6.19812">
        <ele>570.2</ele>
        <time>2020-04-11T14:15:29Z</time>
      </trkpt>
      <trkpt lat="46.00262" lon="6.1984">
        <ele>570.2</ele>
        <time>2020-04-11T14:15:30Z</time>
      </trkpt>
      <trkpt lat="46.00251" lon="6.19868">
        <ele>570.2</ele>
        <time>2020-04-11T14:15:31Z</time>
      </trkpt>
      <trkpt lat="46.00202" lon="6.19998">
        <ele>571.64</ele>
        <time>2020-04-11T14:15:37Z</time>
      </trkpt>
      <trkpt lat="46.00194" lon="6.20018">
        <ele>571.64</ele>
        <time>2020-04-11T14:15:39Z</time>
      </trkpt>
      <trkpt lat="46.00193" lon="6.20023">
        <ele>571.64</ele>
        <time>2020-04-11T14:15:40Z</time>
      </trkpt>
      <trkpt lat="46.00184" lon="6.20007">
        <ele>572.6</ele>
        <time>2020-04-11T14:15:44Z</time>
      </trkpt>
      <trkpt lat="46.00184" lon="6.20001">
        <ele>573.08</ele>
        <time>2020-04-11T14:15:46Z</time>
      </trkpt>
      <trkpt lat="46.00184" lon="6.19999">
        <ele>574.04</ele>
        <time>2020-04-11T14:15:57Z</time>
      </trkpt>
      <trkpt lat="46.00184" lon="6.2">
        <ele>574.04</ele>
        <time>2020-04-11T14:16:12Z</time>
      </trkpt>
      <trkpt lat="46.00184" lon="6.2">
        <ele>574.04</ele>
        <time>2020-04-11T14:16:39Z</time>
      </trkpt>
      <trkpt lat="46.00183" lon="6.20001">
        <ele>573.56</ele>
        <time>2020-04-11T14:17:27Z</time>
      </trkpt>
    </trkseg>
  </trk>
  <trk>
    <name><![CDATA[Journal actif: 2020-04-12 17:05]]></name>
    <trkseg>
      <trkpt lat="46.00174" lon="6.19992">
        <ele>573.08</ele>
        <time>2020-04-12T15:05:31Z</time>
      </trkpt>
      <trkpt lat="46.00175" lon="6.19986">
        <ele>569.72</ele>
        <time>2020-04-12T15:05:48Z</time>
      </trkpt>
      <trkpt lat="46.00178" lon="6.20012">
        <ele>567.8</ele>
        <time>2020-04-12T15:05:55Z</time>
      </trkpt>
      <trkpt lat="46.00196" lon="6.20015">
        <ele>570.68</ele>
        <time>2020-04-12T15:06:02Z</time>
      </trkpt>
      <trkpt lat="46.00199" lon="6.20006">
        <ele>570.2</ele>
        <time>2020-04-12T15:06:03Z</time>
      </trkpt>
      <trkpt lat="46.00235" lon="6.19912">
        <ele>568.28</ele>
        <time>2020-04-12T15:06:09Z</time>
      </trkpt>
      <trkpt lat="46.00278" lon="6.19794">
        <ele>565.87</ele>
        <time>2020-04-12T15:06:15Z</time>
      </trkpt>
      <trkpt lat="46.00281" lon="6.19771">
        <ele>565.39</ele>
        <time>2020-04-12T15:06:17Z</time>
      </trkpt>
      <trkpt lat="46.00293" lon="6.19493">
        <ele>565.39</ele>
        <time>2020-04-12T15:06:27Z</time>
      </trkpt>
      <trkpt lat="46.00298" lon="6.19467">
        <ele>565.39</ele>
        <time>2020-04-12T15:06:28Z</time>
      </trkpt>
      <trkpt lat="46.00348" lon="6.19206">
        <ele>568.76</ele>
        <time>2020-04-12T15:06:38Z</time>
      </trkpt>
      <trkpt lat="46.00379" lon="6.19054">
        <ele>565.39</ele>
        <time>2020-04-12T15:06:45Z</time>
      </trkpt>
      <trkpt lat="46.00397" lon="6.18972">
        <ele>559.14</ele>
        <time>2020-04-12T15:06:51Z</time>
      </trkpt>
      <trkpt lat="46.00397" lon="6.18972">
        <ele>559.14</ele>
        <time>2020-04-12T15:06:52Z</time>
      </trkpt>
      <trkpt lat="46.00399" lon="6.18964">
        <ele>559.14</ele>
        <time>2020-04-12T15:06:53Z</time>
      </trkpt>
      <trkpt lat="46.00391" lon="6.18949">
        <ele>559.14</ele>
        <time>2020-04-12T15:06:54Z</time>
      </trkpt>
      <trkpt lat="46.00385" lon="6.18946">
        <ele>559.14</ele>
        <time>2020-04-12T15:06:55Z</time>
      </trkpt>
      <trkpt lat="46.00379" lon="6.18942">
        <ele>559.14</ele>
        <time>2020-04-12T15:06:56Z</time>
      </trkpt>
      <trkpt lat="46.00373" lon="6.18936">
        <ele>559.14</ele>
        <time>2020-04-12T15:06:57Z</time>
      </trkpt>
      <trkpt lat="46.00366" lon="6.1893">
        <ele>558.18</ele>
        <time>2020-04-12T15:06:58Z</time>
      </trkpt>
      <trkpt lat="46.0036" lon="6.18919">
        <ele>558.18</ele>
        <time>2020-04-12T15:06:59Z</time>
      </trkpt>
      <trkpt lat="46.00358" lon="6.18906">
        <ele>558.66</ele>
        <time>2020-04-12T15:07:00Z</time>
      </trkpt>
      <trkpt lat="46.00362" lon="6.18887">
        <ele>558.18</ele>
        <time>2020-04-12T15:07:02Z</time>
      </trkpt>
      <trkpt lat="46.00373" lon="6.1888">
        <ele>558.18</ele>
        <time>2020-04-12T15:07:03Z</time>
      </trkpt>
      <trkpt lat="46.00381" lon="6.18876">
        <ele>557.7</ele>
        <time>2020-04-12T15:07:04Z</time>
      </trkpt>
      <trkpt lat="46.00389" lon="6.1888">
        <ele>558.18</ele>
        <time>2020-04-12T15:07:05Z</time>
      </trkpt>
      <trkpt lat="46.00413" lon="6.18892">
        <ele>558.66</ele>
        <time>2020-04-12T15:07:07Z</time>
      </trkpt>
      <trkpt lat="46.0043" lon="6.18904">
        <ele>559.62</ele>
        <time>2020-04-12T15:07:08Z</time>
      </trkpt>
      <trkpt lat="46.0049" lon="6.18981">
        <ele>563.95</ele>
        <time>2020-04-12T15:07:11Z</time>
      </trkpt>
      <trkpt lat="46.00525" lon="6.19054">
        <ele>568.28</ele>
        <time>2020-04-12T15:07:13Z</time>
      </trkpt>
      <trkpt lat="46.00615" lon="6.19286">
        <ele>582.22</ele>
        <time>2020-04-12T15:07:19Z</time>
      </trkpt>
      <trkpt lat="46.00673" lon="6.19452">
        <ele>594.23</ele>
        <time>2020-04-12T15:07:25Z</time>
      </trkpt>
      <trkpt lat="46.00692" lon="6.19499">
        <ele>598.08</ele>
        <time>2020-04-12T15:07:28Z</time>
      </trkpt>
      <trkpt lat="46.00694" lon="6.19511">
        <ele>599.04</ele>
        <time>2020-04-12T15:07:29Z</time>
      </trkpt>
      <trkpt lat="46.00692" lon="6.1953">
        <ele>600</ele>
        <time>2020-04-12T15:07:30Z</time>
      </trkpt>
      <trkpt lat="46.00687" lon="6.19539">
        <ele>600</ele>
        <time>2020-04-12T15:07:31Z</time>
      </trkpt>
      <trkpt lat="46.00677" lon="6.19539">
        <ele>600.48</ele>
        <time>2020-04-12T15:07:32Z</time>
      </trkpt>
      <trkpt lat="46.0067" lon="6.19536">
        <ele>601.44</ele>
        <time>2020-04-12T15:07:33Z</time>
      </trkpt>
      <trkpt lat="46.00661" lon="6.19523">
        <ele>602.4</ele>
        <time>2020-04-12T15:07:34Z</time>
      </trkpt>
      <trkpt lat="46.00655" lon="6.19509">
        <ele>602.88</ele>
        <time>2020-04-12T15:07:35Z</time>
      </trkpt>
      <trkpt lat="46.00647" lon="6.19492">
        <ele>603.36</ele>
        <time>2020-04-12T15:07:36Z</time>
      </trkpt>
      <trkpt lat="46.00576" lon="6.19351">
        <ele>608.65</ele>
        <time>2020-04-12T15:07:43Z</time>
      </trkpt>
      <trkpt lat="46.0054" lon="6.19314">
        <ele>610.09</ele>
        <time>2020-04-12T15:07:46Z</time>
      </trkpt>
      <trkpt lat="46.00528" lon="6.19308">
        <ele>611.06</ele>
        <time>2020-04-12T15:07:47Z</time>
      </trkpt>
      <trkpt lat="46.00516" lon="6.19309">
        <ele>611.54</ele>
        <time>2020-04-12T15:07:48Z</time>
      </trkpt>
      <trkpt lat="46.00505" lon="6.19315">
        <ele>612.02</ele>
        <time>2020-04-12T15:07:49Z</time>
      </trkpt>
      <trkpt lat="46.00495" lon="6.19323">
        <ele>612.5</ele>
        <time>2020-04-12T15:07:50Z</time>
      </trkpt>
      <trkpt lat="46.00489" lon="6.19338">
        <ele>612.98</ele>
        <time>2020-04-12T15:07:51Z</time>
      </trkpt>
      <trkpt lat="46.00482" lon="6.19352">
        <ele>613.46</ele>
        <time>2020-04-12T15:07:52Z</time>
      </trkpt>
      <trkpt lat="46.0048" lon="6.19369">
        <ele>613.94</ele>
        <time>2020-04-12T15:07:53Z</time>
      </trkpt>
      <trkpt lat="46.0048" lon="6.19382">
        <ele>614.42</ele>
        <time>2020-04-12T15:07:54Z</time>
      </trkpt>
      <trkpt lat="46.00487" lon="6.19403">
        <ele>614.9</ele>
        <time>2020-04-12T15:07:55Z</time>
      </trkpt>
      <trkpt lat="46.00494" lon="6.19421">
        <ele>615.38</ele>
        <time>2020-04-12T15:07:56Z</time>
      </trkpt>
      <trkpt lat="46.00504" lon="6.19438">
        <ele>615.86</ele>
        <time>2020-04-12T15:07:57Z</time>
      </trkpt>
      <trkpt lat="46.00515" lon="6.19456">
        <ele>616.82</ele>
        <time>2020-04-12T15:07:58Z</time>
      </trkpt>
      <trkpt lat="46.00527" lon="6.19474">
        <ele>617.78</ele>
        <time>2020-04-12T15:07:59Z</time>
      </trkpt>
      <trkpt lat="46.00542" lon="6.19488">
        <ele>618.26</ele>
        <time>2020-04-12T15:08:00Z</time>
      </trkpt>
      <trkpt lat="46.00558" lon="6.19503">
        <ele>619.23</ele>
        <time>2020-04-12T15:08:01Z</time>
      </trkpt>
      <trkpt lat="46.00603" lon="6.19553">
        <ele>622.11</ele>
        <time>2020-04-12T15:08:04Z</time>
      </trkpt>
      <trkpt lat="46.00614" lon="6.19577">
        <ele>623.07</ele>
        <time>2020-04-12T15:08:05Z</time>
      </trkpt>
      <trkpt lat="46.00696" lon="6.198">
        <ele>631.72</ele>
        <time>2020-04-12T15:08:13Z</time>
      </trkpt>
      <trkpt lat="46.00704" lon="6.1983">
        <ele>632.68</ele>
        <time>2020-04-12T15:08:14Z</time>
      </trkpt>
      <trkpt lat="46.00763" lon="6.20111">
        <ele>644.7</ele>
        <time>2020-04-12T15:08:24Z</time>
      </trkpt>
      <trkpt lat="46.00833" lon="6.20372">
        <ele>655.76</ele>
        <time>2020-04-12T15:08:35Z</time>
      </trkpt>
      <trkpt lat="46.00869" lon="6.20495">
        <ele>658.64</ele>
        <time>2020-04-12T15:08:40Z</time>
      </trkpt>
      <trkpt lat="46.00878" lon="6.20519">
        <ele>659.12</ele>
        <time>2020-04-12T15:08:41Z</time>
      </trkpt>
      <trkpt lat="46.00888" lon="6.2054">
        <ele>659.6</ele>
        <time>2020-04-12T15:08:42Z</time>
      </trkpt>
      <trkpt lat="46.00902" lon="6.20561">
        <ele>660.08</ele>
        <time>2020-04-12T15:08:43Z</time>
      </trkpt>
      <trkpt lat="46.00917" lon="6.2058">
        <ele>660.56</ele>
        <time>2020-04-12T15:08:44Z</time>
      </trkpt>
      <trkpt lat="46.00934" lon="6.206">
        <ele>661.04</ele>
        <time>2020-04-12T15:08:45Z</time>
      </trkpt>
      <trkpt lat="46.01069" lon="6.2076">
        <ele>663.45</ele>
        <time>2020-04-12T15:08:52Z</time>
      </trkpt>
      <trkpt lat="46.01277" lon="6.21011">
        <ele>666.33</ele>
        <time>2020-04-12T15:09:01Z</time>
      </trkpt>
      <trkpt lat="46.01401" lon="6.21189">
        <ele>670.18</ele>
        <time>2020-04-12T15:09:07Z</time>
      </trkpt>
      <trkpt lat="46.01401" lon="6.21189">
        <ele>671.14</ele>
        <time>2020-04-12T15:09:08Z</time>
      </trkpt>
      <trkpt lat="46.01439" lon="6.21242">
        <ele>671.62</ele>
        <time>2020-04-12T15:09:09Z</time>
      </trkpt>
      <trkpt lat="46.01461" lon="6.21266">
        <ele>672.58</ele>
        <time>2020-04-12T15:09:10Z</time>
      </trkpt>
      <trkpt lat="46.01641" lon="6.21446">
        <ele>677.87</ele>
        <time>2020-04-12T15:09:18Z</time>
      </trkpt>
      <trkpt lat="46.01712" lon="6.21541">
        <ele>679.31</ele>
        <time>2020-04-12T15:09:22Z</time>
      </trkpt>
      <trkpt lat="46.01726" lon="6.2157">
        <ele>679.31</ele>
        <time>2020-04-12T15:09:23Z</time>
      </trkpt>
      <trkpt lat="46.01858" lon="6.21898">
        <ele>682.67</ele>
        <time>2020-04-12T15:09:33Z</time>
      </trkpt>
      <trkpt lat="46.0193" lon="6.22168">
        <ele>685.08</ele>
        <time>2020-04-12T15:09:40Z</time>
      </trkpt>
      <trkpt lat="46.01987" lon="6.22531">
        <ele>691.81</ele>
        <time>2020-04-12T15:09:48Z</time>
      </trkpt>
      <trkpt lat="46.0204" lon="6.22895">
        <ele>699.5</ele>
        <time>2020-04-12T15:09:57Z</time>
      </trkpt>
      <trkpt lat="46.02047" lon="6.22927">
        <ele>699.98</ele>
        <time>2020-04-12T15:09:58Z</time>
      </trkpt>
      <trkpt lat="46.02056" lon="6.22955">
        <ele>700.46</ele>
        <time>2020-04-12T15:09:59Z</time>
      </trkpt>
      <trkpt lat="46.02066" lon="6.22985">
        <ele>700.94</ele>
        <time>2020-04-12T15:10:00Z</time>
      </trkpt>
      <trkpt lat="46.02078" lon="6.23006">
        <ele>701.42</ele>
        <time>2020-04-12T15:10:01Z</time>
      </trkpt>
      <trkpt lat="46.02091" lon="6.23027">
        <ele>702.38</ele>
        <time>2020-04-12T15:10:02Z</time>
      </trkpt>
      <trkpt lat="46.02106" lon="6.23046">
        <ele>702.38</ele>
        <time>2020-04-12T15:10:03Z</time>
      </trkpt>
      <trkpt lat="46.02121" lon="6.23065">
        <ele>702.86</ele>
        <time>2020-04-12T15:10:04Z</time>
      </trkpt>
      <trkpt lat="46.02134" lon="6.23083">
        <ele>703.34</ele>
        <time>2020-04-12T15:10:05Z</time>
      </trkpt>
      <trkpt lat="46.02146" lon="6.231">
        <ele>703.34</ele>
        <time>2020-04-12T15:10:06Z</time>
      </trkpt>
      <trkpt lat="46.02231" lon="6.23263">
        <ele>706.23</ele>
        <time>2020-04-12T15:10:15Z</time>
      </trkpt>
      <trkpt lat="46.02288" lon="6.23373">
        <ele>709.11</ele>
        <time>2020-04-12T15:10:21Z</time>
      </trkpt>
      <trkpt lat="46.023" lon="6.23386">
        <ele>710.07</ele>
        <time>2020-04-12T15:10:22Z</time>
      </trkpt>
      <trkpt lat="46.02313" lon="6.23398">
        <ele>711.03</ele>
        <time>2020-04-12T15:10:23Z</time>
      </trkpt>
      <trkpt lat="46.02327" lon="6.2341">
        <ele>711.51</ele>
        <time>2020-04-12T15:10:24Z</time>
      </trkpt>
      <trkpt lat="46.02341" lon="6.23423">
        <ele>712.47</ele>
        <time>2020-04-12T15:10:25Z</time>
      </trkpt>
      <trkpt lat="46.02417" lon="6.23503">
        <ele>718.24</ele>
        <time>2020-04-12T15:10:30Z</time>
      </trkpt>
      <trkpt lat="46.0243" lon="6.23526">
        <ele>719.68</ele>
        <time>2020-04-12T15:10:31Z</time>
      </trkpt>
      <trkpt lat="46.02442" lon="6.23552">
        <ele>720.16</ele>
        <time>2020-04-12T15:10:32Z</time>
      </trkpt>
      <trkpt lat="46.02512" lon="6.23682">
        <ele>724.97</ele>
        <time>2020-04-12T15:10:37Z</time>
      </trkpt>
      <trkpt lat="46.0253" lon="6.23702">
        <ele>725.93</ele>
        <time>2020-04-12T15:10:38Z</time>
      </trkpt>
      <trkpt lat="46.0255" lon="6.2372">
        <ele>726.89</ele>
        <time>2020-04-12T15:10:39Z</time>
      </trkpt>
      <trkpt lat="46.02571" lon="6.23734">
        <ele>727.86</ele>
        <time>2020-04-12T15:10:40Z</time>
      </trkpt>
      <trkpt lat="46.02594" lon="6.23745">
        <ele>728.34</ele>
        <time>2020-04-12T15:10:41Z</time>
      </trkpt>
      <trkpt lat="46.02618" lon="6.23754">
        <ele>729.78</ele>
        <time>2020-04-12T15:10:42Z</time>
      </trkpt>
      <trkpt lat="46.02643" lon="6.23759">
        <ele>730.74</ele>
        <time>2020-04-12T15:10:43Z</time>
      </trkpt>
      <trkpt lat="46.02882" lon="6.23809">
        <ele>741.31</ele>
        <time>2020-04-12T15:10:52Z</time>
      </trkpt>
      <trkpt lat="46.02908" lon="6.23819">
        <ele>742.28</ele>
        <time>2020-04-12T15:10:53Z</time>
      </trkpt>
      <trkpt lat="46.03036" lon="6.23889">
        <ele>745.64</ele>
        <time>2020-04-12T15:10:58Z</time>
      </trkpt>
      <trkpt lat="46.0306" lon="6.23913">
        <ele>746.6</ele>
        <time>2020-04-12T15:10:59Z</time>
      </trkpt>
      <trkpt lat="46.03082" lon="6.23938">
        <ele>747.08</ele>
        <time>2020-04-12T15:11:00Z</time>
      </trkpt>
      <trkpt lat="46.03226" lon="6.24101">
        <ele>750.45</ele>
        <time>2020-04-12T15:11:07Z</time>
      </trkpt>
      <trkpt lat="46.03307" lon="6.24227">
        <ele>753.33</ele>
        <time>2020-04-12T15:11:13Z</time>
      </trkpt>
      <trkpt lat="46.03321" lon="6.24242">
        <ele>753.33</ele>
        <time>2020-04-12T15:11:14Z</time>
      </trkpt>
      <trkpt lat="46.03337" lon="6.24254">
        <ele>753.81</ele>
        <time>2020-04-12T15:11:15Z</time>
      </trkpt>
      <trkpt lat="46.03353" lon="6.24264">
        <ele>754.29</ele>
        <time>2020-04-12T15:11:16Z</time>
      </trkpt>
      <trkpt lat="46.0337" lon="6.2427">
        <ele>754.29</ele>
        <time>2020-04-12T15:11:17Z</time>
      </trkpt>
      <trkpt lat="46.03386" lon="6.24271">
        <ele>754.77</ele>
        <time>2020-04-12T15:11:18Z</time>
      </trkpt>
      <trkpt lat="46.03403" lon="6.24268">
        <ele>755.25</ele>
        <time>2020-04-12T15:11:19Z</time>
      </trkpt>
      <trkpt lat="46.03419" lon="6.24261">
        <ele>755.73</ele>
        <time>2020-04-12T15:11:20Z</time>
      </trkpt>
      <trkpt lat="46.03435" lon="6.24251">
        <ele>756.21</ele>
        <time>2020-04-12T15:11:21Z</time>
      </trkpt>
      <trkpt lat="46.03447" lon="6.24236">
        <ele>756.69</ele>
        <time>2020-04-12T15:11:22Z</time>
      </trkpt>
      <trkpt lat="46.0346" lon="6.24217">
        <ele>757.18</ele>
        <time>2020-04-12T15:11:23Z</time>
      </trkpt>
      <trkpt lat="46.03473" lon="6.24196">
        <ele>757.66</ele>
        <time>2020-04-12T15:11:24Z</time>
      </trkpt>
      <trkpt lat="46.03487" lon="6.24175">
        <ele>758.14</ele>
        <time>2020-04-12T15:11:25Z</time>
      </trkpt>
      <trkpt lat="46.03514" lon="6.2413">
        <ele>759.58</ele>
        <time>2020-04-12T15:11:27Z</time>
      </trkpt>
      <trkpt lat="46.03527" lon="6.24108">
        <ele>760.54</ele>
        <time>2020-04-12T15:11:28Z</time>
      </trkpt>
      <trkpt lat="46.03545" lon="6.24092">
        <ele>761.02</ele>
        <time>2020-04-12T15:11:29Z</time>
      </trkpt>
      <trkpt lat="46.03565" lon="6.2408">
        <ele>761.98</ele>
        <time>2020-04-12T15:11:30Z</time>
      </trkpt>
      <trkpt lat="46.03586" lon="6.24073">
        <ele>762.46</ele>
        <time>2020-04-12T15:11:31Z</time>
      </trkpt>
      <trkpt lat="46.03607" lon="6.24072">
        <ele>763.42</ele>
        <time>2020-04-12T15:11:32Z</time>
      </trkpt>
      <trkpt lat="46.03628" lon="6.24074">
        <ele>764.39</ele>
        <time>2020-04-12T15:11:33Z</time>
      </trkpt>
      <trkpt lat="46.03649" lon="6.2408">
        <ele>764.87</ele>
        <time>2020-04-12T15:11:34Z</time>
      </trkpt>
      <trkpt lat="46.03669" lon="6.24093">
        <ele>766.31</ele>
        <time>2020-04-12T15:11:35Z</time>
      </trkpt>
      <trkpt lat="46.03689" lon="6.24111">
        <ele>767.75</ele>
        <time>2020-04-12T15:11:36Z</time>
      </trkpt>
      <trkpt lat="46.03708" lon="6.24131">
        <ele>769.19</ele>
        <time>2020-04-12T15:11:37Z</time>
      </trkpt>
      <trkpt lat="46.03726" lon="6.24157">
        <ele>770.63</ele>
        <time>2020-04-12T15:11:38Z</time>
      </trkpt>
      <trkpt lat="46.03743" lon="6.24184">
        <ele>772.08</ele>
        <time>2020-04-12T15:11:39Z</time>
      </trkpt>
      <trkpt lat="46.03761" lon="6.24211">
        <ele>773.52</ele>
        <time>2020-04-12T15:11:40Z</time>
      </trkpt>
      <trkpt lat="46.03773" lon="6.24245">
        <ele>774.96</ele>
        <time>2020-04-12T15:11:41Z</time>
      </trkpt>
      <trkpt lat="46.03785" lon="6.24279">
        <ele>776.88</ele>
        <time>2020-04-12T15:11:42Z</time>
      </trkpt>
      <trkpt lat="46.03796" lon="6.24315">
        <ele>778.81</ele>
        <time>2020-04-12T15:11:43Z</time>
      </trkpt>
      <trkpt lat="46.03803" lon="6.24353">
        <ele>780.73</ele>
        <time>2020-04-12T15:11:44Z</time>
      </trkpt>
      <trkpt lat="46.0381" lon="6.2439">
        <ele>782.65</ele>
        <time>2020-04-12T15:11:45Z</time>
      </trkpt>
      <trkpt lat="46.03842" lon="6.24529">
        <ele>789.38</ele>
        <time>2020-04-12T15:11:49Z</time>
      </trkpt>
      <trkpt lat="46.03853" lon="6.24559">
        <ele>790.82</ele>
        <time>2020-04-12T15:11:50Z</time>
      </trkpt>
      <trkpt lat="46.03866" lon="6.24588">
        <ele>792.26</ele>
        <time>2020-04-12T15:11:51Z</time>
      </trkpt>
      <trkpt lat="46.03882" lon="6.24613">
        <ele>793.22</ele>
        <time>2020-04-12T15:11:52Z</time>
      </trkpt>
      <trkpt lat="46.03899" lon="6.24636">
        <ele>794.67</ele>
        <time>2020-04-12T15:11:53Z</time>
      </trkpt>
      <trkpt lat="46.03919" lon="6.24656">
        <ele>795.15</ele>
        <time>2020-04-12T15:11:54Z</time>
      </trkpt>
      <trkpt lat="46.03939" lon="6.24675">
        <ele>795.63</ele>
        <time>2020-04-12T15:11:55Z</time>
      </trkpt>
      <trkpt lat="46.03961" lon="6.24688">
        <ele>796.11</ele>
        <time>2020-04-12T15:11:56Z</time>
      </trkpt>
      <trkpt lat="46.03984" lon="6.24701">
        <ele>796.59</ele>
        <time>2020-04-12T15:11:57Z</time>
      </trkpt>
      <trkpt lat="46.04009" lon="6.24708">
        <ele>796.59</ele>
        <time>2020-04-12T15:11:58Z</time>
      </trkpt>
      <trkpt lat="46.04034" lon="6.24715">
        <ele>796.59</ele>
        <time>2020-04-12T15:11:59Z</time>
      </trkpt>
      <trkpt lat="46.04084" lon="6.24736">
        <ele>795.63</ele>
        <time>2020-04-12T15:12:01Z</time>
      </trkpt>
      <trkpt lat="46.04108" lon="6.2475">
        <ele>795.15</ele>
        <time>2020-04-12T15:12:02Z</time>
      </trkpt>
      <trkpt lat="46.0413" lon="6.24772">
        <ele>794.19</ele>
        <time>2020-04-12T15:12:03Z</time>
      </trkpt>
      <trkpt lat="46.04151" lon="6.24797">
        <ele>793.22</ele>
        <time>2020-04-12T15:12:04Z</time>
      </trkpt>
      <trkpt lat="46.04173" lon="6.24821">
        <ele>791.78</ele>
        <time>2020-04-12T15:12:05Z</time>
      </trkpt>
      <trkpt lat="46.04193" lon="6.2485">
        <ele>790.82</ele>
        <time>2020-04-12T15:12:06Z</time>
      </trkpt>
      <trkpt lat="46.04337" lon="6.25068">
        <ele>792.74</ele>
        <time>2020-04-12T15:12:14Z</time>
      </trkpt>
      <trkpt lat="46.0435" lon="6.25097">
        <ele>794.19</ele>
        <time>2020-04-12T15:12:15Z</time>
      </trkpt>
      <trkpt lat="46.0436" lon="6.25127">
        <ele>795.15</ele>
        <time>2020-04-12T15:12:16Z</time>
      </trkpt>
      <trkpt lat="46.04422" lon="6.25387">
        <ele>803.32</ele>
        <time>2020-04-12T15:12:24Z</time>
      </trkpt>
      <trkpt lat="46.04466" lon="6.25532">
        <ele>805.72</ele>
        <time>2020-04-12T15:12:29Z</time>
      </trkpt>
      <trkpt lat="46.04593" lon="6.25801">
        <ele>804.76</ele>
        <time>2020-04-12T15:12:40Z</time>
      </trkpt>
      <trkpt lat="46.04747" lon="6.26117">
        <ele>800.92</ele>
        <time>2020-04-12T15:12:53Z</time>
      </trkpt>
      <trkpt lat="46.04866" lon="6.26354">
        <ele>793.71</ele>
        <time>2020-04-12T15:13:02Z</time>
      </trkpt>
      <trkpt lat="46.04902" lon="6.26399">
        <ele>791.78</ele>
        <time>2020-04-12T15:13:04Z</time>
      </trkpt>
      <trkpt lat="46.04922" lon="6.26422">
        <ele>790.34</ele>
        <time>2020-04-12T15:13:05Z</time>
      </trkpt>
      <trkpt lat="46.05071" lon="6.26561">
        <ele>780.73</ele>
        <time>2020-04-12T15:13:12Z</time>
      </trkpt>
      <trkpt lat="46.05088" lon="6.26589">
        <ele>779.29</ele>
        <time>2020-04-12T15:13:13Z</time>
      </trkpt>
      <trkpt lat="46.05103" lon="6.26619">
        <ele>778.32</ele>
        <time>2020-04-12T15:13:14Z</time>
      </trkpt>
      <trkpt lat="46.05116" lon="6.26652">
        <ele>776.88</ele>
        <time>2020-04-12T15:13:15Z</time>
      </trkpt>
      <trkpt lat="46.05126" lon="6.26685">
        <ele>775.92</ele>
        <time>2020-04-12T15:13:16Z</time>
      </trkpt>
      <trkpt lat="46.05135" lon="6.2672">
        <ele>774.96</ele>
        <time>2020-04-12T15:13:17Z</time>
      </trkpt>
      <trkpt lat="46.05142" lon="6.26755">
        <ele>774</ele>
        <time>2020-04-12T15:13:18Z</time>
      </trkpt>
      <trkpt lat="46.05146" lon="6.26792">
        <ele>773.04</ele>
        <time>2020-04-12T15:13:19Z</time>
      </trkpt>
      <trkpt lat="46.05149" lon="6.26829">
        <ele>773.04</ele>
        <time>2020-04-12T15:13:20Z</time>
      </trkpt>
      <trkpt lat="46.05147" lon="6.26867">
        <ele>772.56</ele>
        <time>2020-04-12T15:13:21Z</time>
      </trkpt>
      <trkpt lat="46.05145" lon="6.26905">
        <ele>772.08</ele>
        <time>2020-04-12T15:13:22Z</time>
      </trkpt>
      <trkpt lat="46.05141" lon="6.26943">
        <ele>772.08</ele>
        <time>2020-04-12T15:13:23Z</time>
      </trkpt>
      <trkpt lat="46.05126" lon="6.27283">
        <ele>765.83</ele>
        <time>2020-04-12T15:13:32Z</time>
      </trkpt>
      <trkpt lat="46.05173" lon="6.27594">
        <ele>757.18</ele>
        <time>2020-04-12T15:13:40Z</time>
      </trkpt>
      <trkpt lat="46.05282" lon="6.27933">
        <ele>751.41</ele>
        <time>2020-04-12T15:13:49Z</time>
      </trkpt>
      <trkpt lat="46.05466" lon="6.28454">
        <ele>740.83</ele>
        <time>2020-04-12T15:14:03Z</time>
      </trkpt>
      <trkpt lat="46.05581" lon="6.28784">
        <ele>733.14</ele>
        <time>2020-04-12T15:14:12Z</time>
      </trkpt>
      <trkpt lat="46.05627" lon="6.28881">
        <ele>728.82</ele>
        <time>2020-04-12T15:14:15Z</time>
      </trkpt>
      <trkpt lat="46.05644" lon="6.28909">
        <ele>727.37</ele>
        <time>2020-04-12T15:14:16Z</time>
      </trkpt>
      <trkpt lat="46.05663" lon="6.28933">
        <ele>725.93</ele>
        <time>2020-04-12T15:14:17Z</time>
      </trkpt>
      <trkpt lat="46.05684" lon="6.28954">
        <ele>724.49</ele>
        <time>2020-04-12T15:14:18Z</time>
      </trkpt>
      <trkpt lat="46.05707" lon="6.28969">
        <ele>723.53</ele>
        <time>2020-04-12T15:14:19Z</time>
      </trkpt>
      <trkpt lat="46.0573" lon="6.28985">
        <ele>722.09</ele>
        <time>2020-04-12T15:14:20Z</time>
      </trkpt>
      <trkpt lat="46.05755" lon="6.28995">
        <ele>720.65</ele>
        <time>2020-04-12T15:14:21Z</time>
      </trkpt>
      <trkpt lat="46.0578" lon="6.29004">
        <ele>719.2</ele>
        <time>2020-04-12T15:14:22Z</time>
      </trkpt>
      <trkpt lat="46.05807" lon="6.29008">
        <ele>718.24</ele>
        <time>2020-04-12T15:14:23Z</time>
      </trkpt>
      <trkpt lat="46.05835" lon="6.29008">
        <ele>716.8</ele>
        <time>2020-04-12T15:14:24Z</time>
      </trkpt>
      <trkpt lat="46.05862" lon="6.29005">
        <ele>714.88</ele>
        <time>2020-04-12T15:14:25Z</time>
      </trkpt>
      <trkpt lat="46.05891" lon="6.29001">
        <ele>713.44</ele>
        <time>2020-04-12T15:14:26Z</time>
      </trkpt>
      <trkpt lat="46.05919" lon="6.28991">
        <ele>711.99</ele>
        <time>2020-04-12T15:14:27Z</time>
      </trkpt>
      <trkpt lat="46.06163" lon="6.2891">
        <ele>699.02</ele>
        <time>2020-04-12T15:14:36Z</time>
      </trkpt>
      <trkpt lat="46.06356" lon="6.28851">
        <ele>687.96</ele>
        <time>2020-04-12T15:14:45Z</time>
      </trkpt>
      <trkpt lat="46.06416" lon="6.28838">
        <ele>684.12</ele>
        <time>2020-04-12T15:14:49Z</time>
      </trkpt>
      <trkpt lat="46.06426" lon="6.28836">
        <ele>683.15</ele>
        <time>2020-04-12T15:14:50Z</time>
      </trkpt>
      <trkpt lat="46.06436" lon="6.28858">
        <ele>682.19</ele>
        <time>2020-04-12T15:14:51Z</time>
      </trkpt>
      <trkpt lat="46.0645" lon="6.28855">
        <ele>681.71</ele>
        <time>2020-04-12T15:14:52Z</time>
      </trkpt>
      <trkpt lat="46.06456" lon="6.28849">
        <ele>681.23</ele>
        <time>2020-04-12T15:14:53Z</time>
      </trkpt>
      <trkpt lat="46.06466" lon="6.2883">
        <ele>681.23</ele>
        <time>2020-04-12T15:14:54Z</time>
      </trkpt>
      <trkpt lat="46.06481" lon="6.28826">
        <ele>680.75</ele>
        <time>2020-04-12T15:14:55Z</time>
      </trkpt>
      <trkpt lat="46.06585" lon="6.28771">
        <ele>675.94</ele>
        <time>2020-04-12T15:15:00Z</time>
      </trkpt>
      <trkpt lat="46.06752" lon="6.2868">
        <ele>666.33</ele>
        <time>2020-04-12T15:15:07Z</time>
      </trkpt>
      <trkpt lat="46.06777" lon="6.28675">
        <ele>665.37</ele>
        <time>2020-04-12T15:15:08Z</time>
      </trkpt>
      <trkpt lat="46.06802" lon="6.28673">
        <ele>664.41</ele>
        <time>2020-04-12T15:15:09Z</time>
      </trkpt>
      <trkpt lat="46.06827" lon="6.28679">
        <ele>662.97</ele>
        <time>2020-04-12T15:15:10Z</time>
      </trkpt>
      <trkpt lat="46.06852" lon="6.28686">
        <ele>662.01</ele>
        <time>2020-04-12T15:15:11Z</time>
      </trkpt>
      <trkpt lat="46.06877" lon="6.28699">
        <ele>660.56</ele>
        <time>2020-04-12T15:15:12Z</time>
      </trkpt>
      <trkpt lat="46.06901" lon="6.28713">
        <ele>659.12</ele>
        <time>2020-04-12T15:15:13Z</time>
      </trkpt>
      <trkpt lat="46.06925" lon="6.28729">
        <ele>658.16</ele>
        <time>2020-04-12T15:15:14Z</time>
      </trkpt>
      <trkpt lat="46.06948" lon="6.28746">
        <ele>656.72</ele>
        <time>2020-04-12T15:15:15Z</time>
      </trkpt>
      <trkpt lat="46.07092" lon="6.28816">
        <ele>648.07</ele>
        <time>2020-04-12T15:15:21Z</time>
      </trkpt>
      <trkpt lat="46.07315" lon="6.28842">
        <ele>635.09</ele>
        <time>2020-04-12T15:15:30Z</time>
      </trkpt>
      <trkpt lat="46.07361" lon="6.28863">
        <ele>631.72</ele>
        <time>2020-04-12T15:15:32Z</time>
      </trkpt>
      <trkpt lat="46.07383" lon="6.28878">
        <ele>630.28</ele>
        <time>2020-04-12T15:15:33Z</time>
      </trkpt>
      <trkpt lat="46.07403" lon="6.28897">
        <ele>628.84</ele>
        <time>2020-04-12T15:15:34Z</time>
      </trkpt>
      <trkpt lat="46.07421" lon="6.28921">
        <ele>627.4</ele>
        <time>2020-04-12T15:15:35Z</time>
      </trkpt>
      <trkpt lat="46.07437" lon="6.28946">
        <ele>626.44</ele>
        <time>2020-04-12T15:15:36Z</time>
      </trkpt>
      <trkpt lat="46.07452" lon="6.28973">
        <ele>624.99</ele>
        <time>2020-04-12T15:15:37Z</time>
      </trkpt>
      <trkpt lat="46.07465" lon="6.29003">
        <ele>624.03</ele>
        <time>2020-04-12T15:15:38Z</time>
      </trkpt>
      <trkpt lat="46.07474" lon="6.29035">
        <ele>623.07</ele>
        <time>2020-04-12T15:15:39Z</time>
      </trkpt>
      <trkpt lat="46.07482" lon="6.29065">
        <ele>622.59</ele>
        <time>2020-04-12T15:15:40Z</time>
      </trkpt>
      <trkpt lat="46.07514" lon="6.29184">
        <ele>618.26</ele>
        <time>2020-04-12T15:15:45Z</time>
      </trkpt>
      <trkpt lat="46.0752" lon="6.29211">
        <ele>617.3</ele>
        <time>2020-04-12T15:15:46Z</time>
      </trkpt>
      <trkpt lat="46.07514" lon="6.29231">
        <ele>616.82</ele>
        <time>2020-04-12T15:15:47Z</time>
      </trkpt>
      <trkpt lat="46.07507" lon="6.29253">
        <ele>616.34</ele>
        <time>2020-04-12T15:15:48Z</time>
      </trkpt>
      <trkpt lat="46.07498" lon="6.29277">
        <ele>615.86</ele>
        <time>2020-04-12T15:15:49Z</time>
      </trkpt>
      <trkpt lat="46.0747" lon="6.29359">
        <ele>613.46</ele>
        <time>2020-04-12T15:15:52Z</time>
      </trkpt>
      <trkpt lat="46.07457" lon="6.29385">
        <ele>612.5</ele>
        <time>2020-04-12T15:15:53Z</time>
      </trkpt>
      <trkpt lat="46.07444" lon="6.29409">
        <ele>611.06</ele>
        <time>2020-04-12T15:15:54Z</time>
      </trkpt>
      <trkpt lat="46.07279" lon="6.29649">
        <ele>602.4</ele>
        <time>2020-04-12T15:16:05Z</time>
      </trkpt>
      <trkpt lat="46.0718" lon="6.29758">
        <ele>598.08</ele>
        <time>2020-04-12T15:16:12Z</time>
      </trkpt>
      <trkpt lat="46.0715" lon="6.29797">
        <ele>596.64</ele>
        <time>2020-04-12T15:16:15Z</time>
      </trkpt>
      <trkpt lat="46.07095" lon="6.29941">
        <ele>594.23</ele>
        <time>2020-04-12T15:16:24Z</time>
      </trkpt>
      <trkpt lat="46.07074" lon="6.30047">
        <ele>593.27</ele>
        <time>2020-04-12T15:16:31Z</time>
      </trkpt>
      <trkpt lat="46.07078" lon="6.30056">
        <ele>593.27</ele>
        <time>2020-04-12T15:16:32Z</time>
      </trkpt>
      <trkpt lat="46.07078" lon="6.30057">
        <ele>592.79</ele>
        <time>2020-04-12T15:16:33Z</time>
      </trkpt>
      <trkpt lat="46.07084" lon="6.30081">
        <ele>592.79</ele>
        <time>2020-04-12T15:16:34Z</time>
      </trkpt>
      <trkpt lat="46.07082" lon="6.30096">
        <ele>592.31</ele>
        <time>2020-04-12T15:16:35Z</time>
      </trkpt>
      <trkpt lat="46.07077" lon="6.30108">
        <ele>592.31</ele>
        <time>2020-04-12T15:16:36Z</time>
      </trkpt>
      <trkpt lat="46.07072" lon="6.30121">
        <ele>591.83</ele>
        <time>2020-04-12T15:16:37Z</time>
      </trkpt>
      <trkpt lat="46.07066" lon="6.30133">
        <ele>591.35</ele>
        <time>2020-04-12T15:16:38Z</time>
      </trkpt>
      <trkpt lat="46.07059" lon="6.3015">
        <ele>590.87</ele>
        <time>2020-04-12T15:16:39Z</time>
      </trkpt>
      <trkpt lat="46.07056" lon="6.30161">
        <ele>590.39</ele>
        <time>2020-04-12T15:16:40Z</time>
      </trkpt>
      <trkpt lat="46.07047" lon="6.30205">
        <ele>588.46</ele>
        <time>2020-04-12T15:16:43Z</time>
      </trkpt>
      <trkpt lat="46.07045" lon="6.30217">
        <ele>587.98</ele>
        <time>2020-04-12T15:16:44Z</time>
      </trkpt>
      <trkpt lat="46.07031" lon="6.30238">
        <ele>587.5</ele>
        <time>2020-04-12T15:16:45Z</time>
      </trkpt>
      <trkpt lat="46.07029" lon="6.30239">
        <ele>587.5</ele>
        <time>2020-04-12T15:16:46Z</time>
      </trkpt>
      <trkpt lat="46.07018" lon="6.30244">
        <ele>587.5</ele>
        <time>2020-04-12T15:16:47Z</time>
      </trkpt>
      <trkpt lat="46.06919" lon="6.30292">
        <ele>586.06</ele>
        <time>2020-04-12T15:16:55Z</time>
      </trkpt>
      <trkpt lat="46.06867" lon="6.30318">
        <ele>585.58</ele>
        <time>2020-04-12T15:17:02Z</time>
      </trkpt>
      <trkpt lat="46.06859" lon="6.30321">
        <ele>585.58</ele>
        <time>2020-04-12T15:17:03Z</time>
      </trkpt>
      <trkpt lat="46.06859" lon="6.30328">
        <ele>585.58</ele>
        <time>2020-04-12T15:17:04Z</time>
      </trkpt>
      <trkpt lat="46.06859" lon="6.30339">
        <ele>585.58</ele>
        <time>2020-04-12T15:17:05Z</time>
      </trkpt>
      <trkpt lat="46.06858" lon="6.30349">
        <ele>585.58</ele>
        <time>2020-04-12T15:17:06Z</time>
      </trkpt>
      <trkpt lat="46.06858" lon="6.30361">
        <ele>585.1</ele>
        <time>2020-04-12T15:17:07Z</time>
      </trkpt>
      <trkpt lat="46.06857" lon="6.30375">
        <ele>585.1</ele>
        <time>2020-04-12T15:17:08Z</time>
      </trkpt>
      <trkpt lat="46.06856" lon="6.30387">
        <ele>584.14</ele>
        <time>2020-04-12T15:17:09Z</time>
      </trkpt>
      <trkpt lat="46.06851" lon="6.304">
        <ele>583.66</ele>
        <time>2020-04-12T15:17:10Z</time>
      </trkpt>
      <trkpt lat="46.06847" lon="6.30412">
        <ele>583.18</ele>
        <time>2020-04-12T15:17:11Z</time>
      </trkpt>
      <trkpt lat="46.06828" lon="6.30468">
        <ele>581.25</ele>
        <time>2020-04-12T15:17:16Z</time>
      </trkpt>
      <trkpt lat="46.06824" lon="6.30478">
        <ele>581.73</ele>
        <time>2020-04-12T15:17:17Z</time>
      </trkpt>
      <trkpt lat="46.06798" lon="6.30554">
        <ele>581.73</ele>
        <time>2020-04-12T15:17:23Z</time>
      </trkpt>
      <trkpt lat="46.06793" lon="6.30568">
        <ele>581.25</ele>
        <time>2020-04-12T15:17:24Z</time>
      </trkpt>
      <trkpt lat="46.06746" lon="6.30701">
        <ele>576.93</ele>
        <time>2020-04-12T15:17:33Z</time>
      </trkpt>
      <trkpt lat="46.0674" lon="6.30715">
        <ele>576.93</ele>
        <time>2020-04-12T15:17:34Z</time>
      </trkpt>
      <trkpt lat="46.06725" lon="6.30742">
        <ele>575.97</ele>
        <time>2020-04-12T15:17:36Z</time>
      </trkpt>
      <trkpt lat="46.06718" lon="6.30755">
        <ele>575.97</ele>
        <time>2020-04-12T15:17:37Z</time>
      </trkpt>
      <trkpt lat="46.0666" lon="6.30862">
        <ele>572.12</ele>
        <time>2020-04-12T15:17:45Z</time>
      </trkpt>
      <trkpt lat="46.06654" lon="6.30873">
        <ele>571.64</ele>
        <time>2020-04-12T15:17:46Z</time>
      </trkpt>
      <trkpt lat="46.06649" lon="6.30882">
        <ele>571.16</ele>
        <time>2020-04-12T15:17:47Z</time>
      </trkpt>
      <trkpt lat="46.06644" lon="6.3089">
        <ele>570.2</ele>
        <time>2020-04-12T15:17:48Z</time>
      </trkpt>
      <trkpt lat="46.06641" lon="6.30896">
        <ele>569.72</ele>
        <time>2020-04-12T15:17:49Z</time>
      </trkpt>
      <trkpt lat="46.06641" lon="6.30907">
        <ele>568.76</ele>
        <time>2020-04-12T15:17:50Z</time>
      </trkpt>
      <trkpt lat="46.06644" lon="6.30909">
        <ele>568.28</ele>
        <time>2020-04-12T15:17:51Z</time>
      </trkpt>
      <trkpt lat="46.06649" lon="6.30911">
        <ele>567.8</ele>
        <time>2020-04-12T15:17:52Z</time>
      </trkpt>
      <trkpt lat="46.06656" lon="6.3091">
        <ele>567.8</ele>
        <time>2020-04-12T15:17:53Z</time>
      </trkpt>
      <trkpt lat="46.06664" lon="6.30908">
        <ele>567.32</ele>
        <time>2020-04-12T15:17:54Z</time>
      </trkpt>
      <trkpt lat="46.06691" lon="6.30901">
        <ele>567.8</ele>
        <time>2020-04-12T15:17:57Z</time>
      </trkpt>
      <trkpt lat="46.06698" lon="6.30891">
        <ele>568.76</ele>
        <time>2020-04-12T15:17:58Z</time>
      </trkpt>
      <trkpt lat="46.06705" lon="6.30881">
        <ele>569.72</ele>
        <time>2020-04-12T15:17:59Z</time>
      </trkpt>
      <trkpt lat="46.06741" lon="6.30825">
        <ele>571.64</ele>
        <time>2020-04-12T15:18:05Z</time>
      </trkpt>
      <trkpt lat="46.06744" lon="6.3082">
        <ele>571.64</ele>
        <time>2020-04-12T15:18:06Z</time>
      </trkpt>
      <trkpt lat="46.06752" lon="6.30833">
        <ele>570.68</ele>
        <time>2020-04-12T15:18:10Z</time>
      </trkpt>
      <trkpt lat="46.06749" lon="6.30836">
        <ele>570.68</ele>
        <time>2020-04-12T15:18:24Z</time>
      </trkpt>
      <trkpt lat="46.06751" lon="6.30831">
        <ele>561.55</ele>
        <time>2020-04-12T15:41:26Z</time>
      </trkpt>
      <trkpt lat="46.06758" lon="6.30798">
        <ele>564.43</ele>
        <time>2020-04-12T15:41:28Z</time>
      </trkpt>
      <trkpt lat="46.06746" lon="6.30817">
        <ele>564.43</ele>
        <time>2020-04-12T15:41:29Z</time>
      </trkpt>
      <trkpt lat="46.06748" lon="6.30814">
        <ele>565.39</ele>
        <time>2020-04-12T15:41:30Z</time>
      </trkpt>
      <trkpt lat="46.06748" lon="6.30813">
        <ele>566.35</ele>
        <time>2020-04-12T15:41:31Z</time>
      </trkpt>
      <trkpt lat="46.06748" lon="6.30814">
        <ele>566.83</ele>
        <time>2020-04-12T15:41:35Z</time>
      </trkpt>
      <trkpt lat="46.06748" lon="6.30814">
        <ele>566.83</ele>
        <time>2020-04-12T15:41:36Z</time>
      </trkpt>
      <trkpt lat="46.06748" lon="6.30813">
        <ele>566.83</ele>
        <time>2020-04-12T15:41:37Z</time>
      </trkpt>
      <trkpt lat="46.06749" lon="6.30812">
        <ele>567.32</ele>
        <time>2020-04-12T15:41:38Z</time>
      </trkpt>
      <trkpt lat="46.0675" lon="6.3081">
        <ele>567.32</ele>
        <time>2020-04-12T15:41:39Z</time>
      </trkpt>
      <trkpt lat="46.06753" lon="6.30807">
        <ele>568.28</ele>
        <time>2020-04-12T15:41:40Z</time>
      </trkpt>
      <trkpt lat="46.06756" lon="6.30802">
        <ele>568.28</ele>
        <time>2020-04-12T15:41:41Z</time>
      </trkpt>
      <trkpt lat="46.06758" lon="6.30798">
        <ele>568.28</ele>
        <time>2020-04-12T15:41:42Z</time>
      </trkpt>
      <trkpt lat="46.06773" lon="6.30786">
        <ele>568.76</ele>
        <time>2020-04-12T15:41:44Z</time>
      </trkpt>
      <trkpt lat="46.06779" lon="6.30782">
        <ele>569.24</ele>
        <time>2020-04-12T15:41:45Z</time>
      </trkpt>
      <trkpt lat="46.06784" lon="6.30777">
        <ele>569.24</ele>
        <time>2020-04-12T15:41:46Z</time>
      </trkpt>
      <trkpt lat="46.0679" lon="6.30773">
        <ele>569.72</ele>
        <time>2020-04-12T15:41:47Z</time>
      </trkpt>
      <trkpt lat="46.06793" lon="6.3077">
        <ele>570.68</ele>
        <time>2020-04-12T15:41:48Z</time>
      </trkpt>
      <trkpt lat="46.06795" lon="6.30769">
        <ele>570.68</ele>
        <time>2020-04-12T15:41:49Z</time>
      </trkpt>
      <trkpt lat="46.06795" lon="6.30769">
        <ele>571.64</ele>
        <time>2020-04-12T15:41:50Z</time>
      </trkpt>
      <trkpt lat="46.06798" lon="6.30766">
        <ele>572.12</ele>
        <time>2020-04-12T15:41:52Z</time>
      </trkpt>
      <trkpt lat="46.06797" lon="6.30757">
        <ele>572.6</ele>
        <time>2020-04-12T15:41:53Z</time>
      </trkpt>
      <trkpt lat="46.06786" lon="6.30692">
        <ele>573.56</ele>
        <time>2020-04-12T15:41:57Z</time>
      </trkpt>
      <trkpt lat="46.06785" lon="6.30669">
        <ele>574.04</ele>
        <time>2020-04-12T15:41:58Z</time>
      </trkpt>
      <trkpt lat="46.06783" lon="6.30647">
        <ele>575.01</ele>
        <time>2020-04-12T15:41:59Z</time>
      </trkpt>
      <trkpt lat="46.06782" lon="6.30626">
        <ele>576.45</ele>
        <time>2020-04-12T15:42:00Z</time>
      </trkpt>
      <trkpt lat="46.06784" lon="6.30606">
        <ele>577.41</ele>
        <time>2020-04-12T15:42:01Z</time>
      </trkpt>
      <trkpt lat="46.06788" lon="6.30588">
        <ele>578.37</ele>
        <time>2020-04-12T15:42:02Z</time>
      </trkpt>
      <trkpt lat="46.06792" lon="6.30572">
        <ele>579.81</ele>
        <time>2020-04-12T15:42:03Z</time>
      </trkpt>
      <trkpt lat="46.06821" lon="6.30487">
        <ele>583.18</ele>
        <time>2020-04-12T15:42:10Z</time>
      </trkpt>
      <trkpt lat="46.06825" lon="6.30477">
        <ele>583.18</ele>
        <time>2020-04-12T15:42:11Z</time>
      </trkpt>
      <trkpt lat="46.06828" lon="6.30467">
        <ele>582.7</ele>
        <time>2020-04-12T15:42:12Z</time>
      </trkpt>
      <trkpt lat="46.06858" lon="6.30371">
        <ele>583.66</ele>
        <time>2020-04-12T15:42:20Z</time>
      </trkpt>
      <trkpt lat="46.06859" lon="6.3034">
        <ele>583.66</ele>
        <time>2020-04-12T15:42:22Z</time>
      </trkpt>
      <trkpt lat="46.06861" lon="6.3028">
        <ele>585.1</ele>
        <time>2020-04-12T15:42:26Z</time>
      </trkpt>
      <trkpt lat="46.06861" lon="6.30268">
        <ele>585.1</ele>
        <time>2020-04-12T15:42:27Z</time>
      </trkpt>
      <trkpt lat="46.06863" lon="6.30254">
        <ele>585.1</ele>
        <time>2020-04-12T15:42:28Z</time>
      </trkpt>
      <trkpt lat="46.06866" lon="6.30242">
        <ele>585.58</ele>
        <time>2020-04-12T15:42:29Z</time>
      </trkpt>
      <trkpt lat="46.06885" lon="6.30233">
        <ele>586.06</ele>
        <time>2020-04-12T15:42:30Z</time>
      </trkpt>
      <trkpt lat="46.06886" lon="6.30233">
        <ele>586.54</ele>
        <time>2020-04-12T15:42:31Z</time>
      </trkpt>
      <trkpt lat="46.06899" lon="6.30226">
        <ele>587.02</ele>
        <time>2020-04-12T15:42:32Z</time>
      </trkpt>
      <trkpt lat="46.06913" lon="6.30219">
        <ele>587.5</ele>
        <time>2020-04-12T15:42:33Z</time>
      </trkpt>
      <trkpt lat="46.06965" lon="6.30183">
        <ele>588.95</ele>
        <time>2020-04-12T15:42:37Z</time>
      </trkpt>
      <trkpt lat="46.06976" lon="6.30172">
        <ele>589.43</ele>
        <time>2020-04-12T15:42:38Z</time>
      </trkpt>
      <trkpt lat="46.07043" lon="6.30078">
        <ele>594.71</ele>
        <time>2020-04-12T15:42:45Z</time>
      </trkpt>
      <trkpt lat="46.07049" lon="6.30069">
        <ele>595.19</ele>
        <time>2020-04-12T15:42:46Z</time>
      </trkpt>
      <trkpt lat="46.07055" lon="6.30062">
        <ele>595.67</ele>
        <time>2020-04-12T15:42:47Z</time>
      </trkpt>
      <trkpt lat="46.0706" lon="6.30057">
        <ele>596.15</ele>
        <time>2020-04-12T15:42:48Z</time>
      </trkpt>
      <trkpt lat="46.07065" lon="6.30054">
        <ele>596.64</ele>
        <time>2020-04-12T15:42:49Z</time>
      </trkpt>
      <trkpt lat="46.07078" lon="6.30057">
        <ele>597.12</ele>
        <time>2020-04-12T15:42:50Z</time>
      </trkpt>
      <trkpt lat="46.07078" lon="6.30057">
        <ele>597.6</ele>
        <time>2020-04-12T15:42:51Z</time>
      </trkpt>
      <trkpt lat="46.07087" lon="6.3006">
        <ele>598.08</ele>
        <time>2020-04-12T15:42:52Z</time>
      </trkpt>
      <trkpt lat="46.07093" lon="6.30053">
        <ele>598.08</ele>
        <time>2020-04-12T15:42:53Z</time>
      </trkpt>
      <trkpt lat="46.071" lon="6.30039">
        <ele>598.56</ele>
        <time>2020-04-12T15:42:54Z</time>
      </trkpt>
      <trkpt lat="46.07111" lon="6.3003">
        <ele>599.52</ele>
        <time>2020-04-12T15:42:55Z</time>
      </trkpt>
      <trkpt lat="46.07123" lon="6.3002">
        <ele>600</ele>
        <time>2020-04-12T15:42:56Z</time>
      </trkpt>
      <trkpt lat="46.07135" lon="6.30009">
        <ele>600.48</ele>
        <time>2020-04-12T15:42:57Z</time>
      </trkpt>
      <trkpt lat="46.07247" lon="6.29917">
        <ele>603.36</ele>
        <time>2020-04-12T15:43:06Z</time>
      </trkpt>
      <trkpt lat="46.0726" lon="6.29907">
        <ele>602.88</ele>
        <time>2020-04-12T15:43:07Z</time>
      </trkpt>
      <trkpt lat="46.07322" lon="6.29858">
        <ele>602.4</ele>
        <time>2020-04-12T15:43:13Z</time>
      </trkpt>
      <trkpt lat="46.07329" lon="6.29853">
        <ele>601.92</ele>
        <time>2020-04-12T15:43:14Z</time>
      </trkpt>
      <trkpt lat="46.07403" lon="6.298">
        <ele>603.85</ele>
        <time>2020-04-12T15:43:21Z</time>
      </trkpt>
      <trkpt lat="46.07503" lon="6.2974">
        <ele>604.33</ele>
        <time>2020-04-12T15:43:28Z</time>
      </trkpt>
      <trkpt lat="46.07519" lon="6.29736">
        <ele>604.33</ele>
        <time>2020-04-12T15:43:29Z</time>
      </trkpt>
      <trkpt lat="46.07535" lon="6.29736">
        <ele>604.33</ele>
        <time>2020-04-12T15:43:30Z</time>
      </trkpt>
      <trkpt lat="46.07552" lon="6.29737">
        <ele>604.33</ele>
        <time>2020-04-12T15:43:31Z</time>
      </trkpt>
      <trkpt lat="46.07569" lon="6.29738">
        <ele>603.85</ele>
        <time>2020-04-12T15:43:32Z</time>
      </trkpt>
      <trkpt lat="46.07586" lon="6.29746">
        <ele>603.36</ele>
        <time>2020-04-12T15:43:33Z</time>
      </trkpt>
      <trkpt lat="46.07634" lon="6.29761">
        <ele>600.96</ele>
        <time>2020-04-12T15:43:36Z</time>
      </trkpt>
      <trkpt lat="46.07651" lon="6.29761">
        <ele>600</ele>
        <time>2020-04-12T15:43:37Z</time>
      </trkpt>
      <trkpt lat="46.07667" lon="6.29759">
        <ele>599.04</ele>
        <time>2020-04-12T15:43:38Z</time>
      </trkpt>
      <trkpt lat="46.07683" lon="6.29749">
        <ele>597.6</ele>
        <time>2020-04-12T15:43:39Z</time>
      </trkpt>
      <trkpt lat="46.07699" lon="6.29738">
        <ele>596.15</ele>
        <time>2020-04-12T15:43:40Z</time>
      </trkpt>
      <trkpt lat="46.07716" lon="6.29727">
        <ele>594.71</ele>
        <time>2020-04-12T15:43:41Z</time>
      </trkpt>
      <trkpt lat="46.07748" lon="6.29708">
        <ele>591.35</ele>
        <time>2020-04-12T15:43:43Z</time>
      </trkpt>
      <trkpt lat="46.07766" lon="6.29694">
        <ele>589.91</ele>
        <time>2020-04-12T15:43:44Z</time>
      </trkpt>
      <trkpt lat="46.07802" lon="6.29662">
        <ele>587.5</ele>
        <time>2020-04-12T15:43:47Z</time>
      </trkpt>
      <trkpt lat="46.0781" lon="6.29652">
        <ele>587.5</ele>
        <time>2020-04-12T15:43:48Z</time>
      </trkpt>
      <trkpt lat="46.07816" lon="6.29643">
        <ele>587.98</ele>
        <time>2020-04-12T15:43:49Z</time>
      </trkpt>
      <trkpt lat="46.0782" lon="6.29635">
        <ele>588.46</ele>
        <time>2020-04-12T15:43:50Z</time>
      </trkpt>
      <trkpt lat="46.07819" lon="6.29624">
        <ele>588.95</ele>
        <time>2020-04-12T15:43:51Z</time>
      </trkpt>
      <trkpt lat="46.07814" lon="6.29621">
        <ele>588.95</ele>
        <time>2020-04-12T15:43:52Z</time>
      </trkpt>
      <trkpt lat="46.07808" lon="6.29617">
        <ele>589.43</ele>
        <time>2020-04-12T15:43:53Z</time>
      </trkpt>
      <trkpt lat="46.07802" lon="6.29618">
        <ele>588.95</ele>
        <time>2020-04-12T15:43:54Z</time>
      </trkpt>
      <trkpt lat="46.07793" lon="6.29624">
        <ele>588.95</ele>
        <time>2020-04-12T15:43:55Z</time>
      </trkpt>
      <trkpt lat="46.07784" lon="6.2963">
        <ele>588.95</ele>
        <time>2020-04-12T15:43:56Z</time>
      </trkpt>
      <trkpt lat="46.07775" lon="6.29638">
        <ele>589.43</ele>
        <time>2020-04-12T15:43:57Z</time>
      </trkpt>
      <trkpt lat="46.07766" lon="6.29644">
        <ele>589.43</ele>
        <time>2020-04-12T15:43:58Z</time>
      </trkpt>
      <trkpt lat="46.07758" lon="6.29651">
        <ele>589.43</ele>
        <time>2020-04-12T15:43:59Z</time>
      </trkpt>
      <trkpt lat="46.07748" lon="6.29648">
        <ele>589.43</ele>
        <time>2020-04-12T15:44:00Z</time>
      </trkpt>
      <trkpt lat="46.07739" lon="6.29643">
        <ele>589.43</ele>
        <time>2020-04-12T15:44:01Z</time>
      </trkpt>
      <trkpt lat="46.0773" lon="6.29639">
        <ele>589.43</ele>
        <time>2020-04-12T15:44:02Z</time>
      </trkpt>
      <trkpt lat="46.0772" lon="6.29629">
        <ele>589.91</ele>
        <time>2020-04-12T15:44:03Z</time>
      </trkpt>
      <trkpt lat="46.07715" lon="6.29613">
        <ele>590.87</ele>
        <time>2020-04-12T15:44:04Z</time>
      </trkpt>
      <trkpt lat="46.07708" lon="6.29593">
        <ele>591.35</ele>
        <time>2020-04-12T15:44:05Z</time>
      </trkpt>
      <trkpt lat="46.0766" lon="6.29455">
        <ele>597.12</ele>
        <time>2020-04-12T15:44:09Z</time>
      </trkpt>
      <trkpt lat="46.07565" lon="6.2926">
        <ele>609.61</ele>
        <time>2020-04-12T15:44:14Z</time>
      </trkpt>
      <trkpt lat="46.07529" lon="6.29196">
        <ele>618.26</ele>
        <time>2020-04-12T15:44:18Z</time>
      </trkpt>
      <trkpt lat="46.07457" lon="6.28982">
        <ele>624.99</ele>
        <time>2020-04-12T15:44:23Z</time>
      </trkpt>
      <trkpt lat="46.07443" lon="6.28956">
        <ele>625.96</ele>
        <time>2020-04-12T15:44:24Z</time>
      </trkpt>
      <trkpt lat="46.07428" lon="6.28932">
        <ele>626.92</ele>
        <time>2020-04-12T15:44:25Z</time>
      </trkpt>
      <trkpt lat="46.07412" lon="6.28908">
        <ele>627.88</ele>
        <time>2020-04-12T15:44:26Z</time>
      </trkpt>
      <trkpt lat="46.07394" lon="6.28888">
        <ele>629.32</ele>
        <time>2020-04-12T15:44:27Z</time>
      </trkpt>
      <trkpt lat="46.07374" lon="6.28872">
        <ele>630.28</ele>
        <time>2020-04-12T15:44:28Z</time>
      </trkpt>
      <trkpt lat="46.07353" lon="6.28858">
        <ele>631.72</ele>
        <time>2020-04-12T15:44:29Z</time>
      </trkpt>
      <trkpt lat="46.07331" lon="6.28848">
        <ele>632.68</ele>
        <time>2020-04-12T15:44:30Z</time>
      </trkpt>
      <trkpt lat="46.07309" lon="6.2884">
        <ele>633.65</ele>
        <time>2020-04-12T15:44:31Z</time>
      </trkpt>
      <trkpt lat="46.07286" lon="6.28835">
        <ele>635.09</ele>
        <time>2020-04-12T15:44:32Z</time>
      </trkpt>
      <trkpt lat="46.07263" lon="6.28831">
        <ele>636.53</ele>
        <time>2020-04-12T15:44:33Z</time>
      </trkpt>
      <trkpt lat="46.07239" lon="6.28828">
        <ele>637.97</ele>
        <time>2020-04-12T15:44:34Z</time>
      </trkpt>
      <trkpt lat="46.07047" lon="6.28805">
        <ele>649.03</ele>
        <time>2020-04-12T15:44:42Z</time>
      </trkpt>
      <trkpt lat="46.07024" lon="6.28798">
        <ele>650.47</ele>
        <time>2020-04-12T15:44:43Z</time>
      </trkpt>
      <trkpt lat="46.07003" lon="6.28784">
        <ele>651.43</ele>
        <time>2020-04-12T15:44:44Z</time>
      </trkpt>
      <trkpt lat="46.06851" lon="6.28685">
        <ele>660.08</ele>
        <time>2020-04-12T15:44:51Z</time>
      </trkpt>
      <trkpt lat="46.06805" lon="6.28674">
        <ele>662.49</ele>
        <time>2020-04-12T15:44:53Z</time>
      </trkpt>
      <trkpt lat="46.06782" lon="6.28674">
        <ele>663.45</ele>
        <time>2020-04-12T15:44:54Z</time>
      </trkpt>
      <trkpt lat="46.06759" lon="6.28678">
        <ele>664.41</ele>
        <time>2020-04-12T15:44:55Z</time>
      </trkpt>
      <trkpt lat="46.06736" lon="6.28683">
        <ele>665.37</ele>
        <time>2020-04-12T15:44:56Z</time>
      </trkpt>
      <trkpt lat="46.06714" lon="6.28693">
        <ele>666.81</ele>
        <time>2020-04-12T15:44:57Z</time>
      </trkpt>
      <trkpt lat="46.06691" lon="6.28706">
        <ele>668.25</ele>
        <time>2020-04-12T15:44:58Z</time>
      </trkpt>
      <trkpt lat="46.06669" lon="6.2872">
        <ele>669.22</ele>
        <time>2020-04-12T15:44:59Z</time>
      </trkpt>
      <trkpt lat="46.06487" lon="6.28824">
        <ele>680.27</ele>
        <time>2020-04-12T15:45:08Z</time>
      </trkpt>
      <trkpt lat="46.06474" lon="6.28828">
        <ele>681.23</ele>
        <time>2020-04-12T15:45:09Z</time>
      </trkpt>
      <trkpt lat="46.06452" lon="6.28819">
        <ele>682.19</ele>
        <time>2020-04-12T15:45:10Z</time>
      </trkpt>
      <trkpt lat="46.06439" lon="6.28817">
        <ele>683.63</ele>
        <time>2020-04-12T15:45:12Z</time>
      </trkpt>
      <trkpt lat="46.06431" lon="6.28824">
        <ele>684.12</ele>
        <time>2020-04-12T15:45:13Z</time>
      </trkpt>
      <trkpt lat="46.06409" lon="6.2884">
        <ele>684.6</ele>
        <time>2020-04-12T15:45:15Z</time>
      </trkpt>
      <trkpt lat="46.06393" lon="6.28843">
        <ele>685.08</ele>
        <time>2020-04-12T15:45:16Z</time>
      </trkpt>
      <trkpt lat="46.06376" lon="6.28847">
        <ele>685.56</ele>
        <time>2020-04-12T15:45:17Z</time>
      </trkpt>
      <trkpt lat="46.0625" lon="6.28881">
        <ele>691.81</ele>
        <time>2020-04-12T15:45:22Z</time>
      </trkpt>
      <trkpt lat="46.05929" lon="6.28988">
        <ele>710.55</ele>
        <time>2020-04-12T15:45:33Z</time>
      </trkpt>
      <trkpt lat="46.05811" lon="6.29009">
        <ele>716.32</ele>
        <time>2020-04-12T15:45:37Z</time>
      </trkpt>
      <trkpt lat="46.05783" lon="6.29004">
        <ele>717.28</ele>
        <time>2020-04-12T15:45:38Z</time>
      </trkpt>
      <trkpt lat="46.05755" lon="6.28995">
        <ele>718.24</ele>
        <time>2020-04-12T15:45:39Z</time>
      </trkpt>
      <trkpt lat="46.05728" lon="6.28984">
        <ele>719.68</ele>
        <time>2020-04-12T15:45:40Z</time>
      </trkpt>
      <trkpt lat="46.05703" lon="6.28967">
        <ele>721.13</ele>
        <time>2020-04-12T15:45:41Z</time>
      </trkpt>
      <trkpt lat="46.05678" lon="6.28949">
        <ele>722.57</ele>
        <time>2020-04-12T15:45:42Z</time>
      </trkpt>
      <trkpt lat="46.05656" lon="6.28926">
        <ele>724.01</ele>
        <time>2020-04-12T15:45:43Z</time>
      </trkpt>
      <trkpt lat="46.05637" lon="6.28897">
        <ele>725.93</ele>
        <time>2020-04-12T15:45:44Z</time>
      </trkpt>
      <trkpt lat="46.05618" lon="6.28867">
        <ele>727.37</ele>
        <time>2020-04-12T15:45:45Z</time>
      </trkpt>
      <trkpt lat="46.05601" lon="6.28835">
        <ele>728.82</ele>
        <time>2020-04-12T15:45:46Z</time>
      </trkpt>
      <trkpt lat="46.05587" lon="6.288">
        <ele>730.26</ele>
        <time>2020-04-12T15:45:47Z</time>
      </trkpt>
      <trkpt lat="46.05499" lon="6.2855">
        <ele>738.91</ele>
        <time>2020-04-12T15:45:54Z</time>
      </trkpt>
      <trkpt lat="46.05375" lon="6.28196">
        <ele>747.08</ele>
        <time>2020-04-12T15:46:04Z</time>
      </trkpt>
      <trkpt lat="46.05192" lon="6.27667">
        <ele>756.21</ele>
        <time>2020-04-12T15:46:18Z</time>
      </trkpt>
      <trkpt lat="46.05134" lon="6.27383">
        <ele>759.1</ele>
        <time>2020-04-12T15:46:25Z</time>
      </trkpt>
      <trkpt lat="46.05128" lon="6.2709">
        <ele>766.79</ele>
        <time>2020-04-12T15:46:32Z</time>
      </trkpt>
      <trkpt lat="46.05148" lon="6.26845">
        <ele>771.11</ele>
        <time>2020-04-12T15:46:38Z</time>
      </trkpt>
      <trkpt lat="46.05148" lon="6.26806">
        <ele>771.6</ele>
        <time>2020-04-12T15:46:39Z</time>
      </trkpt>
      <trkpt lat="46.05143" lon="6.26768">
        <ele>771.6</ele>
        <time>2020-04-12T15:46:40Z</time>
      </trkpt>
      <trkpt lat="46.05138" lon="6.2673">
        <ele>772.08</ele>
        <time>2020-04-12T15:46:41Z</time>
      </trkpt>
      <trkpt lat="46.05128" lon="6.26693">
        <ele>772.08</ele>
        <time>2020-04-12T15:46:42Z</time>
      </trkpt>
      <trkpt lat="46.05118" lon="6.26656">
        <ele>772.56</ele>
        <time>2020-04-12T15:46:43Z</time>
      </trkpt>
      <trkpt lat="46.05104" lon="6.26622">
        <ele>773.52</ele>
        <time>2020-04-12T15:46:44Z</time>
      </trkpt>
      <trkpt lat="46.05088" lon="6.2659">
        <ele>774.48</ele>
        <time>2020-04-12T15:46:45Z</time>
      </trkpt>
      <trkpt lat="46.05071" lon="6.2656">
        <ele>775.44</ele>
        <time>2020-04-12T15:46:46Z</time>
      </trkpt>
      <trkpt lat="46.0505" lon="6.26533">
        <ele>776.88</ele>
        <time>2020-04-12T15:46:47Z</time>
      </trkpt>
      <trkpt lat="46.05027" lon="6.2651">
        <ele>778.32</ele>
        <time>2020-04-12T15:46:48Z</time>
      </trkpt>
      <trkpt lat="46.05003" lon="6.26487">
        <ele>779.77</ele>
        <time>2020-04-12T15:46:49Z</time>
      </trkpt>
      <trkpt lat="46.04978" lon="6.26467">
        <ele>781.69</ele>
        <time>2020-04-12T15:46:50Z</time>
      </trkpt>
      <trkpt lat="46.04906" lon="6.26403">
        <ele>786.5</ele>
        <time>2020-04-12T15:46:53Z</time>
      </trkpt>
      <trkpt lat="46.04884" lon="6.26378">
        <ele>787.94</ele>
        <time>2020-04-12T15:46:54Z</time>
      </trkpt>
      <trkpt lat="46.04864" lon="6.26351">
        <ele>789.38</ele>
        <time>2020-04-12T15:46:55Z</time>
      </trkpt>
      <trkpt lat="46.04847" lon="6.26321">
        <ele>790.82</ele>
        <time>2020-04-12T15:46:56Z</time>
      </trkpt>
      <trkpt lat="46.0483" lon="6.26291">
        <ele>792.26</ele>
        <time>2020-04-12T15:46:57Z</time>
      </trkpt>
      <trkpt lat="46.04711" lon="6.26041">
        <ele>801.88</ele>
        <time>2020-04-12T15:47:05Z</time>
      </trkpt>
      <trkpt lat="46.04632" lon="6.2588">
        <ele>804.28</ele>
        <time>2020-04-12T15:47:12Z</time>
      </trkpt>
      <trkpt lat="46.04562" lon="6.25738">
        <ele>805.72</ele>
        <time>2020-04-12T15:47:17Z</time>
      </trkpt>
      <trkpt lat="46.04454" lon="6.25506">
        <ele>807.16</ele>
        <time>2020-04-12T15:47:24Z</time>
      </trkpt>
      <trkpt lat="46.04444" lon="6.25468">
        <ele>807.16</ele>
        <time>2020-04-12T15:47:25Z</time>
      </trkpt>
      <trkpt lat="46.04371" lon="6.25157">
        <ele>802.36</ele>
        <time>2020-04-12T15:47:33Z</time>
      </trkpt>
      <trkpt lat="46.04346" lon="6.25086">
        <ele>800.44</ele>
        <time>2020-04-12T15:47:35Z</time>
      </trkpt>
      <trkpt lat="46.0433" lon="6.25054">
        <ele>798.99</ele>
        <time>2020-04-12T15:47:36Z</time>
      </trkpt>
      <trkpt lat="46.04313" lon="6.25021">
        <ele>797.55</ele>
        <time>2020-04-12T15:47:37Z</time>
      </trkpt>
      <trkpt lat="46.04294" lon="6.24989">
        <ele>796.11</ele>
        <time>2020-04-12T15:47:38Z</time>
      </trkpt>
      <trkpt lat="46.04272" lon="6.2496">
        <ele>794.19</ele>
        <time>2020-04-12T15:47:39Z</time>
      </trkpt>
      <trkpt lat="46.04129" lon="6.24771">
        <ele>791.3</ele>
        <time>2020-04-12T15:47:46Z</time>
      </trkpt>
      <trkpt lat="46.04107" lon="6.2475">
        <ele>792.26</ele>
        <time>2020-04-12T15:47:47Z</time>
      </trkpt>
      <trkpt lat="46.04081" lon="6.24735">
        <ele>793.22</ele>
        <time>2020-04-12T15:47:48Z</time>
      </trkpt>
      <trkpt lat="46.04056" lon="6.24722">
        <ele>794.19</ele>
        <time>2020-04-12T15:47:49Z</time>
      </trkpt>
      <trkpt lat="46.04031" lon="6.24714">
        <ele>795.15</ele>
        <time>2020-04-12T15:47:50Z</time>
      </trkpt>
      <trkpt lat="46.04005" lon="6.24707">
        <ele>795.15</ele>
        <time>2020-04-12T15:47:51Z</time>
      </trkpt>
      <trkpt lat="46.03956" lon="6.24685">
        <ele>795.63</ele>
        <time>2020-04-12T15:47:53Z</time>
      </trkpt>
      <trkpt lat="46.03933" lon="6.2467">
        <ele>795.63</ele>
        <time>2020-04-12T15:47:54Z</time>
      </trkpt>
      <trkpt lat="46.03911" lon="6.24648">
        <ele>795.63</ele>
        <time>2020-04-12T15:47:55Z</time>
      </trkpt>
      <trkpt lat="46.0389" lon="6.24625">
        <ele>795.63</ele>
        <time>2020-04-12T15:47:56Z</time>
      </trkpt>
      <trkpt lat="46.03871" lon="6.24597">
        <ele>795.15</ele>
        <time>2020-04-12T15:47:57Z</time>
      </trkpt>
      <trkpt lat="46.03856" lon="6.24565">
        <ele>794.67</ele>
        <time>2020-04-12T15:47:58Z</time>
      </trkpt>
      <trkpt lat="46.03842" lon="6.24532">
        <ele>793.71</ele>
        <time>2020-04-12T15:47:59Z</time>
      </trkpt>
      <trkpt lat="46.03834" lon="6.24494">
        <ele>792.74</ele>
        <time>2020-04-12T15:48:00Z</time>
      </trkpt>
      <trkpt lat="46.03824" lon="6.24455">
        <ele>791.78</ele>
        <time>2020-04-12T15:48:01Z</time>
      </trkpt>
      <trkpt lat="46.03814" lon="6.24412">
        <ele>790.34</ele>
        <time>2020-04-12T15:48:02Z</time>
      </trkpt>
      <trkpt lat="46.03779" lon="6.24261">
        <ele>784.09</ele>
        <time>2020-04-12T15:48:06Z</time>
      </trkpt>
      <trkpt lat="46.03767" lon="6.24228">
        <ele>782.17</ele>
        <time>2020-04-12T15:48:07Z</time>
      </trkpt>
      <trkpt lat="46.03752" lon="6.24198">
        <ele>780.73</ele>
        <time>2020-04-12T15:48:08Z</time>
      </trkpt>
      <trkpt lat="46.03735" lon="6.24171">
        <ele>778.81</ele>
        <time>2020-04-12T15:48:09Z</time>
      </trkpt>
      <trkpt lat="46.03717" lon="6.24144">
        <ele>777.36</ele>
        <time>2020-04-12T15:48:10Z</time>
      </trkpt>
      <trkpt lat="46.03699" lon="6.24121">
        <ele>775.44</ele>
        <time>2020-04-12T15:48:11Z</time>
      </trkpt>
      <trkpt lat="46.03679" lon="6.24102">
        <ele>774</ele>
        <time>2020-04-12T15:48:12Z</time>
      </trkpt>
      <trkpt lat="46.03661" lon="6.24086">
        <ele>772.56</ele>
        <time>2020-04-12T15:48:13Z</time>
      </trkpt>
      <trkpt lat="46.03641" lon="6.24076">
        <ele>771.11</ele>
        <time>2020-04-12T15:48:14Z</time>
      </trkpt>
      <trkpt lat="46.03622" lon="6.24073">
        <ele>770.15</ele>
        <time>2020-04-12T15:48:15Z</time>
      </trkpt>
      <trkpt lat="46.03602" lon="6.24072">
        <ele>768.71</ele>
        <time>2020-04-12T15:48:16Z</time>
      </trkpt>
      <trkpt lat="46.03583" lon="6.24074">
        <ele>767.75</ele>
        <time>2020-04-12T15:48:17Z</time>
      </trkpt>
      <trkpt lat="46.03563" lon="6.24081">
        <ele>766.79</ele>
        <time>2020-04-12T15:48:18Z</time>
      </trkpt>
      <trkpt lat="46.03545" lon="6.24092">
        <ele>766.31</ele>
        <time>2020-04-12T15:48:19Z</time>
      </trkpt>
      <trkpt lat="46.03529" lon="6.24105">
        <ele>765.83</ele>
        <time>2020-04-12T15:48:20Z</time>
      </trkpt>
      <trkpt lat="46.03515" lon="6.24128">
        <ele>765.35</ele>
        <time>2020-04-12T15:48:21Z</time>
      </trkpt>
      <trkpt lat="46.03502" lon="6.2415">
        <ele>764.87</ele>
        <time>2020-04-12T15:48:22Z</time>
      </trkpt>
      <trkpt lat="46.03489" lon="6.24172">
        <ele>763.9</ele>
        <time>2020-04-12T15:48:23Z</time>
      </trkpt>
      <trkpt lat="46.0345" lon="6.24232">
        <ele>760.54</ele>
        <time>2020-04-12T15:48:26Z</time>
      </trkpt>
      <trkpt lat="46.03434" lon="6.24244">
        <ele>759.58</ele>
        <time>2020-04-12T15:48:27Z</time>
      </trkpt>
      <trkpt lat="46.03417" lon="6.24254">
        <ele>758.14</ele>
        <time>2020-04-12T15:48:28Z</time>
      </trkpt>
      <trkpt lat="46.03399" lon="6.2426">
        <ele>756.69</ele>
        <time>2020-04-12T15:48:29Z</time>
      </trkpt>
      <trkpt lat="46.03382" lon="6.24262">
        <ele>755.25</ele>
        <time>2020-04-12T15:48:30Z</time>
      </trkpt>
      <trkpt lat="46.03364" lon="6.24258">
        <ele>753.33</ele>
        <time>2020-04-12T15:48:31Z</time>
      </trkpt>
      <trkpt lat="46.03348" lon="6.24251">
        <ele>752.37</ele>
        <time>2020-04-12T15:48:32Z</time>
      </trkpt>
      <trkpt lat="46.03331" lon="6.24238">
        <ele>751.41</ele>
        <time>2020-04-12T15:48:33Z</time>
      </trkpt>
      <trkpt lat="46.03312" lon="6.24223">
        <ele>750.93</ele>
        <time>2020-04-12T15:48:34Z</time>
      </trkpt>
      <trkpt lat="46.03295" lon="6.24205">
        <ele>750.45</ele>
        <time>2020-04-12T15:48:35Z</time>
      </trkpt>
      <trkpt lat="46.03279" lon="6.2418">
        <ele>750.45</ele>
        <time>2020-04-12T15:48:36Z</time>
      </trkpt>
      <trkpt lat="46.03177" lon="6.24045">
        <ele>749</ele>
        <time>2020-04-12T15:48:41Z</time>
      </trkpt>
      <trkpt lat="46.03015" lon="6.23877">
        <ele>745.64</ele>
        <time>2020-04-12T15:48:48Z</time>
      </trkpt>
      <trkpt lat="46.02988" lon="6.23862">
        <ele>745.16</ele>
        <time>2020-04-12T15:48:49Z</time>
      </trkpt>
      <trkpt lat="46.02782" lon="6.23783">
        <ele>740.35</ele>
        <time>2020-04-12T15:48:56Z</time>
      </trkpt>
      <trkpt lat="46.02589" lon="6.23743">
        <ele>731.7</ele>
        <time>2020-04-12T15:49:03Z</time>
      </trkpt>
      <trkpt lat="46.02566" lon="6.23732">
        <ele>730.26</ele>
        <time>2020-04-12T15:49:04Z</time>
      </trkpt>
      <trkpt lat="46.02544" lon="6.23717">
        <ele>729.3</ele>
        <time>2020-04-12T15:49:05Z</time>
      </trkpt>
      <trkpt lat="46.02523" lon="6.23694">
        <ele>728.34</ele>
        <time>2020-04-12T15:49:06Z</time>
      </trkpt>
      <trkpt lat="46.02505" lon="6.23671">
        <ele>727.37</ele>
        <time>2020-04-12T15:49:07Z</time>
      </trkpt>
      <trkpt lat="46.02489" lon="6.23644">
        <ele>726.41</ele>
        <time>2020-04-12T15:49:08Z</time>
      </trkpt>
      <trkpt lat="46.02473" lon="6.23618">
        <ele>725.45</ele>
        <time>2020-04-12T15:49:09Z</time>
      </trkpt>
      <trkpt lat="46.0246" lon="6.23591">
        <ele>724.49</ele>
        <time>2020-04-12T15:49:10Z</time>
      </trkpt>
      <trkpt lat="46.02447" lon="6.23565">
        <ele>723.53</ele>
        <time>2020-04-12T15:49:11Z</time>
      </trkpt>
      <trkpt lat="46.02411" lon="6.23492">
        <ele>721.13</ele>
        <time>2020-04-12T15:49:14Z</time>
      </trkpt>
      <trkpt lat="46.02397" lon="6.23473">
        <ele>720.65</ele>
        <time>2020-04-12T15:49:15Z</time>
      </trkpt>
      <trkpt lat="46.02381" lon="6.23459">
        <ele>719.68</ele>
        <time>2020-04-12T15:49:16Z</time>
      </trkpt>
      <trkpt lat="46.02365" lon="6.23445">
        <ele>718.72</ele>
        <time>2020-04-12T15:49:17Z</time>
      </trkpt>
      <trkpt lat="46.0235" lon="6.23432">
        <ele>717.76</ele>
        <time>2020-04-12T15:49:18Z</time>
      </trkpt>
      <trkpt lat="46.02307" lon="6.23392">
        <ele>714.4</ele>
        <time>2020-04-12T15:49:21Z</time>
      </trkpt>
      <trkpt lat="46.02293" lon="6.2338">
        <ele>713.44</ele>
        <time>2020-04-12T15:49:22Z</time>
      </trkpt>
      <trkpt lat="46.02282" lon="6.23363">
        <ele>711.99</ele>
        <time>2020-04-12T15:49:23Z</time>
      </trkpt>
      <trkpt lat="46.02272" lon="6.23348">
        <ele>711.03</ele>
        <time>2020-04-12T15:49:24Z</time>
      </trkpt>
      <trkpt lat="46.02261" lon="6.23325">
        <ele>710.07</ele>
        <time>2020-04-12T15:49:25Z</time>
      </trkpt>
      <trkpt lat="46.02251" lon="6.23304">
        <ele>710.07</ele>
        <time>2020-04-12T15:49:26Z</time>
      </trkpt>
      <trkpt lat="46.02164" lon="6.23128">
        <ele>707.19</ele>
        <time>2020-04-12T15:49:35Z</time>
      </trkpt>
      <trkpt lat="46.02138" lon="6.23089">
        <ele>706.71</ele>
        <time>2020-04-12T15:49:37Z</time>
      </trkpt>
      <trkpt lat="46.02124" lon="6.23069">
        <ele>706.23</ele>
        <time>2020-04-12T15:49:38Z</time>
      </trkpt>
      <trkpt lat="46.02079" lon="6.23009">
        <ele>704.78</ele>
        <time>2020-04-12T15:49:41Z</time>
      </trkpt>
      <trkpt lat="46.02066" lon="6.22986">
        <ele>704.3</ele>
        <time>2020-04-12T15:49:42Z</time>
      </trkpt>
      <trkpt lat="46.02057" lon="6.22959">
        <ele>703.82</ele>
        <time>2020-04-12T15:49:43Z</time>
      </trkpt>
      <trkpt lat="46.02049" lon="6.22932">
        <ele>703.34</ele>
        <time>2020-04-12T15:49:44Z</time>
      </trkpt>
      <trkpt lat="46.02042" lon="6.22905">
        <ele>702.86</ele>
        <time>2020-04-12T15:49:45Z</time>
      </trkpt>
      <trkpt lat="46.02037" lon="6.22877">
        <ele>702.38</ele>
        <time>2020-04-12T15:49:46Z</time>
      </trkpt>
      <trkpt lat="46.02032" lon="6.22848">
        <ele>701.42</ele>
        <time>2020-04-12T15:49:47Z</time>
      </trkpt>
      <trkpt lat="46.01991" lon="6.22554">
        <ele>696.61</ele>
        <time>2020-04-12T15:49:56Z</time>
      </trkpt>
      <trkpt lat="46.01937" lon="6.22209">
        <ele>688.44</ele>
        <time>2020-04-12T15:50:05Z</time>
      </trkpt>
      <trkpt lat="46.0186" lon="6.21902">
        <ele>684.12</ele>
        <time>2020-04-12T15:50:13Z</time>
      </trkpt>
      <trkpt lat="46.01716" lon="6.21549">
        <ele>680.75</ele>
        <time>2020-04-12T15:50:24Z</time>
      </trkpt>
      <trkpt lat="46.017" lon="6.21518">
        <ele>680.75</ele>
        <time>2020-04-12T15:50:25Z</time>
      </trkpt>
      <trkpt lat="46.0168" lon="6.2149">
        <ele>680.27</ele>
        <time>2020-04-12T15:50:26Z</time>
      </trkpt>
      <trkpt lat="46.01658" lon="6.21463">
        <ele>679.79</ele>
        <time>2020-04-12T15:50:27Z</time>
      </trkpt>
      <trkpt lat="46.01518" lon="6.21327">
        <ele>677.87</ele>
        <time>2020-04-12T15:50:32Z</time>
      </trkpt>
      <trkpt lat="46.01413" lon="6.2121">
        <ele>675.46</ele>
        <time>2020-04-12T15:50:36Z</time>
      </trkpt>
      <trkpt lat="46.01393" lon="6.21174">
        <ele>674.98</ele>
        <time>2020-04-12T15:50:37Z</time>
      </trkpt>
      <trkpt lat="46.0125" lon="6.20978">
        <ele>668.25</ele>
        <time>2020-04-12T15:50:43Z</time>
      </trkpt>
      <trkpt lat="46.01085" lon="6.20779">
        <ele>662.49</ele>
        <time>2020-04-12T15:50:50Z</time>
      </trkpt>
      <trkpt lat="46.00929" lon="6.20594">
        <ele>658.64</ele>
        <time>2020-04-12T15:50:58Z</time>
      </trkpt>
      <trkpt lat="46.00881" lon="6.20528">
        <ele>658.64</ele>
        <time>2020-04-12T15:51:01Z</time>
      </trkpt>
      <trkpt lat="46.0087" lon="6.20499">
        <ele>658.16</ele>
        <time>2020-04-12T15:51:02Z</time>
      </trkpt>
      <trkpt lat="46.0086" lon="6.20471">
        <ele>657.68</ele>
        <time>2020-04-12T15:51:03Z</time>
      </trkpt>
      <trkpt lat="46.00851" lon="6.20441">
        <ele>657.68</ele>
        <time>2020-04-12T15:51:04Z</time>
      </trkpt>
      <trkpt lat="46.00843" lon="6.2041">
        <ele>656.72</ele>
        <time>2020-04-12T15:51:05Z</time>
      </trkpt>
      <trkpt lat="46.00783" lon="6.20194">
        <ele>653.35</ele>
        <time>2020-04-12T15:51:11Z</time>
      </trkpt>
      <trkpt lat="46.00705" lon="6.19833">
        <ele>639.89</ele>
        <time>2020-04-12T15:51:21Z</time>
      </trkpt>
      <trkpt lat="46.00687" lon="6.19768">
        <ele>637.49</ele>
        <time>2020-04-12T15:51:23Z</time>
      </trkpt>
      <trkpt lat="46.00677" lon="6.19736">
        <ele>636.05</ele>
        <time>2020-04-12T15:51:24Z</time>
      </trkpt>
      <trkpt lat="46.00665" lon="6.19706">
        <ele>634.61</ele>
        <time>2020-04-12T15:51:25Z</time>
      </trkpt>
      <trkpt lat="46.00609" lon="6.19563">
        <ele>628.36</ele>
        <time>2020-04-12T15:51:30Z</time>
      </trkpt>
      <trkpt lat="46.00594" lon="6.19542">
        <ele>627.4</ele>
        <time>2020-04-12T15:51:31Z</time>
      </trkpt>
      <trkpt lat="46.00578" lon="6.19523">
        <ele>625.96</ele>
        <time>2020-04-12T15:51:32Z</time>
      </trkpt>
      <trkpt lat="46.00561" lon="6.19505">
        <ele>624.99</ele>
        <time>2020-04-12T15:51:33Z</time>
      </trkpt>
      <trkpt lat="46.00543" lon="6.19489">
        <ele>623.55</ele>
        <time>2020-04-12T15:51:34Z</time>
      </trkpt>
      <trkpt lat="46.00526" lon="6.19473">
        <ele>622.59</ele>
        <time>2020-04-12T15:51:35Z</time>
      </trkpt>
      <trkpt lat="46.00513" lon="6.19452">
        <ele>621.15</ele>
        <time>2020-04-12T15:51:36Z</time>
      </trkpt>
      <trkpt lat="46.00501" lon="6.19432">
        <ele>620.19</ele>
        <time>2020-04-12T15:51:37Z</time>
      </trkpt>
      <trkpt lat="46.00491" lon="6.19413">
        <ele>618.75</ele>
        <time>2020-04-12T15:51:38Z</time>
      </trkpt>
      <trkpt lat="46.00484" lon="6.19393">
        <ele>617.78</ele>
        <time>2020-04-12T15:51:39Z</time>
      </trkpt>
      <trkpt lat="46.0048" lon="6.19374">
        <ele>616.34</ele>
        <time>2020-04-12T15:51:40Z</time>
      </trkpt>
      <trkpt lat="46.0048" lon="6.19356">
        <ele>615.38</ele>
        <time>2020-04-12T15:51:41Z</time>
      </trkpt>
      <trkpt lat="46.00489" lon="6.19338">
        <ele>614.42</ele>
        <time>2020-04-12T15:51:42Z</time>
      </trkpt>
      <trkpt lat="46.00497" lon="6.1932">
        <ele>613.46</ele>
        <time>2020-04-12T15:51:43Z</time>
      </trkpt>
      <trkpt lat="46.0051" lon="6.19312">
        <ele>612.98</ele>
        <time>2020-04-12T15:51:44Z</time>
      </trkpt>
      <trkpt lat="46.00525" lon="6.19308">
        <ele>612.02</ele>
        <time>2020-04-12T15:51:45Z</time>
      </trkpt>
      <trkpt lat="46.00539" lon="6.19314">
        <ele>611.06</ele>
        <time>2020-04-12T15:51:46Z</time>
      </trkpt>
      <trkpt lat="46.00553" lon="6.19324">
        <ele>610.09</ele>
        <time>2020-04-12T15:51:47Z</time>
      </trkpt>
      <trkpt lat="46.00567" lon="6.19339">
        <ele>609.61</ele>
        <time>2020-04-12T15:51:48Z</time>
      </trkpt>
      <trkpt lat="46.00582" lon="6.19359">
        <ele>608.17</ele>
        <time>2020-04-12T15:51:49Z</time>
      </trkpt>
      <trkpt lat="46.00597" lon="6.19387">
        <ele>607.21</ele>
        <time>2020-04-12T15:51:50Z</time>
      </trkpt>
      <trkpt lat="46.00654" lon="6.19507">
        <ele>601.92</ele>
        <time>2020-04-12T15:51:55Z</time>
      </trkpt>
      <trkpt lat="46.00662" lon="6.19524">
        <ele>601.44</ele>
        <time>2020-04-12T15:51:56Z</time>
      </trkpt>
      <trkpt lat="46.00669" lon="6.19536">
        <ele>600.48</ele>
        <time>2020-04-12T15:51:57Z</time>
      </trkpt>
      <trkpt lat="46.00678" lon="6.19539">
        <ele>600</ele>
        <time>2020-04-12T15:51:58Z</time>
      </trkpt>
      <trkpt lat="46.00686" lon="6.1954">
        <ele>599.52</ele>
        <time>2020-04-12T15:51:59Z</time>
      </trkpt>
      <trkpt lat="46.00692" lon="6.19531">
        <ele>599.04</ele>
        <time>2020-04-12T15:52:00Z</time>
      </trkpt>
      <trkpt lat="46.00693" lon="6.19518">
        <ele>599.04</ele>
        <time>2020-04-12T15:52:01Z</time>
      </trkpt>
      <trkpt lat="46.00694" lon="6.19503">
        <ele>599.04</ele>
        <time>2020-04-12T15:52:02Z</time>
      </trkpt>
      <trkpt lat="46.00687" lon="6.19487">
        <ele>598.56</ele>
        <time>2020-04-12T15:52:03Z</time>
      </trkpt>
      <trkpt lat="46.00679" lon="6.19466">
        <ele>597.6</ele>
        <time>2020-04-12T15:52:04Z</time>
      </trkpt>
      <trkpt lat="46.00669" lon="6.19442">
        <ele>597.12</ele>
        <time>2020-04-12T15:52:05Z</time>
      </trkpt>
      <trkpt lat="46.00614" lon="6.19284">
        <ele>592.31</ele>
        <time>2020-04-12T15:52:10Z</time>
      </trkpt>
      <trkpt lat="46.00521" lon="6.19045">
        <ele>579.81</ele>
        <time>2020-04-12T15:52:17Z</time>
      </trkpt>
      <trkpt lat="46.00449" lon="6.18927">
        <ele>571.64</ele>
        <time>2020-04-12T15:52:22Z</time>
      </trkpt>
      <trkpt lat="46.00409" lon="6.18869">
        <ele>566.83</ele>
        <time>2020-04-12T15:52:26Z</time>
      </trkpt>
      <trkpt lat="46.00404" lon="6.18856">
        <ele>565.39</ele>
        <time>2020-04-12T15:52:27Z</time>
      </trkpt>
      <trkpt lat="46.00401" lon="6.18845">
        <ele>564.43</ele>
        <time>2020-04-12T15:52:28Z</time>
      </trkpt>
      <trkpt lat="46.00404" lon="6.18833">
        <ele>563.47</ele>
        <time>2020-04-12T15:52:29Z</time>
      </trkpt>
      <trkpt lat="46.00411" lon="6.18826">
        <ele>562.51</ele>
        <time>2020-04-12T15:52:30Z</time>
      </trkpt>
      <trkpt lat="46.00419" lon="6.18821">
        <ele>562.03</ele>
        <time>2020-04-12T15:52:31Z</time>
      </trkpt>
      <trkpt lat="46.00429" lon="6.1882">
        <ele>561.55</ele>
        <time>2020-04-12T15:52:32Z</time>
      </trkpt>
      <trkpt lat="46.00439" lon="6.18831">
        <ele>561.07</ele>
        <time>2020-04-12T15:52:33Z</time>
      </trkpt>
      <trkpt lat="46.00444" lon="6.18845">
        <ele>561.07</ele>
        <time>2020-04-12T15:52:34Z</time>
      </trkpt>
      <trkpt lat="46.00449" lon="6.18858">
        <ele>560.59</ele>
        <time>2020-04-12T15:52:35Z</time>
      </trkpt>
      <trkpt lat="46.0045" lon="6.18886">
        <ele>560.11</ele>
        <time>2020-04-12T15:52:36Z</time>
      </trkpt>
      <trkpt lat="46.00439" lon="6.18897">
        <ele>559.14</ele>
        <time>2020-04-12T15:52:37Z</time>
      </trkpt>
      <trkpt lat="46.00433" lon="6.18906">
        <ele>558.18</ele>
        <time>2020-04-12T15:52:38Z</time>
      </trkpt>
      <trkpt lat="46.00422" lon="6.18921">
        <ele>556.74</ele>
        <time>2020-04-12T15:52:39Z</time>
      </trkpt>
      <trkpt lat="46.00411" lon="6.18938">
        <ele>555.78</ele>
        <time>2020-04-12T15:52:40Z</time>
      </trkpt>
      <trkpt lat="46.004" lon="6.18958">
        <ele>554.82</ele>
        <time>2020-04-12T15:52:41Z</time>
      </trkpt>
      <trkpt lat="46.00395" lon="6.18983">
        <ele>554.82</ele>
        <time>2020-04-12T15:52:42Z</time>
      </trkpt>
      <trkpt lat="46.00389" lon="6.1901">
        <ele>555.3</ele>
        <time>2020-04-12T15:52:43Z</time>
      </trkpt>
      <trkpt lat="46.00346" lon="6.19216">
        <ele>561.07</ele>
        <time>2020-04-12T15:52:49Z</time>
      </trkpt>
      <trkpt lat="46.00291" lon="6.19505">
        <ele>564.91</ele>
        <time>2020-04-12T15:52:57Z</time>
      </trkpt>
      <trkpt lat="46.00279" lon="6.19784">
        <ele>566.83</ele>
        <time>2020-04-12T15:53:05Z</time>
      </trkpt>
      <trkpt lat="46.00271" lon="6.19814">
        <ele>566.83</ele>
        <time>2020-04-12T15:53:06Z</time>
      </trkpt>
      <trkpt lat="46.00261" lon="6.19841">
        <ele>566.83</ele>
        <time>2020-04-12T15:53:07Z</time>
      </trkpt>
      <trkpt lat="46.00212" lon="6.19972">
        <ele>569.24</ele>
        <time>2020-04-12T15:53:13Z</time>
      </trkpt>
      <trkpt lat="46.00206" lon="6.19988">
        <ele>569.72</ele>
        <time>2020-04-12T15:53:14Z</time>
      </trkpt>
      <trkpt lat="46.00195" lon="6.20017">
        <ele>570.68</ele>
        <time>2020-04-12T15:53:17Z</time>
      </trkpt>
      <trkpt lat="46.00193" lon="6.20022">
        <ele>571.16</ele>
        <time>2020-04-12T15:53:18Z</time>
      </trkpt>
      <trkpt lat="46.00186" lon="6.20012">
        <ele>571.64</ele>
        <time>2020-04-12T15:53:21Z</time>
      </trkpt>
      <trkpt lat="46.00188" lon="6.19997">
        <ele>571.64</ele>
        <time>2020-04-12T15:53:26Z</time>
      </trkpt>
      <trkpt lat="46.00183" lon="6.19995">
        <ele>572.12</ele>
        <time>2020-04-12T15:53:37Z</time>
      </trkpt>
      <trkpt lat="46.00183" lon="6.19995">
        <ele>572.12</ele>
        <time>2020-04-12T15:53:39Z</time>
      </trkpt>
      <trkpt lat="46.00181" lon="6.19997">
        <ele>572.12</ele>
        <time>2020-04-12T15:53:52Z</time>
      </trkpt>
      <trkpt lat="46.00181" lon="6.19997">
        <ele>572.12</ele>
        <time>2020-04-12T15:54:22Z</time>
      </trkpt>
    </trkseg>
  </trk>
  <trk>
    <name><![CDATA[Journal actif: 2020-04-15 10:30]]></name>
    <trkseg>
      <trkpt lat="46.00199" lon="6.20006">
        <ele>566.35</ele>
        <time>2020-04-15T08:30:15Z</time>
      </trkpt>
      <trkpt lat="46.00198" lon="6.20009">
        <ele>567.32</ele>
        <time>2020-04-15T08:30:16Z</time>
      </trkpt>
      <trkpt lat="46.00197" lon="6.20013">
        <ele>567.32</ele>
        <time>2020-04-15T08:30:17Z</time>
      </trkpt>
      <trkpt lat="46.00195" lon="6.20017">
        <ele>568.76</ele>
        <time>2020-04-15T08:30:18Z</time>
      </trkpt>
      <trkpt lat="46.00193" lon="6.20022">
        <ele>570.68</ele>
        <time>2020-04-15T08:30:19Z</time>
      </trkpt>
      <trkpt lat="46.00192" lon="6.20026">
        <ele>571.16</ele>
        <time>2020-04-15T08:30:20Z</time>
      </trkpt>
      <trkpt lat="46.00191" lon="6.20028">
        <ele>573.08</ele>
        <time>2020-04-15T08:30:21Z</time>
      </trkpt>
      <trkpt lat="46.00191" lon="6.20026">
        <ele>574.04</ele>
        <time>2020-04-15T08:30:22Z</time>
      </trkpt>
      <trkpt lat="46.00194" lon="6.20019">
        <ele>572.6</ele>
        <time>2020-04-15T08:30:26Z</time>
      </trkpt>
      <trkpt lat="46.00197" lon="6.20011">
        <ele>572.6</ele>
        <time>2020-04-15T08:30:27Z</time>
      </trkpt>
      <trkpt lat="46.00203" lon="6.19996">
        <ele>572.12</ele>
        <time>2020-04-15T08:30:28Z</time>
      </trkpt>
      <trkpt lat="46.00238" lon="6.19904">
        <ele>571.16</ele>
        <time>2020-04-15T08:30:34Z</time>
      </trkpt>
      <trkpt lat="46.00278" lon="6.19795">
        <ele>568.28</ele>
        <time>2020-04-15T08:30:39Z</time>
      </trkpt>
      <trkpt lat="46.00281" lon="6.19772">
        <ele>567.8</ele>
        <time>2020-04-15T08:30:40Z</time>
      </trkpt>
      <trkpt lat="46.00283" lon="6.19747">
        <ele>567.8</ele>
        <time>2020-04-15T08:30:41Z</time>
      </trkpt>
      <trkpt lat="46.00286" lon="6.19721">
        <ele>567.8</ele>
        <time>2020-04-15T08:30:42Z</time>
      </trkpt>
      <trkpt lat="46.00287" lon="6.19694">
        <ele>567.8</ele>
        <time>2020-04-15T08:30:43Z</time>
      </trkpt>
      <trkpt lat="46.00297" lon="6.19469">
        <ele>566.83</ele>
        <time>2020-04-15T08:30:51Z</time>
      </trkpt>
      <trkpt lat="46.00303" lon="6.1944">
        <ele>566.83</ele>
        <time>2020-04-15T08:30:52Z</time>
      </trkpt>
      <trkpt lat="46.00377" lon="6.19064">
        <ele>564.91</ele>
        <time>2020-04-15T08:31:06Z</time>
      </trkpt>
      <trkpt lat="46.00398" lon="6.18969">
        <ele>559.62</ele>
        <time>2020-04-15T08:31:12Z</time>
      </trkpt>
      <trkpt lat="46.00399" lon="6.1896">
        <ele>559.14</ele>
        <time>2020-04-15T08:31:13Z</time>
      </trkpt>
      <trkpt lat="46.00401" lon="6.18955">
        <ele>558.18</ele>
        <time>2020-04-15T08:31:14Z</time>
      </trkpt>
      <trkpt lat="46.00397" lon="6.18953">
        <ele>557.7</ele>
        <time>2020-04-15T08:31:15Z</time>
      </trkpt>
      <trkpt lat="46.00393" lon="6.18951">
        <ele>557.22</ele>
        <time>2020-04-15T08:31:16Z</time>
      </trkpt>
      <trkpt lat="46.00388" lon="6.18948">
        <ele>556.74</ele>
        <time>2020-04-15T08:31:17Z</time>
      </trkpt>
      <trkpt lat="46.00382" lon="6.18944">
        <ele>556.26</ele>
        <time>2020-04-15T08:31:18Z</time>
      </trkpt>
      <trkpt lat="46.00374" lon="6.18938">
        <ele>555.78</ele>
        <time>2020-04-15T08:31:19Z</time>
      </trkpt>
      <trkpt lat="46.00367" lon="6.1893">
        <ele>556.26</ele>
        <time>2020-04-15T08:31:20Z</time>
      </trkpt>
      <trkpt lat="46.00361" lon="6.1892">
        <ele>556.26</ele>
        <time>2020-04-15T08:31:21Z</time>
      </trkpt>
      <trkpt lat="46.00358" lon="6.18909">
        <ele>556.74</ele>
        <time>2020-04-15T08:31:22Z</time>
      </trkpt>
      <trkpt lat="46.0036" lon="6.18895">
        <ele>557.22</ele>
        <time>2020-04-15T08:31:23Z</time>
      </trkpt>
      <trkpt lat="46.00366" lon="6.18884">
        <ele>557.7</ele>
        <time>2020-04-15T08:31:24Z</time>
      </trkpt>
      <trkpt lat="46.00374" lon="6.1888">
        <ele>557.7</ele>
        <time>2020-04-15T08:31:25Z</time>
      </trkpt>
      <trkpt lat="46.00381" lon="6.18876">
        <ele>557.7</ele>
        <time>2020-04-15T08:31:26Z</time>
      </trkpt>
      <trkpt lat="46.00389" lon="6.1888">
        <ele>557.7</ele>
        <time>2020-04-15T08:31:27Z</time>
      </trkpt>
      <trkpt lat="46.00398" lon="6.18884">
        <ele>558.18</ele>
        <time>2020-04-15T08:31:28Z</time>
      </trkpt>
      <trkpt lat="46.00409" lon="6.1889">
        <ele>559.14</ele>
        <time>2020-04-15T08:31:29Z</time>
      </trkpt>
      <trkpt lat="46.00422" lon="6.18897">
        <ele>559.62</ele>
        <time>2020-04-15T08:31:30Z</time>
      </trkpt>
      <trkpt lat="46.00499" lon="6.18999">
        <ele>564.43</ele>
        <time>2020-04-15T08:31:35Z</time>
      </trkpt>
      <trkpt lat="46.00583" lon="6.19195">
        <ele>574.04</ele>
        <time>2020-04-15T08:31:41Z</time>
      </trkpt>
      <trkpt lat="46.00648" lon="6.19384">
        <ele>586.54</ele>
        <time>2020-04-15T08:31:47Z</time>
      </trkpt>
      <trkpt lat="46.00689" lon="6.19491">
        <ele>594.23</ele>
        <time>2020-04-15T08:31:53Z</time>
      </trkpt>
      <trkpt lat="46.00693" lon="6.19502">
        <ele>595.19</ele>
        <time>2020-04-15T08:31:54Z</time>
      </trkpt>
      <trkpt lat="46.00694" lon="6.19514">
        <ele>595.67</ele>
        <time>2020-04-15T08:31:55Z</time>
      </trkpt>
      <trkpt lat="46.00692" lon="6.1953">
        <ele>596.15</ele>
        <time>2020-04-15T08:31:56Z</time>
      </trkpt>
      <trkpt lat="46.00685" lon="6.1954">
        <ele>596.64</ele>
        <time>2020-04-15T08:31:57Z</time>
      </trkpt>
      <trkpt lat="46.00676" lon="6.19539">
        <ele>597.12</ele>
        <time>2020-04-15T08:31:58Z</time>
      </trkpt>
      <trkpt lat="46.0067" lon="6.19536">
        <ele>597.6</ele>
        <time>2020-04-15T08:31:59Z</time>
      </trkpt>
      <trkpt lat="46.00662" lon="6.19525">
        <ele>598.56</ele>
        <time>2020-04-15T08:32:00Z</time>
      </trkpt>
      <trkpt lat="46.00656" lon="6.19512">
        <ele>599.04</ele>
        <time>2020-04-15T08:32:01Z</time>
      </trkpt>
      <trkpt lat="46.00649" lon="6.19496">
        <ele>599.52</ele>
        <time>2020-04-15T08:32:02Z</time>
      </trkpt>
      <trkpt lat="46.00596" lon="6.19384">
        <ele>603.85</ele>
        <time>2020-04-15T08:32:07Z</time>
      </trkpt>
      <trkpt lat="46.0056" lon="6.19329">
        <ele>606.25</ele>
        <time>2020-04-15T08:32:10Z</time>
      </trkpt>
      <trkpt lat="46.00547" lon="6.19319">
        <ele>607.21</ele>
        <time>2020-04-15T08:32:11Z</time>
      </trkpt>
      <trkpt lat="46.00534" lon="6.19309">
        <ele>608.17</ele>
        <time>2020-04-15T08:32:12Z</time>
      </trkpt>
      <trkpt lat="46.00522" lon="6.19308">
        <ele>609.61</ele>
        <time>2020-04-15T08:32:13Z</time>
      </trkpt>
      <trkpt lat="46.00511" lon="6.19311">
        <ele>611.06</ele>
        <time>2020-04-15T08:32:14Z</time>
      </trkpt>
      <trkpt lat="46.005" lon="6.19318">
        <ele>612.02</ele>
        <time>2020-04-15T08:32:15Z</time>
      </trkpt>
      <trkpt lat="46.00493" lon="6.19329">
        <ele>612.98</ele>
        <time>2020-04-15T08:32:16Z</time>
      </trkpt>
      <trkpt lat="46.00486" lon="6.19344">
        <ele>613.46</ele>
        <time>2020-04-15T08:32:17Z</time>
      </trkpt>
      <trkpt lat="46.0048" lon="6.19359">
        <ele>614.42</ele>
        <time>2020-04-15T08:32:18Z</time>
      </trkpt>
      <trkpt lat="46.0048" lon="6.19378">
        <ele>614.9</ele>
        <time>2020-04-15T08:32:19Z</time>
      </trkpt>
      <trkpt lat="46.00485" lon="6.19395">
        <ele>615.38</ele>
        <time>2020-04-15T08:32:20Z</time>
      </trkpt>
      <trkpt lat="46.00492" lon="6.19414">
        <ele>615.86</ele>
        <time>2020-04-15T08:32:21Z</time>
      </trkpt>
      <trkpt lat="46.00501" lon="6.19433">
        <ele>616.82</ele>
        <time>2020-04-15T08:32:22Z</time>
      </trkpt>
      <trkpt lat="46.00513" lon="6.19452">
        <ele>617.3</ele>
        <time>2020-04-15T08:32:23Z</time>
      </trkpt>
      <trkpt lat="46.00525" lon="6.19472">
        <ele>618.75</ele>
        <time>2020-04-15T08:32:24Z</time>
      </trkpt>
      <trkpt lat="46.00542" lon="6.19488">
        <ele>619.71</ele>
        <time>2020-04-15T08:32:25Z</time>
      </trkpt>
      <trkpt lat="46.0056" lon="6.19505">
        <ele>620.67</ele>
        <time>2020-04-15T08:32:26Z</time>
      </trkpt>
      <trkpt lat="46.00578" lon="6.19522">
        <ele>622.11</ele>
        <time>2020-04-15T08:32:27Z</time>
      </trkpt>
      <trkpt lat="46.00595" lon="6.19543">
        <ele>623.07</ele>
        <time>2020-04-15T08:32:28Z</time>
      </trkpt>
      <trkpt lat="46.0061" lon="6.19566">
        <ele>624.51</ele>
        <time>2020-04-15T08:32:29Z</time>
      </trkpt>
      <trkpt lat="46.00621" lon="6.19594">
        <ele>625.47</ele>
        <time>2020-04-15T08:32:30Z</time>
      </trkpt>
      <trkpt lat="46.00633" lon="6.19624">
        <ele>626.92</ele>
        <time>2020-04-15T08:32:31Z</time>
      </trkpt>
      <trkpt lat="46.00704" lon="6.19828">
        <ele>635.57</ele>
        <time>2020-04-15T08:32:37Z</time>
      </trkpt>
      <trkpt lat="46.00761" lon="6.20103">
        <ele>645.66</ele>
        <time>2020-04-15T08:32:45Z</time>
      </trkpt>
      <trkpt lat="46.00836" lon="6.20382">
        <ele>656.24</ele>
        <time>2020-04-15T08:32:55Z</time>
      </trkpt>
      <trkpt lat="46.00871" lon="6.205">
        <ele>658.64</ele>
        <time>2020-04-15T08:33:00Z</time>
      </trkpt>
      <trkpt lat="46.00879" lon="6.20523">
        <ele>659.6</ele>
        <time>2020-04-15T08:33:01Z</time>
      </trkpt>
      <trkpt lat="46.0089" lon="6.20543">
        <ele>660.08</ele>
        <time>2020-04-15T08:33:02Z</time>
      </trkpt>
      <trkpt lat="46.00903" lon="6.20562">
        <ele>660.56</ele>
        <time>2020-04-15T08:33:03Z</time>
      </trkpt>
      <trkpt lat="46.00918" lon="6.20581">
        <ele>661.04</ele>
        <time>2020-04-15T08:33:04Z</time>
      </trkpt>
      <trkpt lat="46.01061" lon="6.2075">
        <ele>661.52</ele>
        <time>2020-04-15T08:33:12Z</time>
      </trkpt>
      <trkpt lat="46.01278" lon="6.21013">
        <ele>664.89</ele>
        <time>2020-04-15T08:33:23Z</time>
      </trkpt>
      <trkpt lat="46.01406" lon="6.21199">
        <ele>669.7</ele>
        <time>2020-04-15T08:33:30Z</time>
      </trkpt>
      <trkpt lat="46.01444" lon="6.21247">
        <ele>670.66</ele>
        <time>2020-04-15T08:33:32Z</time>
      </trkpt>
      <trkpt lat="46.01464" lon="6.21269">
        <ele>671.62</ele>
        <time>2020-04-15T08:33:33Z</time>
      </trkpt>
      <trkpt lat="46.01655" lon="6.21461">
        <ele>675.94</ele>
        <time>2020-04-15T08:33:42Z</time>
      </trkpt>
      <trkpt lat="46.01706" lon="6.2153">
        <ele>676.91</ele>
        <time>2020-04-15T08:33:45Z</time>
      </trkpt>
      <trkpt lat="46.0172" lon="6.21558">
        <ele>677.39</ele>
        <time>2020-04-15T08:33:46Z</time>
      </trkpt>
      <trkpt lat="46.01733" lon="6.21587">
        <ele>677.87</ele>
        <time>2020-04-15T08:33:47Z</time>
      </trkpt>
      <trkpt lat="46.01849" lon="6.21873">
        <ele>679.31</ele>
        <time>2020-04-15T08:33:56Z</time>
      </trkpt>
      <trkpt lat="46.01928" lon="6.22153">
        <ele>683.15</ele>
        <time>2020-04-15T08:34:04Z</time>
      </trkpt>
      <trkpt lat="46.01986" lon="6.22526">
        <ele>688.92</ele>
        <time>2020-04-15T08:34:14Z</time>
      </trkpt>
      <trkpt lat="46.02037" lon="6.22875">
        <ele>698.05</ele>
        <time>2020-04-15T08:34:24Z</time>
      </trkpt>
      <trkpt lat="46.02042" lon="6.22906">
        <ele>699.02</ele>
        <time>2020-04-15T08:34:25Z</time>
      </trkpt>
      <trkpt lat="46.0205" lon="6.22936">
        <ele>699.98</ele>
        <time>2020-04-15T08:34:26Z</time>
      </trkpt>
      <trkpt lat="46.02059" lon="6.22965">
        <ele>700.46</ele>
        <time>2020-04-15T08:34:27Z</time>
      </trkpt>
      <trkpt lat="46.02069" lon="6.2299">
        <ele>701.42</ele>
        <time>2020-04-15T08:34:28Z</time>
      </trkpt>
      <trkpt lat="46.02081" lon="6.23012">
        <ele>701.9</ele>
        <time>2020-04-15T08:34:29Z</time>
      </trkpt>
      <trkpt lat="46.02094" lon="6.23031">
        <ele>702.38</ele>
        <time>2020-04-15T08:34:30Z</time>
      </trkpt>
      <trkpt lat="46.02109" lon="6.23049">
        <ele>702.86</ele>
        <time>2020-04-15T08:34:31Z</time>
      </trkpt>
      <trkpt lat="46.02122" lon="6.23066">
        <ele>703.34</ele>
        <time>2020-04-15T08:34:32Z</time>
      </trkpt>
      <trkpt lat="46.02135" lon="6.23083">
        <ele>703.34</ele>
        <time>2020-04-15T08:34:33Z</time>
      </trkpt>
      <trkpt lat="46.02146" lon="6.231">
        <ele>703.82</ele>
        <time>2020-04-15T08:34:34Z</time>
      </trkpt>
      <trkpt lat="46.02157" lon="6.23116">
        <ele>704.3</ele>
        <time>2020-04-15T08:34:35Z</time>
      </trkpt>
      <trkpt lat="46.02227" lon="6.23254">
        <ele>708.15</ele>
        <time>2020-04-15T08:34:44Z</time>
      </trkpt>
      <trkpt lat="46.02277" lon="6.23356">
        <ele>709.59</ele>
        <time>2020-04-15T08:34:50Z</time>
      </trkpt>
      <trkpt lat="46.02288" lon="6.23373">
        <ele>710.07</ele>
        <time>2020-04-15T08:34:51Z</time>
      </trkpt>
      <trkpt lat="46.023" lon="6.23386">
        <ele>710.55</ele>
        <time>2020-04-15T08:34:52Z</time>
      </trkpt>
      <trkpt lat="46.02315" lon="6.23399">
        <ele>711.03</ele>
        <time>2020-04-15T08:34:53Z</time>
      </trkpt>
      <trkpt lat="46.02329" lon="6.23412">
        <ele>712.47</ele>
        <time>2020-04-15T08:34:54Z</time>
      </trkpt>
      <trkpt lat="46.02407" lon="6.23486">
        <ele>717.28</ele>
        <time>2020-04-15T08:34:59Z</time>
      </trkpt>
      <trkpt lat="46.0242" lon="6.23507">
        <ele>717.76</ele>
        <time>2020-04-15T08:35:00Z</time>
      </trkpt>
      <trkpt lat="46.02432" lon="6.23529">
        <ele>718.24</ele>
        <time>2020-04-15T08:35:01Z</time>
      </trkpt>
      <trkpt lat="46.02442" lon="6.23553">
        <ele>718.72</ele>
        <time>2020-04-15T08:35:02Z</time>
      </trkpt>
      <trkpt lat="46.02453" lon="6.23577">
        <ele>719.2</ele>
        <time>2020-04-15T08:35:03Z</time>
      </trkpt>
      <trkpt lat="46.02538" lon="6.2371">
        <ele>724.01</ele>
        <time>2020-04-15T08:35:09Z</time>
      </trkpt>
      <trkpt lat="46.02557" lon="6.23726">
        <ele>724.97</ele>
        <time>2020-04-15T08:35:10Z</time>
      </trkpt>
      <trkpt lat="46.02577" lon="6.23737">
        <ele>725.93</ele>
        <time>2020-04-15T08:35:11Z</time>
      </trkpt>
      <trkpt lat="46.02599" lon="6.23747">
        <ele>726.89</ele>
        <time>2020-04-15T08:35:12Z</time>
      </trkpt>
      <trkpt lat="46.02622" lon="6.23754">
        <ele>728.34</ele>
        <time>2020-04-15T08:35:13Z</time>
      </trkpt>
      <trkpt lat="46.02646" lon="6.2376">
        <ele>729.3</ele>
        <time>2020-04-15T08:35:14Z</time>
      </trkpt>
      <trkpt lat="46.02867" lon="6.23804">
        <ele>737.47</ele>
        <time>2020-04-15T08:35:22Z</time>
      </trkpt>
      <trkpt lat="46.03028" lon="6.23885">
        <ele>741.31</ele>
        <time>2020-04-15T08:35:28Z</time>
      </trkpt>
      <trkpt lat="46.03052" lon="6.23904">
        <ele>741.79</ele>
        <time>2020-04-15T08:35:29Z</time>
      </trkpt>
      <trkpt lat="46.03074" lon="6.23929">
        <ele>742.28</ele>
        <time>2020-04-15T08:35:30Z</time>
      </trkpt>
      <trkpt lat="46.03231" lon="6.24108">
        <ele>744.68</ele>
        <time>2020-04-15T08:35:38Z</time>
      </trkpt>
      <trkpt lat="46.03305" lon="6.24225">
        <ele>747.08</ele>
        <time>2020-04-15T08:35:44Z</time>
      </trkpt>
      <trkpt lat="46.03318" lon="6.24239">
        <ele>747.56</ele>
        <time>2020-04-15T08:35:45Z</time>
      </trkpt>
      <trkpt lat="46.03332" lon="6.2425">
        <ele>747.56</ele>
        <time>2020-04-15T08:35:46Z</time>
      </trkpt>
      <trkpt lat="46.03346" lon="6.2426">
        <ele>747.56</ele>
        <time>2020-04-15T08:35:47Z</time>
      </trkpt>
      <trkpt lat="46.03362" lon="6.24267">
        <ele>748.04</ele>
        <time>2020-04-15T08:35:48Z</time>
      </trkpt>
      <trkpt lat="46.03378" lon="6.24272">
        <ele>748.52</ele>
        <time>2020-04-15T08:35:49Z</time>
      </trkpt>
      <trkpt lat="46.03394" lon="6.24269">
        <ele>749</ele>
        <time>2020-04-15T08:35:50Z</time>
      </trkpt>
      <trkpt lat="46.0341" lon="6.24266">
        <ele>749.49</ele>
        <time>2020-04-15T08:35:51Z</time>
      </trkpt>
      <trkpt lat="46.03426" lon="6.24257">
        <ele>749.97</ele>
        <time>2020-04-15T08:35:52Z</time>
      </trkpt>
      <trkpt lat="46.03441" lon="6.24247">
        <ele>750.45</ele>
        <time>2020-04-15T08:35:53Z</time>
      </trkpt>
      <trkpt lat="46.03451" lon="6.24231">
        <ele>750.93</ele>
        <time>2020-04-15T08:35:54Z</time>
      </trkpt>
      <trkpt lat="46.03462" lon="6.24214">
        <ele>751.89</ele>
        <time>2020-04-15T08:35:55Z</time>
      </trkpt>
      <trkpt lat="46.03473" lon="6.24197">
        <ele>752.85</ele>
        <time>2020-04-15T08:35:56Z</time>
      </trkpt>
      <trkpt lat="46.03485" lon="6.24179">
        <ele>753.81</ele>
        <time>2020-04-15T08:35:57Z</time>
      </trkpt>
      <trkpt lat="46.0352" lon="6.24119">
        <ele>756.21</ele>
        <time>2020-04-15T08:36:00Z</time>
      </trkpt>
      <trkpt lat="46.03534" lon="6.24101">
        <ele>757.18</ele>
        <time>2020-04-15T08:36:01Z</time>
      </trkpt>
      <trkpt lat="46.0355" lon="6.24087">
        <ele>758.14</ele>
        <time>2020-04-15T08:36:02Z</time>
      </trkpt>
      <trkpt lat="46.03569" lon="6.24079">
        <ele>759.58</ele>
        <time>2020-04-15T08:36:03Z</time>
      </trkpt>
      <trkpt lat="46.03587" lon="6.24073">
        <ele>760.54</ele>
        <time>2020-04-15T08:36:04Z</time>
      </trkpt>
      <trkpt lat="46.03607" lon="6.24072">
        <ele>761.5</ele>
        <time>2020-04-15T08:36:05Z</time>
      </trkpt>
      <trkpt lat="46.03626" lon="6.24074">
        <ele>762.46</ele>
        <time>2020-04-15T08:36:06Z</time>
      </trkpt>
      <trkpt lat="46.03646" lon="6.24078">
        <ele>762.94</ele>
        <time>2020-04-15T08:36:07Z</time>
      </trkpt>
      <trkpt lat="46.03664" lon="6.24088">
        <ele>763.9</ele>
        <time>2020-04-15T08:36:08Z</time>
      </trkpt>
      <trkpt lat="46.03681" lon="6.24104">
        <ele>764.87</ele>
        <time>2020-04-15T08:36:09Z</time>
      </trkpt>
      <trkpt lat="46.03697" lon="6.24119">
        <ele>765.83</ele>
        <time>2020-04-15T08:36:10Z</time>
      </trkpt>
      <trkpt lat="46.03712" lon="6.24137">
        <ele>767.27</ele>
        <time>2020-04-15T08:36:11Z</time>
      </trkpt>
      <trkpt lat="46.03725" lon="6.24156">
        <ele>768.23</ele>
        <time>2020-04-15T08:36:12Z</time>
      </trkpt>
      <trkpt lat="46.03738" lon="6.24175">
        <ele>769.67</ele>
        <time>2020-04-15T08:36:13Z</time>
      </trkpt>
      <trkpt lat="46.0375" lon="6.24194">
        <ele>770.63</ele>
        <time>2020-04-15T08:36:14Z</time>
      </trkpt>
      <trkpt lat="46.03761" lon="6.24212">
        <ele>772.08</ele>
        <time>2020-04-15T08:36:15Z</time>
      </trkpt>
      <trkpt lat="46.03769" lon="6.24232">
        <ele>773.04</ele>
        <time>2020-04-15T08:36:16Z</time>
      </trkpt>
      <trkpt lat="46.03776" lon="6.24253">
        <ele>774.48</ele>
        <time>2020-04-15T08:36:17Z</time>
      </trkpt>
      <trkpt lat="46.03783" lon="6.24273">
        <ele>774.96</ele>
        <time>2020-04-15T08:36:18Z</time>
      </trkpt>
      <trkpt lat="46.0379" lon="6.24293">
        <ele>775.92</ele>
        <time>2020-04-15T08:36:19Z</time>
      </trkpt>
      <trkpt lat="46.03831" lon="6.24482">
        <ele>784.09</ele>
        <time>2020-04-15T08:36:28Z</time>
      </trkpt>
      <trkpt lat="46.03883" lon="6.24615">
        <ele>789.38</ele>
        <time>2020-04-15T08:36:35Z</time>
      </trkpt>
      <trkpt lat="46.03925" lon="6.24662">
        <ele>791.3</ele>
        <time>2020-04-15T08:36:38Z</time>
      </trkpt>
      <trkpt lat="46.0394" lon="6.24675">
        <ele>791.78</ele>
        <time>2020-04-15T08:36:39Z</time>
      </trkpt>
      <trkpt lat="46.03956" lon="6.24685">
        <ele>792.26</ele>
        <time>2020-04-15T08:36:40Z</time>
      </trkpt>
      <trkpt lat="46.03972" lon="6.24695">
        <ele>792.26</ele>
        <time>2020-04-15T08:36:41Z</time>
      </trkpt>
      <trkpt lat="46.03988" lon="6.24702">
        <ele>792.26</ele>
        <time>2020-04-15T08:36:42Z</time>
      </trkpt>
      <trkpt lat="46.04004" lon="6.24707">
        <ele>792.26</ele>
        <time>2020-04-15T08:36:43Z</time>
      </trkpt>
      <trkpt lat="46.04131" lon="6.24774">
        <ele>788.9</ele>
        <time>2020-04-15T08:36:51Z</time>
      </trkpt>
      <trkpt lat="46.04239" lon="6.24915">
        <ele>785.05</ele>
        <time>2020-04-15T08:36:59Z</time>
      </trkpt>
      <trkpt lat="46.04353" lon="6.25104">
        <ele>791.3</ele>
        <time>2020-04-15T08:37:09Z</time>
      </trkpt>
      <trkpt lat="46.04395" lon="6.25268">
        <ele>798.03</ele>
        <time>2020-04-15T08:37:16Z</time>
      </trkpt>
      <trkpt lat="46.04431" lon="6.25421">
        <ele>799.47</ele>
        <time>2020-04-15T08:37:20Z</time>
      </trkpt>
      <trkpt lat="46.04477" lon="6.25556">
        <ele>800.92</ele>
        <time>2020-04-15T08:37:25Z</time>
      </trkpt>
      <trkpt lat="46.04587" lon="6.25789">
        <ele>800.92</ele>
        <time>2020-04-15T08:37:36Z</time>
      </trkpt>
      <trkpt lat="46.04728" lon="6.26078">
        <ele>798.03</ele>
        <time>2020-04-15T08:37:49Z</time>
      </trkpt>
      <trkpt lat="46.04854" lon="6.26332">
        <ele>789.38</ele>
        <time>2020-04-15T08:38:01Z</time>
      </trkpt>
      <trkpt lat="46.04947" lon="6.26445">
        <ele>783.61</ele>
        <time>2020-04-15T08:38:08Z</time>
      </trkpt>
      <trkpt lat="46.05084" lon="6.26583">
        <ele>774.96</ele>
        <time>2020-04-15T08:38:17Z</time>
      </trkpt>
      <trkpt lat="46.05141" lon="6.2674">
        <ele>769.67</ele>
        <time>2020-04-15T08:38:24Z</time>
      </trkpt>
      <trkpt lat="46.05144" lon="6.26916">
        <ele>766.31</ele>
        <time>2020-04-15T08:38:31Z</time>
      </trkpt>
      <trkpt lat="46.05124" lon="6.27212">
        <ele>762.94</ele>
        <time>2020-04-15T08:38:42Z</time>
      </trkpt>
      <trkpt lat="46.05132" lon="6.27357">
        <ele>759.1</ele>
        <time>2020-04-15T08:38:46Z</time>
      </trkpt>
      <trkpt lat="46.05177" lon="6.27608">
        <ele>753.81</ele>
        <time>2020-04-15T08:38:52Z</time>
      </trkpt>
      <trkpt lat="46.05264" lon="6.27882">
        <ele>748.52</ele>
        <time>2020-04-15T08:39:00Z</time>
      </trkpt>
      <trkpt lat="46.05358" lon="6.2815">
        <ele>744.68</ele>
        <time>2020-04-15T08:39:10Z</time>
      </trkpt>
      <trkpt lat="46.05414" lon="6.28309">
        <ele>740.83</ele>
        <time>2020-04-15T08:39:18Z</time>
      </trkpt>
      <trkpt lat="46.05452" lon="6.28415">
        <ele>737.47</ele>
        <time>2020-04-15T08:39:26Z</time>
      </trkpt>
      <trkpt lat="46.05491" lon="6.28528">
        <ele>735.55</ele>
        <time>2020-04-15T08:39:30Z</time>
      </trkpt>
      <trkpt lat="46.05556" lon="6.28715">
        <ele>731.22</ele>
        <time>2020-04-15T08:39:36Z</time>
      </trkpt>
      <trkpt lat="46.0564" lon="6.28904">
        <ele>722.57</ele>
        <time>2020-04-15T08:39:44Z</time>
      </trkpt>
      <trkpt lat="46.0574" lon="6.28991">
        <ele>716.8</ele>
        <time>2020-04-15T08:39:50Z</time>
      </trkpt>
      <trkpt lat="46.0586" lon="6.29005">
        <ele>711.03</ele>
        <time>2020-04-15T08:39:56Z</time>
      </trkpt>
      <trkpt lat="46.06043" lon="6.28951">
        <ele>700.94</ele>
        <time>2020-04-15T08:40:05Z</time>
      </trkpt>
      <trkpt lat="46.06247" lon="6.28882">
        <ele>689.88</ele>
        <time>2020-04-15T08:40:14Z</time>
      </trkpt>
      <trkpt lat="46.06369" lon="6.28848">
        <ele>681.71</ele>
        <time>2020-04-15T08:40:20Z</time>
      </trkpt>
      <trkpt lat="46.06412" lon="6.28839">
        <ele>677.39</ele>
        <time>2020-04-15T08:40:23Z</time>
      </trkpt>
      <trkpt lat="46.06423" lon="6.28837">
        <ele>676.42</ele>
        <time>2020-04-15T08:40:24Z</time>
      </trkpt>
      <trkpt lat="46.0644" lon="6.28859">
        <ele>674.5</ele>
        <time>2020-04-15T08:40:26Z</time>
      </trkpt>
      <trkpt lat="46.06453" lon="6.28852">
        <ele>674.02</ele>
        <time>2020-04-15T08:40:27Z</time>
      </trkpt>
      <trkpt lat="46.06456" lon="6.28849">
        <ele>673.54</ele>
        <time>2020-04-15T08:40:28Z</time>
      </trkpt>
      <trkpt lat="46.0647" lon="6.28829">
        <ele>673.54</ele>
        <time>2020-04-15T08:40:29Z</time>
      </trkpt>
      <trkpt lat="46.06485" lon="6.28824">
        <ele>673.06</ele>
        <time>2020-04-15T08:40:30Z</time>
      </trkpt>
      <trkpt lat="46.06502" lon="6.28819">
        <ele>672.1</ele>
        <time>2020-04-15T08:40:31Z</time>
      </trkpt>
      <trkpt lat="46.06613" lon="6.28753">
        <ele>666.81</ele>
        <time>2020-04-15T08:40:36Z</time>
      </trkpt>
      <trkpt lat="46.06732" lon="6.28683">
        <ele>661.04</ele>
        <time>2020-04-15T08:40:41Z</time>
      </trkpt>
      <trkpt lat="46.06756" lon="6.28679">
        <ele>660.08</ele>
        <time>2020-04-15T08:40:42Z</time>
      </trkpt>
      <trkpt lat="46.0678" lon="6.28674">
        <ele>658.64</ele>
        <time>2020-04-15T08:40:43Z</time>
      </trkpt>
      <trkpt lat="46.06804" lon="6.28674">
        <ele>657.68</ele>
        <time>2020-04-15T08:40:44Z</time>
      </trkpt>
      <trkpt lat="46.06828" lon="6.28679">
        <ele>656.24</ele>
        <time>2020-04-15T08:40:45Z</time>
      </trkpt>
      <trkpt lat="46.06851" lon="6.28685">
        <ele>655.28</ele>
        <time>2020-04-15T08:40:46Z</time>
      </trkpt>
      <trkpt lat="46.06873" lon="6.28697">
        <ele>653.83</ele>
        <time>2020-04-15T08:40:47Z</time>
      </trkpt>
      <trkpt lat="46.06895" lon="6.2871">
        <ele>652.87</ele>
        <time>2020-04-15T08:40:48Z</time>
      </trkpt>
      <trkpt lat="46.06917" lon="6.28724">
        <ele>651.91</ele>
        <time>2020-04-15T08:40:49Z</time>
      </trkpt>
      <trkpt lat="46.07023" lon="6.28798">
        <ele>646.62</ele>
        <time>2020-04-15T08:40:54Z</time>
      </trkpt>
      <trkpt lat="46.07046" lon="6.28805">
        <ele>645.66</ele>
        <time>2020-04-15T08:40:55Z</time>
      </trkpt>
      <trkpt lat="46.07069" lon="6.28811">
        <ele>644.7</ele>
        <time>2020-04-15T08:40:56Z</time>
      </trkpt>
      <trkpt lat="46.07093" lon="6.28816">
        <ele>643.74</ele>
        <time>2020-04-15T08:40:57Z</time>
      </trkpt>
      <trkpt lat="46.07117" lon="6.28819">
        <ele>642.3</ele>
        <time>2020-04-15T08:40:58Z</time>
      </trkpt>
      <trkpt lat="46.07353" lon="6.28858">
        <ele>627.88</ele>
        <time>2020-04-15T08:41:08Z</time>
      </trkpt>
      <trkpt lat="46.07375" lon="6.28873">
        <ele>626.44</ele>
        <time>2020-04-15T08:41:09Z</time>
      </trkpt>
      <trkpt lat="46.07396" lon="6.2889">
        <ele>624.99</ele>
        <time>2020-04-15T08:41:10Z</time>
      </trkpt>
      <trkpt lat="46.07415" lon="6.28912">
        <ele>623.55</ele>
        <time>2020-04-15T08:41:11Z</time>
      </trkpt>
      <trkpt lat="46.07431" lon="6.28936">
        <ele>622.59</ele>
        <time>2020-04-15T08:41:12Z</time>
      </trkpt>
      <trkpt lat="46.07446" lon="6.28961">
        <ele>621.15</ele>
        <time>2020-04-15T08:41:13Z</time>
      </trkpt>
      <trkpt lat="46.07459" lon="6.28987">
        <ele>620.19</ele>
        <time>2020-04-15T08:41:14Z</time>
      </trkpt>
      <trkpt lat="46.07469" lon="6.29016">
        <ele>619.23</ele>
        <time>2020-04-15T08:41:15Z</time>
      </trkpt>
      <trkpt lat="46.07476" lon="6.29046">
        <ele>618.26</ele>
        <time>2020-04-15T08:41:16Z</time>
      </trkpt>
      <trkpt lat="46.07484" lon="6.29077">
        <ele>617.78</ele>
        <time>2020-04-15T08:41:17Z</time>
      </trkpt>
      <trkpt lat="46.07509" lon="6.29173">
        <ele>615.38</ele>
        <time>2020-04-15T08:41:21Z</time>
      </trkpt>
      <trkpt lat="46.07517" lon="6.2919">
        <ele>614.42</ele>
        <time>2020-04-15T08:41:22Z</time>
      </trkpt>
      <trkpt lat="46.07518" lon="6.29217">
        <ele>613.94</ele>
        <time>2020-04-15T08:41:23Z</time>
      </trkpt>
      <trkpt lat="46.07512" lon="6.29237">
        <ele>612.5</ele>
        <time>2020-04-15T08:41:24Z</time>
      </trkpt>
      <trkpt lat="46.07504" lon="6.29259">
        <ele>612.5</ele>
        <time>2020-04-15T08:41:25Z</time>
      </trkpt>
      <trkpt lat="46.07496" lon="6.29283">
        <ele>612.02</ele>
        <time>2020-04-15T08:41:26Z</time>
      </trkpt>
      <trkpt lat="46.07478" lon="6.29337">
        <ele>610.57</ele>
        <time>2020-04-15T08:41:28Z</time>
      </trkpt>
      <trkpt lat="46.07468" lon="6.29365">
        <ele>610.09</ele>
        <time>2020-04-15T08:41:29Z</time>
      </trkpt>
      <trkpt lat="46.07454" lon="6.2939">
        <ele>609.13</ele>
        <time>2020-04-15T08:41:30Z</time>
      </trkpt>
      <trkpt lat="46.07327" lon="6.29585">
        <ele>602.4</ele>
        <time>2020-04-15T08:41:39Z</time>
      </trkpt>
      <trkpt lat="46.07203" lon="6.29735">
        <ele>594.23</ele>
        <time>2020-04-15T08:41:48Z</time>
      </trkpt>
      <trkpt lat="46.07149" lon="6.29799">
        <ele>590.39</ele>
        <time>2020-04-15T08:41:53Z</time>
      </trkpt>
      <trkpt lat="46.07142" lon="6.29814">
        <ele>589.43</ele>
        <time>2020-04-15T08:41:54Z</time>
      </trkpt>
      <trkpt lat="46.07088" lon="6.29969">
        <ele>585.58</ele>
        <time>2020-04-15T08:42:03Z</time>
      </trkpt>
      <trkpt lat="46.0708" lon="6.30029">
        <ele>584.62</ele>
        <time>2020-04-15T08:42:08Z</time>
      </trkpt>
      <trkpt lat="46.07077" lon="6.30053">
        <ele>585.1</ele>
        <time>2020-04-15T08:42:09Z</time>
      </trkpt>
      <trkpt lat="46.07078" lon="6.30057">
        <ele>585.58</ele>
        <time>2020-04-15T08:42:10Z</time>
      </trkpt>
      <trkpt lat="46.07085" lon="6.30078">
        <ele>585.1</ele>
        <time>2020-04-15T08:42:11Z</time>
      </trkpt>
      <trkpt lat="46.07083" lon="6.30092">
        <ele>585.1</ele>
        <time>2020-04-15T08:42:12Z</time>
      </trkpt>
      <trkpt lat="46.07079" lon="6.30105">
        <ele>584.62</ele>
        <time>2020-04-15T08:42:13Z</time>
      </trkpt>
      <trkpt lat="46.07073" lon="6.30117">
        <ele>584.62</ele>
        <time>2020-04-15T08:42:14Z</time>
      </trkpt>
      <trkpt lat="46.07067" lon="6.30131">
        <ele>584.62</ele>
        <time>2020-04-15T08:42:15Z</time>
      </trkpt>
      <trkpt lat="46.07059" lon="6.3015">
        <ele>584.14</ele>
        <time>2020-04-15T08:42:16Z</time>
      </trkpt>
      <trkpt lat="46.07057" lon="6.30161">
        <ele>583.66</ele>
        <time>2020-04-15T08:42:17Z</time>
      </trkpt>
      <trkpt lat="46.07053" lon="6.30177">
        <ele>583.18</ele>
        <time>2020-04-15T08:42:18Z</time>
      </trkpt>
      <trkpt lat="46.07047" lon="6.30206">
        <ele>582.22</ele>
        <time>2020-04-15T08:42:20Z</time>
      </trkpt>
      <trkpt lat="46.07044" lon="6.30219">
        <ele>581.73</ele>
        <time>2020-04-15T08:42:21Z</time>
      </trkpt>
      <trkpt lat="46.07031" lon="6.30238">
        <ele>581.25</ele>
        <time>2020-04-15T08:42:22Z</time>
      </trkpt>
      <trkpt lat="46.07026" lon="6.3024">
        <ele>580.29</ele>
        <time>2020-04-15T08:42:23Z</time>
      </trkpt>
      <trkpt lat="46.07014" lon="6.30246">
        <ele>579.33</ele>
        <time>2020-04-15T08:42:24Z</time>
      </trkpt>
      <trkpt lat="46.06898" lon="6.30303">
        <ele>575.01</ele>
        <time>2020-04-15T08:42:33Z</time>
      </trkpt>
      <trkpt lat="46.06872" lon="6.30315">
        <ele>575.49</ele>
        <time>2020-04-15T08:42:38Z</time>
      </trkpt>
      <trkpt lat="46.0687" lon="6.30316">
        <ele>575.97</ele>
        <time>2020-04-15T08:42:39Z</time>
      </trkpt>
      <trkpt lat="46.06859" lon="6.30321">
        <ele>575.97</ele>
        <time>2020-04-15T08:42:40Z</time>
      </trkpt>
      <trkpt lat="46.06859" lon="6.30326">
        <ele>575.97</ele>
        <time>2020-04-15T08:42:41Z</time>
      </trkpt>
      <trkpt lat="46.06859" lon="6.30336">
        <ele>575.97</ele>
        <time>2020-04-15T08:42:42Z</time>
      </trkpt>
      <trkpt lat="46.06858" lon="6.30347">
        <ele>575.97</ele>
        <time>2020-04-15T08:42:43Z</time>
      </trkpt>
      <trkpt lat="46.06858" lon="6.30358">
        <ele>575.49</ele>
        <time>2020-04-15T08:42:44Z</time>
      </trkpt>
      <trkpt lat="46.06858" lon="6.30371">
        <ele>575.01</ele>
        <time>2020-04-15T08:42:45Z</time>
      </trkpt>
      <trkpt lat="46.06857" lon="6.30384">
        <ele>574.04</ele>
        <time>2020-04-15T08:42:46Z</time>
      </trkpt>
      <trkpt lat="46.06853" lon="6.30395">
        <ele>573.08</ele>
        <time>2020-04-15T08:42:47Z</time>
      </trkpt>
      <trkpt lat="46.06849" lon="6.30408">
        <ele>572.12</ele>
        <time>2020-04-15T08:42:48Z</time>
      </trkpt>
      <trkpt lat="46.06823" lon="6.30481">
        <ele>570.2</ele>
        <time>2020-04-15T08:42:56Z</time>
      </trkpt>
      <trkpt lat="46.06793" lon="6.3057">
        <ele>566.83</ele>
        <time>2020-04-15T08:43:03Z</time>
      </trkpt>
      <trkpt lat="46.06725" lon="6.30741">
        <ele>560.59</ele>
        <time>2020-04-15T08:43:15Z</time>
      </trkpt>
      <trkpt lat="46.06658" lon="6.30865">
        <ele>556.26</ele>
        <time>2020-04-15T08:43:24Z</time>
      </trkpt>
      <trkpt lat="46.06648" lon="6.30884">
        <ele>555.3</ele>
        <time>2020-04-15T08:43:26Z</time>
      </trkpt>
      <trkpt lat="46.06644" lon="6.30891">
        <ele>555.3</ele>
        <time>2020-04-15T08:43:27Z</time>
      </trkpt>
      <trkpt lat="46.06641" lon="6.30897">
        <ele>554.82</ele>
        <time>2020-04-15T08:43:28Z</time>
      </trkpt>
      <trkpt lat="46.06644" lon="6.30909">
        <ele>554.82</ele>
        <time>2020-04-15T08:43:29Z</time>
      </trkpt>
      <trkpt lat="46.06648" lon="6.30911">
        <ele>554.34</ele>
        <time>2020-04-15T08:43:30Z</time>
      </trkpt>
      <trkpt lat="46.06652" lon="6.30911">
        <ele>554.34</ele>
        <time>2020-04-15T08:43:31Z</time>
      </trkpt>
      <trkpt lat="46.06659" lon="6.30909">
        <ele>554.34</ele>
        <time>2020-04-15T08:43:32Z</time>
      </trkpt>
      <trkpt lat="46.06668" lon="6.30907">
        <ele>554.34</ele>
        <time>2020-04-15T08:43:33Z</time>
      </trkpt>
      <trkpt lat="46.06677" lon="6.30904">
        <ele>554.34</ele>
        <time>2020-04-15T08:43:34Z</time>
      </trkpt>
      <trkpt lat="46.06686" lon="6.30902">
        <ele>554.34</ele>
        <time>2020-04-15T08:43:35Z</time>
      </trkpt>
      <trkpt lat="46.06693" lon="6.30899">
        <ele>553.86</ele>
        <time>2020-04-15T08:43:36Z</time>
      </trkpt>
      <trkpt lat="46.067" lon="6.30888">
        <ele>553.86</ele>
        <time>2020-04-15T08:43:37Z</time>
      </trkpt>
      <trkpt lat="46.06709" lon="6.30875">
        <ele>553.86</ele>
        <time>2020-04-15T08:43:38Z</time>
      </trkpt>
      <trkpt lat="46.06747" lon="6.30815">
        <ele>554.34</ele>
        <time>2020-04-15T08:43:44Z</time>
      </trkpt>
      <trkpt lat="46.0675" lon="6.30811">
        <ele>554.34</ele>
        <time>2020-04-15T08:43:45Z</time>
      </trkpt>
      <trkpt lat="46.06752" lon="6.30808">
        <ele>554.34</ele>
        <time>2020-04-15T08:43:46Z</time>
      </trkpt>
      <trkpt lat="46.0675" lon="6.30803">
        <ele>554.82</ele>
        <time>2020-04-15T08:43:55Z</time>
      </trkpt>
    </trkseg>
  </trk>
  <trk>
    <name><![CDATA[Journal actif: 2020-04-15 14:51]]></name>
    <trkseg>
      <trkpt lat="46.06785" lon="6.30754">
        <ele>532.71</ele>
        <time>2020-04-15T12:51:28Z</time>
      </trkpt>
      <trkpt lat="46.06796" lon="6.30749">
        <ele>534.15</ele>
        <time>2020-04-15T12:51:29Z</time>
      </trkpt>
      <trkpt lat="46.06795" lon="6.30746">
        <ele>536.07</ele>
        <time>2020-04-15T12:51:30Z</time>
      </trkpt>
      <trkpt lat="46.06794" lon="6.30742">
        <ele>537.99</ele>
        <time>2020-04-15T12:51:31Z</time>
      </trkpt>
      <trkpt lat="46.06792" lon="6.30733">
        <ele>538.96</ele>
        <time>2020-04-15T12:51:32Z</time>
      </trkpt>
      <trkpt lat="46.0679" lon="6.3072">
        <ele>539.92</ele>
        <time>2020-04-15T12:51:33Z</time>
      </trkpt>
      <trkpt lat="46.06786" lon="6.30706">
        <ele>540.4</ele>
        <time>2020-04-15T12:51:34Z</time>
      </trkpt>
      <trkpt lat="46.06785" lon="6.30675">
        <ele>541.84</ele>
        <time>2020-04-15T12:51:36Z</time>
      </trkpt>
      <trkpt lat="46.06784" lon="6.30658">
        <ele>542.8</ele>
        <time>2020-04-15T12:51:37Z</time>
      </trkpt>
      <trkpt lat="46.06783" lon="6.30642">
        <ele>544.24</ele>
        <time>2020-04-15T12:51:38Z</time>
      </trkpt>
      <trkpt lat="46.06785" lon="6.30599">
        <ele>548.57</ele>
        <time>2020-04-15T12:51:41Z</time>
      </trkpt>
      <trkpt lat="46.06789" lon="6.30585">
        <ele>548.57</ele>
        <time>2020-04-15T12:51:42Z</time>
      </trkpt>
      <trkpt lat="46.068" lon="6.30546">
        <ele>549.05</ele>
        <time>2020-04-15T12:51:45Z</time>
      </trkpt>
      <trkpt lat="46.06805" lon="6.30533">
        <ele>549.05</ele>
        <time>2020-04-15T12:51:46Z</time>
      </trkpt>
      <trkpt lat="46.06809" lon="6.30522">
        <ele>549.53</ele>
        <time>2020-04-15T12:51:47Z</time>
      </trkpt>
      <trkpt lat="46.06826" lon="6.30473">
        <ele>551.45</ele>
        <time>2020-04-15T12:51:52Z</time>
      </trkpt>
      <trkpt lat="46.06855" lon="6.3039">
        <ele>566.83</ele>
        <time>2020-04-15T12:52:00Z</time>
      </trkpt>
      <trkpt lat="46.06858" lon="6.30362">
        <ele>566.35</ele>
        <time>2020-04-15T12:52:02Z</time>
      </trkpt>
      <trkpt lat="46.06858" lon="6.30348">
        <ele>566.83</ele>
        <time>2020-04-15T12:52:03Z</time>
      </trkpt>
      <trkpt lat="46.06862" lon="6.30257">
        <ele>569.72</ele>
        <time>2020-04-15T12:52:10Z</time>
      </trkpt>
      <trkpt lat="46.06864" lon="6.30249">
        <ele>570.2</ele>
        <time>2020-04-15T12:52:11Z</time>
      </trkpt>
      <trkpt lat="46.06866" lon="6.30241">
        <ele>570.2</ele>
        <time>2020-04-15T12:52:12Z</time>
      </trkpt>
      <trkpt lat="46.06871" lon="6.30234">
        <ele>570.68</ele>
        <time>2020-04-15T12:52:13Z</time>
      </trkpt>
      <trkpt lat="46.06885" lon="6.30233">
        <ele>570.68</ele>
        <time>2020-04-15T12:52:14Z</time>
      </trkpt>
      <trkpt lat="46.06953" lon="6.30193">
        <ele>573.08</ele>
        <time>2020-04-15T12:52:20Z</time>
      </trkpt>
      <trkpt lat="46.07035" lon="6.30091">
        <ele>575.01</ele>
        <time>2020-04-15T12:52:29Z</time>
      </trkpt>
      <trkpt lat="46.07041" lon="6.30081">
        <ele>575.49</ele>
        <time>2020-04-15T12:52:30Z</time>
      </trkpt>
      <trkpt lat="46.07047" lon="6.30073">
        <ele>575.97</ele>
        <time>2020-04-15T12:52:31Z</time>
      </trkpt>
      <trkpt lat="46.07051" lon="6.30066">
        <ele>575.97</ele>
        <time>2020-04-15T12:52:32Z</time>
      </trkpt>
      <trkpt lat="46.07055" lon="6.30061">
        <ele>576.45</ele>
        <time>2020-04-15T12:52:33Z</time>
      </trkpt>
      <trkpt lat="46.0706" lon="6.30057">
        <ele>576.93</ele>
        <time>2020-04-15T12:52:34Z</time>
      </trkpt>
      <trkpt lat="46.07078" lon="6.30057">
        <ele>577.89</ele>
        <time>2020-04-15T12:52:35Z</time>
      </trkpt>
      <trkpt lat="46.07078" lon="6.30057">
        <ele>578.37</ele>
        <time>2020-04-15T12:52:36Z</time>
      </trkpt>
      <trkpt lat="46.07083" lon="6.30059">
        <ele>578.85</ele>
        <time>2020-04-15T12:52:37Z</time>
      </trkpt>
      <trkpt lat="46.0709" lon="6.30056">
        <ele>578.85</ele>
        <time>2020-04-15T12:52:38Z</time>
      </trkpt>
      <trkpt lat="46.07096" lon="6.30042">
        <ele>578.85</ele>
        <time>2020-04-15T12:52:39Z</time>
      </trkpt>
      <trkpt lat="46.07106" lon="6.30033">
        <ele>578.37</ele>
        <time>2020-04-15T12:52:40Z</time>
      </trkpt>
      <trkpt lat="46.0714" lon="6.30005">
        <ele>577.41</ele>
        <time>2020-04-15T12:52:43Z</time>
      </trkpt>
      <trkpt lat="46.0725" lon="6.29915">
        <ele>576.45</ele>
        <time>2020-04-15T12:52:52Z</time>
      </trkpt>
      <trkpt lat="46.07263" lon="6.29905">
        <ele>576.45</ele>
        <time>2020-04-15T12:52:53Z</time>
      </trkpt>
      <trkpt lat="46.07274" lon="6.29897">
        <ele>576.45</ele>
        <time>2020-04-15T12:52:54Z</time>
      </trkpt>
      <trkpt lat="46.0732" lon="6.2986">
        <ele>576.93</ele>
        <time>2020-04-15T12:53:00Z</time>
      </trkpt>
      <trkpt lat="46.07372" lon="6.2982">
        <ele>578.37</ele>
        <time>2020-04-15T12:53:07Z</time>
      </trkpt>
      <trkpt lat="46.07487" lon="6.29747">
        <ele>579.81</ele>
        <time>2020-04-15T12:53:16Z</time>
      </trkpt>
      <trkpt lat="46.07501" lon="6.29741">
        <ele>580.29</ele>
        <time>2020-04-15T12:53:17Z</time>
      </trkpt>
      <trkpt lat="46.07515" lon="6.29736">
        <ele>580.29</ele>
        <time>2020-04-15T12:53:18Z</time>
      </trkpt>
      <trkpt lat="46.07545" lon="6.29737">
        <ele>579.81</ele>
        <time>2020-04-15T12:53:20Z</time>
      </trkpt>
      <trkpt lat="46.07559" lon="6.29737">
        <ele>579.81</ele>
        <time>2020-04-15T12:53:21Z</time>
      </trkpt>
      <trkpt lat="46.07573" lon="6.2974">
        <ele>579.81</ele>
        <time>2020-04-15T12:53:22Z</time>
      </trkpt>
      <trkpt lat="46.07587" lon="6.29747">
        <ele>579.81</ele>
        <time>2020-04-15T12:53:23Z</time>
      </trkpt>
      <trkpt lat="46.07601" lon="6.29753">
        <ele>579.33</ele>
        <time>2020-04-15T12:53:24Z</time>
      </trkpt>
      <trkpt lat="46.0763" lon="6.29761">
        <ele>578.37</ele>
        <time>2020-04-15T12:53:26Z</time>
      </trkpt>
      <trkpt lat="46.07645" lon="6.29761">
        <ele>577.89</ele>
        <time>2020-04-15T12:53:27Z</time>
      </trkpt>
      <trkpt lat="46.0766" lon="6.29761">
        <ele>576.93</ele>
        <time>2020-04-15T12:53:28Z</time>
      </trkpt>
      <trkpt lat="46.07676" lon="6.29754">
        <ele>575.97</ele>
        <time>2020-04-15T12:53:29Z</time>
      </trkpt>
      <trkpt lat="46.0769" lon="6.29744">
        <ele>575.01</ele>
        <time>2020-04-15T12:53:30Z</time>
      </trkpt>
      <trkpt lat="46.07706" lon="6.29734">
        <ele>574.04</ele>
        <time>2020-04-15T12:53:31Z</time>
      </trkpt>
      <trkpt lat="46.07748" lon="6.29708">
        <ele>572.12</ele>
        <time>2020-04-15T12:53:34Z</time>
      </trkpt>
      <trkpt lat="46.07761" lon="6.29697">
        <ele>571.16</ele>
        <time>2020-04-15T12:53:35Z</time>
      </trkpt>
      <trkpt lat="46.07795" lon="6.2967">
        <ele>572.12</ele>
        <time>2020-04-15T12:53:38Z</time>
      </trkpt>
      <trkpt lat="46.07802" lon="6.29661">
        <ele>572.6</ele>
        <time>2020-04-15T12:53:39Z</time>
      </trkpt>
      <trkpt lat="46.07816" lon="6.29643">
        <ele>573.56</ele>
        <time>2020-04-15T12:53:41Z</time>
      </trkpt>
      <trkpt lat="46.07818" lon="6.29639">
        <ele>574.04</ele>
        <time>2020-04-15T12:53:42Z</time>
      </trkpt>
      <trkpt lat="46.07814" lon="6.2962">
        <ele>574.53</ele>
        <time>2020-04-15T12:53:44Z</time>
      </trkpt>
      <trkpt lat="46.07806" lon="6.29615">
        <ele>575.01</ele>
        <time>2020-04-15T12:53:45Z</time>
      </trkpt>
      <trkpt lat="46.07794" lon="6.29623">
        <ele>575.01</ele>
        <time>2020-04-15T12:53:46Z</time>
      </trkpt>
      <trkpt lat="46.07787" lon="6.29628">
        <ele>575.49</ele>
        <time>2020-04-15T12:53:47Z</time>
      </trkpt>
      <trkpt lat="46.07779" lon="6.29634">
        <ele>575.97</ele>
        <time>2020-04-15T12:53:48Z</time>
      </trkpt>
      <trkpt lat="46.07771" lon="6.2964">
        <ele>576.45</ele>
        <time>2020-04-15T12:53:49Z</time>
      </trkpt>
      <trkpt lat="46.07756" lon="6.29652">
        <ele>577.41</ele>
        <time>2020-04-15T12:53:51Z</time>
      </trkpt>
      <trkpt lat="46.07748" lon="6.29648">
        <ele>578.37</ele>
        <time>2020-04-15T12:53:52Z</time>
      </trkpt>
      <trkpt lat="46.07741" lon="6.29644">
        <ele>578.37</ele>
        <time>2020-04-15T12:53:53Z</time>
      </trkpt>
      <trkpt lat="46.07734" lon="6.29641">
        <ele>578.85</ele>
        <time>2020-04-15T12:53:54Z</time>
      </trkpt>
      <trkpt lat="46.07722" lon="6.29635">
        <ele>579.33</ele>
        <time>2020-04-15T12:53:55Z</time>
      </trkpt>
      <trkpt lat="46.0772" lon="6.29629">
        <ele>579.33</ele>
        <time>2020-04-15T12:53:56Z</time>
      </trkpt>
      <trkpt lat="46.07716" lon="6.29617">
        <ele>579.33</ele>
        <time>2020-04-15T12:53:57Z</time>
      </trkpt>
      <trkpt lat="46.07712" lon="6.29605">
        <ele>579.81</ele>
        <time>2020-04-15T12:53:58Z</time>
      </trkpt>
      <trkpt lat="46.07708" lon="6.29592">
        <ele>580.29</ele>
        <time>2020-04-15T12:53:59Z</time>
      </trkpt>
      <trkpt lat="46.07703" lon="6.29577">
        <ele>580.77</ele>
        <time>2020-04-15T12:54:00Z</time>
      </trkpt>
      <trkpt lat="46.07668" lon="6.29476">
        <ele>585.1</ele>
        <time>2020-04-15T12:54:04Z</time>
      </trkpt>
      <trkpt lat="46.07614" lon="6.29333">
        <ele>593.27</ele>
        <time>2020-04-15T12:54:08Z</time>
      </trkpt>
      <trkpt lat="46.07583" lon="6.29253">
        <ele>598.56</ele>
        <time>2020-04-15T12:54:11Z</time>
      </trkpt>
      <trkpt lat="46.07576" lon="6.29232">
        <ele>599.52</ele>
        <time>2020-04-15T12:54:12Z</time>
      </trkpt>
      <trkpt lat="46.07573" lon="6.29208">
        <ele>601.44</ele>
        <time>2020-04-15T12:54:14Z</time>
      </trkpt>
      <trkpt lat="46.07576" lon="6.29164">
        <ele>601.92</ele>
        <time>2020-04-15T12:54:15Z</time>
      </trkpt>
      <trkpt lat="46.07582" lon="6.29144">
        <ele>602.4</ele>
        <time>2020-04-15T12:54:16Z</time>
      </trkpt>
      <trkpt lat="46.07589" lon="6.29124">
        <ele>601.92</ele>
        <time>2020-04-15T12:54:17Z</time>
      </trkpt>
      <trkpt lat="46.07599" lon="6.29106">
        <ele>601.92</ele>
        <time>2020-04-15T12:54:18Z</time>
      </trkpt>
      <trkpt lat="46.07613" lon="6.29093">
        <ele>601.44</ele>
        <time>2020-04-15T12:54:19Z</time>
      </trkpt>
      <trkpt lat="46.07627" lon="6.29081">
        <ele>601.44</ele>
        <time>2020-04-15T12:54:20Z</time>
      </trkpt>
      <trkpt lat="46.07644" lon="6.29071">
        <ele>600.96</ele>
        <time>2020-04-15T12:54:21Z</time>
      </trkpt>
      <trkpt lat="46.07663" lon="6.2906">
        <ele>600.48</ele>
        <time>2020-04-15T12:54:22Z</time>
      </trkpt>
      <trkpt lat="46.07689" lon="6.2905">
        <ele>600</ele>
        <time>2020-04-15T12:54:23Z</time>
      </trkpt>
      <trkpt lat="46.07825" lon="6.29009">
        <ele>596.64</ele>
        <time>2020-04-15T12:54:27Z</time>
      </trkpt>
      <trkpt lat="46.08048" lon="6.28925">
        <ele>591.83</ele>
        <time>2020-04-15T12:54:32Z</time>
      </trkpt>
      <trkpt lat="46.08342" lon="6.28841">
        <ele>584.62</ele>
        <time>2020-04-15T12:54:38Z</time>
      </trkpt>
      <trkpt lat="46.0862" lon="6.28842">
        <ele>576.93</ele>
        <time>2020-04-15T12:54:44Z</time>
      </trkpt>
      <trkpt lat="46.08835" lon="6.28886">
        <ele>569.72</ele>
        <time>2020-04-15T12:54:49Z</time>
      </trkpt>
      <trkpt lat="46.0904" lon="6.28931">
        <ele>561.55</ele>
        <time>2020-04-15T12:54:55Z</time>
      </trkpt>
      <trkpt lat="46.09393" lon="6.29032">
        <ele>542.32</ele>
        <time>2020-04-15T12:55:06Z</time>
      </trkpt>
      <trkpt lat="46.09634" lon="6.2918">
        <ele>528.38</ele>
        <time>2020-04-15T12:55:14Z</time>
      </trkpt>
      <trkpt lat="46.09711" lon="6.29263">
        <ele>524.06</ele>
        <time>2020-04-15T12:55:17Z</time>
      </trkpt>
      <trkpt lat="46.09846" lon="6.29467">
        <ele>513.48</ele>
        <time>2020-04-15T12:55:23Z</time>
      </trkpt>
      <trkpt lat="46.09936" lon="6.29717">
        <ele>503.39</ele>
        <time>2020-04-15T12:55:29Z</time>
      </trkpt>
      <trkpt lat="46.10072" lon="6.30142">
        <ele>488.49</ele>
        <time>2020-04-15T12:55:39Z</time>
      </trkpt>
      <trkpt lat="46.10209" lon="6.30399">
        <ele>483.2</ele>
        <time>2020-04-15T12:55:46Z</time>
      </trkpt>
      <trkpt lat="46.10406" lon="6.3065">
        <ele>479.35</ele>
        <time>2020-04-15T12:55:54Z</time>
      </trkpt>
      <trkpt lat="46.10643" lon="6.30972">
        <ele>475.03</ele>
        <time>2020-04-15T12:56:04Z</time>
      </trkpt>
      <trkpt lat="46.10819" lon="6.31309">
        <ele>472.63</ele>
        <time>2020-04-15T12:56:13Z</time>
      </trkpt>
      <trkpt lat="46.11027" lon="6.3173">
        <ele>465.42</ele>
        <time>2020-04-15T12:56:24Z</time>
      </trkpt>
      <trkpt lat="46.11212" lon="6.31997">
        <ele>456.28</ele>
        <time>2020-04-15T12:56:32Z</time>
      </trkpt>
      <trkpt lat="46.11504" lon="6.3231">
        <ele>447.15</ele>
        <time>2020-04-15T12:56:43Z</time>
      </trkpt>
      <trkpt lat="46.11865" lon="6.32683">
        <ele>443.79</ele>
        <time>2020-04-15T12:56:58Z</time>
      </trkpt>
      <trkpt lat="46.12076" lon="6.32884">
        <ele>441.38</ele>
        <time>2020-04-15T12:57:06Z</time>
      </trkpt>
      <trkpt lat="46.12152" lon="6.3292">
        <ele>442.34</ele>
        <time>2020-04-15T12:57:09Z</time>
      </trkpt>
      <trkpt lat="46.12178" lon="6.32927">
        <ele>442.82</ele>
        <time>2020-04-15T12:57:10Z</time>
      </trkpt>
      <trkpt lat="46.12204" lon="6.32928">
        <ele>443.31</ele>
        <time>2020-04-15T12:57:11Z</time>
      </trkpt>
      <trkpt lat="46.12231" lon="6.3293">
        <ele>443.31</ele>
        <time>2020-04-15T12:57:12Z</time>
      </trkpt>
      <trkpt lat="46.12258" lon="6.32928">
        <ele>443.31</ele>
        <time>2020-04-15T12:57:13Z</time>
      </trkpt>
      <trkpt lat="46.12285" lon="6.32925">
        <ele>443.31</ele>
        <time>2020-04-15T12:57:14Z</time>
      </trkpt>
      <trkpt lat="46.12312" lon="6.32916">
        <ele>442.82</ele>
        <time>2020-04-15T12:57:15Z</time>
      </trkpt>
      <trkpt lat="46.12338" lon="6.32905">
        <ele>442.34</ele>
        <time>2020-04-15T12:57:16Z</time>
      </trkpt>
      <trkpt lat="46.12365" lon="6.32892">
        <ele>441.38</ele>
        <time>2020-04-15T12:57:17Z</time>
      </trkpt>
      <trkpt lat="46.12391" lon="6.32877">
        <ele>440.9</ele>
        <time>2020-04-15T12:57:18Z</time>
      </trkpt>
      <trkpt lat="46.12415" lon="6.32855">
        <ele>439.94</ele>
        <time>2020-04-15T12:57:19Z</time>
      </trkpt>
      <trkpt lat="46.12439" lon="6.32832">
        <ele>438.98</ele>
        <time>2020-04-15T12:57:20Z</time>
      </trkpt>
      <trkpt lat="46.12631" lon="6.32626">
        <ele>435.13</ele>
        <time>2020-04-15T12:57:28Z</time>
      </trkpt>
      <trkpt lat="46.12799" lon="6.32477">
        <ele>435.13</ele>
        <time>2020-04-15T12:57:33Z</time>
      </trkpt>
      <trkpt lat="46.12983" lon="6.32328">
        <ele>434.65</ele>
        <time>2020-04-15T12:57:39Z</time>
      </trkpt>
      <trkpt lat="46.13305" lon="6.32051">
        <ele>435.13</ele>
        <time>2020-04-15T12:57:50Z</time>
      </trkpt>
      <trkpt lat="46.13528" lon="6.31915">
        <ele>437.54</ele>
        <time>2020-04-15T12:57:57Z</time>
      </trkpt>
      <trkpt lat="46.13844" lon="6.31779">
        <ele>444.75</ele>
        <time>2020-04-15T12:58:07Z</time>
      </trkpt>
      <trkpt lat="46.14073" lon="6.31727">
        <ele>451.96</ele>
        <time>2020-04-15T12:58:15Z</time>
      </trkpt>
      <trkpt lat="46.14248" lon="6.31716">
        <ele>460.13</ele>
        <time>2020-04-15T12:58:22Z</time>
      </trkpt>
      <trkpt lat="46.14274" lon="6.31727">
        <ele>460.61</ele>
        <time>2020-04-15T12:58:23Z</time>
      </trkpt>
      <trkpt lat="46.14366" lon="6.31763">
        <ele>463.01</ele>
        <time>2020-04-15T12:58:27Z</time>
      </trkpt>
      <trkpt lat="46.14391" lon="6.31774">
        <ele>463.97</ele>
        <time>2020-04-15T12:58:28Z</time>
      </trkpt>
      <trkpt lat="46.14415" lon="6.31771">
        <ele>464.93</ele>
        <time>2020-04-15T12:58:29Z</time>
      </trkpt>
      <trkpt lat="46.14439" lon="6.31767">
        <ele>466.38</ele>
        <time>2020-04-15T12:58:30Z</time>
      </trkpt>
      <trkpt lat="46.14464" lon="6.31761">
        <ele>467.82</ele>
        <time>2020-04-15T12:58:31Z</time>
      </trkpt>
      <trkpt lat="46.14592" lon="6.31729">
        <ele>474.07</ele>
        <time>2020-04-15T12:58:36Z</time>
      </trkpt>
      <trkpt lat="46.14619" lon="6.31729">
        <ele>475.03</ele>
        <time>2020-04-15T12:58:37Z</time>
      </trkpt>
      <trkpt lat="46.14646" lon="6.31735">
        <ele>476.47</ele>
        <time>2020-04-15T12:58:38Z</time>
      </trkpt>
      <trkpt lat="46.14674" lon="6.31742">
        <ele>477.43</ele>
        <time>2020-04-15T12:58:39Z</time>
      </trkpt>
      <trkpt lat="46.147" lon="6.31755">
        <ele>478.87</ele>
        <time>2020-04-15T12:58:40Z</time>
      </trkpt>
      <trkpt lat="46.14726" lon="6.31769">
        <ele>480.32</ele>
        <time>2020-04-15T12:58:41Z</time>
      </trkpt>
      <trkpt lat="46.14751" lon="6.31783">
        <ele>481.76</ele>
        <time>2020-04-15T12:58:42Z</time>
      </trkpt>
      <trkpt lat="46.14874" lon="6.3186">
        <ele>486.08</ele>
        <time>2020-04-15T12:58:48Z</time>
      </trkpt>
      <trkpt lat="46.14903" lon="6.31888">
        <ele>487.05</ele>
        <time>2020-04-15T12:58:50Z</time>
      </trkpt>
      <trkpt lat="46.14916" lon="6.31903">
        <ele>487.53</ele>
        <time>2020-04-15T12:58:51Z</time>
      </trkpt>
      <trkpt lat="46.14927" lon="6.31919">
        <ele>488.01</ele>
        <time>2020-04-15T12:58:52Z</time>
      </trkpt>
      <trkpt lat="46.14937" lon="6.31937">
        <ele>488.49</ele>
        <time>2020-04-15T12:58:53Z</time>
      </trkpt>
      <trkpt lat="46.14943" lon="6.31958">
        <ele>488.49</ele>
        <time>2020-04-15T12:58:54Z</time>
      </trkpt>
      <trkpt lat="46.14947" lon="6.31979">
        <ele>488.49</ele>
        <time>2020-04-15T12:58:55Z</time>
      </trkpt>
      <trkpt lat="46.1495" lon="6.31999">
        <ele>488.49</ele>
        <time>2020-04-15T12:58:56Z</time>
      </trkpt>
      <trkpt lat="46.14953" lon="6.32018">
        <ele>488.49</ele>
        <time>2020-04-15T12:58:57Z</time>
      </trkpt>
      <trkpt lat="46.14952" lon="6.32035">
        <ele>488.49</ele>
        <time>2020-04-15T12:58:58Z</time>
      </trkpt>
      <trkpt lat="46.14952" lon="6.32052">
        <ele>488.49</ele>
        <time>2020-04-15T12:58:59Z</time>
      </trkpt>
      <trkpt lat="46.14945" lon="6.32077">
        <ele>488.49</ele>
        <time>2020-04-15T12:59:00Z</time>
      </trkpt>
      <trkpt lat="46.14943" lon="6.32083">
        <ele>488.97</ele>
        <time>2020-04-15T12:59:01Z</time>
      </trkpt>
      <trkpt lat="46.14946" lon="6.321">
        <ele>488.97</ele>
        <time>2020-04-15T12:59:02Z</time>
      </trkpt>
      <trkpt lat="46.14957" lon="6.32117">
        <ele>488.97</ele>
        <time>2020-04-15T12:59:03Z</time>
      </trkpt>
      <trkpt lat="46.14957" lon="6.32137">
        <ele>489.45</ele>
        <time>2020-04-15T12:59:04Z</time>
      </trkpt>
      <trkpt lat="46.14957" lon="6.32159">
        <ele>489.45</ele>
        <time>2020-04-15T12:59:05Z</time>
      </trkpt>
      <trkpt lat="46.14957" lon="6.32329">
        <ele>491.37</ele>
        <time>2020-04-15T12:59:11Z</time>
      </trkpt>
      <trkpt lat="46.14962" lon="6.32355">
        <ele>491.37</ele>
        <time>2020-04-15T12:59:12Z</time>
      </trkpt>
      <trkpt lat="46.14968" lon="6.32381">
        <ele>491.85</ele>
        <time>2020-04-15T12:59:13Z</time>
      </trkpt>
      <trkpt lat="46.15016" lon="6.3259">
        <ele>496.66</ele>
        <time>2020-04-15T12:59:21Z</time>
      </trkpt>
      <trkpt lat="46.1502" lon="6.32617">
        <ele>497.62</ele>
        <time>2020-04-15T12:59:22Z</time>
      </trkpt>
      <trkpt lat="46.15021" lon="6.32646">
        <ele>498.58</ele>
        <time>2020-04-15T12:59:23Z</time>
      </trkpt>
      <trkpt lat="46.15018" lon="6.32674">
        <ele>499.54</ele>
        <time>2020-04-15T12:59:24Z</time>
      </trkpt>
      <trkpt lat="46.15015" lon="6.32702">
        <ele>500.02</ele>
        <time>2020-04-15T12:59:25Z</time>
      </trkpt>
      <trkpt lat="46.15011" lon="6.3273">
        <ele>501.46</ele>
        <time>2020-04-15T12:59:26Z</time>
      </trkpt>
      <trkpt lat="46.14997" lon="6.32838">
        <ele>506.75</ele>
        <time>2020-04-15T12:59:30Z</time>
      </trkpt>
      <trkpt lat="46.14997" lon="6.32864">
        <ele>508.19</ele>
        <time>2020-04-15T12:59:31Z</time>
      </trkpt>
      <trkpt lat="46.14998" lon="6.3289">
        <ele>509.64</ele>
        <time>2020-04-15T12:59:32Z</time>
      </trkpt>
      <trkpt lat="46.15002" lon="6.32916">
        <ele>511.08</ele>
        <time>2020-04-15T12:59:33Z</time>
      </trkpt>
      <trkpt lat="46.1501" lon="6.32938">
        <ele>512.52</ele>
        <time>2020-04-15T12:59:34Z</time>
      </trkpt>
      <trkpt lat="46.1502" lon="6.3296">
        <ele>513.96</ele>
        <time>2020-04-15T12:59:35Z</time>
      </trkpt>
      <trkpt lat="46.15031" lon="6.3298">
        <ele>514.92</ele>
        <time>2020-04-15T12:59:36Z</time>
      </trkpt>
      <trkpt lat="46.15042" lon="6.33001">
        <ele>516.37</ele>
        <time>2020-04-15T12:59:37Z</time>
      </trkpt>
      <trkpt lat="46.15174" lon="6.33202">
        <ele>532.71</ele>
        <time>2020-04-15T12:59:48Z</time>
      </trkpt>
      <trkpt lat="46.15208" lon="6.33252">
        <ele>536.07</ele>
        <time>2020-04-15T12:59:51Z</time>
      </trkpt>
      <trkpt lat="46.15218" lon="6.3327">
        <ele>536.55</ele>
        <time>2020-04-15T12:59:52Z</time>
      </trkpt>
      <trkpt lat="46.15224" lon="6.3329">
        <ele>537.51</ele>
        <time>2020-04-15T12:59:53Z</time>
      </trkpt>
      <trkpt lat="46.15229" lon="6.33311">
        <ele>537.99</ele>
        <time>2020-04-15T12:59:54Z</time>
      </trkpt>
      <trkpt lat="46.1523" lon="6.33333">
        <ele>538.48</ele>
        <time>2020-04-15T12:59:55Z</time>
      </trkpt>
      <trkpt lat="46.15229" lon="6.33356">
        <ele>538.96</ele>
        <time>2020-04-15T12:59:56Z</time>
      </trkpt>
      <trkpt lat="46.15222" lon="6.33378">
        <ele>539.44</ele>
        <time>2020-04-15T12:59:57Z</time>
      </trkpt>
      <trkpt lat="46.15216" lon="6.334">
        <ele>539.44</ele>
        <time>2020-04-15T12:59:58Z</time>
      </trkpt>
      <trkpt lat="46.15209" lon="6.33423">
        <ele>539.92</ele>
        <time>2020-04-15T12:59:59Z</time>
      </trkpt>
      <trkpt lat="46.15201" lon="6.33446">
        <ele>540.4</ele>
        <time>2020-04-15T13:00:00Z</time>
      </trkpt>
      <trkpt lat="46.15181" lon="6.33512">
        <ele>540.88</ele>
        <time>2020-04-15T13:00:03Z</time>
      </trkpt>
      <trkpt lat="46.15178" lon="6.33535">
        <ele>541.36</ele>
        <time>2020-04-15T13:00:04Z</time>
      </trkpt>
      <trkpt lat="46.15177" lon="6.33557">
        <ele>541.84</ele>
        <time>2020-04-15T13:00:05Z</time>
      </trkpt>
      <trkpt lat="46.15179" lon="6.33581">
        <ele>542.32</ele>
        <time>2020-04-15T13:00:06Z</time>
      </trkpt>
      <trkpt lat="46.15183" lon="6.33605">
        <ele>542.8</ele>
        <time>2020-04-15T13:00:07Z</time>
      </trkpt>
      <trkpt lat="46.15191" lon="6.33627">
        <ele>543.28</ele>
        <time>2020-04-15T13:00:08Z</time>
      </trkpt>
      <trkpt lat="46.15198" lon="6.33649">
        <ele>543.76</ele>
        <time>2020-04-15T13:00:09Z</time>
      </trkpt>
      <trkpt lat="46.15239" lon="6.33822">
        <ele>545.69</ele>
        <time>2020-04-15T13:00:16Z</time>
      </trkpt>
      <trkpt lat="46.15277" lon="6.33992">
        <ele>544.24</ele>
        <time>2020-04-15T13:00:23Z</time>
      </trkpt>
      <trkpt lat="46.15284" lon="6.34018">
        <ele>543.76</ele>
        <time>2020-04-15T13:00:24Z</time>
      </trkpt>
      <trkpt lat="46.15289" lon="6.34044">
        <ele>543.28</ele>
        <time>2020-04-15T13:00:25Z</time>
      </trkpt>
      <trkpt lat="46.15289" lon="6.34073">
        <ele>543.28</ele>
        <time>2020-04-15T13:00:26Z</time>
      </trkpt>
      <trkpt lat="46.15288" lon="6.34101">
        <ele>544.24</ele>
        <time>2020-04-15T13:00:27Z</time>
      </trkpt>
      <trkpt lat="46.15287" lon="6.34128">
        <ele>545.2</ele>
        <time>2020-04-15T13:00:28Z</time>
      </trkpt>
      <trkpt lat="46.15286" lon="6.34154">
        <ele>546.17</ele>
        <time>2020-04-15T13:00:29Z</time>
      </trkpt>
      <trkpt lat="46.15288" lon="6.34177">
        <ele>547.61</ele>
        <time>2020-04-15T13:00:30Z</time>
      </trkpt>
      <trkpt lat="46.15291" lon="6.34201">
        <ele>549.05</ele>
        <time>2020-04-15T13:00:31Z</time>
      </trkpt>
      <trkpt lat="46.15298" lon="6.34222">
        <ele>550.49</ele>
        <time>2020-04-15T13:00:32Z</time>
      </trkpt>
      <trkpt lat="46.15307" lon="6.34244">
        <ele>551.45</ele>
        <time>2020-04-15T13:00:33Z</time>
      </trkpt>
      <trkpt lat="46.1536" lon="6.34382">
        <ele>555.78</ele>
        <time>2020-04-15T13:00:40Z</time>
      </trkpt>
      <trkpt lat="46.15365" lon="6.34393">
        <ele>556.26</ele>
        <time>2020-04-15T13:00:41Z</time>
      </trkpt>
      <trkpt lat="46.15364" lon="6.34417">
        <ele>556.74</ele>
        <time>2020-04-15T13:00:42Z</time>
      </trkpt>
      <trkpt lat="46.15357" lon="6.34422">
        <ele>557.22</ele>
        <time>2020-04-15T13:00:43Z</time>
      </trkpt>
      <trkpt lat="46.1535" lon="6.34428">
        <ele>557.7</ele>
        <time>2020-04-15T13:00:44Z</time>
      </trkpt>
      <trkpt lat="46.15343" lon="6.34433">
        <ele>558.18</ele>
        <time>2020-04-15T13:00:45Z</time>
      </trkpt>
      <trkpt lat="46.15335" lon="6.34433">
        <ele>558.66</ele>
        <time>2020-04-15T13:00:46Z</time>
      </trkpt>
      <trkpt lat="46.15327" lon="6.34431">
        <ele>559.62</ele>
        <time>2020-04-15T13:00:47Z</time>
      </trkpt>
      <trkpt lat="46.15316" lon="6.34428">
        <ele>560.11</ele>
        <time>2020-04-15T13:00:48Z</time>
      </trkpt>
      <trkpt lat="46.15309" lon="6.34423">
        <ele>561.07</ele>
        <time>2020-04-15T13:00:49Z</time>
      </trkpt>
      <trkpt lat="46.153" lon="6.34417">
        <ele>562.03</ele>
        <time>2020-04-15T13:00:50Z</time>
      </trkpt>
      <trkpt lat="46.15292" lon="6.34411">
        <ele>562.99</ele>
        <time>2020-04-15T13:00:51Z</time>
      </trkpt>
      <trkpt lat="46.15283" lon="6.34404">
        <ele>563.47</ele>
        <time>2020-04-15T13:00:52Z</time>
      </trkpt>
      <trkpt lat="46.15272" lon="6.34389">
        <ele>565.39</ele>
        <time>2020-04-15T13:00:54Z</time>
      </trkpt>
      <trkpt lat="46.15268" lon="6.34383">
        <ele>565.87</ele>
        <time>2020-04-15T13:00:55Z</time>
      </trkpt>
      <trkpt lat="46.15263" lon="6.34381">
        <ele>566.35</ele>
        <time>2020-04-15T13:00:56Z</time>
      </trkpt>
      <trkpt lat="46.15258" lon="6.34381">
        <ele>566.83</ele>
        <time>2020-04-15T13:00:57Z</time>
      </trkpt>
      <trkpt lat="46.15251" lon="6.34371">
        <ele>567.32</ele>
        <time>2020-04-15T13:00:58Z</time>
      </trkpt>
      <trkpt lat="46.15245" lon="6.34362">
        <ele>567.8</ele>
        <time>2020-04-15T13:00:59Z</time>
      </trkpt>
      <trkpt lat="46.15237" lon="6.34351">
        <ele>567.8</ele>
        <time>2020-04-15T13:01:00Z</time>
      </trkpt>
      <trkpt lat="46.15229" lon="6.34339">
        <ele>567.8</ele>
        <time>2020-04-15T13:01:01Z</time>
      </trkpt>
      <trkpt lat="46.15222" lon="6.34326">
        <ele>567.8</ele>
        <time>2020-04-15T13:01:02Z</time>
      </trkpt>
      <trkpt lat="46.1521" lon="6.343">
        <ele>567.32</ele>
        <time>2020-04-15T13:01:05Z</time>
      </trkpt>
      <trkpt lat="46.15207" lon="6.34295">
        <ele>566.83</ele>
        <time>2020-04-15T13:01:06Z</time>
      </trkpt>
      <trkpt lat="46.15206" lon="6.34293">
        <ele>566.83</ele>
        <time>2020-04-15T13:01:07Z</time>
      </trkpt>
      <trkpt lat="46.15203" lon="6.34298">
        <ele>566.83</ele>
        <time>2020-04-15T13:01:08Z</time>
      </trkpt>
      <trkpt lat="46.152" lon="6.34302">
        <ele>566.83</ele>
        <time>2020-04-15T13:01:09Z</time>
      </trkpt>
      <trkpt lat="46.15195" lon="6.34308">
        <ele>566.83</ele>
        <time>2020-04-15T13:01:10Z</time>
      </trkpt>
      <trkpt lat="46.15188" lon="6.34317">
        <ele>566.35</ele>
        <time>2020-04-15T13:01:11Z</time>
      </trkpt>
      <trkpt lat="46.1517" lon="6.3434">
        <ele>565.87</ele>
        <time>2020-04-15T13:01:13Z</time>
      </trkpt>
      <trkpt lat="46.15158" lon="6.3436">
        <ele>565.87</ele>
        <time>2020-04-15T13:01:15Z</time>
      </trkpt>
      <trkpt lat="46.15147" lon="6.3438">
        <ele>564.43</ele>
        <time>2020-04-15T13:01:17Z</time>
      </trkpt>
      <trkpt lat="46.15114" lon="6.34434">
        <ele>563.95</ele>
        <time>2020-04-15T13:01:22Z</time>
      </trkpt>
      <trkpt lat="46.15108" lon="6.34448">
        <ele>564.43</ele>
        <time>2020-04-15T13:01:23Z</time>
      </trkpt>
      <trkpt lat="46.15059" lon="6.34555">
        <ele>568.76</ele>
        <time>2020-04-15T13:01:30Z</time>
      </trkpt>
      <trkpt lat="46.15049" lon="6.34568">
        <ele>569.72</ele>
        <time>2020-04-15T13:01:31Z</time>
      </trkpt>
      <trkpt lat="46.15039" lon="6.34579">
        <ele>570.2</ele>
        <time>2020-04-15T13:01:32Z</time>
      </trkpt>
      <trkpt lat="46.15019" lon="6.34602">
        <ele>572.6</ele>
        <time>2020-04-15T13:01:34Z</time>
      </trkpt>
      <trkpt lat="46.14989" lon="6.34638">
        <ele>575.97</ele>
        <time>2020-04-15T13:01:37Z</time>
      </trkpt>
      <trkpt lat="46.14979" lon="6.34649">
        <ele>576.93</ele>
        <time>2020-04-15T13:01:38Z</time>
      </trkpt>
      <trkpt lat="46.14969" lon="6.3466">
        <ele>577.89</ele>
        <time>2020-04-15T13:01:39Z</time>
      </trkpt>
      <trkpt lat="46.14958" lon="6.3467">
        <ele>578.85</ele>
        <time>2020-04-15T13:01:40Z</time>
      </trkpt>
      <trkpt lat="46.14946" lon="6.34678">
        <ele>579.81</ele>
        <time>2020-04-15T13:01:41Z</time>
      </trkpt>
      <trkpt lat="46.14935" lon="6.34686">
        <ele>581.25</ele>
        <time>2020-04-15T13:01:42Z</time>
      </trkpt>
      <trkpt lat="46.14924" lon="6.34693">
        <ele>582.7</ele>
        <time>2020-04-15T13:01:43Z</time>
      </trkpt>
      <trkpt lat="46.14913" lon="6.347">
        <ele>583.66</ele>
        <time>2020-04-15T13:01:44Z</time>
      </trkpt>
      <trkpt lat="46.14904" lon="6.34708">
        <ele>585.1</ele>
        <time>2020-04-15T13:01:45Z</time>
      </trkpt>
      <trkpt lat="46.14895" lon="6.3472">
        <ele>586.54</ele>
        <time>2020-04-15T13:01:46Z</time>
      </trkpt>
      <trkpt lat="46.14887" lon="6.34732">
        <ele>587.5</ele>
        <time>2020-04-15T13:01:47Z</time>
      </trkpt>
      <trkpt lat="46.14868" lon="6.34781">
        <ele>591.35</ele>
        <time>2020-04-15T13:01:50Z</time>
      </trkpt>
      <trkpt lat="46.14819" lon="6.34894">
        <ele>601.92</ele>
        <time>2020-04-15T13:01:57Z</time>
      </trkpt>
      <trkpt lat="46.14811" lon="6.34905">
        <ele>602.88</ele>
        <time>2020-04-15T13:01:58Z</time>
      </trkpt>
      <trkpt lat="46.14802" lon="6.34914">
        <ele>604.33</ele>
        <time>2020-04-15T13:01:59Z</time>
      </trkpt>
      <trkpt lat="46.14791" lon="6.34923">
        <ele>605.77</ele>
        <time>2020-04-15T13:02:00Z</time>
      </trkpt>
      <trkpt lat="46.1478" lon="6.34932">
        <ele>607.21</ele>
        <time>2020-04-15T13:02:01Z</time>
      </trkpt>
      <trkpt lat="46.14695" lon="6.35003">
        <ele>617.3</ele>
        <time>2020-04-15T13:02:09Z</time>
      </trkpt>
      <trkpt lat="46.1463" lon="6.35075">
        <ele>628.84</ele>
        <time>2020-04-15T13:02:17Z</time>
      </trkpt>
      <trkpt lat="46.14617" lon="6.35092">
        <ele>632.68</ele>
        <time>2020-04-15T13:02:20Z</time>
      </trkpt>
      <trkpt lat="46.14612" lon="6.35099">
        <ele>634.13</ele>
        <time>2020-04-15T13:02:21Z</time>
      </trkpt>
      <trkpt lat="46.14606" lon="6.35108">
        <ele>635.09</ele>
        <time>2020-04-15T13:02:22Z</time>
      </trkpt>
      <trkpt lat="46.14602" lon="6.3512">
        <ele>635.57</ele>
        <time>2020-04-15T13:02:23Z</time>
      </trkpt>
      <trkpt lat="46.14599" lon="6.35134">
        <ele>636.53</ele>
        <time>2020-04-15T13:02:24Z</time>
      </trkpt>
      <trkpt lat="46.1457" lon="6.35237">
        <ele>641.82</ele>
        <time>2020-04-15T13:02:32Z</time>
      </trkpt>
      <trkpt lat="46.14567" lon="6.35248">
        <ele>642.78</ele>
        <time>2020-04-15T13:02:33Z</time>
      </trkpt>
      <trkpt lat="46.14565" lon="6.3526">
        <ele>643.26</ele>
        <time>2020-04-15T13:02:34Z</time>
      </trkpt>
      <trkpt lat="46.14558" lon="6.35286">
        <ele>644.22</ele>
        <time>2020-04-15T13:02:36Z</time>
      </trkpt>
      <trkpt lat="46.14554" lon="6.35302">
        <ele>644.7</ele>
        <time>2020-04-15T13:02:37Z</time>
      </trkpt>
      <trkpt lat="46.14552" lon="6.3535">
        <ele>647.1</ele>
        <time>2020-04-15T13:02:40Z</time>
      </trkpt>
      <trkpt lat="46.1455" lon="6.35418">
        <ele>651.91</ele>
        <time>2020-04-15T13:02:46Z</time>
      </trkpt>
      <trkpt lat="46.14543" lon="6.35427">
        <ele>652.87</ele>
        <time>2020-04-15T13:02:47Z</time>
      </trkpt>
      <trkpt lat="46.14539" lon="6.35427">
        <ele>653.35</ele>
        <time>2020-04-15T13:02:48Z</time>
      </trkpt>
      <trkpt lat="46.14532" lon="6.35428">
        <ele>654.31</ele>
        <time>2020-04-15T13:02:49Z</time>
      </trkpt>
      <trkpt lat="46.14523" lon="6.35429">
        <ele>655.28</ele>
        <time>2020-04-15T13:02:50Z</time>
      </trkpt>
      <trkpt lat="46.14512" lon="6.3543">
        <ele>656.24</ele>
        <time>2020-04-15T13:02:51Z</time>
      </trkpt>
      <trkpt lat="46.14492" lon="6.35432">
        <ele>657.68</ele>
        <time>2020-04-15T13:02:53Z</time>
      </trkpt>
      <trkpt lat="46.14484" lon="6.35436">
        <ele>658.16</ele>
        <time>2020-04-15T13:02:54Z</time>
      </trkpt>
      <trkpt lat="46.14478" lon="6.35446">
        <ele>658.64</ele>
        <time>2020-04-15T13:02:55Z</time>
      </trkpt>
      <trkpt lat="46.14472" lon="6.35458">
        <ele>658.64</ele>
        <time>2020-04-15T13:02:56Z</time>
      </trkpt>
      <trkpt lat="46.14464" lon="6.35471">
        <ele>659.12</ele>
        <time>2020-04-15T13:02:57Z</time>
      </trkpt>
      <trkpt lat="46.14455" lon="6.35484">
        <ele>659.12</ele>
        <time>2020-04-15T13:02:58Z</time>
      </trkpt>
      <trkpt lat="46.14434" lon="6.35533">
        <ele>659.6</ele>
        <time>2020-04-15T13:03:02Z</time>
      </trkpt>
      <trkpt lat="46.1443" lon="6.35545">
        <ele>659.6</ele>
        <time>2020-04-15T13:03:03Z</time>
      </trkpt>
      <trkpt lat="46.14424" lon="6.35569">
        <ele>660.08</ele>
        <time>2020-04-15T13:03:05Z</time>
      </trkpt>
      <trkpt lat="46.14422" lon="6.35582">
        <ele>660.08</ele>
        <time>2020-04-15T13:03:06Z</time>
      </trkpt>
      <trkpt lat="46.14421" lon="6.35594">
        <ele>660.08</ele>
        <time>2020-04-15T13:03:07Z</time>
      </trkpt>
      <trkpt lat="46.14422" lon="6.35606">
        <ele>660.56</ele>
        <time>2020-04-15T13:03:08Z</time>
      </trkpt>
      <trkpt lat="46.14423" lon="6.35619">
        <ele>661.04</ele>
        <time>2020-04-15T13:03:09Z</time>
      </trkpt>
      <trkpt lat="46.14423" lon="6.35631">
        <ele>661.04</ele>
        <time>2020-04-15T13:03:10Z</time>
      </trkpt>
      <trkpt lat="46.14421" lon="6.3565">
        <ele>661.52</ele>
        <time>2020-04-15T13:03:12Z</time>
      </trkpt>
      <trkpt lat="46.14421" lon="6.35656">
        <ele>661.52</ele>
        <time>2020-04-15T13:03:13Z</time>
      </trkpt>
      <trkpt lat="46.14421" lon="6.3566">
        <ele>662.01</ele>
        <time>2020-04-15T13:03:14Z</time>
      </trkpt>
      <trkpt lat="46.1442" lon="6.35666">
        <ele>662.49</ele>
        <time>2020-04-15T13:03:15Z</time>
      </trkpt>
      <trkpt lat="46.1442" lon="6.35671">
        <ele>662.97</ele>
        <time>2020-04-15T13:03:16Z</time>
      </trkpt>
      <trkpt lat="46.14419" lon="6.35676">
        <ele>662.97</ele>
        <time>2020-04-15T13:03:17Z</time>
      </trkpt>
      <trkpt lat="46.14419" lon="6.35679">
        <ele>663.45</ele>
        <time>2020-04-15T13:03:18Z</time>
      </trkpt>
      <trkpt lat="46.14419" lon="6.35683">
        <ele>663.45</ele>
        <time>2020-04-15T13:03:27Z</time>
      </trkpt>
      <trkpt lat="46.14415" lon="6.35699">
        <ele>663.45</ele>
        <time>2020-04-15T13:03:30Z</time>
      </trkpt>
      <trkpt lat="46.14413" lon="6.35704">
        <ele>663.93</ele>
        <time>2020-04-15T13:03:31Z</time>
      </trkpt>
      <trkpt lat="46.14412" lon="6.35707">
        <ele>663.45</ele>
        <time>2020-04-15T13:03:32Z</time>
      </trkpt>
      <trkpt lat="46.14415" lon="6.35699">
        <ele>663.45</ele>
        <time>2020-04-15T13:03:35Z</time>
      </trkpt>
      <trkpt lat="46.14419" lon="6.35684">
        <ele>663.45</ele>
        <time>2020-04-15T13:03:36Z</time>
      </trkpt>
      <trkpt lat="46.14419" lon="6.35684">
        <ele>663.45</ele>
        <time>2020-04-15T13:03:37Z</time>
      </trkpt>
      <trkpt lat="46.1442" lon="6.35671">
        <ele>663.45</ele>
        <time>2020-04-15T13:03:38Z</time>
      </trkpt>
      <trkpt lat="46.14421" lon="6.35656">
        <ele>663.45</ele>
        <time>2020-04-15T13:03:39Z</time>
      </trkpt>
      <trkpt lat="46.14422" lon="6.35639">
        <ele>662.97</ele>
        <time>2020-04-15T13:03:40Z</time>
      </trkpt>
      <trkpt lat="46.14421" lon="6.35591">
        <ele>661.04</ele>
        <time>2020-04-15T13:03:43Z</time>
      </trkpt>
      <trkpt lat="46.14423" lon="6.35579">
        <ele>660.56</ele>
        <time>2020-04-15T13:03:44Z</time>
      </trkpt>
      <trkpt lat="46.14428" lon="6.35551">
        <ele>659.12</ele>
        <time>2020-04-15T13:03:46Z</time>
      </trkpt>
      <trkpt lat="46.14432" lon="6.35538">
        <ele>658.64</ele>
        <time>2020-04-15T13:03:47Z</time>
      </trkpt>
      <trkpt lat="46.14476" lon="6.3545">
        <ele>655.76</ele>
        <time>2020-04-15T13:03:55Z</time>
      </trkpt>
      <trkpt lat="46.1448" lon="6.35442">
        <ele>655.28</ele>
        <time>2020-04-15T13:03:57Z</time>
      </trkpt>
      <trkpt lat="46.1448" lon="6.35442">
        <ele>654.8</ele>
        <time>2020-04-15T13:04:01Z</time>
      </trkpt>
      <trkpt lat="46.14476" lon="6.35432">
        <ele>654.31</ele>
        <time>2020-04-15T13:04:02Z</time>
      </trkpt>
      <trkpt lat="46.14473" lon="6.35432">
        <ele>654.31</ele>
        <time>2020-04-15T13:04:03Z</time>
      </trkpt>
      <trkpt lat="46.14468" lon="6.35432">
        <ele>654.31</ele>
        <time>2020-04-15T13:04:04Z</time>
      </trkpt>
      <trkpt lat="46.1446" lon="6.35432">
        <ele>654.8</ele>
        <time>2020-04-15T13:04:05Z</time>
      </trkpt>
      <trkpt lat="46.1445" lon="6.35431">
        <ele>655.28</ele>
        <time>2020-04-15T13:04:06Z</time>
      </trkpt>
      <trkpt lat="46.14438" lon="6.35431">
        <ele>656.24</ele>
        <time>2020-04-15T13:04:07Z</time>
      </trkpt>
      <trkpt lat="46.14427" lon="6.35429">
        <ele>657.2</ele>
        <time>2020-04-15T13:04:08Z</time>
      </trkpt>
      <trkpt lat="46.14416" lon="6.35426">
        <ele>658.16</ele>
        <time>2020-04-15T13:04:09Z</time>
      </trkpt>
      <trkpt lat="46.14407" lon="6.35424">
        <ele>659.12</ele>
        <time>2020-04-15T13:04:10Z</time>
      </trkpt>
      <trkpt lat="46.14397" lon="6.35421">
        <ele>660.56</ele>
        <time>2020-04-15T13:04:11Z</time>
      </trkpt>
      <trkpt lat="46.14388" lon="6.35421">
        <ele>661.52</ele>
        <time>2020-04-15T13:04:12Z</time>
      </trkpt>
      <trkpt lat="46.14378" lon="6.35423">
        <ele>662.49</ele>
        <time>2020-04-15T13:04:13Z</time>
      </trkpt>
      <trkpt lat="46.14368" lon="6.35426">
        <ele>663.93</ele>
        <time>2020-04-15T13:04:14Z</time>
      </trkpt>
      <trkpt lat="46.14357" lon="6.35429">
        <ele>665.37</ele>
        <time>2020-04-15T13:04:15Z</time>
      </trkpt>
      <trkpt lat="46.14346" lon="6.35432">
        <ele>666.81</ele>
        <time>2020-04-15T13:04:16Z</time>
      </trkpt>
      <trkpt lat="46.14335" lon="6.35435">
        <ele>667.77</ele>
        <time>2020-04-15T13:04:17Z</time>
      </trkpt>
      <trkpt lat="46.14325" lon="6.35438">
        <ele>668.73</ele>
        <time>2020-04-15T13:04:18Z</time>
      </trkpt>
      <trkpt lat="46.14314" lon="6.35441">
        <ele>668.73</ele>
        <time>2020-04-15T13:04:19Z</time>
      </trkpt>
      <trkpt lat="46.1426" lon="6.35456">
        <ele>668.73</ele>
        <time>2020-04-15T13:04:24Z</time>
      </trkpt>
      <trkpt lat="46.14239" lon="6.35464">
        <ele>668.73</ele>
        <time>2020-04-15T13:04:26Z</time>
      </trkpt>
      <trkpt lat="46.14097" lon="6.35525">
        <ele>672.58</ele>
        <time>2020-04-15T13:04:38Z</time>
      </trkpt>
      <trkpt lat="46.13964" lon="6.35592">
        <ele>675.94</ele>
        <time>2020-04-15T13:04:49Z</time>
      </trkpt>
      <trkpt lat="46.13951" lon="6.35592">
        <ele>676.42</ele>
        <time>2020-04-15T13:04:50Z</time>
      </trkpt>
      <trkpt lat="46.13831" lon="6.356">
        <ele>681.71</ele>
        <time>2020-04-15T13:04:59Z</time>
      </trkpt>
      <trkpt lat="46.13818" lon="6.35604">
        <ele>682.19</ele>
        <time>2020-04-15T13:05:00Z</time>
      </trkpt>
      <trkpt lat="46.13806" lon="6.35611">
        <ele>683.15</ele>
        <time>2020-04-15T13:05:01Z</time>
      </trkpt>
      <trkpt lat="46.13793" lon="6.35619">
        <ele>684.12</ele>
        <time>2020-04-15T13:05:02Z</time>
      </trkpt>
      <trkpt lat="46.13779" lon="6.35628">
        <ele>685.08</ele>
        <time>2020-04-15T13:05:03Z</time>
      </trkpt>
      <trkpt lat="46.13764" lon="6.35636">
        <ele>685.56</ele>
        <time>2020-04-15T13:05:04Z</time>
      </trkpt>
      <trkpt lat="46.13705" lon="6.35674">
        <ele>688.44</ele>
        <time>2020-04-15T13:05:08Z</time>
      </trkpt>
      <trkpt lat="46.13687" lon="6.35679">
        <ele>688.92</ele>
        <time>2020-04-15T13:05:09Z</time>
      </trkpt>
      <trkpt lat="46.13667" lon="6.35684">
        <ele>689.4</ele>
        <time>2020-04-15T13:05:10Z</time>
      </trkpt>
      <trkpt lat="46.1363" lon="6.35694">
        <ele>690.36</ele>
        <time>2020-04-15T13:05:12Z</time>
      </trkpt>
      <trkpt lat="46.13612" lon="6.35703">
        <ele>690.84</ele>
        <time>2020-04-15T13:05:13Z</time>
      </trkpt>
      <trkpt lat="46.13595" lon="6.35717">
        <ele>691.33</ele>
        <time>2020-04-15T13:05:14Z</time>
      </trkpt>
      <trkpt lat="46.13576" lon="6.3573">
        <ele>691.81</ele>
        <time>2020-04-15T13:05:15Z</time>
      </trkpt>
      <trkpt lat="46.13556" lon="6.35742">
        <ele>691.81</ele>
        <time>2020-04-15T13:05:16Z</time>
      </trkpt>
      <trkpt lat="46.13534" lon="6.35751">
        <ele>692.77</ele>
        <time>2020-04-15T13:05:17Z</time>
      </trkpt>
      <trkpt lat="46.13513" lon="6.3576">
        <ele>693.25</ele>
        <time>2020-04-15T13:05:18Z</time>
      </trkpt>
      <trkpt lat="46.13426" lon="6.35795">
        <ele>695.17</ele>
        <time>2020-04-15T13:05:22Z</time>
      </trkpt>
      <trkpt lat="46.13404" lon="6.35797">
        <ele>695.65</ele>
        <time>2020-04-15T13:05:23Z</time>
      </trkpt>
      <trkpt lat="46.13293" lon="6.35809">
        <ele>694.69</ele>
        <time>2020-04-15T13:05:29Z</time>
      </trkpt>
      <trkpt lat="46.13258" lon="6.35821">
        <ele>694.21</ele>
        <time>2020-04-15T13:05:31Z</time>
      </trkpt>
      <trkpt lat="46.13145" lon="6.35859">
        <ele>692.77</ele>
        <time>2020-04-15T13:05:36Z</time>
      </trkpt>
      <trkpt lat="46.13105" lon="6.35877">
        <ele>692.77</ele>
        <time>2020-04-15T13:05:38Z</time>
      </trkpt>
      <trkpt lat="46.13084" lon="6.35894">
        <ele>692.77</ele>
        <time>2020-04-15T13:05:39Z</time>
      </trkpt>
      <trkpt lat="46.13062" lon="6.35912">
        <ele>692.29</ele>
        <time>2020-04-15T13:05:40Z</time>
      </trkpt>
      <trkpt lat="46.12921" lon="6.36032">
        <ele>694.69</ele>
        <time>2020-04-15T13:05:47Z</time>
      </trkpt>
      <trkpt lat="46.12906" lon="6.36053">
        <ele>694.69</ele>
        <time>2020-04-15T13:05:48Z</time>
      </trkpt>
      <trkpt lat="46.12892" lon="6.36076">
        <ele>695.17</ele>
        <time>2020-04-15T13:05:49Z</time>
      </trkpt>
      <trkpt lat="46.1281" lon="6.36208">
        <ele>695.17</ele>
        <time>2020-04-15T13:05:56Z</time>
      </trkpt>
      <trkpt lat="46.12802" lon="6.36216">
        <ele>695.17</ele>
        <time>2020-04-15T13:05:57Z</time>
      </trkpt>
      <trkpt lat="46.12797" lon="6.36223">
        <ele>695.17</ele>
        <time>2020-04-15T13:05:58Z</time>
      </trkpt>
      <trkpt lat="46.12792" lon="6.36228">
        <ele>695.17</ele>
        <time>2020-04-15T13:05:59Z</time>
      </trkpt>
      <trkpt lat="46.12785" lon="6.36225">
        <ele>694.69</ele>
        <time>2020-04-15T13:06:00Z</time>
      </trkpt>
      <trkpt lat="46.12778" lon="6.36218">
        <ele>694.69</ele>
        <time>2020-04-15T13:06:01Z</time>
      </trkpt>
      <trkpt lat="46.12767" lon="6.36208">
        <ele>694.69</ele>
        <time>2020-04-15T13:06:02Z</time>
      </trkpt>
      <trkpt lat="46.12735" lon="6.36179">
        <ele>694.21</ele>
        <time>2020-04-15T13:06:04Z</time>
      </trkpt>
      <trkpt lat="46.12715" lon="6.36166">
        <ele>693.73</ele>
        <time>2020-04-15T13:06:05Z</time>
      </trkpt>
      <trkpt lat="46.12693" lon="6.36156">
        <ele>692.77</ele>
        <time>2020-04-15T13:06:06Z</time>
      </trkpt>
      <trkpt lat="46.12672" lon="6.3615">
        <ele>691.81</ele>
        <time>2020-04-15T13:06:07Z</time>
      </trkpt>
      <trkpt lat="46.12651" lon="6.36146">
        <ele>690.84</ele>
        <time>2020-04-15T13:06:08Z</time>
      </trkpt>
      <trkpt lat="46.12632" lon="6.36144">
        <ele>689.88</ele>
        <time>2020-04-15T13:06:09Z</time>
      </trkpt>
      <trkpt lat="46.12479" lon="6.36137">
        <ele>680.75</ele>
        <time>2020-04-15T13:06:18Z</time>
      </trkpt>
      <trkpt lat="46.12391" lon="6.36125">
        <ele>673.06</ele>
        <time>2020-04-15T13:06:26Z</time>
      </trkpt>
      <trkpt lat="46.12376" lon="6.36119">
        <ele>671.14</ele>
        <time>2020-04-15T13:06:29Z</time>
      </trkpt>
      <trkpt lat="46.12373" lon="6.36117">
        <ele>670.66</ele>
        <time>2020-04-15T13:06:30Z</time>
      </trkpt>
      <trkpt lat="46.12371" lon="6.36116">
        <ele>670.18</ele>
        <time>2020-04-15T13:06:31Z</time>
      </trkpt>
      <trkpt lat="46.12375" lon="6.36097">
        <ele>668.73</ele>
        <time>2020-04-15T13:06:34Z</time>
      </trkpt>
      <trkpt lat="46.1238" lon="6.36121">
        <ele>667.29</ele>
        <time>2020-04-15T13:06:39Z</time>
      </trkpt>
      <trkpt lat="46.1238" lon="6.36121">
        <ele>666.81</ele>
        <time>2020-04-15T13:06:40Z</time>
      </trkpt>
      <trkpt lat="46.1238" lon="6.36121">
        <ele>666.33</ele>
        <time>2020-04-15T13:06:41Z</time>
      </trkpt>
      <trkpt lat="46.1238" lon="6.36121">
        <ele>665.85</ele>
        <time>2020-04-15T13:06:52Z</time>
      </trkpt>
      <trkpt lat="46.12382" lon="6.36114">
        <ele>700.46</ele>
        <time>2020-04-15T14:20:28Z</time>
      </trkpt>
      <trkpt lat="46.12387" lon="6.36098">
        <ele>670.66</ele>
        <time>2020-04-15T14:20:44Z</time>
      </trkpt>
      <trkpt lat="46.1238" lon="6.36121">
        <ele>670.66</ele>
        <time>2020-04-15T14:20:50Z</time>
      </trkpt>
      <trkpt lat="46.12374" lon="6.36117">
        <ele>670.66</ele>
        <time>2020-04-15T14:20:51Z</time>
      </trkpt>
      <trkpt lat="46.1238" lon="6.36121">
        <ele>671.14</ele>
        <time>2020-04-15T14:20:54Z</time>
      </trkpt>
      <trkpt lat="46.12384" lon="6.36123">
        <ele>672.58</ele>
        <time>2020-04-15T14:21:00Z</time>
      </trkpt>
      <trkpt lat="46.12391" lon="6.36125">
        <ele>673.06</ele>
        <time>2020-04-15T14:21:02Z</time>
      </trkpt>
      <trkpt lat="46.12498" lon="6.36139">
        <ele>681.71</ele>
        <time>2020-04-15T14:21:10Z</time>
      </trkpt>
      <trkpt lat="46.12511" lon="6.36141">
        <ele>682.19</ele>
        <time>2020-04-15T14:21:11Z</time>
      </trkpt>
      <trkpt lat="46.1254" lon="6.36142">
        <ele>683.63</ele>
        <time>2020-04-15T14:21:13Z</time>
      </trkpt>
      <trkpt lat="46.12675" lon="6.36151">
        <ele>687.96</ele>
        <time>2020-04-15T14:21:21Z</time>
      </trkpt>
      <trkpt lat="46.1271" lon="6.36163">
        <ele>689.4</ele>
        <time>2020-04-15T14:21:23Z</time>
      </trkpt>
      <trkpt lat="46.12724" lon="6.36172">
        <ele>690.36</ele>
        <time>2020-04-15T14:21:24Z</time>
      </trkpt>
      <trkpt lat="46.12737" lon="6.36181">
        <ele>690.84</ele>
        <time>2020-04-15T14:21:25Z</time>
      </trkpt>
      <trkpt lat="46.1275" lon="6.3619">
        <ele>691.81</ele>
        <time>2020-04-15T14:21:26Z</time>
      </trkpt>
      <trkpt lat="46.1276" lon="6.36201">
        <ele>692.29</ele>
        <time>2020-04-15T14:21:27Z</time>
      </trkpt>
      <trkpt lat="46.12782" lon="6.36223">
        <ele>695.65</ele>
        <time>2020-04-15T14:21:32Z</time>
      </trkpt>
      <trkpt lat="46.1279" lon="6.36231">
        <ele>697.09</ele>
        <time>2020-04-15T14:21:35Z</time>
      </trkpt>
      <trkpt lat="46.12793" lon="6.36228">
        <ele>698.05</ele>
        <time>2020-04-15T14:21:36Z</time>
      </trkpt>
      <trkpt lat="46.12798" lon="6.36221">
        <ele>699.02</ele>
        <time>2020-04-15T14:21:37Z</time>
      </trkpt>
      <trkpt lat="46.12848" lon="6.36143">
        <ele>701.42</ele>
        <time>2020-04-15T14:21:42Z</time>
      </trkpt>
      <trkpt lat="46.12923" lon="6.36029">
        <ele>702.38</ele>
        <time>2020-04-15T14:21:49Z</time>
      </trkpt>
      <trkpt lat="46.13072" lon="6.35904">
        <ele>698.53</ele>
        <time>2020-04-15T14:21:57Z</time>
      </trkpt>
      <trkpt lat="46.1309" lon="6.35889">
        <ele>696.61</ele>
        <time>2020-04-15T14:21:59Z</time>
      </trkpt>
      <trkpt lat="46.13108" lon="6.35876">
        <ele>695.17</ele>
        <time>2020-04-15T14:22:00Z</time>
      </trkpt>
      <trkpt lat="46.133" lon="6.35808">
        <ele>689.4</ele>
        <time>2020-04-15T14:22:08Z</time>
      </trkpt>
      <trkpt lat="46.13414" lon="6.35796">
        <ele>690.36</ele>
        <time>2020-04-15T14:22:13Z</time>
      </trkpt>
      <trkpt lat="46.13435" lon="6.35793">
        <ele>690.84</ele>
        <time>2020-04-15T14:22:14Z</time>
      </trkpt>
      <trkpt lat="46.13547" lon="6.35746">
        <ele>691.33</ele>
        <time>2020-04-15T14:22:20Z</time>
      </trkpt>
      <trkpt lat="46.13565" lon="6.35738">
        <ele>690.84</ele>
        <time>2020-04-15T14:22:21Z</time>
      </trkpt>
      <trkpt lat="46.13581" lon="6.35727">
        <ele>690.36</ele>
        <time>2020-04-15T14:22:22Z</time>
      </trkpt>
      <trkpt lat="46.13596" lon="6.35716">
        <ele>690.36</ele>
        <time>2020-04-15T14:22:23Z</time>
      </trkpt>
      <trkpt lat="46.1361" lon="6.35705">
        <ele>689.88</ele>
        <time>2020-04-15T14:22:24Z</time>
      </trkpt>
      <trkpt lat="46.13625" lon="6.35695">
        <ele>689.4</ele>
        <time>2020-04-15T14:22:25Z</time>
      </trkpt>
      <trkpt lat="46.13642" lon="6.35691">
        <ele>688.92</ele>
        <time>2020-04-15T14:22:26Z</time>
      </trkpt>
      <trkpt lat="46.13659" lon="6.35686">
        <ele>688.44</ele>
        <time>2020-04-15T14:22:27Z</time>
      </trkpt>
      <trkpt lat="46.13707" lon="6.35673">
        <ele>687</ele>
        <time>2020-04-15T14:22:30Z</time>
      </trkpt>
      <trkpt lat="46.13722" lon="6.35667">
        <ele>686.52</ele>
        <time>2020-04-15T14:22:31Z</time>
      </trkpt>
      <trkpt lat="46.138" lon="6.35615">
        <ele>682.67</ele>
        <time>2020-04-15T14:22:38Z</time>
      </trkpt>
      <trkpt lat="46.13811" lon="6.35608">
        <ele>682.67</ele>
        <time>2020-04-15T14:22:39Z</time>
      </trkpt>
      <trkpt lat="46.13822" lon="6.35602">
        <ele>682.67</ele>
        <time>2020-04-15T14:22:40Z</time>
      </trkpt>
      <trkpt lat="46.13835" lon="6.35599">
        <ele>682.19</ele>
        <time>2020-04-15T14:22:41Z</time>
      </trkpt>
      <trkpt lat="46.13849" lon="6.35598">
        <ele>681.71</ele>
        <time>2020-04-15T14:22:42Z</time>
      </trkpt>
      <trkpt lat="46.13863" lon="6.35598">
        <ele>681.23</ele>
        <time>2020-04-15T14:22:43Z</time>
      </trkpt>
      <trkpt lat="46.13968" lon="6.35591">
        <ele>677.39</ele>
        <time>2020-04-15T14:22:51Z</time>
      </trkpt>
      <trkpt lat="46.14068" lon="6.35541">
        <ele>671.62</ele>
        <time>2020-04-15T14:23:00Z</time>
      </trkpt>
      <trkpt lat="46.14203" lon="6.35476">
        <ele>666.81</ele>
        <time>2020-04-15T14:23:09Z</time>
      </trkpt>
      <trkpt lat="46.14215" lon="6.35472">
        <ele>666.33</ele>
        <time>2020-04-15T14:23:10Z</time>
      </trkpt>
      <trkpt lat="46.14227" lon="6.35468">
        <ele>665.85</ele>
        <time>2020-04-15T14:23:11Z</time>
      </trkpt>
      <trkpt lat="46.14301" lon="6.35445">
        <ele>662.49</ele>
        <time>2020-04-15T14:23:18Z</time>
      </trkpt>
      <trkpt lat="46.14357" lon="6.35429">
        <ele>661.52</ele>
        <time>2020-04-15T14:23:23Z</time>
      </trkpt>
      <trkpt lat="46.14396" lon="6.35421">
        <ele>661.04</ele>
        <time>2020-04-15T14:23:27Z</time>
      </trkpt>
      <trkpt lat="46.14406" lon="6.35424">
        <ele>661.04</ele>
        <time>2020-04-15T14:23:28Z</time>
      </trkpt>
      <trkpt lat="46.14445" lon="6.35431">
        <ele>660.08</ele>
        <time>2020-04-15T14:23:33Z</time>
      </trkpt>
      <trkpt lat="46.14461" lon="6.35432">
        <ele>659.6</ele>
        <time>2020-04-15T14:23:35Z</time>
      </trkpt>
      <trkpt lat="46.14473" lon="6.35432">
        <ele>659.6</ele>
        <time>2020-04-15T14:23:36Z</time>
      </trkpt>
      <trkpt lat="46.14478" lon="6.35432">
        <ele>659.12</ele>
        <time>2020-04-15T14:23:37Z</time>
      </trkpt>
      <trkpt lat="46.14529" lon="6.35428">
        <ele>657.2</ele>
        <time>2020-04-15T14:23:43Z</time>
      </trkpt>
      <trkpt lat="46.14543" lon="6.35427">
        <ele>656.24</ele>
        <time>2020-04-15T14:23:45Z</time>
      </trkpt>
      <trkpt lat="46.1455" lon="6.35426">
        <ele>655.28</ele>
        <time>2020-04-15T14:23:47Z</time>
      </trkpt>
      <trkpt lat="46.1455" lon="6.35421">
        <ele>654.8</ele>
        <time>2020-04-15T14:23:48Z</time>
      </trkpt>
      <trkpt lat="46.1455" lon="6.35413">
        <ele>654.31</ele>
        <time>2020-04-15T14:23:49Z</time>
      </trkpt>
      <trkpt lat="46.14551" lon="6.35401">
        <ele>653.83</ele>
        <time>2020-04-15T14:23:50Z</time>
      </trkpt>
      <trkpt lat="46.14551" lon="6.35376">
        <ele>652.39</ele>
        <time>2020-04-15T14:23:52Z</time>
      </trkpt>
      <trkpt lat="46.14561" lon="6.35276">
        <ele>647.59</ele>
        <time>2020-04-15T14:23:58Z</time>
      </trkpt>
      <trkpt lat="46.14596" lon="6.35144">
        <ele>640.38</ele>
        <time>2020-04-15T14:24:07Z</time>
      </trkpt>
      <trkpt lat="46.14605" lon="6.3511">
        <ele>637.97</ele>
        <time>2020-04-15T14:24:10Z</time>
      </trkpt>
      <trkpt lat="46.14611" lon="6.351">
        <ele>637.49</ele>
        <time>2020-04-15T14:24:11Z</time>
      </trkpt>
      <trkpt lat="46.14619" lon="6.3509">
        <ele>637.01</ele>
        <time>2020-04-15T14:24:12Z</time>
      </trkpt>
      <trkpt lat="46.14712" lon="6.34989">
        <ele>626.44</ele>
        <time>2020-04-15T14:24:22Z</time>
      </trkpt>
      <trkpt lat="46.14809" lon="6.34906">
        <ele>611.54</ele>
        <time>2020-04-15T14:24:32Z</time>
      </trkpt>
      <trkpt lat="46.14819" lon="6.34894">
        <ele>610.57</ele>
        <time>2020-04-15T14:24:33Z</time>
      </trkpt>
      <trkpt lat="46.14877" lon="6.34755">
        <ele>599.52</ele>
        <time>2020-04-15T14:24:41Z</time>
      </trkpt>
      <trkpt lat="46.14893" lon="6.34723">
        <ele>598.08</ele>
        <time>2020-04-15T14:24:42Z</time>
      </trkpt>
      <trkpt lat="46.14902" lon="6.3471">
        <ele>595.19</ele>
        <time>2020-04-15T14:24:44Z</time>
      </trkpt>
      <trkpt lat="46.14924" lon="6.34693">
        <ele>593.75</ele>
        <time>2020-04-15T14:24:45Z</time>
      </trkpt>
      <trkpt lat="46.14961" lon="6.34669">
        <ele>586.54</ele>
        <time>2020-04-15T14:24:49Z</time>
      </trkpt>
      <trkpt lat="46.14972" lon="6.34657">
        <ele>584.62</ele>
        <time>2020-04-15T14:24:50Z</time>
      </trkpt>
      <trkpt lat="46.15015" lon="6.34607">
        <ele>578.85</ele>
        <time>2020-04-15T14:24:54Z</time>
      </trkpt>
      <trkpt lat="46.15057" lon="6.34558">
        <ele>574.53</ele>
        <time>2020-04-15T14:24:58Z</time>
      </trkpt>
      <trkpt lat="46.15073" lon="6.34528">
        <ele>572.12</ele>
        <time>2020-04-15T14:25:00Z</time>
      </trkpt>
      <trkpt lat="46.15139" lon="6.34393">
        <ele>562.51</ele>
        <time>2020-04-15T14:25:09Z</time>
      </trkpt>
      <trkpt lat="46.15146" lon="6.34381">
        <ele>561.07</ele>
        <time>2020-04-15T14:25:10Z</time>
      </trkpt>
      <trkpt lat="46.15153" lon="6.3437">
        <ele>559.62</ele>
        <time>2020-04-15T14:25:11Z</time>
      </trkpt>
      <trkpt lat="46.15179" lon="6.34329">
        <ele>555.78</ele>
        <time>2020-04-15T14:25:15Z</time>
      </trkpt>
      <trkpt lat="46.15202" lon="6.34299">
        <ele>554.82</ele>
        <time>2020-04-15T14:25:21Z</time>
      </trkpt>
      <trkpt lat="46.15207" lon="6.34294">
        <ele>554.34</ele>
        <time>2020-04-15T14:25:23Z</time>
      </trkpt>
      <trkpt lat="46.15208" lon="6.34297">
        <ele>554.34</ele>
        <time>2020-04-15T14:25:24Z</time>
      </trkpt>
      <trkpt lat="46.15213" lon="6.34308">
        <ele>554.34</ele>
        <time>2020-04-15T14:25:25Z</time>
      </trkpt>
      <trkpt lat="46.15244" lon="6.34361">
        <ele>557.22</ele>
        <time>2020-04-15T14:25:31Z</time>
      </trkpt>
      <trkpt lat="46.15251" lon="6.3437">
        <ele>558.66</ele>
        <time>2020-04-15T14:25:33Z</time>
      </trkpt>
      <trkpt lat="46.15254" lon="6.34375">
        <ele>559.62</ele>
        <time>2020-04-15T14:25:34Z</time>
      </trkpt>
      <trkpt lat="46.15258" lon="6.34381">
        <ele>560.11</ele>
        <time>2020-04-15T14:25:35Z</time>
      </trkpt>
      <trkpt lat="46.15269" lon="6.34385">
        <ele>561.55</ele>
        <time>2020-04-15T14:25:37Z</time>
      </trkpt>
      <trkpt lat="46.15324" lon="6.3443">
        <ele>563.95</ele>
        <time>2020-04-15T14:25:42Z</time>
      </trkpt>
      <trkpt lat="46.15333" lon="6.34433">
        <ele>563.47</ele>
        <time>2020-04-15T14:25:43Z</time>
      </trkpt>
      <trkpt lat="46.15342" lon="6.34435">
        <ele>562.99</ele>
        <time>2020-04-15T14:25:44Z</time>
      </trkpt>
      <trkpt lat="46.15348" lon="6.3443">
        <ele>562.51</ele>
        <time>2020-04-15T14:25:45Z</time>
      </trkpt>
      <trkpt lat="46.15354" lon="6.34425">
        <ele>561.55</ele>
        <time>2020-04-15T14:25:46Z</time>
      </trkpt>
      <trkpt lat="46.1536" lon="6.3442">
        <ele>560.59</ele>
        <time>2020-04-15T14:25:47Z</time>
      </trkpt>
      <trkpt lat="46.15366" lon="6.34415">
        <ele>557.7</ele>
        <time>2020-04-15T14:25:53Z</time>
      </trkpt>
      <trkpt lat="46.15371" lon="6.3441">
        <ele>555.78</ele>
        <time>2020-04-15T14:25:56Z</time>
      </trkpt>
      <trkpt lat="46.15368" lon="6.34402">
        <ele>554.34</ele>
        <time>2020-04-15T14:25:58Z</time>
      </trkpt>
      <trkpt lat="46.15357" lon="6.34374">
        <ele>553.38</ele>
        <time>2020-04-15T14:25:59Z</time>
      </trkpt>
      <trkpt lat="46.15311" lon="6.34256">
        <ele>550.01</ele>
        <time>2020-04-15T14:26:04Z</time>
      </trkpt>
      <trkpt lat="46.15292" lon="6.34205">
        <ele>549.05</ele>
        <time>2020-04-15T14:26:06Z</time>
      </trkpt>
      <trkpt lat="46.15288" lon="6.34178">
        <ele>548.09</ele>
        <time>2020-04-15T14:26:07Z</time>
      </trkpt>
      <trkpt lat="46.15286" lon="6.3415">
        <ele>547.61</ele>
        <time>2020-04-15T14:26:08Z</time>
      </trkpt>
      <trkpt lat="46.15287" lon="6.34122">
        <ele>546.65</ele>
        <time>2020-04-15T14:26:09Z</time>
      </trkpt>
      <trkpt lat="46.15288" lon="6.34092">
        <ele>545.2</ele>
        <time>2020-04-15T14:26:10Z</time>
      </trkpt>
      <trkpt lat="46.1529" lon="6.34061">
        <ele>543.76</ele>
        <time>2020-04-15T14:26:11Z</time>
      </trkpt>
      <trkpt lat="46.15287" lon="6.34031">
        <ele>541.84</ele>
        <time>2020-04-15T14:26:13Z</time>
      </trkpt>
      <trkpt lat="46.15228" lon="6.3376">
        <ele>541.36</ele>
        <time>2020-04-15T14:26:20Z</time>
      </trkpt>
      <trkpt lat="46.15214" lon="6.33696">
        <ele>540.88</ele>
        <time>2020-04-15T14:26:22Z</time>
      </trkpt>
      <trkpt lat="46.15204" lon="6.33667">
        <ele>540.88</ele>
        <time>2020-04-15T14:26:23Z</time>
      </trkpt>
      <trkpt lat="46.15179" lon="6.33584">
        <ele>539.92</ele>
        <time>2020-04-15T14:26:26Z</time>
      </trkpt>
      <trkpt lat="46.15177" lon="6.33556">
        <ele>539.44</ele>
        <time>2020-04-15T14:26:27Z</time>
      </trkpt>
      <trkpt lat="46.15179" lon="6.33528">
        <ele>538.48</ele>
        <time>2020-04-15T14:26:28Z</time>
      </trkpt>
      <trkpt lat="46.15183" lon="6.335">
        <ele>537.99</ele>
        <time>2020-04-15T14:26:29Z</time>
      </trkpt>
      <trkpt lat="46.15191" lon="6.33474">
        <ele>537.51</ele>
        <time>2020-04-15T14:26:30Z</time>
      </trkpt>
      <trkpt lat="46.15201" lon="6.33446">
        <ele>537.03</ele>
        <time>2020-04-15T14:26:31Z</time>
      </trkpt>
      <trkpt lat="46.15225" lon="6.33368">
        <ele>536.55</ele>
        <time>2020-04-15T14:26:34Z</time>
      </trkpt>
      <trkpt lat="46.1523" lon="6.33342">
        <ele>537.03</ele>
        <time>2020-04-15T14:26:35Z</time>
      </trkpt>
      <trkpt lat="46.1523" lon="6.33317">
        <ele>537.03</ele>
        <time>2020-04-15T14:26:36Z</time>
      </trkpt>
      <trkpt lat="46.15225" lon="6.33292">
        <ele>537.03</ele>
        <time>2020-04-15T14:26:37Z</time>
      </trkpt>
      <trkpt lat="46.15218" lon="6.33269">
        <ele>537.03</ele>
        <time>2020-04-15T14:26:38Z</time>
      </trkpt>
      <trkpt lat="46.15206" lon="6.33248">
        <ele>537.03</ele>
        <time>2020-04-15T14:26:39Z</time>
      </trkpt>
      <trkpt lat="46.15191" lon="6.3322">
        <ele>537.03</ele>
        <time>2020-04-15T14:26:40Z</time>
      </trkpt>
      <trkpt lat="46.15177" lon="6.33205">
        <ele>536.55</ele>
        <time>2020-04-15T14:26:41Z</time>
      </trkpt>
      <trkpt lat="46.15158" lon="6.33185">
        <ele>536.07</ele>
        <time>2020-04-15T14:26:42Z</time>
      </trkpt>
      <trkpt lat="46.1512" lon="6.33137">
        <ele>533.67</ele>
        <time>2020-04-15T14:26:44Z</time>
      </trkpt>
      <trkpt lat="46.15101" lon="6.33109">
        <ele>532.23</ele>
        <time>2020-04-15T14:26:45Z</time>
      </trkpt>
      <trkpt lat="46.15012" lon="6.32942">
        <ele>522.61</ele>
        <time>2020-04-15T14:26:51Z</time>
      </trkpt>
      <trkpt lat="46.15002" lon="6.32912">
        <ele>520.69</ele>
        <time>2020-04-15T14:26:52Z</time>
      </trkpt>
      <trkpt lat="46.14996" lon="6.32881">
        <ele>519.25</ele>
        <time>2020-04-15T14:26:53Z</time>
      </trkpt>
      <trkpt lat="46.14997" lon="6.32848">
        <ele>517.33</ele>
        <time>2020-04-15T14:26:54Z</time>
      </trkpt>
      <trkpt lat="46.14998" lon="6.32815">
        <ele>515.4</ele>
        <time>2020-04-15T14:26:55Z</time>
      </trkpt>
      <trkpt lat="46.15004" lon="6.32782">
        <ele>513.48</ele>
        <time>2020-04-15T14:26:56Z</time>
      </trkpt>
      <trkpt lat="46.15009" lon="6.32749">
        <ele>511.56</ele>
        <time>2020-04-15T14:26:57Z</time>
      </trkpt>
      <trkpt lat="46.1502" lon="6.32658">
        <ele>506.27</ele>
        <time>2020-04-15T14:27:00Z</time>
      </trkpt>
      <trkpt lat="46.15021" lon="6.32631">
        <ele>504.83</ele>
        <time>2020-04-15T14:27:01Z</time>
      </trkpt>
      <trkpt lat="46.15019" lon="6.32606">
        <ele>503.39</ele>
        <time>2020-04-15T14:27:02Z</time>
      </trkpt>
      <trkpt lat="46.15014" lon="6.32583">
        <ele>502.43</ele>
        <time>2020-04-15T14:27:03Z</time>
      </trkpt>
      <trkpt lat="46.1501" lon="6.3256">
        <ele>500.98</ele>
        <time>2020-04-15T14:27:04Z</time>
      </trkpt>
      <trkpt lat="46.15006" lon="6.32537">
        <ele>499.54</ele>
        <time>2020-04-15T14:27:05Z</time>
      </trkpt>
      <trkpt lat="46.1497" lon="6.32388">
        <ele>493.77</ele>
        <time>2020-04-15T14:27:13Z</time>
      </trkpt>
      <trkpt lat="46.1496" lon="6.3235">
        <ele>492.81</ele>
        <time>2020-04-15T14:27:15Z</time>
      </trkpt>
      <trkpt lat="46.14957" lon="6.3233">
        <ele>492.33</ele>
        <time>2020-04-15T14:27:16Z</time>
      </trkpt>
      <trkpt lat="46.14957" lon="6.3231">
        <ele>491.37</ele>
        <time>2020-04-15T14:27:17Z</time>
      </trkpt>
      <trkpt lat="46.14957" lon="6.32292">
        <ele>490.89</ele>
        <time>2020-04-15T14:27:18Z</time>
      </trkpt>
      <trkpt lat="46.14957" lon="6.32276">
        <ele>490.41</ele>
        <time>2020-04-15T14:27:19Z</time>
      </trkpt>
      <trkpt lat="46.14957" lon="6.32161">
        <ele>488.49</ele>
        <time>2020-04-15T14:27:26Z</time>
      </trkpt>
      <trkpt lat="46.14957" lon="6.32148">
        <ele>488.01</ele>
        <time>2020-04-15T14:27:27Z</time>
      </trkpt>
      <trkpt lat="46.14957" lon="6.32136">
        <ele>488.01</ele>
        <time>2020-04-15T14:27:28Z</time>
      </trkpt>
      <trkpt lat="46.14957" lon="6.32125">
        <ele>487.53</ele>
        <time>2020-04-15T14:27:29Z</time>
      </trkpt>
      <trkpt lat="46.1497" lon="6.32107">
        <ele>487.05</ele>
        <time>2020-04-15T14:27:30Z</time>
      </trkpt>
      <trkpt lat="46.14972" lon="6.32103">
        <ele>486.56</ele>
        <time>2020-04-15T14:27:31Z</time>
      </trkpt>
      <trkpt lat="46.14976" lon="6.32087">
        <ele>486.56</ele>
        <time>2020-04-15T14:27:32Z</time>
      </trkpt>
      <trkpt lat="46.14971" lon="6.32076">
        <ele>486.56</ele>
        <time>2020-04-15T14:27:33Z</time>
      </trkpt>
      <trkpt lat="46.14968" lon="6.32062">
        <ele>486.56</ele>
        <time>2020-04-15T14:27:34Z</time>
      </trkpt>
      <trkpt lat="46.14967" lon="6.32043">
        <ele>486.08</ele>
        <time>2020-04-15T14:27:35Z</time>
      </trkpt>
      <trkpt lat="46.14967" lon="6.32021">
        <ele>485.6</ele>
        <time>2020-04-15T14:27:36Z</time>
      </trkpt>
      <trkpt lat="46.14966" lon="6.31998">
        <ele>485.12</ele>
        <time>2020-04-15T14:27:37Z</time>
      </trkpt>
      <trkpt lat="46.14965" lon="6.31907">
        <ele>480.32</ele>
        <time>2020-04-15T14:27:41Z</time>
      </trkpt>
      <trkpt lat="46.14962" lon="6.31889">
        <ele>478.87</ele>
        <time>2020-04-15T14:27:42Z</time>
      </trkpt>
      <trkpt lat="46.14953" lon="6.31872">
        <ele>477.91</ele>
        <time>2020-04-15T14:27:43Z</time>
      </trkpt>
      <trkpt lat="46.14941" lon="6.31861">
        <ele>476.95</ele>
        <time>2020-04-15T14:27:44Z</time>
      </trkpt>
      <trkpt lat="46.14925" lon="6.31857">
        <ele>476.47</ele>
        <time>2020-04-15T14:27:45Z</time>
      </trkpt>
      <trkpt lat="46.14909" lon="6.31853">
        <ele>476.47</ele>
        <time>2020-04-15T14:27:46Z</time>
      </trkpt>
      <trkpt lat="46.14892" lon="6.31848">
        <ele>476.95</ele>
        <time>2020-04-15T14:27:47Z</time>
      </trkpt>
      <trkpt lat="46.14837" lon="6.31834">
        <ele>476.95</ele>
        <time>2020-04-15T14:27:51Z</time>
      </trkpt>
      <trkpt lat="46.1465" lon="6.31721">
        <ele>475.51</ele>
        <time>2020-04-15T14:27:59Z</time>
      </trkpt>
      <trkpt lat="46.14626" lon="6.31716">
        <ele>474.55</ele>
        <time>2020-04-15T14:28:00Z</time>
      </trkpt>
      <trkpt lat="46.146" lon="6.31715">
        <ele>473.11</ele>
        <time>2020-04-15T14:28:02Z</time>
      </trkpt>
      <trkpt lat="46.14547" lon="6.31721">
        <ele>470.7</ele>
        <time>2020-04-15T14:28:04Z</time>
      </trkpt>
      <trkpt lat="46.14398" lon="6.31758">
        <ele>463.01</ele>
        <time>2020-04-15T14:28:10Z</time>
      </trkpt>
      <trkpt lat="46.14349" lon="6.3176">
        <ele>461.57</ele>
        <time>2020-04-15T14:28:11Z</time>
      </trkpt>
      <trkpt lat="46.14324" lon="6.31752">
        <ele>459.17</ele>
        <time>2020-04-15T14:28:13Z</time>
      </trkpt>
      <trkpt lat="46.14109" lon="6.31632">
        <ele>454.36</ele>
        <time>2020-04-15T14:28:23Z</time>
      </trkpt>
      <trkpt lat="46.1405" lon="6.31594">
        <ele>453.88</ele>
        <time>2020-04-15T14:28:27Z</time>
      </trkpt>
      <trkpt lat="46.14034" lon="6.31573">
        <ele>453.4</ele>
        <time>2020-04-15T14:28:29Z</time>
      </trkpt>
      <trkpt lat="46.14029" lon="6.31549">
        <ele>452.92</ele>
        <time>2020-04-15T14:28:30Z</time>
      </trkpt>
      <trkpt lat="46.1403" lon="6.31535">
        <ele>452.44</ele>
        <time>2020-04-15T14:28:31Z</time>
      </trkpt>
      <trkpt lat="46.14034" lon="6.31522">
        <ele>451.48</ele>
        <time>2020-04-15T14:28:33Z</time>
      </trkpt>
      <trkpt lat="46.14042" lon="6.31511">
        <ele>451.48</ele>
        <time>2020-04-15T14:28:34Z</time>
      </trkpt>
      <trkpt lat="46.14052" lon="6.31502">
        <ele>451.48</ele>
        <time>2020-04-15T14:28:35Z</time>
      </trkpt>
      <trkpt lat="46.14074" lon="6.31485">
        <ele>451.48</ele>
        <time>2020-04-15T14:28:36Z</time>
      </trkpt>
      <trkpt lat="46.14085" lon="6.3148">
        <ele>451.48</ele>
        <time>2020-04-15T14:28:37Z</time>
      </trkpt>
      <trkpt lat="46.14096" lon="6.3148">
        <ele>451.96</ele>
        <time>2020-04-15T14:28:38Z</time>
      </trkpt>
      <trkpt lat="46.14106" lon="6.31482">
        <ele>451.96</ele>
        <time>2020-04-15T14:28:39Z</time>
      </trkpt>
      <trkpt lat="46.14117" lon="6.31487">
        <ele>451.96</ele>
        <time>2020-04-15T14:28:40Z</time>
      </trkpt>
      <trkpt lat="46.14125" lon="6.31498">
        <ele>451.96</ele>
        <time>2020-04-15T14:28:41Z</time>
      </trkpt>
      <trkpt lat="46.14131" lon="6.3151">
        <ele>450.52</ele>
        <time>2020-04-15T14:28:43Z</time>
      </trkpt>
      <trkpt lat="46.14139" lon="6.31541">
        <ele>450.03</ele>
        <time>2020-04-15T14:28:44Z</time>
      </trkpt>
      <trkpt lat="46.14138" lon="6.31557">
        <ele>449.07</ele>
        <time>2020-04-15T14:28:45Z</time>
      </trkpt>
      <trkpt lat="46.14135" lon="6.31574">
        <ele>448.11</ele>
        <time>2020-04-15T14:28:46Z</time>
      </trkpt>
      <trkpt lat="46.14128" lon="6.31589">
        <ele>447.63</ele>
        <time>2020-04-15T14:28:47Z</time>
      </trkpt>
      <trkpt lat="46.1412" lon="6.31604">
        <ele>447.15</ele>
        <time>2020-04-15T14:28:48Z</time>
      </trkpt>
      <trkpt lat="46.14109" lon="6.31618">
        <ele>445.23</ele>
        <time>2020-04-15T14:28:50Z</time>
      </trkpt>
      <trkpt lat="46.14084" lon="6.31641">
        <ele>444.27</ele>
        <time>2020-04-15T14:28:51Z</time>
      </trkpt>
      <trkpt lat="46.13963" lon="6.31711">
        <ele>441.86</ele>
        <time>2020-04-15T14:28:57Z</time>
      </trkpt>
      <trkpt lat="46.13809" lon="6.31777">
        <ele>439.46</ele>
        <time>2020-04-15T14:29:01Z</time>
      </trkpt>
      <trkpt lat="46.13658" lon="6.3184">
        <ele>434.65</ele>
        <time>2020-04-15T14:29:06Z</time>
      </trkpt>
      <trkpt lat="46.1335" lon="6.32003">
        <ele>431.77</ele>
        <time>2020-04-15T14:29:15Z</time>
      </trkpt>
      <trkpt lat="46.13064" lon="6.32244">
        <ele>431.29</ele>
        <time>2020-04-15T14:29:25Z</time>
      </trkpt>
      <trkpt lat="46.12689" lon="6.32543">
        <ele>433.21</ele>
        <time>2020-04-15T14:29:38Z</time>
      </trkpt>
      <trkpt lat="46.12334" lon="6.32791">
        <ele>434.17</ele>
        <time>2020-04-15T14:29:50Z</time>
      </trkpt>
      <trkpt lat="46.12204" lon="6.32861">
        <ele>435.61</ele>
        <time>2020-04-15T14:29:55Z</time>
      </trkpt>
      <trkpt lat="46.12178" lon="6.32866">
        <ele>436.1</ele>
        <time>2020-04-15T14:29:57Z</time>
      </trkpt>
      <trkpt lat="46.12125" lon="6.32867">
        <ele>436.58</ele>
        <time>2020-04-15T14:29:58Z</time>
      </trkpt>
      <trkpt lat="46.12099" lon="6.32861">
        <ele>437.06</ele>
        <time>2020-04-15T14:29:59Z</time>
      </trkpt>
      <trkpt lat="46.12074" lon="6.32852">
        <ele>437.54</ele>
        <time>2020-04-15T14:30:00Z</time>
      </trkpt>
      <trkpt lat="46.12048" lon="6.32839">
        <ele>438.02</ele>
        <time>2020-04-15T14:30:01Z</time>
      </trkpt>
      <trkpt lat="46.12023" lon="6.32824">
        <ele>438.5</ele>
        <time>2020-04-15T14:30:02Z</time>
      </trkpt>
      <trkpt lat="46.11997" lon="6.32807">
        <ele>438.98</ele>
        <time>2020-04-15T14:30:03Z</time>
      </trkpt>
      <trkpt lat="46.11838" lon="6.32646">
        <ele>440.9</ele>
        <time>2020-04-15T14:30:09Z</time>
      </trkpt>
      <trkpt lat="46.11674" lon="6.32472">
        <ele>443.31</ele>
        <time>2020-04-15T14:30:15Z</time>
      </trkpt>
      <trkpt lat="46.11412" lon="6.32199">
        <ele>445.71</ele>
        <time>2020-04-15T14:30:21Z</time>
      </trkpt>
      <trkpt lat="46.11265" lon="6.32043">
        <ele>449.07</ele>
        <time>2020-04-15T14:30:26Z</time>
      </trkpt>
      <trkpt lat="46.11072" lon="6.31786">
        <ele>459.65</ele>
        <time>2020-04-15T14:30:34Z</time>
      </trkpt>
      <trkpt lat="46.10931" lon="6.31524">
        <ele>470.7</ele>
        <time>2020-04-15T14:30:41Z</time>
      </trkpt>
      <trkpt lat="46.10639" lon="6.30948">
        <ele>480.8</ele>
        <time>2020-04-15T14:30:56Z</time>
      </trkpt>
      <trkpt lat="46.10424" lon="6.30654">
        <ele>485.12</ele>
        <time>2020-04-15T14:31:05Z</time>
      </trkpt>
      <trkpt lat="46.10182" lon="6.30335">
        <ele>490.89</ele>
        <time>2020-04-15T14:31:15Z</time>
      </trkpt>
      <trkpt lat="46.10052" lon="6.30067">
        <ele>494.74</ele>
        <time>2020-04-15T14:31:22Z</time>
      </trkpt>
      <trkpt lat="46.0996" lon="6.29765">
        <ele>501.95</ele>
        <time>2020-04-15T14:31:29Z</time>
      </trkpt>
      <trkpt lat="46.09838" lon="6.29433">
        <ele>514.92</ele>
        <time>2020-04-15T14:31:37Z</time>
      </trkpt>
      <trkpt lat="46.09701" lon="6.29232">
        <ele>525.98</ele>
        <time>2020-04-15T14:31:43Z</time>
      </trkpt>
      <trkpt lat="46.0953" lon="6.29091">
        <ele>537.03</ele>
        <time>2020-04-15T14:31:49Z</time>
      </trkpt>
      <trkpt lat="46.09279" lon="6.28979">
        <ele>552.41</ele>
        <time>2020-04-15T14:31:57Z</time>
      </trkpt>
      <trkpt lat="46.08955" lon="6.28899">
        <ele>571.16</ele>
        <time>2020-04-15T14:32:07Z</time>
      </trkpt>
      <trkpt lat="46.0853" lon="6.28819">
        <ele>589.91</ele>
        <time>2020-04-15T14:32:20Z</time>
      </trkpt>
      <trkpt lat="46.08344" lon="6.28826">
        <ele>595.19</ele>
        <time>2020-04-15T14:32:25Z</time>
      </trkpt>
      <trkpt lat="46.08123" lon="6.28884">
        <ele>600.48</ele>
        <time>2020-04-15T14:32:30Z</time>
      </trkpt>
      <trkpt lat="46.07856" lon="6.28988">
        <ele>605.77</ele>
        <time>2020-04-15T14:32:36Z</time>
      </trkpt>
      <trkpt lat="46.07649" lon="6.29048">
        <ele>614.9</ele>
        <time>2020-04-15T14:32:43Z</time>
      </trkpt>
      <trkpt lat="46.07474" lon="6.29064">
        <ele>619.23</ele>
        <time>2020-04-15T14:32:48Z</time>
      </trkpt>
      <trkpt lat="46.07448" lon="6.29063">
        <ele>620.19</ele>
        <time>2020-04-15T14:32:49Z</time>
      </trkpt>
      <trkpt lat="46.07309" lon="6.29035">
        <ele>622.11</ele>
        <time>2020-04-15T14:32:55Z</time>
      </trkpt>
      <trkpt lat="46.07256" lon="6.29018">
        <ele>624.03</ele>
        <time>2020-04-15T14:32:58Z</time>
      </trkpt>
      <trkpt lat="46.07245" lon="6.28996">
        <ele>625.96</ele>
        <time>2020-04-15T14:33:00Z</time>
      </trkpt>
      <trkpt lat="46.07224" lon="6.28971">
        <ele>626.92</ele>
        <time>2020-04-15T14:33:01Z</time>
      </trkpt>
      <trkpt lat="46.07224" lon="6.28971">
        <ele>627.88</ele>
        <time>2020-04-15T14:33:02Z</time>
      </trkpt>
      <trkpt lat="46.07218" lon="6.28954">
        <ele>629.32</ele>
        <time>2020-04-15T14:33:03Z</time>
      </trkpt>
      <trkpt lat="46.07219" lon="6.28934">
        <ele>630.76</ele>
        <time>2020-04-15T14:33:04Z</time>
      </trkpt>
      <trkpt lat="46.07222" lon="6.28914">
        <ele>631.72</ele>
        <time>2020-04-15T14:33:05Z</time>
      </trkpt>
      <trkpt lat="46.07228" lon="6.28893">
        <ele>633.17</ele>
        <time>2020-04-15T14:33:06Z</time>
      </trkpt>
      <trkpt lat="46.07239" lon="6.28876">
        <ele>634.13</ele>
        <time>2020-04-15T14:33:07Z</time>
      </trkpt>
      <trkpt lat="46.07252" lon="6.28862">
        <ele>634.61</ele>
        <time>2020-04-15T14:33:08Z</time>
      </trkpt>
      <trkpt lat="46.07283" lon="6.28847">
        <ele>635.57</ele>
        <time>2020-04-15T14:33:09Z</time>
      </trkpt>
      <trkpt lat="46.073" lon="6.28846">
        <ele>636.05</ele>
        <time>2020-04-15T14:33:11Z</time>
      </trkpt>
      <trkpt lat="46.07318" lon="6.28845">
        <ele>635.57</ele>
        <time>2020-04-15T14:33:12Z</time>
      </trkpt>
      <trkpt lat="46.0734" lon="6.28852">
        <ele>635.09</ele>
        <time>2020-04-15T14:33:13Z</time>
      </trkpt>
      <trkpt lat="46.07378" lon="6.28875">
        <ele>634.61</ele>
        <time>2020-04-15T14:33:14Z</time>
      </trkpt>
      <trkpt lat="46.07397" lon="6.28891">
        <ele>632.68</ele>
        <time>2020-04-15T14:33:16Z</time>
      </trkpt>
      <trkpt lat="46.07414" lon="6.28911">
        <ele>631.24</ele>
        <time>2020-04-15T14:33:17Z</time>
      </trkpt>
      <trkpt lat="46.07442" lon="6.28954">
        <ele>630.28</ele>
        <time>2020-04-15T14:33:18Z</time>
      </trkpt>
      <trkpt lat="46.07454" lon="6.28976">
        <ele>627.88</ele>
        <time>2020-04-15T14:33:20Z</time>
      </trkpt>
      <trkpt lat="46.07472" lon="6.29028">
        <ele>626.92</ele>
        <time>2020-04-15T14:33:21Z</time>
      </trkpt>
      <trkpt lat="46.07502" lon="6.29154">
        <ele>621.63</ele>
        <time>2020-04-15T14:33:27Z</time>
      </trkpt>
      <trkpt lat="46.07509" lon="6.29173">
        <ele>620.67</ele>
        <time>2020-04-15T14:33:28Z</time>
      </trkpt>
      <trkpt lat="46.07517" lon="6.29191">
        <ele>619.71</ele>
        <time>2020-04-15T14:33:29Z</time>
      </trkpt>
      <trkpt lat="46.07518" lon="6.29218">
        <ele>619.23</ele>
        <time>2020-04-15T14:33:30Z</time>
      </trkpt>
      <trkpt lat="46.0751" lon="6.29241">
        <ele>618.26</ele>
        <time>2020-04-15T14:33:31Z</time>
      </trkpt>
      <trkpt lat="46.07476" lon="6.29343">
        <ele>615.38</ele>
        <time>2020-04-15T14:33:35Z</time>
      </trkpt>
      <trkpt lat="46.07465" lon="6.29371">
        <ele>614.42</ele>
        <time>2020-04-15T14:33:36Z</time>
      </trkpt>
      <trkpt lat="46.07289" lon="6.29636">
        <ele>605.29</ele>
        <time>2020-04-15T14:33:46Z</time>
      </trkpt>
      <trkpt lat="46.07241" lon="6.29696">
        <ele>602.88</ele>
        <time>2020-04-15T14:33:49Z</time>
      </trkpt>
      <trkpt lat="46.07151" lon="6.29797">
        <ele>596.15</ele>
        <time>2020-04-15T14:33:56Z</time>
      </trkpt>
      <trkpt lat="46.07144" lon="6.2981">
        <ele>595.19</ele>
        <time>2020-04-15T14:33:57Z</time>
      </trkpt>
      <trkpt lat="46.07086" lon="6.29984">
        <ele>587.98</ele>
        <time>2020-04-15T14:34:09Z</time>
      </trkpt>
      <trkpt lat="46.0708" lon="6.30029">
        <ele>587.02</ele>
        <time>2020-04-15T14:34:12Z</time>
      </trkpt>
      <trkpt lat="46.07074" lon="6.30047">
        <ele>586.06</ele>
        <time>2020-04-15T14:34:14Z</time>
      </trkpt>
      <trkpt lat="46.07078" lon="6.30057">
        <ele>585.58</ele>
        <time>2020-04-15T14:34:15Z</time>
      </trkpt>
      <trkpt lat="46.07084" lon="6.30081">
        <ele>583.66</ele>
        <time>2020-04-15T14:34:17Z</time>
      </trkpt>
      <trkpt lat="46.07083" lon="6.30094">
        <ele>583.18</ele>
        <time>2020-04-15T14:34:18Z</time>
      </trkpt>
      <trkpt lat="46.07065" lon="6.30135">
        <ele>580.77</ele>
        <time>2020-04-15T14:34:21Z</time>
      </trkpt>
      <trkpt lat="46.07059" lon="6.3015">
        <ele>579.81</ele>
        <time>2020-04-15T14:34:22Z</time>
      </trkpt>
      <trkpt lat="46.07047" lon="6.30208">
        <ele>577.89</ele>
        <time>2020-04-15T14:34:26Z</time>
      </trkpt>
      <trkpt lat="46.07044" lon="6.3022">
        <ele>577.41</ele>
        <time>2020-04-15T14:34:27Z</time>
      </trkpt>
      <trkpt lat="46.07031" lon="6.30238">
        <ele>576.93</ele>
        <time>2020-04-15T14:34:28Z</time>
      </trkpt>
      <trkpt lat="46.06927" lon="6.30288">
        <ele>574.04</ele>
        <time>2020-04-15T14:34:35Z</time>
      </trkpt>
      <trkpt lat="46.06873" lon="6.30315">
        <ele>571.16</ele>
        <time>2020-04-15T14:34:41Z</time>
      </trkpt>
      <trkpt lat="46.06859" lon="6.30321">
        <ele>571.16</ele>
        <time>2020-04-15T14:34:43Z</time>
      </trkpt>
      <trkpt lat="46.06859" lon="6.30325">
        <ele>571.16</ele>
        <time>2020-04-15T14:34:45Z</time>
      </trkpt>
      <trkpt lat="46.06859" lon="6.30337">
        <ele>571.16</ele>
        <time>2020-04-15T14:34:46Z</time>
      </trkpt>
      <trkpt lat="46.06858" lon="6.3035">
        <ele>570.68</ele>
        <time>2020-04-15T14:34:47Z</time>
      </trkpt>
      <trkpt lat="46.06857" lon="6.30381">
        <ele>570.68</ele>
        <time>2020-04-15T14:34:48Z</time>
      </trkpt>
      <trkpt lat="46.06854" lon="6.30394">
        <ele>570.2</ele>
        <time>2020-04-15T14:34:49Z</time>
      </trkpt>
      <trkpt lat="46.06849" lon="6.30407">
        <ele>570.2</ele>
        <time>2020-04-15T14:34:50Z</time>
      </trkpt>
      <trkpt lat="46.0683" lon="6.30462">
        <ele>569.24</ele>
        <time>2020-04-15T14:34:56Z</time>
      </trkpt>
      <trkpt lat="46.06826" lon="6.30475">
        <ele>568.76</ele>
        <time>2020-04-15T14:34:59Z</time>
      </trkpt>
      <trkpt lat="46.06824" lon="6.30478">
        <ele>568.76</ele>
        <time>2020-04-15T14:35:00Z</time>
      </trkpt>
      <trkpt lat="46.06823" lon="6.30482">
        <ele>568.28</ele>
        <time>2020-04-15T14:35:02Z</time>
      </trkpt>
      <trkpt lat="46.06823" lon="6.30482">
        <ele>568.28</ele>
        <time>2020-04-15T14:35:04Z</time>
      </trkpt>
      <trkpt lat="46.06823" lon="6.30482">
        <ele>567.8</ele>
        <time>2020-04-15T14:35:05Z</time>
      </trkpt>
      <trkpt lat="46.06826" lon="6.30474">
        <ele>567.8</ele>
        <time>2020-04-15T14:35:23Z</time>
      </trkpt>
    </trkseg>
  </trk>
  <trk>
    <name><![CDATA[Journal actif: 2020-04-16 12:03]]></name>
    <trkseg>
      <trkpt lat="46.06799" lon="6.30765">
        <ele>567.32</ele>
        <time>2020-04-16T10:03:58Z</time>
      </trkpt>
      <trkpt lat="46.06799" lon="6.30765">
        <ele>569.24</ele>
        <time>2020-04-16T10:03:59Z</time>
      </trkpt>
      <trkpt lat="46.06802" lon="6.30779">
        <ele>571.16</ele>
        <time>2020-04-16T10:04:00Z</time>
      </trkpt>
      <trkpt lat="46.06803" lon="6.30786">
        <ele>572.12</ele>
        <time>2020-04-16T10:04:01Z</time>
      </trkpt>
      <trkpt lat="46.06805" lon="6.30795">
        <ele>572.6</ele>
        <time>2020-04-16T10:04:02Z</time>
      </trkpt>
      <trkpt lat="46.06807" lon="6.30806">
        <ele>573.08</ele>
        <time>2020-04-16T10:04:03Z</time>
      </trkpt>
      <trkpt lat="46.06809" lon="6.30819">
        <ele>572.6</ele>
        <time>2020-04-16T10:04:04Z</time>
      </trkpt>
      <trkpt lat="46.06812" lon="6.30877">
        <ele>573.08</ele>
        <time>2020-04-16T10:04:09Z</time>
      </trkpt>
      <trkpt lat="46.06812" lon="6.30903">
        <ele>571.16</ele>
        <time>2020-04-16T10:04:12Z</time>
      </trkpt>
      <trkpt lat="46.06812" lon="6.30911">
        <ele>569.72</ele>
        <time>2020-04-16T10:04:13Z</time>
      </trkpt>
      <trkpt lat="46.06812" lon="6.30916">
        <ele>568.76</ele>
        <time>2020-04-16T10:04:14Z</time>
      </trkpt>
      <trkpt lat="46.06812" lon="6.30916">
        <ele>567.8</ele>
        <time>2020-04-16T10:04:15Z</time>
      </trkpt>
      <trkpt lat="46.06813" lon="6.30932">
        <ele>567.32</ele>
        <time>2020-04-16T10:04:16Z</time>
      </trkpt>
      <trkpt lat="46.06812" lon="6.30935">
        <ele>566.83</ele>
        <time>2020-04-16T10:04:17Z</time>
      </trkpt>
      <trkpt lat="46.0681" lon="6.3094">
        <ele>566.83</ele>
        <time>2020-04-16T10:04:18Z</time>
      </trkpt>
      <trkpt lat="46.06796" lon="6.30979">
        <ele>564.91</ele>
        <time>2020-04-16T10:04:22Z</time>
      </trkpt>
      <trkpt lat="46.06792" lon="6.30991">
        <ele>564.43</ele>
        <time>2020-04-16T10:04:23Z</time>
      </trkpt>
      <trkpt lat="46.06772" lon="6.31061">
        <ele>562.03</ele>
        <time>2020-04-16T10:04:28Z</time>
      </trkpt>
      <trkpt lat="46.06726" lon="6.31203">
        <ele>555.78</ele>
        <time>2020-04-16T10:04:39Z</time>
      </trkpt>
      <trkpt lat="46.06723" lon="6.3121">
        <ele>555.3</ele>
        <time>2020-04-16T10:04:40Z</time>
      </trkpt>
      <trkpt lat="46.06718" lon="6.31253">
        <ele>552.41</ele>
        <time>2020-04-16T10:04:46Z</time>
      </trkpt>
      <trkpt lat="46.06718" lon="6.31253">
        <ele>552.9</ele>
        <time>2020-04-16T10:04:47Z</time>
      </trkpt>
      <trkpt lat="46.06718" lon="6.31253">
        <ele>552.9</ele>
        <time>2020-04-16T10:04:48Z</time>
      </trkpt>
      <trkpt lat="46.06718" lon="6.31257">
        <ele>552.41</ele>
        <time>2020-04-16T10:04:49Z</time>
      </trkpt>
      <trkpt lat="46.06719" lon="6.31261">
        <ele>552.9</ele>
        <time>2020-04-16T10:04:50Z</time>
      </trkpt>
      <trkpt lat="46.0672" lon="6.31268">
        <ele>552.9</ele>
        <time>2020-04-16T10:04:51Z</time>
      </trkpt>
      <trkpt lat="46.0672" lon="6.31268">
        <ele>552.9</ele>
        <time>2020-04-16T10:04:52Z</time>
      </trkpt>
      <trkpt lat="46.06719" lon="6.31271">
        <ele>552.9</ele>
        <time>2020-04-16T10:04:53Z</time>
      </trkpt>
      <trkpt lat="46.0672" lon="6.31268">
        <ele>552.9</ele>
        <time>2020-04-16T10:04:54Z</time>
      </trkpt>
      <trkpt lat="46.0672" lon="6.31268">
        <ele>553.38</ele>
        <time>2020-04-16T10:04:55Z</time>
      </trkpt>
      <trkpt lat="46.06734" lon="6.31259">
        <ele>553.86</ele>
        <time>2020-04-16T10:04:56Z</time>
      </trkpt>
      <trkpt lat="46.06735" lon="6.31256">
        <ele>553.38</ele>
        <time>2020-04-16T10:04:57Z</time>
      </trkpt>
      <trkpt lat="46.06737" lon="6.31254">
        <ele>553.38</ele>
        <time>2020-04-16T10:04:58Z</time>
      </trkpt>
      <trkpt lat="46.06728" lon="6.3127">
        <ele>553.86</ele>
        <time>2020-04-16T10:04:59Z</time>
      </trkpt>
      <trkpt lat="46.06726" lon="6.31246">
        <ele>553.38</ele>
        <time>2020-04-16T10:05:00Z</time>
      </trkpt>
      <trkpt lat="46.06726" lon="6.31246">
        <ele>553.38</ele>
        <time>2020-04-16T10:05:01Z</time>
      </trkpt>
      <trkpt lat="46.06721" lon="6.3125">
        <ele>553.86</ele>
        <time>2020-04-16T10:05:08Z</time>
      </trkpt>
      <trkpt lat="46.0672" lon="6.31268">
        <ele>554.34</ele>
        <time>2020-04-16T10:05:09Z</time>
      </trkpt>
      <trkpt lat="46.0672" lon="6.31268">
        <ele>556.74</ele>
        <time>2020-04-16T10:05:20Z</time>
      </trkpt>
      <trkpt lat="46.06726" lon="6.31246">
        <ele>554.34</ele>
        <time>2020-04-16T10:05:50Z</time>
      </trkpt>
      <trkpt lat="46.06733" lon="6.31253">
        <ele>554.34</ele>
        <time>2020-04-16T10:05:51Z</time>
      </trkpt>
      <trkpt lat="46.06733" lon="6.31253">
        <ele>554.34</ele>
        <time>2020-04-16T10:05:52Z</time>
      </trkpt>
      <trkpt lat="46.06734" lon="6.31255">
        <ele>554.82</ele>
        <time>2020-04-16T10:05:53Z</time>
      </trkpt>
      <trkpt lat="46.06734" lon="6.31255">
        <ele>555.3</ele>
        <time>2020-04-16T10:05:54Z</time>
      </trkpt>
      <trkpt lat="46.06741" lon="6.31248">
        <ele>556.74</ele>
        <time>2020-04-16T10:05:59Z</time>
      </trkpt>
      <trkpt lat="46.06744" lon="6.31244">
        <ele>557.22</ele>
        <time>2020-04-16T10:06:00Z</time>
      </trkpt>
      <trkpt lat="46.06772" lon="6.31203">
        <ele>557.22</ele>
        <time>2020-04-16T10:06:04Z</time>
      </trkpt>
      <trkpt lat="46.06792" lon="6.31174">
        <ele>557.7</ele>
        <time>2020-04-16T10:06:07Z</time>
      </trkpt>
      <trkpt lat="46.0684" lon="6.31103">
        <ele>559.62</ele>
        <time>2020-04-16T10:06:15Z</time>
      </trkpt>
      <trkpt lat="46.06847" lon="6.31093">
        <ele>560.11</ele>
        <time>2020-04-16T10:06:16Z</time>
      </trkpt>
      <trkpt lat="46.06879" lon="6.31043">
        <ele>562.51</ele>
        <time>2020-04-16T10:06:21Z</time>
      </trkpt>
      <trkpt lat="46.06924" lon="6.30978">
        <ele>563.47</ele>
        <time>2020-04-16T10:06:28Z</time>
      </trkpt>
      <trkpt lat="46.06971" lon="6.30909">
        <ele>562.99</ele>
        <time>2020-04-16T10:06:35Z</time>
      </trkpt>
      <trkpt lat="46.06976" lon="6.309">
        <ele>562.99</ele>
        <time>2020-04-16T10:06:36Z</time>
      </trkpt>
      <trkpt lat="46.06982" lon="6.30892">
        <ele>562.51</ele>
        <time>2020-04-16T10:06:37Z</time>
      </trkpt>
      <trkpt lat="46.06987" lon="6.30885">
        <ele>562.51</ele>
        <time>2020-04-16T10:06:38Z</time>
      </trkpt>
      <trkpt lat="46.06991" lon="6.30878">
        <ele>562.51</ele>
        <time>2020-04-16T10:06:39Z</time>
      </trkpt>
      <trkpt lat="46.07009" lon="6.30852">
        <ele>562.03</ele>
        <time>2020-04-16T10:06:44Z</time>
      </trkpt>
      <trkpt lat="46.07014" lon="6.30846">
        <ele>562.03</ele>
        <time>2020-04-16T10:06:45Z</time>
      </trkpt>
      <trkpt lat="46.07069" lon="6.3076">
        <ele>562.99</ele>
        <time>2020-04-16T10:06:53Z</time>
      </trkpt>
      <trkpt lat="46.07117" lon="6.30688">
        <ele>563.47</ele>
        <time>2020-04-16T10:07:00Z</time>
      </trkpt>
      <trkpt lat="46.07123" lon="6.30681">
        <ele>562.99</ele>
        <time>2020-04-16T10:07:01Z</time>
      </trkpt>
      <trkpt lat="46.07138" lon="6.30677">
        <ele>562.51</ele>
        <time>2020-04-16T10:07:03Z</time>
      </trkpt>
      <trkpt lat="46.07142" lon="6.3067">
        <ele>562.51</ele>
        <time>2020-04-16T10:07:04Z</time>
      </trkpt>
      <trkpt lat="46.07143" lon="6.30669">
        <ele>562.51</ele>
        <time>2020-04-16T10:07:05Z</time>
      </trkpt>
      <trkpt lat="46.0714" lon="6.30647">
        <ele>562.51</ele>
        <time>2020-04-16T10:07:06Z</time>
      </trkpt>
      <trkpt lat="46.07145" lon="6.30637">
        <ele>562.51</ele>
        <time>2020-04-16T10:07:07Z</time>
      </trkpt>
      <trkpt lat="46.07151" lon="6.30625">
        <ele>562.51</ele>
        <time>2020-04-16T10:07:08Z</time>
      </trkpt>
      <trkpt lat="46.07158" lon="6.30612">
        <ele>562.51</ele>
        <time>2020-04-16T10:07:09Z</time>
      </trkpt>
      <trkpt lat="46.07226" lon="6.3051">
        <ele>563.47</ele>
        <time>2020-04-16T10:07:17Z</time>
      </trkpt>
      <trkpt lat="46.07319" lon="6.30432">
        <ele>566.83</ele>
        <time>2020-04-16T10:07:26Z</time>
      </trkpt>
      <trkpt lat="46.07445" lon="6.30397">
        <ele>564.43</ele>
        <time>2020-04-16T10:07:35Z</time>
      </trkpt>
      <trkpt lat="46.07544" lon="6.30401">
        <ele>559.62</ele>
        <time>2020-04-16T10:07:43Z</time>
      </trkpt>
      <trkpt lat="46.07576" lon="6.30409">
        <ele>558.18</ele>
        <time>2020-04-16T10:07:47Z</time>
      </trkpt>
      <trkpt lat="46.0758" lon="6.30416">
        <ele>558.18</ele>
        <time>2020-04-16T10:07:48Z</time>
      </trkpt>
      <trkpt lat="46.07591" lon="6.30422">
        <ele>557.7</ele>
        <time>2020-04-16T10:07:49Z</time>
      </trkpt>
      <trkpt lat="46.076" lon="6.30431">
        <ele>557.7</ele>
        <time>2020-04-16T10:07:50Z</time>
      </trkpt>
      <trkpt lat="46.07601" lon="6.30439">
        <ele>557.22</ele>
        <time>2020-04-16T10:07:51Z</time>
      </trkpt>
      <trkpt lat="46.07602" lon="6.30447">
        <ele>556.74</ele>
        <time>2020-04-16T10:07:52Z</time>
      </trkpt>
      <trkpt lat="46.07605" lon="6.30455">
        <ele>555.78</ele>
        <time>2020-04-16T10:07:53Z</time>
      </trkpt>
      <trkpt lat="46.0761" lon="6.30457">
        <ele>555.78</ele>
        <time>2020-04-16T10:07:54Z</time>
      </trkpt>
      <trkpt lat="46.07619" lon="6.30456">
        <ele>554.82</ele>
        <time>2020-04-16T10:07:55Z</time>
      </trkpt>
      <trkpt lat="46.07627" lon="6.30447">
        <ele>554.82</ele>
        <time>2020-04-16T10:07:56Z</time>
      </trkpt>
      <trkpt lat="46.07629" lon="6.30438">
        <ele>554.34</ele>
        <time>2020-04-16T10:07:57Z</time>
      </trkpt>
      <trkpt lat="46.0763" lon="6.30437">
        <ele>554.34</ele>
        <time>2020-04-16T10:07:58Z</time>
      </trkpt>
      <trkpt lat="46.07631" lon="6.30409">
        <ele>554.34</ele>
        <time>2020-04-16T10:07:59Z</time>
      </trkpt>
      <trkpt lat="46.07639" lon="6.30396">
        <ele>554.82</ele>
        <time>2020-04-16T10:08:00Z</time>
      </trkpt>
      <trkpt lat="46.07649" lon="6.30379">
        <ele>554.82</ele>
        <time>2020-04-16T10:08:01Z</time>
      </trkpt>
      <trkpt lat="46.07709" lon="6.30276">
        <ele>556.74</ele>
        <time>2020-04-16T10:08:05Z</time>
      </trkpt>
      <trkpt lat="46.07761" lon="6.3018">
        <ele>562.03</ele>
        <time>2020-04-16T10:08:08Z</time>
      </trkpt>
      <trkpt lat="46.07772" lon="6.30148">
        <ele>563.95</ele>
        <time>2020-04-16T10:08:09Z</time>
      </trkpt>
      <trkpt lat="46.07782" lon="6.30114">
        <ele>565.87</ele>
        <time>2020-04-16T10:08:10Z</time>
      </trkpt>
      <trkpt lat="46.0779" lon="6.30078">
        <ele>567.8</ele>
        <time>2020-04-16T10:08:11Z</time>
      </trkpt>
      <trkpt lat="46.07795" lon="6.30042">
        <ele>569.72</ele>
        <time>2020-04-16T10:08:12Z</time>
      </trkpt>
      <trkpt lat="46.07798" lon="6.30006">
        <ele>571.64</ele>
        <time>2020-04-16T10:08:13Z</time>
      </trkpt>
      <trkpt lat="46.07798" lon="6.2997">
        <ele>573.56</ele>
        <time>2020-04-16T10:08:14Z</time>
      </trkpt>
      <trkpt lat="46.07795" lon="6.29934">
        <ele>575.49</ele>
        <time>2020-04-16T10:08:15Z</time>
      </trkpt>
      <trkpt lat="46.07792" lon="6.29898">
        <ele>577.41</ele>
        <time>2020-04-16T10:08:16Z</time>
      </trkpt>
      <trkpt lat="46.07786" lon="6.29863">
        <ele>579.33</ele>
        <time>2020-04-16T10:08:17Z</time>
      </trkpt>
      <trkpt lat="46.07777" lon="6.29828">
        <ele>581.73</ele>
        <time>2020-04-16T10:08:18Z</time>
      </trkpt>
      <trkpt lat="46.07767" lon="6.29789">
        <ele>583.18</ele>
        <time>2020-04-16T10:08:19Z</time>
      </trkpt>
      <trkpt lat="46.07678" lon="6.29504">
        <ele>600</ele>
        <time>2020-04-16T10:08:27Z</time>
      </trkpt>
      <trkpt lat="46.07608" lon="6.29329">
        <ele>611.06</ele>
        <time>2020-04-16T10:08:33Z</time>
      </trkpt>
      <trkpt lat="46.07519" lon="6.29173">
        <ele>620.67</ele>
        <time>2020-04-16T10:08:39Z</time>
      </trkpt>
      <trkpt lat="46.07506" lon="6.29143">
        <ele>622.11</ele>
        <time>2020-04-16T10:08:40Z</time>
      </trkpt>
      <trkpt lat="46.07493" lon="6.29113">
        <ele>623.55</ele>
        <time>2020-04-16T10:08:41Z</time>
      </trkpt>
      <trkpt lat="46.07485" lon="6.29081">
        <ele>624.99</ele>
        <time>2020-04-16T10:08:42Z</time>
      </trkpt>
      <trkpt lat="46.07477" lon="6.2905">
        <ele>626.44</ele>
        <time>2020-04-16T10:08:43Z</time>
      </trkpt>
      <trkpt lat="46.07461" lon="6.28992">
        <ele>629.32</ele>
        <time>2020-04-16T10:08:45Z</time>
      </trkpt>
      <trkpt lat="46.07449" lon="6.28966">
        <ele>630.28</ele>
        <time>2020-04-16T10:08:46Z</time>
      </trkpt>
      <trkpt lat="46.07434" lon="6.28942">
        <ele>631.24</ele>
        <time>2020-04-16T10:08:47Z</time>
      </trkpt>
      <trkpt lat="46.07419" lon="6.28918">
        <ele>632.2</ele>
        <time>2020-04-16T10:08:48Z</time>
      </trkpt>
      <trkpt lat="46.07402" lon="6.28896">
        <ele>633.17</ele>
        <time>2020-04-16T10:08:49Z</time>
      </trkpt>
      <trkpt lat="46.07383" lon="6.28878">
        <ele>634.13</ele>
        <time>2020-04-16T10:08:50Z</time>
      </trkpt>
      <trkpt lat="46.07362" lon="6.28864">
        <ele>635.57</ele>
        <time>2020-04-16T10:08:51Z</time>
      </trkpt>
      <trkpt lat="46.0734" lon="6.28852">
        <ele>636.53</ele>
        <time>2020-04-16T10:08:52Z</time>
      </trkpt>
      <trkpt lat="46.07317" lon="6.28843">
        <ele>637.49</ele>
        <time>2020-04-16T10:08:53Z</time>
      </trkpt>
      <trkpt lat="46.07294" lon="6.28836">
        <ele>638.93</ele>
        <time>2020-04-16T10:08:54Z</time>
      </trkpt>
      <trkpt lat="46.0727" lon="6.28832">
        <ele>639.89</ele>
        <time>2020-04-16T10:08:55Z</time>
      </trkpt>
      <trkpt lat="46.07245" lon="6.28829">
        <ele>641.34</ele>
        <time>2020-04-16T10:08:56Z</time>
      </trkpt>
      <trkpt lat="46.07221" lon="6.28826">
        <ele>642.78</ele>
        <time>2020-04-16T10:08:57Z</time>
      </trkpt>
      <trkpt lat="46.07023" lon="6.28798">
        <ele>652.87</ele>
        <time>2020-04-16T10:09:05Z</time>
      </trkpt>
      <trkpt lat="46.07001" lon="6.28783">
        <ele>654.31</ele>
        <time>2020-04-16T10:09:06Z</time>
      </trkpt>
      <trkpt lat="46.06981" lon="6.28769">
        <ele>655.76</ele>
        <time>2020-04-16T10:09:07Z</time>
      </trkpt>
      <trkpt lat="46.06812" lon="6.28676">
        <ele>664.89</ele>
        <time>2020-04-16T10:09:15Z</time>
      </trkpt>
      <trkpt lat="46.0679" lon="6.28672">
        <ele>665.85</ele>
        <time>2020-04-16T10:09:16Z</time>
      </trkpt>
      <trkpt lat="46.06768" lon="6.28677">
        <ele>667.29</ele>
        <time>2020-04-16T10:09:17Z</time>
      </trkpt>
      <trkpt lat="46.06745" lon="6.28681">
        <ele>668.25</ele>
        <time>2020-04-16T10:09:18Z</time>
      </trkpt>
      <trkpt lat="46.06724" lon="6.28687">
        <ele>668.73</ele>
        <time>2020-04-16T10:09:19Z</time>
      </trkpt>
      <trkpt lat="46.06706" lon="6.28698">
        <ele>669.7</ele>
        <time>2020-04-16T10:09:20Z</time>
      </trkpt>
      <trkpt lat="46.06688" lon="6.28708">
        <ele>670.66</ele>
        <time>2020-04-16T10:09:21Z</time>
      </trkpt>
      <trkpt lat="46.06671" lon="6.28718">
        <ele>671.62</ele>
        <time>2020-04-16T10:09:22Z</time>
      </trkpt>
      <trkpt lat="46.06523" lon="6.28808">
        <ele>679.31</ele>
        <time>2020-04-16T10:09:32Z</time>
      </trkpt>
      <trkpt lat="46.06479" lon="6.28826">
        <ele>681.71</ele>
        <time>2020-04-16T10:09:36Z</time>
      </trkpt>
      <trkpt lat="46.0647" lon="6.28829">
        <ele>682.67</ele>
        <time>2020-04-16T10:09:37Z</time>
      </trkpt>
      <trkpt lat="46.06462" lon="6.28831">
        <ele>683.15</ele>
        <time>2020-04-16T10:09:38Z</time>
      </trkpt>
      <trkpt lat="46.06452" lon="6.28819">
        <ele>683.15</ele>
        <time>2020-04-16T10:09:39Z</time>
      </trkpt>
      <trkpt lat="46.06446" lon="6.28817">
        <ele>683.63</ele>
        <time>2020-04-16T10:09:40Z</time>
      </trkpt>
      <trkpt lat="46.06438" lon="6.28817">
        <ele>684.12</ele>
        <time>2020-04-16T10:09:41Z</time>
      </trkpt>
      <trkpt lat="46.06432" lon="6.28822">
        <ele>684.12</ele>
        <time>2020-04-16T10:09:42Z</time>
      </trkpt>
      <trkpt lat="46.06428" lon="6.28826">
        <ele>684.6</ele>
        <time>2020-04-16T10:09:43Z</time>
      </trkpt>
      <trkpt lat="46.06416" lon="6.28838">
        <ele>684.6</ele>
        <time>2020-04-16T10:09:44Z</time>
      </trkpt>
      <trkpt lat="46.06405" lon="6.28841">
        <ele>685.08</ele>
        <time>2020-04-16T10:09:45Z</time>
      </trkpt>
      <trkpt lat="46.06391" lon="6.28843">
        <ele>686.04</ele>
        <time>2020-04-16T10:09:46Z</time>
      </trkpt>
      <trkpt lat="46.06375" lon="6.28847">
        <ele>687</ele>
        <time>2020-04-16T10:09:47Z</time>
      </trkpt>
      <trkpt lat="46.06267" lon="6.28875">
        <ele>690.84</ele>
        <time>2020-04-16T10:09:51Z</time>
      </trkpt>
      <trkpt lat="46.06137" lon="6.28919">
        <ele>698.05</ele>
        <time>2020-04-16T10:09:56Z</time>
      </trkpt>
      <trkpt lat="46.05991" lon="6.28967">
        <ele>706.71</ele>
        <time>2020-04-16T10:10:03Z</time>
      </trkpt>
      <trkpt lat="46.058" lon="6.29007">
        <ele>714.88</ele>
        <time>2020-04-16T10:10:12Z</time>
      </trkpt>
      <trkpt lat="46.05774" lon="6.29002">
        <ele>715.84</ele>
        <time>2020-04-16T10:10:13Z</time>
      </trkpt>
      <trkpt lat="46.05748" lon="6.28993">
        <ele>717.28</ele>
        <time>2020-04-16T10:10:14Z</time>
      </trkpt>
      <trkpt lat="46.05723" lon="6.2898">
        <ele>718.24</ele>
        <time>2020-04-16T10:10:15Z</time>
      </trkpt>
      <trkpt lat="46.05698" lon="6.28964">
        <ele>719.68</ele>
        <time>2020-04-16T10:10:16Z</time>
      </trkpt>
      <trkpt lat="46.05675" lon="6.28945">
        <ele>721.61</ele>
        <time>2020-04-16T10:10:17Z</time>
      </trkpt>
      <trkpt lat="46.05653" lon="6.28922">
        <ele>723.05</ele>
        <time>2020-04-16T10:10:18Z</time>
      </trkpt>
      <trkpt lat="46.05635" lon="6.28894">
        <ele>724.01</ele>
        <time>2020-04-16T10:10:19Z</time>
      </trkpt>
      <trkpt lat="46.05618" lon="6.28866">
        <ele>725.45</ele>
        <time>2020-04-16T10:10:20Z</time>
      </trkpt>
      <trkpt lat="46.05602" lon="6.28837">
        <ele>726.89</ele>
        <time>2020-04-16T10:10:21Z</time>
      </trkpt>
      <trkpt lat="46.05589" lon="6.28804">
        <ele>728.34</ele>
        <time>2020-04-16T10:10:22Z</time>
      </trkpt>
      <trkpt lat="46.05575" lon="6.28771">
        <ele>729.78</ele>
        <time>2020-04-16T10:10:23Z</time>
      </trkpt>
      <trkpt lat="46.05487" lon="6.28516">
        <ele>736.99</ele>
        <time>2020-04-16T10:10:31Z</time>
      </trkpt>
      <trkpt lat="46.05354" lon="6.28139">
        <ele>746.12</ele>
        <time>2020-04-16T10:10:44Z</time>
      </trkpt>
      <trkpt lat="46.05231" lon="6.27787">
        <ele>751.41</ele>
        <time>2020-04-16T10:10:56Z</time>
      </trkpt>
      <trkpt lat="46.05151" lon="6.2749">
        <ele>755.73</ele>
        <time>2020-04-16T10:11:06Z</time>
      </trkpt>
      <trkpt lat="46.05123" lon="6.27243">
        <ele>761.5</ele>
        <time>2020-04-16T10:11:14Z</time>
      </trkpt>
      <trkpt lat="46.05134" lon="6.2702">
        <ele>768.23</ele>
        <time>2020-04-16T10:11:21Z</time>
      </trkpt>
      <trkpt lat="46.05146" lon="6.26795">
        <ele>771.6</ele>
        <time>2020-04-16T10:11:28Z</time>
      </trkpt>
      <trkpt lat="46.05143" lon="6.26763">
        <ele>772.08</ele>
        <time>2020-04-16T10:11:29Z</time>
      </trkpt>
      <trkpt lat="46.05138" lon="6.26732">
        <ele>772.08</ele>
        <time>2020-04-16T10:11:30Z</time>
      </trkpt>
      <trkpt lat="46.0513" lon="6.26702">
        <ele>772.56</ele>
        <time>2020-04-16T10:11:31Z</time>
      </trkpt>
      <trkpt lat="46.05123" lon="6.26672">
        <ele>773.04</ele>
        <time>2020-04-16T10:11:32Z</time>
      </trkpt>
      <trkpt lat="46.05113" lon="6.26644">
        <ele>773.52</ele>
        <time>2020-04-16T10:11:33Z</time>
      </trkpt>
      <trkpt lat="46.05102" lon="6.26616">
        <ele>774</ele>
        <time>2020-04-16T10:11:34Z</time>
      </trkpt>
      <trkpt lat="46.05089" lon="6.26592">
        <ele>774.96</ele>
        <time>2020-04-16T10:11:35Z</time>
      </trkpt>
      <trkpt lat="46.05076" lon="6.26568">
        <ele>775.92</ele>
        <time>2020-04-16T10:11:36Z</time>
      </trkpt>
      <trkpt lat="46.0506" lon="6.26546">
        <ele>776.88</ele>
        <time>2020-04-16T10:11:37Z</time>
      </trkpt>
      <trkpt lat="46.05043" lon="6.26527">
        <ele>778.32</ele>
        <time>2020-04-16T10:11:38Z</time>
      </trkpt>
      <trkpt lat="46.05026" lon="6.26509">
        <ele>779.77</ele>
        <time>2020-04-16T10:11:39Z</time>
      </trkpt>
      <trkpt lat="46.05009" lon="6.26492">
        <ele>781.21</ele>
        <time>2020-04-16T10:11:40Z</time>
      </trkpt>
      <trkpt lat="46.04993" lon="6.26477">
        <ele>782.17</ele>
        <time>2020-04-16T10:11:41Z</time>
      </trkpt>
      <trkpt lat="46.049" lon="6.26396">
        <ele>787.94</ele>
        <time>2020-04-16T10:11:47Z</time>
      </trkpt>
      <trkpt lat="46.04885" lon="6.26378">
        <ele>788.9</ele>
        <time>2020-04-16T10:11:48Z</time>
      </trkpt>
      <trkpt lat="46.04871" lon="6.26361">
        <ele>789.86</ele>
        <time>2020-04-16T10:11:49Z</time>
      </trkpt>
      <trkpt lat="46.04858" lon="6.26341">
        <ele>790.82</ele>
        <time>2020-04-16T10:11:50Z</time>
      </trkpt>
      <trkpt lat="46.04846" lon="6.2632">
        <ele>791.78</ele>
        <time>2020-04-16T10:11:51Z</time>
      </trkpt>
      <trkpt lat="46.04716" lon="6.26051">
        <ele>800.44</ele>
        <time>2020-04-16T10:12:03Z</time>
      </trkpt>
      <trkpt lat="46.04561" lon="6.25735">
        <ele>804.28</ele>
        <time>2020-04-16T10:12:17Z</time>
      </trkpt>
      <trkpt lat="46.04495" lon="6.25594">
        <ele>804.76</ele>
        <time>2020-04-16T10:12:21Z</time>
      </trkpt>
      <trkpt lat="46.04459" lon="6.25516">
        <ele>804.76</ele>
        <time>2020-04-16T10:12:23Z</time>
      </trkpt>
      <trkpt lat="46.04445" lon="6.25474">
        <ele>804.76</ele>
        <time>2020-04-16T10:12:24Z</time>
      </trkpt>
      <trkpt lat="46.04433" lon="6.2543">
        <ele>804.28</ele>
        <time>2020-04-16T10:12:25Z</time>
      </trkpt>
      <trkpt lat="46.04369" lon="6.25153">
        <ele>799.47</ele>
        <time>2020-04-16T10:12:32Z</time>
      </trkpt>
      <trkpt lat="46.04345" lon="6.25085">
        <ele>797.55</ele>
        <time>2020-04-16T10:12:34Z</time>
      </trkpt>
      <trkpt lat="46.04329" lon="6.25053">
        <ele>796.59</ele>
        <time>2020-04-16T10:12:35Z</time>
      </trkpt>
      <trkpt lat="46.04313" lon="6.25021">
        <ele>795.15</ele>
        <time>2020-04-16T10:12:36Z</time>
      </trkpt>
      <trkpt lat="46.04295" lon="6.24991">
        <ele>793.71</ele>
        <time>2020-04-16T10:12:37Z</time>
      </trkpt>
      <trkpt lat="46.04274" lon="6.24962">
        <ele>791.78</ele>
        <time>2020-04-16T10:12:38Z</time>
      </trkpt>
      <trkpt lat="46.04134" lon="6.24778">
        <ele>789.86</ele>
        <time>2020-04-16T10:12:45Z</time>
      </trkpt>
      <trkpt lat="46.04115" lon="6.24755">
        <ele>791.3</ele>
        <time>2020-04-16T10:12:46Z</time>
      </trkpt>
      <trkpt lat="46.04092" lon="6.24741">
        <ele>792.26</ele>
        <time>2020-04-16T10:12:47Z</time>
      </trkpt>
      <trkpt lat="46.04069" lon="6.24727">
        <ele>793.22</ele>
        <time>2020-04-16T10:12:48Z</time>
      </trkpt>
      <trkpt lat="46.04044" lon="6.24718">
        <ele>794.19</ele>
        <time>2020-04-16T10:12:49Z</time>
      </trkpt>
      <trkpt lat="46.0402" lon="6.24711">
        <ele>795.15</ele>
        <time>2020-04-16T10:12:50Z</time>
      </trkpt>
      <trkpt lat="46.03972" lon="6.24695">
        <ele>795.63</ele>
        <time>2020-04-16T10:12:52Z</time>
      </trkpt>
      <trkpt lat="46.0395" lon="6.24682">
        <ele>796.11</ele>
        <time>2020-04-16T10:12:53Z</time>
      </trkpt>
      <trkpt lat="46.03928" lon="6.24665">
        <ele>795.63</ele>
        <time>2020-04-16T10:12:54Z</time>
      </trkpt>
      <trkpt lat="46.03908" lon="6.24645">
        <ele>795.63</ele>
        <time>2020-04-16T10:12:55Z</time>
      </trkpt>
      <trkpt lat="46.03888" lon="6.24622">
        <ele>795.15</ele>
        <time>2020-04-16T10:12:56Z</time>
      </trkpt>
      <trkpt lat="46.03871" lon="6.24596">
        <ele>794.67</ele>
        <time>2020-04-16T10:12:57Z</time>
      </trkpt>
      <trkpt lat="46.03856" lon="6.24567">
        <ele>794.19</ele>
        <time>2020-04-16T10:12:58Z</time>
      </trkpt>
      <trkpt lat="46.03844" lon="6.24535">
        <ele>793.22</ele>
        <time>2020-04-16T10:12:59Z</time>
      </trkpt>
      <trkpt lat="46.03835" lon="6.24501">
        <ele>792.26</ele>
        <time>2020-04-16T10:13:00Z</time>
      </trkpt>
      <trkpt lat="46.03827" lon="6.24465">
        <ele>791.3</ele>
        <time>2020-04-16T10:13:01Z</time>
      </trkpt>
      <trkpt lat="46.03818" lon="6.24428">
        <ele>790.34</ele>
        <time>2020-04-16T10:13:02Z</time>
      </trkpt>
      <trkpt lat="46.03779" lon="6.2426">
        <ele>784.09</ele>
        <time>2020-04-16T10:13:07Z</time>
      </trkpt>
      <trkpt lat="46.03768" lon="6.24229">
        <ele>782.65</ele>
        <time>2020-04-16T10:13:08Z</time>
      </trkpt>
      <trkpt lat="46.03755" lon="6.24201">
        <ele>781.21</ele>
        <time>2020-04-16T10:13:09Z</time>
      </trkpt>
      <trkpt lat="46.03738" lon="6.24176">
        <ele>779.77</ele>
        <time>2020-04-16T10:13:10Z</time>
      </trkpt>
      <trkpt lat="46.03721" lon="6.24151">
        <ele>778.32</ele>
        <time>2020-04-16T10:13:11Z</time>
      </trkpt>
      <trkpt lat="46.03705" lon="6.24126">
        <ele>776.88</ele>
        <time>2020-04-16T10:13:12Z</time>
      </trkpt>
      <trkpt lat="46.03686" lon="6.24108">
        <ele>775.44</ele>
        <time>2020-04-16T10:13:13Z</time>
      </trkpt>
      <trkpt lat="46.03667" lon="6.24091">
        <ele>774</ele>
        <time>2020-04-16T10:13:14Z</time>
      </trkpt>
      <trkpt lat="46.03648" lon="6.2408">
        <ele>773.04</ele>
        <time>2020-04-16T10:13:15Z</time>
      </trkpt>
      <trkpt lat="46.03629" lon="6.24074">
        <ele>771.6</ele>
        <time>2020-04-16T10:13:16Z</time>
      </trkpt>
      <trkpt lat="46.03609" lon="6.24072">
        <ele>770.63</ele>
        <time>2020-04-16T10:13:17Z</time>
      </trkpt>
      <trkpt lat="46.03591" lon="6.24072">
        <ele>769.67</ele>
        <time>2020-04-16T10:13:18Z</time>
      </trkpt>
      <trkpt lat="46.03572" lon="6.24078">
        <ele>768.71</ele>
        <time>2020-04-16T10:13:19Z</time>
      </trkpt>
      <trkpt lat="46.03554" lon="6.24084">
        <ele>767.75</ele>
        <time>2020-04-16T10:13:20Z</time>
      </trkpt>
      <trkpt lat="46.03539" lon="6.24097">
        <ele>766.79</ele>
        <time>2020-04-16T10:13:21Z</time>
      </trkpt>
      <trkpt lat="46.03525" lon="6.24112">
        <ele>766.31</ele>
        <time>2020-04-16T10:13:22Z</time>
      </trkpt>
      <trkpt lat="46.03513" lon="6.24132">
        <ele>765.83</ele>
        <time>2020-04-16T10:13:23Z</time>
      </trkpt>
      <trkpt lat="46.03501" lon="6.24152">
        <ele>764.87</ele>
        <time>2020-04-16T10:13:24Z</time>
      </trkpt>
      <trkpt lat="46.03489" lon="6.24172">
        <ele>763.9</ele>
        <time>2020-04-16T10:13:25Z</time>
      </trkpt>
      <trkpt lat="46.03453" lon="6.24227">
        <ele>760.54</ele>
        <time>2020-04-16T10:13:28Z</time>
      </trkpt>
      <trkpt lat="46.0344" lon="6.24241">
        <ele>759.58</ele>
        <time>2020-04-16T10:13:29Z</time>
      </trkpt>
      <trkpt lat="46.03424" lon="6.2425">
        <ele>758.62</ele>
        <time>2020-04-16T10:13:30Z</time>
      </trkpt>
      <trkpt lat="46.03408" lon="6.24258">
        <ele>757.66</ele>
        <time>2020-04-16T10:13:31Z</time>
      </trkpt>
      <trkpt lat="46.03391" lon="6.24263">
        <ele>756.69</ele>
        <time>2020-04-16T10:13:32Z</time>
      </trkpt>
      <trkpt lat="46.03374" lon="6.24261">
        <ele>755.73</ele>
        <time>2020-04-16T10:13:33Z</time>
      </trkpt>
      <trkpt lat="46.03357" lon="6.24256">
        <ele>754.29</ele>
        <time>2020-04-16T10:13:34Z</time>
      </trkpt>
      <trkpt lat="46.03342" lon="6.24247">
        <ele>753.81</ele>
        <time>2020-04-16T10:13:35Z</time>
      </trkpt>
      <trkpt lat="46.03326" lon="6.24234">
        <ele>752.85</ele>
        <time>2020-04-16T10:13:36Z</time>
      </trkpt>
      <trkpt lat="46.03311" lon="6.24221">
        <ele>752.37</ele>
        <time>2020-04-16T10:13:37Z</time>
      </trkpt>
      <trkpt lat="46.03295" lon="6.24205">
        <ele>752.37</ele>
        <time>2020-04-16T10:13:38Z</time>
      </trkpt>
      <trkpt lat="46.03282" lon="6.24184">
        <ele>751.89</ele>
        <time>2020-04-16T10:13:39Z</time>
      </trkpt>
      <trkpt lat="46.03181" lon="6.24049">
        <ele>749.49</ele>
        <time>2020-04-16T10:13:45Z</time>
      </trkpt>
      <trkpt lat="46.03033" lon="6.23887">
        <ele>747.08</ele>
        <time>2020-04-16T10:13:52Z</time>
      </trkpt>
      <trkpt lat="46.03008" lon="6.23874">
        <ele>746.6</ele>
        <time>2020-04-16T10:13:53Z</time>
      </trkpt>
      <trkpt lat="46.02798" lon="6.23786">
        <ele>742.28</ele>
        <time>2020-04-16T10:14:01Z</time>
      </trkpt>
      <trkpt lat="46.026" lon="6.23748">
        <ele>734.1</ele>
        <time>2020-04-16T10:14:09Z</time>
      </trkpt>
      <trkpt lat="46.02555" lon="6.23724">
        <ele>732.18</ele>
        <time>2020-04-16T10:14:11Z</time>
      </trkpt>
      <trkpt lat="46.02534" lon="6.23706">
        <ele>731.22</ele>
        <time>2020-04-16T10:14:12Z</time>
      </trkpt>
      <trkpt lat="46.02515" lon="6.23685">
        <ele>730.26</ele>
        <time>2020-04-16T10:14:13Z</time>
      </trkpt>
      <trkpt lat="46.02498" lon="6.2366">
        <ele>729.78</ele>
        <time>2020-04-16T10:14:14Z</time>
      </trkpt>
      <trkpt lat="46.02482" lon="6.23633">
        <ele>728.82</ele>
        <time>2020-04-16T10:14:15Z</time>
      </trkpt>
      <trkpt lat="46.02467" lon="6.23607">
        <ele>728.34</ele>
        <time>2020-04-16T10:14:16Z</time>
      </trkpt>
      <trkpt lat="46.02454" lon="6.23579">
        <ele>727.37</ele>
        <time>2020-04-16T10:14:17Z</time>
      </trkpt>
      <trkpt lat="46.02418" lon="6.23504">
        <ele>724.49</ele>
        <time>2020-04-16T10:14:20Z</time>
      </trkpt>
      <trkpt lat="46.02405" lon="6.23482">
        <ele>724.01</ele>
        <time>2020-04-16T10:14:21Z</time>
      </trkpt>
      <trkpt lat="46.02389" lon="6.23467">
        <ele>723.05</ele>
        <time>2020-04-16T10:14:22Z</time>
      </trkpt>
      <trkpt lat="46.02374" lon="6.23453">
        <ele>722.09</ele>
        <time>2020-04-16T10:14:23Z</time>
      </trkpt>
      <trkpt lat="46.02359" lon="6.2344">
        <ele>720.65</ele>
        <time>2020-04-16T10:14:24Z</time>
      </trkpt>
      <trkpt lat="46.02293" lon="6.23379">
        <ele>714.88</ele>
        <time>2020-04-16T10:14:29Z</time>
      </trkpt>
      <trkpt lat="46.02282" lon="6.23363">
        <ele>713.44</ele>
        <time>2020-04-16T10:14:30Z</time>
      </trkpt>
      <trkpt lat="46.02271" lon="6.23346">
        <ele>712.47</ele>
        <time>2020-04-16T10:14:31Z</time>
      </trkpt>
      <trkpt lat="46.02262" lon="6.23328">
        <ele>711.99</ele>
        <time>2020-04-16T10:14:32Z</time>
      </trkpt>
      <trkpt lat="46.02254" lon="6.2331">
        <ele>711.03</ele>
        <time>2020-04-16T10:14:33Z</time>
      </trkpt>
      <trkpt lat="46.02136" lon="6.23086">
        <ele>705.75</ele>
        <time>2020-04-16T10:14:44Z</time>
      </trkpt>
      <trkpt lat="46.02121" lon="6.23064">
        <ele>704.78</ele>
        <time>2020-04-16T10:14:45Z</time>
      </trkpt>
      <trkpt lat="46.02085" lon="6.23019">
        <ele>704.3</ele>
        <time>2020-04-16T10:14:47Z</time>
      </trkpt>
      <trkpt lat="46.02071" lon="6.22994">
        <ele>703.82</ele>
        <time>2020-04-16T10:14:48Z</time>
      </trkpt>
      <trkpt lat="46.02059" lon="6.22964">
        <ele>703.34</ele>
        <time>2020-04-16T10:14:49Z</time>
      </trkpt>
      <trkpt lat="46.02048" lon="6.22931">
        <ele>702.86</ele>
        <time>2020-04-16T10:14:50Z</time>
      </trkpt>
      <trkpt lat="46.0204" lon="6.22896">
        <ele>702.38</ele>
        <time>2020-04-16T10:14:51Z</time>
      </trkpt>
      <trkpt lat="46.02034" lon="6.22858">
        <ele>701.9</ele>
        <time>2020-04-16T10:14:52Z</time>
      </trkpt>
      <trkpt lat="46.01991" lon="6.22554">
        <ele>698.05</ele>
        <time>2020-04-16T10:14:59Z</time>
      </trkpt>
      <trkpt lat="46.01933" lon="6.22184">
        <ele>691.81</ele>
        <time>2020-04-16T10:15:08Z</time>
      </trkpt>
      <trkpt lat="46.01862" lon="6.21906">
        <ele>687.48</ele>
        <time>2020-04-16T10:15:15Z</time>
      </trkpt>
      <trkpt lat="46.01735" lon="6.21591">
        <ele>683.15</ele>
        <time>2020-04-16T10:15:24Z</time>
      </trkpt>
      <trkpt lat="46.01704" lon="6.21526">
        <ele>682.67</ele>
        <time>2020-04-16T10:15:26Z</time>
      </trkpt>
      <trkpt lat="46.01686" lon="6.21497">
        <ele>682.19</ele>
        <time>2020-04-16T10:15:27Z</time>
      </trkpt>
      <trkpt lat="46.01666" lon="6.21471">
        <ele>682.19</ele>
        <time>2020-04-16T10:15:28Z</time>
      </trkpt>
      <trkpt lat="46.0149" lon="6.21298">
        <ele>680.75</ele>
        <time>2020-04-16T10:15:36Z</time>
      </trkpt>
      <trkpt lat="46.01429" lon="6.21231">
        <ele>679.31</ele>
        <time>2020-04-16T10:15:39Z</time>
      </trkpt>
      <trkpt lat="46.01409" lon="6.21204">
        <ele>678.83</ele>
        <time>2020-04-16T10:15:40Z</time>
      </trkpt>
      <trkpt lat="46.01392" lon="6.21173">
        <ele>678.35</ele>
        <time>2020-04-16T10:15:41Z</time>
      </trkpt>
      <trkpt lat="46.01268" lon="6.21001">
        <ele>674.5</ele>
        <time>2020-04-16T10:15:47Z</time>
      </trkpt>
      <trkpt lat="46.01095" lon="6.20791">
        <ele>669.7</ele>
        <time>2020-04-16T10:15:54Z</time>
      </trkpt>
      <trkpt lat="46.00958" lon="6.20628">
        <ele>664.89</ele>
        <time>2020-04-16T10:16:01Z</time>
      </trkpt>
      <trkpt lat="46.00879" lon="6.20523">
        <ele>663.45</ele>
        <time>2020-04-16T10:16:06Z</time>
      </trkpt>
      <trkpt lat="46.00869" lon="6.20496">
        <ele>662.97</ele>
        <time>2020-04-16T10:16:07Z</time>
      </trkpt>
      <trkpt lat="46.00858" lon="6.20467">
        <ele>662.01</ele>
        <time>2020-04-16T10:16:08Z</time>
      </trkpt>
      <trkpt lat="46.0085" lon="6.20435">
        <ele>661.52</ele>
        <time>2020-04-16T10:16:09Z</time>
      </trkpt>
      <trkpt lat="46.00841" lon="6.20401">
        <ele>661.04</ele>
        <time>2020-04-16T10:16:10Z</time>
      </trkpt>
      <trkpt lat="46.00766" lon="6.20121">
        <ele>653.83</ele>
        <time>2020-04-16T10:16:17Z</time>
      </trkpt>
      <trkpt lat="46.0069" lon="6.1978">
        <ele>639.89</ele>
        <time>2020-04-16T10:16:25Z</time>
      </trkpt>
      <trkpt lat="46.00678" lon="6.19739">
        <ele>637.97</ele>
        <time>2020-04-16T10:16:26Z</time>
      </trkpt>
      <trkpt lat="46.00612" lon="6.19572">
        <ele>630.28</ele>
        <time>2020-04-16T10:16:31Z</time>
      </trkpt>
      <trkpt lat="46.006" lon="6.1955">
        <ele>628.84</ele>
        <time>2020-04-16T10:16:32Z</time>
      </trkpt>
      <trkpt lat="46.00586" lon="6.19532">
        <ele>627.4</ele>
        <time>2020-04-16T10:16:33Z</time>
      </trkpt>
      <trkpt lat="46.00571" lon="6.19515">
        <ele>626.44</ele>
        <time>2020-04-16T10:16:34Z</time>
      </trkpt>
      <trkpt lat="46.00555" lon="6.195">
        <ele>624.99</ele>
        <time>2020-04-16T10:16:35Z</time>
      </trkpt>
      <trkpt lat="46.0054" lon="6.19486">
        <ele>623.55</ele>
        <time>2020-04-16T10:16:36Z</time>
      </trkpt>
      <trkpt lat="46.00525" lon="6.19472">
        <ele>622.11</ele>
        <time>2020-04-16T10:16:37Z</time>
      </trkpt>
      <trkpt lat="46.00514" lon="6.19454">
        <ele>620.67</ele>
        <time>2020-04-16T10:16:38Z</time>
      </trkpt>
      <trkpt lat="46.00502" lon="6.19435">
        <ele>619.23</ele>
        <time>2020-04-16T10:16:39Z</time>
      </trkpt>
      <trkpt lat="46.00493" lon="6.19418">
        <ele>617.78</ele>
        <time>2020-04-16T10:16:40Z</time>
      </trkpt>
      <trkpt lat="46.00486" lon="6.19399">
        <ele>616.82</ele>
        <time>2020-04-16T10:16:41Z</time>
      </trkpt>
      <trkpt lat="46.0048" lon="6.19382">
        <ele>615.38</ele>
        <time>2020-04-16T10:16:42Z</time>
      </trkpt>
      <trkpt lat="46.0048" lon="6.19363">
        <ele>614.42</ele>
        <time>2020-04-16T10:16:43Z</time>
      </trkpt>
      <trkpt lat="46.00485" lon="6.19346">
        <ele>613.46</ele>
        <time>2020-04-16T10:16:44Z</time>
      </trkpt>
      <trkpt lat="46.00493" lon="6.1933">
        <ele>612.5</ele>
        <time>2020-04-16T10:16:45Z</time>
      </trkpt>
      <trkpt lat="46.00503" lon="6.19317">
        <ele>611.54</ele>
        <time>2020-04-16T10:16:46Z</time>
      </trkpt>
      <trkpt lat="46.00519" lon="6.19307">
        <ele>610.57</ele>
        <time>2020-04-16T10:16:47Z</time>
      </trkpt>
      <trkpt lat="46.00532" lon="6.19309">
        <ele>609.61</ele>
        <time>2020-04-16T10:16:48Z</time>
      </trkpt>
      <trkpt lat="46.00547" lon="6.1932">
        <ele>608.65</ele>
        <time>2020-04-16T10:16:49Z</time>
      </trkpt>
      <trkpt lat="46.00563" lon="6.19334">
        <ele>608.17</ele>
        <time>2020-04-16T10:16:50Z</time>
      </trkpt>
      <trkpt lat="46.00578" lon="6.19354">
        <ele>607.21</ele>
        <time>2020-04-16T10:16:51Z</time>
      </trkpt>
      <trkpt lat="46.00593" lon="6.19379">
        <ele>606.73</ele>
        <time>2020-04-16T10:16:52Z</time>
      </trkpt>
      <trkpt lat="46.00658" lon="6.19516">
        <ele>602.4</ele>
        <time>2020-04-16T10:16:58Z</time>
      </trkpt>
      <trkpt lat="46.00665" lon="6.1953">
        <ele>601.92</ele>
        <time>2020-04-16T10:16:59Z</time>
      </trkpt>
      <trkpt lat="46.00672" lon="6.19537">
        <ele>600.96</ele>
        <time>2020-04-16T10:17:00Z</time>
      </trkpt>
      <trkpt lat="46.00682" lon="6.19541">
        <ele>600.48</ele>
        <time>2020-04-16T10:17:01Z</time>
      </trkpt>
      <trkpt lat="46.00689" lon="6.19538">
        <ele>600</ele>
        <time>2020-04-16T10:17:02Z</time>
      </trkpt>
      <trkpt lat="46.00692" lon="6.1953">
        <ele>599.52</ele>
        <time>2020-04-16T10:17:03Z</time>
      </trkpt>
      <trkpt lat="46.00694" lon="6.19513">
        <ele>599.04</ele>
        <time>2020-04-16T10:17:04Z</time>
      </trkpt>
      <trkpt lat="46.00692" lon="6.19498">
        <ele>598.56</ele>
        <time>2020-04-16T10:17:05Z</time>
      </trkpt>
      <trkpt lat="46.00685" lon="6.19481">
        <ele>598.08</ele>
        <time>2020-04-16T10:17:06Z</time>
      </trkpt>
      <trkpt lat="46.00676" lon="6.19459">
        <ele>597.6</ele>
        <time>2020-04-16T10:17:07Z</time>
      </trkpt>
      <trkpt lat="46.00666" lon="6.19434">
        <ele>596.64</ele>
        <time>2020-04-16T10:17:08Z</time>
      </trkpt>
      <trkpt lat="46.00599" lon="6.19241">
        <ele>590.39</ele>
        <time>2020-04-16T10:17:14Z</time>
      </trkpt>
      <trkpt lat="46.005" lon="6.19003">
        <ele>578.37</ele>
        <time>2020-04-16T10:17:22Z</time>
      </trkpt>
      <trkpt lat="46.00459" lon="6.1894">
        <ele>574.04</ele>
        <time>2020-04-16T10:17:25Z</time>
      </trkpt>
      <trkpt lat="46.00446" lon="6.18923">
        <ele>572.6</ele>
        <time>2020-04-16T10:17:26Z</time>
      </trkpt>
      <trkpt lat="46.00411" lon="6.18886">
        <ele>568.76</ele>
        <time>2020-04-16T10:17:29Z</time>
      </trkpt>
      <trkpt lat="46.00409" lon="6.18867">
        <ele>567.8</ele>
        <time>2020-04-16T10:17:30Z</time>
      </trkpt>
      <trkpt lat="46.00403" lon="6.18855">
        <ele>566.83</ele>
        <time>2020-04-16T10:17:31Z</time>
      </trkpt>
      <trkpt lat="46.00401" lon="6.18846">
        <ele>565.87</ele>
        <time>2020-04-16T10:17:32Z</time>
      </trkpt>
      <trkpt lat="46.00404" lon="6.18835">
        <ele>565.39</ele>
        <time>2020-04-16T10:17:33Z</time>
      </trkpt>
      <trkpt lat="46.0041" lon="6.18827">
        <ele>564.91</ele>
        <time>2020-04-16T10:17:34Z</time>
      </trkpt>
      <trkpt lat="46.00418" lon="6.18821">
        <ele>564.43</ele>
        <time>2020-04-16T10:17:35Z</time>
      </trkpt>
      <trkpt lat="46.0043" lon="6.18821">
        <ele>563.95</ele>
        <time>2020-04-16T10:17:36Z</time>
      </trkpt>
      <trkpt lat="46.00437" lon="6.18826">
        <ele>563.47</ele>
        <time>2020-04-16T10:17:37Z</time>
      </trkpt>
      <trkpt lat="46.00444" lon="6.18844">
        <ele>563.47</ele>
        <time>2020-04-16T10:17:38Z</time>
      </trkpt>
      <trkpt lat="46.00448" lon="6.18858">
        <ele>563.47</ele>
        <time>2020-04-16T10:17:39Z</time>
      </trkpt>
      <trkpt lat="46.00452" lon="6.18884">
        <ele>562.99</ele>
        <time>2020-04-16T10:17:40Z</time>
      </trkpt>
      <trkpt lat="46.00439" lon="6.18897">
        <ele>562.51</ele>
        <time>2020-04-16T10:17:41Z</time>
      </trkpt>
      <trkpt lat="46.00437" lon="6.189">
        <ele>562.51</ele>
        <time>2020-04-16T10:17:42Z</time>
      </trkpt>
      <trkpt lat="46.00426" lon="6.18915">
        <ele>562.51</ele>
        <time>2020-04-16T10:17:43Z</time>
      </trkpt>
      <trkpt lat="46.00415" lon="6.18932">
        <ele>562.03</ele>
        <time>2020-04-16T10:17:44Z</time>
      </trkpt>
      <trkpt lat="46.00404" lon="6.1895">
        <ele>562.03</ele>
        <time>2020-04-16T10:17:45Z</time>
      </trkpt>
      <trkpt lat="46.00397" lon="6.18974">
        <ele>562.51</ele>
        <time>2020-04-16T10:17:46Z</time>
      </trkpt>
      <trkpt lat="46.00391" lon="6.18999">
        <ele>562.99</ele>
        <time>2020-04-16T10:17:47Z</time>
      </trkpt>
      <trkpt lat="46.00385" lon="6.19028">
        <ele>563.95</ele>
        <time>2020-04-16T10:17:48Z</time>
      </trkpt>
      <trkpt lat="46.00331" lon="6.19292">
        <ele>569.72</ele>
        <time>2020-04-16T10:17:56Z</time>
      </trkpt>
      <trkpt lat="46.00288" lon="6.19587">
        <ele>570.68</ele>
        <time>2020-04-16T10:18:05Z</time>
      </trkpt>
      <trkpt lat="46.00281" lon="6.1977">
        <ele>570.68</ele>
        <time>2020-04-16T10:18:11Z</time>
      </trkpt>
      <trkpt lat="46.00276" lon="6.19799">
        <ele>570.68</ele>
        <time>2020-04-16T10:18:12Z</time>
      </trkpt>
      <trkpt lat="46.00266" lon="6.19827">
        <ele>570.68</ele>
        <time>2020-04-16T10:18:13Z</time>
      </trkpt>
      <trkpt lat="46.00213" lon="6.19969">
        <ele>571.64</ele>
        <time>2020-04-16T10:18:19Z</time>
      </trkpt>
      <trkpt lat="46.00195" lon="6.20017">
        <ele>572.12</ele>
        <time>2020-04-16T10:18:23Z</time>
      </trkpt>
      <trkpt lat="46.00193" lon="6.20022">
        <ele>572.12</ele>
        <time>2020-04-16T10:18:24Z</time>
      </trkpt>
      <trkpt lat="46.00192" lon="6.20024">
        <ele>572.12</ele>
        <time>2020-04-16T10:18:25Z</time>
      </trkpt>
      <trkpt lat="46.00178" lon="6.19998">
        <ele>572.12</ele>
        <time>2020-04-16T10:18:32Z</time>
      </trkpt>
      <trkpt lat="46.00178" lon="6.19996">
        <ele>575.49</ele>
        <time>2020-04-16T10:18:44Z</time>
      </trkpt>
      <trkpt lat="46.00178" lon="6.19996">
        <ele>575.49</ele>
        <time>2020-04-16T10:18:56Z</time>
      </trkpt>
      <trkpt lat="46.00178" lon="6.19996">
        <ele>575.49</ele>
        <time>2020-04-16T10:19:02Z</time>
      </trkpt>
      <trkpt lat="46.00178" lon="6.19998">
        <ele>575.97</ele>
        <time>2020-04-16T10:19:15Z</time>
      </trkpt>
    </trkseg>
  </trk>
  <trk>
    <name><![CDATA[Journal actif: 2020-04-17 17:14]]></name>
    <trkseg>
      <trkpt lat="46.00181" lon="6.19997">
        <ele>578.85</ele>
        <time>2020-04-17T15:14:28Z</time>
      </trkpt>
      <trkpt lat="46.00186" lon="6.19991">
        <ele>577.41</ele>
        <time>2020-04-17T15:15:00Z</time>
      </trkpt>
      <trkpt lat="46.00181" lon="6.19996">
        <ele>563.47</ele>
        <time>2020-04-17T15:15:34Z</time>
      </trkpt>
      <trkpt lat="46.00194" lon="6.2002">
        <ele>566.35</ele>
        <time>2020-04-17T15:15:38Z</time>
      </trkpt>
      <trkpt lat="46.00193" lon="6.20023">
        <ele>566.83</ele>
        <time>2020-04-17T15:15:39Z</time>
      </trkpt>
      <trkpt lat="46.00191" lon="6.20028">
        <ele>567.32</ele>
        <time>2020-04-17T15:15:40Z</time>
      </trkpt>
      <trkpt lat="46.0019" lon="6.20031">
        <ele>567.32</ele>
        <time>2020-04-17T15:15:41Z</time>
      </trkpt>
      <trkpt lat="46.00193" lon="6.20022">
        <ele>568.28</ele>
        <time>2020-04-17T15:15:48Z</time>
      </trkpt>
      <trkpt lat="46.00197" lon="6.20013">
        <ele>568.28</ele>
        <time>2020-04-17T15:15:49Z</time>
      </trkpt>
      <trkpt lat="46.00228" lon="6.1993">
        <ele>566.35</ele>
        <time>2020-04-17T15:15:54Z</time>
      </trkpt>
      <trkpt lat="46.00279" lon="6.1979">
        <ele>564.91</ele>
        <time>2020-04-17T15:16:00Z</time>
      </trkpt>
      <trkpt lat="46.00282" lon="6.19763">
        <ele>564.91</ele>
        <time>2020-04-17T15:16:01Z</time>
      </trkpt>
      <trkpt lat="46.00284" lon="6.19736">
        <ele>564.91</ele>
        <time>2020-04-17T15:16:02Z</time>
      </trkpt>
      <trkpt lat="46.00301" lon="6.19448">
        <ele>564.91</ele>
        <time>2020-04-17T15:16:12Z</time>
      </trkpt>
      <trkpt lat="46.00365" lon="6.1912">
        <ele>564.43</ele>
        <time>2020-04-17T15:16:24Z</time>
      </trkpt>
      <trkpt lat="46.00393" lon="6.18991">
        <ele>562.03</ele>
        <time>2020-04-17T15:16:31Z</time>
      </trkpt>
      <trkpt lat="46.00399" lon="6.18961">
        <ele>559.14</ele>
        <time>2020-04-17T15:16:34Z</time>
      </trkpt>
      <trkpt lat="46.00401" lon="6.18955">
        <ele>558.18</ele>
        <time>2020-04-17T15:16:35Z</time>
      </trkpt>
      <trkpt lat="46.00394" lon="6.18951">
        <ele>557.22</ele>
        <time>2020-04-17T15:16:36Z</time>
      </trkpt>
      <trkpt lat="46.0039" lon="6.18949">
        <ele>556.26</ele>
        <time>2020-04-17T15:16:37Z</time>
      </trkpt>
      <trkpt lat="46.00384" lon="6.18945">
        <ele>555.3</ele>
        <time>2020-04-17T15:16:38Z</time>
      </trkpt>
      <trkpt lat="46.00379" lon="6.18942">
        <ele>554.82</ele>
        <time>2020-04-17T15:16:39Z</time>
      </trkpt>
      <trkpt lat="46.00372" lon="6.18935">
        <ele>554.34</ele>
        <time>2020-04-17T15:16:40Z</time>
      </trkpt>
      <trkpt lat="46.00366" lon="6.18929">
        <ele>553.86</ele>
        <time>2020-04-17T15:16:41Z</time>
      </trkpt>
      <trkpt lat="46.00361" lon="6.18919">
        <ele>552.9</ele>
        <time>2020-04-17T15:16:42Z</time>
      </trkpt>
      <trkpt lat="46.00358" lon="6.18906">
        <ele>551.93</ele>
        <time>2020-04-17T15:16:43Z</time>
      </trkpt>
      <trkpt lat="46.0036" lon="6.18895">
        <ele>551.45</ele>
        <time>2020-04-17T15:16:44Z</time>
      </trkpt>
      <trkpt lat="46.00368" lon="6.18883">
        <ele>550.97</ele>
        <time>2020-04-17T15:16:45Z</time>
      </trkpt>
      <trkpt lat="46.00375" lon="6.18879">
        <ele>550.49</ele>
        <time>2020-04-17T15:16:46Z</time>
      </trkpt>
      <trkpt lat="46.00385" lon="6.18878">
        <ele>550.01</ele>
        <time>2020-04-17T15:16:47Z</time>
      </trkpt>
      <trkpt lat="46.00394" lon="6.18882">
        <ele>550.01</ele>
        <time>2020-04-17T15:16:48Z</time>
      </trkpt>
      <trkpt lat="46.00406" lon="6.18888">
        <ele>550.01</ele>
        <time>2020-04-17T15:16:49Z</time>
      </trkpt>
      <trkpt lat="46.0042" lon="6.18895">
        <ele>550.49</ele>
        <time>2020-04-17T15:16:50Z</time>
      </trkpt>
      <trkpt lat="46.00433" lon="6.18907">
        <ele>551.45</ele>
        <time>2020-04-17T15:16:51Z</time>
      </trkpt>
      <trkpt lat="46.00481" lon="6.18969">
        <ele>555.78</ele>
        <time>2020-04-17T15:16:54Z</time>
      </trkpt>
      <trkpt lat="46.00497" lon="6.18997">
        <ele>557.7</ele>
        <time>2020-04-17T15:16:55Z</time>
      </trkpt>
      <trkpt lat="46.00513" lon="6.19028">
        <ele>559.62</ele>
        <time>2020-04-17T15:16:56Z</time>
      </trkpt>
      <trkpt lat="46.00528" lon="6.1906">
        <ele>562.03</ele>
        <time>2020-04-17T15:16:57Z</time>
      </trkpt>
      <trkpt lat="46.00542" lon="6.19094">
        <ele>563.95</ele>
        <time>2020-04-17T15:16:58Z</time>
      </trkpt>
      <trkpt lat="46.00612" lon="6.19279">
        <ele>576.93</ele>
        <time>2020-04-17T15:17:04Z</time>
      </trkpt>
      <trkpt lat="46.00665" lon="6.1943">
        <ele>588.46</ele>
        <time>2020-04-17T15:17:11Z</time>
      </trkpt>
      <trkpt lat="46.00688" lon="6.19488">
        <ele>592.31</ele>
        <time>2020-04-17T15:17:15Z</time>
      </trkpt>
      <trkpt lat="46.00695" lon="6.19505">
        <ele>592.79</ele>
        <time>2020-04-17T15:17:16Z</time>
      </trkpt>
      <trkpt lat="46.00694" lon="6.19515">
        <ele>592.79</ele>
        <time>2020-04-17T15:17:17Z</time>
      </trkpt>
      <trkpt lat="46.00692" lon="6.1953">
        <ele>593.27</ele>
        <time>2020-04-17T15:17:18Z</time>
      </trkpt>
      <trkpt lat="46.00684" lon="6.1954">
        <ele>593.27</ele>
        <time>2020-04-17T15:17:19Z</time>
      </trkpt>
      <trkpt lat="46.00675" lon="6.19538">
        <ele>593.75</ele>
        <time>2020-04-17T15:17:20Z</time>
      </trkpt>
      <trkpt lat="46.00668" lon="6.19535">
        <ele>594.23</ele>
        <time>2020-04-17T15:17:21Z</time>
      </trkpt>
      <trkpt lat="46.00662" lon="6.19523">
        <ele>594.23</ele>
        <time>2020-04-17T15:17:22Z</time>
      </trkpt>
      <trkpt lat="46.00656" lon="6.19511">
        <ele>594.71</ele>
        <time>2020-04-17T15:17:23Z</time>
      </trkpt>
      <trkpt lat="46.0065" lon="6.19498">
        <ele>595.19</ele>
        <time>2020-04-17T15:17:24Z</time>
      </trkpt>
      <trkpt lat="46.00644" lon="6.19484">
        <ele>595.67</ele>
        <time>2020-04-17T15:17:25Z</time>
      </trkpt>
      <trkpt lat="46.00573" lon="6.19346">
        <ele>602.4</ele>
        <time>2020-04-17T15:17:33Z</time>
      </trkpt>
      <trkpt lat="46.00562" lon="6.19332">
        <ele>602.88</ele>
        <time>2020-04-17T15:17:34Z</time>
      </trkpt>
      <trkpt lat="46.00549" lon="6.19321">
        <ele>603.85</ele>
        <time>2020-04-17T15:17:35Z</time>
      </trkpt>
      <trkpt lat="46.00537" lon="6.19312">
        <ele>604.33</ele>
        <time>2020-04-17T15:17:36Z</time>
      </trkpt>
      <trkpt lat="46.00524" lon="6.19308">
        <ele>605.29</ele>
        <time>2020-04-17T15:17:37Z</time>
      </trkpt>
      <trkpt lat="46.00512" lon="6.19311">
        <ele>606.73</ele>
        <time>2020-04-17T15:17:38Z</time>
      </trkpt>
      <trkpt lat="46.005" lon="6.19318">
        <ele>607.69</ele>
        <time>2020-04-17T15:17:39Z</time>
      </trkpt>
      <trkpt lat="46.00492" lon="6.1933">
        <ele>608.65</ele>
        <time>2020-04-17T15:17:40Z</time>
      </trkpt>
      <trkpt lat="46.00485" lon="6.19346">
        <ele>609.61</ele>
        <time>2020-04-17T15:17:41Z</time>
      </trkpt>
      <trkpt lat="46.0048" lon="6.19362">
        <ele>610.57</ele>
        <time>2020-04-17T15:17:42Z</time>
      </trkpt>
      <trkpt lat="46.0048" lon="6.19382">
        <ele>611.54</ele>
        <time>2020-04-17T15:17:43Z</time>
      </trkpt>
      <trkpt lat="46.00486" lon="6.19399">
        <ele>612.02</ele>
        <time>2020-04-17T15:17:44Z</time>
      </trkpt>
      <trkpt lat="46.00493" lon="6.19418">
        <ele>613.46</ele>
        <time>2020-04-17T15:17:45Z</time>
      </trkpt>
      <trkpt lat="46.00502" lon="6.19435">
        <ele>614.42</ele>
        <time>2020-04-17T15:17:46Z</time>
      </trkpt>
      <trkpt lat="46.00514" lon="6.19454">
        <ele>614.9</ele>
        <time>2020-04-17T15:17:47Z</time>
      </trkpt>
      <trkpt lat="46.00525" lon="6.19472">
        <ele>615.86</ele>
        <time>2020-04-17T15:17:48Z</time>
      </trkpt>
      <trkpt lat="46.00542" lon="6.19488">
        <ele>616.34</ele>
        <time>2020-04-17T15:17:49Z</time>
      </trkpt>
      <trkpt lat="46.00558" lon="6.19503">
        <ele>617.3</ele>
        <time>2020-04-17T15:17:50Z</time>
      </trkpt>
      <trkpt lat="46.00589" lon="6.19536">
        <ele>619.71</ele>
        <time>2020-04-17T15:17:52Z</time>
      </trkpt>
      <trkpt lat="46.00603" lon="6.19553">
        <ele>620.67</ele>
        <time>2020-04-17T15:17:53Z</time>
      </trkpt>
      <trkpt lat="46.00614" lon="6.19577">
        <ele>622.11</ele>
        <time>2020-04-17T15:17:54Z</time>
      </trkpt>
      <trkpt lat="46.00624" lon="6.19601">
        <ele>623.07</ele>
        <time>2020-04-17T15:17:55Z</time>
      </trkpt>
      <trkpt lat="46.00634" lon="6.19627">
        <ele>624.51</ele>
        <time>2020-04-17T15:17:56Z</time>
      </trkpt>
      <trkpt lat="46.007" lon="6.19814">
        <ele>632.68</ele>
        <time>2020-04-17T15:18:03Z</time>
      </trkpt>
      <trkpt lat="46.00776" lon="6.20166">
        <ele>647.1</ele>
        <time>2020-04-17T15:18:15Z</time>
      </trkpt>
      <trkpt lat="46.00874" lon="6.20508">
        <ele>658.16</ele>
        <time>2020-04-17T15:18:28Z</time>
      </trkpt>
      <trkpt lat="46.00883" lon="6.20532">
        <ele>658.64</ele>
        <time>2020-04-17T15:18:29Z</time>
      </trkpt>
      <trkpt lat="46.00896" lon="6.20552">
        <ele>659.12</ele>
        <time>2020-04-17T15:18:30Z</time>
      </trkpt>
      <trkpt lat="46.0091" lon="6.20571">
        <ele>660.08</ele>
        <time>2020-04-17T15:18:31Z</time>
      </trkpt>
      <trkpt lat="46.00925" lon="6.20589">
        <ele>660.08</ele>
        <time>2020-04-17T15:18:32Z</time>
      </trkpt>
      <trkpt lat="46.0109" lon="6.20784">
        <ele>662.01</ele>
        <time>2020-04-17T15:18:42Z</time>
      </trkpt>
      <trkpt lat="46.01283" lon="6.21019">
        <ele>665.37</ele>
        <time>2020-04-17T15:18:53Z</time>
      </trkpt>
      <trkpt lat="46.01411" lon="6.21208">
        <ele>670.18</ele>
        <time>2020-04-17T15:19:01Z</time>
      </trkpt>
      <trkpt lat="46.01541" lon="6.21348">
        <ele>674.5</ele>
        <time>2020-04-17T15:19:08Z</time>
      </trkpt>
      <trkpt lat="46.01694" lon="6.21509">
        <ele>678.35</ele>
        <time>2020-04-17T15:19:16Z</time>
      </trkpt>
      <trkpt lat="46.01709" lon="6.21535">
        <ele>679.31</ele>
        <time>2020-04-17T15:19:17Z</time>
      </trkpt>
      <trkpt lat="46.01722" lon="6.21562">
        <ele>679.79</ele>
        <time>2020-04-17T15:19:18Z</time>
      </trkpt>
      <trkpt lat="46.01846" lon="6.21864">
        <ele>682.19</ele>
        <time>2020-04-17T15:19:28Z</time>
      </trkpt>
      <trkpt lat="46.01912" lon="6.22081">
        <ele>685.08</ele>
        <time>2020-04-17T15:19:35Z</time>
      </trkpt>
      <trkpt lat="46.01967" lon="6.22399">
        <ele>689.88</ele>
        <time>2020-04-17T15:19:45Z</time>
      </trkpt>
      <trkpt lat="46.02017" lon="6.22741">
        <ele>697.57</ele>
        <time>2020-04-17T15:19:55Z</time>
      </trkpt>
      <trkpt lat="46.02044" lon="6.22916">
        <ele>699.5</ele>
        <time>2020-04-17T15:20:00Z</time>
      </trkpt>
      <trkpt lat="46.02053" lon="6.22947">
        <ele>699.98</ele>
        <time>2020-04-17T15:20:01Z</time>
      </trkpt>
      <trkpt lat="46.02063" lon="6.22977">
        <ele>699.98</ele>
        <time>2020-04-17T15:20:02Z</time>
      </trkpt>
      <trkpt lat="46.02076" lon="6.23003">
        <ele>699.98</ele>
        <time>2020-04-17T15:20:03Z</time>
      </trkpt>
      <trkpt lat="46.0209" lon="6.23026">
        <ele>699.98</ele>
        <time>2020-04-17T15:20:04Z</time>
      </trkpt>
      <trkpt lat="46.02106" lon="6.23046">
        <ele>699.98</ele>
        <time>2020-04-17T15:20:05Z</time>
      </trkpt>
      <trkpt lat="46.02121" lon="6.23064">
        <ele>699.5</ele>
        <time>2020-04-17T15:20:06Z</time>
      </trkpt>
      <trkpt lat="46.02147" lon="6.23101">
        <ele>699.98</ele>
        <time>2020-04-17T15:20:08Z</time>
      </trkpt>
      <trkpt lat="46.02228" lon="6.23257">
        <ele>703.82</ele>
        <time>2020-04-17T15:20:17Z</time>
      </trkpt>
      <trkpt lat="46.02272" lon="6.23348">
        <ele>706.71</ele>
        <time>2020-04-17T15:20:22Z</time>
      </trkpt>
      <trkpt lat="46.02282" lon="6.23364">
        <ele>707.67</ele>
        <time>2020-04-17T15:20:23Z</time>
      </trkpt>
      <trkpt lat="46.02293" lon="6.2338">
        <ele>708.15</ele>
        <time>2020-04-17T15:20:24Z</time>
      </trkpt>
      <trkpt lat="46.02307" lon="6.23393">
        <ele>708.63</ele>
        <time>2020-04-17T15:20:25Z</time>
      </trkpt>
      <trkpt lat="46.02322" lon="6.23406">
        <ele>709.59</ele>
        <time>2020-04-17T15:20:26Z</time>
      </trkpt>
      <trkpt lat="46.02339" lon="6.23421">
        <ele>710.55</ele>
        <time>2020-04-17T15:20:27Z</time>
      </trkpt>
      <trkpt lat="46.02397" lon="6.23473">
        <ele>713.92</ele>
        <time>2020-04-17T15:20:30Z</time>
      </trkpt>
      <trkpt lat="46.02414" lon="6.23498">
        <ele>715.36</ele>
        <time>2020-04-17T15:20:31Z</time>
      </trkpt>
      <trkpt lat="46.0243" lon="6.23526">
        <ele>716.32</ele>
        <time>2020-04-17T15:20:32Z</time>
      </trkpt>
      <trkpt lat="46.02444" lon="6.23556">
        <ele>717.76</ele>
        <time>2020-04-17T15:20:33Z</time>
      </trkpt>
      <trkpt lat="46.02458" lon="6.23587">
        <ele>719.2</ele>
        <time>2020-04-17T15:20:34Z</time>
      </trkpt>
      <trkpt lat="46.0249" lon="6.23646">
        <ele>721.61</ele>
        <time>2020-04-17T15:20:36Z</time>
      </trkpt>
      <trkpt lat="46.02507" lon="6.23675">
        <ele>722.57</ele>
        <time>2020-04-17T15:20:37Z</time>
      </trkpt>
      <trkpt lat="46.02528" lon="6.23699">
        <ele>723.53</ele>
        <time>2020-04-17T15:20:38Z</time>
      </trkpt>
      <trkpt lat="46.02549" lon="6.2372">
        <ele>724.49</ele>
        <time>2020-04-17T15:20:39Z</time>
      </trkpt>
      <trkpt lat="46.02571" lon="6.23734">
        <ele>725.45</ele>
        <time>2020-04-17T15:20:40Z</time>
      </trkpt>
      <trkpt lat="46.02594" lon="6.23745">
        <ele>726.41</ele>
        <time>2020-04-17T15:20:41Z</time>
      </trkpt>
      <trkpt lat="46.02618" lon="6.23754">
        <ele>727.37</ele>
        <time>2020-04-17T15:20:42Z</time>
      </trkpt>
      <trkpt lat="46.02642" lon="6.23759">
        <ele>728.34</ele>
        <time>2020-04-17T15:20:43Z</time>
      </trkpt>
      <trkpt lat="46.02667" lon="6.23764">
        <ele>729.3</ele>
        <time>2020-04-17T15:20:44Z</time>
      </trkpt>
      <trkpt lat="46.02894" lon="6.23814">
        <ele>739.39</ele>
        <time>2020-04-17T15:20:54Z</time>
      </trkpt>
      <trkpt lat="46.03035" lon="6.23889">
        <ele>743.72</ele>
        <time>2020-04-17T15:21:01Z</time>
      </trkpt>
      <trkpt lat="46.03148" lon="6.24012">
        <ele>744.68</ele>
        <time>2020-04-17T15:21:08Z</time>
      </trkpt>
      <trkpt lat="46.03263" lon="6.24154">
        <ele>748.52</ele>
        <time>2020-04-17T15:21:16Z</time>
      </trkpt>
      <trkpt lat="46.03304" lon="6.24224">
        <ele>749</ele>
        <time>2020-04-17T15:21:20Z</time>
      </trkpt>
      <trkpt lat="46.03317" lon="6.24238">
        <ele>749</ele>
        <time>2020-04-17T15:21:21Z</time>
      </trkpt>
      <trkpt lat="46.03332" lon="6.2425">
        <ele>749</ele>
        <time>2020-04-17T15:21:22Z</time>
      </trkpt>
      <trkpt lat="46.03348" lon="6.24261">
        <ele>749.49</ele>
        <time>2020-04-17T15:21:23Z</time>
      </trkpt>
      <trkpt lat="46.03364" lon="6.24268">
        <ele>749.97</ele>
        <time>2020-04-17T15:21:24Z</time>
      </trkpt>
      <trkpt lat="46.03379" lon="6.24272">
        <ele>750.45</ele>
        <time>2020-04-17T15:21:25Z</time>
      </trkpt>
      <trkpt lat="46.03398" lon="6.24269">
        <ele>750.45</ele>
        <time>2020-04-17T15:21:26Z</time>
      </trkpt>
      <trkpt lat="46.03414" lon="6.24264">
        <ele>750.93</ele>
        <time>2020-04-17T15:21:27Z</time>
      </trkpt>
      <trkpt lat="46.0343" lon="6.24254">
        <ele>751.41</ele>
        <time>2020-04-17T15:21:28Z</time>
      </trkpt>
      <trkpt lat="46.03444" lon="6.24242">
        <ele>752.37</ele>
        <time>2020-04-17T15:21:29Z</time>
      </trkpt>
      <trkpt lat="46.03456" lon="6.24223">
        <ele>752.85</ele>
        <time>2020-04-17T15:21:30Z</time>
      </trkpt>
      <trkpt lat="46.03468" lon="6.24205">
        <ele>753.33</ele>
        <time>2020-04-17T15:21:31Z</time>
      </trkpt>
      <trkpt lat="46.0348" lon="6.24186">
        <ele>754.29</ele>
        <time>2020-04-17T15:21:32Z</time>
      </trkpt>
      <trkpt lat="46.03493" lon="6.24166">
        <ele>754.77</ele>
        <time>2020-04-17T15:21:33Z</time>
      </trkpt>
      <trkpt lat="46.03519" lon="6.24122">
        <ele>756.69</ele>
        <time>2020-04-17T15:21:35Z</time>
      </trkpt>
      <trkpt lat="46.03533" lon="6.24102">
        <ele>757.66</ele>
        <time>2020-04-17T15:21:36Z</time>
      </trkpt>
      <trkpt lat="46.03549" lon="6.24088">
        <ele>758.62</ele>
        <time>2020-04-17T15:21:37Z</time>
      </trkpt>
      <trkpt lat="46.03567" lon="6.2408">
        <ele>759.1</ele>
        <time>2020-04-17T15:21:38Z</time>
      </trkpt>
      <trkpt lat="46.03585" lon="6.24074">
        <ele>760.06</ele>
        <time>2020-04-17T15:21:39Z</time>
      </trkpt>
      <trkpt lat="46.03602" lon="6.24071">
        <ele>761.5</ele>
        <time>2020-04-17T15:21:40Z</time>
      </trkpt>
      <trkpt lat="46.03619" lon="6.24073">
        <ele>762.46</ele>
        <time>2020-04-17T15:21:41Z</time>
      </trkpt>
      <trkpt lat="46.03636" lon="6.24075">
        <ele>763.9</ele>
        <time>2020-04-17T15:21:42Z</time>
      </trkpt>
      <trkpt lat="46.03652" lon="6.24082">
        <ele>764.87</ele>
        <time>2020-04-17T15:21:43Z</time>
      </trkpt>
      <trkpt lat="46.03668" lon="6.24092">
        <ele>765.83</ele>
        <time>2020-04-17T15:21:44Z</time>
      </trkpt>
      <trkpt lat="46.03684" lon="6.24106">
        <ele>766.31</ele>
        <time>2020-04-17T15:21:45Z</time>
      </trkpt>
      <trkpt lat="46.037" lon="6.24121">
        <ele>767.75</ele>
        <time>2020-04-17T15:21:46Z</time>
      </trkpt>
      <trkpt lat="46.03714" lon="6.2414">
        <ele>768.71</ele>
        <time>2020-04-17T15:21:47Z</time>
      </trkpt>
      <trkpt lat="46.03729" lon="6.24162">
        <ele>770.15</ele>
        <time>2020-04-17T15:21:48Z</time>
      </trkpt>
      <trkpt lat="46.03744" lon="6.24185">
        <ele>771.6</ele>
        <time>2020-04-17T15:21:49Z</time>
      </trkpt>
      <trkpt lat="46.03761" lon="6.2421">
        <ele>773.52</ele>
        <time>2020-04-17T15:21:50Z</time>
      </trkpt>
      <trkpt lat="46.03771" lon="6.24239">
        <ele>774.96</ele>
        <time>2020-04-17T15:21:51Z</time>
      </trkpt>
      <trkpt lat="46.03782" lon="6.24269">
        <ele>776.4</ele>
        <time>2020-04-17T15:21:52Z</time>
      </trkpt>
      <trkpt lat="46.03793" lon="6.24301">
        <ele>778.32</ele>
        <time>2020-04-17T15:21:53Z</time>
      </trkpt>
      <trkpt lat="46.038" lon="6.24335">
        <ele>780.25</ele>
        <time>2020-04-17T15:21:54Z</time>
      </trkpt>
      <trkpt lat="46.03849" lon="6.2455">
        <ele>791.78</ele>
        <time>2020-04-17T15:22:01Z</time>
      </trkpt>
      <trkpt lat="46.0386" lon="6.24576">
        <ele>792.74</ele>
        <time>2020-04-17T15:22:02Z</time>
      </trkpt>
      <trkpt lat="46.03873" lon="6.246">
        <ele>794.19</ele>
        <time>2020-04-17T15:22:03Z</time>
      </trkpt>
      <trkpt lat="46.03888" lon="6.24621">
        <ele>794.67</ele>
        <time>2020-04-17T15:22:04Z</time>
      </trkpt>
      <trkpt lat="46.03903" lon="6.2464">
        <ele>795.63</ele>
        <time>2020-04-17T15:22:05Z</time>
      </trkpt>
      <trkpt lat="46.0392" lon="6.24656">
        <ele>796.59</ele>
        <time>2020-04-17T15:22:06Z</time>
      </trkpt>
      <trkpt lat="46.03936" lon="6.24673">
        <ele>796.59</ele>
        <time>2020-04-17T15:22:07Z</time>
      </trkpt>
      <trkpt lat="46.03954" lon="6.24684">
        <ele>797.07</ele>
        <time>2020-04-17T15:22:08Z</time>
      </trkpt>
      <trkpt lat="46.03971" lon="6.24694">
        <ele>797.55</ele>
        <time>2020-04-17T15:22:09Z</time>
      </trkpt>
      <trkpt lat="46.0399" lon="6.24703">
        <ele>797.55</ele>
        <time>2020-04-17T15:22:10Z</time>
      </trkpt>
      <trkpt lat="46.04008" lon="6.24708">
        <ele>797.55</ele>
        <time>2020-04-17T15:22:11Z</time>
      </trkpt>
      <trkpt lat="46.0412" lon="6.24761">
        <ele>794.67</ele>
        <time>2020-04-17T15:22:17Z</time>
      </trkpt>
      <trkpt lat="46.04136" lon="6.2478">
        <ele>793.22</ele>
        <time>2020-04-17T15:22:18Z</time>
      </trkpt>
      <trkpt lat="46.04153" lon="6.24799">
        <ele>792.26</ele>
        <time>2020-04-17T15:22:19Z</time>
      </trkpt>
      <trkpt lat="46.04332" lon="6.25059">
        <ele>792.26</ele>
        <time>2020-04-17T15:22:30Z</time>
      </trkpt>
      <trkpt lat="46.04345" lon="6.25085">
        <ele>793.22</ele>
        <time>2020-04-17T15:22:31Z</time>
      </trkpt>
      <trkpt lat="46.04356" lon="6.25113">
        <ele>794.19</ele>
        <time>2020-04-17T15:22:32Z</time>
      </trkpt>
      <trkpt lat="46.04365" lon="6.25141">
        <ele>795.63</ele>
        <time>2020-04-17T15:22:33Z</time>
      </trkpt>
      <trkpt lat="46.04374" lon="6.2517">
        <ele>797.07</ele>
        <time>2020-04-17T15:22:34Z</time>
      </trkpt>
      <trkpt lat="46.04428" lon="6.25411">
        <ele>803.8</ele>
        <time>2020-04-17T15:22:43Z</time>
      </trkpt>
      <trkpt lat="46.04495" lon="6.25593">
        <ele>805.72</ele>
        <time>2020-04-17T15:22:51Z</time>
      </trkpt>
      <trkpt lat="46.04615" lon="6.25845">
        <ele>802.36</ele>
        <time>2020-04-17T15:23:03Z</time>
      </trkpt>
      <trkpt lat="46.04731" lon="6.26084">
        <ele>799.95</ele>
        <time>2020-04-17T15:23:14Z</time>
      </trkpt>
      <trkpt lat="46.04865" lon="6.26352">
        <ele>791.3</ele>
        <time>2020-04-17T15:23:26Z</time>
      </trkpt>
      <trkpt lat="46.04944" lon="6.26442">
        <ele>786.02</ele>
        <time>2020-04-17T15:23:33Z</time>
      </trkpt>
      <trkpt lat="46.05023" lon="6.26506">
        <ele>778.81</ele>
        <time>2020-04-17T15:23:42Z</time>
      </trkpt>
      <trkpt lat="46.05092" lon="6.26597">
        <ele>773.04</ele>
        <time>2020-04-17T15:23:51Z</time>
      </trkpt>
      <trkpt lat="46.05139" lon="6.26735">
        <ele>770.15</ele>
        <time>2020-04-17T15:24:03Z</time>
      </trkpt>
      <trkpt lat="46.05148" lon="6.26865">
        <ele>768.71</ele>
        <time>2020-04-17T15:24:11Z</time>
      </trkpt>
      <trkpt lat="46.05135" lon="6.27008">
        <ele>768.71</ele>
        <time>2020-04-17T15:24:21Z</time>
      </trkpt>
      <trkpt lat="46.05124" lon="6.27196">
        <ele>764.87</ele>
        <time>2020-04-17T15:24:33Z</time>
      </trkpt>
      <trkpt lat="46.05131" lon="6.27347">
        <ele>761.98</ele>
        <time>2020-04-17T15:24:42Z</time>
      </trkpt>
      <trkpt lat="46.05152" lon="6.27497">
        <ele>755.25</ele>
        <time>2020-04-17T15:24:53Z</time>
      </trkpt>
      <trkpt lat="46.0518" lon="6.27621">
        <ele>751.41</ele>
        <time>2020-04-17T15:25:00Z</time>
      </trkpt>
      <trkpt lat="46.05224" lon="6.27765">
        <ele>749.49</ele>
        <time>2020-04-17T15:25:05Z</time>
      </trkpt>
      <trkpt lat="46.05291" lon="6.27958">
        <ele>747.08</ele>
        <time>2020-04-17T15:25:09Z</time>
      </trkpt>
      <trkpt lat="46.05383" lon="6.28219">
        <ele>742.76</ele>
        <time>2020-04-17T15:25:14Z</time>
      </trkpt>
      <trkpt lat="46.05521" lon="6.28617">
        <ele>733.62</ele>
        <time>2020-04-17T15:25:23Z</time>
      </trkpt>
      <trkpt lat="46.05606" lon="6.28847">
        <ele>726.89</ele>
        <time>2020-04-17T15:25:29Z</time>
      </trkpt>
      <trkpt lat="46.05625" lon="6.28878">
        <ele>725.45</ele>
        <time>2020-04-17T15:25:30Z</time>
      </trkpt>
      <trkpt lat="46.05643" lon="6.28908">
        <ele>724.01</ele>
        <time>2020-04-17T15:25:31Z</time>
      </trkpt>
      <trkpt lat="46.05664" lon="6.28934">
        <ele>723.05</ele>
        <time>2020-04-17T15:25:32Z</time>
      </trkpt>
      <trkpt lat="46.05687" lon="6.28956">
        <ele>721.61</ele>
        <time>2020-04-17T15:25:33Z</time>
      </trkpt>
      <trkpt lat="46.05712" lon="6.28974">
        <ele>720.65</ele>
        <time>2020-04-17T15:25:34Z</time>
      </trkpt>
      <trkpt lat="46.05739" lon="6.2899">
        <ele>719.2</ele>
        <time>2020-04-17T15:25:35Z</time>
      </trkpt>
      <trkpt lat="46.05768" lon="6.29">
        <ele>717.76</ele>
        <time>2020-04-17T15:25:36Z</time>
      </trkpt>
      <trkpt lat="46.05797" lon="6.29007">
        <ele>716.8</ele>
        <time>2020-04-17T15:25:37Z</time>
      </trkpt>
      <trkpt lat="46.05826" lon="6.29009">
        <ele>715.36</ele>
        <time>2020-04-17T15:25:38Z</time>
      </trkpt>
      <trkpt lat="46.05856" lon="6.29006">
        <ele>713.92</ele>
        <time>2020-04-17T15:25:39Z</time>
      </trkpt>
      <trkpt lat="46.05888" lon="6.29002">
        <ele>712.47</ele>
        <time>2020-04-17T15:25:40Z</time>
      </trkpt>
      <trkpt lat="46.0592" lon="6.28991">
        <ele>711.03</ele>
        <time>2020-04-17T15:25:41Z</time>
      </trkpt>
      <trkpt lat="46.05953" lon="6.2898">
        <ele>709.11</ele>
        <time>2020-04-17T15:25:42Z</time>
      </trkpt>
      <trkpt lat="46.06173" lon="6.28907">
        <ele>697.57</ele>
        <time>2020-04-17T15:25:49Z</time>
      </trkpt>
      <trkpt lat="46.06346" lon="6.28853">
        <ele>686.04</ele>
        <time>2020-04-17T15:25:56Z</time>
      </trkpt>
      <trkpt lat="46.06411" lon="6.28839">
        <ele>681.23</ele>
        <time>2020-04-17T15:26:00Z</time>
      </trkpt>
      <trkpt lat="46.06423" lon="6.28837">
        <ele>680.27</ele>
        <time>2020-04-17T15:26:01Z</time>
      </trkpt>
      <trkpt lat="46.06434" lon="6.28858">
        <ele>679.31</ele>
        <time>2020-04-17T15:26:02Z</time>
      </trkpt>
      <trkpt lat="46.06447" lon="6.28856">
        <ele>678.83</ele>
        <time>2020-04-17T15:26:03Z</time>
      </trkpt>
      <trkpt lat="46.06455" lon="6.2885">
        <ele>678.35</ele>
        <time>2020-04-17T15:26:04Z</time>
      </trkpt>
      <trkpt lat="46.06462" lon="6.28831">
        <ele>678.35</ele>
        <time>2020-04-17T15:26:05Z</time>
      </trkpt>
      <trkpt lat="46.06475" lon="6.28827">
        <ele>677.87</ele>
        <time>2020-04-17T15:26:06Z</time>
      </trkpt>
      <trkpt lat="46.06491" lon="6.28823">
        <ele>677.39</ele>
        <time>2020-04-17T15:26:07Z</time>
      </trkpt>
      <trkpt lat="46.06603" lon="6.28759">
        <ele>673.06</ele>
        <time>2020-04-17T15:26:12Z</time>
      </trkpt>
      <trkpt lat="46.06746" lon="6.28681">
        <ele>665.85</ele>
        <time>2020-04-17T15:26:18Z</time>
      </trkpt>
      <trkpt lat="46.0677" lon="6.28676">
        <ele>664.41</ele>
        <time>2020-04-17T15:26:19Z</time>
      </trkpt>
      <trkpt lat="46.06793" lon="6.28672">
        <ele>663.45</ele>
        <time>2020-04-17T15:26:20Z</time>
      </trkpt>
      <trkpt lat="46.06817" lon="6.28677">
        <ele>662.01</ele>
        <time>2020-04-17T15:26:21Z</time>
      </trkpt>
      <trkpt lat="46.0684" lon="6.28683">
        <ele>661.04</ele>
        <time>2020-04-17T15:26:22Z</time>
      </trkpt>
      <trkpt lat="46.06864" lon="6.28691">
        <ele>659.6</ele>
        <time>2020-04-17T15:26:23Z</time>
      </trkpt>
      <trkpt lat="46.06887" lon="6.28705">
        <ele>658.16</ele>
        <time>2020-04-17T15:26:24Z</time>
      </trkpt>
      <trkpt lat="46.0691" lon="6.28719">
        <ele>657.2</ele>
        <time>2020-04-17T15:26:25Z</time>
      </trkpt>
      <trkpt lat="46.06932" lon="6.28735">
        <ele>656.24</ele>
        <time>2020-04-17T15:26:26Z</time>
      </trkpt>
      <trkpt lat="46.0702" lon="6.28796">
        <ele>650.95</ele>
        <time>2020-04-17T15:26:30Z</time>
      </trkpt>
      <trkpt lat="46.07043" lon="6.28804">
        <ele>649.51</ele>
        <time>2020-04-17T15:26:31Z</time>
      </trkpt>
      <trkpt lat="46.07066" lon="6.2881">
        <ele>648.07</ele>
        <time>2020-04-17T15:26:32Z</time>
      </trkpt>
      <trkpt lat="46.07089" lon="6.28815">
        <ele>647.1</ele>
        <time>2020-04-17T15:26:33Z</time>
      </trkpt>
      <trkpt lat="46.07111" lon="6.28818">
        <ele>645.66</ele>
        <time>2020-04-17T15:26:34Z</time>
      </trkpt>
      <trkpt lat="46.07328" lon="6.28846">
        <ele>632.68</ele>
        <time>2020-04-17T15:26:44Z</time>
      </trkpt>
      <trkpt lat="46.07367" lon="6.28867">
        <ele>629.8</ele>
        <time>2020-04-17T15:26:46Z</time>
      </trkpt>
      <trkpt lat="46.07385" lon="6.2888">
        <ele>628.36</ele>
        <time>2020-04-17T15:26:47Z</time>
      </trkpt>
      <trkpt lat="46.07402" lon="6.28896">
        <ele>627.4</ele>
        <time>2020-04-17T15:26:48Z</time>
      </trkpt>
      <trkpt lat="46.07418" lon="6.28916">
        <ele>625.96</ele>
        <time>2020-04-17T15:26:49Z</time>
      </trkpt>
      <trkpt lat="46.07431" lon="6.28937">
        <ele>624.99</ele>
        <time>2020-04-17T15:26:50Z</time>
      </trkpt>
      <trkpt lat="46.07445" lon="6.28959">
        <ele>624.03</ele>
        <time>2020-04-17T15:26:51Z</time>
      </trkpt>
      <trkpt lat="46.07457" lon="6.28982">
        <ele>623.07</ele>
        <time>2020-04-17T15:26:52Z</time>
      </trkpt>
      <trkpt lat="46.07466" lon="6.29006">
        <ele>622.59</ele>
        <time>2020-04-17T15:26:53Z</time>
      </trkpt>
      <trkpt lat="46.07473" lon="6.29032">
        <ele>621.63</ele>
        <time>2020-04-17T15:26:54Z</time>
      </trkpt>
      <trkpt lat="46.07479" lon="6.29057">
        <ele>621.15</ele>
        <time>2020-04-17T15:26:55Z</time>
      </trkpt>
      <trkpt lat="46.07512" lon="6.2918">
        <ele>617.3</ele>
        <time>2020-04-17T15:27:01Z</time>
      </trkpt>
      <trkpt lat="46.07518" lon="6.29194">
        <ele>616.34</ele>
        <time>2020-04-17T15:27:02Z</time>
      </trkpt>
      <trkpt lat="46.07517" lon="6.29221">
        <ele>615.86</ele>
        <time>2020-04-17T15:27:03Z</time>
      </trkpt>
      <trkpt lat="46.0751" lon="6.29241">
        <ele>614.9</ele>
        <time>2020-04-17T15:27:04Z</time>
      </trkpt>
      <trkpt lat="46.07503" lon="6.29264">
        <ele>614.42</ele>
        <time>2020-04-17T15:27:05Z</time>
      </trkpt>
      <trkpt lat="46.07495" lon="6.29288">
        <ele>613.94</ele>
        <time>2020-04-17T15:27:06Z</time>
      </trkpt>
      <trkpt lat="46.07477" lon="6.2934">
        <ele>612.5</ele>
        <time>2020-04-17T15:27:08Z</time>
      </trkpt>
      <trkpt lat="46.07467" lon="6.29367">
        <ele>611.54</ele>
        <time>2020-04-17T15:27:09Z</time>
      </trkpt>
      <trkpt lat="46.07454" lon="6.29392">
        <ele>610.57</ele>
        <time>2020-04-17T15:27:10Z</time>
      </trkpt>
      <trkpt lat="46.07318" lon="6.29598">
        <ele>602.88</ele>
        <time>2020-04-17T15:27:19Z</time>
      </trkpt>
      <trkpt lat="46.07198" lon="6.29739">
        <ele>597.12</ele>
        <time>2020-04-17T15:27:27Z</time>
      </trkpt>
      <trkpt lat="46.07135" lon="6.29827">
        <ele>594.23</ele>
        <time>2020-04-17T15:27:33Z</time>
      </trkpt>
      <trkpt lat="46.07092" lon="6.29952">
        <ele>591.83</ele>
        <time>2020-04-17T15:27:40Z</time>
      </trkpt>
      <trkpt lat="46.0708" lon="6.30029">
        <ele>588.95</ele>
        <time>2020-04-17T15:27:45Z</time>
      </trkpt>
      <trkpt lat="46.07074" lon="6.30047">
        <ele>588.95</ele>
        <time>2020-04-17T15:27:46Z</time>
      </trkpt>
      <trkpt lat="46.07078" lon="6.30057">
        <ele>588.46</ele>
        <time>2020-04-17T15:27:47Z</time>
      </trkpt>
      <trkpt lat="46.07078" lon="6.30057">
        <ele>588.46</ele>
        <time>2020-04-17T15:27:48Z</time>
      </trkpt>
      <trkpt lat="46.07084" lon="6.30081">
        <ele>588.46</ele>
        <time>2020-04-17T15:27:49Z</time>
      </trkpt>
      <trkpt lat="46.07082" lon="6.30096">
        <ele>587.98</ele>
        <time>2020-04-17T15:27:50Z</time>
      </trkpt>
      <trkpt lat="46.07077" lon="6.30108">
        <ele>587.5</ele>
        <time>2020-04-17T15:27:51Z</time>
      </trkpt>
      <trkpt lat="46.07071" lon="6.30121">
        <ele>587.5</ele>
        <time>2020-04-17T15:27:52Z</time>
      </trkpt>
      <trkpt lat="46.07065" lon="6.30135">
        <ele>587.02</ele>
        <time>2020-04-17T15:27:53Z</time>
      </trkpt>
      <trkpt lat="46.07059" lon="6.3015">
        <ele>587.02</ele>
        <time>2020-04-17T15:27:54Z</time>
      </trkpt>
      <trkpt lat="46.07049" lon="6.30199">
        <ele>586.54</ele>
        <time>2020-04-17T15:27:57Z</time>
      </trkpt>
      <trkpt lat="46.07046" lon="6.30212">
        <ele>586.06</ele>
        <time>2020-04-17T15:27:58Z</time>
      </trkpt>
      <trkpt lat="46.07043" lon="6.30224">
        <ele>585.58</ele>
        <time>2020-04-17T15:27:59Z</time>
      </trkpt>
      <trkpt lat="46.07031" lon="6.30238">
        <ele>585.1</ele>
        <time>2020-04-17T15:28:00Z</time>
      </trkpt>
      <trkpt lat="46.07021" lon="6.30242">
        <ele>584.62</ele>
        <time>2020-04-17T15:28:01Z</time>
      </trkpt>
      <trkpt lat="46.07009" lon="6.30248">
        <ele>584.62</ele>
        <time>2020-04-17T15:28:02Z</time>
      </trkpt>
      <trkpt lat="46.06903" lon="6.303">
        <ele>581.25</ele>
        <time>2020-04-17T15:28:10Z</time>
      </trkpt>
      <trkpt lat="46.06871" lon="6.30316">
        <ele>578.37</ele>
        <time>2020-04-17T15:28:15Z</time>
      </trkpt>
      <trkpt lat="46.06867" lon="6.30318">
        <ele>578.37</ele>
        <time>2020-04-17T15:28:16Z</time>
      </trkpt>
      <trkpt lat="46.06859" lon="6.30321">
        <ele>577.89</ele>
        <time>2020-04-17T15:28:17Z</time>
      </trkpt>
      <trkpt lat="46.06859" lon="6.30329">
        <ele>577.89</ele>
        <time>2020-04-17T15:28:18Z</time>
      </trkpt>
      <trkpt lat="46.06859" lon="6.30338">
        <ele>577.41</ele>
        <time>2020-04-17T15:28:19Z</time>
      </trkpt>
      <trkpt lat="46.06858" lon="6.30349">
        <ele>576.93</ele>
        <time>2020-04-17T15:28:20Z</time>
      </trkpt>
      <trkpt lat="46.06858" lon="6.3036">
        <ele>575.49</ele>
        <time>2020-04-17T15:28:21Z</time>
      </trkpt>
      <trkpt lat="46.06858" lon="6.30373">
        <ele>574.04</ele>
        <time>2020-04-17T15:28:22Z</time>
      </trkpt>
      <trkpt lat="46.06856" lon="6.30386">
        <ele>573.08</ele>
        <time>2020-04-17T15:28:23Z</time>
      </trkpt>
      <trkpt lat="46.06852" lon="6.30399">
        <ele>572.12</ele>
        <time>2020-04-17T15:28:24Z</time>
      </trkpt>
      <trkpt lat="46.06847" lon="6.30413">
        <ele>571.16</ele>
        <time>2020-04-17T15:28:25Z</time>
      </trkpt>
      <trkpt lat="46.06817" lon="6.30498">
        <ele>567.8</ele>
        <time>2020-04-17T15:28:33Z</time>
      </trkpt>
      <trkpt lat="46.06777" lon="6.30631">
        <ele>564.91</ele>
        <time>2020-04-17T15:28:43Z</time>
      </trkpt>
      <trkpt lat="46.06737" lon="6.3072">
        <ele>561.07</ele>
        <time>2020-04-17T15:28:50Z</time>
      </trkpt>
      <trkpt lat="46.06715" lon="6.3076">
        <ele>559.14</ele>
        <time>2020-04-17T15:28:53Z</time>
      </trkpt>
      <trkpt lat="46.0667" lon="6.30843">
        <ele>559.14</ele>
        <time>2020-04-17T15:29:00Z</time>
      </trkpt>
      <trkpt lat="46.06642" lon="6.30894">
        <ele>560.11</ele>
        <time>2020-04-17T15:29:05Z</time>
      </trkpt>
      <trkpt lat="46.0664" lon="6.30898">
        <ele>560.11</ele>
        <time>2020-04-17T15:29:06Z</time>
      </trkpt>
      <trkpt lat="46.06643" lon="6.30909">
        <ele>560.11</ele>
        <time>2020-04-17T15:29:07Z</time>
      </trkpt>
      <trkpt lat="46.06647" lon="6.30911">
        <ele>560.11</ele>
        <time>2020-04-17T15:29:08Z</time>
      </trkpt>
      <trkpt lat="46.06652" lon="6.30911">
        <ele>560.11</ele>
        <time>2020-04-17T15:29:09Z</time>
      </trkpt>
      <trkpt lat="46.06659" lon="6.30909">
        <ele>560.11</ele>
        <time>2020-04-17T15:29:10Z</time>
      </trkpt>
      <trkpt lat="46.06674" lon="6.30905">
        <ele>560.59</ele>
        <time>2020-04-17T15:29:12Z</time>
      </trkpt>
      <trkpt lat="46.0669" lon="6.30901">
        <ele>562.51</ele>
        <time>2020-04-17T15:29:14Z</time>
      </trkpt>
      <trkpt lat="46.06697" lon="6.30892">
        <ele>562.51</ele>
        <time>2020-04-17T15:29:15Z</time>
      </trkpt>
      <trkpt lat="46.06704" lon="6.30882">
        <ele>562.51</ele>
        <time>2020-04-17T15:29:16Z</time>
      </trkpt>
      <trkpt lat="46.06745" lon="6.30819">
        <ele>563.95</ele>
        <time>2020-04-17T15:29:22Z</time>
      </trkpt>
      <trkpt lat="46.06748" lon="6.30814">
        <ele>564.43</ele>
        <time>2020-04-17T15:29:23Z</time>
      </trkpt>
      <trkpt lat="46.06749" lon="6.30812">
        <ele>564.43</ele>
        <time>2020-04-17T15:29:24Z</time>
      </trkpt>
      <trkpt lat="46.0675" lon="6.30811">
        <ele>564.91</ele>
        <time>2020-04-17T15:29:25Z</time>
      </trkpt>
      <trkpt lat="46.0675" lon="6.30811">
        <ele>564.91</ele>
        <time>2020-04-17T15:29:35Z</time>
      </trkpt>
      <trkpt lat="46.0675" lon="6.30811">
        <ele>564.91</ele>
        <time>2020-04-17T15:29:56Z</time>
      </trkpt>
      <trkpt lat="46.06742" lon="6.30799">
        <ele>564.43</ele>
        <time>2020-04-17T15:30:00Z</time>
      </trkpt>
    </trkseg>
  </trk>
  <trk>
    <name><![CDATA[Journal actif: 2020-04-18 12:40]]></name>
    <trkseg>
      <trkpt lat="46.06782" lon="6.30779">
        <ele>562.51</ele>
        <time>2020-04-18T10:40:22Z</time>
      </trkpt>
      <trkpt lat="46.06795" lon="6.30769">
        <ele>560.11</ele>
        <time>2020-04-18T10:40:25Z</time>
      </trkpt>
      <trkpt lat="46.06797" lon="6.30768">
        <ele>559.62</ele>
        <time>2020-04-18T10:40:27Z</time>
      </trkpt>
      <trkpt lat="46.06801" lon="6.30774">
        <ele>558.66</ele>
        <time>2020-04-18T10:40:29Z</time>
      </trkpt>
      <trkpt lat="46.06802" lon="6.30779">
        <ele>558.18</ele>
        <time>2020-04-18T10:40:30Z</time>
      </trkpt>
      <trkpt lat="46.06803" lon="6.30787">
        <ele>557.7</ele>
        <time>2020-04-18T10:40:31Z</time>
      </trkpt>
      <trkpt lat="46.06805" lon="6.30799">
        <ele>556.74</ele>
        <time>2020-04-18T10:40:32Z</time>
      </trkpt>
      <trkpt lat="46.06808" lon="6.30812">
        <ele>556.74</ele>
        <time>2020-04-18T10:40:33Z</time>
      </trkpt>
      <trkpt lat="46.06811" lon="6.30829">
        <ele>555.3</ele>
        <time>2020-04-18T10:40:34Z</time>
      </trkpt>
      <trkpt lat="46.06812" lon="6.30836">
        <ele>554.82</ele>
        <time>2020-04-18T10:40:35Z</time>
      </trkpt>
      <trkpt lat="46.06812" lon="6.30879">
        <ele>551.45</ele>
        <time>2020-04-18T10:40:38Z</time>
      </trkpt>
      <trkpt lat="46.06812" lon="6.30886">
        <ele>550.97</ele>
        <time>2020-04-18T10:40:39Z</time>
      </trkpt>
      <trkpt lat="46.06812" lon="6.30891">
        <ele>550.49</ele>
        <time>2020-04-18T10:40:40Z</time>
      </trkpt>
      <trkpt lat="46.06831" lon="6.30904">
        <ele>549.05</ele>
        <time>2020-04-18T10:40:41Z</time>
      </trkpt>
      <trkpt lat="46.06832" lon="6.30902">
        <ele>548.09</ele>
        <time>2020-04-18T10:40:42Z</time>
      </trkpt>
      <trkpt lat="46.06834" lon="6.309">
        <ele>546.65</ele>
        <time>2020-04-18T10:40:43Z</time>
      </trkpt>
      <trkpt lat="46.06838" lon="6.30894">
        <ele>545.69</ele>
        <time>2020-04-18T10:40:44Z</time>
      </trkpt>
      <trkpt lat="46.06844" lon="6.30887">
        <ele>544.24</ele>
        <time>2020-04-18T10:40:45Z</time>
      </trkpt>
      <trkpt lat="46.06852" lon="6.30876">
        <ele>543.76</ele>
        <time>2020-04-18T10:40:46Z</time>
      </trkpt>
      <trkpt lat="46.06861" lon="6.30864">
        <ele>542.8</ele>
        <time>2020-04-18T10:40:47Z</time>
      </trkpt>
      <trkpt lat="46.06872" lon="6.30851">
        <ele>541.84</ele>
        <time>2020-04-18T10:40:48Z</time>
      </trkpt>
      <trkpt lat="46.06922" lon="6.30784">
        <ele>539.92</ele>
        <time>2020-04-18T10:40:53Z</time>
      </trkpt>
      <trkpt lat="46.06929" lon="6.3077">
        <ele>540.4</ele>
        <time>2020-04-18T10:40:54Z</time>
      </trkpt>
      <trkpt lat="46.06937" lon="6.30755">
        <ele>544.72</ele>
        <time>2020-04-18T10:40:55Z</time>
      </trkpt>
      <trkpt lat="46.06943" lon="6.30739">
        <ele>546.17</ele>
        <time>2020-04-18T10:40:56Z</time>
      </trkpt>
      <trkpt lat="46.06949" lon="6.30723">
        <ele>547.61</ele>
        <time>2020-04-18T10:40:57Z</time>
      </trkpt>
      <trkpt lat="46.06959" lon="6.3069">
        <ele>549.05</ele>
        <time>2020-04-18T10:40:59Z</time>
      </trkpt>
      <trkpt lat="46.06963" lon="6.30672">
        <ele>550.01</ele>
        <time>2020-04-18T10:41:00Z</time>
      </trkpt>
      <trkpt lat="46.06966" lon="6.30654">
        <ele>550.97</ele>
        <time>2020-04-18T10:41:01Z</time>
      </trkpt>
      <trkpt lat="46.06999" lon="6.3054">
        <ele>559.14</ele>
        <time>2020-04-18T10:41:09Z</time>
      </trkpt>
      <trkpt lat="46.07004" lon="6.30529">
        <ele>560.59</ele>
        <time>2020-04-18T10:41:10Z</time>
      </trkpt>
      <trkpt lat="46.07015" lon="6.3052">
        <ele>562.03</ele>
        <time>2020-04-18T10:41:11Z</time>
      </trkpt>
      <trkpt lat="46.07067" lon="6.30484">
        <ele>569.72</ele>
        <time>2020-04-18T10:41:17Z</time>
      </trkpt>
      <trkpt lat="46.07075" lon="6.30478">
        <ele>570.68</ele>
        <time>2020-04-18T10:41:18Z</time>
      </trkpt>
      <trkpt lat="46.07101" lon="6.30465">
        <ele>568.76</ele>
        <time>2020-04-18T10:41:20Z</time>
      </trkpt>
      <trkpt lat="46.07115" lon="6.30459">
        <ele>568.28</ele>
        <time>2020-04-18T10:41:21Z</time>
      </trkpt>
      <trkpt lat="46.07222" lon="6.30413">
        <ele>566.83</ele>
        <time>2020-04-18T10:41:30Z</time>
      </trkpt>
      <trkpt lat="46.07229" lon="6.3041">
        <ele>566.35</ele>
        <time>2020-04-18T10:41:31Z</time>
      </trkpt>
      <trkpt lat="46.07235" lon="6.30408">
        <ele>565.39</ele>
        <time>2020-04-18T10:41:32Z</time>
      </trkpt>
      <trkpt lat="46.07246" lon="6.30413">
        <ele>565.39</ele>
        <time>2020-04-18T10:41:33Z</time>
      </trkpt>
      <trkpt lat="46.0725" lon="6.30423">
        <ele>565.39</ele>
        <time>2020-04-18T10:41:34Z</time>
      </trkpt>
      <trkpt lat="46.07253" lon="6.30434">
        <ele>564.43</ele>
        <time>2020-04-18T10:41:35Z</time>
      </trkpt>
      <trkpt lat="46.07257" lon="6.30445">
        <ele>563.95</ele>
        <time>2020-04-18T10:41:36Z</time>
      </trkpt>
      <trkpt lat="46.0726" lon="6.30453">
        <ele>563.47</ele>
        <time>2020-04-18T10:41:37Z</time>
      </trkpt>
      <trkpt lat="46.07262" lon="6.30459">
        <ele>563.47</ele>
        <time>2020-04-18T10:41:38Z</time>
      </trkpt>
      <trkpt lat="46.07265" lon="6.30467">
        <ele>562.51</ele>
        <time>2020-04-18T10:41:39Z</time>
      </trkpt>
      <trkpt lat="46.07267" lon="6.30466">
        <ele>561.55</ele>
        <time>2020-04-18T10:41:40Z</time>
      </trkpt>
      <trkpt lat="46.07275" lon="6.30461">
        <ele>561.07</ele>
        <time>2020-04-18T10:41:41Z</time>
      </trkpt>
      <trkpt lat="46.07285" lon="6.30454">
        <ele>560.59</ele>
        <time>2020-04-18T10:41:42Z</time>
      </trkpt>
      <trkpt lat="46.07297" lon="6.30446">
        <ele>560.11</ele>
        <time>2020-04-18T10:41:43Z</time>
      </trkpt>
      <trkpt lat="46.07374" lon="6.30408">
        <ele>558.66</ele>
        <time>2020-04-18T10:41:48Z</time>
      </trkpt>
      <trkpt lat="46.074" lon="6.30401">
        <ele>557.7</ele>
        <time>2020-04-18T10:41:50Z</time>
      </trkpt>
      <trkpt lat="46.07538" lon="6.304">
        <ele>550.49</ele>
        <time>2020-04-18T10:42:01Z</time>
      </trkpt>
      <trkpt lat="46.0757" lon="6.30406">
        <ele>549.53</ele>
        <time>2020-04-18T10:42:04Z</time>
      </trkpt>
      <trkpt lat="46.07576" lon="6.30409">
        <ele>549.05</ele>
        <time>2020-04-18T10:42:05Z</time>
      </trkpt>
      <trkpt lat="46.07584" lon="6.30418">
        <ele>548.57</ele>
        <time>2020-04-18T10:42:06Z</time>
      </trkpt>
      <trkpt lat="46.07591" lon="6.30422">
        <ele>548.57</ele>
        <time>2020-04-18T10:42:07Z</time>
      </trkpt>
      <trkpt lat="46.076" lon="6.30431">
        <ele>547.61</ele>
        <time>2020-04-18T10:42:08Z</time>
      </trkpt>
      <trkpt lat="46.07601" lon="6.30438">
        <ele>547.13</ele>
        <time>2020-04-18T10:42:09Z</time>
      </trkpt>
      <trkpt lat="46.07603" lon="6.3045">
        <ele>546.65</ele>
        <time>2020-04-18T10:42:10Z</time>
      </trkpt>
      <trkpt lat="46.07596" lon="6.30468">
        <ele>545.69</ele>
        <time>2020-04-18T10:42:11Z</time>
      </trkpt>
      <trkpt lat="46.07589" lon="6.30482">
        <ele>545.2</ele>
        <time>2020-04-18T10:42:12Z</time>
      </trkpt>
      <trkpt lat="46.0758" lon="6.30501">
        <ele>544.72</ele>
        <time>2020-04-18T10:42:13Z</time>
      </trkpt>
      <trkpt lat="46.0754" lon="6.30597">
        <ele>542.8</ele>
        <time>2020-04-18T10:42:16Z</time>
      </trkpt>
      <trkpt lat="46.07493" lon="6.30767">
        <ele>539.92</ele>
        <time>2020-04-18T10:42:21Z</time>
      </trkpt>
      <trkpt lat="46.07476" lon="6.30928">
        <ele>535.59</ele>
        <time>2020-04-18T10:42:27Z</time>
      </trkpt>
      <trkpt lat="46.07462" lon="6.31155">
        <ele>525.02</ele>
        <time>2020-04-18T10:42:37Z</time>
      </trkpt>
      <trkpt lat="46.07432" lon="6.31286">
        <ele>518.29</ele>
        <time>2020-04-18T10:42:45Z</time>
      </trkpt>
      <trkpt lat="46.07423" lon="6.31308">
        <ele>517.81</ele>
        <time>2020-04-18T10:42:47Z</time>
      </trkpt>
      <trkpt lat="46.07418" lon="6.31319">
        <ele>517.33</ele>
        <time>2020-04-18T10:42:48Z</time>
      </trkpt>
      <trkpt lat="46.07414" lon="6.3133">
        <ele>517.33</ele>
        <time>2020-04-18T10:42:49Z</time>
      </trkpt>
      <trkpt lat="46.07398" lon="6.31347">
        <ele>517.33</ele>
        <time>2020-04-18T10:42:51Z</time>
      </trkpt>
      <trkpt lat="46.07395" lon="6.3136">
        <ele>517.81</ele>
        <time>2020-04-18T10:42:52Z</time>
      </trkpt>
      <trkpt lat="46.07396" lon="6.31374">
        <ele>517.81</ele>
        <time>2020-04-18T10:42:53Z</time>
      </trkpt>
      <trkpt lat="46.07397" lon="6.31404">
        <ele>517.81</ele>
        <time>2020-04-18T10:42:55Z</time>
      </trkpt>
      <trkpt lat="46.07391" lon="6.31418">
        <ele>517.33</ele>
        <time>2020-04-18T10:42:56Z</time>
      </trkpt>
      <trkpt lat="46.07385" lon="6.31435">
        <ele>516.85</ele>
        <time>2020-04-18T10:42:57Z</time>
      </trkpt>
      <trkpt lat="46.07378" lon="6.31455">
        <ele>516.37</ele>
        <time>2020-04-18T10:42:58Z</time>
      </trkpt>
      <trkpt lat="46.07363" lon="6.31471">
        <ele>516.37</ele>
        <time>2020-04-18T10:42:59Z</time>
      </trkpt>
      <trkpt lat="46.07346" lon="6.31491">
        <ele>515.4</ele>
        <time>2020-04-18T10:43:00Z</time>
      </trkpt>
      <trkpt lat="46.07253" lon="6.31617">
        <ele>513.48</ele>
        <time>2020-04-18T10:43:06Z</time>
      </trkpt>
      <trkpt lat="46.07167" lon="6.31746">
        <ele>513.96</ele>
        <time>2020-04-18T10:43:13Z</time>
      </trkpt>
      <trkpt lat="46.07079" lon="6.31917">
        <ele>513.96</ele>
        <time>2020-04-18T10:43:21Z</time>
      </trkpt>
      <trkpt lat="46.07034" lon="6.32048">
        <ele>513.48</ele>
        <time>2020-04-18T10:43:26Z</time>
      </trkpt>
      <trkpt lat="46.07029" lon="6.32083">
        <ele>513</ele>
        <time>2020-04-18T10:43:27Z</time>
      </trkpt>
      <trkpt lat="46.07027" lon="6.32121">
        <ele>513</ele>
        <time>2020-04-18T10:43:28Z</time>
      </trkpt>
      <trkpt lat="46.07025" lon="6.32159">
        <ele>512.52</ele>
        <time>2020-04-18T10:43:29Z</time>
      </trkpt>
      <trkpt lat="46.07026" lon="6.32195">
        <ele>512.04</ele>
        <time>2020-04-18T10:43:30Z</time>
      </trkpt>
      <trkpt lat="46.07031" lon="6.3223">
        <ele>511.56</ele>
        <time>2020-04-18T10:43:31Z</time>
      </trkpt>
      <trkpt lat="46.07037" lon="6.32263">
        <ele>511.08</ele>
        <time>2020-04-18T10:43:32Z</time>
      </trkpt>
      <trkpt lat="46.07044" lon="6.32294">
        <ele>510.6</ele>
        <time>2020-04-18T10:43:33Z</time>
      </trkpt>
      <trkpt lat="46.07092" lon="6.32511">
        <ele>503.39</ele>
        <time>2020-04-18T10:43:41Z</time>
      </trkpt>
      <trkpt lat="46.07111" lon="6.32687">
        <ele>496.66</ele>
        <time>2020-04-18T10:43:49Z</time>
      </trkpt>
      <trkpt lat="46.07113" lon="6.32723">
        <ele>495.22</ele>
        <time>2020-04-18T10:43:51Z</time>
      </trkpt>
      <trkpt lat="46.07114" lon="6.32737">
        <ele>494.26</ele>
        <time>2020-04-18T10:43:52Z</time>
      </trkpt>
      <trkpt lat="46.07108" lon="6.3276">
        <ele>493.29</ele>
        <time>2020-04-18T10:43:54Z</time>
      </trkpt>
      <trkpt lat="46.0711" lon="6.3277">
        <ele>492.81</ele>
        <time>2020-04-18T10:43:55Z</time>
      </trkpt>
      <trkpt lat="46.07113" lon="6.32777">
        <ele>492.33</ele>
        <time>2020-04-18T10:43:56Z</time>
      </trkpt>
      <trkpt lat="46.07121" lon="6.32782">
        <ele>491.85</ele>
        <time>2020-04-18T10:43:57Z</time>
      </trkpt>
      <trkpt lat="46.07129" lon="6.3278">
        <ele>491.37</ele>
        <time>2020-04-18T10:43:58Z</time>
      </trkpt>
      <trkpt lat="46.07136" lon="6.32776">
        <ele>491.37</ele>
        <time>2020-04-18T10:43:59Z</time>
      </trkpt>
      <trkpt lat="46.07141" lon="6.32759">
        <ele>490.89</ele>
        <time>2020-04-18T10:44:00Z</time>
      </trkpt>
      <trkpt lat="46.07161" lon="6.32744">
        <ele>489.93</ele>
        <time>2020-04-18T10:44:02Z</time>
      </trkpt>
      <trkpt lat="46.07171" lon="6.32733">
        <ele>489.45</ele>
        <time>2020-04-18T10:44:03Z</time>
      </trkpt>
      <trkpt lat="46.07181" lon="6.32718">
        <ele>488.49</ele>
        <time>2020-04-18T10:44:04Z</time>
      </trkpt>
      <trkpt lat="46.07222" lon="6.32656">
        <ele>484.64</ele>
        <time>2020-04-18T10:44:09Z</time>
      </trkpt>
      <trkpt lat="46.07226" lon="6.32649">
        <ele>484.16</ele>
        <time>2020-04-18T10:44:10Z</time>
      </trkpt>
      <trkpt lat="46.07235" lon="6.32646">
        <ele>483.68</ele>
        <time>2020-04-18T10:44:11Z</time>
      </trkpt>
      <trkpt lat="46.07234" lon="6.32639">
        <ele>483.2</ele>
        <time>2020-04-18T10:44:12Z</time>
      </trkpt>
      <trkpt lat="46.07233" lon="6.32633">
        <ele>483.2</ele>
        <time>2020-04-18T10:44:13Z</time>
      </trkpt>
      <trkpt lat="46.07224" lon="6.32634">
        <ele>482.72</ele>
        <time>2020-04-18T10:44:14Z</time>
      </trkpt>
      <trkpt lat="46.07219" lon="6.32627">
        <ele>482.24</ele>
        <time>2020-04-18T10:44:15Z</time>
      </trkpt>
      <trkpt lat="46.07216" lon="6.32621">
        <ele>482.24</ele>
        <time>2020-04-18T10:44:16Z</time>
      </trkpt>
      <trkpt lat="46.07213" lon="6.32617">
        <ele>481.76</ele>
        <time>2020-04-18T10:44:17Z</time>
      </trkpt>
      <trkpt lat="46.07208" lon="6.32623">
        <ele>481.76</ele>
        <time>2020-04-18T10:44:18Z</time>
      </trkpt>
      <trkpt lat="46.07208" lon="6.3263">
        <ele>481.76</ele>
        <time>2020-04-18T10:44:19Z</time>
      </trkpt>
      <trkpt lat="46.07204" lon="6.32648">
        <ele>481.76</ele>
        <time>2020-04-18T10:44:20Z</time>
      </trkpt>
      <trkpt lat="46.07197" lon="6.3266">
        <ele>481.76</ele>
        <time>2020-04-18T10:44:21Z</time>
      </trkpt>
      <trkpt lat="46.07191" lon="6.32671">
        <ele>481.76</ele>
        <time>2020-04-18T10:44:22Z</time>
      </trkpt>
      <trkpt lat="46.07185" lon="6.32682">
        <ele>483.2</ele>
        <time>2020-04-18T10:44:23Z</time>
      </trkpt>
      <trkpt lat="46.07177" lon="6.32694">
        <ele>485.12</ele>
        <time>2020-04-18T10:44:24Z</time>
      </trkpt>
      <trkpt lat="46.07169" lon="6.32701">
        <ele>487.53</ele>
        <time>2020-04-18T10:44:25Z</time>
      </trkpt>
      <trkpt lat="46.07163" lon="6.32707">
        <ele>489.45</ele>
        <time>2020-04-18T10:44:26Z</time>
      </trkpt>
      <trkpt lat="46.07151" lon="6.32709">
        <ele>490.89</ele>
        <time>2020-04-18T10:44:27Z</time>
      </trkpt>
      <trkpt lat="46.07145" lon="6.32704">
        <ele>492.33</ele>
        <time>2020-04-18T10:44:28Z</time>
      </trkpt>
      <trkpt lat="46.07141" lon="6.32699">
        <ele>493.77</ele>
        <time>2020-04-18T10:44:29Z</time>
      </trkpt>
      <trkpt lat="46.07138" lon="6.32696">
        <ele>494.74</ele>
        <time>2020-04-18T10:44:30Z</time>
      </trkpt>
      <trkpt lat="46.07134" lon="6.32692">
        <ele>495.7</ele>
        <time>2020-04-18T10:44:31Z</time>
      </trkpt>
      <trkpt lat="46.07134" lon="6.32692">
        <ele>497.14</ele>
        <time>2020-04-18T10:44:32Z</time>
      </trkpt>
      <trkpt lat="46.07134" lon="6.32692">
        <ele>498.1</ele>
        <time>2020-04-18T10:44:33Z</time>
      </trkpt>
      <trkpt lat="46.07134" lon="6.32692">
        <ele>500.02</ele>
        <time>2020-04-18T10:44:35Z</time>
      </trkpt>
      <trkpt lat="46.07133" lon="6.3273">
        <ele>500.98</ele>
        <time>2020-04-18T10:44:36Z</time>
      </trkpt>
      <trkpt lat="46.07144" lon="6.32758">
        <ele>502.43</ele>
        <time>2020-04-18T10:44:38Z</time>
      </trkpt>
      <trkpt lat="46.07147" lon="6.32757">
        <ele>503.87</ele>
        <time>2020-04-18T10:44:45Z</time>
      </trkpt>
      <trkpt lat="46.07151" lon="6.32562">
        <ele>475.99</ele>
        <time>2020-04-18T11:07:56Z</time>
      </trkpt>
      <trkpt lat="46.07159" lon="6.32551">
        <ele>502.43</ele>
        <time>2020-04-18T11:08:14Z</time>
      </trkpt>
      <trkpt lat="46.07159" lon="6.32547">
        <ele>501.95</ele>
        <time>2020-04-18T11:08:18Z</time>
      </trkpt>
      <trkpt lat="46.07162" lon="6.3254">
        <ele>501.95</ele>
        <time>2020-04-18T11:08:19Z</time>
      </trkpt>
      <trkpt lat="46.07172" lon="6.32515">
        <ele>501.46</ele>
        <time>2020-04-18T11:08:22Z</time>
      </trkpt>
      <trkpt lat="46.07174" lon="6.3251">
        <ele>501.46</ele>
        <time>2020-04-18T11:08:23Z</time>
      </trkpt>
      <trkpt lat="46.0719" lon="6.32527">
        <ele>500.98</ele>
        <time>2020-04-18T11:08:24Z</time>
      </trkpt>
      <trkpt lat="46.07186" lon="6.32513">
        <ele>500.5</ele>
        <time>2020-04-18T11:08:25Z</time>
      </trkpt>
      <trkpt lat="46.07187" lon="6.32516">
        <ele>500.5</ele>
        <time>2020-04-18T11:08:26Z</time>
      </trkpt>
      <trkpt lat="46.07189" lon="6.32522">
        <ele>500.5</ele>
        <time>2020-04-18T11:08:27Z</time>
      </trkpt>
      <trkpt lat="46.0719" lon="6.32533">
        <ele>500.02</ele>
        <time>2020-04-18T11:08:28Z</time>
      </trkpt>
      <trkpt lat="46.07192" lon="6.32549">
        <ele>500.02</ele>
        <time>2020-04-18T11:08:29Z</time>
      </trkpt>
      <trkpt lat="46.07194" lon="6.32566">
        <ele>500.02</ele>
        <time>2020-04-18T11:08:30Z</time>
      </trkpt>
      <trkpt lat="46.07196" lon="6.32581">
        <ele>499.54</ele>
        <time>2020-04-18T11:08:31Z</time>
      </trkpt>
      <trkpt lat="46.07201" lon="6.32592">
        <ele>499.06</ele>
        <time>2020-04-18T11:08:32Z</time>
      </trkpt>
      <trkpt lat="46.07205" lon="6.32602">
        <ele>498.58</ele>
        <time>2020-04-18T11:08:33Z</time>
      </trkpt>
      <trkpt lat="46.07209" lon="6.32611">
        <ele>497.62</ele>
        <time>2020-04-18T11:08:34Z</time>
      </trkpt>
      <trkpt lat="46.07214" lon="6.32619">
        <ele>497.62</ele>
        <time>2020-04-18T11:08:35Z</time>
      </trkpt>
      <trkpt lat="46.07219" lon="6.32626">
        <ele>497.14</ele>
        <time>2020-04-18T11:08:36Z</time>
      </trkpt>
      <trkpt lat="46.07225" lon="6.32639">
        <ele>496.18</ele>
        <time>2020-04-18T11:08:37Z</time>
      </trkpt>
      <trkpt lat="46.0722" lon="6.32658">
        <ele>495.7</ele>
        <time>2020-04-18T11:08:38Z</time>
      </trkpt>
      <trkpt lat="46.07215" lon="6.32666">
        <ele>495.7</ele>
        <time>2020-04-18T11:08:39Z</time>
      </trkpt>
      <trkpt lat="46.07207" lon="6.32677">
        <ele>495.22</ele>
        <time>2020-04-18T11:08:40Z</time>
      </trkpt>
      <trkpt lat="46.07198" lon="6.32692">
        <ele>495.22</ele>
        <time>2020-04-18T11:08:41Z</time>
      </trkpt>
      <trkpt lat="46.07188" lon="6.32707">
        <ele>495.22</ele>
        <time>2020-04-18T11:08:42Z</time>
      </trkpt>
      <trkpt lat="46.0717" lon="6.32734">
        <ele>495.7</ele>
        <time>2020-04-18T11:08:44Z</time>
      </trkpt>
      <trkpt lat="46.07162" lon="6.32743">
        <ele>495.7</ele>
        <time>2020-04-18T11:08:45Z</time>
      </trkpt>
      <trkpt lat="46.07155" lon="6.3275">
        <ele>495.7</ele>
        <time>2020-04-18T11:08:46Z</time>
      </trkpt>
      <trkpt lat="46.07147" lon="6.32757">
        <ele>496.18</ele>
        <time>2020-04-18T11:08:47Z</time>
      </trkpt>
      <trkpt lat="46.07136" lon="6.3275">
        <ele>496.66</ele>
        <time>2020-04-18T11:08:48Z</time>
      </trkpt>
      <trkpt lat="46.07133" lon="6.32748">
        <ele>496.66</ele>
        <time>2020-04-18T11:08:49Z</time>
      </trkpt>
      <trkpt lat="46.07125" lon="6.32742">
        <ele>497.14</ele>
        <time>2020-04-18T11:08:50Z</time>
      </trkpt>
      <trkpt lat="46.07119" lon="6.32743">
        <ele>497.14</ele>
        <time>2020-04-18T11:08:51Z</time>
      </trkpt>
      <trkpt lat="46.07112" lon="6.32747">
        <ele>497.14</ele>
        <time>2020-04-18T11:08:52Z</time>
      </trkpt>
      <trkpt lat="46.07108" lon="6.3276">
        <ele>497.14</ele>
        <time>2020-04-18T11:08:53Z</time>
      </trkpt>
      <trkpt lat="46.0711" lon="6.3277">
        <ele>497.14</ele>
        <time>2020-04-18T11:08:54Z</time>
      </trkpt>
      <trkpt lat="46.07115" lon="6.3278">
        <ele>497.14</ele>
        <time>2020-04-18T11:08:55Z</time>
      </trkpt>
      <trkpt lat="46.07123" lon="6.32797">
        <ele>496.66</ele>
        <time>2020-04-18T11:08:56Z</time>
      </trkpt>
      <trkpt lat="46.07124" lon="6.32816">
        <ele>496.18</ele>
        <time>2020-04-18T11:08:57Z</time>
      </trkpt>
      <trkpt lat="46.07126" lon="6.32838">
        <ele>495.7</ele>
        <time>2020-04-18T11:08:58Z</time>
      </trkpt>
      <trkpt lat="46.07128" lon="6.32864">
        <ele>495.22</ele>
        <time>2020-04-18T11:08:59Z</time>
      </trkpt>
      <trkpt lat="46.07144" lon="6.33099">
        <ele>485.6</ele>
        <time>2020-04-18T11:09:07Z</time>
      </trkpt>
      <trkpt lat="46.07139" lon="6.33156">
        <ele>483.2</ele>
        <time>2020-04-18T11:09:09Z</time>
      </trkpt>
      <trkpt lat="46.07134" lon="6.33183">
        <ele>481.76</ele>
        <time>2020-04-18T11:09:10Z</time>
      </trkpt>
      <trkpt lat="46.07087" lon="6.33334">
        <ele>477.43</ele>
        <time>2020-04-18T11:09:16Z</time>
      </trkpt>
      <trkpt lat="46.07076" lon="6.33355">
        <ele>476.95</ele>
        <time>2020-04-18T11:09:17Z</time>
      </trkpt>
      <trkpt lat="46.07065" lon="6.33372">
        <ele>476.95</ele>
        <time>2020-04-18T11:09:18Z</time>
      </trkpt>
      <trkpt lat="46.07" lon="6.3347">
        <ele>475.51</ele>
        <time>2020-04-18T11:09:25Z</time>
      </trkpt>
      <trkpt lat="46.06971" lon="6.33514">
        <ele>474.55</ele>
        <time>2020-04-18T11:09:30Z</time>
      </trkpt>
      <trkpt lat="46.06963" lon="6.33519">
        <ele>474.07</ele>
        <time>2020-04-18T11:09:31Z</time>
      </trkpt>
      <trkpt lat="46.06957" lon="6.33516">
        <ele>473.59</ele>
        <time>2020-04-18T11:09:32Z</time>
      </trkpt>
      <trkpt lat="46.06951" lon="6.33514">
        <ele>473.11</ele>
        <time>2020-04-18T11:09:33Z</time>
      </trkpt>
      <trkpt lat="46.06943" lon="6.3351">
        <ele>473.11</ele>
        <time>2020-04-18T11:09:34Z</time>
      </trkpt>
      <trkpt lat="46.06939" lon="6.33502">
        <ele>473.11</ele>
        <time>2020-04-18T11:09:35Z</time>
      </trkpt>
      <trkpt lat="46.06934" lon="6.33493">
        <ele>473.11</ele>
        <time>2020-04-18T11:09:36Z</time>
      </trkpt>
      <trkpt lat="46.06927" lon="6.33489">
        <ele>472.63</ele>
        <time>2020-04-18T11:09:37Z</time>
      </trkpt>
      <trkpt lat="46.06917" lon="6.33484">
        <ele>472.63</ele>
        <time>2020-04-18T11:09:38Z</time>
      </trkpt>
      <trkpt lat="46.06906" lon="6.33484">
        <ele>472.63</ele>
        <time>2020-04-18T11:09:39Z</time>
      </trkpt>
      <trkpt lat="46.06893" lon="6.33483">
        <ele>472.63</ele>
        <time>2020-04-18T11:09:40Z</time>
      </trkpt>
      <trkpt lat="46.06881" lon="6.33482">
        <ele>473.11</ele>
        <time>2020-04-18T11:09:41Z</time>
      </trkpt>
      <trkpt lat="46.0683" lon="6.33486">
        <ele>473.11</ele>
        <time>2020-04-18T11:09:46Z</time>
      </trkpt>
      <trkpt lat="46.06821" lon="6.33486">
        <ele>473.11</ele>
        <time>2020-04-18T11:09:47Z</time>
      </trkpt>
      <trkpt lat="46.06821" lon="6.33486">
        <ele>473.59</ele>
        <time>2020-04-18T11:09:48Z</time>
      </trkpt>
      <trkpt lat="46.06805" lon="6.33492">
        <ele>473.59</ele>
        <time>2020-04-18T11:09:49Z</time>
      </trkpt>
      <trkpt lat="46.06797" lon="6.33488">
        <ele>473.59</ele>
        <time>2020-04-18T11:09:50Z</time>
      </trkpt>
      <trkpt lat="46.06787" lon="6.33483">
        <ele>473.11</ele>
        <time>2020-04-18T11:09:51Z</time>
      </trkpt>
      <trkpt lat="46.06778" lon="6.33476">
        <ele>473.11</ele>
        <time>2020-04-18T11:09:52Z</time>
      </trkpt>
      <trkpt lat="46.06768" lon="6.33468">
        <ele>473.59</ele>
        <time>2020-04-18T11:09:53Z</time>
      </trkpt>
      <trkpt lat="46.06758" lon="6.3346">
        <ele>474.07</ele>
        <time>2020-04-18T11:09:54Z</time>
      </trkpt>
      <trkpt lat="46.06729" lon="6.33435">
        <ele>475.99</ele>
        <time>2020-04-18T11:09:57Z</time>
      </trkpt>
      <trkpt lat="46.06719" lon="6.33429">
        <ele>477.43</ele>
        <time>2020-04-18T11:09:58Z</time>
      </trkpt>
      <trkpt lat="46.06667" lon="6.33406">
        <ele>481.76</ele>
        <time>2020-04-18T11:10:03Z</time>
      </trkpt>
      <trkpt lat="46.06658" lon="6.33402">
        <ele>482.72</ele>
        <time>2020-04-18T11:10:04Z</time>
      </trkpt>
      <trkpt lat="46.06651" lon="6.33391">
        <ele>483.68</ele>
        <time>2020-04-18T11:10:05Z</time>
      </trkpt>
      <trkpt lat="46.06649" lon="6.33379">
        <ele>484.16</ele>
        <time>2020-04-18T11:10:06Z</time>
      </trkpt>
      <trkpt lat="46.06646" lon="6.33367">
        <ele>485.6</ele>
        <time>2020-04-18T11:10:07Z</time>
      </trkpt>
      <trkpt lat="46.06641" lon="6.33354">
        <ele>486.56</ele>
        <time>2020-04-18T11:10:08Z</time>
      </trkpt>
      <trkpt lat="46.06634" lon="6.33342">
        <ele>487.53</ele>
        <time>2020-04-18T11:10:09Z</time>
      </trkpt>
      <trkpt lat="46.06626" lon="6.33332">
        <ele>488.49</ele>
        <time>2020-04-18T11:10:10Z</time>
      </trkpt>
      <trkpt lat="46.06616" lon="6.33321">
        <ele>489.45</ele>
        <time>2020-04-18T11:10:11Z</time>
      </trkpt>
      <trkpt lat="46.06604" lon="6.33313">
        <ele>490.41</ele>
        <time>2020-04-18T11:10:12Z</time>
      </trkpt>
      <trkpt lat="46.06591" lon="6.33305">
        <ele>490.89</ele>
        <time>2020-04-18T11:10:13Z</time>
      </trkpt>
      <trkpt lat="46.06569" lon="6.33291">
        <ele>492.33</ele>
        <time>2020-04-18T11:10:15Z</time>
      </trkpt>
      <trkpt lat="46.06559" lon="6.33285">
        <ele>493.29</ele>
        <time>2020-04-18T11:10:16Z</time>
      </trkpt>
      <trkpt lat="46.06556" lon="6.33275">
        <ele>493.29</ele>
        <time>2020-04-18T11:10:17Z</time>
      </trkpt>
      <trkpt lat="46.06553" lon="6.33261">
        <ele>493.29</ele>
        <time>2020-04-18T11:10:18Z</time>
      </trkpt>
      <trkpt lat="46.06556" lon="6.33249">
        <ele>493.29</ele>
        <time>2020-04-18T11:10:19Z</time>
      </trkpt>
      <trkpt lat="46.0656" lon="6.33235">
        <ele>493.29</ele>
        <time>2020-04-18T11:10:20Z</time>
      </trkpt>
      <trkpt lat="46.0656" lon="6.3322">
        <ele>492.81</ele>
        <time>2020-04-18T11:10:21Z</time>
      </trkpt>
      <trkpt lat="46.06559" lon="6.33204">
        <ele>492.33</ele>
        <time>2020-04-18T11:10:22Z</time>
      </trkpt>
      <trkpt lat="46.06554" lon="6.33188">
        <ele>491.85</ele>
        <time>2020-04-18T11:10:23Z</time>
      </trkpt>
      <trkpt lat="46.06546" lon="6.33171">
        <ele>491.37</ele>
        <time>2020-04-18T11:10:24Z</time>
      </trkpt>
      <trkpt lat="46.06538" lon="6.33153">
        <ele>490.89</ele>
        <time>2020-04-18T11:10:25Z</time>
      </trkpt>
      <trkpt lat="46.06527" lon="6.33135">
        <ele>489.93</ele>
        <time>2020-04-18T11:10:26Z</time>
      </trkpt>
      <trkpt lat="46.06473" lon="6.33038">
        <ele>485.6</ele>
        <time>2020-04-18T11:10:32Z</time>
      </trkpt>
      <trkpt lat="46.06466" lon="6.33023">
        <ele>484.64</ele>
        <time>2020-04-18T11:10:33Z</time>
      </trkpt>
      <trkpt lat="46.06459" lon="6.33008">
        <ele>483.68</ele>
        <time>2020-04-18T11:10:34Z</time>
      </trkpt>
      <trkpt lat="46.0645" lon="6.32995">
        <ele>483.68</ele>
        <time>2020-04-18T11:10:35Z</time>
      </trkpt>
      <trkpt lat="46.06438" lon="6.32989">
        <ele>484.16</ele>
        <time>2020-04-18T11:10:36Z</time>
      </trkpt>
      <trkpt lat="46.06427" lon="6.32983">
        <ele>484.64</ele>
        <time>2020-04-18T11:10:37Z</time>
      </trkpt>
      <trkpt lat="46.06414" lon="6.3298">
        <ele>485.12</ele>
        <time>2020-04-18T11:10:38Z</time>
      </trkpt>
      <trkpt lat="46.06401" lon="6.32981">
        <ele>485.6</ele>
        <time>2020-04-18T11:10:39Z</time>
      </trkpt>
      <trkpt lat="46.06388" lon="6.32982">
        <ele>486.08</ele>
        <time>2020-04-18T11:10:40Z</time>
      </trkpt>
      <trkpt lat="46.06375" lon="6.32983">
        <ele>487.05</ele>
        <time>2020-04-18T11:10:41Z</time>
      </trkpt>
      <trkpt lat="46.06363" lon="6.32984">
        <ele>488.01</ele>
        <time>2020-04-18T11:10:42Z</time>
      </trkpt>
      <trkpt lat="46.06354" lon="6.32983">
        <ele>488.01</ele>
        <time>2020-04-18T11:10:43Z</time>
      </trkpt>
      <trkpt lat="46.06346" lon="6.32979">
        <ele>488.97</ele>
        <time>2020-04-18T11:10:44Z</time>
      </trkpt>
      <trkpt lat="46.06341" lon="6.32977">
        <ele>489.93</ele>
        <time>2020-04-18T11:10:45Z</time>
      </trkpt>
      <trkpt lat="46.06336" lon="6.32975">
        <ele>491.37</ele>
        <time>2020-04-18T11:10:46Z</time>
      </trkpt>
      <trkpt lat="46.06333" lon="6.32974">
        <ele>492.33</ele>
        <time>2020-04-18T11:10:47Z</time>
      </trkpt>
      <trkpt lat="46.06329" lon="6.32963">
        <ele>494.26</ele>
        <time>2020-04-18T11:10:49Z</time>
      </trkpt>
      <trkpt lat="46.0633" lon="6.32926">
        <ele>496.18</ele>
        <time>2020-04-18T11:10:51Z</time>
      </trkpt>
      <trkpt lat="46.06328" lon="6.32906">
        <ele>497.14</ele>
        <time>2020-04-18T11:10:52Z</time>
      </trkpt>
      <trkpt lat="46.06326" lon="6.32885">
        <ele>498.58</ele>
        <time>2020-04-18T11:10:53Z</time>
      </trkpt>
      <trkpt lat="46.06325" lon="6.32862">
        <ele>500.02</ele>
        <time>2020-04-18T11:10:54Z</time>
      </trkpt>
      <trkpt lat="46.06326" lon="6.32838">
        <ele>501.46</ele>
        <time>2020-04-18T11:10:55Z</time>
      </trkpt>
      <trkpt lat="46.06327" lon="6.32793">
        <ele>504.83</ele>
        <time>2020-04-18T11:10:57Z</time>
      </trkpt>
      <trkpt lat="46.06325" lon="6.32768">
        <ele>505.79</ele>
        <time>2020-04-18T11:10:58Z</time>
      </trkpt>
      <trkpt lat="46.06288" lon="6.32599">
        <ele>515.88</ele>
        <time>2020-04-18T11:11:04Z</time>
      </trkpt>
      <trkpt lat="46.06266" lon="6.32481">
        <ele>527.9</ele>
        <time>2020-04-18T11:11:10Z</time>
      </trkpt>
      <trkpt lat="46.06261" lon="6.32394">
        <ele>537.99</ele>
        <time>2020-04-18T11:11:17Z</time>
      </trkpt>
      <trkpt lat="46.06266" lon="6.32241">
        <ele>538.96</ele>
        <time>2020-04-18T11:11:26Z</time>
      </trkpt>
      <trkpt lat="46.06249" lon="6.32082">
        <ele>538.48</ele>
        <time>2020-04-18T11:11:34Z</time>
      </trkpt>
      <trkpt lat="46.06202" lon="6.31961">
        <ele>539.92</ele>
        <time>2020-04-18T11:11:41Z</time>
      </trkpt>
      <trkpt lat="46.06164" lon="6.31884">
        <ele>543.76</ele>
        <time>2020-04-18T11:11:47Z</time>
      </trkpt>
      <trkpt lat="46.0614" lon="6.31841">
        <ele>547.61</ele>
        <time>2020-04-18T11:11:50Z</time>
      </trkpt>
      <trkpt lat="46.0613" lon="6.31831">
        <ele>549.05</ele>
        <time>2020-04-18T11:11:51Z</time>
      </trkpt>
      <trkpt lat="46.06121" lon="6.3182">
        <ele>550.49</ele>
        <time>2020-04-18T11:11:52Z</time>
      </trkpt>
      <trkpt lat="46.061" lon="6.31796">
        <ele>553.86</ele>
        <time>2020-04-18T11:11:55Z</time>
      </trkpt>
      <trkpt lat="46.06096" lon="6.31791">
        <ele>554.82</ele>
        <time>2020-04-18T11:11:56Z</time>
      </trkpt>
      <trkpt lat="46.06092" lon="6.31787">
        <ele>555.78</ele>
        <time>2020-04-18T11:11:57Z</time>
      </trkpt>
      <trkpt lat="46.06091" lon="6.31785">
        <ele>556.74</ele>
        <time>2020-04-18T11:11:58Z</time>
      </trkpt>
      <trkpt lat="46.06087" lon="6.31778">
        <ele>557.7</ele>
        <time>2020-04-18T11:11:59Z</time>
      </trkpt>
      <trkpt lat="46.06088" lon="6.31771">
        <ele>558.66</ele>
        <time>2020-04-18T11:12:00Z</time>
      </trkpt>
      <trkpt lat="46.06089" lon="6.31757">
        <ele>559.62</ele>
        <time>2020-04-18T11:12:01Z</time>
      </trkpt>
      <trkpt lat="46.06085" lon="6.31738">
        <ele>559.62</ele>
        <time>2020-04-18T11:12:02Z</time>
      </trkpt>
      <trkpt lat="46.06076" lon="6.31715">
        <ele>560.11</ele>
        <time>2020-04-18T11:12:03Z</time>
      </trkpt>
      <trkpt lat="46.06048" lon="6.31656">
        <ele>560.11</ele>
        <time>2020-04-18T11:12:06Z</time>
      </trkpt>
      <trkpt lat="46.06037" lon="6.31623">
        <ele>560.11</ele>
        <time>2020-04-18T11:12:08Z</time>
      </trkpt>
      <trkpt lat="46.06039" lon="6.31607">
        <ele>559.62</ele>
        <time>2020-04-18T11:12:09Z</time>
      </trkpt>
      <trkpt lat="46.06044" lon="6.31593">
        <ele>559.62</ele>
        <time>2020-04-18T11:12:10Z</time>
      </trkpt>
      <trkpt lat="46.06052" lon="6.3158">
        <ele>559.14</ele>
        <time>2020-04-18T11:12:11Z</time>
      </trkpt>
      <trkpt lat="46.0606" lon="6.31572">
        <ele>558.66</ele>
        <time>2020-04-18T11:12:12Z</time>
      </trkpt>
      <trkpt lat="46.06071" lon="6.31566">
        <ele>558.66</ele>
        <time>2020-04-18T11:12:13Z</time>
      </trkpt>
      <trkpt lat="46.06081" lon="6.31568">
        <ele>559.14</ele>
        <time>2020-04-18T11:12:14Z</time>
      </trkpt>
      <trkpt lat="46.06093" lon="6.31577">
        <ele>560.11</ele>
        <time>2020-04-18T11:12:15Z</time>
      </trkpt>
      <trkpt lat="46.06107" lon="6.31587">
        <ele>561.07</ele>
        <time>2020-04-18T11:12:16Z</time>
      </trkpt>
      <trkpt lat="46.0618" lon="6.31635">
        <ele>565.87</ele>
        <time>2020-04-18T11:12:22Z</time>
      </trkpt>
      <trkpt lat="46.0619" lon="6.31641">
        <ele>566.35</ele>
        <time>2020-04-18T11:12:23Z</time>
      </trkpt>
      <trkpt lat="46.062" lon="6.31638">
        <ele>566.83</ele>
        <time>2020-04-18T11:12:24Z</time>
      </trkpt>
      <trkpt lat="46.06212" lon="6.31635">
        <ele>566.83</ele>
        <time>2020-04-18T11:12:25Z</time>
      </trkpt>
      <trkpt lat="46.06224" lon="6.3163">
        <ele>566.35</ele>
        <time>2020-04-18T11:12:26Z</time>
      </trkpt>
      <trkpt lat="46.06259" lon="6.31611">
        <ele>565.87</ele>
        <time>2020-04-18T11:12:29Z</time>
      </trkpt>
      <trkpt lat="46.06269" lon="6.316">
        <ele>565.87</ele>
        <time>2020-04-18T11:12:30Z</time>
      </trkpt>
      <trkpt lat="46.06287" lon="6.31575">
        <ele>566.35</ele>
        <time>2020-04-18T11:12:32Z</time>
      </trkpt>
      <trkpt lat="46.06296" lon="6.31561">
        <ele>566.35</ele>
        <time>2020-04-18T11:12:33Z</time>
      </trkpt>
      <trkpt lat="46.06354" lon="6.31475">
        <ele>563.47</ele>
        <time>2020-04-18T11:12:41Z</time>
      </trkpt>
      <trkpt lat="46.06361" lon="6.31458">
        <ele>562.99</ele>
        <time>2020-04-18T11:12:43Z</time>
      </trkpt>
      <trkpt lat="46.06365" lon="6.31447">
        <ele>562.51</ele>
        <time>2020-04-18T11:12:44Z</time>
      </trkpt>
      <trkpt lat="46.06369" lon="6.31434">
        <ele>562.03</ele>
        <time>2020-04-18T11:12:45Z</time>
      </trkpt>
      <trkpt lat="46.06372" lon="6.31421">
        <ele>561.55</ele>
        <time>2020-04-18T11:12:46Z</time>
      </trkpt>
      <trkpt lat="46.06376" lon="6.31409">
        <ele>561.55</ele>
        <time>2020-04-18T11:12:47Z</time>
      </trkpt>
      <trkpt lat="46.06379" lon="6.31398">
        <ele>561.07</ele>
        <time>2020-04-18T11:12:48Z</time>
      </trkpt>
      <trkpt lat="46.06381" lon="6.31387">
        <ele>560.59</ele>
        <time>2020-04-18T11:12:49Z</time>
      </trkpt>
      <trkpt lat="46.06403" lon="6.31288">
        <ele>558.18</ele>
        <time>2020-04-18T11:12:55Z</time>
      </trkpt>
      <trkpt lat="46.06452" lon="6.3113">
        <ele>558.66</ele>
        <time>2020-04-18T11:13:05Z</time>
      </trkpt>
      <trkpt lat="46.06456" lon="6.31119">
        <ele>558.66</ele>
        <time>2020-04-18T11:13:06Z</time>
      </trkpt>
      <trkpt lat="46.06467" lon="6.31089">
        <ele>558.66</ele>
        <time>2020-04-18T11:13:09Z</time>
      </trkpt>
      <trkpt lat="46.06476" lon="6.31088">
        <ele>558.66</ele>
        <time>2020-04-18T11:13:11Z</time>
      </trkpt>
      <trkpt lat="46.06543" lon="6.31089">
        <ele>559.14</ele>
        <time>2020-04-18T11:13:16Z</time>
      </trkpt>
      <trkpt lat="46.06574" lon="6.31092">
        <ele>559.14</ele>
        <time>2020-04-18T11:13:19Z</time>
      </trkpt>
      <trkpt lat="46.06587" lon="6.31095">
        <ele>558.18</ele>
        <time>2020-04-18T11:13:21Z</time>
      </trkpt>
      <trkpt lat="46.06592" lon="6.31097">
        <ele>557.7</ele>
        <time>2020-04-18T11:13:22Z</time>
      </trkpt>
      <trkpt lat="46.06595" lon="6.31097">
        <ele>557.22</ele>
        <time>2020-04-18T11:13:23Z</time>
      </trkpt>
      <trkpt lat="46.06598" lon="6.31098">
        <ele>557.22</ele>
        <time>2020-04-18T11:13:24Z</time>
      </trkpt>
      <trkpt lat="46.06599" lon="6.31087">
        <ele>556.74</ele>
        <time>2020-04-18T11:13:25Z</time>
      </trkpt>
      <trkpt lat="46.06601" lon="6.31076">
        <ele>556.74</ele>
        <time>2020-04-18T11:13:26Z</time>
      </trkpt>
      <trkpt lat="46.06603" lon="6.31062">
        <ele>556.74</ele>
        <time>2020-04-18T11:13:27Z</time>
      </trkpt>
      <trkpt lat="46.06606" lon="6.31027">
        <ele>558.18</ele>
        <time>2020-04-18T11:13:29Z</time>
      </trkpt>
      <trkpt lat="46.0661" lon="6.31011">
        <ele>559.14</ele>
        <time>2020-04-18T11:13:30Z</time>
      </trkpt>
      <trkpt lat="46.06623" lon="6.30949">
        <ele>563.95</ele>
        <time>2020-04-18T11:13:35Z</time>
      </trkpt>
      <trkpt lat="46.06626" lon="6.30937">
        <ele>564.91</ele>
        <time>2020-04-18T11:13:36Z</time>
      </trkpt>
      <trkpt lat="46.06628" lon="6.30926">
        <ele>565.87</ele>
        <time>2020-04-18T11:13:37Z</time>
      </trkpt>
      <trkpt lat="46.06631" lon="6.30915">
        <ele>566.35</ele>
        <time>2020-04-18T11:13:38Z</time>
      </trkpt>
      <trkpt lat="46.06636" lon="6.30905">
        <ele>566.83</ele>
        <time>2020-04-18T11:13:39Z</time>
      </trkpt>
      <trkpt lat="46.06649" lon="6.30911">
        <ele>567.8</ele>
        <time>2020-04-18T11:13:40Z</time>
      </trkpt>
      <trkpt lat="46.06652" lon="6.30911">
        <ele>568.28</ele>
        <time>2020-04-18T11:13:41Z</time>
      </trkpt>
      <trkpt lat="46.06661" lon="6.30908">
        <ele>569.72</ele>
        <time>2020-04-18T11:13:42Z</time>
      </trkpt>
      <trkpt lat="46.06671" lon="6.30906">
        <ele>571.64</ele>
        <time>2020-04-18T11:13:43Z</time>
      </trkpt>
      <trkpt lat="46.06679" lon="6.30904">
        <ele>573.56</ele>
        <time>2020-04-18T11:13:44Z</time>
      </trkpt>
      <trkpt lat="46.06687" lon="6.30902">
        <ele>575.49</ele>
        <time>2020-04-18T11:13:45Z</time>
      </trkpt>
      <trkpt lat="46.06693" lon="6.30899">
        <ele>577.41</ele>
        <time>2020-04-18T11:13:46Z</time>
      </trkpt>
      <trkpt lat="46.067" lon="6.30889">
        <ele>579.33</ele>
        <time>2020-04-18T11:13:47Z</time>
      </trkpt>
      <trkpt lat="46.06746" lon="6.30817">
        <ele>580.77</ele>
        <time>2020-04-18T11:13:54Z</time>
      </trkpt>
      <trkpt lat="46.06748" lon="6.30814">
        <ele>580.77</ele>
        <time>2020-04-18T11:13:55Z</time>
      </trkpt>
      <trkpt lat="46.06748" lon="6.30814">
        <ele>580.77</ele>
        <time>2020-04-18T11:14:03Z</time>
      </trkpt>
      <trkpt lat="46.06748" lon="6.30814">
        <ele>580.77</ele>
        <time>2020-04-18T11:14:29Z</time>
      </trkpt>
    </trkseg>
  </trk>
  <trk>
    <name><![CDATA[Journal actif: 2020-04-19 10:15]]></name>
    <trkseg>
      <trkpt lat="46.06799" lon="6.30765">
        <ele>575.01</ele>
        <time>2020-04-19T08:15:36Z</time>
      </trkpt>
      <trkpt lat="46.06805" lon="6.30797">
        <ele>574.53</ele>
        <time>2020-04-19T08:15:40Z</time>
      </trkpt>
      <trkpt lat="46.06808" lon="6.30812">
        <ele>574.04</ele>
        <time>2020-04-19T08:15:41Z</time>
      </trkpt>
      <trkpt lat="46.0681" lon="6.30826">
        <ele>572.12</ele>
        <time>2020-04-19T08:15:42Z</time>
      </trkpt>
      <trkpt lat="46.06812" lon="6.30844">
        <ele>570.2</ele>
        <time>2020-04-19T08:15:43Z</time>
      </trkpt>
      <trkpt lat="46.06812" lon="6.30856">
        <ele>568.76</ele>
        <time>2020-04-19T08:15:44Z</time>
      </trkpt>
      <trkpt lat="46.06812" lon="6.30868">
        <ele>567.8</ele>
        <time>2020-04-19T08:15:45Z</time>
      </trkpt>
      <trkpt lat="46.06812" lon="6.30877">
        <ele>567.32</ele>
        <time>2020-04-19T08:15:46Z</time>
      </trkpt>
      <trkpt lat="46.06812" lon="6.30916">
        <ele>566.35</ele>
        <time>2020-04-19T08:15:47Z</time>
      </trkpt>
      <trkpt lat="46.06812" lon="6.30916">
        <ele>565.39</ele>
        <time>2020-04-19T08:15:48Z</time>
      </trkpt>
      <trkpt lat="46.06812" lon="6.30916">
        <ele>564.43</ele>
        <time>2020-04-19T08:15:49Z</time>
      </trkpt>
      <trkpt lat="46.06829" lon="6.30907">
        <ele>563.95</ele>
        <time>2020-04-19T08:15:50Z</time>
      </trkpt>
      <trkpt lat="46.06833" lon="6.309">
        <ele>563.47</ele>
        <time>2020-04-19T08:15:51Z</time>
      </trkpt>
      <trkpt lat="46.0684" lon="6.30891">
        <ele>562.51</ele>
        <time>2020-04-19T08:15:52Z</time>
      </trkpt>
      <trkpt lat="46.06849" lon="6.30881">
        <ele>562.03</ele>
        <time>2020-04-19T08:15:53Z</time>
      </trkpt>
      <trkpt lat="46.06858" lon="6.30869">
        <ele>561.55</ele>
        <time>2020-04-19T08:15:54Z</time>
      </trkpt>
      <trkpt lat="46.06908" lon="6.30805">
        <ele>559.62</ele>
        <time>2020-04-19T08:15:59Z</time>
      </trkpt>
      <trkpt lat="46.06919" lon="6.30789">
        <ele>559.62</ele>
        <time>2020-04-19T08:16:00Z</time>
      </trkpt>
      <trkpt lat="46.06929" lon="6.3077">
        <ele>559.14</ele>
        <time>2020-04-19T08:16:01Z</time>
      </trkpt>
      <trkpt lat="46.06957" lon="6.30697">
        <ele>559.14</ele>
        <time>2020-04-19T08:16:05Z</time>
      </trkpt>
      <trkpt lat="46.06961" lon="6.30678">
        <ele>558.66</ele>
        <time>2020-04-19T08:16:06Z</time>
      </trkpt>
      <trkpt lat="46.06965" lon="6.30659">
        <ele>558.66</ele>
        <time>2020-04-19T08:16:07Z</time>
      </trkpt>
      <trkpt lat="46.06981" lon="6.30589">
        <ele>555.3</ele>
        <time>2020-04-19T08:16:11Z</time>
      </trkpt>
      <trkpt lat="46.06991" lon="6.30561">
        <ele>553.86</ele>
        <time>2020-04-19T08:16:13Z</time>
      </trkpt>
      <trkpt lat="46.06997" lon="6.30544">
        <ele>553.38</ele>
        <time>2020-04-19T08:16:14Z</time>
      </trkpt>
      <trkpt lat="46.07001" lon="6.30535">
        <ele>553.86</ele>
        <time>2020-04-19T08:16:15Z</time>
      </trkpt>
      <trkpt lat="46.07007" lon="6.30523">
        <ele>554.34</ele>
        <time>2020-04-19T08:16:16Z</time>
      </trkpt>
      <trkpt lat="46.07018" lon="6.30519">
        <ele>554.82</ele>
        <time>2020-04-19T08:16:17Z</time>
      </trkpt>
      <trkpt lat="46.07074" lon="6.30479">
        <ele>561.07</ele>
        <time>2020-04-19T08:16:22Z</time>
      </trkpt>
      <trkpt lat="46.07087" lon="6.30473">
        <ele>561.55</ele>
        <time>2020-04-19T08:16:23Z</time>
      </trkpt>
      <trkpt lat="46.07113" lon="6.3046">
        <ele>562.51</ele>
        <time>2020-04-19T08:16:25Z</time>
      </trkpt>
      <trkpt lat="46.0721" lon="6.30418">
        <ele>565.87</ele>
        <time>2020-04-19T08:16:32Z</time>
      </trkpt>
      <trkpt lat="46.07238" lon="6.30407">
        <ele>566.83</ele>
        <time>2020-04-19T08:16:35Z</time>
      </trkpt>
      <trkpt lat="46.07243" lon="6.30405">
        <ele>567.32</ele>
        <time>2020-04-19T08:16:36Z</time>
      </trkpt>
      <trkpt lat="46.07247" lon="6.30416">
        <ele>567.32</ele>
        <time>2020-04-19T08:16:37Z</time>
      </trkpt>
      <trkpt lat="46.07251" lon="6.30427">
        <ele>567.32</ele>
        <time>2020-04-19T08:16:38Z</time>
      </trkpt>
      <trkpt lat="46.07255" lon="6.30438">
        <ele>567.32</ele>
        <time>2020-04-19T08:16:39Z</time>
      </trkpt>
      <trkpt lat="46.07258" lon="6.30448">
        <ele>567.32</ele>
        <time>2020-04-19T08:16:40Z</time>
      </trkpt>
      <trkpt lat="46.07261" lon="6.30456">
        <ele>567.32</ele>
        <time>2020-04-19T08:16:41Z</time>
      </trkpt>
      <trkpt lat="46.07263" lon="6.30461">
        <ele>567.32</ele>
        <time>2020-04-19T08:16:42Z</time>
      </trkpt>
      <trkpt lat="46.0727" lon="6.30464">
        <ele>567.8</ele>
        <time>2020-04-19T08:16:43Z</time>
      </trkpt>
      <trkpt lat="46.07275" lon="6.3046">
        <ele>567.8</ele>
        <time>2020-04-19T08:16:44Z</time>
      </trkpt>
      <trkpt lat="46.07283" lon="6.30455">
        <ele>567.8</ele>
        <time>2020-04-19T08:16:45Z</time>
      </trkpt>
      <trkpt lat="46.07294" lon="6.30448">
        <ele>568.28</ele>
        <time>2020-04-19T08:16:46Z</time>
      </trkpt>
      <trkpt lat="46.07378" lon="6.30406">
        <ele>568.76</ele>
        <time>2020-04-19T08:16:51Z</time>
      </trkpt>
      <trkpt lat="46.07506" lon="6.30398">
        <ele>565.39</ele>
        <time>2020-04-19T08:16:57Z</time>
      </trkpt>
      <trkpt lat="46.07566" lon="6.30404">
        <ele>561.55</ele>
        <time>2020-04-19T08:17:01Z</time>
      </trkpt>
      <trkpt lat="46.07576" lon="6.30409">
        <ele>560.59</ele>
        <time>2020-04-19T08:17:02Z</time>
      </trkpt>
      <trkpt lat="46.07583" lon="6.30417">
        <ele>560.11</ele>
        <time>2020-04-19T08:17:03Z</time>
      </trkpt>
      <trkpt lat="46.07591" lon="6.30422">
        <ele>560.11</ele>
        <time>2020-04-19T08:17:04Z</time>
      </trkpt>
      <trkpt lat="46.07596" lon="6.30427">
        <ele>559.14</ele>
        <time>2020-04-19T08:17:05Z</time>
      </trkpt>
      <trkpt lat="46.07601" lon="6.30437">
        <ele>558.18</ele>
        <time>2020-04-19T08:17:06Z</time>
      </trkpt>
      <trkpt lat="46.07603" lon="6.30447">
        <ele>557.7</ele>
        <time>2020-04-19T08:17:07Z</time>
      </trkpt>
      <trkpt lat="46.076" lon="6.30461">
        <ele>557.22</ele>
        <time>2020-04-19T08:17:08Z</time>
      </trkpt>
      <trkpt lat="46.07593" lon="6.30474">
        <ele>556.26</ele>
        <time>2020-04-19T08:17:09Z</time>
      </trkpt>
      <trkpt lat="46.07587" lon="6.30486">
        <ele>555.78</ele>
        <time>2020-04-19T08:17:10Z</time>
      </trkpt>
      <trkpt lat="46.07579" lon="6.30503">
        <ele>555.3</ele>
        <time>2020-04-19T08:17:11Z</time>
      </trkpt>
      <trkpt lat="46.07521" lon="6.30654">
        <ele>551.45</ele>
        <time>2020-04-19T08:17:17Z</time>
      </trkpt>
      <trkpt lat="46.07481" lon="6.30862">
        <ele>544.72</ele>
        <time>2020-04-19T08:17:23Z</time>
      </trkpt>
      <trkpt lat="46.07466" lon="6.31102">
        <ele>535.59</ele>
        <time>2020-04-19T08:17:30Z</time>
      </trkpt>
      <trkpt lat="46.07446" lon="6.31245">
        <ele>528.86</ele>
        <time>2020-04-19T08:17:35Z</time>
      </trkpt>
      <trkpt lat="46.07414" lon="6.3133">
        <ele>524.54</ele>
        <time>2020-04-19T08:17:40Z</time>
      </trkpt>
      <trkpt lat="46.07398" lon="6.31348">
        <ele>523.58</ele>
        <time>2020-04-19T08:17:42Z</time>
      </trkpt>
      <trkpt lat="46.07395" lon="6.31359">
        <ele>523.58</ele>
        <time>2020-04-19T08:17:43Z</time>
      </trkpt>
      <trkpt lat="46.07396" lon="6.31376">
        <ele>523.09</ele>
        <time>2020-04-19T08:17:44Z</time>
      </trkpt>
      <trkpt lat="46.07399" lon="6.31387">
        <ele>522.61</ele>
        <time>2020-04-19T08:17:45Z</time>
      </trkpt>
      <trkpt lat="46.07407" lon="6.31399">
        <ele>522.61</ele>
        <time>2020-04-19T08:17:46Z</time>
      </trkpt>
      <trkpt lat="46.07415" lon="6.31405">
        <ele>523.09</ele>
        <time>2020-04-19T08:17:47Z</time>
      </trkpt>
      <trkpt lat="46.07426" lon="6.31402">
        <ele>523.09</ele>
        <time>2020-04-19T08:17:48Z</time>
      </trkpt>
      <trkpt lat="46.07439" lon="6.31414">
        <ele>522.61</ele>
        <time>2020-04-19T08:17:49Z</time>
      </trkpt>
      <trkpt lat="46.07445" lon="6.31427">
        <ele>522.13</ele>
        <time>2020-04-19T08:17:50Z</time>
      </trkpt>
      <trkpt lat="46.07449" lon="6.31437">
        <ele>521.65</ele>
        <time>2020-04-19T08:17:51Z</time>
      </trkpt>
      <trkpt lat="46.07451" lon="6.31448">
        <ele>520.21</ele>
        <time>2020-04-19T08:17:52Z</time>
      </trkpt>
      <trkpt lat="46.07452" lon="6.31456">
        <ele>519.25</ele>
        <time>2020-04-19T08:17:53Z</time>
      </trkpt>
      <trkpt lat="46.07447" lon="6.31463">
        <ele>518.29</ele>
        <time>2020-04-19T08:17:54Z</time>
      </trkpt>
      <trkpt lat="46.07443" lon="6.3147">
        <ele>517.81</ele>
        <time>2020-04-19T08:17:55Z</time>
      </trkpt>
      <trkpt lat="46.0744" lon="6.31474">
        <ele>516.85</ele>
        <time>2020-04-19T08:17:56Z</time>
      </trkpt>
      <trkpt lat="46.07435" lon="6.31477">
        <ele>516.37</ele>
        <time>2020-04-19T08:17:57Z</time>
      </trkpt>
      <trkpt lat="46.07432" lon="6.31473">
        <ele>515.4</ele>
        <time>2020-04-19T08:17:58Z</time>
      </trkpt>
      <trkpt lat="46.0743" lon="6.31469">
        <ele>514.44</ele>
        <time>2020-04-19T08:17:59Z</time>
      </trkpt>
      <trkpt lat="46.07431" lon="6.31461">
        <ele>513.96</ele>
        <time>2020-04-19T08:18:00Z</time>
      </trkpt>
      <trkpt lat="46.07434" lon="6.31458">
        <ele>513.48</ele>
        <time>2020-04-19T08:18:01Z</time>
      </trkpt>
      <trkpt lat="46.07434" lon="6.31458">
        <ele>512.52</ele>
        <time>2020-04-19T08:18:09Z</time>
      </trkpt>
      <trkpt lat="46.07439" lon="6.3146">
        <ele>526.94</ele>
        <time>2020-04-19T08:20:40Z</time>
      </trkpt>
      <trkpt lat="46.07436" lon="6.31455">
        <ele>524.54</ele>
        <time>2020-04-19T08:20:42Z</time>
      </trkpt>
      <trkpt lat="46.07452" lon="6.31456">
        <ele>523.09</ele>
        <time>2020-04-19T08:20:46Z</time>
      </trkpt>
      <trkpt lat="46.07452" lon="6.31456">
        <ele>521.65</ele>
        <time>2020-04-19T08:20:47Z</time>
      </trkpt>
      <trkpt lat="46.07441" lon="6.31473">
        <ele>523.58</ele>
        <time>2020-04-19T08:20:48Z</time>
      </trkpt>
      <trkpt lat="46.07437" lon="6.3148">
        <ele>525.02</ele>
        <time>2020-04-19T08:20:49Z</time>
      </trkpt>
      <trkpt lat="46.07437" lon="6.3148">
        <ele>527.9</ele>
        <time>2020-04-19T08:20:50Z</time>
      </trkpt>
      <trkpt lat="46.07434" lon="6.31475">
        <ele>528.86</ele>
        <time>2020-04-19T08:20:51Z</time>
      </trkpt>
      <trkpt lat="46.07436" lon="6.31478">
        <ele>529.82</ele>
        <time>2020-04-19T08:20:52Z</time>
      </trkpt>
      <trkpt lat="46.07439" lon="6.31477">
        <ele>528.86</ele>
        <time>2020-04-19T08:20:53Z</time>
      </trkpt>
      <trkpt lat="46.07442" lon="6.31471">
        <ele>527.9</ele>
        <time>2020-04-19T08:20:54Z</time>
      </trkpt>
      <trkpt lat="46.07447" lon="6.31463">
        <ele>525.98</ele>
        <time>2020-04-19T08:20:55Z</time>
      </trkpt>
      <trkpt lat="46.07452" lon="6.31456">
        <ele>523.58</ele>
        <time>2020-04-19T08:20:56Z</time>
      </trkpt>
      <trkpt lat="46.07451" lon="6.31452">
        <ele>524.06</ele>
        <time>2020-04-19T08:20:57Z</time>
      </trkpt>
      <trkpt lat="46.07449" lon="6.31437">
        <ele>524.06</ele>
        <time>2020-04-19T08:20:58Z</time>
      </trkpt>
      <trkpt lat="46.07447" lon="6.31432">
        <ele>524.06</ele>
        <time>2020-04-19T08:20:59Z</time>
      </trkpt>
      <trkpt lat="46.07441" lon="6.31419">
        <ele>522.61</ele>
        <time>2020-04-19T08:21:00Z</time>
      </trkpt>
      <trkpt lat="46.07458" lon="6.31398">
        <ele>521.65</ele>
        <time>2020-04-19T08:21:01Z</time>
      </trkpt>
      <trkpt lat="46.07443" lon="6.31379">
        <ele>521.17</ele>
        <time>2020-04-19T08:21:02Z</time>
      </trkpt>
      <trkpt lat="46.07445" lon="6.31366">
        <ele>521.65</ele>
        <time>2020-04-19T08:21:03Z</time>
      </trkpt>
      <trkpt lat="46.07441" lon="6.31354">
        <ele>521.65</ele>
        <time>2020-04-19T08:21:04Z</time>
      </trkpt>
      <trkpt lat="46.07437" lon="6.31343">
        <ele>521.65</ele>
        <time>2020-04-19T08:21:05Z</time>
      </trkpt>
      <trkpt lat="46.07428" lon="6.31334">
        <ele>522.13</ele>
        <time>2020-04-19T08:21:06Z</time>
      </trkpt>
      <trkpt lat="46.07421" lon="6.31333">
        <ele>522.13</ele>
        <time>2020-04-19T08:21:07Z</time>
      </trkpt>
      <trkpt lat="46.07411" lon="6.31333">
        <ele>521.65</ele>
        <time>2020-04-19T08:21:08Z</time>
      </trkpt>
      <trkpt lat="46.07401" lon="6.31342">
        <ele>521.65</ele>
        <time>2020-04-19T08:21:09Z</time>
      </trkpt>
      <trkpt lat="46.07396" lon="6.31355">
        <ele>521.17</ele>
        <time>2020-04-19T08:21:10Z</time>
      </trkpt>
      <trkpt lat="46.07394" lon="6.31364">
        <ele>521.65</ele>
        <time>2020-04-19T08:21:11Z</time>
      </trkpt>
      <trkpt lat="46.07397" lon="6.31382">
        <ele>521.65</ele>
        <time>2020-04-19T08:21:12Z</time>
      </trkpt>
      <trkpt lat="46.074" lon="6.31393">
        <ele>521.65</ele>
        <time>2020-04-19T08:21:13Z</time>
      </trkpt>
      <trkpt lat="46.07397" lon="6.31403">
        <ele>521.65</ele>
        <time>2020-04-19T08:21:14Z</time>
      </trkpt>
      <trkpt lat="46.07393" lon="6.31414">
        <ele>521.17</ele>
        <time>2020-04-19T08:21:15Z</time>
      </trkpt>
      <trkpt lat="46.07389" lon="6.31425">
        <ele>520.69</ele>
        <time>2020-04-19T08:21:16Z</time>
      </trkpt>
      <trkpt lat="46.07385" lon="6.31437">
        <ele>520.21</ele>
        <time>2020-04-19T08:21:17Z</time>
      </trkpt>
      <trkpt lat="46.07379" lon="6.31454">
        <ele>520.21</ele>
        <time>2020-04-19T08:21:18Z</time>
      </trkpt>
      <trkpt lat="46.07374" lon="6.3146">
        <ele>519.73</ele>
        <time>2020-04-19T08:21:19Z</time>
      </trkpt>
      <trkpt lat="46.07304" lon="6.31542">
        <ele>519.25</ele>
        <time>2020-04-19T08:21:26Z</time>
      </trkpt>
      <trkpt lat="46.07178" lon="6.3173">
        <ele>515.88</ele>
        <time>2020-04-19T08:21:37Z</time>
      </trkpt>
      <trkpt lat="46.07084" lon="6.31905">
        <ele>513.96</ele>
        <time>2020-04-19T08:21:46Z</time>
      </trkpt>
      <trkpt lat="46.07033" lon="6.32057">
        <ele>513</ele>
        <time>2020-04-19T08:21:53Z</time>
      </trkpt>
      <trkpt lat="46.07022" lon="6.32066">
        <ele>513</ele>
        <time>2020-04-19T08:21:54Z</time>
      </trkpt>
      <trkpt lat="46.07014" lon="6.32076">
        <ele>513</ele>
        <time>2020-04-19T08:21:55Z</time>
      </trkpt>
      <trkpt lat="46.07007" lon="6.32084">
        <ele>513</ele>
        <time>2020-04-19T08:21:56Z</time>
      </trkpt>
      <trkpt lat="46.06999" lon="6.32094">
        <ele>513</ele>
        <time>2020-04-19T08:21:57Z</time>
      </trkpt>
      <trkpt lat="46.06993" lon="6.32092">
        <ele>513.48</ele>
        <time>2020-04-19T08:21:58Z</time>
      </trkpt>
      <trkpt lat="46.06986" lon="6.32089">
        <ele>513.96</ele>
        <time>2020-04-19T08:21:59Z</time>
      </trkpt>
      <trkpt lat="46.06979" lon="6.32079">
        <ele>513.96</ele>
        <time>2020-04-19T08:22:00Z</time>
      </trkpt>
      <trkpt lat="46.06975" lon="6.32066">
        <ele>513.96</ele>
        <time>2020-04-19T08:22:01Z</time>
      </trkpt>
      <trkpt lat="46.06969" lon="6.32049">
        <ele>514.44</ele>
        <time>2020-04-19T08:22:02Z</time>
      </trkpt>
      <trkpt lat="46.06951" lon="6.31983">
        <ele>516.37</ele>
        <time>2020-04-19T08:22:07Z</time>
      </trkpt>
      <trkpt lat="46.06949" lon="6.31977">
        <ele>516.85</ele>
        <time>2020-04-19T08:22:08Z</time>
      </trkpt>
      <trkpt lat="46.06948" lon="6.31973">
        <ele>517.33</ele>
        <time>2020-04-19T08:22:09Z</time>
      </trkpt>
      <trkpt lat="46.06947" lon="6.31971">
        <ele>517.81</ele>
        <time>2020-04-19T08:22:10Z</time>
      </trkpt>
      <trkpt lat="46.06966" lon="6.31961">
        <ele>519.25</ele>
        <time>2020-04-19T08:22:16Z</time>
      </trkpt>
      <trkpt lat="46.06967" lon="6.31961">
        <ele>520.69</ele>
        <time>2020-04-19T08:22:21Z</time>
      </trkpt>
      <trkpt lat="46.06969" lon="6.31956">
        <ele>521.17</ele>
        <time>2020-04-19T08:22:24Z</time>
      </trkpt>
      <trkpt lat="46.06969" lon="6.31948">
        <ele>522.61</ele>
        <time>2020-04-19T08:22:38Z</time>
      </trkpt>
      <trkpt lat="46.06969" lon="6.31948">
        <ele>523.09</ele>
        <time>2020-04-19T08:23:22Z</time>
      </trkpt>
      <trkpt lat="46.06942" lon="6.31955">
        <ele>520.21</ele>
        <time>2020-04-19T08:37:39Z</time>
      </trkpt>
      <trkpt lat="46.06941" lon="6.31952">
        <ele>518.77</ele>
        <time>2020-04-19T08:37:40Z</time>
      </trkpt>
      <trkpt lat="46.0694" lon="6.3195">
        <ele>517.81</ele>
        <time>2020-04-19T08:37:41Z</time>
      </trkpt>
      <trkpt lat="46.06942" lon="6.31956">
        <ele>516.37</ele>
        <time>2020-04-19T08:37:46Z</time>
      </trkpt>
      <trkpt lat="46.06943" lon="6.31957">
        <ele>515.4</ele>
        <time>2020-04-19T08:37:47Z</time>
      </trkpt>
      <trkpt lat="46.06944" lon="6.31962">
        <ele>515.4</ele>
        <time>2020-04-19T08:37:48Z</time>
      </trkpt>
      <trkpt lat="46.06946" lon="6.31966">
        <ele>513</ele>
        <time>2020-04-19T08:37:49Z</time>
      </trkpt>
      <trkpt lat="46.06943" lon="6.31959">
        <ele>515.4</ele>
        <time>2020-04-19T08:37:52Z</time>
      </trkpt>
      <trkpt lat="46.06925" lon="6.31903">
        <ele>517.81</ele>
        <time>2020-04-19T08:37:56Z</time>
      </trkpt>
      <trkpt lat="46.06888" lon="6.31782">
        <ele>522.13</ele>
        <time>2020-04-19T08:38:02Z</time>
      </trkpt>
      <trkpt lat="46.06844" lon="6.31638">
        <ele>531.27</ele>
        <time>2020-04-19T08:38:11Z</time>
      </trkpt>
      <trkpt lat="46.06827" lon="6.31587">
        <ele>532.71</ele>
        <time>2020-04-19T08:38:14Z</time>
      </trkpt>
      <trkpt lat="46.06822" lon="6.3157">
        <ele>533.67</ele>
        <time>2020-04-19T08:38:15Z</time>
      </trkpt>
      <trkpt lat="46.06801" lon="6.31506">
        <ele>537.03</ele>
        <time>2020-04-19T08:38:19Z</time>
      </trkpt>
      <trkpt lat="46.06797" lon="6.31493">
        <ele>537.99</ele>
        <time>2020-04-19T08:38:20Z</time>
      </trkpt>
      <trkpt lat="46.06793" lon="6.31482">
        <ele>538.96</ele>
        <time>2020-04-19T08:38:21Z</time>
      </trkpt>
      <trkpt lat="46.0679" lon="6.31472">
        <ele>539.44</ele>
        <time>2020-04-19T08:38:22Z</time>
      </trkpt>
      <trkpt lat="46.06788" lon="6.31466">
        <ele>539.92</ele>
        <time>2020-04-19T08:38:23Z</time>
      </trkpt>
      <trkpt lat="46.06795" lon="6.31443">
        <ele>540.4</ele>
        <time>2020-04-19T08:38:24Z</time>
      </trkpt>
      <trkpt lat="46.06798" lon="6.31443">
        <ele>540.88</ele>
        <time>2020-04-19T08:38:25Z</time>
      </trkpt>
      <trkpt lat="46.06802" lon="6.31443">
        <ele>541.36</ele>
        <time>2020-04-19T08:38:26Z</time>
      </trkpt>
      <trkpt lat="46.06808" lon="6.31444">
        <ele>541.84</ele>
        <time>2020-04-19T08:38:27Z</time>
      </trkpt>
      <trkpt lat="46.06816" lon="6.31444">
        <ele>542.8</ele>
        <time>2020-04-19T08:38:28Z</time>
      </trkpt>
      <trkpt lat="46.06825" lon="6.31445">
        <ele>544.24</ele>
        <time>2020-04-19T08:38:29Z</time>
      </trkpt>
      <trkpt lat="46.06851" lon="6.31447">
        <ele>548.09</ele>
        <time>2020-04-19T08:38:31Z</time>
      </trkpt>
      <trkpt lat="46.06866" lon="6.31448">
        <ele>550.49</ele>
        <time>2020-04-19T08:38:32Z</time>
      </trkpt>
      <trkpt lat="46.06882" lon="6.31446">
        <ele>551.93</ele>
        <time>2020-04-19T08:38:33Z</time>
      </trkpt>
      <trkpt lat="46.06899" lon="6.31444">
        <ele>553.38</ele>
        <time>2020-04-19T08:38:34Z</time>
      </trkpt>
      <trkpt lat="46.06914" lon="6.31442">
        <ele>554.82</ele>
        <time>2020-04-19T08:38:35Z</time>
      </trkpt>
      <trkpt lat="46.06929" lon="6.3144">
        <ele>555.78</ele>
        <time>2020-04-19T08:38:36Z</time>
      </trkpt>
      <trkpt lat="46.06982" lon="6.31431">
        <ele>553.86</ele>
        <time>2020-04-19T08:38:40Z</time>
      </trkpt>
      <trkpt lat="46.07055" lon="6.3142">
        <ele>547.61</ele>
        <time>2020-04-19T08:38:47Z</time>
      </trkpt>
      <trkpt lat="46.07186" lon="6.31397">
        <ele>540.88</ele>
        <time>2020-04-19T08:38:57Z</time>
      </trkpt>
      <trkpt lat="46.07328" lon="6.31372">
        <ele>536.07</ele>
        <time>2020-04-19T08:39:07Z</time>
      </trkpt>
      <trkpt lat="46.07341" lon="6.3137">
        <ele>535.59</ele>
        <time>2020-04-19T08:39:08Z</time>
      </trkpt>
      <trkpt lat="46.07352" lon="6.31368">
        <ele>535.11</ele>
        <time>2020-04-19T08:39:09Z</time>
      </trkpt>
      <trkpt lat="46.07364" lon="6.31366">
        <ele>534.15</ele>
        <time>2020-04-19T08:39:10Z</time>
      </trkpt>
      <trkpt lat="46.07374" lon="6.31366">
        <ele>533.67</ele>
        <time>2020-04-19T08:39:11Z</time>
      </trkpt>
      <trkpt lat="46.07384" lon="6.31365">
        <ele>533.19</ele>
        <time>2020-04-19T08:39:12Z</time>
      </trkpt>
      <trkpt lat="46.074" lon="6.31394">
        <ele>532.71</ele>
        <time>2020-04-19T08:39:13Z</time>
      </trkpt>
      <trkpt lat="46.07413" lon="6.31404">
        <ele>532.71</ele>
        <time>2020-04-19T08:39:14Z</time>
      </trkpt>
      <trkpt lat="46.07413" lon="6.31404">
        <ele>532.23</ele>
        <time>2020-04-19T08:39:15Z</time>
      </trkpt>
      <trkpt lat="46.07415" lon="6.31405">
        <ele>531.75</ele>
        <time>2020-04-19T08:39:16Z</time>
      </trkpt>
      <trkpt lat="46.07438" lon="6.31411">
        <ele>531.27</ele>
        <time>2020-04-19T08:39:17Z</time>
      </trkpt>
      <trkpt lat="46.07448" lon="6.31435">
        <ele>530.79</ele>
        <time>2020-04-19T08:39:18Z</time>
      </trkpt>
      <trkpt lat="46.07448" lon="6.31435">
        <ele>530.3</ele>
        <time>2020-04-19T08:39:19Z</time>
      </trkpt>
      <trkpt lat="46.07451" lon="6.31448">
        <ele>529.82</ele>
        <time>2020-04-19T08:39:20Z</time>
      </trkpt>
      <trkpt lat="46.07448" lon="6.31461">
        <ele>529.34</ele>
        <time>2020-04-19T08:39:21Z</time>
      </trkpt>
      <trkpt lat="46.07443" lon="6.31469">
        <ele>528.86</ele>
        <time>2020-04-19T08:39:22Z</time>
      </trkpt>
      <trkpt lat="46.07439" lon="6.31477">
        <ele>527.9</ele>
        <time>2020-04-19T08:39:23Z</time>
      </trkpt>
      <trkpt lat="46.0743" lon="6.31495">
        <ele>526.94</ele>
        <time>2020-04-19T08:39:24Z</time>
      </trkpt>
      <trkpt lat="46.0743" lon="6.31495">
        <ele>525.5</ele>
        <time>2020-04-19T08:39:25Z</time>
      </trkpt>
      <trkpt lat="46.07426" lon="6.31506">
        <ele>524.06</ele>
        <time>2020-04-19T08:39:26Z</time>
      </trkpt>
      <trkpt lat="46.07406" lon="6.31582">
        <ele>520.69</ele>
        <time>2020-04-19T08:39:34Z</time>
      </trkpt>
      <trkpt lat="46.07404" lon="6.3159">
        <ele>519.73</ele>
        <time>2020-04-19T08:39:43Z</time>
      </trkpt>
      <trkpt lat="46.07404" lon="6.3159">
        <ele>519.73</ele>
        <time>2020-04-19T08:40:46Z</time>
      </trkpt>
      <trkpt lat="46.07401" lon="6.31601">
        <ele>519.25</ele>
        <time>2020-04-19T08:40:56Z</time>
      </trkpt>
      <trkpt lat="46.07383" lon="6.31676">
        <ele>518.77</ele>
        <time>2020-04-19T08:41:01Z</time>
      </trkpt>
      <trkpt lat="46.07382" lon="6.31682">
        <ele>518.29</ele>
        <time>2020-04-19T08:41:02Z</time>
      </trkpt>
      <trkpt lat="46.07381" lon="6.31687">
        <ele>518.29</ele>
        <time>2020-04-19T08:41:03Z</time>
      </trkpt>
      <trkpt lat="46.07381" lon="6.31687">
        <ele>518.29</ele>
        <time>2020-04-19T08:41:04Z</time>
      </trkpt>
      <trkpt lat="46.07379" lon="6.31693">
        <ele>518.29</ele>
        <time>2020-04-19T08:41:05Z</time>
      </trkpt>
      <trkpt lat="46.07379" lon="6.31697">
        <ele>518.29</ele>
        <time>2020-04-19T08:41:06Z</time>
      </trkpt>
      <trkpt lat="46.0738" lon="6.31697">
        <ele>518.29</ele>
        <time>2020-04-19T08:41:07Z</time>
      </trkpt>
      <trkpt lat="46.07382" lon="6.31698">
        <ele>517.81</ele>
        <time>2020-04-19T08:41:08Z</time>
      </trkpt>
      <trkpt lat="46.0738" lon="6.3169">
        <ele>517.81</ele>
        <time>2020-04-19T08:41:09Z</time>
      </trkpt>
      <trkpt lat="46.07381" lon="6.31687">
        <ele>517.81</ele>
        <time>2020-04-19T08:41:10Z</time>
      </trkpt>
      <trkpt lat="46.07382" lon="6.31682">
        <ele>518.29</ele>
        <time>2020-04-19T08:41:11Z</time>
      </trkpt>
      <trkpt lat="46.07384" lon="6.31673">
        <ele>518.29</ele>
        <time>2020-04-19T08:41:12Z</time>
      </trkpt>
      <trkpt lat="46.07392" lon="6.31642">
        <ele>518.77</ele>
        <time>2020-04-19T08:41:13Z</time>
      </trkpt>
      <trkpt lat="46.07428" lon="6.315">
        <ele>523.09</ele>
        <time>2020-04-19T08:41:21Z</time>
      </trkpt>
      <trkpt lat="46.07433" lon="6.31488">
        <ele>523.09</ele>
        <time>2020-04-19T08:41:22Z</time>
      </trkpt>
      <trkpt lat="46.07439" lon="6.31477">
        <ele>523.09</ele>
        <time>2020-04-19T08:41:23Z</time>
      </trkpt>
      <trkpt lat="46.07444" lon="6.31468">
        <ele>523.09</ele>
        <time>2020-04-19T08:41:24Z</time>
      </trkpt>
      <trkpt lat="46.07449" lon="6.3146">
        <ele>523.09</ele>
        <time>2020-04-19T08:41:25Z</time>
      </trkpt>
      <trkpt lat="46.07451" lon="6.31454">
        <ele>522.61</ele>
        <time>2020-04-19T08:41:26Z</time>
      </trkpt>
      <trkpt lat="46.07451" lon="6.31454">
        <ele>522.61</ele>
        <time>2020-04-19T08:41:27Z</time>
      </trkpt>
      <trkpt lat="46.0745" lon="6.31443">
        <ele>522.61</ele>
        <time>2020-04-19T08:41:28Z</time>
      </trkpt>
      <trkpt lat="46.07442" lon="6.3142">
        <ele>523.09</ele>
        <time>2020-04-19T08:41:29Z</time>
      </trkpt>
      <trkpt lat="46.07436" lon="6.31408">
        <ele>523.58</ele>
        <time>2020-04-19T08:41:30Z</time>
      </trkpt>
      <trkpt lat="46.07436" lon="6.31408">
        <ele>523.58</ele>
        <time>2020-04-19T08:41:31Z</time>
      </trkpt>
      <trkpt lat="46.07443" lon="6.31379">
        <ele>524.06</ele>
        <time>2020-04-19T08:41:32Z</time>
      </trkpt>
      <trkpt lat="46.07437" lon="6.31343">
        <ele>524.54</ele>
        <time>2020-04-19T08:41:33Z</time>
      </trkpt>
      <trkpt lat="46.07435" lon="6.31324">
        <ele>525.02</ele>
        <time>2020-04-19T08:41:34Z</time>
      </trkpt>
      <trkpt lat="46.07436" lon="6.31304">
        <ele>525.5</ele>
        <time>2020-04-19T08:41:35Z</time>
      </trkpt>
      <trkpt lat="46.07447" lon="6.31258">
        <ele>526.94</ele>
        <time>2020-04-19T08:41:37Z</time>
      </trkpt>
      <trkpt lat="46.07455" lon="6.31229">
        <ele>527.42</ele>
        <time>2020-04-19T08:41:38Z</time>
      </trkpt>
      <trkpt lat="46.07461" lon="6.31197">
        <ele>528.38</ele>
        <time>2020-04-19T08:41:39Z</time>
      </trkpt>
      <trkpt lat="46.07467" lon="6.31162">
        <ele>528.86</ele>
        <time>2020-04-19T08:41:40Z</time>
      </trkpt>
      <trkpt lat="46.0747" lon="6.31124">
        <ele>529.82</ele>
        <time>2020-04-19T08:41:41Z</time>
      </trkpt>
      <trkpt lat="46.07483" lon="6.30846">
        <ele>538.48</ele>
        <time>2020-04-19T08:41:48Z</time>
      </trkpt>
      <trkpt lat="46.07523" lon="6.3065">
        <ele>546.65</ele>
        <time>2020-04-19T08:41:54Z</time>
      </trkpt>
      <trkpt lat="46.07575" lon="6.30513">
        <ele>551.45</ele>
        <time>2020-04-19T08:42:00Z</time>
      </trkpt>
      <trkpt lat="46.07596" lon="6.30468">
        <ele>552.9</ele>
        <time>2020-04-19T08:42:03Z</time>
      </trkpt>
      <trkpt lat="46.07602" lon="6.30458">
        <ele>553.38</ele>
        <time>2020-04-19T08:42:04Z</time>
      </trkpt>
      <trkpt lat="46.07615" lon="6.30459">
        <ele>553.86</ele>
        <time>2020-04-19T08:42:06Z</time>
      </trkpt>
      <trkpt lat="46.07626" lon="6.30448">
        <ele>553.86</ele>
        <time>2020-04-19T08:42:07Z</time>
      </trkpt>
      <trkpt lat="46.07629" lon="6.3044">
        <ele>554.34</ele>
        <time>2020-04-19T08:42:08Z</time>
      </trkpt>
      <trkpt lat="46.07627" lon="6.30427">
        <ele>554.82</ele>
        <time>2020-04-19T08:42:09Z</time>
      </trkpt>
      <trkpt lat="46.0762" lon="6.30419">
        <ele>554.82</ele>
        <time>2020-04-19T08:42:10Z</time>
      </trkpt>
      <trkpt lat="46.0762" lon="6.30419">
        <ele>554.82</ele>
        <time>2020-04-19T08:42:11Z</time>
      </trkpt>
      <trkpt lat="46.07606" lon="6.30418">
        <ele>554.82</ele>
        <time>2020-04-19T08:42:12Z</time>
      </trkpt>
      <trkpt lat="46.0759" lon="6.30422">
        <ele>555.3</ele>
        <time>2020-04-19T08:42:13Z</time>
      </trkpt>
      <trkpt lat="46.07576" lon="6.30409">
        <ele>555.3</ele>
        <time>2020-04-19T08:42:14Z</time>
      </trkpt>
      <trkpt lat="46.07567" lon="6.30404">
        <ele>555.78</ele>
        <time>2020-04-19T08:42:15Z</time>
      </trkpt>
      <trkpt lat="46.07553" lon="6.30401">
        <ele>556.26</ele>
        <time>2020-04-19T08:42:16Z</time>
      </trkpt>
      <trkpt lat="46.07392" lon="6.30403">
        <ele>562.51</ele>
        <time>2020-04-19T08:42:27Z</time>
      </trkpt>
      <trkpt lat="46.07309" lon="6.30438">
        <ele>564.43</ele>
        <time>2020-04-19T08:42:33Z</time>
      </trkpt>
      <trkpt lat="46.07273" lon="6.30462">
        <ele>563.95</ele>
        <time>2020-04-19T08:42:36Z</time>
      </trkpt>
      <trkpt lat="46.07273" lon="6.30462">
        <ele>563.95</ele>
        <time>2020-04-19T08:42:37Z</time>
      </trkpt>
      <trkpt lat="46.07258" lon="6.30447">
        <ele>563.95</ele>
        <time>2020-04-19T08:42:38Z</time>
      </trkpt>
      <trkpt lat="46.07258" lon="6.30447">
        <ele>563.95</ele>
        <time>2020-04-19T08:42:39Z</time>
      </trkpt>
      <trkpt lat="46.07254" lon="6.30434">
        <ele>564.43</ele>
        <time>2020-04-19T08:42:40Z</time>
      </trkpt>
      <trkpt lat="46.07249" lon="6.30422">
        <ele>564.91</ele>
        <time>2020-04-19T08:42:41Z</time>
      </trkpt>
      <trkpt lat="46.07243" lon="6.30405">
        <ele>565.39</ele>
        <time>2020-04-19T08:42:42Z</time>
      </trkpt>
      <trkpt lat="46.07234" lon="6.30409">
        <ele>565.87</ele>
        <time>2020-04-19T08:42:43Z</time>
      </trkpt>
      <trkpt lat="46.07225" lon="6.30412">
        <ele>566.35</ele>
        <time>2020-04-19T08:42:44Z</time>
      </trkpt>
      <trkpt lat="46.07212" lon="6.30417">
        <ele>567.32</ele>
        <time>2020-04-19T08:42:45Z</time>
      </trkpt>
      <trkpt lat="46.07086" lon="6.30473">
        <ele>571.16</ele>
        <time>2020-04-19T08:42:56Z</time>
      </trkpt>
      <trkpt lat="46.07076" lon="6.30478">
        <ele>571.64</ele>
        <time>2020-04-19T08:42:57Z</time>
      </trkpt>
      <trkpt lat="46.07021" lon="6.30518">
        <ele>573.56</ele>
        <time>2020-04-19T08:43:02Z</time>
      </trkpt>
      <trkpt lat="46.07015" lon="6.3052">
        <ele>574.53</ele>
        <time>2020-04-19T08:43:03Z</time>
      </trkpt>
      <trkpt lat="46.07015" lon="6.3052">
        <ele>575.01</ele>
        <time>2020-04-19T08:43:04Z</time>
      </trkpt>
      <trkpt lat="46.07003" lon="6.30506">
        <ele>575.49</ele>
        <time>2020-04-19T08:43:05Z</time>
      </trkpt>
      <trkpt lat="46.07003" lon="6.30506">
        <ele>575.97</ele>
        <time>2020-04-19T08:43:06Z</time>
      </trkpt>
      <trkpt lat="46.06998" lon="6.30506">
        <ele>576.45</ele>
        <time>2020-04-19T08:43:07Z</time>
      </trkpt>
      <trkpt lat="46.06991" lon="6.30515">
        <ele>576.93</ele>
        <time>2020-04-19T08:43:08Z</time>
      </trkpt>
      <trkpt lat="46.0699" lon="6.30539">
        <ele>576.93</ele>
        <time>2020-04-19T08:43:09Z</time>
      </trkpt>
      <trkpt lat="46.06986" lon="6.30552">
        <ele>576.45</ele>
        <time>2020-04-19T08:43:10Z</time>
      </trkpt>
      <trkpt lat="46.06983" lon="6.30565">
        <ele>575.97</ele>
        <time>2020-04-19T08:43:11Z</time>
      </trkpt>
      <trkpt lat="46.06981" lon="6.30577">
        <ele>575.01</ele>
        <time>2020-04-19T08:43:13Z</time>
      </trkpt>
      <trkpt lat="46.06979" lon="6.30586">
        <ele>574.04</ele>
        <time>2020-04-19T08:43:14Z</time>
      </trkpt>
      <trkpt lat="46.06964" lon="6.30587">
        <ele>573.08</ele>
        <time>2020-04-19T08:43:15Z</time>
      </trkpt>
      <trkpt lat="46.0696" lon="6.30592">
        <ele>572.6</ele>
        <time>2020-04-19T08:43:16Z</time>
      </trkpt>
      <trkpt lat="46.06954" lon="6.306">
        <ele>572.12</ele>
        <time>2020-04-19T08:43:17Z</time>
      </trkpt>
      <trkpt lat="46.06947" lon="6.30609">
        <ele>571.16</ele>
        <time>2020-04-19T08:43:18Z</time>
      </trkpt>
      <trkpt lat="46.0694" lon="6.30618">
        <ele>570.68</ele>
        <time>2020-04-19T08:43:19Z</time>
      </trkpt>
      <trkpt lat="46.06876" lon="6.30703">
        <ele>567.32</ele>
        <time>2020-04-19T08:43:28Z</time>
      </trkpt>
      <trkpt lat="46.06869" lon="6.30712">
        <ele>567.32</ele>
        <time>2020-04-19T08:43:29Z</time>
      </trkpt>
      <trkpt lat="46.06861" lon="6.30721">
        <ele>567.32</ele>
        <time>2020-04-19T08:43:30Z</time>
      </trkpt>
      <trkpt lat="46.06805" lon="6.30762">
        <ele>568.28</ele>
        <time>2020-04-19T08:43:38Z</time>
      </trkpt>
      <trkpt lat="46.06803" lon="6.30763">
        <ele>568.28</ele>
        <time>2020-04-19T08:43:39Z</time>
      </trkpt>
      <trkpt lat="46.06798" lon="6.30759">
        <ele>567.8</ele>
        <time>2020-04-19T08:43:40Z</time>
      </trkpt>
      <trkpt lat="46.06797" lon="6.30755">
        <ele>567.8</ele>
        <time>2020-04-19T08:43:41Z</time>
      </trkpt>
      <trkpt lat="46.06795" lon="6.30747">
        <ele>567.8</ele>
        <time>2020-04-19T08:43:42Z</time>
      </trkpt>
      <trkpt lat="46.06793" lon="6.30734">
        <ele>568.28</ele>
        <time>2020-04-19T08:43:43Z</time>
      </trkpt>
      <trkpt lat="46.06785" lon="6.30681">
        <ele>569.72</ele>
        <time>2020-04-19T08:43:46Z</time>
      </trkpt>
      <trkpt lat="46.06784" lon="6.30665">
        <ele>570.2</ele>
        <time>2020-04-19T08:43:47Z</time>
      </trkpt>
      <trkpt lat="46.06784" lon="6.30651">
        <ele>571.16</ele>
        <time>2020-04-19T08:43:48Z</time>
      </trkpt>
      <trkpt lat="46.06783" lon="6.30632">
        <ele>571.64</ele>
        <time>2020-04-19T08:43:49Z</time>
      </trkpt>
      <trkpt lat="46.06783" lon="6.30629">
        <ele>572.12</ele>
        <time>2020-04-19T08:43:50Z</time>
      </trkpt>
      <trkpt lat="46.06778" lon="6.30629">
        <ele>572.6</ele>
        <time>2020-04-19T08:43:51Z</time>
      </trkpt>
      <trkpt lat="46.06778" lon="6.30629">
        <ele>573.08</ele>
        <time>2020-04-19T08:43:52Z</time>
      </trkpt>
      <trkpt lat="46.06775" lon="6.30635">
        <ele>574.04</ele>
        <time>2020-04-19T08:43:53Z</time>
      </trkpt>
      <trkpt lat="46.06771" lon="6.30645">
        <ele>574.53</ele>
        <time>2020-04-19T08:43:54Z</time>
      </trkpt>
      <trkpt lat="46.06765" lon="6.30658">
        <ele>574.53</ele>
        <time>2020-04-19T08:43:55Z</time>
      </trkpt>
      <trkpt lat="46.06736" lon="6.30721">
        <ele>575.01</ele>
        <time>2020-04-19T08:43:59Z</time>
      </trkpt>
      <trkpt lat="46.06719" lon="6.30752">
        <ele>574.53</ele>
        <time>2020-04-19T08:44:00Z</time>
      </trkpt>
      <trkpt lat="46.06711" lon="6.30768">
        <ele>574.53</ele>
        <time>2020-04-19T08:44:01Z</time>
      </trkpt>
      <trkpt lat="46.06677" lon="6.3083">
        <ele>573.56</ele>
        <time>2020-04-19T08:44:05Z</time>
      </trkpt>
      <trkpt lat="46.06669" lon="6.30845">
        <ele>573.08</ele>
        <time>2020-04-19T08:44:06Z</time>
      </trkpt>
      <trkpt lat="46.06661" lon="6.30859">
        <ele>573.08</ele>
        <time>2020-04-19T08:44:07Z</time>
      </trkpt>
      <trkpt lat="46.06654" lon="6.30871">
        <ele>573.08</ele>
        <time>2020-04-19T08:44:08Z</time>
      </trkpt>
      <trkpt lat="46.06649" lon="6.30882">
        <ele>572.6</ele>
        <time>2020-04-19T08:44:09Z</time>
      </trkpt>
      <trkpt lat="46.06649" lon="6.30882">
        <ele>572.6</ele>
        <time>2020-04-19T08:44:10Z</time>
      </trkpt>
      <trkpt lat="46.06644" lon="6.3089">
        <ele>572.12</ele>
        <time>2020-04-19T08:44:11Z</time>
      </trkpt>
      <trkpt lat="46.06641" lon="6.30896">
        <ele>572.12</ele>
        <time>2020-04-19T08:44:12Z</time>
      </trkpt>
      <trkpt lat="46.06639" lon="6.30906">
        <ele>572.12</ele>
        <time>2020-04-19T08:44:13Z</time>
      </trkpt>
      <trkpt lat="46.06643" lon="6.30908">
        <ele>572.12</ele>
        <time>2020-04-19T08:44:14Z</time>
      </trkpt>
      <trkpt lat="46.06648" lon="6.30911">
        <ele>572.12</ele>
        <time>2020-04-19T08:44:15Z</time>
      </trkpt>
      <trkpt lat="46.06656" lon="6.3091">
        <ele>572.12</ele>
        <time>2020-04-19T08:44:16Z</time>
      </trkpt>
      <trkpt lat="46.06682" lon="6.30903">
        <ele>573.08</ele>
        <time>2020-04-19T08:44:19Z</time>
      </trkpt>
      <trkpt lat="46.0669" lon="6.30901">
        <ele>573.08</ele>
        <time>2020-04-19T08:44:20Z</time>
      </trkpt>
      <trkpt lat="46.06696" lon="6.30894">
        <ele>573.56</ele>
        <time>2020-04-19T08:44:21Z</time>
      </trkpt>
      <trkpt lat="46.06746" lon="6.30817">
        <ele>574.04</ele>
        <time>2020-04-19T08:44:27Z</time>
      </trkpt>
      <trkpt lat="46.06746" lon="6.30817">
        <ele>574.04</ele>
        <time>2020-04-19T08:44:28Z</time>
      </trkpt>
      <trkpt lat="46.06749" lon="6.30813">
        <ele>573.56</ele>
        <time>2020-04-19T08:44:29Z</time>
      </trkpt>
      <trkpt lat="46.06749" lon="6.30813">
        <ele>573.56</ele>
        <time>2020-04-19T08:44:38Z</time>
      </trkpt>
      <trkpt lat="46.06742" lon="6.30798">
        <ele>571.16</ele>
        <time>2020-04-19T08:45:06Z</time>
      </trkpt>
    </trkseg>
  </trk>
  <trk>
    <name><![CDATA[Journal actif: 2020-04-23 16:15]]></name>
    <trkseg>
      <trkpt lat="46.06719" lon="6.3126">
        <ele>564.43</ele>
        <time>2020-04-23T14:15:33Z</time>
      </trkpt>
      <trkpt lat="46.0672" lon="6.31268">
        <ele>563.95</ele>
        <time>2020-04-23T14:15:34Z</time>
      </trkpt>
      <trkpt lat="46.06725" lon="6.31269">
        <ele>563.95</ele>
        <time>2020-04-23T14:15:35Z</time>
      </trkpt>
      <trkpt lat="46.06728" lon="6.3127">
        <ele>563.95</ele>
        <time>2020-04-23T14:15:36Z</time>
      </trkpt>
      <trkpt lat="46.06728" lon="6.3127">
        <ele>563.95</ele>
        <time>2020-04-23T14:15:37Z</time>
      </trkpt>
      <trkpt lat="46.06735" lon="6.31287">
        <ele>563.95</ele>
        <time>2020-04-23T14:15:38Z</time>
      </trkpt>
      <trkpt lat="46.06741" lon="6.31304">
        <ele>564.43</ele>
        <time>2020-04-23T14:15:39Z</time>
      </trkpt>
      <trkpt lat="46.06742" lon="6.31305">
        <ele>564.43</ele>
        <time>2020-04-23T14:15:40Z</time>
      </trkpt>
      <trkpt lat="46.06752" lon="6.3138">
        <ele>564.43</ele>
        <time>2020-04-23T14:15:45Z</time>
      </trkpt>
      <trkpt lat="46.06758" lon="6.31397">
        <ele>564.43</ele>
        <time>2020-04-23T14:15:46Z</time>
      </trkpt>
      <trkpt lat="46.06763" lon="6.31407">
        <ele>564.43</ele>
        <time>2020-04-23T14:15:47Z</time>
      </trkpt>
      <trkpt lat="46.0677" lon="6.3142">
        <ele>564.43</ele>
        <time>2020-04-23T14:15:48Z</time>
      </trkpt>
      <trkpt lat="46.06777" lon="6.31436">
        <ele>564.43</ele>
        <time>2020-04-23T14:15:49Z</time>
      </trkpt>
      <trkpt lat="46.06784" lon="6.31454">
        <ele>564.91</ele>
        <time>2020-04-23T14:15:50Z</time>
      </trkpt>
      <trkpt lat="46.0679" lon="6.31471">
        <ele>564.91</ele>
        <time>2020-04-23T14:15:51Z</time>
      </trkpt>
      <trkpt lat="46.06799" lon="6.315">
        <ele>564.91</ele>
        <time>2020-04-23T14:15:53Z</time>
      </trkpt>
      <trkpt lat="46.06831" lon="6.316">
        <ele>564.43</ele>
        <time>2020-04-23T14:16:00Z</time>
      </trkpt>
      <trkpt lat="46.06894" lon="6.31802">
        <ele>559.14</ele>
        <time>2020-04-23T14:16:13Z</time>
      </trkpt>
      <trkpt lat="46.06901" lon="6.31825">
        <ele>559.14</ele>
        <time>2020-04-23T14:16:14Z</time>
      </trkpt>
      <trkpt lat="46.06909" lon="6.31849">
        <ele>559.62</ele>
        <time>2020-04-23T14:16:15Z</time>
      </trkpt>
      <trkpt lat="46.06944" lon="6.3196">
        <ele>555.3</ele>
        <time>2020-04-23T14:16:23Z</time>
      </trkpt>
      <trkpt lat="46.06982" lon="6.32087">
        <ele>548.09</ele>
        <time>2020-04-23T14:16:32Z</time>
      </trkpt>
      <trkpt lat="46.06988" lon="6.32097">
        <ele>546.65</ele>
        <time>2020-04-23T14:16:33Z</time>
      </trkpt>
      <trkpt lat="46.06992" lon="6.32104">
        <ele>546.17</ele>
        <time>2020-04-23T14:16:34Z</time>
      </trkpt>
      <trkpt lat="46.07" lon="6.32108">
        <ele>545.2</ele>
        <time>2020-04-23T14:16:35Z</time>
      </trkpt>
      <trkpt lat="46.07008" lon="6.32111">
        <ele>544.24</ele>
        <time>2020-04-23T14:16:36Z</time>
      </trkpt>
      <trkpt lat="46.07014" lon="6.32114">
        <ele>543.28</ele>
        <time>2020-04-23T14:16:37Z</time>
      </trkpt>
      <trkpt lat="46.07017" lon="6.32115">
        <ele>533.67</ele>
        <time>2020-04-23T14:16:38Z</time>
      </trkpt>
      <trkpt lat="46.07026" lon="6.32127">
        <ele>525.98</ele>
        <time>2020-04-23T14:16:41Z</time>
      </trkpt>
      <trkpt lat="46.07026" lon="6.3213">
        <ele>524.06</ele>
        <time>2020-04-23T14:16:42Z</time>
      </trkpt>
      <trkpt lat="46.07026" lon="6.32137">
        <ele>520.69</ele>
        <time>2020-04-23T14:16:43Z</time>
      </trkpt>
      <trkpt lat="46.07029" lon="6.32217">
        <ele>515.4</ele>
        <time>2020-04-23T14:16:47Z</time>
      </trkpt>
      <trkpt lat="46.07034" lon="6.32244">
        <ele>514.92</ele>
        <time>2020-04-23T14:16:48Z</time>
      </trkpt>
      <trkpt lat="46.07039" lon="6.32272">
        <ele>513.96</ele>
        <time>2020-04-23T14:16:49Z</time>
      </trkpt>
      <trkpt lat="46.07096" lon="6.32534">
        <ele>501.95</ele>
        <time>2020-04-23T14:16:59Z</time>
      </trkpt>
      <trkpt lat="46.07112" lon="6.32705">
        <ele>493.77</ele>
        <time>2020-04-23T14:17:07Z</time>
      </trkpt>
      <trkpt lat="46.07114" lon="6.32732">
        <ele>491.85</ele>
        <time>2020-04-23T14:17:09Z</time>
      </trkpt>
      <trkpt lat="46.07108" lon="6.3275">
        <ele>490.89</ele>
        <time>2020-04-23T14:17:10Z</time>
      </trkpt>
      <trkpt lat="46.07108" lon="6.32757">
        <ele>489.93</ele>
        <time>2020-04-23T14:17:11Z</time>
      </trkpt>
      <trkpt lat="46.07109" lon="6.32767">
        <ele>488.97</ele>
        <time>2020-04-23T14:17:12Z</time>
      </trkpt>
      <trkpt lat="46.07112" lon="6.32775">
        <ele>488.01</ele>
        <time>2020-04-23T14:17:13Z</time>
      </trkpt>
      <trkpt lat="46.07118" lon="6.32781">
        <ele>487.05</ele>
        <time>2020-04-23T14:17:14Z</time>
      </trkpt>
      <trkpt lat="46.07125" lon="6.32781">
        <ele>486.56</ele>
        <time>2020-04-23T14:17:15Z</time>
      </trkpt>
      <trkpt lat="46.07131" lon="6.32778">
        <ele>485.6</ele>
        <time>2020-04-23T14:17:16Z</time>
      </trkpt>
      <trkpt lat="46.07136" lon="6.32776">
        <ele>485.12</ele>
        <time>2020-04-23T14:17:17Z</time>
      </trkpt>
      <trkpt lat="46.07143" lon="6.32758">
        <ele>484.64</ele>
        <time>2020-04-23T14:17:18Z</time>
      </trkpt>
      <trkpt lat="46.0715" lon="6.32754">
        <ele>484.64</ele>
        <time>2020-04-23T14:17:19Z</time>
      </trkpt>
      <trkpt lat="46.07158" lon="6.32747">
        <ele>484.16</ele>
        <time>2020-04-23T14:17:20Z</time>
      </trkpt>
      <trkpt lat="46.07168" lon="6.32737">
        <ele>483.68</ele>
        <time>2020-04-23T14:17:21Z</time>
      </trkpt>
      <trkpt lat="46.07174" lon="6.32729">
        <ele>483.2</ele>
        <time>2020-04-23T14:17:22Z</time>
      </trkpt>
      <trkpt lat="46.07213" lon="6.32668">
        <ele>480.32</ele>
        <time>2020-04-23T14:17:28Z</time>
      </trkpt>
      <trkpt lat="46.07218" lon="6.32661">
        <ele>480.32</ele>
        <time>2020-04-23T14:17:29Z</time>
      </trkpt>
      <trkpt lat="46.07223" lon="6.32655">
        <ele>479.84</ele>
        <time>2020-04-23T14:17:30Z</time>
      </trkpt>
      <trkpt lat="46.07226" lon="6.32649">
        <ele>479.84</ele>
        <time>2020-04-23T14:17:31Z</time>
      </trkpt>
      <trkpt lat="46.07235" lon="6.32644">
        <ele>479.35</ele>
        <time>2020-04-23T14:17:32Z</time>
      </trkpt>
      <trkpt lat="46.07233" lon="6.32636">
        <ele>479.35</ele>
        <time>2020-04-23T14:17:33Z</time>
      </trkpt>
      <trkpt lat="46.07224" lon="6.32634">
        <ele>479.35</ele>
        <time>2020-04-23T14:17:34Z</time>
      </trkpt>
      <trkpt lat="46.07219" lon="6.32626">
        <ele>478.87</ele>
        <time>2020-04-23T14:17:35Z</time>
      </trkpt>
      <trkpt lat="46.07213" lon="6.32616">
        <ele>478.87</ele>
        <time>2020-04-23T14:17:36Z</time>
      </trkpt>
      <trkpt lat="46.07206" lon="6.32605">
        <ele>479.84</ele>
        <time>2020-04-23T14:17:37Z</time>
      </trkpt>
      <trkpt lat="46.072" lon="6.32591">
        <ele>479.84</ele>
        <time>2020-04-23T14:17:38Z</time>
      </trkpt>
      <trkpt lat="46.07196" lon="6.32578">
        <ele>480.32</ele>
        <time>2020-04-23T14:17:39Z</time>
      </trkpt>
      <trkpt lat="46.07192" lon="6.32547">
        <ele>481.28</ele>
        <time>2020-04-23T14:17:41Z</time>
      </trkpt>
      <trkpt lat="46.07187" lon="6.32516">
        <ele>482.72</ele>
        <time>2020-04-23T14:17:44Z</time>
      </trkpt>
      <trkpt lat="46.07186" lon="6.32509">
        <ele>483.2</ele>
        <time>2020-04-23T14:17:45Z</time>
      </trkpt>
      <trkpt lat="46.07185" lon="6.32505">
        <ele>483.2</ele>
        <time>2020-04-23T14:17:46Z</time>
      </trkpt>
      <trkpt lat="46.07177" lon="6.32503">
        <ele>483.68</ele>
        <time>2020-04-23T14:17:47Z</time>
      </trkpt>
      <trkpt lat="46.07175" lon="6.32507">
        <ele>484.16</ele>
        <time>2020-04-23T14:17:48Z</time>
      </trkpt>
      <trkpt lat="46.07172" lon="6.32515">
        <ele>484.64</ele>
        <time>2020-04-23T14:17:49Z</time>
      </trkpt>
      <trkpt lat="46.07168" lon="6.32525">
        <ele>485.12</ele>
        <time>2020-04-23T14:17:50Z</time>
      </trkpt>
      <trkpt lat="46.07164" lon="6.32534">
        <ele>485.6</ele>
        <time>2020-04-23T14:17:51Z</time>
      </trkpt>
      <trkpt lat="46.07161" lon="6.32542">
        <ele>486.08</ele>
        <time>2020-04-23T14:17:52Z</time>
      </trkpt>
      <trkpt lat="46.07159" lon="6.32547">
        <ele>486.56</ele>
        <time>2020-04-23T14:17:53Z</time>
      </trkpt>
      <trkpt lat="46.07157" lon="6.32551">
        <ele>486.56</ele>
        <time>2020-04-23T14:17:54Z</time>
      </trkpt>
      <trkpt lat="46.07148" lon="6.32557">
        <ele>487.53</ele>
        <time>2020-04-23T14:17:55Z</time>
      </trkpt>
      <trkpt lat="46.07146" lon="6.32555">
        <ele>487.53</ele>
        <time>2020-04-23T14:17:56Z</time>
      </trkpt>
      <trkpt lat="46.07146" lon="6.32555">
        <ele>489.45</ele>
        <time>2020-04-23T14:18:07Z</time>
      </trkpt>
      <trkpt lat="46.07148" lon="6.32549">
        <ele>496.66</ele>
        <time>2020-04-23T14:33:47Z</time>
      </trkpt>
      <trkpt lat="46.07153" lon="6.32562">
        <ele>503.87</ele>
        <time>2020-04-23T14:33:54Z</time>
      </trkpt>
      <trkpt lat="46.07161" lon="6.32541">
        <ele>504.83</ele>
        <time>2020-04-23T14:33:55Z</time>
      </trkpt>
      <trkpt lat="46.07165" lon="6.32533">
        <ele>505.31</ele>
        <time>2020-04-23T14:33:56Z</time>
      </trkpt>
      <trkpt lat="46.07168" lon="6.32523">
        <ele>504.35</ele>
        <time>2020-04-23T14:33:57Z</time>
      </trkpt>
      <trkpt lat="46.07172" lon="6.32515">
        <ele>503.87</ele>
        <time>2020-04-23T14:33:58Z</time>
      </trkpt>
      <trkpt lat="46.0719" lon="6.32527">
        <ele>503.87</ele>
        <time>2020-04-23T14:33:59Z</time>
      </trkpt>
      <trkpt lat="46.07198" lon="6.32523">
        <ele>503.87</ele>
        <time>2020-04-23T14:34:00Z</time>
      </trkpt>
      <trkpt lat="46.07187" lon="6.32517">
        <ele>502.43</ele>
        <time>2020-04-23T14:34:01Z</time>
      </trkpt>
      <trkpt lat="46.07188" lon="6.32522">
        <ele>500.02</ele>
        <time>2020-04-23T14:34:02Z</time>
      </trkpt>
      <trkpt lat="46.0719" lon="6.32531">
        <ele>499.54</ele>
        <time>2020-04-23T14:34:03Z</time>
      </trkpt>
      <trkpt lat="46.07192" lon="6.32543">
        <ele>498.58</ele>
        <time>2020-04-23T14:34:04Z</time>
      </trkpt>
      <trkpt lat="46.07193" lon="6.32557">
        <ele>498.1</ele>
        <time>2020-04-23T14:34:05Z</time>
      </trkpt>
      <trkpt lat="46.07195" lon="6.32572">
        <ele>498.1</ele>
        <time>2020-04-23T14:34:06Z</time>
      </trkpt>
      <trkpt lat="46.07196" lon="6.32583">
        <ele>497.14</ele>
        <time>2020-04-23T14:34:07Z</time>
      </trkpt>
      <trkpt lat="46.07201" lon="6.32593">
        <ele>496.66</ele>
        <time>2020-04-23T14:34:08Z</time>
      </trkpt>
      <trkpt lat="46.07205" lon="6.32603">
        <ele>495.7</ele>
        <time>2020-04-23T14:34:09Z</time>
      </trkpt>
      <trkpt lat="46.0721" lon="6.32612">
        <ele>495.22</ele>
        <time>2020-04-23T14:34:10Z</time>
      </trkpt>
      <trkpt lat="46.07215" lon="6.3262">
        <ele>494.74</ele>
        <time>2020-04-23T14:34:11Z</time>
      </trkpt>
      <trkpt lat="46.07219" lon="6.32627">
        <ele>494.26</ele>
        <time>2020-04-23T14:34:12Z</time>
      </trkpt>
      <trkpt lat="46.07225" lon="6.32638">
        <ele>494.26</ele>
        <time>2020-04-23T14:34:13Z</time>
      </trkpt>
      <trkpt lat="46.07226" lon="6.32648">
        <ele>494.26</ele>
        <time>2020-04-23T14:34:14Z</time>
      </trkpt>
      <trkpt lat="46.0721" lon="6.32673">
        <ele>494.26</ele>
        <time>2020-04-23T14:34:16Z</time>
      </trkpt>
      <trkpt lat="46.07201" lon="6.32686">
        <ele>494.74</ele>
        <time>2020-04-23T14:34:17Z</time>
      </trkpt>
      <trkpt lat="46.07191" lon="6.32701">
        <ele>495.22</ele>
        <time>2020-04-23T14:34:18Z</time>
      </trkpt>
      <trkpt lat="46.07156" lon="6.32748">
        <ele>497.14</ele>
        <time>2020-04-23T14:34:22Z</time>
      </trkpt>
      <trkpt lat="46.07147" lon="6.32757">
        <ele>498.1</ele>
        <time>2020-04-23T14:34:23Z</time>
      </trkpt>
      <trkpt lat="46.07146" lon="6.32757">
        <ele>498.58</ele>
        <time>2020-04-23T14:34:24Z</time>
      </trkpt>
      <trkpt lat="46.07134" lon="6.32748">
        <ele>500.02</ele>
        <time>2020-04-23T14:34:26Z</time>
      </trkpt>
      <trkpt lat="46.07125" lon="6.32739">
        <ele>500.5</ele>
        <time>2020-04-23T14:34:27Z</time>
      </trkpt>
      <trkpt lat="46.07123" lon="6.32726">
        <ele>500.98</ele>
        <time>2020-04-23T14:34:28Z</time>
      </trkpt>
      <trkpt lat="46.07122" lon="6.32712">
        <ele>501.46</ele>
        <time>2020-04-23T14:34:29Z</time>
      </trkpt>
      <trkpt lat="46.0712" lon="6.32697">
        <ele>502.43</ele>
        <time>2020-04-23T14:34:30Z</time>
      </trkpt>
      <trkpt lat="46.07106" lon="6.32553">
        <ele>506.75</ele>
        <time>2020-04-23T14:34:37Z</time>
      </trkpt>
      <trkpt lat="46.0706" lon="6.32354">
        <ele>513.48</ele>
        <time>2020-04-23T14:34:46Z</time>
      </trkpt>
      <trkpt lat="46.07025" lon="6.32186">
        <ele>516.37</ele>
        <time>2020-04-23T14:34:55Z</time>
      </trkpt>
      <trkpt lat="46.07027" lon="6.32102">
        <ele>516.85</ele>
        <time>2020-04-23T14:34:59Z</time>
      </trkpt>
      <trkpt lat="46.07064" lon="6.31961">
        <ele>516.85</ele>
        <time>2020-04-23T14:35:05Z</time>
      </trkpt>
      <trkpt lat="46.0717" lon="6.31742">
        <ele>516.37</ele>
        <time>2020-04-23T14:35:14Z</time>
      </trkpt>
      <trkpt lat="46.07298" lon="6.3155">
        <ele>516.37</ele>
        <time>2020-04-23T14:35:24Z</time>
      </trkpt>
      <trkpt lat="46.07387" lon="6.31448">
        <ele>517.81</ele>
        <time>2020-04-23T14:35:32Z</time>
      </trkpt>
      <trkpt lat="46.07398" lon="6.31432">
        <ele>518.77</ele>
        <time>2020-04-23T14:35:34Z</time>
      </trkpt>
      <trkpt lat="46.07403" lon="6.31423">
        <ele>518.77</ele>
        <time>2020-04-23T14:35:35Z</time>
      </trkpt>
      <trkpt lat="46.0741" lon="6.31413">
        <ele>518.77</ele>
        <time>2020-04-23T14:35:36Z</time>
      </trkpt>
      <trkpt lat="46.07432" lon="6.31401">
        <ele>519.25</ele>
        <time>2020-04-23T14:35:38Z</time>
      </trkpt>
      <trkpt lat="46.07435" lon="6.31394">
        <ele>519.25</ele>
        <time>2020-04-23T14:35:39Z</time>
      </trkpt>
      <trkpt lat="46.07443" lon="6.31379">
        <ele>519.25</ele>
        <time>2020-04-23T14:35:40Z</time>
      </trkpt>
      <trkpt lat="46.07445" lon="6.31369">
        <ele>519.25</ele>
        <time>2020-04-23T14:35:41Z</time>
      </trkpt>
      <trkpt lat="46.0744" lon="6.31351">
        <ele>519.73</ele>
        <time>2020-04-23T14:35:42Z</time>
      </trkpt>
      <trkpt lat="46.07436" lon="6.31338">
        <ele>520.21</ele>
        <time>2020-04-23T14:35:43Z</time>
      </trkpt>
      <trkpt lat="46.07435" lon="6.31323">
        <ele>520.69</ele>
        <time>2020-04-23T14:35:44Z</time>
      </trkpt>
      <trkpt lat="46.07435" lon="6.31308">
        <ele>520.69</ele>
        <time>2020-04-23T14:35:45Z</time>
      </trkpt>
      <trkpt lat="46.07437" lon="6.31291">
        <ele>521.17</ele>
        <time>2020-04-23T14:35:46Z</time>
      </trkpt>
      <trkpt lat="46.07442" lon="6.31274">
        <ele>521.17</ele>
        <time>2020-04-23T14:35:47Z</time>
      </trkpt>
      <trkpt lat="46.07473" lon="6.31087">
        <ele>524.54</ele>
        <time>2020-04-23T14:35:56Z</time>
      </trkpt>
      <trkpt lat="46.07475" lon="6.31064">
        <ele>525.02</ele>
        <time>2020-04-23T14:35:57Z</time>
      </trkpt>
      <trkpt lat="46.07488" lon="6.308">
        <ele>530.3</ele>
        <time>2020-04-23T14:36:07Z</time>
      </trkpt>
      <trkpt lat="46.07529" lon="6.3063">
        <ele>535.59</ele>
        <time>2020-04-23T14:36:14Z</time>
      </trkpt>
      <trkpt lat="46.07585" lon="6.3049">
        <ele>540.4</ele>
        <time>2020-04-23T14:36:22Z</time>
      </trkpt>
      <trkpt lat="46.07596" lon="6.30469">
        <ele>541.84</ele>
        <time>2020-04-23T14:36:24Z</time>
      </trkpt>
      <trkpt lat="46.076" lon="6.30461">
        <ele>542.32</ele>
        <time>2020-04-23T14:36:25Z</time>
      </trkpt>
      <trkpt lat="46.07615" lon="6.30459">
        <ele>543.28</ele>
        <time>2020-04-23T14:36:26Z</time>
      </trkpt>
      <trkpt lat="46.07625" lon="6.30452">
        <ele>544.24</ele>
        <time>2020-04-23T14:36:28Z</time>
      </trkpt>
      <trkpt lat="46.07627" lon="6.30447">
        <ele>544.72</ele>
        <time>2020-04-23T14:36:29Z</time>
      </trkpt>
      <trkpt lat="46.07629" lon="6.30439">
        <ele>545.2</ele>
        <time>2020-04-23T14:36:30Z</time>
      </trkpt>
      <trkpt lat="46.0763" lon="6.30437">
        <ele>545.69</ele>
        <time>2020-04-23T14:36:31Z</time>
      </trkpt>
      <trkpt lat="46.07628" lon="6.30416">
        <ele>546.17</ele>
        <time>2020-04-23T14:36:32Z</time>
      </trkpt>
      <trkpt lat="46.07632" lon="6.30408">
        <ele>546.65</ele>
        <time>2020-04-23T14:36:33Z</time>
      </trkpt>
      <trkpt lat="46.07638" lon="6.30397">
        <ele>547.13</ele>
        <time>2020-04-23T14:36:34Z</time>
      </trkpt>
      <trkpt lat="46.07645" lon="6.30385">
        <ele>547.61</ele>
        <time>2020-04-23T14:36:35Z</time>
      </trkpt>
      <trkpt lat="46.07654" lon="6.3037">
        <ele>548.57</ele>
        <time>2020-04-23T14:36:36Z</time>
      </trkpt>
      <trkpt lat="46.07697" lon="6.30296">
        <ele>550.01</ele>
        <time>2020-04-23T14:36:39Z</time>
      </trkpt>
      <trkpt lat="46.07757" lon="6.30187">
        <ele>555.3</ele>
        <time>2020-04-23T14:36:42Z</time>
      </trkpt>
      <trkpt lat="46.07772" lon="6.30147">
        <ele>557.22</ele>
        <time>2020-04-23T14:36:43Z</time>
      </trkpt>
      <trkpt lat="46.07784" lon="6.30106">
        <ele>559.62</ele>
        <time>2020-04-23T14:36:44Z</time>
      </trkpt>
      <trkpt lat="46.07793" lon="6.30064">
        <ele>561.55</ele>
        <time>2020-04-23T14:36:45Z</time>
      </trkpt>
      <trkpt lat="46.07797" lon="6.3002">
        <ele>563.95</ele>
        <time>2020-04-23T14:36:46Z</time>
      </trkpt>
      <trkpt lat="46.07798" lon="6.29975">
        <ele>566.35</ele>
        <time>2020-04-23T14:36:47Z</time>
      </trkpt>
      <trkpt lat="46.07795" lon="6.29932">
        <ele>568.28</ele>
        <time>2020-04-23T14:36:48Z</time>
      </trkpt>
      <trkpt lat="46.07791" lon="6.2989">
        <ele>571.16</ele>
        <time>2020-04-23T14:36:49Z</time>
      </trkpt>
      <trkpt lat="46.07783" lon="6.29851">
        <ele>573.56</ele>
        <time>2020-04-23T14:36:50Z</time>
      </trkpt>
      <trkpt lat="46.07774" lon="6.29815">
        <ele>575.97</ele>
        <time>2020-04-23T14:36:51Z</time>
      </trkpt>
      <trkpt lat="46.07764" lon="6.2978">
        <ele>577.89</ele>
        <time>2020-04-23T14:36:52Z</time>
      </trkpt>
      <trkpt lat="46.077" lon="6.29568">
        <ele>588.46</ele>
        <time>2020-04-23T14:36:57Z</time>
      </trkpt>
      <trkpt lat="46.07619" lon="6.29346">
        <ele>600</ele>
        <time>2020-04-23T14:37:02Z</time>
      </trkpt>
      <trkpt lat="46.07597" lon="6.29311">
        <ele>602.4</ele>
        <time>2020-04-23T14:37:03Z</time>
      </trkpt>
      <trkpt lat="46.07574" lon="6.29275">
        <ele>604.81</ele>
        <time>2020-04-23T14:37:04Z</time>
      </trkpt>
      <trkpt lat="46.07505" lon="6.29141">
        <ele>613.94</ele>
        <time>2020-04-23T14:37:08Z</time>
      </trkpt>
      <trkpt lat="46.07492" lon="6.29109">
        <ele>615.86</ele>
        <time>2020-04-23T14:37:09Z</time>
      </trkpt>
      <trkpt lat="46.07467" lon="6.29008">
        <ele>620.67</ele>
        <time>2020-04-23T14:37:12Z</time>
      </trkpt>
      <trkpt lat="46.07455" lon="6.28979">
        <ele>622.11</ele>
        <time>2020-04-23T14:37:13Z</time>
      </trkpt>
      <trkpt lat="46.07441" lon="6.28953">
        <ele>623.07</ele>
        <time>2020-04-23T14:37:14Z</time>
      </trkpt>
      <trkpt lat="46.07425" lon="6.28927">
        <ele>624.51</ele>
        <time>2020-04-23T14:37:15Z</time>
      </trkpt>
      <trkpt lat="46.07407" lon="6.28901">
        <ele>625.47</ele>
        <time>2020-04-23T14:37:16Z</time>
      </trkpt>
      <trkpt lat="46.07385" lon="6.28879">
        <ele>626.44</ele>
        <time>2020-04-23T14:37:17Z</time>
      </trkpt>
      <trkpt lat="46.0736" lon="6.28863">
        <ele>627.88</ele>
        <time>2020-04-23T14:37:18Z</time>
      </trkpt>
      <trkpt lat="46.07334" lon="6.28849">
        <ele>629.32</ele>
        <time>2020-04-23T14:37:19Z</time>
      </trkpt>
      <trkpt lat="46.07305" lon="6.28838">
        <ele>630.76</ele>
        <time>2020-04-23T14:37:20Z</time>
      </trkpt>
      <trkpt lat="46.07275" lon="6.28833">
        <ele>632.68</ele>
        <time>2020-04-23T14:37:21Z</time>
      </trkpt>
      <trkpt lat="46.07244" lon="6.28829">
        <ele>634.13</ele>
        <time>2020-04-23T14:37:22Z</time>
      </trkpt>
      <trkpt lat="46.07215" lon="6.28826">
        <ele>636.05</ele>
        <time>2020-04-23T14:37:23Z</time>
      </trkpt>
      <trkpt lat="46.07039" lon="6.28802">
        <ele>646.62</ele>
        <time>2020-04-23T14:37:30Z</time>
      </trkpt>
      <trkpt lat="46.07003" lon="6.28784">
        <ele>649.51</ele>
        <time>2020-04-23T14:37:32Z</time>
      </trkpt>
      <trkpt lat="46.06985" lon="6.28772">
        <ele>650.47</ele>
        <time>2020-04-23T14:37:33Z</time>
      </trkpt>
      <trkpt lat="46.06828" lon="6.28679">
        <ele>660.08</ele>
        <time>2020-04-23T14:37:42Z</time>
      </trkpt>
      <trkpt lat="46.06751" lon="6.2868">
        <ele>662.97</ele>
        <time>2020-04-23T14:37:46Z</time>
      </trkpt>
      <trkpt lat="46.06732" lon="6.28683">
        <ele>663.93</ele>
        <time>2020-04-23T14:37:47Z</time>
      </trkpt>
      <trkpt lat="46.06601" lon="6.28761">
        <ele>670.66</ele>
        <time>2020-04-23T14:37:55Z</time>
      </trkpt>
      <trkpt lat="46.06484" lon="6.28825">
        <ele>676.91</ele>
        <time>2020-04-23T14:38:03Z</time>
      </trkpt>
      <trkpt lat="46.06475" lon="6.28827">
        <ele>678.35</ele>
        <time>2020-04-23T14:38:05Z</time>
      </trkpt>
      <trkpt lat="46.06452" lon="6.28819">
        <ele>678.83</ele>
        <time>2020-04-23T14:38:06Z</time>
      </trkpt>
      <trkpt lat="46.06447" lon="6.28818">
        <ele>679.31</ele>
        <time>2020-04-23T14:38:07Z</time>
      </trkpt>
      <trkpt lat="46.06438" lon="6.28818">
        <ele>679.79</ele>
        <time>2020-04-23T14:38:08Z</time>
      </trkpt>
      <trkpt lat="46.06431" lon="6.28823">
        <ele>679.79</ele>
        <time>2020-04-23T14:38:09Z</time>
      </trkpt>
      <trkpt lat="46.06427" lon="6.28832">
        <ele>680.27</ele>
        <time>2020-04-23T14:38:10Z</time>
      </trkpt>
      <trkpt lat="46.06429" lon="6.28844">
        <ele>680.27</ele>
        <time>2020-04-23T14:38:11Z</time>
      </trkpt>
      <trkpt lat="46.06434" lon="6.28857">
        <ele>680.27</ele>
        <time>2020-04-23T14:38:12Z</time>
      </trkpt>
      <trkpt lat="46.06446" lon="6.28872">
        <ele>680.27</ele>
        <time>2020-04-23T14:38:13Z</time>
      </trkpt>
      <trkpt lat="46.06457" lon="6.28921">
        <ele>679.79</ele>
        <time>2020-04-23T14:38:15Z</time>
      </trkpt>
      <trkpt lat="46.06498" lon="6.29081">
        <ele>674.98</ele>
        <time>2020-04-23T14:38:22Z</time>
      </trkpt>
      <trkpt lat="46.06506" lon="6.29097">
        <ele>673.54</ele>
        <time>2020-04-23T14:38:23Z</time>
      </trkpt>
      <trkpt lat="46.06516" lon="6.29108">
        <ele>672.1</ele>
        <time>2020-04-23T14:38:24Z</time>
      </trkpt>
      <trkpt lat="46.06529" lon="6.29118">
        <ele>670.66</ele>
        <time>2020-04-23T14:38:25Z</time>
      </trkpt>
      <trkpt lat="46.06541" lon="6.29123">
        <ele>669.22</ele>
        <time>2020-04-23T14:38:26Z</time>
      </trkpt>
      <trkpt lat="46.06555" lon="6.29126">
        <ele>667.29</ele>
        <time>2020-04-23T14:38:27Z</time>
      </trkpt>
      <trkpt lat="46.06569" lon="6.29124">
        <ele>665.85</ele>
        <time>2020-04-23T14:38:28Z</time>
      </trkpt>
      <trkpt lat="46.06587" lon="6.2912">
        <ele>663.93</ele>
        <time>2020-04-23T14:38:29Z</time>
      </trkpt>
      <trkpt lat="46.06687" lon="6.29097">
        <ele>653.83</ele>
        <time>2020-04-23T14:38:35Z</time>
      </trkpt>
      <trkpt lat="46.067" lon="6.29099">
        <ele>652.39</ele>
        <time>2020-04-23T14:38:36Z</time>
      </trkpt>
      <trkpt lat="46.06708" lon="6.29106">
        <ele>650.95</ele>
        <time>2020-04-23T14:38:37Z</time>
      </trkpt>
      <trkpt lat="46.06715" lon="6.29115">
        <ele>649.99</ele>
        <time>2020-04-23T14:38:38Z</time>
      </trkpt>
      <trkpt lat="46.06718" lon="6.29128">
        <ele>648.55</ele>
        <time>2020-04-23T14:38:39Z</time>
      </trkpt>
      <trkpt lat="46.06718" lon="6.29145">
        <ele>647.59</ele>
        <time>2020-04-23T14:38:40Z</time>
      </trkpt>
      <trkpt lat="46.06711" lon="6.29159">
        <ele>646.62</ele>
        <time>2020-04-23T14:38:41Z</time>
      </trkpt>
      <trkpt lat="46.06703" lon="6.29176">
        <ele>645.18</ele>
        <time>2020-04-23T14:38:42Z</time>
      </trkpt>
      <trkpt lat="46.06693" lon="6.29191">
        <ele>644.22</ele>
        <time>2020-04-23T14:38:43Z</time>
      </trkpt>
      <trkpt lat="46.06628" lon="6.29292">
        <ele>637.49</ele>
        <time>2020-04-23T14:38:49Z</time>
      </trkpt>
      <trkpt lat="46.06619" lon="6.29307">
        <ele>636.53</ele>
        <time>2020-04-23T14:38:50Z</time>
      </trkpt>
      <trkpt lat="46.0659" lon="6.29355">
        <ele>632.68</ele>
        <time>2020-04-23T14:38:54Z</time>
      </trkpt>
      <trkpt lat="46.06582" lon="6.29368">
        <ele>632.2</ele>
        <time>2020-04-23T14:38:56Z</time>
      </trkpt>
      <trkpt lat="46.06581" lon="6.29372">
        <ele>632.2</ele>
        <time>2020-04-23T14:38:57Z</time>
      </trkpt>
      <trkpt lat="46.06585" lon="6.2938">
        <ele>631.72</ele>
        <time>2020-04-23T14:38:58Z</time>
      </trkpt>
      <trkpt lat="46.06597" lon="6.294">
        <ele>631.24</ele>
        <time>2020-04-23T14:39:00Z</time>
      </trkpt>
      <trkpt lat="46.06612" lon="6.29422">
        <ele>630.28</ele>
        <time>2020-04-23T14:39:02Z</time>
      </trkpt>
      <trkpt lat="46.06628" lon="6.29442">
        <ele>628.84</ele>
        <time>2020-04-23T14:39:04Z</time>
      </trkpt>
      <trkpt lat="46.06634" lon="6.2945">
        <ele>628.36</ele>
        <time>2020-04-23T14:39:05Z</time>
      </trkpt>
      <trkpt lat="46.06641" lon="6.29455">
        <ele>627.88</ele>
        <time>2020-04-23T14:39:06Z</time>
      </trkpt>
      <trkpt lat="46.06649" lon="6.29459">
        <ele>626.92</ele>
        <time>2020-04-23T14:39:07Z</time>
      </trkpt>
      <trkpt lat="46.06657" lon="6.29462">
        <ele>626.44</ele>
        <time>2020-04-23T14:39:08Z</time>
      </trkpt>
      <trkpt lat="46.06666" lon="6.29465">
        <ele>625.47</ele>
        <time>2020-04-23T14:39:09Z</time>
      </trkpt>
      <trkpt lat="46.06671" lon="6.29464">
        <ele>624.99</ele>
        <time>2020-04-23T14:39:10Z</time>
      </trkpt>
      <trkpt lat="46.06678" lon="6.29462">
        <ele>624.51</ele>
        <time>2020-04-23T14:39:11Z</time>
      </trkpt>
      <trkpt lat="46.06688" lon="6.29459">
        <ele>624.03</ele>
        <time>2020-04-23T14:39:12Z</time>
      </trkpt>
      <trkpt lat="46.06699" lon="6.29456">
        <ele>623.07</ele>
        <time>2020-04-23T14:39:13Z</time>
      </trkpt>
      <trkpt lat="46.06761" lon="6.29442">
        <ele>622.11</ele>
        <time>2020-04-23T14:39:19Z</time>
      </trkpt>
      <trkpt lat="46.06769" lon="6.29441">
        <ele>622.11</ele>
        <time>2020-04-23T14:39:20Z</time>
      </trkpt>
      <trkpt lat="46.06782" lon="6.29446">
        <ele>622.11</ele>
        <time>2020-04-23T14:39:21Z</time>
      </trkpt>
      <trkpt lat="46.06782" lon="6.29446">
        <ele>621.63</ele>
        <time>2020-04-23T14:39:22Z</time>
      </trkpt>
      <trkpt lat="46.06787" lon="6.2946">
        <ele>621.15</ele>
        <time>2020-04-23T14:39:23Z</time>
      </trkpt>
      <trkpt lat="46.06789" lon="6.29472">
        <ele>620.67</ele>
        <time>2020-04-23T14:39:24Z</time>
      </trkpt>
      <trkpt lat="46.06791" lon="6.29486">
        <ele>620.19</ele>
        <time>2020-04-23T14:39:25Z</time>
      </trkpt>
      <trkpt lat="46.06789" lon="6.29504">
        <ele>619.71</ele>
        <time>2020-04-23T14:39:26Z</time>
      </trkpt>
      <trkpt lat="46.06783" lon="6.29521">
        <ele>619.23</ele>
        <time>2020-04-23T14:39:27Z</time>
      </trkpt>
      <trkpt lat="46.06776" lon="6.29539">
        <ele>618.75</ele>
        <time>2020-04-23T14:39:28Z</time>
      </trkpt>
      <trkpt lat="46.06751" lon="6.296">
        <ele>616.34</ele>
        <time>2020-04-23T14:39:32Z</time>
      </trkpt>
      <trkpt lat="46.06749" lon="6.29615">
        <ele>615.38</ele>
        <time>2020-04-23T14:39:33Z</time>
      </trkpt>
      <trkpt lat="46.0675" lon="6.29628">
        <ele>614.9</ele>
        <time>2020-04-23T14:39:34Z</time>
      </trkpt>
      <trkpt lat="46.06755" lon="6.29642">
        <ele>613.94</ele>
        <time>2020-04-23T14:39:35Z</time>
      </trkpt>
      <trkpt lat="46.06762" lon="6.29658">
        <ele>613.46</ele>
        <time>2020-04-23T14:39:36Z</time>
      </trkpt>
      <trkpt lat="46.06809" lon="6.29775">
        <ele>607.21</ele>
        <time>2020-04-23T14:39:43Z</time>
      </trkpt>
      <trkpt lat="46.06815" lon="6.2979">
        <ele>606.25</ele>
        <time>2020-04-23T14:39:44Z</time>
      </trkpt>
      <trkpt lat="46.06824" lon="6.29799">
        <ele>605.29</ele>
        <time>2020-04-23T14:39:45Z</time>
      </trkpt>
      <trkpt lat="46.06835" lon="6.29805">
        <ele>604.33</ele>
        <time>2020-04-23T14:39:46Z</time>
      </trkpt>
      <trkpt lat="46.06847" lon="6.2981">
        <ele>603.36</ele>
        <time>2020-04-23T14:39:47Z</time>
      </trkpt>
      <trkpt lat="46.06859" lon="6.29816">
        <ele>602.4</ele>
        <time>2020-04-23T14:39:48Z</time>
      </trkpt>
      <trkpt lat="46.06896" lon="6.29832">
        <ele>600</ele>
        <time>2020-04-23T14:39:51Z</time>
      </trkpt>
      <trkpt lat="46.06908" lon="6.29844">
        <ele>599.04</ele>
        <time>2020-04-23T14:39:52Z</time>
      </trkpt>
      <trkpt lat="46.06919" lon="6.29855">
        <ele>598.56</ele>
        <time>2020-04-23T14:39:53Z</time>
      </trkpt>
      <trkpt lat="46.07003" lon="6.29943">
        <ele>590.39</ele>
        <time>2020-04-23T14:40:02Z</time>
      </trkpt>
      <trkpt lat="46.07005" lon="6.2995">
        <ele>589.91</ele>
        <time>2020-04-23T14:40:03Z</time>
      </trkpt>
      <trkpt lat="46.07004" lon="6.29957">
        <ele>588.95</ele>
        <time>2020-04-23T14:40:04Z</time>
      </trkpt>
      <trkpt lat="46.07003" lon="6.29965">
        <ele>587.98</ele>
        <time>2020-04-23T14:40:05Z</time>
      </trkpt>
      <trkpt lat="46.06997" lon="6.29978">
        <ele>587.02</ele>
        <time>2020-04-23T14:40:06Z</time>
      </trkpt>
      <trkpt lat="46.06988" lon="6.29995">
        <ele>586.06</ele>
        <time>2020-04-23T14:40:07Z</time>
      </trkpt>
      <trkpt lat="46.06941" lon="6.30083">
        <ele>582.22</ele>
        <time>2020-04-23T14:40:14Z</time>
      </trkpt>
      <trkpt lat="46.06936" lon="6.30093">
        <ele>581.73</ele>
        <time>2020-04-23T14:40:15Z</time>
      </trkpt>
      <trkpt lat="46.06908" lon="6.30151">
        <ele>580.29</ele>
        <time>2020-04-23T14:40:19Z</time>
      </trkpt>
      <trkpt lat="46.06901" lon="6.30166">
        <ele>580.29</ele>
        <time>2020-04-23T14:40:20Z</time>
      </trkpt>
      <trkpt lat="46.06893" lon="6.30179">
        <ele>579.81</ele>
        <time>2020-04-23T14:40:21Z</time>
      </trkpt>
      <trkpt lat="46.06886" lon="6.30192">
        <ele>579.33</ele>
        <time>2020-04-23T14:40:22Z</time>
      </trkpt>
      <trkpt lat="46.0688" lon="6.30204">
        <ele>578.85</ele>
        <time>2020-04-23T14:40:23Z</time>
      </trkpt>
      <trkpt lat="46.06874" lon="6.30214">
        <ele>578.37</ele>
        <time>2020-04-23T14:40:24Z</time>
      </trkpt>
      <trkpt lat="46.06872" lon="6.30232">
        <ele>577.89</ele>
        <time>2020-04-23T14:40:25Z</time>
      </trkpt>
      <trkpt lat="46.06865" lon="6.30243">
        <ele>577.41</ele>
        <time>2020-04-23T14:40:26Z</time>
      </trkpt>
      <trkpt lat="46.06861" lon="6.30259">
        <ele>577.41</ele>
        <time>2020-04-23T14:40:27Z</time>
      </trkpt>
      <trkpt lat="46.06861" lon="6.30271">
        <ele>576.93</ele>
        <time>2020-04-23T14:40:28Z</time>
      </trkpt>
      <trkpt lat="46.0686" lon="6.30298">
        <ele>576.45</ele>
        <time>2020-04-23T14:40:30Z</time>
      </trkpt>
      <trkpt lat="46.0686" lon="6.30311">
        <ele>576.45</ele>
        <time>2020-04-23T14:40:31Z</time>
      </trkpt>
      <trkpt lat="46.06859" lon="6.30323">
        <ele>576.45</ele>
        <time>2020-04-23T14:40:32Z</time>
      </trkpt>
      <trkpt lat="46.06859" lon="6.30337">
        <ele>576.45</ele>
        <time>2020-04-23T14:40:33Z</time>
      </trkpt>
      <trkpt lat="46.06858" lon="6.30351">
        <ele>575.97</ele>
        <time>2020-04-23T14:40:34Z</time>
      </trkpt>
      <trkpt lat="46.06858" lon="6.30365">
        <ele>575.97</ele>
        <time>2020-04-23T14:40:35Z</time>
      </trkpt>
      <trkpt lat="46.06857" lon="6.30384">
        <ele>575.97</ele>
        <time>2020-04-23T14:40:36Z</time>
      </trkpt>
      <trkpt lat="46.06852" lon="6.30398">
        <ele>575.97</ele>
        <time>2020-04-23T14:40:37Z</time>
      </trkpt>
      <trkpt lat="46.06847" lon="6.30414">
        <ele>575.97</ele>
        <time>2020-04-23T14:40:38Z</time>
      </trkpt>
      <trkpt lat="46.06841" lon="6.30429">
        <ele>575.97</ele>
        <time>2020-04-23T14:40:39Z</time>
      </trkpt>
      <trkpt lat="46.06837" lon="6.30442">
        <ele>575.97</ele>
        <time>2020-04-23T14:40:40Z</time>
      </trkpt>
      <trkpt lat="46.06833" lon="6.30453">
        <ele>576.45</ele>
        <time>2020-04-23T14:40:41Z</time>
      </trkpt>
      <trkpt lat="46.06829" lon="6.30463">
        <ele>576.93</ele>
        <time>2020-04-23T14:40:42Z</time>
      </trkpt>
      <trkpt lat="46.06826" lon="6.30473">
        <ele>578.37</ele>
        <time>2020-04-23T14:40:43Z</time>
      </trkpt>
      <trkpt lat="46.06803" lon="6.30539">
        <ele>580.77</ele>
        <time>2020-04-23T14:40:48Z</time>
      </trkpt>
      <trkpt lat="46.06797" lon="6.30555">
        <ele>581.25</ele>
        <time>2020-04-23T14:40:49Z</time>
      </trkpt>
      <trkpt lat="46.06769" lon="6.30648">
        <ele>579.33</ele>
        <time>2020-04-23T14:40:55Z</time>
      </trkpt>
      <trkpt lat="46.06746" lon="6.30701">
        <ele>578.85</ele>
        <time>2020-04-23T14:40:59Z</time>
      </trkpt>
      <trkpt lat="46.06741" lon="6.30712">
        <ele>578.85</ele>
        <time>2020-04-23T14:41:00Z</time>
      </trkpt>
      <trkpt lat="46.06725" lon="6.30741">
        <ele>579.33</ele>
        <time>2020-04-23T14:41:02Z</time>
      </trkpt>
      <trkpt lat="46.06718" lon="6.30755">
        <ele>579.33</ele>
        <time>2020-04-23T14:41:03Z</time>
      </trkpt>
      <trkpt lat="46.06685" lon="6.30815">
        <ele>579.81</ele>
        <time>2020-04-23T14:41:07Z</time>
      </trkpt>
      <trkpt lat="46.06678" lon="6.30829">
        <ele>579.81</ele>
        <time>2020-04-23T14:41:08Z</time>
      </trkpt>
      <trkpt lat="46.06646" lon="6.30888">
        <ele>579.81</ele>
        <time>2020-04-23T14:41:13Z</time>
      </trkpt>
      <trkpt lat="46.06642" lon="6.30893">
        <ele>579.33</ele>
        <time>2020-04-23T14:41:14Z</time>
      </trkpt>
      <trkpt lat="46.06644" lon="6.30909">
        <ele>579.33</ele>
        <time>2020-04-23T14:41:15Z</time>
      </trkpt>
      <trkpt lat="46.06649" lon="6.30911">
        <ele>578.85</ele>
        <time>2020-04-23T14:41:16Z</time>
      </trkpt>
      <trkpt lat="46.06656" lon="6.3091">
        <ele>578.85</ele>
        <time>2020-04-23T14:41:17Z</time>
      </trkpt>
      <trkpt lat="46.06663" lon="6.30908">
        <ele>578.85</ele>
        <time>2020-04-23T14:41:18Z</time>
      </trkpt>
      <trkpt lat="46.06682" lon="6.30903">
        <ele>578.37</ele>
        <time>2020-04-23T14:41:20Z</time>
      </trkpt>
      <trkpt lat="46.06691" lon="6.30901">
        <ele>578.37</ele>
        <time>2020-04-23T14:41:21Z</time>
      </trkpt>
      <trkpt lat="46.06698" lon="6.30892">
        <ele>578.37</ele>
        <time>2020-04-23T14:41:22Z</time>
      </trkpt>
      <trkpt lat="46.06704" lon="6.30882">
        <ele>578.37</ele>
        <time>2020-04-23T14:41:23Z</time>
      </trkpt>
      <trkpt lat="46.06711" lon="6.30871">
        <ele>577.89</ele>
        <time>2020-04-23T14:41:24Z</time>
      </trkpt>
      <trkpt lat="46.06719" lon="6.30859">
        <ele>577.41</ele>
        <time>2020-04-23T14:41:25Z</time>
      </trkpt>
      <trkpt lat="46.06726" lon="6.30847">
        <ele>576.93</ele>
        <time>2020-04-23T14:41:26Z</time>
      </trkpt>
      <trkpt lat="46.06744" lon="6.3082">
        <ele>575.49</ele>
        <time>2020-04-23T14:41:29Z</time>
      </trkpt>
      <trkpt lat="46.06748" lon="6.30814">
        <ele>574.53</ele>
        <time>2020-04-23T14:41:30Z</time>
      </trkpt>
      <trkpt lat="46.06751" lon="6.3081">
        <ele>574.53</ele>
        <time>2020-04-23T14:41:31Z</time>
      </trkpt>
      <trkpt lat="46.06752" lon="6.30808">
        <ele>574.04</ele>
        <time>2020-04-23T14:41:32Z</time>
      </trkpt>
      <trkpt lat="46.0675" lon="6.30804">
        <ele>572.6</ele>
        <time>2020-04-23T14:41:41Z</time>
      </trkpt>
    </trkseg>
  </trk>
  <trk>
    <name><![CDATA[Journal actif: 2020-04-25 15:17]]></name>
    <trkseg>
      <trkpt lat="46.06762" lon="6.30795">
        <ele>594.71</ele>
        <time>2020-04-25T13:17:27Z</time>
      </trkpt>
      <trkpt lat="46.0677" lon="6.30789">
        <ele>591.83</ele>
        <time>2020-04-25T13:17:28Z</time>
      </trkpt>
      <trkpt lat="46.06794" lon="6.3077">
        <ele>585.1</ele>
        <time>2020-04-25T13:17:37Z</time>
      </trkpt>
      <trkpt lat="46.06797" lon="6.30753">
        <ele>585.58</ele>
        <time>2020-04-25T13:17:38Z</time>
      </trkpt>
      <trkpt lat="46.06793" lon="6.30734">
        <ele>586.06</ele>
        <time>2020-04-25T13:17:40Z</time>
      </trkpt>
      <trkpt lat="46.0679" lon="6.30721">
        <ele>586.54</ele>
        <time>2020-04-25T13:17:41Z</time>
      </trkpt>
      <trkpt lat="46.06786" lon="6.30705">
        <ele>586.54</ele>
        <time>2020-04-25T13:17:42Z</time>
      </trkpt>
      <trkpt lat="46.06784" lon="6.30607">
        <ele>585.58</ele>
        <time>2020-04-25T13:17:47Z</time>
      </trkpt>
      <trkpt lat="46.06788" lon="6.30587">
        <ele>584.62</ele>
        <time>2020-04-25T13:17:48Z</time>
      </trkpt>
      <trkpt lat="46.06793" lon="6.30569">
        <ele>584.14</ele>
        <time>2020-04-25T13:17:49Z</time>
      </trkpt>
      <trkpt lat="46.06798" lon="6.30552">
        <ele>585.1</ele>
        <time>2020-04-25T13:17:50Z</time>
      </trkpt>
      <trkpt lat="46.06804" lon="6.30536">
        <ele>585.1</ele>
        <time>2020-04-25T13:17:51Z</time>
      </trkpt>
      <trkpt lat="46.06829" lon="6.30463">
        <ele>584.62</ele>
        <time>2020-04-25T13:17:57Z</time>
      </trkpt>
      <trkpt lat="46.06853" lon="6.30397">
        <ele>586.06</ele>
        <time>2020-04-25T13:18:01Z</time>
      </trkpt>
      <trkpt lat="46.06857" lon="6.3038">
        <ele>586.54</ele>
        <time>2020-04-25T13:18:02Z</time>
      </trkpt>
      <trkpt lat="46.06859" lon="6.30344">
        <ele>587.98</ele>
        <time>2020-04-25T13:18:04Z</time>
      </trkpt>
      <trkpt lat="46.06861" lon="6.30266">
        <ele>592.31</ele>
        <time>2020-04-25T13:18:09Z</time>
      </trkpt>
      <trkpt lat="46.06863" lon="6.30254">
        <ele>592.31</ele>
        <time>2020-04-25T13:18:10Z</time>
      </trkpt>
      <trkpt lat="46.06866" lon="6.30241">
        <ele>592.79</ele>
        <time>2020-04-25T13:18:11Z</time>
      </trkpt>
      <trkpt lat="46.06885" lon="6.30233">
        <ele>593.27</ele>
        <time>2020-04-25T13:18:12Z</time>
      </trkpt>
      <trkpt lat="46.06889" lon="6.30231">
        <ele>593.27</ele>
        <time>2020-04-25T13:18:13Z</time>
      </trkpt>
      <trkpt lat="46.06903" lon="6.30224">
        <ele>594.23</ele>
        <time>2020-04-25T13:18:14Z</time>
      </trkpt>
      <trkpt lat="46.07008" lon="6.30129">
        <ele>591.35</ele>
        <time>2020-04-25T13:18:22Z</time>
      </trkpt>
      <trkpt lat="46.07038" lon="6.30085">
        <ele>590.39</ele>
        <time>2020-04-25T13:18:25Z</time>
      </trkpt>
      <trkpt lat="46.07046" lon="6.30073">
        <ele>590.87</ele>
        <time>2020-04-25T13:18:26Z</time>
      </trkpt>
      <trkpt lat="46.07053" lon="6.30064">
        <ele>591.35</ele>
        <time>2020-04-25T13:18:27Z</time>
      </trkpt>
      <trkpt lat="46.07059" lon="6.30058">
        <ele>591.35</ele>
        <time>2020-04-25T13:18:28Z</time>
      </trkpt>
      <trkpt lat="46.07064" lon="6.30054">
        <ele>591.83</ele>
        <time>2020-04-25T13:18:29Z</time>
      </trkpt>
      <trkpt lat="46.07078" lon="6.30057">
        <ele>591.83</ele>
        <time>2020-04-25T13:18:30Z</time>
      </trkpt>
      <trkpt lat="46.07079" lon="6.30058">
        <ele>591.35</ele>
        <time>2020-04-25T13:18:31Z</time>
      </trkpt>
      <trkpt lat="46.07088" lon="6.30058">
        <ele>591.35</ele>
        <time>2020-04-25T13:18:32Z</time>
      </trkpt>
      <trkpt lat="46.07103" lon="6.30036">
        <ele>591.83</ele>
        <time>2020-04-25T13:18:34Z</time>
      </trkpt>
      <trkpt lat="46.07115" lon="6.30026">
        <ele>591.83</ele>
        <time>2020-04-25T13:18:35Z</time>
      </trkpt>
      <trkpt lat="46.07209" lon="6.29948">
        <ele>591.35</ele>
        <time>2020-04-25T13:18:43Z</time>
      </trkpt>
      <trkpt lat="46.07306" lon="6.29871">
        <ele>594.23</ele>
        <time>2020-04-25T13:18:51Z</time>
      </trkpt>
      <trkpt lat="46.0735" lon="6.29837">
        <ele>597.12</ele>
        <time>2020-04-25T13:18:57Z</time>
      </trkpt>
      <trkpt lat="46.07429" lon="6.29783">
        <ele>594.23</ele>
        <time>2020-04-25T13:19:04Z</time>
      </trkpt>
      <trkpt lat="46.07487" lon="6.29748">
        <ele>593.75</ele>
        <time>2020-04-25T13:19:08Z</time>
      </trkpt>
      <trkpt lat="46.07501" lon="6.29741">
        <ele>593.27</ele>
        <time>2020-04-25T13:19:09Z</time>
      </trkpt>
      <trkpt lat="46.07515" lon="6.29736">
        <ele>592.79</ele>
        <time>2020-04-25T13:19:10Z</time>
      </trkpt>
      <trkpt lat="46.07542" lon="6.29737">
        <ele>593.27</ele>
        <time>2020-04-25T13:19:12Z</time>
      </trkpt>
      <trkpt lat="46.07555" lon="6.29737">
        <ele>592.79</ele>
        <time>2020-04-25T13:19:13Z</time>
      </trkpt>
      <trkpt lat="46.07568" lon="6.29738">
        <ele>592.79</ele>
        <time>2020-04-25T13:19:14Z</time>
      </trkpt>
      <trkpt lat="46.07591" lon="6.29748">
        <ele>593.27</ele>
        <time>2020-04-25T13:19:16Z</time>
      </trkpt>
      <trkpt lat="46.0761" lon="6.29757">
        <ele>593.27</ele>
        <time>2020-04-25T13:19:18Z</time>
      </trkpt>
      <trkpt lat="46.07617" lon="6.29759">
        <ele>593.27</ele>
        <time>2020-04-25T13:19:19Z</time>
      </trkpt>
      <trkpt lat="46.07625" lon="6.29761">
        <ele>593.27</ele>
        <time>2020-04-25T13:19:20Z</time>
      </trkpt>
      <trkpt lat="46.07629" lon="6.29761">
        <ele>592.79</ele>
        <time>2020-04-25T13:19:21Z</time>
      </trkpt>
      <trkpt lat="46.07638" lon="6.29705">
        <ele>593.27</ele>
        <time>2020-04-25T13:19:23Z</time>
      </trkpt>
      <trkpt lat="46.07644" lon="6.29699">
        <ele>593.27</ele>
        <time>2020-04-25T13:19:24Z</time>
      </trkpt>
      <trkpt lat="46.07653" lon="6.2969">
        <ele>593.27</ele>
        <time>2020-04-25T13:19:25Z</time>
      </trkpt>
      <trkpt lat="46.07653" lon="6.2969">
        <ele>593.27</ele>
        <time>2020-04-25T13:19:26Z</time>
      </trkpt>
      <trkpt lat="46.07707" lon="6.29689">
        <ele>591.35</ele>
        <time>2020-04-25T13:19:30Z</time>
      </trkpt>
      <trkpt lat="46.07721" lon="6.29689">
        <ele>590.87</ele>
        <time>2020-04-25T13:19:34Z</time>
      </trkpt>
      <trkpt lat="46.07729" lon="6.29693">
        <ele>591.35</ele>
        <time>2020-04-25T13:19:39Z</time>
      </trkpt>
      <trkpt lat="46.07731" lon="6.29696">
        <ele>591.35</ele>
        <time>2020-04-25T13:19:41Z</time>
      </trkpt>
      <trkpt lat="46.0776" lon="6.29775">
        <ele>589.91</ele>
        <time>2020-04-25T13:19:46Z</time>
      </trkpt>
      <trkpt lat="46.07797" lon="6.29967">
        <ele>577.89</ele>
        <time>2020-04-25T13:19:52Z</time>
      </trkpt>
      <trkpt lat="46.07797" lon="6.30025">
        <ele>574.04</ele>
        <time>2020-04-25T13:19:54Z</time>
      </trkpt>
      <trkpt lat="46.07794" lon="6.30054">
        <ele>572.12</ele>
        <time>2020-04-25T13:19:55Z</time>
      </trkpt>
      <trkpt lat="46.07743" lon="6.30214">
        <ele>562.03</ele>
        <time>2020-04-25T13:20:01Z</time>
      </trkpt>
      <trkpt lat="46.07662" lon="6.30356">
        <ele>551.93</ele>
        <time>2020-04-25T13:20:08Z</time>
      </trkpt>
      <trkpt lat="46.07635" lon="6.30404">
        <ele>548.57</ele>
        <time>2020-04-25T13:20:12Z</time>
      </trkpt>
      <trkpt lat="46.07629" lon="6.30413">
        <ele>547.61</ele>
        <time>2020-04-25T13:20:13Z</time>
      </trkpt>
      <trkpt lat="46.0762" lon="6.30419">
        <ele>547.13</ele>
        <time>2020-04-25T13:20:14Z</time>
      </trkpt>
      <trkpt lat="46.07613" lon="6.30419">
        <ele>546.17</ele>
        <time>2020-04-25T13:20:15Z</time>
      </trkpt>
      <trkpt lat="46.07605" lon="6.3042">
        <ele>545.69</ele>
        <time>2020-04-25T13:20:16Z</time>
      </trkpt>
      <trkpt lat="46.07601" lon="6.30428">
        <ele>544.72</ele>
        <time>2020-04-25T13:20:17Z</time>
      </trkpt>
      <trkpt lat="46.07602" lon="6.30442">
        <ele>544.24</ele>
        <time>2020-04-25T13:20:18Z</time>
      </trkpt>
      <trkpt lat="46.07602" lon="6.30457">
        <ele>544.24</ele>
        <time>2020-04-25T13:20:19Z</time>
      </trkpt>
      <trkpt lat="46.07596" lon="6.30468">
        <ele>544.24</ele>
        <time>2020-04-25T13:20:20Z</time>
      </trkpt>
      <trkpt lat="46.07589" lon="6.30483">
        <ele>543.76</ele>
        <time>2020-04-25T13:20:21Z</time>
      </trkpt>
      <trkpt lat="46.07581" lon="6.305">
        <ele>543.28</ele>
        <time>2020-04-25T13:20:22Z</time>
      </trkpt>
      <trkpt lat="46.07519" lon="6.30661">
        <ele>539.44</ele>
        <time>2020-04-25T13:20:29Z</time>
      </trkpt>
      <trkpt lat="46.07481" lon="6.30869">
        <ele>533.67</ele>
        <time>2020-04-25T13:20:37Z</time>
      </trkpt>
      <trkpt lat="46.07463" lon="6.31146">
        <ele>523.58</ele>
        <time>2020-04-25T13:20:47Z</time>
      </trkpt>
      <trkpt lat="46.07428" lon="6.31295">
        <ele>516.85</ele>
        <time>2020-04-25T13:20:54Z</time>
      </trkpt>
      <trkpt lat="46.07422" lon="6.3131">
        <ele>516.37</ele>
        <time>2020-04-25T13:20:55Z</time>
      </trkpt>
      <trkpt lat="46.07416" lon="6.31324">
        <ele>515.88</ele>
        <time>2020-04-25T13:20:56Z</time>
      </trkpt>
      <trkpt lat="46.074" lon="6.31344">
        <ele>515.88</ele>
        <time>2020-04-25T13:20:58Z</time>
      </trkpt>
      <trkpt lat="46.07395" lon="6.31359">
        <ele>515.4</ele>
        <time>2020-04-25T13:20:59Z</time>
      </trkpt>
      <trkpt lat="46.07396" lon="6.31376">
        <ele>514.92</ele>
        <time>2020-04-25T13:21:00Z</time>
      </trkpt>
      <trkpt lat="46.07396" lon="6.31405">
        <ele>514.44</ele>
        <time>2020-04-25T13:21:02Z</time>
      </trkpt>
      <trkpt lat="46.07391" lon="6.3142">
        <ele>513.96</ele>
        <time>2020-04-25T13:21:03Z</time>
      </trkpt>
      <trkpt lat="46.07385" lon="6.31437">
        <ele>513.48</ele>
        <time>2020-04-25T13:21:04Z</time>
      </trkpt>
      <trkpt lat="46.07376" lon="6.31457">
        <ele>513</ele>
        <time>2020-04-25T13:21:05Z</time>
      </trkpt>
      <trkpt lat="46.07362" lon="6.31472">
        <ele>513</ele>
        <time>2020-04-25T13:21:06Z</time>
      </trkpt>
      <trkpt lat="46.07249" lon="6.31623">
        <ele>510.6</ele>
        <time>2020-04-25T13:21:15Z</time>
      </trkpt>
      <trkpt lat="46.07136" lon="6.31795">
        <ele>508.19</ele>
        <time>2020-04-25T13:21:24Z</time>
      </trkpt>
      <trkpt lat="46.07062" lon="6.31965">
        <ele>506.75</ele>
        <time>2020-04-25T13:21:31Z</time>
      </trkpt>
      <trkpt lat="46.07026" lon="6.3213">
        <ele>505.31</ele>
        <time>2020-04-25T13:21:38Z</time>
      </trkpt>
      <trkpt lat="46.07026" lon="6.32154">
        <ele>504.83</ele>
        <time>2020-04-25T13:21:39Z</time>
      </trkpt>
      <trkpt lat="46.07033" lon="6.32242">
        <ele>503.87</ele>
        <time>2020-04-25T13:21:43Z</time>
      </trkpt>
      <trkpt lat="46.07086" lon="6.32458">
        <ele>497.14</ele>
        <time>2020-04-25T13:21:53Z</time>
      </trkpt>
      <trkpt lat="46.0711" lon="6.32674">
        <ele>490.89</ele>
        <time>2020-04-25T13:22:03Z</time>
      </trkpt>
      <trkpt lat="46.07113" lon="6.3272">
        <ele>489.45</ele>
        <time>2020-04-25T13:22:06Z</time>
      </trkpt>
      <trkpt lat="46.07114" lon="6.32732">
        <ele>488.97</ele>
        <time>2020-04-25T13:22:07Z</time>
      </trkpt>
      <trkpt lat="46.07115" lon="6.32742">
        <ele>488.49</ele>
        <time>2020-04-25T13:22:08Z</time>
      </trkpt>
      <trkpt lat="46.07108" lon="6.32762">
        <ele>487.05</ele>
        <time>2020-04-25T13:22:10Z</time>
      </trkpt>
      <trkpt lat="46.07111" lon="6.32771">
        <ele>486.56</ele>
        <time>2020-04-25T13:22:11Z</time>
      </trkpt>
      <trkpt lat="46.07115" lon="6.3278">
        <ele>486.56</ele>
        <time>2020-04-25T13:22:12Z</time>
      </trkpt>
      <trkpt lat="46.07121" lon="6.32782">
        <ele>486.08</ele>
        <time>2020-04-25T13:22:13Z</time>
      </trkpt>
      <trkpt lat="46.07129" lon="6.3278">
        <ele>486.08</ele>
        <time>2020-04-25T13:22:14Z</time>
      </trkpt>
      <trkpt lat="46.07135" lon="6.32776">
        <ele>486.08</ele>
        <time>2020-04-25T13:22:15Z</time>
      </trkpt>
      <trkpt lat="46.0714" lon="6.3276">
        <ele>486.08</ele>
        <time>2020-04-25T13:22:16Z</time>
      </trkpt>
      <trkpt lat="46.07155" lon="6.32749">
        <ele>485.6</ele>
        <time>2020-04-25T13:22:18Z</time>
      </trkpt>
      <trkpt lat="46.07164" lon="6.32741">
        <ele>485.12</ele>
        <time>2020-04-25T13:22:19Z</time>
      </trkpt>
      <trkpt lat="46.07172" lon="6.32732">
        <ele>484.64</ele>
        <time>2020-04-25T13:22:20Z</time>
      </trkpt>
      <trkpt lat="46.07218" lon="6.32662">
        <ele>481.28</ele>
        <time>2020-04-25T13:22:27Z</time>
      </trkpt>
      <trkpt lat="46.07222" lon="6.32655">
        <ele>480.8</ele>
        <time>2020-04-25T13:22:28Z</time>
      </trkpt>
      <trkpt lat="46.07226" lon="6.32649">
        <ele>480.8</ele>
        <time>2020-04-25T13:22:29Z</time>
      </trkpt>
      <trkpt lat="46.07235" lon="6.32646">
        <ele>480.32</ele>
        <time>2020-04-25T13:22:30Z</time>
      </trkpt>
      <trkpt lat="46.07234" lon="6.32638">
        <ele>479.84</ele>
        <time>2020-04-25T13:22:31Z</time>
      </trkpt>
      <trkpt lat="46.07224" lon="6.32634">
        <ele>479.84</ele>
        <time>2020-04-25T13:22:32Z</time>
      </trkpt>
      <trkpt lat="46.07223" lon="6.32632">
        <ele>479.35</ele>
        <time>2020-04-25T13:22:33Z</time>
      </trkpt>
      <trkpt lat="46.0722" lon="6.32628">
        <ele>479.35</ele>
        <time>2020-04-25T13:22:34Z</time>
      </trkpt>
      <trkpt lat="46.07219" lon="6.32626">
        <ele>479.35</ele>
        <time>2020-04-25T13:22:35Z</time>
      </trkpt>
      <trkpt lat="46.07218" lon="6.32624">
        <ele>479.35</ele>
        <time>2020-04-25T13:22:36Z</time>
      </trkpt>
      <trkpt lat="46.07217" lon="6.32623">
        <ele>478.87</ele>
        <time>2020-04-25T13:22:37Z</time>
      </trkpt>
      <trkpt lat="46.07216" lon="6.32621">
        <ele>478.87</ele>
        <time>2020-04-25T13:22:38Z</time>
      </trkpt>
      <trkpt lat="46.07214" lon="6.32619">
        <ele>478.87</ele>
        <time>2020-04-25T13:22:39Z</time>
      </trkpt>
      <trkpt lat="46.07211" lon="6.32614">
        <ele>479.35</ele>
        <time>2020-04-25T13:22:40Z</time>
      </trkpt>
      <trkpt lat="46.07205" lon="6.32603">
        <ele>480.32</ele>
        <time>2020-04-25T13:22:41Z</time>
      </trkpt>
      <trkpt lat="46.07199" lon="6.3259">
        <ele>481.28</ele>
        <time>2020-04-25T13:22:42Z</time>
      </trkpt>
      <trkpt lat="46.07195" lon="6.32576">
        <ele>482.24</ele>
        <time>2020-04-25T13:22:43Z</time>
      </trkpt>
      <trkpt lat="46.07193" lon="6.32559">
        <ele>482.72</ele>
        <time>2020-04-25T13:22:44Z</time>
      </trkpt>
      <trkpt lat="46.07192" lon="6.32543">
        <ele>483.2</ele>
        <time>2020-04-25T13:22:45Z</time>
      </trkpt>
      <trkpt lat="46.0719" lon="6.3253">
        <ele>483.68</ele>
        <time>2020-04-25T13:22:46Z</time>
      </trkpt>
      <trkpt lat="46.07188" lon="6.32519">
        <ele>484.16</ele>
        <time>2020-04-25T13:22:47Z</time>
      </trkpt>
      <trkpt lat="46.07186" lon="6.32511">
        <ele>485.12</ele>
        <time>2020-04-25T13:22:48Z</time>
      </trkpt>
      <trkpt lat="46.07185" lon="6.32507">
        <ele>485.6</ele>
        <time>2020-04-25T13:22:49Z</time>
      </trkpt>
      <trkpt lat="46.07174" lon="6.32509">
        <ele>486.08</ele>
        <time>2020-04-25T13:22:50Z</time>
      </trkpt>
      <trkpt lat="46.07171" lon="6.32516">
        <ele>487.05</ele>
        <time>2020-04-25T13:22:51Z</time>
      </trkpt>
      <trkpt lat="46.07168" lon="6.32525">
        <ele>487.53</ele>
        <time>2020-04-25T13:22:52Z</time>
      </trkpt>
      <trkpt lat="46.07164" lon="6.32535">
        <ele>488.49</ele>
        <time>2020-04-25T13:22:53Z</time>
      </trkpt>
      <trkpt lat="46.07158" lon="6.32548">
        <ele>489.93</ele>
        <time>2020-04-25T13:22:55Z</time>
      </trkpt>
      <trkpt lat="46.07157" lon="6.32551">
        <ele>490.41</ele>
        <time>2020-04-25T13:22:56Z</time>
      </trkpt>
      <trkpt lat="46.07149" lon="6.32557">
        <ele>490.41</ele>
        <time>2020-04-25T13:22:57Z</time>
      </trkpt>
      <trkpt lat="46.07149" lon="6.32557">
        <ele>490.89</ele>
        <time>2020-04-25T13:23:10Z</time>
      </trkpt>
      <trkpt lat="46.07154" lon="6.32548">
        <ele>497.14</ele>
        <time>2020-04-25T13:39:22Z</time>
      </trkpt>
      <trkpt lat="46.0715" lon="6.32559">
        <ele>506.75</ele>
        <time>2020-04-25T13:39:35Z</time>
      </trkpt>
      <trkpt lat="46.0716" lon="6.32568">
        <ele>506.75</ele>
        <time>2020-04-25T13:39:36Z</time>
      </trkpt>
      <trkpt lat="46.07158" lon="6.32571">
        <ele>505.31</ele>
        <time>2020-04-25T13:39:37Z</time>
      </trkpt>
      <trkpt lat="46.07153" lon="6.32582">
        <ele>505.31</ele>
        <time>2020-04-25T13:39:38Z</time>
      </trkpt>
      <trkpt lat="46.07148" lon="6.32593">
        <ele>504.83</ele>
        <time>2020-04-25T13:39:39Z</time>
      </trkpt>
      <trkpt lat="46.07144" lon="6.32602">
        <ele>503.87</ele>
        <time>2020-04-25T13:39:40Z</time>
      </trkpt>
      <trkpt lat="46.07139" lon="6.32611">
        <ele>501.95</ele>
        <time>2020-04-25T13:39:41Z</time>
      </trkpt>
      <trkpt lat="46.07138" lon="6.32613">
        <ele>501.46</ele>
        <time>2020-04-25T13:39:42Z</time>
      </trkpt>
      <trkpt lat="46.07135" lon="6.32627">
        <ele>500.5</ele>
        <time>2020-04-25T13:39:43Z</time>
      </trkpt>
      <trkpt lat="46.07133" lon="6.32636">
        <ele>498.58</ele>
        <time>2020-04-25T13:39:44Z</time>
      </trkpt>
      <trkpt lat="46.0713" lon="6.32649">
        <ele>497.62</ele>
        <time>2020-04-25T13:39:45Z</time>
      </trkpt>
      <trkpt lat="46.07131" lon="6.32663">
        <ele>496.18</ele>
        <time>2020-04-25T13:39:46Z</time>
      </trkpt>
      <trkpt lat="46.07132" lon="6.32678">
        <ele>494.74</ele>
        <time>2020-04-25T13:39:47Z</time>
      </trkpt>
      <trkpt lat="46.07134" lon="6.3269">
        <ele>494.26</ele>
        <time>2020-04-25T13:39:48Z</time>
      </trkpt>
      <trkpt lat="46.07139" lon="6.32697">
        <ele>494.26</ele>
        <time>2020-04-25T13:39:49Z</time>
      </trkpt>
      <trkpt lat="46.07148" lon="6.32706">
        <ele>493.29</ele>
        <time>2020-04-25T13:39:50Z</time>
      </trkpt>
      <trkpt lat="46.07155" lon="6.32714">
        <ele>492.33</ele>
        <time>2020-04-25T13:39:51Z</time>
      </trkpt>
      <trkpt lat="46.07165" lon="6.32705">
        <ele>491.37</ele>
        <time>2020-04-25T13:39:52Z</time>
      </trkpt>
      <trkpt lat="46.07172" lon="6.32698">
        <ele>489.93</ele>
        <time>2020-04-25T13:39:53Z</time>
      </trkpt>
      <trkpt lat="46.0718" lon="6.32691">
        <ele>489.45</ele>
        <time>2020-04-25T13:39:54Z</time>
      </trkpt>
      <trkpt lat="46.07187" lon="6.32678">
        <ele>488.97</ele>
        <time>2020-04-25T13:39:55Z</time>
      </trkpt>
      <trkpt lat="46.07194" lon="6.32666">
        <ele>488.49</ele>
        <time>2020-04-25T13:39:56Z</time>
      </trkpt>
      <trkpt lat="46.072" lon="6.32655">
        <ele>488.01</ele>
        <time>2020-04-25T13:39:57Z</time>
      </trkpt>
      <trkpt lat="46.07207" lon="6.32643">
        <ele>487.05</ele>
        <time>2020-04-25T13:39:58Z</time>
      </trkpt>
      <trkpt lat="46.07207" lon="6.32635">
        <ele>487.05</ele>
        <time>2020-04-25T13:39:59Z</time>
      </trkpt>
      <trkpt lat="46.07208" lon="6.32626">
        <ele>487.53</ele>
        <time>2020-04-25T13:40:00Z</time>
      </trkpt>
      <trkpt lat="46.07208" lon="6.3262">
        <ele>487.05</ele>
        <time>2020-04-25T13:40:01Z</time>
      </trkpt>
      <trkpt lat="46.07213" lon="6.32617">
        <ele>486.56</ele>
        <time>2020-04-25T13:40:02Z</time>
      </trkpt>
      <trkpt lat="46.07215" lon="6.32621">
        <ele>486.08</ele>
        <time>2020-04-25T13:40:03Z</time>
      </trkpt>
      <trkpt lat="46.07218" lon="6.32625">
        <ele>486.08</ele>
        <time>2020-04-25T13:40:04Z</time>
      </trkpt>
      <trkpt lat="46.07224" lon="6.32634">
        <ele>486.08</ele>
        <time>2020-04-25T13:40:05Z</time>
      </trkpt>
      <trkpt lat="46.07225" lon="6.3264">
        <ele>485.6</ele>
        <time>2020-04-25T13:40:06Z</time>
      </trkpt>
      <trkpt lat="46.07221" lon="6.32656">
        <ele>485.12</ele>
        <time>2020-04-25T13:40:07Z</time>
      </trkpt>
      <trkpt lat="46.07215" lon="6.32665">
        <ele>485.12</ele>
        <time>2020-04-25T13:40:08Z</time>
      </trkpt>
      <trkpt lat="46.07207" lon="6.32677">
        <ele>485.12</ele>
        <time>2020-04-25T13:40:09Z</time>
      </trkpt>
      <trkpt lat="46.07197" lon="6.32692">
        <ele>485.12</ele>
        <time>2020-04-25T13:40:10Z</time>
      </trkpt>
      <trkpt lat="46.07157" lon="6.32748">
        <ele>486.56</ele>
        <time>2020-04-25T13:40:15Z</time>
      </trkpt>
      <trkpt lat="46.07147" lon="6.32757">
        <ele>487.05</ele>
        <time>2020-04-25T13:40:16Z</time>
      </trkpt>
      <trkpt lat="46.07136" lon="6.3275">
        <ele>487.05</ele>
        <time>2020-04-25T13:40:17Z</time>
      </trkpt>
      <trkpt lat="46.07136" lon="6.3275">
        <ele>487.53</ele>
        <time>2020-04-25T13:40:18Z</time>
      </trkpt>
      <trkpt lat="46.0713" lon="6.32745">
        <ele>488.01</ele>
        <time>2020-04-25T13:40:19Z</time>
      </trkpt>
      <trkpt lat="46.07123" lon="6.32742">
        <ele>488.97</ele>
        <time>2020-04-25T13:40:20Z</time>
      </trkpt>
      <trkpt lat="46.07115" lon="6.32744">
        <ele>489.45</ele>
        <time>2020-04-25T13:40:21Z</time>
      </trkpt>
      <trkpt lat="46.07108" lon="6.32755">
        <ele>489.93</ele>
        <time>2020-04-25T13:40:22Z</time>
      </trkpt>
      <trkpt lat="46.07108" lon="6.32765">
        <ele>489.93</ele>
        <time>2020-04-25T13:40:23Z</time>
      </trkpt>
      <trkpt lat="46.07113" lon="6.32777">
        <ele>490.41</ele>
        <time>2020-04-25T13:40:24Z</time>
      </trkpt>
      <trkpt lat="46.07115" lon="6.3278">
        <ele>490.41</ele>
        <time>2020-04-25T13:40:25Z</time>
      </trkpt>
      <trkpt lat="46.07123" lon="6.32803">
        <ele>490.41</ele>
        <time>2020-04-25T13:40:26Z</time>
      </trkpt>
      <trkpt lat="46.07124" lon="6.32823">
        <ele>490.41</ele>
        <time>2020-04-25T13:40:27Z</time>
      </trkpt>
      <trkpt lat="46.07126" lon="6.32846">
        <ele>489.93</ele>
        <time>2020-04-25T13:40:28Z</time>
      </trkpt>
      <trkpt lat="46.07144" lon="6.33082">
        <ele>480.32</ele>
        <time>2020-04-25T13:40:37Z</time>
      </trkpt>
      <trkpt lat="46.07143" lon="6.33108">
        <ele>478.87</ele>
        <time>2020-04-25T13:40:38Z</time>
      </trkpt>
      <trkpt lat="46.07142" lon="6.33134">
        <ele>477.43</ele>
        <time>2020-04-25T13:40:39Z</time>
      </trkpt>
      <trkpt lat="46.07138" lon="6.33159">
        <ele>475.99</ele>
        <time>2020-04-25T13:40:40Z</time>
      </trkpt>
      <trkpt lat="46.07134" lon="6.33184">
        <ele>474.55</ele>
        <time>2020-04-25T13:40:41Z</time>
      </trkpt>
      <trkpt lat="46.07128" lon="6.33209">
        <ele>473.11</ele>
        <time>2020-04-25T13:40:42Z</time>
      </trkpt>
      <trkpt lat="46.07092" lon="6.33324">
        <ele>468.3</ele>
        <time>2020-04-25T13:40:47Z</time>
      </trkpt>
      <trkpt lat="46.07082" lon="6.33343">
        <ele>468.3</ele>
        <time>2020-04-25T13:40:48Z</time>
      </trkpt>
      <trkpt lat="46.07072" lon="6.33362">
        <ele>467.82</ele>
        <time>2020-04-25T13:40:49Z</time>
      </trkpt>
      <trkpt lat="46.0706" lon="6.3338">
        <ele>467.82</ele>
        <time>2020-04-25T13:40:50Z</time>
      </trkpt>
      <trkpt lat="46.07048" lon="6.33398">
        <ele>467.34</ele>
        <time>2020-04-25T13:40:51Z</time>
      </trkpt>
      <trkpt lat="46.06981" lon="6.33499">
        <ele>466.86</ele>
        <time>2020-04-25T13:40:58Z</time>
      </trkpt>
      <trkpt lat="46.06971" lon="6.33515">
        <ele>465.9</ele>
        <time>2020-04-25T13:41:00Z</time>
      </trkpt>
      <trkpt lat="46.06962" lon="6.33519">
        <ele>465.9</ele>
        <time>2020-04-25T13:41:01Z</time>
      </trkpt>
      <trkpt lat="46.06956" lon="6.33516">
        <ele>465.9</ele>
        <time>2020-04-25T13:41:02Z</time>
      </trkpt>
      <trkpt lat="46.0695" lon="6.33513">
        <ele>465.42</ele>
        <time>2020-04-25T13:41:03Z</time>
      </trkpt>
      <trkpt lat="46.06942" lon="6.33508">
        <ele>464.93</ele>
        <time>2020-04-25T13:41:04Z</time>
      </trkpt>
      <trkpt lat="46.06938" lon="6.33499">
        <ele>464.93</ele>
        <time>2020-04-25T13:41:05Z</time>
      </trkpt>
      <trkpt lat="46.06932" lon="6.33492">
        <ele>465.42</ele>
        <time>2020-04-25T13:41:06Z</time>
      </trkpt>
      <trkpt lat="46.06924" lon="6.33487">
        <ele>465.42</ele>
        <time>2020-04-25T13:41:07Z</time>
      </trkpt>
      <trkpt lat="46.06915" lon="6.33484">
        <ele>465.42</ele>
        <time>2020-04-25T13:41:08Z</time>
      </trkpt>
      <trkpt lat="46.06905" lon="6.33484">
        <ele>465.42</ele>
        <time>2020-04-25T13:41:09Z</time>
      </trkpt>
      <trkpt lat="46.06893" lon="6.33483">
        <ele>465.9</ele>
        <time>2020-04-25T13:41:10Z</time>
      </trkpt>
      <trkpt lat="46.06881" lon="6.33482">
        <ele>465.9</ele>
        <time>2020-04-25T13:41:11Z</time>
      </trkpt>
      <trkpt lat="46.06838" lon="6.33485">
        <ele>466.86</ele>
        <time>2020-04-25T13:41:15Z</time>
      </trkpt>
      <trkpt lat="46.0683" lon="6.33486">
        <ele>466.86</ele>
        <time>2020-04-25T13:41:16Z</time>
      </trkpt>
      <trkpt lat="46.06823" lon="6.33486">
        <ele>466.38</ele>
        <time>2020-04-25T13:41:17Z</time>
      </trkpt>
      <trkpt lat="46.06808" lon="6.33494">
        <ele>466.38</ele>
        <time>2020-04-25T13:41:19Z</time>
      </trkpt>
      <trkpt lat="46.06801" lon="6.3349">
        <ele>466.38</ele>
        <time>2020-04-25T13:41:20Z</time>
      </trkpt>
      <trkpt lat="46.06793" lon="6.33486">
        <ele>466.38</ele>
        <time>2020-04-25T13:41:21Z</time>
      </trkpt>
      <trkpt lat="46.06785" lon="6.33481">
        <ele>466.38</ele>
        <time>2020-04-25T13:41:22Z</time>
      </trkpt>
      <trkpt lat="46.06776" lon="6.33475">
        <ele>466.38</ele>
        <time>2020-04-25T13:41:23Z</time>
      </trkpt>
      <trkpt lat="46.06766" lon="6.33467">
        <ele>466.38</ele>
        <time>2020-04-25T13:41:24Z</time>
      </trkpt>
      <trkpt lat="46.0673" lon="6.33436">
        <ele>468.78</ele>
        <time>2020-04-25T13:41:28Z</time>
      </trkpt>
      <trkpt lat="46.06721" lon="6.33429">
        <ele>469.26</ele>
        <time>2020-04-25T13:41:29Z</time>
      </trkpt>
      <trkpt lat="46.06711" lon="6.33425">
        <ele>469.74</ele>
        <time>2020-04-25T13:41:30Z</time>
      </trkpt>
      <trkpt lat="46.06701" lon="6.3342">
        <ele>470.22</ele>
        <time>2020-04-25T13:41:31Z</time>
      </trkpt>
      <trkpt lat="46.0669" lon="6.33416">
        <ele>470.7</ele>
        <time>2020-04-25T13:41:32Z</time>
      </trkpt>
      <trkpt lat="46.0668" lon="6.33411">
        <ele>471.18</ele>
        <time>2020-04-25T13:41:33Z</time>
      </trkpt>
      <trkpt lat="46.06669" lon="6.33407">
        <ele>471.66</ele>
        <time>2020-04-25T13:41:34Z</time>
      </trkpt>
      <trkpt lat="46.06659" lon="6.33403">
        <ele>472.14</ele>
        <time>2020-04-25T13:41:35Z</time>
      </trkpt>
      <trkpt lat="46.06652" lon="6.33395">
        <ele>473.11</ele>
        <time>2020-04-25T13:41:36Z</time>
      </trkpt>
      <trkpt lat="46.0665" lon="6.33383">
        <ele>473.59</ele>
        <time>2020-04-25T13:41:37Z</time>
      </trkpt>
      <trkpt lat="46.06647" lon="6.33371">
        <ele>474.55</ele>
        <time>2020-04-25T13:41:38Z</time>
      </trkpt>
      <trkpt lat="46.06643" lon="6.3336">
        <ele>475.51</ele>
        <time>2020-04-25T13:41:39Z</time>
      </trkpt>
      <trkpt lat="46.06639" lon="6.3335">
        <ele>476.47</ele>
        <time>2020-04-25T13:41:40Z</time>
      </trkpt>
      <trkpt lat="46.06632" lon="6.33339">
        <ele>476.95</ele>
        <time>2020-04-25T13:41:41Z</time>
      </trkpt>
      <trkpt lat="46.06622" lon="6.33327">
        <ele>477.91</ele>
        <time>2020-04-25T13:41:42Z</time>
      </trkpt>
      <trkpt lat="46.0661" lon="6.33317">
        <ele>478.87</ele>
        <time>2020-04-25T13:41:43Z</time>
      </trkpt>
      <trkpt lat="46.06596" lon="6.33308">
        <ele>479.84</ele>
        <time>2020-04-25T13:41:44Z</time>
      </trkpt>
      <trkpt lat="46.06583" lon="6.333">
        <ele>480.8</ele>
        <time>2020-04-25T13:41:45Z</time>
      </trkpt>
      <trkpt lat="46.06572" lon="6.33293">
        <ele>481.28</ele>
        <time>2020-04-25T13:41:46Z</time>
      </trkpt>
      <trkpt lat="46.06559" lon="6.33285">
        <ele>481.76</ele>
        <time>2020-04-25T13:41:47Z</time>
      </trkpt>
      <trkpt lat="46.06556" lon="6.33276">
        <ele>482.24</ele>
        <time>2020-04-25T13:41:48Z</time>
      </trkpt>
      <trkpt lat="46.06553" lon="6.33261">
        <ele>482.72</ele>
        <time>2020-04-25T13:41:49Z</time>
      </trkpt>
      <trkpt lat="46.06557" lon="6.33248">
        <ele>483.2</ele>
        <time>2020-04-25T13:41:50Z</time>
      </trkpt>
      <trkpt lat="46.0656" lon="6.33233">
        <ele>483.68</ele>
        <time>2020-04-25T13:41:51Z</time>
      </trkpt>
      <trkpt lat="46.0656" lon="6.33217">
        <ele>484.16</ele>
        <time>2020-04-25T13:41:52Z</time>
      </trkpt>
      <trkpt lat="46.06559" lon="6.33201">
        <ele>483.68</ele>
        <time>2020-04-25T13:41:53Z</time>
      </trkpt>
      <trkpt lat="46.06551" lon="6.33181">
        <ele>483.68</ele>
        <time>2020-04-25T13:41:54Z</time>
      </trkpt>
      <trkpt lat="46.06542" lon="6.33162">
        <ele>482.72</ele>
        <time>2020-04-25T13:41:55Z</time>
      </trkpt>
      <trkpt lat="46.06531" lon="6.33141">
        <ele>482.24</ele>
        <time>2020-04-25T13:41:56Z</time>
      </trkpt>
      <trkpt lat="46.06518" lon="6.33117">
        <ele>481.76</ele>
        <time>2020-04-25T13:41:57Z</time>
      </trkpt>
      <trkpt lat="46.06464" lon="6.33018">
        <ele>481.28</ele>
        <time>2020-04-25T13:42:02Z</time>
      </trkpt>
      <trkpt lat="46.06456" lon="6.33001">
        <ele>481.76</ele>
        <time>2020-04-25T13:42:03Z</time>
      </trkpt>
      <trkpt lat="46.06444" lon="6.32992">
        <ele>481.76</ele>
        <time>2020-04-25T13:42:04Z</time>
      </trkpt>
      <trkpt lat="46.06431" lon="6.32985">
        <ele>482.72</ele>
        <time>2020-04-25T13:42:05Z</time>
      </trkpt>
      <trkpt lat="46.06422" lon="6.3298">
        <ele>483.2</ele>
        <time>2020-04-25T13:42:06Z</time>
      </trkpt>
      <trkpt lat="46.06406" lon="6.32981">
        <ele>483.2</ele>
        <time>2020-04-25T13:42:07Z</time>
      </trkpt>
      <trkpt lat="46.06392" lon="6.32982">
        <ele>483.68</ele>
        <time>2020-04-25T13:42:08Z</time>
      </trkpt>
      <trkpt lat="46.06378" lon="6.32983">
        <ele>484.16</ele>
        <time>2020-04-25T13:42:09Z</time>
      </trkpt>
      <trkpt lat="46.06365" lon="6.32984">
        <ele>484.64</ele>
        <time>2020-04-25T13:42:10Z</time>
      </trkpt>
      <trkpt lat="46.06354" lon="6.32983">
        <ele>485.12</ele>
        <time>2020-04-25T13:42:11Z</time>
      </trkpt>
      <trkpt lat="46.0634" lon="6.32977">
        <ele>486.56</ele>
        <time>2020-04-25T13:42:13Z</time>
      </trkpt>
      <trkpt lat="46.06336" lon="6.32975">
        <ele>487.05</ele>
        <time>2020-04-25T13:42:14Z</time>
      </trkpt>
      <trkpt lat="46.06332" lon="6.32974">
        <ele>487.53</ele>
        <time>2020-04-25T13:42:15Z</time>
      </trkpt>
      <trkpt lat="46.06329" lon="6.32962">
        <ele>488.49</ele>
        <time>2020-04-25T13:42:16Z</time>
      </trkpt>
      <trkpt lat="46.06331" lon="6.32953">
        <ele>488.97</ele>
        <time>2020-04-25T13:42:17Z</time>
      </trkpt>
      <trkpt lat="46.06331" lon="6.32939">
        <ele>489.93</ele>
        <time>2020-04-25T13:42:18Z</time>
      </trkpt>
      <trkpt lat="46.06329" lon="6.32923">
        <ele>490.41</ele>
        <time>2020-04-25T13:42:19Z</time>
      </trkpt>
      <trkpt lat="46.06328" lon="6.32903">
        <ele>491.37</ele>
        <time>2020-04-25T13:42:20Z</time>
      </trkpt>
      <trkpt lat="46.06326" lon="6.32883">
        <ele>492.81</ele>
        <time>2020-04-25T13:42:21Z</time>
      </trkpt>
      <trkpt lat="46.06325" lon="6.32864">
        <ele>494.26</ele>
        <time>2020-04-25T13:42:22Z</time>
      </trkpt>
      <trkpt lat="46.06326" lon="6.32842">
        <ele>495.7</ele>
        <time>2020-04-25T13:42:23Z</time>
      </trkpt>
      <trkpt lat="46.06327" lon="6.32798">
        <ele>498.1</ele>
        <time>2020-04-25T13:42:25Z</time>
      </trkpt>
      <trkpt lat="46.06325" lon="6.32776">
        <ele>499.54</ele>
        <time>2020-04-25T13:42:26Z</time>
      </trkpt>
      <trkpt lat="46.06324" lon="6.32754">
        <ele>500.5</ele>
        <time>2020-04-25T13:42:27Z</time>
      </trkpt>
      <trkpt lat="46.06283" lon="6.32581">
        <ele>511.08</ele>
        <time>2020-04-25T13:42:35Z</time>
      </trkpt>
      <trkpt lat="46.06269" lon="6.32526">
        <ele>514.92</ele>
        <time>2020-04-25T13:42:38Z</time>
      </trkpt>
      <trkpt lat="46.06261" lon="6.32409">
        <ele>524.54</ele>
        <time>2020-04-25T13:42:46Z</time>
      </trkpt>
      <trkpt lat="46.06261" lon="6.32397">
        <ele>525.5</ele>
        <time>2020-04-25T13:42:47Z</time>
      </trkpt>
      <trkpt lat="46.06261" lon="6.32384">
        <ele>525.98</ele>
        <time>2020-04-25T13:42:48Z</time>
      </trkpt>
      <trkpt lat="46.06266" lon="6.32227">
        <ele>528.38</ele>
        <time>2020-04-25T13:42:58Z</time>
      </trkpt>
      <trkpt lat="46.06266" lon="6.32211">
        <ele>528.38</ele>
        <time>2020-04-25T13:42:59Z</time>
      </trkpt>
      <trkpt lat="46.06264" lon="6.32165">
        <ele>528.86</ele>
        <time>2020-04-25T13:43:02Z</time>
      </trkpt>
      <trkpt lat="46.06247" lon="6.32078">
        <ele>529.82</ele>
        <time>2020-04-25T13:43:08Z</time>
      </trkpt>
      <trkpt lat="46.06243" lon="6.32066">
        <ele>529.82</ele>
        <time>2020-04-25T13:43:09Z</time>
      </trkpt>
      <trkpt lat="46.0621" lon="6.31979">
        <ele>534.15</ele>
        <time>2020-04-25T13:43:19Z</time>
      </trkpt>
      <trkpt lat="46.06174" lon="6.31903">
        <ele>536.07</ele>
        <time>2020-04-25T13:43:29Z</time>
      </trkpt>
      <trkpt lat="46.0614" lon="6.31842">
        <ele>541.84</ele>
        <time>2020-04-25T13:43:33Z</time>
      </trkpt>
      <trkpt lat="46.06131" lon="6.31832">
        <ele>543.76</ele>
        <time>2020-04-25T13:43:34Z</time>
      </trkpt>
      <trkpt lat="46.06124" lon="6.31823">
        <ele>545.2</ele>
        <time>2020-04-25T13:43:35Z</time>
      </trkpt>
      <trkpt lat="46.06116" lon="6.31814">
        <ele>547.13</ele>
        <time>2020-04-25T13:43:36Z</time>
      </trkpt>
      <trkpt lat="46.06109" lon="6.31806">
        <ele>548.57</ele>
        <time>2020-04-25T13:43:37Z</time>
      </trkpt>
      <trkpt lat="46.06098" lon="6.31793">
        <ele>551.93</ele>
        <time>2020-04-25T13:43:39Z</time>
      </trkpt>
      <trkpt lat="46.0609" lon="6.31784">
        <ele>555.3</ele>
        <time>2020-04-25T13:43:41Z</time>
      </trkpt>
      <trkpt lat="46.06088" lon="6.31769">
        <ele>557.22</ele>
        <time>2020-04-25T13:43:42Z</time>
      </trkpt>
      <trkpt lat="46.06088" lon="6.31753">
        <ele>558.18</ele>
        <time>2020-04-25T13:43:43Z</time>
      </trkpt>
      <trkpt lat="46.06065" lon="6.31692">
        <ele>559.14</ele>
        <time>2020-04-25T13:43:46Z</time>
      </trkpt>
      <trkpt lat="46.0604" lon="6.31639">
        <ele>558.66</ele>
        <time>2020-04-25T13:43:49Z</time>
      </trkpt>
      <trkpt lat="46.06037" lon="6.31627">
        <ele>558.18</ele>
        <time>2020-04-25T13:43:50Z</time>
      </trkpt>
      <trkpt lat="46.06037" lon="6.31612">
        <ele>557.7</ele>
        <time>2020-04-25T13:43:51Z</time>
      </trkpt>
      <trkpt lat="46.06042" lon="6.31599">
        <ele>557.22</ele>
        <time>2020-04-25T13:43:52Z</time>
      </trkpt>
      <trkpt lat="46.06047" lon="6.31585">
        <ele>556.74</ele>
        <time>2020-04-25T13:43:53Z</time>
      </trkpt>
      <trkpt lat="46.06056" lon="6.31576">
        <ele>556.26</ele>
        <time>2020-04-25T13:43:54Z</time>
      </trkpt>
      <trkpt lat="46.06065" lon="6.31568">
        <ele>555.78</ele>
        <time>2020-04-25T13:43:55Z</time>
      </trkpt>
      <trkpt lat="46.06076" lon="6.31567">
        <ele>555.78</ele>
        <time>2020-04-25T13:43:56Z</time>
      </trkpt>
      <trkpt lat="46.06087" lon="6.31572">
        <ele>555.3</ele>
        <time>2020-04-25T13:43:57Z</time>
      </trkpt>
      <trkpt lat="46.06098" lon="6.3158">
        <ele>555.3</ele>
        <time>2020-04-25T13:43:58Z</time>
      </trkpt>
      <trkpt lat="46.0611" lon="6.3159">
        <ele>555.3</ele>
        <time>2020-04-25T13:43:59Z</time>
      </trkpt>
      <trkpt lat="46.06183" lon="6.31637">
        <ele>557.22</ele>
        <time>2020-04-25T13:44:05Z</time>
      </trkpt>
      <trkpt lat="46.06192" lon="6.3164">
        <ele>558.18</ele>
        <time>2020-04-25T13:44:06Z</time>
      </trkpt>
      <trkpt lat="46.06204" lon="6.31637">
        <ele>558.18</ele>
        <time>2020-04-25T13:44:07Z</time>
      </trkpt>
      <trkpt lat="46.06216" lon="6.31634">
        <ele>558.66</ele>
        <time>2020-04-25T13:44:08Z</time>
      </trkpt>
      <trkpt lat="46.06227" lon="6.31629">
        <ele>558.66</ele>
        <time>2020-04-25T13:44:09Z</time>
      </trkpt>
      <trkpt lat="46.0625" lon="6.31618">
        <ele>558.18</ele>
        <time>2020-04-25T13:44:11Z</time>
      </trkpt>
      <trkpt lat="46.0626" lon="6.3161">
        <ele>557.7</ele>
        <time>2020-04-25T13:44:12Z</time>
      </trkpt>
      <trkpt lat="46.06269" lon="6.316">
        <ele>557.22</ele>
        <time>2020-04-25T13:44:13Z</time>
      </trkpt>
      <trkpt lat="46.06278" lon="6.31588">
        <ele>556.74</ele>
        <time>2020-04-25T13:44:14Z</time>
      </trkpt>
      <trkpt lat="46.06286" lon="6.31576">
        <ele>556.26</ele>
        <time>2020-04-25T13:44:15Z</time>
      </trkpt>
      <trkpt lat="46.0635" lon="6.31483">
        <ele>553.86</ele>
        <time>2020-04-25T13:44:24Z</time>
      </trkpt>
      <trkpt lat="46.06358" lon="6.31466">
        <ele>553.38</ele>
        <time>2020-04-25T13:44:26Z</time>
      </trkpt>
      <trkpt lat="46.06362" lon="6.31456">
        <ele>552.9</ele>
        <time>2020-04-25T13:44:27Z</time>
      </trkpt>
      <trkpt lat="46.06366" lon="6.31444">
        <ele>552.41</ele>
        <time>2020-04-25T13:44:28Z</time>
      </trkpt>
      <trkpt lat="46.06369" lon="6.31432">
        <ele>551.93</ele>
        <time>2020-04-25T13:44:29Z</time>
      </trkpt>
      <trkpt lat="46.06373" lon="6.3142">
        <ele>551.93</ele>
        <time>2020-04-25T13:44:30Z</time>
      </trkpt>
      <trkpt lat="46.06391" lon="6.3134">
        <ele>551.45</ele>
        <time>2020-04-25T13:44:36Z</time>
      </trkpt>
      <trkpt lat="46.06438" lon="6.31168">
        <ele>551.93</ele>
        <time>2020-04-25T13:44:46Z</time>
      </trkpt>
      <trkpt lat="46.06458" lon="6.31111">
        <ele>553.86</ele>
        <time>2020-04-25T13:44:51Z</time>
      </trkpt>
      <trkpt lat="46.0646" lon="6.31107">
        <ele>553.86</ele>
        <time>2020-04-25T13:44:52Z</time>
      </trkpt>
      <trkpt lat="46.0646" lon="6.31105">
        <ele>553.86</ele>
        <time>2020-04-25T13:44:53Z</time>
      </trkpt>
      <trkpt lat="46.06476" lon="6.31088">
        <ele>555.3</ele>
        <time>2020-04-25T13:44:58Z</time>
      </trkpt>
      <trkpt lat="46.06483" lon="6.31088">
        <ele>555.3</ele>
        <time>2020-04-25T13:44:59Z</time>
      </trkpt>
      <trkpt lat="46.0649" lon="6.31088">
        <ele>555.78</ele>
        <time>2020-04-25T13:45:00Z</time>
      </trkpt>
      <trkpt lat="46.06497" lon="6.31088">
        <ele>556.26</ele>
        <time>2020-04-25T13:45:01Z</time>
      </trkpt>
      <trkpt lat="46.06505" lon="6.31088">
        <ele>556.26</ele>
        <time>2020-04-25T13:45:02Z</time>
      </trkpt>
      <trkpt lat="46.06514" lon="6.31088">
        <ele>556.74</ele>
        <time>2020-04-25T13:45:03Z</time>
      </trkpt>
      <trkpt lat="46.06581" lon="6.31094">
        <ele>554.82</ele>
        <time>2020-04-25T13:45:13Z</time>
      </trkpt>
      <trkpt lat="46.06584" lon="6.31095">
        <ele>554.82</ele>
        <time>2020-04-25T13:45:14Z</time>
      </trkpt>
      <trkpt lat="46.06588" lon="6.31096">
        <ele>554.82</ele>
        <time>2020-04-25T13:45:15Z</time>
      </trkpt>
      <trkpt lat="46.06592" lon="6.31097">
        <ele>554.34</ele>
        <time>2020-04-25T13:45:16Z</time>
      </trkpt>
      <trkpt lat="46.06594" lon="6.31097">
        <ele>554.82</ele>
        <time>2020-04-25T13:45:17Z</time>
      </trkpt>
      <trkpt lat="46.06598" lon="6.31092">
        <ele>555.3</ele>
        <time>2020-04-25T13:45:18Z</time>
      </trkpt>
      <trkpt lat="46.066" lon="6.31084">
        <ele>555.3</ele>
        <time>2020-04-25T13:45:19Z</time>
      </trkpt>
      <trkpt lat="46.06601" lon="6.31073">
        <ele>555.3</ele>
        <time>2020-04-25T13:45:20Z</time>
      </trkpt>
      <trkpt lat="46.06603" lon="6.31061">
        <ele>554.82</ele>
        <time>2020-04-25T13:45:21Z</time>
      </trkpt>
      <trkpt lat="46.06605" lon="6.31037">
        <ele>553.38</ele>
        <time>2020-04-25T13:45:23Z</time>
      </trkpt>
      <trkpt lat="46.06623" lon="6.30948">
        <ele>552.9</ele>
        <time>2020-04-25T13:45:32Z</time>
      </trkpt>
      <trkpt lat="46.06633" lon="6.30912">
        <ele>552.9</ele>
        <time>2020-04-25T13:45:36Z</time>
      </trkpt>
      <trkpt lat="46.06639" lon="6.30906">
        <ele>552.9</ele>
        <time>2020-04-25T13:45:37Z</time>
      </trkpt>
      <trkpt lat="46.06649" lon="6.30911">
        <ele>552.9</ele>
        <time>2020-04-25T13:45:38Z</time>
      </trkpt>
      <trkpt lat="46.0666" lon="6.30909">
        <ele>551.93</ele>
        <time>2020-04-25T13:45:39Z</time>
      </trkpt>
      <trkpt lat="46.06671" lon="6.30906">
        <ele>551.45</ele>
        <time>2020-04-25T13:45:40Z</time>
      </trkpt>
      <trkpt lat="46.0669" lon="6.30901">
        <ele>550.97</ele>
        <time>2020-04-25T13:45:42Z</time>
      </trkpt>
      <trkpt lat="46.06699" lon="6.3089">
        <ele>550.01</ele>
        <time>2020-04-25T13:45:43Z</time>
      </trkpt>
      <trkpt lat="46.06706" lon="6.30879">
        <ele>549.05</ele>
        <time>2020-04-25T13:45:44Z</time>
      </trkpt>
      <trkpt lat="46.06743" lon="6.30821">
        <ele>547.61</ele>
        <time>2020-04-25T13:45:50Z</time>
      </trkpt>
      <trkpt lat="46.06747" lon="6.30816">
        <ele>547.61</ele>
        <time>2020-04-25T13:45:51Z</time>
      </trkpt>
      <trkpt lat="46.06749" lon="6.30812">
        <ele>547.61</ele>
        <time>2020-04-25T13:45:52Z</time>
      </trkpt>
      <trkpt lat="46.06751" lon="6.3081">
        <ele>547.61</ele>
        <time>2020-04-25T13:45:53Z</time>
      </trkpt>
      <trkpt lat="46.06751" lon="6.3081">
        <ele>547.61</ele>
        <time>2020-04-25T13:46:04Z</time>
      </trkpt>
    </trkseg>
  </trk>
  <trk>
    <name><![CDATA[Journal actif: 2020-05-06 12:54]]></name>
    <trkseg>
      <trkpt lat="46.07432" lon="6.31472">
        <ele>510.6</ele>
        <time>2020-05-06T10:54:45Z</time>
      </trkpt>
      <trkpt lat="46.0743" lon="6.31462">
        <ele>522.61</ele>
        <time>2020-05-06T10:54:47Z</time>
      </trkpt>
      <trkpt lat="46.07429" lon="6.31464">
        <ele>524.06</ele>
        <time>2020-05-06T10:54:48Z</time>
      </trkpt>
      <trkpt lat="46.07428" lon="6.31465">
        <ele>525.02</ele>
        <time>2020-05-06T10:54:49Z</time>
      </trkpt>
      <trkpt lat="46.0743" lon="6.31469">
        <ele>526.94</ele>
        <time>2020-05-06T10:54:50Z</time>
      </trkpt>
      <trkpt lat="46.07433" lon="6.31473">
        <ele>526.94</ele>
        <time>2020-05-06T10:54:51Z</time>
      </trkpt>
      <trkpt lat="46.07428" lon="6.31465">
        <ele>525.98</ele>
        <time>2020-05-06T10:54:52Z</time>
      </trkpt>
      <trkpt lat="46.0743" lon="6.31462">
        <ele>525.98</ele>
        <time>2020-05-06T10:54:53Z</time>
      </trkpt>
      <trkpt lat="46.07443" lon="6.3147">
        <ele>525.98</ele>
        <time>2020-05-06T10:54:54Z</time>
      </trkpt>
      <trkpt lat="46.07448" lon="6.31462">
        <ele>526.46</ele>
        <time>2020-05-06T10:54:55Z</time>
      </trkpt>
      <trkpt lat="46.07451" lon="6.31455">
        <ele>526.46</ele>
        <time>2020-05-06T10:54:56Z</time>
      </trkpt>
      <trkpt lat="46.0745" lon="6.31445">
        <ele>526.46</ele>
        <time>2020-05-06T10:54:57Z</time>
      </trkpt>
      <trkpt lat="46.07449" lon="6.31435">
        <ele>526.46</ele>
        <time>2020-05-06T10:54:58Z</time>
      </trkpt>
      <trkpt lat="46.07444" lon="6.31425">
        <ele>526.94</ele>
        <time>2020-05-06T10:54:59Z</time>
      </trkpt>
      <trkpt lat="46.07439" lon="6.31414">
        <ele>526.94</ele>
        <time>2020-05-06T10:55:00Z</time>
      </trkpt>
      <trkpt lat="46.07443" lon="6.31379">
        <ele>526.94</ele>
        <time>2020-05-06T10:55:01Z</time>
      </trkpt>
      <trkpt lat="46.07443" lon="6.31379">
        <ele>526.94</ele>
        <time>2020-05-06T10:55:02Z</time>
      </trkpt>
      <trkpt lat="46.07444" lon="6.31362">
        <ele>526.94</ele>
        <time>2020-05-06T10:55:03Z</time>
      </trkpt>
      <trkpt lat="46.0744" lon="6.31351">
        <ele>527.42</ele>
        <time>2020-05-06T10:55:04Z</time>
      </trkpt>
      <trkpt lat="46.07434" lon="6.3134">
        <ele>527.42</ele>
        <time>2020-05-06T10:55:05Z</time>
      </trkpt>
      <trkpt lat="46.07428" lon="6.31334">
        <ele>527.42</ele>
        <time>2020-05-06T10:55:06Z</time>
      </trkpt>
      <trkpt lat="46.07419" lon="6.31333">
        <ele>527.42</ele>
        <time>2020-05-06T10:55:07Z</time>
      </trkpt>
      <trkpt lat="46.0741" lon="6.31333">
        <ele>526.94</ele>
        <time>2020-05-06T10:55:08Z</time>
      </trkpt>
      <trkpt lat="46.07402" lon="6.31341">
        <ele>526.94</ele>
        <time>2020-05-06T10:55:09Z</time>
      </trkpt>
      <trkpt lat="46.07396" lon="6.31353">
        <ele>527.42</ele>
        <time>2020-05-06T10:55:10Z</time>
      </trkpt>
      <trkpt lat="46.07394" lon="6.31364">
        <ele>526.94</ele>
        <time>2020-05-06T10:55:11Z</time>
      </trkpt>
      <trkpt lat="46.07397" lon="6.3138">
        <ele>526.46</ele>
        <time>2020-05-06T10:55:12Z</time>
      </trkpt>
      <trkpt lat="46.074" lon="6.31394">
        <ele>526.46</ele>
        <time>2020-05-06T10:55:13Z</time>
      </trkpt>
      <trkpt lat="46.07394" lon="6.31411">
        <ele>526.46</ele>
        <time>2020-05-06T10:55:14Z</time>
      </trkpt>
      <trkpt lat="46.07389" lon="6.31426">
        <ele>525.98</ele>
        <time>2020-05-06T10:55:15Z</time>
      </trkpt>
      <trkpt lat="46.07383" lon="6.31441">
        <ele>525.5</ele>
        <time>2020-05-06T10:55:16Z</time>
      </trkpt>
      <trkpt lat="46.07374" lon="6.31459">
        <ele>525.02</ele>
        <time>2020-05-06T10:55:17Z</time>
      </trkpt>
      <trkpt lat="46.07361" lon="6.31474">
        <ele>524.54</ele>
        <time>2020-05-06T10:55:18Z</time>
      </trkpt>
      <trkpt lat="46.07346" lon="6.3149">
        <ele>524.06</ele>
        <time>2020-05-06T10:55:19Z</time>
      </trkpt>
      <trkpt lat="46.07243" lon="6.31631">
        <ele>521.17</ele>
        <time>2020-05-06T10:55:25Z</time>
      </trkpt>
      <trkpt lat="46.07097" lon="6.31875">
        <ele>519.25</ele>
        <time>2020-05-06T10:55:34Z</time>
      </trkpt>
      <trkpt lat="46.07033" lon="6.32056">
        <ele>517.33</ele>
        <time>2020-05-06T10:55:40Z</time>
      </trkpt>
      <trkpt lat="46.07029" lon="6.32087">
        <ele>517.33</ele>
        <time>2020-05-06T10:55:41Z</time>
      </trkpt>
      <trkpt lat="46.07027" lon="6.32119">
        <ele>516.85</ele>
        <time>2020-05-06T10:55:42Z</time>
      </trkpt>
      <trkpt lat="46.07026" lon="6.3215">
        <ele>516.85</ele>
        <time>2020-05-06T10:55:43Z</time>
      </trkpt>
      <trkpt lat="46.07025" lon="6.32182">
        <ele>516.85</ele>
        <time>2020-05-06T10:55:44Z</time>
      </trkpt>
      <trkpt lat="46.07029" lon="6.32213">
        <ele>516.85</ele>
        <time>2020-05-06T10:55:45Z</time>
      </trkpt>
      <trkpt lat="46.07033" lon="6.32244">
        <ele>516.85</ele>
        <time>2020-05-06T10:55:46Z</time>
      </trkpt>
      <trkpt lat="46.07039" lon="6.32275">
        <ele>516.37</ele>
        <time>2020-05-06T10:55:47Z</time>
      </trkpt>
      <trkpt lat="46.07047" lon="6.32305">
        <ele>515.88</ele>
        <time>2020-05-06T10:55:48Z</time>
      </trkpt>
      <trkpt lat="46.071" lon="6.32557">
        <ele>507.23</ele>
        <time>2020-05-06T10:55:57Z</time>
      </trkpt>
      <trkpt lat="46.07113" lon="6.32711">
        <ele>500.98</ele>
        <time>2020-05-06T10:56:04Z</time>
      </trkpt>
      <trkpt lat="46.07114" lon="6.32727">
        <ele>500.02</ele>
        <time>2020-05-06T10:56:05Z</time>
      </trkpt>
      <trkpt lat="46.07114" lon="6.32739">
        <ele>499.06</ele>
        <time>2020-05-06T10:56:06Z</time>
      </trkpt>
      <trkpt lat="46.07108" lon="6.32761">
        <ele>497.14</ele>
        <time>2020-05-06T10:56:08Z</time>
      </trkpt>
      <trkpt lat="46.07111" lon="6.32772">
        <ele>496.18</ele>
        <time>2020-05-06T10:56:09Z</time>
      </trkpt>
      <trkpt lat="46.07117" lon="6.32781">
        <ele>495.7</ele>
        <time>2020-05-06T10:56:10Z</time>
      </trkpt>
      <trkpt lat="46.07125" lon="6.32782">
        <ele>495.7</ele>
        <time>2020-05-06T10:56:11Z</time>
      </trkpt>
      <trkpt lat="46.07133" lon="6.32778">
        <ele>495.7</ele>
        <time>2020-05-06T10:56:12Z</time>
      </trkpt>
      <trkpt lat="46.07136" lon="6.32776">
        <ele>496.18</ele>
        <time>2020-05-06T10:56:13Z</time>
      </trkpt>
      <trkpt lat="46.0715" lon="6.32754">
        <ele>496.66</ele>
        <time>2020-05-06T10:56:14Z</time>
      </trkpt>
      <trkpt lat="46.07161" lon="6.32744">
        <ele>496.66</ele>
        <time>2020-05-06T10:56:15Z</time>
      </trkpt>
      <trkpt lat="46.07171" lon="6.32733">
        <ele>496.18</ele>
        <time>2020-05-06T10:56:16Z</time>
      </trkpt>
      <trkpt lat="46.07216" lon="6.32664">
        <ele>492.81</ele>
        <time>2020-05-06T10:56:22Z</time>
      </trkpt>
      <trkpt lat="46.07221" lon="6.32657">
        <ele>492.33</ele>
        <time>2020-05-06T10:56:23Z</time>
      </trkpt>
      <trkpt lat="46.07225" lon="6.32651">
        <ele>491.85</ele>
        <time>2020-05-06T10:56:24Z</time>
      </trkpt>
      <trkpt lat="46.07235" lon="6.32647">
        <ele>491.85</ele>
        <time>2020-05-06T10:56:25Z</time>
      </trkpt>
      <trkpt lat="46.07234" lon="6.32638">
        <ele>491.37</ele>
        <time>2020-05-06T10:56:26Z</time>
      </trkpt>
      <trkpt lat="46.07224" lon="6.32634">
        <ele>490.89</ele>
        <time>2020-05-06T10:56:27Z</time>
      </trkpt>
      <trkpt lat="46.07221" lon="6.32629">
        <ele>490.41</ele>
        <time>2020-05-06T10:56:28Z</time>
      </trkpt>
      <trkpt lat="46.07215" lon="6.32621">
        <ele>490.41</ele>
        <time>2020-05-06T10:56:29Z</time>
      </trkpt>
      <trkpt lat="46.07209" lon="6.32611">
        <ele>490.89</ele>
        <time>2020-05-06T10:56:30Z</time>
      </trkpt>
      <trkpt lat="46.07204" lon="6.32599">
        <ele>491.37</ele>
        <time>2020-05-06T10:56:31Z</time>
      </trkpt>
      <trkpt lat="46.07198" lon="6.32587">
        <ele>491.85</ele>
        <time>2020-05-06T10:56:32Z</time>
      </trkpt>
      <trkpt lat="46.07195" lon="6.32574">
        <ele>492.81</ele>
        <time>2020-05-06T10:56:33Z</time>
      </trkpt>
      <trkpt lat="46.07193" lon="6.32558">
        <ele>493.77</ele>
        <time>2020-05-06T10:56:34Z</time>
      </trkpt>
      <trkpt lat="46.07191" lon="6.32542">
        <ele>494.74</ele>
        <time>2020-05-06T10:56:35Z</time>
      </trkpt>
      <trkpt lat="46.0719" lon="6.32527">
        <ele>495.22</ele>
        <time>2020-05-06T10:56:36Z</time>
      </trkpt>
      <trkpt lat="46.07188" lon="6.32518">
        <ele>496.18</ele>
        <time>2020-05-06T10:56:37Z</time>
      </trkpt>
      <trkpt lat="46.07186" lon="6.3251">
        <ele>496.18</ele>
        <time>2020-05-06T10:56:38Z</time>
      </trkpt>
      <trkpt lat="46.07185" lon="6.32506">
        <ele>497.14</ele>
        <time>2020-05-06T10:56:39Z</time>
      </trkpt>
      <trkpt lat="46.07175" lon="6.32506">
        <ele>497.62</ele>
        <time>2020-05-06T10:56:40Z</time>
      </trkpt>
      <trkpt lat="46.07173" lon="6.32513">
        <ele>498.1</ele>
        <time>2020-05-06T10:56:41Z</time>
      </trkpt>
      <trkpt lat="46.07169" lon="6.32522">
        <ele>498.58</ele>
        <time>2020-05-06T10:56:42Z</time>
      </trkpt>
      <trkpt lat="46.07165" lon="6.32532">
        <ele>499.54</ele>
        <time>2020-05-06T10:56:43Z</time>
      </trkpt>
      <trkpt lat="46.07162" lon="6.32539">
        <ele>500.02</ele>
        <time>2020-05-06T10:56:44Z</time>
      </trkpt>
      <trkpt lat="46.0716" lon="6.32544">
        <ele>500.98</ele>
        <time>2020-05-06T10:56:45Z</time>
      </trkpt>
      <trkpt lat="46.07159" lon="6.32548">
        <ele>501.46</ele>
        <time>2020-05-06T10:56:46Z</time>
      </trkpt>
      <trkpt lat="46.07158" lon="6.3255">
        <ele>501.95</ele>
        <time>2020-05-06T10:56:47Z</time>
      </trkpt>
      <trkpt lat="46.0715" lon="6.32559">
        <ele>502.43</ele>
        <time>2020-05-06T10:56:48Z</time>
      </trkpt>
      <trkpt lat="46.07157" lon="6.32552">
        <ele>502.43</ele>
        <time>2020-05-06T10:56:49Z</time>
      </trkpt>
      <trkpt lat="46.07157" lon="6.32552">
        <ele>502.91</ele>
        <time>2020-05-06T10:56:58Z</time>
      </trkpt>
      <trkpt lat="46.07166" lon="6.3255">
        <ele>497.62</ele>
        <time>2020-05-06T11:10:39Z</time>
      </trkpt>
      <trkpt lat="46.07165" lon="6.3255">
        <ele>510.6</ele>
        <time>2020-05-06T11:10:53Z</time>
      </trkpt>
      <trkpt lat="46.07157" lon="6.32551">
        <ele>510.6</ele>
        <time>2020-05-06T11:10:55Z</time>
      </trkpt>
      <trkpt lat="46.07155" lon="6.32558">
        <ele>510.12</ele>
        <time>2020-05-06T11:10:56Z</time>
      </trkpt>
      <trkpt lat="46.07147" lon="6.32594">
        <ele>506.75</ele>
        <time>2020-05-06T11:10:59Z</time>
      </trkpt>
      <trkpt lat="46.07138" lon="6.32613">
        <ele>505.79</ele>
        <time>2020-05-06T11:11:00Z</time>
      </trkpt>
      <trkpt lat="46.0713" lon="6.32602">
        <ele>505.31</ele>
        <time>2020-05-06T11:11:01Z</time>
      </trkpt>
      <trkpt lat="46.07136" lon="6.32622">
        <ele>504.35</ele>
        <time>2020-05-06T11:11:02Z</time>
      </trkpt>
      <trkpt lat="46.07132" lon="6.32638">
        <ele>503.39</ele>
        <time>2020-05-06T11:11:03Z</time>
      </trkpt>
      <trkpt lat="46.0713" lon="6.32657">
        <ele>501.95</ele>
        <time>2020-05-06T11:11:04Z</time>
      </trkpt>
      <trkpt lat="46.07133" lon="6.32686">
        <ele>500.02</ele>
        <time>2020-05-06T11:11:06Z</time>
      </trkpt>
      <trkpt lat="46.07139" lon="6.32698">
        <ele>499.54</ele>
        <time>2020-05-06T11:11:07Z</time>
      </trkpt>
      <trkpt lat="46.07146" lon="6.32705">
        <ele>498.1</ele>
        <time>2020-05-06T11:11:08Z</time>
      </trkpt>
      <trkpt lat="46.07154" lon="6.32712">
        <ele>497.62</ele>
        <time>2020-05-06T11:11:09Z</time>
      </trkpt>
      <trkpt lat="46.07163" lon="6.32707">
        <ele>496.18</ele>
        <time>2020-05-06T11:11:10Z</time>
      </trkpt>
      <trkpt lat="46.07169" lon="6.32701">
        <ele>494.74</ele>
        <time>2020-05-06T11:11:11Z</time>
      </trkpt>
      <trkpt lat="46.07177" lon="6.32695">
        <ele>493.77</ele>
        <time>2020-05-06T11:11:12Z</time>
      </trkpt>
      <trkpt lat="46.07183" lon="6.32686">
        <ele>492.81</ele>
        <time>2020-05-06T11:11:13Z</time>
      </trkpt>
      <trkpt lat="46.0719" lon="6.32673">
        <ele>492.33</ele>
        <time>2020-05-06T11:11:14Z</time>
      </trkpt>
      <trkpt lat="46.07196" lon="6.32663">
        <ele>491.85</ele>
        <time>2020-05-06T11:11:15Z</time>
      </trkpt>
      <trkpt lat="46.07201" lon="6.32653">
        <ele>491.37</ele>
        <time>2020-05-06T11:11:16Z</time>
      </trkpt>
      <trkpt lat="46.07207" lon="6.32643">
        <ele>491.37</ele>
        <time>2020-05-06T11:11:17Z</time>
      </trkpt>
      <trkpt lat="46.07207" lon="6.32635">
        <ele>491.37</ele>
        <time>2020-05-06T11:11:18Z</time>
      </trkpt>
      <trkpt lat="46.07208" lon="6.32627">
        <ele>491.37</ele>
        <time>2020-05-06T11:11:19Z</time>
      </trkpt>
      <trkpt lat="46.07208" lon="6.32624">
        <ele>491.37</ele>
        <time>2020-05-06T11:11:20Z</time>
      </trkpt>
      <trkpt lat="46.07215" lon="6.32621">
        <ele>490.89</ele>
        <time>2020-05-06T11:11:21Z</time>
      </trkpt>
      <trkpt lat="46.07218" lon="6.32625">
        <ele>490.89</ele>
        <time>2020-05-06T11:11:22Z</time>
      </trkpt>
      <trkpt lat="46.07224" lon="6.32634">
        <ele>490.41</ele>
        <time>2020-05-06T11:11:23Z</time>
      </trkpt>
      <trkpt lat="46.07225" lon="6.32641">
        <ele>490.41</ele>
        <time>2020-05-06T11:11:24Z</time>
      </trkpt>
      <trkpt lat="46.07222" lon="6.32656">
        <ele>489.93</ele>
        <time>2020-05-06T11:11:25Z</time>
      </trkpt>
      <trkpt lat="46.07216" lon="6.32664">
        <ele>489.93</ele>
        <time>2020-05-06T11:11:26Z</time>
      </trkpt>
      <trkpt lat="46.07209" lon="6.32675">
        <ele>489.93</ele>
        <time>2020-05-06T11:11:27Z</time>
      </trkpt>
      <trkpt lat="46.07201" lon="6.32687">
        <ele>489.45</ele>
        <time>2020-05-06T11:11:28Z</time>
      </trkpt>
      <trkpt lat="46.07156" lon="6.32748">
        <ele>491.37</ele>
        <time>2020-05-06T11:11:33Z</time>
      </trkpt>
      <trkpt lat="46.07147" lon="6.32757">
        <ele>491.37</ele>
        <time>2020-05-06T11:11:34Z</time>
      </trkpt>
      <trkpt lat="46.07142" lon="6.32759">
        <ele>491.85</ele>
        <time>2020-05-06T11:11:35Z</time>
      </trkpt>
      <trkpt lat="46.07136" lon="6.3275">
        <ele>492.81</ele>
        <time>2020-05-06T11:11:36Z</time>
      </trkpt>
      <trkpt lat="46.07129" lon="6.32745">
        <ele>493.29</ele>
        <time>2020-05-06T11:11:37Z</time>
      </trkpt>
      <trkpt lat="46.07124" lon="6.32734">
        <ele>493.29</ele>
        <time>2020-05-06T11:11:38Z</time>
      </trkpt>
      <trkpt lat="46.07122" lon="6.3272">
        <ele>494.26</ele>
        <time>2020-05-06T11:11:39Z</time>
      </trkpt>
      <trkpt lat="46.07121" lon="6.32703">
        <ele>494.74</ele>
        <time>2020-05-06T11:11:40Z</time>
      </trkpt>
      <trkpt lat="46.07119" lon="6.32682">
        <ele>495.22</ele>
        <time>2020-05-06T11:11:41Z</time>
      </trkpt>
      <trkpt lat="46.07099" lon="6.32506">
        <ele>500.5</ele>
        <time>2020-05-06T11:11:47Z</time>
      </trkpt>
      <trkpt lat="46.07048" lon="6.32307">
        <ele>509.16</ele>
        <time>2020-05-06T11:11:53Z</time>
      </trkpt>
      <trkpt lat="46.07026" lon="6.32193">
        <ele>513.48</ele>
        <time>2020-05-06T11:11:58Z</time>
      </trkpt>
      <trkpt lat="46.07025" lon="6.32174">
        <ele>513.96</ele>
        <time>2020-05-06T11:11:59Z</time>
      </trkpt>
      <trkpt lat="46.07025" lon="6.32158">
        <ele>514.44</ele>
        <time>2020-05-06T11:12:00Z</time>
      </trkpt>
      <trkpt lat="46.07027" lon="6.32119">
        <ele>515.4</ele>
        <time>2020-05-06T11:12:03Z</time>
      </trkpt>
      <trkpt lat="46.07027" lon="6.3211">
        <ele>515.4</ele>
        <time>2020-05-06T11:12:04Z</time>
      </trkpt>
      <trkpt lat="46.07019" lon="6.321">
        <ele>515.4</ele>
        <time>2020-05-06T11:12:05Z</time>
      </trkpt>
      <trkpt lat="46.07012" lon="6.32098">
        <ele>515.4</ele>
        <time>2020-05-06T11:12:06Z</time>
      </trkpt>
      <trkpt lat="46.07003" lon="6.32095">
        <ele>515.4</ele>
        <time>2020-05-06T11:12:07Z</time>
      </trkpt>
      <trkpt lat="46.06995" lon="6.32092">
        <ele>515.88</ele>
        <time>2020-05-06T11:12:08Z</time>
      </trkpt>
      <trkpt lat="46.06988" lon="6.3209">
        <ele>516.37</ele>
        <time>2020-05-06T11:12:09Z</time>
      </trkpt>
      <trkpt lat="46.0698" lon="6.32082">
        <ele>516.37</ele>
        <time>2020-05-06T11:12:10Z</time>
      </trkpt>
      <trkpt lat="46.06976" lon="6.32071">
        <ele>516.85</ele>
        <time>2020-05-06T11:12:11Z</time>
      </trkpt>
      <trkpt lat="46.06972" lon="6.32057">
        <ele>517.33</ele>
        <time>2020-05-06T11:12:12Z</time>
      </trkpt>
      <trkpt lat="46.06932" lon="6.31923">
        <ele>519.73</ele>
        <time>2020-05-06T11:12:20Z</time>
      </trkpt>
      <trkpt lat="46.06926" lon="6.31906">
        <ele>520.21</ele>
        <time>2020-05-06T11:12:21Z</time>
      </trkpt>
      <trkpt lat="46.06893" lon="6.31798">
        <ele>523.58</ele>
        <time>2020-05-06T11:12:27Z</time>
      </trkpt>
      <trkpt lat="46.06825" lon="6.3158">
        <ele>533.67</ele>
        <time>2020-05-06T11:12:39Z</time>
      </trkpt>
      <trkpt lat="46.06789" lon="6.3147">
        <ele>537.99</ele>
        <time>2020-05-06T11:12:46Z</time>
      </trkpt>
      <trkpt lat="46.06772" lon="6.31426">
        <ele>539.44</ele>
        <time>2020-05-06T11:12:49Z</time>
      </trkpt>
      <trkpt lat="46.0676" lon="6.31401">
        <ele>540.4</ele>
        <time>2020-05-06T11:12:51Z</time>
      </trkpt>
      <trkpt lat="46.06752" lon="6.3138">
        <ele>541.84</ele>
        <time>2020-05-06T11:12:53Z</time>
      </trkpt>
      <trkpt lat="46.06751" lon="6.31366">
        <ele>542.32</ele>
        <time>2020-05-06T11:12:54Z</time>
      </trkpt>
      <trkpt lat="46.06751" lon="6.31351">
        <ele>542.8</ele>
        <time>2020-05-06T11:12:55Z</time>
      </trkpt>
      <trkpt lat="46.0675" lon="6.31335">
        <ele>543.28</ele>
        <time>2020-05-06T11:12:56Z</time>
      </trkpt>
      <trkpt lat="46.06746" lon="6.3132">
        <ele>543.76</ele>
        <time>2020-05-06T11:12:57Z</time>
      </trkpt>
      <trkpt lat="46.06742" lon="6.31308">
        <ele>544.24</ele>
        <time>2020-05-06T11:12:58Z</time>
      </trkpt>
      <trkpt lat="46.06739" lon="6.31298">
        <ele>544.72</ele>
        <time>2020-05-06T11:12:59Z</time>
      </trkpt>
      <trkpt lat="46.06736" lon="6.3129">
        <ele>545.2</ele>
        <time>2020-05-06T11:13:00Z</time>
      </trkpt>
      <trkpt lat="46.06733" lon="6.31283">
        <ele>545.69</ele>
        <time>2020-05-06T11:13:01Z</time>
      </trkpt>
      <trkpt lat="46.06734" lon="6.31255">
        <ele>547.13</ele>
        <time>2020-05-06T11:13:03Z</time>
      </trkpt>
      <trkpt lat="46.06726" lon="6.31246">
        <ele>547.13</ele>
        <time>2020-05-06T11:13:04Z</time>
      </trkpt>
      <trkpt lat="46.06725" lon="6.31234">
        <ele>546.65</ele>
        <time>2020-05-06T11:13:05Z</time>
      </trkpt>
      <trkpt lat="46.06716" lon="6.31205">
        <ele>546.65</ele>
        <time>2020-05-06T11:13:07Z</time>
      </trkpt>
      <trkpt lat="46.06707" lon="6.31193">
        <ele>546.65</ele>
        <time>2020-05-06T11:13:08Z</time>
      </trkpt>
      <trkpt lat="46.06698" lon="6.31183">
        <ele>546.65</ele>
        <time>2020-05-06T11:13:09Z</time>
      </trkpt>
      <trkpt lat="46.06689" lon="6.31172">
        <ele>546.65</ele>
        <time>2020-05-06T11:13:10Z</time>
      </trkpt>
      <trkpt lat="46.0668" lon="6.31161">
        <ele>547.13</ele>
        <time>2020-05-06T11:13:11Z</time>
      </trkpt>
      <trkpt lat="46.06653" lon="6.31136">
        <ele>548.09</ele>
        <time>2020-05-06T11:13:14Z</time>
      </trkpt>
      <trkpt lat="46.06613" lon="6.31108">
        <ele>548.09</ele>
        <time>2020-05-06T11:13:19Z</time>
      </trkpt>
      <trkpt lat="46.06607" lon="6.31104">
        <ele>547.61</ele>
        <time>2020-05-06T11:13:20Z</time>
      </trkpt>
      <trkpt lat="46.06602" lon="6.31101">
        <ele>547.13</ele>
        <time>2020-05-06T11:13:21Z</time>
      </trkpt>
      <trkpt lat="46.06598" lon="6.31095">
        <ele>546.65</ele>
        <time>2020-05-06T11:13:22Z</time>
      </trkpt>
      <trkpt lat="46.066" lon="6.31082">
        <ele>545.69</ele>
        <time>2020-05-06T11:13:23Z</time>
      </trkpt>
      <trkpt lat="46.06602" lon="6.31071">
        <ele>546.65</ele>
        <time>2020-05-06T11:13:24Z</time>
      </trkpt>
      <trkpt lat="46.06604" lon="6.31055">
        <ele>549.05</ele>
        <time>2020-05-06T11:13:25Z</time>
      </trkpt>
      <trkpt lat="46.06605" lon="6.31045">
        <ele>551.45</ele>
        <time>2020-05-06T11:13:26Z</time>
      </trkpt>
      <trkpt lat="46.06606" lon="6.31027">
        <ele>553.86</ele>
        <time>2020-05-06T11:13:27Z</time>
      </trkpt>
      <trkpt lat="46.06608" lon="6.31018">
        <ele>556.26</ele>
        <time>2020-05-06T11:13:28Z</time>
      </trkpt>
      <trkpt lat="46.06624" lon="6.30943">
        <ele>567.8</ele>
        <time>2020-05-06T11:13:35Z</time>
      </trkpt>
      <trkpt lat="46.06627" lon="6.30931">
        <ele>567.8</ele>
        <time>2020-05-06T11:13:36Z</time>
      </trkpt>
      <trkpt lat="46.0663" lon="6.30918">
        <ele>567.32</ele>
        <time>2020-05-06T11:13:37Z</time>
      </trkpt>
      <trkpt lat="46.06647" lon="6.30911">
        <ele>567.32</ele>
        <time>2020-05-06T11:13:38Z</time>
      </trkpt>
      <trkpt lat="46.06651" lon="6.30911">
        <ele>567.8</ele>
        <time>2020-05-06T11:13:39Z</time>
      </trkpt>
      <trkpt lat="46.06663" lon="6.30908">
        <ele>568.76</ele>
        <time>2020-05-06T11:13:40Z</time>
      </trkpt>
      <trkpt lat="46.06675" lon="6.30905">
        <ele>570.68</ele>
        <time>2020-05-06T11:13:41Z</time>
      </trkpt>
      <trkpt lat="46.06686" lon="6.30902">
        <ele>573.08</ele>
        <time>2020-05-06T11:13:42Z</time>
      </trkpt>
      <trkpt lat="46.06692" lon="6.30901">
        <ele>575.97</ele>
        <time>2020-05-06T11:13:43Z</time>
      </trkpt>
      <trkpt lat="46.06696" lon="6.30894">
        <ele>577.89</ele>
        <time>2020-05-06T11:13:44Z</time>
      </trkpt>
      <trkpt lat="46.06703" lon="6.30883">
        <ele>579.33</ele>
        <time>2020-05-06T11:13:45Z</time>
      </trkpt>
      <trkpt lat="46.06749" lon="6.30813">
        <ele>582.22</ele>
        <time>2020-05-06T11:13:52Z</time>
      </trkpt>
      <trkpt lat="46.06752" lon="6.30808">
        <ele>581.73</ele>
        <time>2020-05-06T11:13:53Z</time>
      </trkpt>
      <trkpt lat="46.06752" lon="6.30808">
        <ele>581.25</ele>
        <time>2020-05-06T11:13:54Z</time>
      </trkpt>
      <trkpt lat="46.06752" lon="6.30808">
        <ele>580.29</ele>
        <time>2020-05-06T11:14:08Z</time>
      </trkpt>
      <trkpt lat="46.06741" lon="6.30795">
        <ele>578.37</ele>
        <time>2020-05-06T11:14:29Z</time>
      </trkpt>
    </trkseg>
  </trk>
  <trk>
    <name><![CDATA[Journal actif: 2020-05-07 18:21]]></name>
    <trkseg>
      <trkpt lat="46.06909" lon="6.30221">
        <ele>581.73</ele>
        <time>2020-05-07T16:21:05Z</time>
      </trkpt>
      <trkpt lat="46.06969" lon="6.30178">
        <ele>584.14</ele>
        <time>2020-05-07T16:21:09Z</time>
      </trkpt>
      <trkpt lat="46.0698" lon="6.30169">
        <ele>584.14</ele>
        <time>2020-05-07T16:21:10Z</time>
      </trkpt>
      <trkpt lat="46.07045" lon="6.30076">
        <ele>589.43</ele>
        <time>2020-05-07T16:21:18Z</time>
      </trkpt>
      <trkpt lat="46.07055" lon="6.30062">
        <ele>590.39</ele>
        <time>2020-05-07T16:21:20Z</time>
      </trkpt>
      <trkpt lat="46.07059" lon="6.30058">
        <ele>590.87</ele>
        <time>2020-05-07T16:21:21Z</time>
      </trkpt>
      <trkpt lat="46.07063" lon="6.30055">
        <ele>591.35</ele>
        <time>2020-05-07T16:21:22Z</time>
      </trkpt>
      <trkpt lat="46.07078" lon="6.30057">
        <ele>592.31</ele>
        <time>2020-05-07T16:21:23Z</time>
      </trkpt>
      <trkpt lat="46.07078" lon="6.30057">
        <ele>592.79</ele>
        <time>2020-05-07T16:21:24Z</time>
      </trkpt>
      <trkpt lat="46.07082" lon="6.30058">
        <ele>593.27</ele>
        <time>2020-05-07T16:21:25Z</time>
      </trkpt>
      <trkpt lat="46.07091" lon="6.30055">
        <ele>593.27</ele>
        <time>2020-05-07T16:21:26Z</time>
      </trkpt>
      <trkpt lat="46.07096" lon="6.30042">
        <ele>593.75</ele>
        <time>2020-05-07T16:21:27Z</time>
      </trkpt>
      <trkpt lat="46.07166" lon="6.29983">
        <ele>595.67</ele>
        <time>2020-05-07T16:21:33Z</time>
      </trkpt>
      <trkpt lat="46.07197" lon="6.29958">
        <ele>596.64</ele>
        <time>2020-05-07T16:21:36Z</time>
      </trkpt>
      <trkpt lat="46.07207" lon="6.29949">
        <ele>596.64</ele>
        <time>2020-05-07T16:21:37Z</time>
      </trkpt>
      <trkpt lat="46.0723" lon="6.29931">
        <ele>591.83</ele>
        <time>2020-05-07T16:21:39Z</time>
      </trkpt>
      <trkpt lat="46.07271" lon="6.29899">
        <ele>591.83</ele>
        <time>2020-05-07T16:21:43Z</time>
      </trkpt>
      <trkpt lat="46.07282" lon="6.2989">
        <ele>593.27</ele>
        <time>2020-05-07T16:21:44Z</time>
      </trkpt>
      <trkpt lat="46.07291" lon="6.29883">
        <ele>594.71</ele>
        <time>2020-05-07T16:21:45Z</time>
      </trkpt>
      <trkpt lat="46.07333" lon="6.2985">
        <ele>599.52</ele>
        <time>2020-05-07T16:21:52Z</time>
      </trkpt>
      <trkpt lat="46.07392" lon="6.29807">
        <ele>601.44</ele>
        <time>2020-05-07T16:21:59Z</time>
      </trkpt>
      <trkpt lat="46.07493" lon="6.29745">
        <ele>598.08</ele>
        <time>2020-05-07T16:22:07Z</time>
      </trkpt>
      <trkpt lat="46.0752" lon="6.29736">
        <ele>597.6</ele>
        <time>2020-05-07T16:22:09Z</time>
      </trkpt>
      <trkpt lat="46.07535" lon="6.29736">
        <ele>597.12</ele>
        <time>2020-05-07T16:22:10Z</time>
      </trkpt>
      <trkpt lat="46.0755" lon="6.29737">
        <ele>596.64</ele>
        <time>2020-05-07T16:22:11Z</time>
      </trkpt>
      <trkpt lat="46.07565" lon="6.29738">
        <ele>596.15</ele>
        <time>2020-05-07T16:22:12Z</time>
      </trkpt>
      <trkpt lat="46.0758" lon="6.29743">
        <ele>596.15</ele>
        <time>2020-05-07T16:22:13Z</time>
      </trkpt>
      <trkpt lat="46.07595" lon="6.2975">
        <ele>595.19</ele>
        <time>2020-05-07T16:22:14Z</time>
      </trkpt>
      <trkpt lat="46.07625" lon="6.29761">
        <ele>593.75</ele>
        <time>2020-05-07T16:22:16Z</time>
      </trkpt>
      <trkpt lat="46.07642" lon="6.29761">
        <ele>593.27</ele>
        <time>2020-05-07T16:22:17Z</time>
      </trkpt>
      <trkpt lat="46.07658" lon="6.29761">
        <ele>592.31</ele>
        <time>2020-05-07T16:22:18Z</time>
      </trkpt>
      <trkpt lat="46.07674" lon="6.29755">
        <ele>591.83</ele>
        <time>2020-05-07T16:22:19Z</time>
      </trkpt>
      <trkpt lat="46.07689" lon="6.29745">
        <ele>590.87</ele>
        <time>2020-05-07T16:22:20Z</time>
      </trkpt>
      <trkpt lat="46.07705" lon="6.29735">
        <ele>589.43</ele>
        <time>2020-05-07T16:22:21Z</time>
      </trkpt>
      <trkpt lat="46.07748" lon="6.29708">
        <ele>586.06</ele>
        <time>2020-05-07T16:22:24Z</time>
      </trkpt>
      <trkpt lat="46.07765" lon="6.29695">
        <ele>585.1</ele>
        <time>2020-05-07T16:22:25Z</time>
      </trkpt>
      <trkpt lat="46.07796" lon="6.29669">
        <ele>584.14</ele>
        <time>2020-05-07T16:22:28Z</time>
      </trkpt>
      <trkpt lat="46.07802" lon="6.29661">
        <ele>584.14</ele>
        <time>2020-05-07T16:22:29Z</time>
      </trkpt>
      <trkpt lat="46.07807" lon="6.29655">
        <ele>584.62</ele>
        <time>2020-05-07T16:22:30Z</time>
      </trkpt>
      <trkpt lat="46.07812" lon="6.29649">
        <ele>585.1</ele>
        <time>2020-05-07T16:22:31Z</time>
      </trkpt>
      <trkpt lat="46.07816" lon="6.29643">
        <ele>585.1</ele>
        <time>2020-05-07T16:22:32Z</time>
      </trkpt>
      <trkpt lat="46.07818" lon="6.29637">
        <ele>585.1</ele>
        <time>2020-05-07T16:22:33Z</time>
      </trkpt>
      <trkpt lat="46.07821" lon="6.29632">
        <ele>585.58</ele>
        <time>2020-05-07T16:22:34Z</time>
      </trkpt>
      <trkpt lat="46.07818" lon="6.29623">
        <ele>585.58</ele>
        <time>2020-05-07T16:22:35Z</time>
      </trkpt>
      <trkpt lat="46.07813" lon="6.2962">
        <ele>586.06</ele>
        <time>2020-05-07T16:22:36Z</time>
      </trkpt>
      <trkpt lat="46.07807" lon="6.29617">
        <ele>586.54</ele>
        <time>2020-05-07T16:22:37Z</time>
      </trkpt>
      <trkpt lat="46.07801" lon="6.29618">
        <ele>586.54</ele>
        <time>2020-05-07T16:22:38Z</time>
      </trkpt>
      <trkpt lat="46.07794" lon="6.29623">
        <ele>587.5</ele>
        <time>2020-05-07T16:22:39Z</time>
      </trkpt>
      <trkpt lat="46.07785" lon="6.2963">
        <ele>588.46</ele>
        <time>2020-05-07T16:22:40Z</time>
      </trkpt>
      <trkpt lat="46.07776" lon="6.29637">
        <ele>588.95</ele>
        <time>2020-05-07T16:22:41Z</time>
      </trkpt>
      <trkpt lat="46.07759" lon="6.29649">
        <ele>590.39</ele>
        <time>2020-05-07T16:22:43Z</time>
      </trkpt>
      <trkpt lat="46.07751" lon="6.29649">
        <ele>590.87</ele>
        <time>2020-05-07T16:22:44Z</time>
      </trkpt>
      <trkpt lat="46.07744" lon="6.29646">
        <ele>591.35</ele>
        <time>2020-05-07T16:22:45Z</time>
      </trkpt>
      <trkpt lat="46.07736" lon="6.29642">
        <ele>591.83</ele>
        <time>2020-05-07T16:22:46Z</time>
      </trkpt>
      <trkpt lat="46.07728" lon="6.29638">
        <ele>592.31</ele>
        <time>2020-05-07T16:22:47Z</time>
      </trkpt>
      <trkpt lat="46.07719" lon="6.29625">
        <ele>593.27</ele>
        <time>2020-05-07T16:22:48Z</time>
      </trkpt>
      <trkpt lat="46.07714" lon="6.29609">
        <ele>594.23</ele>
        <time>2020-05-07T16:22:49Z</time>
      </trkpt>
      <trkpt lat="46.07707" lon="6.29589">
        <ele>595.19</ele>
        <time>2020-05-07T16:22:50Z</time>
      </trkpt>
      <trkpt lat="46.07672" lon="6.29489">
        <ele>599.04</ele>
        <time>2020-05-07T16:22:53Z</time>
      </trkpt>
      <trkpt lat="46.07574" lon="6.29274">
        <ele>610.09</ele>
        <time>2020-05-07T16:22:59Z</time>
      </trkpt>
      <trkpt lat="46.07501" lon="6.29134">
        <ele>619.71</ele>
        <time>2020-05-07T16:23:04Z</time>
      </trkpt>
      <trkpt lat="46.07459" lon="6.28987">
        <ele>627.4</ele>
        <time>2020-05-07T16:23:10Z</time>
      </trkpt>
      <trkpt lat="46.07448" lon="6.28964">
        <ele>628.36</ele>
        <time>2020-05-07T16:23:11Z</time>
      </trkpt>
      <trkpt lat="46.07435" lon="6.28943">
        <ele>628.84</ele>
        <time>2020-05-07T16:23:12Z</time>
      </trkpt>
      <trkpt lat="46.07421" lon="6.28922">
        <ele>629.32</ele>
        <time>2020-05-07T16:23:13Z</time>
      </trkpt>
      <trkpt lat="46.07407" lon="6.28902">
        <ele>630.28</ele>
        <time>2020-05-07T16:23:14Z</time>
      </trkpt>
      <trkpt lat="46.07391" lon="6.28885">
        <ele>630.76</ele>
        <time>2020-05-07T16:23:15Z</time>
      </trkpt>
      <trkpt lat="46.07373" lon="6.28871">
        <ele>631.72</ele>
        <time>2020-05-07T16:23:16Z</time>
      </trkpt>
      <trkpt lat="46.07354" lon="6.28859">
        <ele>632.68</ele>
        <time>2020-05-07T16:23:17Z</time>
      </trkpt>
      <trkpt lat="46.07335" lon="6.2885">
        <ele>633.17</ele>
        <time>2020-05-07T16:23:18Z</time>
      </trkpt>
      <trkpt lat="46.07315" lon="6.28842">
        <ele>633.65</ele>
        <time>2020-05-07T16:23:19Z</time>
      </trkpt>
      <trkpt lat="46.07295" lon="6.28836">
        <ele>634.61</ele>
        <time>2020-05-07T16:23:20Z</time>
      </trkpt>
      <trkpt lat="46.07274" lon="6.28833">
        <ele>635.57</ele>
        <time>2020-05-07T16:23:21Z</time>
      </trkpt>
      <trkpt lat="46.07252" lon="6.2883">
        <ele>636.05</ele>
        <time>2020-05-07T16:23:22Z</time>
      </trkpt>
      <trkpt lat="46.07061" lon="6.28809">
        <ele>647.1</ele>
        <time>2020-05-07T16:23:31Z</time>
      </trkpt>
      <trkpt lat="46.07003" lon="6.28784">
        <ele>650.95</ele>
        <time>2020-05-07T16:23:34Z</time>
      </trkpt>
      <trkpt lat="46.06983" lon="6.2877">
        <ele>652.39</ele>
        <time>2020-05-07T16:23:35Z</time>
      </trkpt>
      <trkpt lat="46.06852" lon="6.28686">
        <ele>660.08</ele>
        <time>2020-05-07T16:23:41Z</time>
      </trkpt>
      <trkpt lat="46.06829" lon="6.2868">
        <ele>661.52</ele>
        <time>2020-05-07T16:23:42Z</time>
      </trkpt>
      <trkpt lat="46.06806" lon="6.28674">
        <ele>662.49</ele>
        <time>2020-05-07T16:23:43Z</time>
      </trkpt>
      <trkpt lat="46.06782" lon="6.28674">
        <ele>663.93</ele>
        <time>2020-05-07T16:23:44Z</time>
      </trkpt>
      <trkpt lat="46.0676" lon="6.28678">
        <ele>664.89</ele>
        <time>2020-05-07T16:23:45Z</time>
      </trkpt>
      <trkpt lat="46.06737" lon="6.28682">
        <ele>665.85</ele>
        <time>2020-05-07T16:23:46Z</time>
      </trkpt>
      <trkpt lat="46.06715" lon="6.28692">
        <ele>666.33</ele>
        <time>2020-05-07T16:23:47Z</time>
      </trkpt>
      <trkpt lat="46.06552" lon="6.28791">
        <ele>674.02</ele>
        <time>2020-05-07T16:23:55Z</time>
      </trkpt>
      <trkpt lat="46.06482" lon="6.28825">
        <ele>678.83</ele>
        <time>2020-05-07T16:24:00Z</time>
      </trkpt>
      <trkpt lat="46.06473" lon="6.28828">
        <ele>679.31</ele>
        <time>2020-05-07T16:24:01Z</time>
      </trkpt>
      <trkpt lat="46.06465" lon="6.2883">
        <ele>680.27</ele>
        <time>2020-05-07T16:24:02Z</time>
      </trkpt>
      <trkpt lat="46.06452" lon="6.28819">
        <ele>680.75</ele>
        <time>2020-05-07T16:24:03Z</time>
      </trkpt>
      <trkpt lat="46.06448" lon="6.28818">
        <ele>681.23</ele>
        <time>2020-05-07T16:24:04Z</time>
      </trkpt>
      <trkpt lat="46.06438" lon="6.28817">
        <ele>681.71</ele>
        <time>2020-05-07T16:24:05Z</time>
      </trkpt>
      <trkpt lat="46.0643" lon="6.28824">
        <ele>681.71</ele>
        <time>2020-05-07T16:24:06Z</time>
      </trkpt>
      <trkpt lat="46.0642" lon="6.28838">
        <ele>681.71</ele>
        <time>2020-05-07T16:24:07Z</time>
      </trkpt>
      <trkpt lat="46.06406" lon="6.2884">
        <ele>682.67</ele>
        <time>2020-05-07T16:24:09Z</time>
      </trkpt>
      <trkpt lat="46.06262" lon="6.28876">
        <ele>689.4</ele>
        <time>2020-05-07T16:24:15Z</time>
      </trkpt>
      <trkpt lat="46.0599" lon="6.28967">
        <ele>706.71</ele>
        <time>2020-05-07T16:24:27Z</time>
      </trkpt>
      <trkpt lat="46.05806" lon="6.29008">
        <ele>717.28</ele>
        <time>2020-05-07T16:24:35Z</time>
      </trkpt>
      <trkpt lat="46.05783" lon="6.29004">
        <ele>718.72</ele>
        <time>2020-05-07T16:24:36Z</time>
      </trkpt>
      <trkpt lat="46.05759" lon="6.28997">
        <ele>720.16</ele>
        <time>2020-05-07T16:24:37Z</time>
      </trkpt>
      <trkpt lat="46.05735" lon="6.28989">
        <ele>721.13</ele>
        <time>2020-05-07T16:24:38Z</time>
      </trkpt>
      <trkpt lat="46.05713" lon="6.28974">
        <ele>722.57</ele>
        <time>2020-05-07T16:24:39Z</time>
      </trkpt>
      <trkpt lat="46.05692" lon="6.28959">
        <ele>723.53</ele>
        <time>2020-05-07T16:24:40Z</time>
      </trkpt>
      <trkpt lat="46.0567" lon="6.28941">
        <ele>724.97</ele>
        <time>2020-05-07T16:24:41Z</time>
      </trkpt>
      <trkpt lat="46.05651" lon="6.2892">
        <ele>725.93</ele>
        <time>2020-05-07T16:24:42Z</time>
      </trkpt>
      <trkpt lat="46.05634" lon="6.28893">
        <ele>727.37</ele>
        <time>2020-05-07T16:24:43Z</time>
      </trkpt>
      <trkpt lat="46.05618" lon="6.28867">
        <ele>728.82</ele>
        <time>2020-05-07T16:24:44Z</time>
      </trkpt>
      <trkpt lat="46.05603" lon="6.2884">
        <ele>729.78</ele>
        <time>2020-05-07T16:24:45Z</time>
      </trkpt>
      <trkpt lat="46.05591" lon="6.2881">
        <ele>731.22</ele>
        <time>2020-05-07T16:24:46Z</time>
      </trkpt>
      <trkpt lat="46.05579" lon="6.28779">
        <ele>732.18</ele>
        <time>2020-05-07T16:24:47Z</time>
      </trkpt>
      <trkpt lat="46.05566" lon="6.28748">
        <ele>733.62</ele>
        <time>2020-05-07T16:24:48Z</time>
      </trkpt>
      <trkpt lat="46.05431" lon="6.28357">
        <ele>742.76</ele>
        <time>2020-05-07T16:25:01Z</time>
      </trkpt>
      <trkpt lat="46.05266" lon="6.27888">
        <ele>752.37</ele>
        <time>2020-05-07T16:25:17Z</time>
      </trkpt>
      <trkpt lat="46.05169" lon="6.27578">
        <ele>757.18</ele>
        <time>2020-05-07T16:25:28Z</time>
      </trkpt>
      <trkpt lat="46.05131" lon="6.2734">
        <ele>761.5</ele>
        <time>2020-05-07T16:25:36Z</time>
      </trkpt>
      <trkpt lat="46.05126" lon="6.27121">
        <ele>768.71</ele>
        <time>2020-05-07T16:25:41Z</time>
      </trkpt>
      <trkpt lat="46.05146" lon="6.26885">
        <ele>773.52</ele>
        <time>2020-05-07T16:25:48Z</time>
      </trkpt>
      <trkpt lat="46.05146" lon="6.26788">
        <ele>774.48</ele>
        <time>2020-05-07T16:25:51Z</time>
      </trkpt>
      <trkpt lat="46.05142" lon="6.26756">
        <ele>774.96</ele>
        <time>2020-05-07T16:25:52Z</time>
      </trkpt>
      <trkpt lat="46.05136" lon="6.26724">
        <ele>775.44</ele>
        <time>2020-05-07T16:25:53Z</time>
      </trkpt>
      <trkpt lat="46.05128" lon="6.26693">
        <ele>775.44</ele>
        <time>2020-05-07T16:25:54Z</time>
      </trkpt>
      <trkpt lat="46.05119" lon="6.26658">
        <ele>775.92</ele>
        <time>2020-05-07T16:25:55Z</time>
      </trkpt>
      <trkpt lat="46.05109" lon="6.26632">
        <ele>776.88</ele>
        <time>2020-05-07T16:25:56Z</time>
      </trkpt>
      <trkpt lat="46.05096" lon="6.26604">
        <ele>777.84</ele>
        <time>2020-05-07T16:25:57Z</time>
      </trkpt>
      <trkpt lat="46.05081" lon="6.26578">
        <ele>778.81</ele>
        <time>2020-05-07T16:25:58Z</time>
      </trkpt>
      <trkpt lat="46.05065" lon="6.26553">
        <ele>779.77</ele>
        <time>2020-05-07T16:25:59Z</time>
      </trkpt>
      <trkpt lat="46.05047" lon="6.26531">
        <ele>780.73</ele>
        <time>2020-05-07T16:26:00Z</time>
      </trkpt>
      <trkpt lat="46.05027" lon="6.26511">
        <ele>782.17</ele>
        <time>2020-05-07T16:26:01Z</time>
      </trkpt>
      <trkpt lat="46.05007" lon="6.26491">
        <ele>783.61</ele>
        <time>2020-05-07T16:26:02Z</time>
      </trkpt>
      <trkpt lat="46.04986" lon="6.26472">
        <ele>784.57</ele>
        <time>2020-05-07T16:26:03Z</time>
      </trkpt>
      <trkpt lat="46.04874" lon="6.26365">
        <ele>790.82</ele>
        <time>2020-05-07T16:26:08Z</time>
      </trkpt>
      <trkpt lat="46.04856" lon="6.26337">
        <ele>791.78</ele>
        <time>2020-05-07T16:26:09Z</time>
      </trkpt>
      <trkpt lat="46.04839" lon="6.26307">
        <ele>792.74</ele>
        <time>2020-05-07T16:26:10Z</time>
      </trkpt>
      <trkpt lat="46.04713" lon="6.26045">
        <ele>801.4</ele>
        <time>2020-05-07T16:26:19Z</time>
      </trkpt>
      <trkpt lat="46.04577" lon="6.25769">
        <ele>805.24</ele>
        <time>2020-05-07T16:26:31Z</time>
      </trkpt>
      <trkpt lat="46.04467" lon="6.25533">
        <ele>808.13</ele>
        <time>2020-05-07T16:26:39Z</time>
      </trkpt>
      <trkpt lat="46.04453" lon="6.25502">
        <ele>807.64</ele>
        <time>2020-05-07T16:26:40Z</time>
      </trkpt>
      <trkpt lat="46.04444" lon="6.25468">
        <ele>807.64</ele>
        <time>2020-05-07T16:26:41Z</time>
      </trkpt>
      <trkpt lat="46.04382" lon="6.25206">
        <ele>803.32</ele>
        <time>2020-05-07T16:26:49Z</time>
      </trkpt>
      <trkpt lat="46.04346" lon="6.25087">
        <ele>799.95</ele>
        <time>2020-05-07T16:26:53Z</time>
      </trkpt>
      <trkpt lat="46.04333" lon="6.25061">
        <ele>798.99</ele>
        <time>2020-05-07T16:26:54Z</time>
      </trkpt>
      <trkpt lat="46.0432" lon="6.25035">
        <ele>797.55</ele>
        <time>2020-05-07T16:26:55Z</time>
      </trkpt>
      <trkpt lat="46.04306" lon="6.25006">
        <ele>796.11</ele>
        <time>2020-05-07T16:26:56Z</time>
      </trkpt>
      <trkpt lat="46.04293" lon="6.24988">
        <ele>794.67</ele>
        <time>2020-05-07T16:26:57Z</time>
      </trkpt>
      <trkpt lat="46.04133" lon="6.24776">
        <ele>789.86</ele>
        <time>2020-05-07T16:27:08Z</time>
      </trkpt>
      <trkpt lat="46.04088" lon="6.24739">
        <ele>792.26</ele>
        <time>2020-05-07T16:27:11Z</time>
      </trkpt>
      <trkpt lat="46.04072" lon="6.24729">
        <ele>792.74</ele>
        <time>2020-05-07T16:27:12Z</time>
      </trkpt>
      <trkpt lat="46.04056" lon="6.24722">
        <ele>793.22</ele>
        <time>2020-05-07T16:27:13Z</time>
      </trkpt>
      <trkpt lat="46.03947" lon="6.2468">
        <ele>795.63</ele>
        <time>2020-05-07T16:27:19Z</time>
      </trkpt>
      <trkpt lat="46.03929" lon="6.24666">
        <ele>795.63</ele>
        <time>2020-05-07T16:27:20Z</time>
      </trkpt>
      <trkpt lat="46.03912" lon="6.24649">
        <ele>795.63</ele>
        <time>2020-05-07T16:27:21Z</time>
      </trkpt>
      <trkpt lat="46.03896" lon="6.24633">
        <ele>795.15</ele>
        <time>2020-05-07T16:27:22Z</time>
      </trkpt>
      <trkpt lat="46.03881" lon="6.24612">
        <ele>795.15</ele>
        <time>2020-05-07T16:27:23Z</time>
      </trkpt>
      <trkpt lat="46.03867" lon="6.24591">
        <ele>794.19</ele>
        <time>2020-05-07T16:27:24Z</time>
      </trkpt>
      <trkpt lat="46.03856" lon="6.24567">
        <ele>793.71</ele>
        <time>2020-05-07T16:27:25Z</time>
      </trkpt>
      <trkpt lat="46.03846" lon="6.24542">
        <ele>793.22</ele>
        <time>2020-05-07T16:27:26Z</time>
      </trkpt>
      <trkpt lat="46.03838" lon="6.24514">
        <ele>792.74</ele>
        <time>2020-05-07T16:27:27Z</time>
      </trkpt>
      <trkpt lat="46.0383" lon="6.24481">
        <ele>791.78</ele>
        <time>2020-05-07T16:27:28Z</time>
      </trkpt>
      <trkpt lat="46.03795" lon="6.24312">
        <ele>786.5</ele>
        <time>2020-05-07T16:27:32Z</time>
      </trkpt>
      <trkpt lat="46.03784" lon="6.24274">
        <ele>785.05</ele>
        <time>2020-05-07T16:27:33Z</time>
      </trkpt>
      <trkpt lat="46.03771" lon="6.24238">
        <ele>783.61</ele>
        <time>2020-05-07T16:27:34Z</time>
      </trkpt>
      <trkpt lat="46.03756" lon="6.24204">
        <ele>782.17</ele>
        <time>2020-05-07T16:27:35Z</time>
      </trkpt>
      <trkpt lat="46.03737" lon="6.24175">
        <ele>780.25</ele>
        <time>2020-05-07T16:27:36Z</time>
      </trkpt>
      <trkpt lat="46.03719" lon="6.24147">
        <ele>778.32</ele>
        <time>2020-05-07T16:27:37Z</time>
      </trkpt>
      <trkpt lat="46.03702" lon="6.24123">
        <ele>776.4</ele>
        <time>2020-05-07T16:27:38Z</time>
      </trkpt>
      <trkpt lat="46.03681" lon="6.24104">
        <ele>774.48</ele>
        <time>2020-05-07T16:27:39Z</time>
      </trkpt>
      <trkpt lat="46.03662" lon="6.24087">
        <ele>773.04</ele>
        <time>2020-05-07T16:27:40Z</time>
      </trkpt>
      <trkpt lat="46.03639" lon="6.24075">
        <ele>771.11</ele>
        <time>2020-05-07T16:27:41Z</time>
      </trkpt>
      <trkpt lat="46.03616" lon="6.24073">
        <ele>770.15</ele>
        <time>2020-05-07T16:27:42Z</time>
      </trkpt>
      <trkpt lat="46.03593" lon="6.24071">
        <ele>769.19</ele>
        <time>2020-05-07T16:27:43Z</time>
      </trkpt>
      <trkpt lat="46.03572" lon="6.24078">
        <ele>768.23</ele>
        <time>2020-05-07T16:27:44Z</time>
      </trkpt>
      <trkpt lat="46.0355" lon="6.24088">
        <ele>767.27</ele>
        <time>2020-05-07T16:27:45Z</time>
      </trkpt>
      <trkpt lat="46.0353" lon="6.24104">
        <ele>766.31</ele>
        <time>2020-05-07T16:27:46Z</time>
      </trkpt>
      <trkpt lat="46.03515" lon="6.24129">
        <ele>765.83</ele>
        <time>2020-05-07T16:27:47Z</time>
      </trkpt>
      <trkpt lat="46.03499" lon="6.24156">
        <ele>764.87</ele>
        <time>2020-05-07T16:27:48Z</time>
      </trkpt>
      <trkpt lat="46.03484" lon="6.2418">
        <ele>764.39</ele>
        <time>2020-05-07T16:27:49Z</time>
      </trkpt>
      <trkpt lat="46.03467" lon="6.24206">
        <ele>763.42</ele>
        <time>2020-05-07T16:27:50Z</time>
      </trkpt>
      <trkpt lat="46.03452" lon="6.24229">
        <ele>762.46</ele>
        <time>2020-05-07T16:27:51Z</time>
      </trkpt>
      <trkpt lat="46.03435" lon="6.24244">
        <ele>761.5</ele>
        <time>2020-05-07T16:27:52Z</time>
      </trkpt>
      <trkpt lat="46.03416" lon="6.24255">
        <ele>760.54</ele>
        <time>2020-05-07T16:27:53Z</time>
      </trkpt>
      <trkpt lat="46.03395" lon="6.24261">
        <ele>759.1</ele>
        <time>2020-05-07T16:27:54Z</time>
      </trkpt>
      <trkpt lat="46.03374" lon="6.24261">
        <ele>757.66</ele>
        <time>2020-05-07T16:27:55Z</time>
      </trkpt>
      <trkpt lat="46.03353" lon="6.24255">
        <ele>756.69</ele>
        <time>2020-05-07T16:27:56Z</time>
      </trkpt>
      <trkpt lat="46.03335" lon="6.24241">
        <ele>755.73</ele>
        <time>2020-05-07T16:27:57Z</time>
      </trkpt>
      <trkpt lat="46.03312" lon="6.24223">
        <ele>754.77</ele>
        <time>2020-05-07T16:27:58Z</time>
      </trkpt>
      <trkpt lat="46.03295" lon="6.24206">
        <ele>754.29</ele>
        <time>2020-05-07T16:27:59Z</time>
      </trkpt>
      <trkpt lat="46.0328" lon="6.24181">
        <ele>753.33</ele>
        <time>2020-05-07T16:28:00Z</time>
      </trkpt>
      <trkpt lat="46.03177" lon="6.24045">
        <ele>749.49</ele>
        <time>2020-05-07T16:28:06Z</time>
      </trkpt>
      <trkpt lat="46.03053" lon="6.23905">
        <ele>745.64</ele>
        <time>2020-05-07T16:28:12Z</time>
      </trkpt>
      <trkpt lat="46.0303" lon="6.23886">
        <ele>745.16</ele>
        <time>2020-05-07T16:28:13Z</time>
      </trkpt>
      <trkpt lat="46.03003" lon="6.23871">
        <ele>744.68</ele>
        <time>2020-05-07T16:28:14Z</time>
      </trkpt>
      <trkpt lat="46.02972" lon="6.23853">
        <ele>744.2</ele>
        <time>2020-05-07T16:28:15Z</time>
      </trkpt>
      <trkpt lat="46.02798" lon="6.23786">
        <ele>740.35</ele>
        <time>2020-05-07T16:28:20Z</time>
      </trkpt>
      <trkpt lat="46.02621" lon="6.23754">
        <ele>732.18</ele>
        <time>2020-05-07T16:28:26Z</time>
      </trkpt>
      <trkpt lat="46.02546" lon="6.23718">
        <ele>728.34</ele>
        <time>2020-05-07T16:28:29Z</time>
      </trkpt>
      <trkpt lat="46.02524" lon="6.23696">
        <ele>726.89</ele>
        <time>2020-05-07T16:28:30Z</time>
      </trkpt>
      <trkpt lat="46.02505" lon="6.23671">
        <ele>725.93</ele>
        <time>2020-05-07T16:28:31Z</time>
      </trkpt>
      <trkpt lat="46.02488" lon="6.23643">
        <ele>724.97</ele>
        <time>2020-05-07T16:28:32Z</time>
      </trkpt>
      <trkpt lat="46.02472" lon="6.23616">
        <ele>724.01</ele>
        <time>2020-05-07T16:28:33Z</time>
      </trkpt>
      <trkpt lat="46.02458" lon="6.23588">
        <ele>723.53</ele>
        <time>2020-05-07T16:28:34Z</time>
      </trkpt>
      <trkpt lat="46.02419" lon="6.23505">
        <ele>721.13</ele>
        <time>2020-05-07T16:28:37Z</time>
      </trkpt>
      <trkpt lat="46.02403" lon="6.23479">
        <ele>720.16</ele>
        <time>2020-05-07T16:28:38Z</time>
      </trkpt>
      <trkpt lat="46.02383" lon="6.23461">
        <ele>719.68</ele>
        <time>2020-05-07T16:28:39Z</time>
      </trkpt>
      <trkpt lat="46.02363" lon="6.23443">
        <ele>718.24</ele>
        <time>2020-05-07T16:28:40Z</time>
      </trkpt>
      <trkpt lat="46.02344" lon="6.23426">
        <ele>717.28</ele>
        <time>2020-05-07T16:28:41Z</time>
      </trkpt>
      <trkpt lat="46.02289" lon="6.23375">
        <ele>711.99</ele>
        <time>2020-05-07T16:28:44Z</time>
      </trkpt>
      <trkpt lat="46.02274" lon="6.23351">
        <ele>710.07</ele>
        <time>2020-05-07T16:28:45Z</time>
      </trkpt>
      <trkpt lat="46.02261" lon="6.23324">
        <ele>708.63</ele>
        <time>2020-05-07T16:28:46Z</time>
      </trkpt>
      <trkpt lat="46.02138" lon="6.23088">
        <ele>702.86</ele>
        <time>2020-05-07T16:28:54Z</time>
      </trkpt>
      <trkpt lat="46.02119" lon="6.23062">
        <ele>702.38</ele>
        <time>2020-05-07T16:28:55Z</time>
      </trkpt>
      <trkpt lat="46.02099" lon="6.23038">
        <ele>701.9</ele>
        <time>2020-05-07T16:28:56Z</time>
      </trkpt>
      <trkpt lat="46.0208" lon="6.23011">
        <ele>701.42</ele>
        <time>2020-05-07T16:28:57Z</time>
      </trkpt>
      <trkpt lat="46.02063" lon="6.22977">
        <ele>700.94</ele>
        <time>2020-05-07T16:28:58Z</time>
      </trkpt>
      <trkpt lat="46.02051" lon="6.22939">
        <ele>700.46</ele>
        <time>2020-05-07T16:28:59Z</time>
      </trkpt>
      <trkpt lat="46.0204" lon="6.22895">
        <ele>699.98</ele>
        <time>2020-05-07T16:29:00Z</time>
      </trkpt>
      <trkpt lat="46.02032" lon="6.22846">
        <ele>699.5</ele>
        <time>2020-05-07T16:29:01Z</time>
      </trkpt>
      <trkpt lat="46.02024" lon="6.22793">
        <ele>699.02</ele>
        <time>2020-05-07T16:29:02Z</time>
      </trkpt>
      <trkpt lat="46.01988" lon="6.22535">
        <ele>696.61</ele>
        <time>2020-05-07T16:29:07Z</time>
      </trkpt>
      <trkpt lat="46.01936" lon="6.22204">
        <ele>689.88</ele>
        <time>2020-05-07T16:29:15Z</time>
      </trkpt>
      <trkpt lat="46.01861" lon="6.21905">
        <ele>686.04</ele>
        <time>2020-05-07T16:29:23Z</time>
      </trkpt>
      <trkpt lat="46.01724" lon="6.21566">
        <ele>683.63</ele>
        <time>2020-05-07T16:29:33Z</time>
      </trkpt>
      <trkpt lat="46.01708" lon="6.21533">
        <ele>683.63</ele>
        <time>2020-05-07T16:29:34Z</time>
      </trkpt>
      <trkpt lat="46.0169" lon="6.21503">
        <ele>683.15</ele>
        <time>2020-05-07T16:29:35Z</time>
      </trkpt>
      <trkpt lat="46.01669" lon="6.21474">
        <ele>682.67</ele>
        <time>2020-05-07T16:29:36Z</time>
      </trkpt>
      <trkpt lat="46.01644" lon="6.21449">
        <ele>682.67</ele>
        <time>2020-05-07T16:29:37Z</time>
      </trkpt>
      <trkpt lat="46.01619" lon="6.21423">
        <ele>682.19</ele>
        <time>2020-05-07T16:29:38Z</time>
      </trkpt>
      <trkpt lat="46.01425" lon="6.21227">
        <ele>676.42</ele>
        <time>2020-05-07T16:29:46Z</time>
      </trkpt>
      <trkpt lat="46.01314" lon="6.21056">
        <ele>671.62</ele>
        <time>2020-05-07T16:29:51Z</time>
      </trkpt>
      <trkpt lat="46.01155" lon="6.20863">
        <ele>665.85</ele>
        <time>2020-05-07T16:29:58Z</time>
      </trkpt>
      <trkpt lat="46.00973" lon="6.20647">
        <ele>661.52</ele>
        <time>2020-05-07T16:30:06Z</time>
      </trkpt>
      <trkpt lat="46.00883" lon="6.20532">
        <ele>660.08</ele>
        <time>2020-05-07T16:30:11Z</time>
      </trkpt>
      <trkpt lat="46.00872" lon="6.20502">
        <ele>659.6</ele>
        <time>2020-05-07T16:30:12Z</time>
      </trkpt>
      <trkpt lat="46.0086" lon="6.20471">
        <ele>659.6</ele>
        <time>2020-05-07T16:30:13Z</time>
      </trkpt>
      <trkpt lat="46.0085" lon="6.20436">
        <ele>659.6</ele>
        <time>2020-05-07T16:30:14Z</time>
      </trkpt>
      <trkpt lat="46.0084" lon="6.20396">
        <ele>659.12</ele>
        <time>2020-05-07T16:30:15Z</time>
      </trkpt>
      <trkpt lat="46.00756" lon="6.20081">
        <ele>652.87</ele>
        <time>2020-05-07T16:30:22Z</time>
      </trkpt>
      <trkpt lat="46.0069" lon="6.19779">
        <ele>641.34</ele>
        <time>2020-05-07T16:30:29Z</time>
      </trkpt>
      <trkpt lat="46.00623" lon="6.196">
        <ele>633.65</ele>
        <time>2020-05-07T16:30:34Z</time>
      </trkpt>
      <trkpt lat="46.00598" lon="6.19547">
        <ele>630.76</ele>
        <time>2020-05-07T16:30:36Z</time>
      </trkpt>
      <trkpt lat="46.00581" lon="6.19526">
        <ele>629.32</ele>
        <time>2020-05-07T16:30:37Z</time>
      </trkpt>
      <trkpt lat="46.00563" lon="6.19507">
        <ele>627.88</ele>
        <time>2020-05-07T16:30:38Z</time>
      </trkpt>
      <trkpt lat="46.00527" lon="6.19474">
        <ele>623.55</ele>
        <time>2020-05-07T16:30:40Z</time>
      </trkpt>
      <trkpt lat="46.00513" lon="6.19452">
        <ele>621.63</ele>
        <time>2020-05-07T16:30:41Z</time>
      </trkpt>
      <trkpt lat="46.005" lon="6.19432">
        <ele>619.71</ele>
        <time>2020-05-07T16:30:42Z</time>
      </trkpt>
      <trkpt lat="46.00491" lon="6.19412">
        <ele>617.78</ele>
        <time>2020-05-07T16:30:43Z</time>
      </trkpt>
      <trkpt lat="46.00484" lon="6.19392">
        <ele>615.86</ele>
        <time>2020-05-07T16:30:44Z</time>
      </trkpt>
      <trkpt lat="46.0048" lon="6.19373">
        <ele>614.42</ele>
        <time>2020-05-07T16:30:45Z</time>
      </trkpt>
      <trkpt lat="46.0048" lon="6.19356">
        <ele>612.98</ele>
        <time>2020-05-07T16:30:46Z</time>
      </trkpt>
      <trkpt lat="46.00488" lon="6.19338">
        <ele>611.54</ele>
        <time>2020-05-07T16:30:47Z</time>
      </trkpt>
      <trkpt lat="46.00497" lon="6.1932">
        <ele>610.57</ele>
        <time>2020-05-07T16:30:48Z</time>
      </trkpt>
      <trkpt lat="46.00509" lon="6.19313">
        <ele>609.13</ele>
        <time>2020-05-07T16:30:49Z</time>
      </trkpt>
      <trkpt lat="46.00524" lon="6.19308">
        <ele>608.17</ele>
        <time>2020-05-07T16:30:50Z</time>
      </trkpt>
      <trkpt lat="46.00539" lon="6.19314">
        <ele>607.21</ele>
        <time>2020-05-07T16:30:51Z</time>
      </trkpt>
      <trkpt lat="46.00555" lon="6.19325">
        <ele>606.25</ele>
        <time>2020-05-07T16:30:52Z</time>
      </trkpt>
      <trkpt lat="46.00571" lon="6.19344">
        <ele>605.29</ele>
        <time>2020-05-07T16:30:53Z</time>
      </trkpt>
      <trkpt lat="46.00585" lon="6.19363">
        <ele>603.85</ele>
        <time>2020-05-07T16:30:54Z</time>
      </trkpt>
      <trkpt lat="46.00599" lon="6.19392">
        <ele>602.4</ele>
        <time>2020-05-07T16:30:55Z</time>
      </trkpt>
      <trkpt lat="46.00612" lon="6.19417">
        <ele>600.96</ele>
        <time>2020-05-07T16:30:56Z</time>
      </trkpt>
      <trkpt lat="46.00626" lon="6.19444">
        <ele>599.52</ele>
        <time>2020-05-07T16:30:57Z</time>
      </trkpt>
      <trkpt lat="46.00661" lon="6.19521">
        <ele>594.71</ele>
        <time>2020-05-07T16:31:01Z</time>
      </trkpt>
      <trkpt lat="46.00667" lon="6.19535">
        <ele>594.23</ele>
        <time>2020-05-07T16:31:02Z</time>
      </trkpt>
      <trkpt lat="46.00675" lon="6.19538">
        <ele>593.27</ele>
        <time>2020-05-07T16:31:03Z</time>
      </trkpt>
      <trkpt lat="46.00683" lon="6.19541">
        <ele>593.27</ele>
        <time>2020-05-07T16:31:04Z</time>
      </trkpt>
      <trkpt lat="46.0069" lon="6.19535">
        <ele>592.79</ele>
        <time>2020-05-07T16:31:05Z</time>
      </trkpt>
      <trkpt lat="46.00693" lon="6.19522">
        <ele>592.31</ele>
        <time>2020-05-07T16:31:06Z</time>
      </trkpt>
      <trkpt lat="46.00694" lon="6.19509">
        <ele>592.31</ele>
        <time>2020-05-07T16:31:07Z</time>
      </trkpt>
      <trkpt lat="46.0069" lon="6.19493">
        <ele>591.83</ele>
        <time>2020-05-07T16:31:08Z</time>
      </trkpt>
      <trkpt lat="46.00683" lon="6.19476">
        <ele>591.35</ele>
        <time>2020-05-07T16:31:09Z</time>
      </trkpt>
      <trkpt lat="46.00676" lon="6.19457">
        <ele>590.87</ele>
        <time>2020-05-07T16:31:10Z</time>
      </trkpt>
      <trkpt lat="46.00615" lon="6.19288">
        <ele>583.66</ele>
        <time>2020-05-07T16:31:18Z</time>
      </trkpt>
      <trkpt lat="46.00517" lon="6.19035">
        <ele>567.8</ele>
        <time>2020-05-07T16:31:30Z</time>
      </trkpt>
      <trkpt lat="46.0042" lon="6.18895">
        <ele>558.66</ele>
        <time>2020-05-07T16:31:38Z</time>
      </trkpt>
      <trkpt lat="46.0041" lon="6.18884">
        <ele>557.7</ele>
        <time>2020-05-07T16:31:39Z</time>
      </trkpt>
      <trkpt lat="46.00408" lon="6.18866">
        <ele>556.74</ele>
        <time>2020-05-07T16:31:40Z</time>
      </trkpt>
      <trkpt lat="46.00403" lon="6.18854">
        <ele>556.26</ele>
        <time>2020-05-07T16:31:41Z</time>
      </trkpt>
      <trkpt lat="46.00401" lon="6.18845">
        <ele>555.78</ele>
        <time>2020-05-07T16:31:42Z</time>
      </trkpt>
      <trkpt lat="46.00405" lon="6.18831">
        <ele>555.78</ele>
        <time>2020-05-07T16:31:43Z</time>
      </trkpt>
      <trkpt lat="46.00412" lon="6.18825">
        <ele>555.78</ele>
        <time>2020-05-07T16:31:44Z</time>
      </trkpt>
      <trkpt lat="46.00421" lon="6.1882">
        <ele>555.78</ele>
        <time>2020-05-07T16:31:45Z</time>
      </trkpt>
      <trkpt lat="46.00431" lon="6.18822">
        <ele>556.26</ele>
        <time>2020-05-07T16:31:46Z</time>
      </trkpt>
      <trkpt lat="46.00439" lon="6.18832">
        <ele>556.74</ele>
        <time>2020-05-07T16:31:47Z</time>
      </trkpt>
      <trkpt lat="46.00444" lon="6.18846">
        <ele>556.74</ele>
        <time>2020-05-07T16:31:48Z</time>
      </trkpt>
      <trkpt lat="46.00449" lon="6.18859">
        <ele>556.74</ele>
        <time>2020-05-07T16:31:49Z</time>
      </trkpt>
      <trkpt lat="46.00452" lon="6.18869">
        <ele>556.74</ele>
        <time>2020-05-07T16:31:50Z</time>
      </trkpt>
      <trkpt lat="46.00444" lon="6.18892">
        <ele>556.26</ele>
        <time>2020-05-07T16:31:51Z</time>
      </trkpt>
      <trkpt lat="46.00435" lon="6.18903">
        <ele>555.78</ele>
        <time>2020-05-07T16:31:52Z</time>
      </trkpt>
      <trkpt lat="46.00424" lon="6.18917">
        <ele>555.3</ele>
        <time>2020-05-07T16:31:53Z</time>
      </trkpt>
      <trkpt lat="46.00404" lon="6.1895">
        <ele>555.3</ele>
        <time>2020-05-07T16:31:55Z</time>
      </trkpt>
      <trkpt lat="46.00397" lon="6.18971">
        <ele>555.78</ele>
        <time>2020-05-07T16:31:56Z</time>
      </trkpt>
      <trkpt lat="46.00391" lon="6.18997">
        <ele>556.26</ele>
        <time>2020-05-07T16:31:57Z</time>
      </trkpt>
      <trkpt lat="46.00349" lon="6.19198">
        <ele>560.59</ele>
        <time>2020-05-07T16:32:03Z</time>
      </trkpt>
      <trkpt lat="46.00291" lon="6.19504">
        <ele>562.99</ele>
        <time>2020-05-07T16:32:12Z</time>
      </trkpt>
      <trkpt lat="46.0029" lon="6.19539">
        <ele>562.99</ele>
        <time>2020-05-07T16:32:13Z</time>
      </trkpt>
      <trkpt lat="46.00281" lon="6.19772">
        <ele>562.99</ele>
        <time>2020-05-07T16:32:20Z</time>
      </trkpt>
      <trkpt lat="46.00276" lon="6.19801">
        <ele>563.47</ele>
        <time>2020-05-07T16:32:21Z</time>
      </trkpt>
      <trkpt lat="46.00266" lon="6.19828">
        <ele>563.95</ele>
        <time>2020-05-07T16:32:22Z</time>
      </trkpt>
      <trkpt lat="46.00206" lon="6.19989">
        <ele>566.83</ele>
        <time>2020-05-07T16:32:29Z</time>
      </trkpt>
      <trkpt lat="46.00195" lon="6.20017">
        <ele>568.28</ele>
        <time>2020-05-07T16:32:32Z</time>
      </trkpt>
      <trkpt lat="46.00194" lon="6.2002">
        <ele>569.24</ele>
        <time>2020-05-07T16:32:33Z</time>
      </trkpt>
      <trkpt lat="46.00185" lon="6.20006">
        <ele>570.68</ele>
        <time>2020-05-07T16:32:36Z</time>
      </trkpt>
      <trkpt lat="46.00184" lon="6.19991">
        <ele>575.01</ele>
        <time>2020-05-07T16:32:48Z</time>
      </trkpt>
      <trkpt lat="46.00182" lon="6.19992">
        <ele>575.49</ele>
        <time>2020-05-07T16:33:00Z</time>
      </trkpt>
      <trkpt lat="46.00181" lon="6.19993">
        <ele>575.49</ele>
        <time>2020-05-07T16:33:13Z</time>
      </trkpt>
    </trkseg>
  </trk>
  <trk>
    <name><![CDATA[Journal actif: 2020-05-08 09:08]]></name>
    <trkseg>
      <trkpt lat="46.00164" lon="6.20023">
        <ele>610.57</ele>
        <time>2020-05-08T07:08:41Z</time>
      </trkpt>
      <trkpt lat="46.00179" lon="6.19998">
        <ele>574.53</ele>
        <time>2020-05-08T07:09:06Z</time>
      </trkpt>
      <trkpt lat="46.0019" lon="6.2003">
        <ele>573.56</ele>
        <time>2020-05-08T07:09:12Z</time>
      </trkpt>
      <trkpt lat="46.00189" lon="6.20032">
        <ele>573.08</ele>
        <time>2020-05-08T07:09:13Z</time>
      </trkpt>
      <trkpt lat="46.0019" lon="6.20029">
        <ele>572.6</ele>
        <time>2020-05-08T07:09:18Z</time>
      </trkpt>
      <trkpt lat="46.00192" lon="6.20025">
        <ele>572.6</ele>
        <time>2020-05-08T07:09:19Z</time>
      </trkpt>
      <trkpt lat="46.00194" lon="6.20019">
        <ele>572.12</ele>
        <time>2020-05-08T07:09:20Z</time>
      </trkpt>
      <trkpt lat="46.00198" lon="6.20009">
        <ele>572.12</ele>
        <time>2020-05-08T07:09:21Z</time>
      </trkpt>
      <trkpt lat="46.00203" lon="6.19996">
        <ele>572.12</ele>
        <time>2020-05-08T07:09:22Z</time>
      </trkpt>
      <trkpt lat="46.00246" lon="6.19883">
        <ele>570.68</ele>
        <time>2020-05-08T07:09:28Z</time>
      </trkpt>
      <trkpt lat="46.00272" lon="6.19811">
        <ele>570.2</ele>
        <time>2020-05-08T07:09:31Z</time>
      </trkpt>
      <trkpt lat="46.00279" lon="6.19788">
        <ele>569.72</ele>
        <time>2020-05-08T07:09:32Z</time>
      </trkpt>
      <trkpt lat="46.00282" lon="6.19762">
        <ele>569.72</ele>
        <time>2020-05-08T07:09:33Z</time>
      </trkpt>
      <trkpt lat="46.00284" lon="6.19736">
        <ele>569.24</ele>
        <time>2020-05-08T07:09:34Z</time>
      </trkpt>
      <trkpt lat="46.00287" lon="6.19709">
        <ele>568.76</ele>
        <time>2020-05-08T07:09:35Z</time>
      </trkpt>
      <trkpt lat="46.00287" lon="6.19681">
        <ele>568.28</ele>
        <time>2020-05-08T07:09:36Z</time>
      </trkpt>
      <trkpt lat="46.00296" lon="6.1948">
        <ele>567.32</ele>
        <time>2020-05-08T07:09:43Z</time>
      </trkpt>
      <trkpt lat="46.00345" lon="6.1922">
        <ele>566.83</ele>
        <time>2020-05-08T07:09:52Z</time>
      </trkpt>
      <trkpt lat="46.00385" lon="6.19029">
        <ele>564.43</ele>
        <time>2020-05-08T07:10:00Z</time>
      </trkpt>
      <trkpt lat="46.00399" lon="6.18961">
        <ele>560.11</ele>
        <time>2020-05-08T07:10:05Z</time>
      </trkpt>
      <trkpt lat="46.00401" lon="6.18955">
        <ele>559.14</ele>
        <time>2020-05-08T07:10:06Z</time>
      </trkpt>
      <trkpt lat="46.00396" lon="6.18952">
        <ele>558.66</ele>
        <time>2020-05-08T07:10:07Z</time>
      </trkpt>
      <trkpt lat="46.0039" lon="6.18949">
        <ele>557.7</ele>
        <time>2020-05-08T07:10:08Z</time>
      </trkpt>
      <trkpt lat="46.00384" lon="6.18946">
        <ele>556.74</ele>
        <time>2020-05-08T07:10:09Z</time>
      </trkpt>
      <trkpt lat="46.00379" lon="6.18942">
        <ele>556.26</ele>
        <time>2020-05-08T07:10:10Z</time>
      </trkpt>
      <trkpt lat="46.00372" lon="6.18935">
        <ele>555.3</ele>
        <time>2020-05-08T07:10:11Z</time>
      </trkpt>
      <trkpt lat="46.00366" lon="6.18929">
        <ele>554.82</ele>
        <time>2020-05-08T07:10:12Z</time>
      </trkpt>
      <trkpt lat="46.00361" lon="6.18922">
        <ele>554.82</ele>
        <time>2020-05-08T07:10:13Z</time>
      </trkpt>
      <trkpt lat="46.00358" lon="6.18908">
        <ele>554.82</ele>
        <time>2020-05-08T07:10:14Z</time>
      </trkpt>
      <trkpt lat="46.0036" lon="6.18898">
        <ele>554.82</ele>
        <time>2020-05-08T07:10:15Z</time>
      </trkpt>
      <trkpt lat="46.00362" lon="6.18887">
        <ele>554.82</ele>
        <time>2020-05-08T07:10:16Z</time>
      </trkpt>
      <trkpt lat="46.00372" lon="6.18881">
        <ele>554.82</ele>
        <time>2020-05-08T07:10:17Z</time>
      </trkpt>
      <trkpt lat="46.00379" lon="6.18877">
        <ele>554.82</ele>
        <time>2020-05-08T07:10:18Z</time>
      </trkpt>
      <trkpt lat="46.00387" lon="6.18879">
        <ele>555.3</ele>
        <time>2020-05-08T07:10:19Z</time>
      </trkpt>
      <trkpt lat="46.00396" lon="6.18883">
        <ele>555.78</ele>
        <time>2020-05-08T07:10:20Z</time>
      </trkpt>
      <trkpt lat="46.00407" lon="6.18888">
        <ele>556.26</ele>
        <time>2020-05-08T07:10:21Z</time>
      </trkpt>
      <trkpt lat="46.0042" lon="6.18895">
        <ele>557.22</ele>
        <time>2020-05-08T07:10:22Z</time>
      </trkpt>
      <trkpt lat="46.00435" lon="6.18908">
        <ele>557.7</ele>
        <time>2020-05-08T07:10:23Z</time>
      </trkpt>
      <trkpt lat="46.00504" lon="6.19011">
        <ele>562.99</ele>
        <time>2020-05-08T07:10:28Z</time>
      </trkpt>
      <trkpt lat="46.00599" lon="6.19241">
        <ele>579.33</ele>
        <time>2020-05-08T07:10:36Z</time>
      </trkpt>
      <trkpt lat="46.00664" lon="6.19429">
        <ele>593.27</ele>
        <time>2020-05-08T07:10:43Z</time>
      </trkpt>
      <trkpt lat="46.00691" lon="6.19495">
        <ele>598.56</ele>
        <time>2020-05-08T07:10:47Z</time>
      </trkpt>
      <trkpt lat="46.00694" lon="6.19509">
        <ele>599.04</ele>
        <time>2020-05-08T07:10:48Z</time>
      </trkpt>
      <trkpt lat="46.00693" lon="6.1952">
        <ele>600</ele>
        <time>2020-05-08T07:10:49Z</time>
      </trkpt>
      <trkpt lat="46.00691" lon="6.19532">
        <ele>600.48</ele>
        <time>2020-05-08T07:10:50Z</time>
      </trkpt>
      <trkpt lat="46.00683" lon="6.19541">
        <ele>600.96</ele>
        <time>2020-05-08T07:10:51Z</time>
      </trkpt>
      <trkpt lat="46.00673" lon="6.19537">
        <ele>601.44</ele>
        <time>2020-05-08T07:10:52Z</time>
      </trkpt>
      <trkpt lat="46.00664" lon="6.19529">
        <ele>601.92</ele>
        <time>2020-05-08T07:10:53Z</time>
      </trkpt>
      <trkpt lat="46.00659" lon="6.19518">
        <ele>602.88</ele>
        <time>2020-05-08T07:10:54Z</time>
      </trkpt>
      <trkpt lat="46.00653" lon="6.19504">
        <ele>603.36</ele>
        <time>2020-05-08T07:10:55Z</time>
      </trkpt>
      <trkpt lat="46.00645" lon="6.19486">
        <ele>604.33</ele>
        <time>2020-05-08T07:10:56Z</time>
      </trkpt>
      <trkpt lat="46.00635" lon="6.19465">
        <ele>605.29</ele>
        <time>2020-05-08T07:10:57Z</time>
      </trkpt>
      <trkpt lat="46.00601" lon="6.19395">
        <ele>608.17</ele>
        <time>2020-05-08T07:11:00Z</time>
      </trkpt>
      <trkpt lat="46.00589" lon="6.19371">
        <ele>609.13</ele>
        <time>2020-05-08T07:11:01Z</time>
      </trkpt>
      <trkpt lat="46.00551" lon="6.19322">
        <ele>611.06</ele>
        <time>2020-05-08T07:11:04Z</time>
      </trkpt>
      <trkpt lat="46.00539" lon="6.19313">
        <ele>611.54</ele>
        <time>2020-05-08T07:11:05Z</time>
      </trkpt>
      <trkpt lat="46.00526" lon="6.19308">
        <ele>612.5</ele>
        <time>2020-05-08T07:11:06Z</time>
      </trkpt>
      <trkpt lat="46.00514" lon="6.1931">
        <ele>612.98</ele>
        <time>2020-05-08T07:11:07Z</time>
      </trkpt>
      <trkpt lat="46.00502" lon="6.19317">
        <ele>613.94</ele>
        <time>2020-05-08T07:11:08Z</time>
      </trkpt>
      <trkpt lat="46.00493" lon="6.19328">
        <ele>614.42</ele>
        <time>2020-05-08T07:11:09Z</time>
      </trkpt>
      <trkpt lat="46.00486" lon="6.19343">
        <ele>615.38</ele>
        <time>2020-05-08T07:11:10Z</time>
      </trkpt>
      <trkpt lat="46.0048" lon="6.19359">
        <ele>615.86</ele>
        <time>2020-05-08T07:11:11Z</time>
      </trkpt>
      <trkpt lat="46.0048" lon="6.19378">
        <ele>616.34</ele>
        <time>2020-05-08T07:11:12Z</time>
      </trkpt>
      <trkpt lat="46.00485" lon="6.19396">
        <ele>616.82</ele>
        <time>2020-05-08T07:11:13Z</time>
      </trkpt>
      <trkpt lat="46.00492" lon="6.19415">
        <ele>617.78</ele>
        <time>2020-05-08T07:11:14Z</time>
      </trkpt>
      <trkpt lat="46.00502" lon="6.19434">
        <ele>618.75</ele>
        <time>2020-05-08T07:11:15Z</time>
      </trkpt>
      <trkpt lat="46.00514" lon="6.19454">
        <ele>619.23</ele>
        <time>2020-05-08T07:11:16Z</time>
      </trkpt>
      <trkpt lat="46.00527" lon="6.19474">
        <ele>620.67</ele>
        <time>2020-05-08T07:11:17Z</time>
      </trkpt>
      <trkpt lat="46.00545" lon="6.1949">
        <ele>621.63</ele>
        <time>2020-05-08T07:11:18Z</time>
      </trkpt>
      <trkpt lat="46.00563" lon="6.19507">
        <ele>622.59</ele>
        <time>2020-05-08T07:11:19Z</time>
      </trkpt>
      <trkpt lat="46.0058" lon="6.19525">
        <ele>623.55</ele>
        <time>2020-05-08T07:11:20Z</time>
      </trkpt>
      <trkpt lat="46.00596" lon="6.19544">
        <ele>624.51</ele>
        <time>2020-05-08T07:11:21Z</time>
      </trkpt>
      <trkpt lat="46.0061" lon="6.19567">
        <ele>625.47</ele>
        <time>2020-05-08T07:11:22Z</time>
      </trkpt>
      <trkpt lat="46.00621" lon="6.19595">
        <ele>626.44</ele>
        <time>2020-05-08T07:11:23Z</time>
      </trkpt>
      <trkpt lat="46.00633" lon="6.19624">
        <ele>627.4</ele>
        <time>2020-05-08T07:11:24Z</time>
      </trkpt>
      <trkpt lat="46.00693" lon="6.19788">
        <ele>632.2</ele>
        <time>2020-05-08T07:11:29Z</time>
      </trkpt>
      <trkpt lat="46.00703" lon="6.19824">
        <ele>633.17</ele>
        <time>2020-05-08T07:11:30Z</time>
      </trkpt>
      <trkpt lat="46.00761" lon="6.20103">
        <ele>642.78</ele>
        <time>2020-05-08T07:11:38Z</time>
      </trkpt>
      <trkpt lat="46.00845" lon="6.20417">
        <ele>656.24</ele>
        <time>2020-05-08T07:11:49Z</time>
      </trkpt>
      <trkpt lat="46.00883" lon="6.20532">
        <ele>658.64</ele>
        <time>2020-05-08T07:11:54Z</time>
      </trkpt>
      <trkpt lat="46.00896" lon="6.20552">
        <ele>659.12</ele>
        <time>2020-05-08T07:11:55Z</time>
      </trkpt>
      <trkpt lat="46.0091" lon="6.20571">
        <ele>659.6</ele>
        <time>2020-05-08T07:11:56Z</time>
      </trkpt>
      <trkpt lat="46.01053" lon="6.20741">
        <ele>661.04</ele>
        <time>2020-05-08T07:12:04Z</time>
      </trkpt>
      <trkpt lat="46.01259" lon="6.2099">
        <ele>665.85</ele>
        <time>2020-05-08T07:12:14Z</time>
      </trkpt>
      <trkpt lat="46.01396" lon="6.21179">
        <ele>670.66</ele>
        <time>2020-05-08T07:12:21Z</time>
      </trkpt>
      <trkpt lat="46.01432" lon="6.21235">
        <ele>672.1</ele>
        <time>2020-05-08T07:12:23Z</time>
      </trkpt>
      <trkpt lat="46.01454" lon="6.21258">
        <ele>673.06</ele>
        <time>2020-05-08T07:12:24Z</time>
      </trkpt>
      <trkpt lat="46.0161" lon="6.21414">
        <ele>678.35</ele>
        <time>2020-05-08T07:12:31Z</time>
      </trkpt>
      <trkpt lat="46.01694" lon="6.21508">
        <ele>680.75</ele>
        <time>2020-05-08T07:12:35Z</time>
      </trkpt>
      <trkpt lat="46.0171" lon="6.21538">
        <ele>681.23</ele>
        <time>2020-05-08T07:12:36Z</time>
      </trkpt>
      <trkpt lat="46.01725" lon="6.21568">
        <ele>682.19</ele>
        <time>2020-05-08T07:12:37Z</time>
      </trkpt>
      <trkpt lat="46.01847" lon="6.21868">
        <ele>683.63</ele>
        <time>2020-05-08T07:12:46Z</time>
      </trkpt>
      <trkpt lat="46.01926" lon="6.22138">
        <ele>683.63</ele>
        <time>2020-05-08T07:12:53Z</time>
      </trkpt>
      <trkpt lat="46.01987" lon="6.22528">
        <ele>689.88</ele>
        <time>2020-05-08T07:13:02Z</time>
      </trkpt>
      <trkpt lat="46.02039" lon="6.22888">
        <ele>697.57</ele>
        <time>2020-05-08T07:13:11Z</time>
      </trkpt>
      <trkpt lat="46.02045" lon="6.22921">
        <ele>699.02</ele>
        <time>2020-05-08T07:13:12Z</time>
      </trkpt>
      <trkpt lat="46.02055" lon="6.22952">
        <ele>699.98</ele>
        <time>2020-05-08T07:13:13Z</time>
      </trkpt>
      <trkpt lat="46.02065" lon="6.22983">
        <ele>700.46</ele>
        <time>2020-05-08T07:13:14Z</time>
      </trkpt>
      <trkpt lat="46.02079" lon="6.23009">
        <ele>701.42</ele>
        <time>2020-05-08T07:13:15Z</time>
      </trkpt>
      <trkpt lat="46.02094" lon="6.23031">
        <ele>701.9</ele>
        <time>2020-05-08T07:13:16Z</time>
      </trkpt>
      <trkpt lat="46.0211" lon="6.23051">
        <ele>702.86</ele>
        <time>2020-05-08T07:13:17Z</time>
      </trkpt>
      <trkpt lat="46.02125" lon="6.23069">
        <ele>703.34</ele>
        <time>2020-05-08T07:13:18Z</time>
      </trkpt>
      <trkpt lat="46.0215" lon="6.23105">
        <ele>704.3</ele>
        <time>2020-05-08T07:13:20Z</time>
      </trkpt>
      <trkpt lat="46.02244" lon="6.23289">
        <ele>706.71</ele>
        <time>2020-05-08T07:13:30Z</time>
      </trkpt>
      <trkpt lat="46.02291" lon="6.23377">
        <ele>709.59</ele>
        <time>2020-05-08T07:13:35Z</time>
      </trkpt>
      <trkpt lat="46.02304" lon="6.23389">
        <ele>710.07</ele>
        <time>2020-05-08T07:13:36Z</time>
      </trkpt>
      <trkpt lat="46.02319" lon="6.23403">
        <ele>710.55</ele>
        <time>2020-05-08T07:13:37Z</time>
      </trkpt>
      <trkpt lat="46.02405" lon="6.23482">
        <ele>715.84</ele>
        <time>2020-05-08T07:13:42Z</time>
      </trkpt>
      <trkpt lat="46.02419" lon="6.23505">
        <ele>716.8</ele>
        <time>2020-05-08T07:13:43Z</time>
      </trkpt>
      <trkpt lat="46.02431" lon="6.23529">
        <ele>717.76</ele>
        <time>2020-05-08T07:13:44Z</time>
      </trkpt>
      <trkpt lat="46.02522" lon="6.23693">
        <ele>724.01</ele>
        <time>2020-05-08T07:13:51Z</time>
      </trkpt>
      <trkpt lat="46.02539" lon="6.23711">
        <ele>724.97</ele>
        <time>2020-05-08T07:13:52Z</time>
      </trkpt>
      <trkpt lat="46.02557" lon="6.23726">
        <ele>725.93</ele>
        <time>2020-05-08T07:13:53Z</time>
      </trkpt>
      <trkpt lat="46.02576" lon="6.23737">
        <ele>726.89</ele>
        <time>2020-05-08T07:13:54Z</time>
      </trkpt>
      <trkpt lat="46.02596" lon="6.23746">
        <ele>727.37</ele>
        <time>2020-05-08T07:13:55Z</time>
      </trkpt>
      <trkpt lat="46.02617" lon="6.23753">
        <ele>727.86</ele>
        <time>2020-05-08T07:13:56Z</time>
      </trkpt>
      <trkpt lat="46.02638" lon="6.23758">
        <ele>728.82</ele>
        <time>2020-05-08T07:13:57Z</time>
      </trkpt>
      <trkpt lat="46.02859" lon="6.23801">
        <ele>738.43</ele>
        <time>2020-05-08T07:14:07Z</time>
      </trkpt>
      <trkpt lat="46.03023" lon="6.23882">
        <ele>742.76</ele>
        <time>2020-05-08T07:14:15Z</time>
      </trkpt>
      <trkpt lat="46.03125" lon="6.23986">
        <ele>744.2</ele>
        <time>2020-05-08T07:14:20Z</time>
      </trkpt>
      <trkpt lat="46.03239" lon="6.24119">
        <ele>747.56</ele>
        <time>2020-05-08T07:14:26Z</time>
      </trkpt>
      <trkpt lat="46.03311" lon="6.24231">
        <ele>749.49</ele>
        <time>2020-05-08T07:14:32Z</time>
      </trkpt>
      <trkpt lat="46.03324" lon="6.24244">
        <ele>749.97</ele>
        <time>2020-05-08T07:14:33Z</time>
      </trkpt>
      <trkpt lat="46.03337" lon="6.24254">
        <ele>750.45</ele>
        <time>2020-05-08T07:14:34Z</time>
      </trkpt>
      <trkpt lat="46.0335" lon="6.24263">
        <ele>750.45</ele>
        <time>2020-05-08T07:14:35Z</time>
      </trkpt>
      <trkpt lat="46.03365" lon="6.24268">
        <ele>750.93</ele>
        <time>2020-05-08T07:14:36Z</time>
      </trkpt>
      <trkpt lat="46.03378" lon="6.24272">
        <ele>750.93</ele>
        <time>2020-05-08T07:14:37Z</time>
      </trkpt>
      <trkpt lat="46.03392" lon="6.2427">
        <ele>750.93</ele>
        <time>2020-05-08T07:14:38Z</time>
      </trkpt>
      <trkpt lat="46.03405" lon="6.24267">
        <ele>751.41</ele>
        <time>2020-05-08T07:14:39Z</time>
      </trkpt>
      <trkpt lat="46.03418" lon="6.24262">
        <ele>751.41</ele>
        <time>2020-05-08T07:14:40Z</time>
      </trkpt>
      <trkpt lat="46.03431" lon="6.24253">
        <ele>751.89</ele>
        <time>2020-05-08T07:14:41Z</time>
      </trkpt>
      <trkpt lat="46.03441" lon="6.24247">
        <ele>752.37</ele>
        <time>2020-05-08T07:14:42Z</time>
      </trkpt>
      <trkpt lat="46.03452" lon="6.24229">
        <ele>752.85</ele>
        <time>2020-05-08T07:14:43Z</time>
      </trkpt>
      <trkpt lat="46.03463" lon="6.24212">
        <ele>753.33</ele>
        <time>2020-05-08T07:14:44Z</time>
      </trkpt>
      <trkpt lat="46.03474" lon="6.24195">
        <ele>753.81</ele>
        <time>2020-05-08T07:14:45Z</time>
      </trkpt>
      <trkpt lat="46.03487" lon="6.24176">
        <ele>754.77</ele>
        <time>2020-05-08T07:14:46Z</time>
      </trkpt>
      <trkpt lat="46.03541" lon="6.24095">
        <ele>758.62</ele>
        <time>2020-05-08T07:14:50Z</time>
      </trkpt>
      <trkpt lat="46.03559" lon="6.24082">
        <ele>759.58</ele>
        <time>2020-05-08T07:14:51Z</time>
      </trkpt>
      <trkpt lat="46.03578" lon="6.24076">
        <ele>760.54</ele>
        <time>2020-05-08T07:14:52Z</time>
      </trkpt>
      <trkpt lat="46.03597" lon="6.24071">
        <ele>761.5</ele>
        <time>2020-05-08T07:14:53Z</time>
      </trkpt>
      <trkpt lat="46.03617" lon="6.24073">
        <ele>762.46</ele>
        <time>2020-05-08T07:14:54Z</time>
      </trkpt>
      <trkpt lat="46.03639" lon="6.24075">
        <ele>762.94</ele>
        <time>2020-05-08T07:14:55Z</time>
      </trkpt>
      <trkpt lat="46.03657" lon="6.24084">
        <ele>764.39</ele>
        <time>2020-05-08T07:14:56Z</time>
      </trkpt>
      <trkpt lat="46.03676" lon="6.24099">
        <ele>765.35</ele>
        <time>2020-05-08T07:14:57Z</time>
      </trkpt>
      <trkpt lat="46.03694" lon="6.24116">
        <ele>766.31</ele>
        <time>2020-05-08T07:14:58Z</time>
      </trkpt>
      <trkpt lat="46.03712" lon="6.24137">
        <ele>767.75</ele>
        <time>2020-05-08T07:14:59Z</time>
      </trkpt>
      <trkpt lat="46.03728" lon="6.24161">
        <ele>768.71</ele>
        <time>2020-05-08T07:15:00Z</time>
      </trkpt>
      <trkpt lat="46.03745" lon="6.24187">
        <ele>770.15</ele>
        <time>2020-05-08T07:15:01Z</time>
      </trkpt>
      <trkpt lat="46.03762" lon="6.24213">
        <ele>771.6</ele>
        <time>2020-05-08T07:15:02Z</time>
      </trkpt>
      <trkpt lat="46.03773" lon="6.24246">
        <ele>773.04</ele>
        <time>2020-05-08T07:15:03Z</time>
      </trkpt>
      <trkpt lat="46.03785" lon="6.24278">
        <ele>774.48</ele>
        <time>2020-05-08T07:15:04Z</time>
      </trkpt>
      <trkpt lat="46.03795" lon="6.24313">
        <ele>775.92</ele>
        <time>2020-05-08T07:15:05Z</time>
      </trkpt>
      <trkpt lat="46.03802" lon="6.24349">
        <ele>777.84</ele>
        <time>2020-05-08T07:15:06Z</time>
      </trkpt>
      <trkpt lat="46.03839" lon="6.24519">
        <ele>786.5</ele>
        <time>2020-05-08T07:15:11Z</time>
      </trkpt>
      <trkpt lat="46.03849" lon="6.24548">
        <ele>787.94</ele>
        <time>2020-05-08T07:15:12Z</time>
      </trkpt>
      <trkpt lat="46.0386" lon="6.24577">
        <ele>789.38</ele>
        <time>2020-05-08T07:15:13Z</time>
      </trkpt>
      <trkpt lat="46.03875" lon="6.24602">
        <ele>790.34</ele>
        <time>2020-05-08T07:15:14Z</time>
      </trkpt>
      <trkpt lat="46.03891" lon="6.24626">
        <ele>791.3</ele>
        <time>2020-05-08T07:15:15Z</time>
      </trkpt>
      <trkpt lat="46.03909" lon="6.24646">
        <ele>792.26</ele>
        <time>2020-05-08T07:15:16Z</time>
      </trkpt>
      <trkpt lat="46.03928" lon="6.24665">
        <ele>792.74</ele>
        <time>2020-05-08T07:15:17Z</time>
      </trkpt>
      <trkpt lat="46.03949" lon="6.24681">
        <ele>793.22</ele>
        <time>2020-05-08T07:15:18Z</time>
      </trkpt>
      <trkpt lat="46.03971" lon="6.24694">
        <ele>793.22</ele>
        <time>2020-05-08T07:15:19Z</time>
      </trkpt>
      <trkpt lat="46.03994" lon="6.24704">
        <ele>793.71</ele>
        <time>2020-05-08T07:15:20Z</time>
      </trkpt>
      <trkpt lat="46.04018" lon="6.24711">
        <ele>793.71</ele>
        <time>2020-05-08T07:15:21Z</time>
      </trkpt>
      <trkpt lat="46.0409" lon="6.2474">
        <ele>792.26</ele>
        <time>2020-05-08T07:15:24Z</time>
      </trkpt>
      <trkpt lat="46.04114" lon="6.24755">
        <ele>791.78</ele>
        <time>2020-05-08T07:15:25Z</time>
      </trkpt>
      <trkpt lat="46.04134" lon="6.24778">
        <ele>790.82</ele>
        <time>2020-05-08T07:15:26Z</time>
      </trkpt>
      <trkpt lat="46.04155" lon="6.24801">
        <ele>789.86</ele>
        <time>2020-05-08T07:15:27Z</time>
      </trkpt>
      <trkpt lat="46.04175" lon="6.24824">
        <ele>788.9</ele>
        <time>2020-05-08T07:15:28Z</time>
      </trkpt>
      <trkpt lat="46.04334" lon="6.25063">
        <ele>788.42</ele>
        <time>2020-05-08T07:15:37Z</time>
      </trkpt>
      <trkpt lat="46.04349" lon="6.25092">
        <ele>789.86</ele>
        <time>2020-05-08T07:15:38Z</time>
      </trkpt>
      <trkpt lat="46.0436" lon="6.25125">
        <ele>790.82</ele>
        <time>2020-05-08T07:15:39Z</time>
      </trkpt>
      <trkpt lat="46.04371" lon="6.25158">
        <ele>792.26</ele>
        <time>2020-05-08T07:15:40Z</time>
      </trkpt>
      <trkpt lat="46.04379" lon="6.25192">
        <ele>793.22</ele>
        <time>2020-05-08T07:15:41Z</time>
      </trkpt>
      <trkpt lat="46.04463" lon="6.25526">
        <ele>802.36</ele>
        <time>2020-05-08T07:15:51Z</time>
      </trkpt>
      <trkpt lat="46.04564" lon="6.25742">
        <ele>803.32</ele>
        <time>2020-05-08T07:15:59Z</time>
      </trkpt>
      <trkpt lat="46.04693" lon="6.26006">
        <ele>801.4</ele>
        <time>2020-05-08T07:16:10Z</time>
      </trkpt>
      <trkpt lat="46.04877" lon="6.26369">
        <ele>792.26</ele>
        <time>2020-05-08T07:16:24Z</time>
      </trkpt>
      <trkpt lat="46.04894" lon="6.2639">
        <ele>791.3</ele>
        <time>2020-05-08T07:16:25Z</time>
      </trkpt>
      <trkpt lat="46.04912" lon="6.26411">
        <ele>789.86</ele>
        <time>2020-05-08T07:16:26Z</time>
      </trkpt>
      <trkpt lat="46.04931" lon="6.26431">
        <ele>788.9</ele>
        <time>2020-05-08T07:16:27Z</time>
      </trkpt>
      <trkpt lat="46.04951" lon="6.26448">
        <ele>787.46</ele>
        <time>2020-05-08T07:16:28Z</time>
      </trkpt>
      <trkpt lat="46.05055" lon="6.26539">
        <ele>780.73</ele>
        <time>2020-05-08T07:16:33Z</time>
      </trkpt>
      <trkpt lat="46.05073" lon="6.26563">
        <ele>779.29</ele>
        <time>2020-05-08T07:16:34Z</time>
      </trkpt>
      <trkpt lat="46.05088" lon="6.2659">
        <ele>777.84</ele>
        <time>2020-05-08T07:16:35Z</time>
      </trkpt>
      <trkpt lat="46.05103" lon="6.26618">
        <ele>776.4</ele>
        <time>2020-05-08T07:16:36Z</time>
      </trkpt>
      <trkpt lat="46.05115" lon="6.26648">
        <ele>775.44</ele>
        <time>2020-05-08T07:16:37Z</time>
      </trkpt>
      <trkpt lat="46.05125" lon="6.2668">
        <ele>774.48</ele>
        <time>2020-05-08T07:16:38Z</time>
      </trkpt>
      <trkpt lat="46.05134" lon="6.26713">
        <ele>773.52</ele>
        <time>2020-05-08T07:16:39Z</time>
      </trkpt>
      <trkpt lat="46.05141" lon="6.26747">
        <ele>772.56</ele>
        <time>2020-05-08T07:16:40Z</time>
      </trkpt>
      <trkpt lat="46.05145" lon="6.26782">
        <ele>771.6</ele>
        <time>2020-05-08T07:16:41Z</time>
      </trkpt>
      <trkpt lat="46.05149" lon="6.26817">
        <ele>771.11</ele>
        <time>2020-05-08T07:16:42Z</time>
      </trkpt>
      <trkpt lat="46.05148" lon="6.26853">
        <ele>770.15</ele>
        <time>2020-05-08T07:16:43Z</time>
      </trkpt>
      <trkpt lat="46.05146" lon="6.26888">
        <ele>769.19</ele>
        <time>2020-05-08T07:16:44Z</time>
      </trkpt>
      <trkpt lat="46.05143" lon="6.26921">
        <ele>768.71</ele>
        <time>2020-05-08T07:16:45Z</time>
      </trkpt>
      <trkpt lat="46.05124" lon="6.27199">
        <ele>763.9</ele>
        <time>2020-05-08T07:16:54Z</time>
      </trkpt>
      <trkpt lat="46.0514" lon="6.2743">
        <ele>758.14</ele>
        <time>2020-05-08T07:17:01Z</time>
      </trkpt>
      <trkpt lat="46.05192" lon="6.27666">
        <ele>752.85</ele>
        <time>2020-05-08T07:17:08Z</time>
      </trkpt>
      <trkpt lat="46.05364" lon="6.28167">
        <ele>746.12</ele>
        <time>2020-05-08T07:17:24Z</time>
      </trkpt>
      <trkpt lat="46.0553" lon="6.28641">
        <ele>736.51</ele>
        <time>2020-05-08T07:17:39Z</time>
      </trkpt>
      <trkpt lat="46.0563" lon="6.28887">
        <ele>728.82</ele>
        <time>2020-05-08T07:17:47Z</time>
      </trkpt>
      <trkpt lat="46.05646" lon="6.28913">
        <ele>727.37</ele>
        <time>2020-05-08T07:17:48Z</time>
      </trkpt>
      <trkpt lat="46.05665" lon="6.28935">
        <ele>725.93</ele>
        <time>2020-05-08T07:17:49Z</time>
      </trkpt>
      <trkpt lat="46.05685" lon="6.28955">
        <ele>724.49</ele>
        <time>2020-05-08T07:17:50Z</time>
      </trkpt>
      <trkpt lat="46.05707" lon="6.2897">
        <ele>723.05</ele>
        <time>2020-05-08T07:17:51Z</time>
      </trkpt>
      <trkpt lat="46.05729" lon="6.28985">
        <ele>721.61</ele>
        <time>2020-05-08T07:17:52Z</time>
      </trkpt>
      <trkpt lat="46.05753" lon="6.28995">
        <ele>720.16</ele>
        <time>2020-05-08T07:17:53Z</time>
      </trkpt>
      <trkpt lat="46.05777" lon="6.29003">
        <ele>719.2</ele>
        <time>2020-05-08T07:17:54Z</time>
      </trkpt>
      <trkpt lat="46.05802" lon="6.29007">
        <ele>718.24</ele>
        <time>2020-05-08T07:17:55Z</time>
      </trkpt>
      <trkpt lat="46.05827" lon="6.29009">
        <ele>716.8</ele>
        <time>2020-05-08T07:17:56Z</time>
      </trkpt>
      <trkpt lat="46.05852" lon="6.29006">
        <ele>715.84</ele>
        <time>2020-05-08T07:17:57Z</time>
      </trkpt>
      <trkpt lat="46.05878" lon="6.29003">
        <ele>714.4</ele>
        <time>2020-05-08T07:17:58Z</time>
      </trkpt>
      <trkpt lat="46.05903" lon="6.28997">
        <ele>712.95</ele>
        <time>2020-05-08T07:17:59Z</time>
      </trkpt>
      <trkpt lat="46.0614" lon="6.28918">
        <ele>699.5</ele>
        <time>2020-05-08T07:18:09Z</time>
      </trkpt>
      <trkpt lat="46.06367" lon="6.28848">
        <ele>686.52</ele>
        <time>2020-05-08T07:18:20Z</time>
      </trkpt>
      <trkpt lat="46.0641" lon="6.2884">
        <ele>683.15</ele>
        <time>2020-05-08T07:18:23Z</time>
      </trkpt>
      <trkpt lat="46.06421" lon="6.28838">
        <ele>682.19</ele>
        <time>2020-05-08T07:18:24Z</time>
      </trkpt>
      <trkpt lat="46.06434" lon="6.28858">
        <ele>680.75</ele>
        <time>2020-05-08T07:18:25Z</time>
      </trkpt>
      <trkpt lat="46.06438" lon="6.28859">
        <ele>680.27</ele>
        <time>2020-05-08T07:18:26Z</time>
      </trkpt>
      <trkpt lat="46.06451" lon="6.28853">
        <ele>680.27</ele>
        <time>2020-05-08T07:18:27Z</time>
      </trkpt>
      <trkpt lat="46.06456" lon="6.28849">
        <ele>679.79</ele>
        <time>2020-05-08T07:18:28Z</time>
      </trkpt>
      <trkpt lat="46.06468" lon="6.28829">
        <ele>679.31</ele>
        <time>2020-05-08T07:18:29Z</time>
      </trkpt>
      <trkpt lat="46.06481" lon="6.28826">
        <ele>678.83</ele>
        <time>2020-05-08T07:18:30Z</time>
      </trkpt>
      <trkpt lat="46.06582" lon="6.28773">
        <ele>673.06</ele>
        <time>2020-05-08T07:18:36Z</time>
      </trkpt>
      <trkpt lat="46.06767" lon="6.28677">
        <ele>662.01</ele>
        <time>2020-05-08T07:18:47Z</time>
      </trkpt>
      <trkpt lat="46.06802" lon="6.28673">
        <ele>660.08</ele>
        <time>2020-05-08T07:18:49Z</time>
      </trkpt>
      <trkpt lat="46.06919" lon="6.28725">
        <ele>652.87</ele>
        <time>2020-05-08T07:18:56Z</time>
      </trkpt>
      <trkpt lat="46.07067" lon="6.28811">
        <ele>644.7</ele>
        <time>2020-05-08T07:19:05Z</time>
      </trkpt>
      <trkpt lat="46.07234" lon="6.28827">
        <ele>636.05</ele>
        <time>2020-05-08T07:19:14Z</time>
      </trkpt>
      <trkpt lat="46.07381" lon="6.28877">
        <ele>627.4</ele>
        <time>2020-05-08T07:19:22Z</time>
      </trkpt>
      <trkpt lat="46.07398" lon="6.28892">
        <ele>626.44</ele>
        <time>2020-05-08T07:19:23Z</time>
      </trkpt>
      <trkpt lat="46.07414" lon="6.2891">
        <ele>624.99</ele>
        <time>2020-05-08T07:19:24Z</time>
      </trkpt>
      <trkpt lat="46.07427" lon="6.28931">
        <ele>624.03</ele>
        <time>2020-05-08T07:19:25Z</time>
      </trkpt>
      <trkpt lat="46.07441" lon="6.28953">
        <ele>623.07</ele>
        <time>2020-05-08T07:19:26Z</time>
      </trkpt>
      <trkpt lat="46.07454" lon="6.28976">
        <ele>622.11</ele>
        <time>2020-05-08T07:19:27Z</time>
      </trkpt>
      <trkpt lat="46.07464" lon="6.29001">
        <ele>621.15</ele>
        <time>2020-05-08T07:19:28Z</time>
      </trkpt>
      <trkpt lat="46.07472" lon="6.29028">
        <ele>620.19</ele>
        <time>2020-05-08T07:19:29Z</time>
      </trkpt>
      <trkpt lat="46.07479" lon="6.29056">
        <ele>619.23</ele>
        <time>2020-05-08T07:19:30Z</time>
      </trkpt>
      <trkpt lat="46.07512" lon="6.2918">
        <ele>614.9</ele>
        <time>2020-05-08T07:19:35Z</time>
      </trkpt>
      <trkpt lat="46.07521" lon="6.29207">
        <ele>613.46</ele>
        <time>2020-05-08T07:19:36Z</time>
      </trkpt>
      <trkpt lat="46.07516" lon="6.29225">
        <ele>612.5</ele>
        <time>2020-05-08T07:19:37Z</time>
      </trkpt>
      <trkpt lat="46.07509" lon="6.29245">
        <ele>611.54</ele>
        <time>2020-05-08T07:19:38Z</time>
      </trkpt>
      <trkpt lat="46.07502" lon="6.29267">
        <ele>610.57</ele>
        <time>2020-05-08T07:19:39Z</time>
      </trkpt>
      <trkpt lat="46.07494" lon="6.29291">
        <ele>609.61</ele>
        <time>2020-05-08T07:19:40Z</time>
      </trkpt>
      <trkpt lat="46.07485" lon="6.29318">
        <ele>609.13</ele>
        <time>2020-05-08T07:19:41Z</time>
      </trkpt>
      <trkpt lat="46.07475" lon="6.29347">
        <ele>608.17</ele>
        <time>2020-05-08T07:19:42Z</time>
      </trkpt>
      <trkpt lat="46.07462" lon="6.29376">
        <ele>606.73</ele>
        <time>2020-05-08T07:19:43Z</time>
      </trkpt>
      <trkpt lat="46.07448" lon="6.29402">
        <ele>605.77</ele>
        <time>2020-05-08T07:19:44Z</time>
      </trkpt>
      <trkpt lat="46.07323" lon="6.29591">
        <ele>599.04</ele>
        <time>2020-05-08T07:19:52Z</time>
      </trkpt>
      <trkpt lat="46.07232" lon="6.29704">
        <ele>595.19</ele>
        <time>2020-05-08T07:19:58Z</time>
      </trkpt>
      <trkpt lat="46.07148" lon="6.29802">
        <ele>590.39</ele>
        <time>2020-05-08T07:20:05Z</time>
      </trkpt>
      <trkpt lat="46.07095" lon="6.2994">
        <ele>586.06</ele>
        <time>2020-05-08T07:20:13Z</time>
      </trkpt>
      <trkpt lat="46.0708" lon="6.30029">
        <ele>584.14</ele>
        <time>2020-05-08T07:20:19Z</time>
      </trkpt>
      <trkpt lat="46.07075" lon="6.3005">
        <ele>584.14</ele>
        <time>2020-05-08T07:20:20Z</time>
      </trkpt>
      <trkpt lat="46.07078" lon="6.30057">
        <ele>584.14</ele>
        <time>2020-05-08T07:20:21Z</time>
      </trkpt>
      <trkpt lat="46.07085" lon="6.30075">
        <ele>584.14</ele>
        <time>2020-05-08T07:20:22Z</time>
      </trkpt>
      <trkpt lat="46.07084" lon="6.30087">
        <ele>583.66</ele>
        <time>2020-05-08T07:20:23Z</time>
      </trkpt>
      <trkpt lat="46.07081" lon="6.30098">
        <ele>583.66</ele>
        <time>2020-05-08T07:20:24Z</time>
      </trkpt>
      <trkpt lat="46.07076" lon="6.30111">
        <ele>583.66</ele>
        <time>2020-05-08T07:20:25Z</time>
      </trkpt>
      <trkpt lat="46.0707" lon="6.30124">
        <ele>583.66</ele>
        <time>2020-05-08T07:20:26Z</time>
      </trkpt>
      <trkpt lat="46.07064" lon="6.30138">
        <ele>583.66</ele>
        <time>2020-05-08T07:20:27Z</time>
      </trkpt>
      <trkpt lat="46.07059" lon="6.30151">
        <ele>583.66</ele>
        <time>2020-05-08T07:20:28Z</time>
      </trkpt>
      <trkpt lat="46.07055" lon="6.30168">
        <ele>583.18</ele>
        <time>2020-05-08T07:20:29Z</time>
      </trkpt>
      <trkpt lat="46.07048" lon="6.302">
        <ele>582.7</ele>
        <time>2020-05-08T07:20:31Z</time>
      </trkpt>
      <trkpt lat="46.07046" lon="6.30213">
        <ele>582.22</ele>
        <time>2020-05-08T07:20:32Z</time>
      </trkpt>
      <trkpt lat="46.07043" lon="6.30224">
        <ele>581.73</ele>
        <time>2020-05-08T07:20:33Z</time>
      </trkpt>
      <trkpt lat="46.07033" lon="6.30229">
        <ele>581.25</ele>
        <time>2020-05-08T07:20:34Z</time>
      </trkpt>
      <trkpt lat="46.07031" lon="6.30238">
        <ele>580.77</ele>
        <time>2020-05-08T07:20:35Z</time>
      </trkpt>
      <trkpt lat="46.07037" lon="6.30252">
        <ele>580.77</ele>
        <time>2020-05-08T07:20:36Z</time>
      </trkpt>
      <trkpt lat="46.07035" lon="6.30265">
        <ele>580.29</ele>
        <time>2020-05-08T07:20:37Z</time>
      </trkpt>
      <trkpt lat="46.07032" lon="6.30281">
        <ele>579.33</ele>
        <time>2020-05-08T07:20:38Z</time>
      </trkpt>
      <trkpt lat="46.07029" lon="6.30299">
        <ele>578.37</ele>
        <time>2020-05-08T07:20:39Z</time>
      </trkpt>
      <trkpt lat="46.07026" lon="6.30319">
        <ele>577.41</ele>
        <time>2020-05-08T07:20:40Z</time>
      </trkpt>
      <trkpt lat="46.07013" lon="6.30408">
        <ele>569.72</ele>
        <time>2020-05-08T07:20:45Z</time>
      </trkpt>
      <trkpt lat="46.0701" lon="6.30425">
        <ele>568.28</ele>
        <time>2020-05-08T07:20:46Z</time>
      </trkpt>
      <trkpt lat="46.06989" lon="6.30522">
        <ele>561.07</ele>
        <time>2020-05-08T07:20:52Z</time>
      </trkpt>
      <trkpt lat="46.06989" lon="6.30542">
        <ele>560.11</ele>
        <time>2020-05-08T07:20:53Z</time>
      </trkpt>
      <trkpt lat="46.06984" lon="6.3056">
        <ele>559.14</ele>
        <time>2020-05-08T07:20:54Z</time>
      </trkpt>
      <trkpt lat="46.06981" lon="6.30577">
        <ele>558.18</ele>
        <time>2020-05-08T07:20:55Z</time>
      </trkpt>
      <trkpt lat="46.06978" lon="6.30595">
        <ele>557.7</ele>
        <time>2020-05-08T07:20:56Z</time>
      </trkpt>
      <trkpt lat="46.06941" lon="6.30745">
        <ele>554.34</ele>
        <time>2020-05-08T07:21:05Z</time>
      </trkpt>
      <trkpt lat="46.06893" lon="6.30824">
        <ele>554.34</ele>
        <time>2020-05-08T07:21:11Z</time>
      </trkpt>
      <trkpt lat="46.06824" lon="6.30912">
        <ele>554.82</ele>
        <time>2020-05-08T07:21:20Z</time>
      </trkpt>
      <trkpt lat="46.06819" lon="6.3092">
        <ele>554.82</ele>
        <time>2020-05-08T07:21:21Z</time>
      </trkpt>
      <trkpt lat="46.06811" lon="6.30938">
        <ele>554.34</ele>
        <time>2020-05-08T07:21:23Z</time>
      </trkpt>
      <trkpt lat="46.06778" lon="6.3104">
        <ele>548.09</ele>
        <time>2020-05-08T07:21:30Z</time>
      </trkpt>
      <trkpt lat="46.06737" lon="6.31181">
        <ele>543.28</ele>
        <time>2020-05-08T07:21:40Z</time>
      </trkpt>
      <trkpt lat="46.06732" lon="6.31191">
        <ele>542.8</ele>
        <time>2020-05-08T07:21:41Z</time>
      </trkpt>
      <trkpt lat="46.06722" lon="6.31214">
        <ele>541.36</ele>
        <time>2020-05-08T07:21:47Z</time>
      </trkpt>
      <trkpt lat="46.06718" lon="6.31253">
        <ele>540.4</ele>
        <time>2020-05-08T07:21:49Z</time>
      </trkpt>
      <trkpt lat="46.06718" lon="6.31253">
        <ele>539.92</ele>
        <time>2020-05-08T07:21:50Z</time>
      </trkpt>
      <trkpt lat="46.0672" lon="6.31266">
        <ele>539.44</ele>
        <time>2020-05-08T07:21:53Z</time>
      </trkpt>
      <trkpt lat="46.0672" lon="6.31268">
        <ele>539.44</ele>
        <time>2020-05-08T07:21:54Z</time>
      </trkpt>
      <trkpt lat="46.0673" lon="6.31275">
        <ele>539.44</ele>
        <time>2020-05-08T07:21:56Z</time>
      </trkpt>
      <trkpt lat="46.06734" lon="6.31284">
        <ele>539.44</ele>
        <time>2020-05-08T07:21:57Z</time>
      </trkpt>
      <trkpt lat="46.06738" lon="6.31295">
        <ele>539.44</ele>
        <time>2020-05-08T07:21:58Z</time>
      </trkpt>
      <trkpt lat="46.06742" lon="6.31308">
        <ele>538.96</ele>
        <time>2020-05-08T07:21:59Z</time>
      </trkpt>
      <trkpt lat="46.06746" lon="6.31322">
        <ele>538.96</ele>
        <time>2020-05-08T07:22:00Z</time>
      </trkpt>
      <trkpt lat="46.0675" lon="6.31334">
        <ele>538.48</ele>
        <time>2020-05-08T07:22:01Z</time>
      </trkpt>
      <trkpt lat="46.06751" lon="6.31352">
        <ele>537.51</ele>
        <time>2020-05-08T07:22:02Z</time>
      </trkpt>
      <trkpt lat="46.06751" lon="6.31367">
        <ele>536.55</ele>
        <time>2020-05-08T07:22:03Z</time>
      </trkpt>
      <trkpt lat="46.06752" lon="6.31381">
        <ele>536.55</ele>
        <time>2020-05-08T07:22:04Z</time>
      </trkpt>
      <trkpt lat="46.06757" lon="6.31394">
        <ele>536.07</ele>
        <time>2020-05-08T07:22:05Z</time>
      </trkpt>
      <trkpt lat="46.06763" lon="6.31407">
        <ele>535.59</ele>
        <time>2020-05-08T07:22:06Z</time>
      </trkpt>
      <trkpt lat="46.0677" lon="6.31421">
        <ele>535.11</ele>
        <time>2020-05-08T07:22:07Z</time>
      </trkpt>
      <trkpt lat="46.06798" lon="6.31499">
        <ele>532.71</ele>
        <time>2020-05-08T07:22:12Z</time>
      </trkpt>
      <trkpt lat="46.06853" lon="6.31664">
        <ele>525.5</ele>
        <time>2020-05-08T07:22:22Z</time>
      </trkpt>
      <trkpt lat="46.06916" lon="6.31875">
        <ele>513.96</ele>
        <time>2020-05-08T07:22:34Z</time>
      </trkpt>
      <trkpt lat="46.06983" lon="6.3209">
        <ele>511.56</ele>
        <time>2020-05-08T07:22:46Z</time>
      </trkpt>
      <trkpt lat="46.0699" lon="6.32101">
        <ele>511.08</ele>
        <time>2020-05-08T07:22:47Z</time>
      </trkpt>
      <trkpt lat="46.06997" lon="6.32107">
        <ele>511.08</ele>
        <time>2020-05-08T07:22:48Z</time>
      </trkpt>
      <trkpt lat="46.07006" lon="6.3211">
        <ele>511.08</ele>
        <time>2020-05-08T07:22:49Z</time>
      </trkpt>
      <trkpt lat="46.07013" lon="6.32113">
        <ele>511.08</ele>
        <time>2020-05-08T07:22:50Z</time>
      </trkpt>
      <trkpt lat="46.07017" lon="6.32115">
        <ele>511.56</ele>
        <time>2020-05-08T07:22:51Z</time>
      </trkpt>
      <trkpt lat="46.07019" lon="6.32116">
        <ele>511.56</ele>
        <time>2020-05-08T07:22:52Z</time>
      </trkpt>
      <trkpt lat="46.07027" lon="6.32124">
        <ele>511.56</ele>
        <time>2020-05-08T07:22:53Z</time>
      </trkpt>
      <trkpt lat="46.07026" lon="6.3213">
        <ele>511.56</ele>
        <time>2020-05-08T07:22:54Z</time>
      </trkpt>
      <trkpt lat="46.07026" lon="6.32141">
        <ele>511.56</ele>
        <time>2020-05-08T07:22:55Z</time>
      </trkpt>
      <trkpt lat="46.07025" lon="6.32156">
        <ele>511.08</ele>
        <time>2020-05-08T07:22:56Z</time>
      </trkpt>
      <trkpt lat="46.07025" lon="6.32176">
        <ele>511.08</ele>
        <time>2020-05-08T07:22:57Z</time>
      </trkpt>
      <trkpt lat="46.07026" lon="6.32198">
        <ele>510.6</ele>
        <time>2020-05-08T07:22:58Z</time>
      </trkpt>
      <trkpt lat="46.0703" lon="6.32222">
        <ele>510.12</ele>
        <time>2020-05-08T07:22:59Z</time>
      </trkpt>
      <trkpt lat="46.07034" lon="6.32249">
        <ele>509.64</ele>
        <time>2020-05-08T07:23:00Z</time>
      </trkpt>
      <trkpt lat="46.0704" lon="6.32277">
        <ele>509.16</ele>
        <time>2020-05-08T07:23:01Z</time>
      </trkpt>
      <trkpt lat="46.07086" lon="6.32458">
        <ele>502.43</ele>
        <time>2020-05-08T07:23:09Z</time>
      </trkpt>
      <trkpt lat="46.07106" lon="6.32613">
        <ele>498.1</ele>
        <time>2020-05-08T07:23:18Z</time>
      </trkpt>
      <trkpt lat="46.07113" lon="6.32722">
        <ele>495.22</ele>
        <time>2020-05-08T07:23:25Z</time>
      </trkpt>
      <trkpt lat="46.07114" lon="6.32734">
        <ele>494.74</ele>
        <time>2020-05-08T07:23:26Z</time>
      </trkpt>
      <trkpt lat="46.07108" lon="6.3275">
        <ele>494.26</ele>
        <time>2020-05-08T07:23:27Z</time>
      </trkpt>
      <trkpt lat="46.07108" lon="6.32757">
        <ele>493.77</ele>
        <time>2020-05-08T07:23:28Z</time>
      </trkpt>
      <trkpt lat="46.07109" lon="6.32768">
        <ele>493.29</ele>
        <time>2020-05-08T07:23:29Z</time>
      </trkpt>
      <trkpt lat="46.07113" lon="6.32776">
        <ele>492.81</ele>
        <time>2020-05-08T07:23:30Z</time>
      </trkpt>
      <trkpt lat="46.0712" lon="6.32782">
        <ele>492.33</ele>
        <time>2020-05-08T07:23:31Z</time>
      </trkpt>
      <trkpt lat="46.07127" lon="6.32781">
        <ele>492.33</ele>
        <time>2020-05-08T07:23:32Z</time>
      </trkpt>
      <trkpt lat="46.07135" lon="6.32777">
        <ele>492.81</ele>
        <time>2020-05-08T07:23:33Z</time>
      </trkpt>
      <trkpt lat="46.07142" lon="6.32759">
        <ele>492.81</ele>
        <time>2020-05-08T07:23:34Z</time>
      </trkpt>
      <trkpt lat="46.07204" lon="6.32682">
        <ele>488.49</ele>
        <time>2020-05-08T07:23:40Z</time>
      </trkpt>
      <trkpt lat="46.07218" lon="6.32661">
        <ele>487.53</ele>
        <time>2020-05-08T07:23:42Z</time>
      </trkpt>
      <trkpt lat="46.07223" lon="6.32654">
        <ele>486.56</ele>
        <time>2020-05-08T07:23:43Z</time>
      </trkpt>
      <trkpt lat="46.07226" lon="6.32649">
        <ele>486.08</ele>
        <time>2020-05-08T07:23:44Z</time>
      </trkpt>
      <trkpt lat="46.07235" lon="6.32644">
        <ele>485.6</ele>
        <time>2020-05-08T07:23:45Z</time>
      </trkpt>
      <trkpt lat="46.07234" lon="6.32636">
        <ele>485.12</ele>
        <time>2020-05-08T07:23:46Z</time>
      </trkpt>
      <trkpt lat="46.07224" lon="6.32634">
        <ele>484.64</ele>
        <time>2020-05-08T07:23:47Z</time>
      </trkpt>
      <trkpt lat="46.0722" lon="6.32628">
        <ele>484.16</ele>
        <time>2020-05-08T07:23:48Z</time>
      </trkpt>
      <trkpt lat="46.07213" lon="6.32618">
        <ele>484.16</ele>
        <time>2020-05-08T07:23:49Z</time>
      </trkpt>
      <trkpt lat="46.07206" lon="6.32605">
        <ele>484.64</ele>
        <time>2020-05-08T07:23:50Z</time>
      </trkpt>
      <trkpt lat="46.07201" lon="6.32592">
        <ele>485.6</ele>
        <time>2020-05-08T07:23:51Z</time>
      </trkpt>
      <trkpt lat="46.07196" lon="6.3258">
        <ele>486.56</ele>
        <time>2020-05-08T07:23:52Z</time>
      </trkpt>
      <trkpt lat="46.07194" lon="6.32566">
        <ele>487.53</ele>
        <time>2020-05-08T07:23:53Z</time>
      </trkpt>
      <trkpt lat="46.07193" lon="6.32553">
        <ele>488.49</ele>
        <time>2020-05-08T07:23:54Z</time>
      </trkpt>
      <trkpt lat="46.07187" lon="6.32515">
        <ele>492.33</ele>
        <time>2020-05-08T07:24:00Z</time>
      </trkpt>
      <trkpt lat="46.07186" lon="6.3251">
        <ele>492.81</ele>
        <time>2020-05-08T07:24:01Z</time>
      </trkpt>
      <trkpt lat="46.07176" lon="6.32503">
        <ele>493.29</ele>
        <time>2020-05-08T07:24:02Z</time>
      </trkpt>
      <trkpt lat="46.07175" lon="6.32507">
        <ele>493.29</ele>
        <time>2020-05-08T07:24:03Z</time>
      </trkpt>
      <trkpt lat="46.07173" lon="6.32511">
        <ele>493.77</ele>
        <time>2020-05-08T07:24:04Z</time>
      </trkpt>
      <trkpt lat="46.07171" lon="6.32518">
        <ele>494.26</ele>
        <time>2020-05-08T07:24:05Z</time>
      </trkpt>
      <trkpt lat="46.07167" lon="6.32526">
        <ele>494.26</ele>
        <time>2020-05-08T07:24:06Z</time>
      </trkpt>
      <trkpt lat="46.07164" lon="6.32534">
        <ele>494.74</ele>
        <time>2020-05-08T07:24:07Z</time>
      </trkpt>
      <trkpt lat="46.07157" lon="6.32552">
        <ele>496.18</ele>
        <time>2020-05-08T07:24:10Z</time>
      </trkpt>
      <trkpt lat="46.07148" lon="6.32557">
        <ele>497.14</ele>
        <time>2020-05-08T07:24:12Z</time>
      </trkpt>
      <trkpt lat="46.07146" lon="6.32555">
        <ele>497.14</ele>
        <time>2020-05-08T07:24:13Z</time>
      </trkpt>
      <trkpt lat="46.07144" lon="6.32554">
        <ele>497.14</ele>
        <time>2020-05-08T07:24:14Z</time>
      </trkpt>
      <trkpt lat="46.07143" lon="6.32552">
        <ele>497.62</ele>
        <time>2020-05-08T07:24:15Z</time>
      </trkpt>
      <trkpt lat="46.0714" lon="6.3255">
        <ele>497.62</ele>
        <time>2020-05-08T07:24:16Z</time>
      </trkpt>
      <trkpt lat="46.07138" lon="6.32548">
        <ele>498.1</ele>
        <time>2020-05-08T07:24:17Z</time>
      </trkpt>
      <trkpt lat="46.07136" lon="6.32546">
        <ele>498.1</ele>
        <time>2020-05-08T07:24:18Z</time>
      </trkpt>
      <trkpt lat="46.07133" lon="6.32544">
        <ele>497.62</ele>
        <time>2020-05-08T07:24:19Z</time>
      </trkpt>
      <trkpt lat="46.07131" lon="6.32542">
        <ele>497.14</ele>
        <time>2020-05-08T07:24:20Z</time>
      </trkpt>
      <trkpt lat="46.07129" lon="6.3254">
        <ele>497.14</ele>
        <time>2020-05-08T07:24:21Z</time>
      </trkpt>
      <trkpt lat="46.07127" lon="6.32538">
        <ele>497.14</ele>
        <time>2020-05-08T07:24:22Z</time>
      </trkpt>
      <trkpt lat="46.07125" lon="6.32537">
        <ele>497.14</ele>
        <time>2020-05-08T07:24:23Z</time>
      </trkpt>
      <trkpt lat="46.07121" lon="6.32534">
        <ele>498.1</ele>
        <time>2020-05-08T07:24:32Z</time>
      </trkpt>
      <trkpt lat="46.07121" lon="6.32534">
        <ele>498.58</ele>
        <time>2020-05-08T07:24:38Z</time>
      </trkpt>
      <trkpt lat="46.07121" lon="6.32537">
        <ele>499.06</ele>
        <time>2020-05-08T07:24:39Z</time>
      </trkpt>
      <trkpt lat="46.07122" lon="6.32543">
        <ele>499.54</ele>
        <time>2020-05-08T07:24:40Z</time>
      </trkpt>
      <trkpt lat="46.07129" lon="6.3254">
        <ele>500.02</ele>
        <time>2020-05-08T07:24:41Z</time>
      </trkpt>
      <trkpt lat="46.07133" lon="6.32544">
        <ele>500.5</ele>
        <time>2020-05-08T07:24:42Z</time>
      </trkpt>
      <trkpt lat="46.07138" lon="6.32548">
        <ele>500.5</ele>
        <time>2020-05-08T07:24:43Z</time>
      </trkpt>
      <trkpt lat="46.07142" lon="6.32552">
        <ele>500.5</ele>
        <time>2020-05-08T07:24:44Z</time>
      </trkpt>
      <trkpt lat="46.07145" lon="6.32555">
        <ele>500.5</ele>
        <time>2020-05-08T07:24:45Z</time>
      </trkpt>
      <trkpt lat="46.07147" lon="6.32556">
        <ele>500.5</ele>
        <time>2020-05-08T07:24:46Z</time>
      </trkpt>
      <trkpt lat="46.0715" lon="6.32558">
        <ele>500.5</ele>
        <time>2020-05-08T07:24:47Z</time>
      </trkpt>
      <trkpt lat="46.07154" lon="6.32561">
        <ele>500.02</ele>
        <time>2020-05-08T07:24:48Z</time>
      </trkpt>
      <trkpt lat="46.07156" lon="6.32555">
        <ele>500.02</ele>
        <time>2020-05-08T07:24:49Z</time>
      </trkpt>
      <trkpt lat="46.07159" lon="6.32547">
        <ele>499.06</ele>
        <time>2020-05-08T07:24:50Z</time>
      </trkpt>
      <trkpt lat="46.07162" lon="6.3254">
        <ele>499.06</ele>
        <time>2020-05-08T07:24:51Z</time>
      </trkpt>
      <trkpt lat="46.07173" lon="6.32511">
        <ele>498.1</ele>
        <time>2020-05-08T07:25:00Z</time>
      </trkpt>
      <trkpt lat="46.07185" lon="6.32508">
        <ele>498.58</ele>
        <time>2020-05-08T07:25:03Z</time>
      </trkpt>
      <trkpt lat="46.07186" lon="6.3251">
        <ele>498.58</ele>
        <time>2020-05-08T07:25:04Z</time>
      </trkpt>
      <trkpt lat="46.07187" lon="6.32515">
        <ele>498.58</ele>
        <time>2020-05-08T07:25:05Z</time>
      </trkpt>
      <trkpt lat="46.07189" lon="6.32523">
        <ele>498.58</ele>
        <time>2020-05-08T07:25:06Z</time>
      </trkpt>
      <trkpt lat="46.07191" lon="6.32536">
        <ele>498.58</ele>
        <time>2020-05-08T07:25:07Z</time>
      </trkpt>
      <trkpt lat="46.07192" lon="6.3255">
        <ele>498.1</ele>
        <time>2020-05-08T07:25:08Z</time>
      </trkpt>
      <trkpt lat="46.07194" lon="6.32563">
        <ele>497.62</ele>
        <time>2020-05-08T07:25:09Z</time>
      </trkpt>
      <trkpt lat="46.07195" lon="6.32573">
        <ele>497.62</ele>
        <time>2020-05-08T07:25:10Z</time>
      </trkpt>
      <trkpt lat="46.07196" lon="6.32581">
        <ele>497.14</ele>
        <time>2020-05-08T07:25:11Z</time>
      </trkpt>
      <trkpt lat="46.07198" lon="6.32587">
        <ele>496.66</ele>
        <time>2020-05-08T07:25:12Z</time>
      </trkpt>
      <trkpt lat="46.07201" lon="6.32593">
        <ele>496.66</ele>
        <time>2020-05-08T07:25:13Z</time>
      </trkpt>
      <trkpt lat="46.07207" lon="6.32607">
        <ele>496.18</ele>
        <time>2020-05-08T07:25:15Z</time>
      </trkpt>
      <trkpt lat="46.0722" lon="6.32628">
        <ele>495.22</ele>
        <time>2020-05-08T07:25:18Z</time>
      </trkpt>
      <trkpt lat="46.07225" lon="6.3264">
        <ele>494.26</ele>
        <time>2020-05-08T07:25:19Z</time>
      </trkpt>
      <trkpt lat="46.0722" lon="6.32658">
        <ele>493.77</ele>
        <time>2020-05-08T07:25:20Z</time>
      </trkpt>
      <trkpt lat="46.07216" lon="6.32665">
        <ele>493.29</ele>
        <time>2020-05-08T07:25:21Z</time>
      </trkpt>
      <trkpt lat="46.0721" lon="6.32673">
        <ele>492.81</ele>
        <time>2020-05-08T07:25:22Z</time>
      </trkpt>
      <trkpt lat="46.07204" lon="6.32681">
        <ele>492.81</ele>
        <time>2020-05-08T07:25:23Z</time>
      </trkpt>
      <trkpt lat="46.07198" lon="6.32691">
        <ele>492.81</ele>
        <time>2020-05-08T07:25:24Z</time>
      </trkpt>
      <trkpt lat="46.0716" lon="6.32745">
        <ele>495.7</ele>
        <time>2020-05-08T07:25:31Z</time>
      </trkpt>
      <trkpt lat="46.07155" lon="6.3275">
        <ele>495.7</ele>
        <time>2020-05-08T07:25:32Z</time>
      </trkpt>
      <trkpt lat="46.07147" lon="6.32757">
        <ele>496.18</ele>
        <time>2020-05-08T07:25:33Z</time>
      </trkpt>
      <trkpt lat="46.07144" lon="6.32758">
        <ele>496.18</ele>
        <time>2020-05-08T07:25:34Z</time>
      </trkpt>
      <trkpt lat="46.07136" lon="6.3275">
        <ele>496.66</ele>
        <time>2020-05-08T07:25:35Z</time>
      </trkpt>
      <trkpt lat="46.07131" lon="6.32746">
        <ele>497.14</ele>
        <time>2020-05-08T07:25:36Z</time>
      </trkpt>
      <trkpt lat="46.07125" lon="6.32738">
        <ele>497.14</ele>
        <time>2020-05-08T07:25:37Z</time>
      </trkpt>
      <trkpt lat="46.07123" lon="6.32726">
        <ele>497.14</ele>
        <time>2020-05-08T07:25:38Z</time>
      </trkpt>
      <trkpt lat="46.07122" lon="6.32711">
        <ele>497.62</ele>
        <time>2020-05-08T07:25:39Z</time>
      </trkpt>
      <trkpt lat="46.0712" lon="6.32694">
        <ele>497.62</ele>
        <time>2020-05-08T07:25:40Z</time>
      </trkpt>
      <trkpt lat="46.07118" lon="6.32677">
        <ele>498.1</ele>
        <time>2020-05-08T07:25:41Z</time>
      </trkpt>
      <trkpt lat="46.07084" lon="6.32444">
        <ele>504.35</ele>
        <time>2020-05-08T07:25:53Z</time>
      </trkpt>
      <trkpt lat="46.07044" lon="6.32292">
        <ele>512.04</ele>
        <time>2020-05-08T07:26:01Z</time>
      </trkpt>
      <trkpt lat="46.07025" lon="6.3217">
        <ele>516.37</ele>
        <time>2020-05-08T07:26:08Z</time>
      </trkpt>
      <trkpt lat="46.07025" lon="6.32157">
        <ele>516.85</ele>
        <time>2020-05-08T07:26:09Z</time>
      </trkpt>
      <trkpt lat="46.07026" lon="6.32144">
        <ele>517.33</ele>
        <time>2020-05-08T07:26:10Z</time>
      </trkpt>
      <trkpt lat="46.07027" lon="6.32119">
        <ele>517.81</ele>
        <time>2020-05-08T07:26:12Z</time>
      </trkpt>
      <trkpt lat="46.07027" lon="6.32109">
        <ele>518.29</ele>
        <time>2020-05-08T07:26:13Z</time>
      </trkpt>
      <trkpt lat="46.07018" lon="6.321">
        <ele>518.77</ele>
        <time>2020-05-08T07:26:14Z</time>
      </trkpt>
      <trkpt lat="46.07011" lon="6.32097">
        <ele>519.25</ele>
        <time>2020-05-08T07:26:15Z</time>
      </trkpt>
      <trkpt lat="46.07003" lon="6.32095">
        <ele>519.25</ele>
        <time>2020-05-08T07:26:16Z</time>
      </trkpt>
      <trkpt lat="46.06996" lon="6.32093">
        <ele>519.73</ele>
        <time>2020-05-08T07:26:17Z</time>
      </trkpt>
      <trkpt lat="46.06989" lon="6.3209">
        <ele>520.21</ele>
        <time>2020-05-08T07:26:18Z</time>
      </trkpt>
      <trkpt lat="46.06981" lon="6.32086">
        <ele>520.21</ele>
        <time>2020-05-08T07:26:19Z</time>
      </trkpt>
      <trkpt lat="46.06978" lon="6.32076">
        <ele>520.69</ele>
        <time>2020-05-08T07:26:20Z</time>
      </trkpt>
      <trkpt lat="46.06975" lon="6.32066">
        <ele>520.69</ele>
        <time>2020-05-08T07:26:21Z</time>
      </trkpt>
      <trkpt lat="46.06972" lon="6.32056">
        <ele>520.69</ele>
        <time>2020-05-08T07:26:22Z</time>
      </trkpt>
      <trkpt lat="46.06931" lon="6.31922">
        <ele>521.65</ele>
        <time>2020-05-08T07:26:32Z</time>
      </trkpt>
      <trkpt lat="46.06925" lon="6.31902">
        <ele>521.65</ele>
        <time>2020-05-08T07:26:33Z</time>
      </trkpt>
      <trkpt lat="46.06872" lon="6.31731">
        <ele>526.46</ele>
        <time>2020-05-08T07:26:42Z</time>
      </trkpt>
      <trkpt lat="46.06807" lon="6.31525">
        <ele>536.55</ele>
        <time>2020-05-08T07:26:54Z</time>
      </trkpt>
      <trkpt lat="46.06788" lon="6.31466">
        <ele>539.44</ele>
        <time>2020-05-08T07:26:58Z</time>
      </trkpt>
      <trkpt lat="46.06783" lon="6.31451">
        <ele>540.4</ele>
        <time>2020-05-08T07:26:59Z</time>
      </trkpt>
      <trkpt lat="46.06761" lon="6.31402">
        <ele>544.72</ele>
        <time>2020-05-08T07:27:03Z</time>
      </trkpt>
      <trkpt lat="46.06756" lon="6.31392">
        <ele>545.69</ele>
        <time>2020-05-08T07:27:04Z</time>
      </trkpt>
      <trkpt lat="46.06752" lon="6.31383">
        <ele>546.17</ele>
        <time>2020-05-08T07:27:05Z</time>
      </trkpt>
      <trkpt lat="46.06751" lon="6.31369">
        <ele>547.13</ele>
        <time>2020-05-08T07:27:06Z</time>
      </trkpt>
      <trkpt lat="46.06751" lon="6.31355">
        <ele>547.61</ele>
        <time>2020-05-08T07:27:07Z</time>
      </trkpt>
      <trkpt lat="46.0675" lon="6.31341">
        <ele>548.09</ele>
        <time>2020-05-08T07:27:08Z</time>
      </trkpt>
      <trkpt lat="46.06748" lon="6.31329">
        <ele>549.05</ele>
        <time>2020-05-08T07:27:09Z</time>
      </trkpt>
      <trkpt lat="46.06745" lon="6.31318">
        <ele>549.53</ele>
        <time>2020-05-08T07:27:10Z</time>
      </trkpt>
      <trkpt lat="46.06743" lon="6.31309">
        <ele>550.49</ele>
        <time>2020-05-08T07:27:11Z</time>
      </trkpt>
      <trkpt lat="46.06732" lon="6.31279">
        <ele>553.38</ele>
        <time>2020-05-08T07:27:15Z</time>
      </trkpt>
      <trkpt lat="46.06734" lon="6.31256">
        <ele>555.3</ele>
        <time>2020-05-08T07:27:17Z</time>
      </trkpt>
      <trkpt lat="46.06725" lon="6.3124">
        <ele>556.74</ele>
        <time>2020-05-08T07:27:19Z</time>
      </trkpt>
      <trkpt lat="46.06724" lon="6.3123">
        <ele>557.22</ele>
        <time>2020-05-08T07:27:20Z</time>
      </trkpt>
      <trkpt lat="46.06722" lon="6.31214">
        <ele>557.7</ele>
        <time>2020-05-08T07:27:21Z</time>
      </trkpt>
      <trkpt lat="46.06717" lon="6.31207">
        <ele>558.18</ele>
        <time>2020-05-08T07:27:22Z</time>
      </trkpt>
      <trkpt lat="46.06711" lon="6.31199">
        <ele>558.66</ele>
        <time>2020-05-08T07:27:23Z</time>
      </trkpt>
      <trkpt lat="46.06706" lon="6.31192">
        <ele>558.66</ele>
        <time>2020-05-08T07:27:24Z</time>
      </trkpt>
      <trkpt lat="46.06659" lon="6.3114">
        <ele>559.14</ele>
        <time>2020-05-08T07:27:31Z</time>
      </trkpt>
      <trkpt lat="46.06655" lon="6.31138">
        <ele>559.14</ele>
        <time>2020-05-08T07:27:32Z</time>
      </trkpt>
      <trkpt lat="46.06654" lon="6.31137">
        <ele>559.14</ele>
        <time>2020-05-08T07:27:33Z</time>
      </trkpt>
      <trkpt lat="46.06652" lon="6.31136">
        <ele>559.14</ele>
        <time>2020-05-08T07:27:34Z</time>
      </trkpt>
      <trkpt lat="46.06638" lon="6.31126">
        <ele>558.66</ele>
        <time>2020-05-08T07:27:39Z</time>
      </trkpt>
      <trkpt lat="46.06629" lon="6.3112">
        <ele>558.66</ele>
        <time>2020-05-08T07:27:40Z</time>
      </trkpt>
      <trkpt lat="46.0662" lon="6.31113">
        <ele>559.14</ele>
        <time>2020-05-08T07:27:41Z</time>
      </trkpt>
      <trkpt lat="46.06612" lon="6.31108">
        <ele>558.66</ele>
        <time>2020-05-08T07:27:42Z</time>
      </trkpt>
      <trkpt lat="46.06606" lon="6.31103">
        <ele>558.66</ele>
        <time>2020-05-08T07:27:43Z</time>
      </trkpt>
      <trkpt lat="46.06598" lon="6.31098">
        <ele>558.18</ele>
        <time>2020-05-08T07:27:44Z</time>
      </trkpt>
      <trkpt lat="46.06593" lon="6.31097">
        <ele>558.18</ele>
        <time>2020-05-08T07:27:45Z</time>
      </trkpt>
      <trkpt lat="46.06586" lon="6.31095">
        <ele>557.7</ele>
        <time>2020-05-08T07:27:47Z</time>
      </trkpt>
      <trkpt lat="46.06582" lon="6.31094">
        <ele>557.7</ele>
        <time>2020-05-08T07:27:48Z</time>
      </trkpt>
      <trkpt lat="46.06578" lon="6.31093">
        <ele>557.7</ele>
        <time>2020-05-08T07:27:49Z</time>
      </trkpt>
      <trkpt lat="46.06564" lon="6.31095">
        <ele>557.7</ele>
        <time>2020-05-08T07:27:50Z</time>
      </trkpt>
      <trkpt lat="46.06561" lon="6.3108">
        <ele>557.22</ele>
        <time>2020-05-08T07:27:51Z</time>
      </trkpt>
      <trkpt lat="46.06559" lon="6.31065">
        <ele>557.22</ele>
        <time>2020-05-08T07:27:52Z</time>
      </trkpt>
      <trkpt lat="46.06555" lon="6.31047">
        <ele>556.26</ele>
        <time>2020-05-08T07:27:53Z</time>
      </trkpt>
      <trkpt lat="46.06606" lon="6.31027">
        <ele>555.78</ele>
        <time>2020-05-08T07:27:54Z</time>
      </trkpt>
      <trkpt lat="46.0661" lon="6.31009">
        <ele>555.78</ele>
        <time>2020-05-08T07:27:55Z</time>
      </trkpt>
      <trkpt lat="46.0662" lon="6.30963">
        <ele>556.26</ele>
        <time>2020-05-08T07:27:57Z</time>
      </trkpt>
      <trkpt lat="46.06623" lon="6.30949">
        <ele>557.22</ele>
        <time>2020-05-08T07:27:58Z</time>
      </trkpt>
      <trkpt lat="46.0663" lon="6.30918">
        <ele>557.22</ele>
        <time>2020-05-08T07:27:59Z</time>
      </trkpt>
      <trkpt lat="46.06638" lon="6.30906">
        <ele>557.7</ele>
        <time>2020-05-08T07:28:00Z</time>
      </trkpt>
      <trkpt lat="46.06649" lon="6.30911">
        <ele>559.14</ele>
        <time>2020-05-08T07:28:01Z</time>
      </trkpt>
      <trkpt lat="46.06666" lon="6.30907">
        <ele>561.55</ele>
        <time>2020-05-08T07:28:03Z</time>
      </trkpt>
      <trkpt lat="46.06674" lon="6.30905">
        <ele>563.47</ele>
        <time>2020-05-08T07:28:04Z</time>
      </trkpt>
      <trkpt lat="46.06681" lon="6.30903">
        <ele>566.35</ele>
        <time>2020-05-08T07:28:05Z</time>
      </trkpt>
      <trkpt lat="46.06692" lon="6.30901">
        <ele>569.24</ele>
        <time>2020-05-08T07:28:06Z</time>
      </trkpt>
      <trkpt lat="46.06697" lon="6.30894">
        <ele>571.64</ele>
        <time>2020-05-08T07:28:07Z</time>
      </trkpt>
      <trkpt lat="46.06701" lon="6.30886">
        <ele>573.56</ele>
        <time>2020-05-08T07:28:08Z</time>
      </trkpt>
      <trkpt lat="46.06712" lon="6.3087">
        <ele>577.41</ele>
        <time>2020-05-08T07:28:10Z</time>
      </trkpt>
      <trkpt lat="46.06747" lon="6.30815">
        <ele>581.73</ele>
        <time>2020-05-08T07:28:16Z</time>
      </trkpt>
      <trkpt lat="46.0675" lon="6.30811">
        <ele>582.22</ele>
        <time>2020-05-08T07:28:18Z</time>
      </trkpt>
      <trkpt lat="46.0675" lon="6.30811">
        <ele>583.18</ele>
        <time>2020-05-08T07:28:32Z</time>
      </trkpt>
    </trkseg>
  </trk>
  <trk>
    <name><![CDATA[Journal actif: 2020-05-08 20:28]]></name>
    <trkseg>
      <trkpt lat="46.06758" lon="6.30798">
        <ele>582.7</ele>
        <time>2020-05-08T18:28:06Z</time>
      </trkpt>
      <trkpt lat="46.0677" lon="6.30789">
        <ele>582.7</ele>
        <time>2020-05-08T18:28:07Z</time>
      </trkpt>
      <trkpt lat="46.06796" lon="6.30748">
        <ele>582.22</ele>
        <time>2020-05-08T18:28:13Z</time>
      </trkpt>
      <trkpt lat="46.06795" lon="6.30744">
        <ele>582.7</ele>
        <time>2020-05-08T18:28:16Z</time>
      </trkpt>
      <trkpt lat="46.06793" lon="6.30738">
        <ele>582.7</ele>
        <time>2020-05-08T18:28:17Z</time>
      </trkpt>
      <trkpt lat="46.06791" lon="6.30726">
        <ele>583.18</ele>
        <time>2020-05-08T18:28:18Z</time>
      </trkpt>
      <trkpt lat="46.06785" lon="6.30688">
        <ele>584.14</ele>
        <time>2020-05-08T18:28:20Z</time>
      </trkpt>
      <trkpt lat="46.06784" lon="6.30668">
        <ele>584.62</ele>
        <time>2020-05-08T18:28:21Z</time>
      </trkpt>
      <trkpt lat="46.06784" lon="6.30648">
        <ele>586.06</ele>
        <time>2020-05-08T18:28:22Z</time>
      </trkpt>
      <trkpt lat="46.06783" lon="6.30629">
        <ele>587.02</ele>
        <time>2020-05-08T18:28:23Z</time>
      </trkpt>
      <trkpt lat="46.06784" lon="6.30608">
        <ele>588.46</ele>
        <time>2020-05-08T18:28:24Z</time>
      </trkpt>
      <trkpt lat="46.06788" lon="6.30589">
        <ele>589.43</ele>
        <time>2020-05-08T18:28:25Z</time>
      </trkpt>
      <trkpt lat="46.06793" lon="6.3057">
        <ele>589.91</ele>
        <time>2020-05-08T18:28:26Z</time>
      </trkpt>
      <trkpt lat="46.06798" lon="6.30552">
        <ele>590.87</ele>
        <time>2020-05-08T18:28:27Z</time>
      </trkpt>
      <trkpt lat="46.06804" lon="6.30535">
        <ele>591.83</ele>
        <time>2020-05-08T18:28:28Z</time>
      </trkpt>
      <trkpt lat="46.06814" lon="6.30507">
        <ele>593.27</ele>
        <time>2020-05-08T18:28:30Z</time>
      </trkpt>
      <trkpt lat="46.06818" lon="6.30497">
        <ele>594.23</ele>
        <time>2020-05-08T18:28:31Z</time>
      </trkpt>
      <trkpt lat="46.06826" lon="6.30472">
        <ele>596.15</ele>
        <time>2020-05-08T18:28:34Z</time>
      </trkpt>
      <trkpt lat="46.06829" lon="6.30464">
        <ele>597.12</ele>
        <time>2020-05-08T18:28:35Z</time>
      </trkpt>
      <trkpt lat="46.06832" lon="6.30456">
        <ele>597.6</ele>
        <time>2020-05-08T18:28:36Z</time>
      </trkpt>
      <trkpt lat="46.06838" lon="6.30439">
        <ele>599.04</ele>
        <time>2020-05-08T18:28:38Z</time>
      </trkpt>
      <trkpt lat="46.06842" lon="6.30427">
        <ele>599.52</ele>
        <time>2020-05-08T18:28:39Z</time>
      </trkpt>
      <trkpt lat="46.06858" lon="6.30354">
        <ele>597.6</ele>
        <time>2020-05-08T18:28:44Z</time>
      </trkpt>
      <trkpt lat="46.06859" lon="6.30338">
        <ele>597.6</ele>
        <time>2020-05-08T18:28:45Z</time>
      </trkpt>
      <trkpt lat="46.0686" lon="6.30306">
        <ele>597.12</ele>
        <time>2020-05-08T18:28:47Z</time>
      </trkpt>
      <trkpt lat="46.06865" lon="6.30246">
        <ele>587.5</ele>
        <time>2020-05-08T18:28:52Z</time>
      </trkpt>
      <trkpt lat="46.06867" lon="6.30239">
        <ele>586.06</ele>
        <time>2020-05-08T18:28:53Z</time>
      </trkpt>
      <trkpt lat="46.06871" lon="6.30233">
        <ele>585.1</ele>
        <time>2020-05-08T18:28:54Z</time>
      </trkpt>
      <trkpt lat="46.06885" lon="6.30233">
        <ele>584.62</ele>
        <time>2020-05-08T18:28:55Z</time>
      </trkpt>
      <trkpt lat="46.06891" lon="6.3023">
        <ele>584.14</ele>
        <time>2020-05-08T18:28:56Z</time>
      </trkpt>
      <trkpt lat="46.06905" lon="6.30223">
        <ele>583.66</ele>
        <time>2020-05-08T18:28:57Z</time>
      </trkpt>
      <trkpt lat="46.06917" lon="6.30216">
        <ele>583.18</ele>
        <time>2020-05-08T18:28:58Z</time>
      </trkpt>
      <trkpt lat="46.06964" lon="6.30183">
        <ele>582.7</ele>
        <time>2020-05-08T18:29:01Z</time>
      </trkpt>
      <trkpt lat="46.07041" lon="6.30081">
        <ele>584.14</ele>
        <time>2020-05-08T18:29:08Z</time>
      </trkpt>
      <trkpt lat="46.07048" lon="6.30071">
        <ele>584.14</ele>
        <time>2020-05-08T18:29:09Z</time>
      </trkpt>
      <trkpt lat="46.07054" lon="6.30062">
        <ele>584.62</ele>
        <time>2020-05-08T18:29:10Z</time>
      </trkpt>
      <trkpt lat="46.07059" lon="6.30058">
        <ele>586.54</ele>
        <time>2020-05-08T18:29:11Z</time>
      </trkpt>
      <trkpt lat="46.07065" lon="6.30054">
        <ele>587.98</ele>
        <time>2020-05-08T18:29:12Z</time>
      </trkpt>
      <trkpt lat="46.07078" lon="6.30057">
        <ele>589.43</ele>
        <time>2020-05-08T18:29:13Z</time>
      </trkpt>
      <trkpt lat="46.07078" lon="6.30057">
        <ele>590.87</ele>
        <time>2020-05-08T18:29:14Z</time>
      </trkpt>
      <trkpt lat="46.07088" lon="6.30058">
        <ele>591.35</ele>
        <time>2020-05-08T18:29:15Z</time>
      </trkpt>
      <trkpt lat="46.07095" lon="6.30042">
        <ele>592.79</ele>
        <time>2020-05-08T18:29:16Z</time>
      </trkpt>
      <trkpt lat="46.07102" lon="6.30037">
        <ele>593.75</ele>
        <time>2020-05-08T18:29:17Z</time>
      </trkpt>
      <trkpt lat="46.07128" lon="6.30015">
        <ele>600</ele>
        <time>2020-05-08T18:29:19Z</time>
      </trkpt>
      <trkpt lat="46.07147" lon="6.3">
        <ele>613.94</ele>
        <time>2020-05-08T18:29:21Z</time>
      </trkpt>
      <trkpt lat="46.07158" lon="6.2999">
        <ele>615.86</ele>
        <time>2020-05-08T18:29:22Z</time>
      </trkpt>
      <trkpt lat="46.0717" lon="6.29981">
        <ele>615.38</ele>
        <time>2020-05-08T18:29:23Z</time>
      </trkpt>
      <trkpt lat="46.07287" lon="6.29886">
        <ele>601.92</ele>
        <time>2020-05-08T18:29:33Z</time>
      </trkpt>
      <trkpt lat="46.07333" lon="6.2985">
        <ele>595.19</ele>
        <time>2020-05-08T18:29:39Z</time>
      </trkpt>
      <trkpt lat="46.07393" lon="6.29806">
        <ele>594.71</ele>
        <time>2020-05-08T18:29:44Z</time>
      </trkpt>
      <trkpt lat="46.07529" lon="6.29736">
        <ele>590.87</ele>
        <time>2020-05-08T18:29:53Z</time>
      </trkpt>
      <trkpt lat="46.07544" lon="6.29737">
        <ele>590.39</ele>
        <time>2020-05-08T18:29:54Z</time>
      </trkpt>
      <trkpt lat="46.07559" lon="6.29737">
        <ele>590.39</ele>
        <time>2020-05-08T18:29:55Z</time>
      </trkpt>
      <trkpt lat="46.07592" lon="6.29749">
        <ele>590.39</ele>
        <time>2020-05-08T18:29:57Z</time>
      </trkpt>
      <trkpt lat="46.0761" lon="6.29757">
        <ele>590.39</ele>
        <time>2020-05-08T18:29:58Z</time>
      </trkpt>
      <trkpt lat="46.07625" lon="6.29761">
        <ele>589.91</ele>
        <time>2020-05-08T18:29:59Z</time>
      </trkpt>
      <trkpt lat="46.07642" lon="6.29761">
        <ele>588.95</ele>
        <time>2020-05-08T18:30:00Z</time>
      </trkpt>
      <trkpt lat="46.07659" lon="6.29761">
        <ele>587.98</ele>
        <time>2020-05-08T18:30:01Z</time>
      </trkpt>
      <trkpt lat="46.07676" lon="6.29753">
        <ele>587.02</ele>
        <time>2020-05-08T18:30:02Z</time>
      </trkpt>
      <trkpt lat="46.07694" lon="6.29742">
        <ele>585.58</ele>
        <time>2020-05-08T18:30:03Z</time>
      </trkpt>
      <trkpt lat="46.07712" lon="6.2973">
        <ele>584.62</ele>
        <time>2020-05-08T18:30:04Z</time>
      </trkpt>
      <trkpt lat="46.07748" lon="6.29707">
        <ele>583.18</ele>
        <time>2020-05-08T18:30:06Z</time>
      </trkpt>
      <trkpt lat="46.07764" lon="6.29696">
        <ele>582.7</ele>
        <time>2020-05-08T18:30:07Z</time>
      </trkpt>
      <trkpt lat="46.078" lon="6.29663">
        <ele>582.7</ele>
        <time>2020-05-08T18:30:10Z</time>
      </trkpt>
      <trkpt lat="46.07808" lon="6.29654">
        <ele>582.7</ele>
        <time>2020-05-08T18:30:11Z</time>
      </trkpt>
      <trkpt lat="46.07816" lon="6.29643">
        <ele>583.18</ele>
        <time>2020-05-08T18:30:12Z</time>
      </trkpt>
      <trkpt lat="46.07819" lon="6.29637">
        <ele>583.18</ele>
        <time>2020-05-08T18:30:13Z</time>
      </trkpt>
      <trkpt lat="46.07815" lon="6.29622">
        <ele>583.18</ele>
        <time>2020-05-08T18:30:14Z</time>
      </trkpt>
      <trkpt lat="46.0781" lon="6.29618">
        <ele>583.18</ele>
        <time>2020-05-08T18:30:15Z</time>
      </trkpt>
      <trkpt lat="46.07806" lon="6.29615">
        <ele>583.66</ele>
        <time>2020-05-08T18:30:16Z</time>
      </trkpt>
      <trkpt lat="46.07799" lon="6.2962">
        <ele>583.18</ele>
        <time>2020-05-08T18:30:17Z</time>
      </trkpt>
      <trkpt lat="46.07792" lon="6.29624">
        <ele>583.18</ele>
        <time>2020-05-08T18:30:18Z</time>
      </trkpt>
      <trkpt lat="46.07783" lon="6.29632">
        <ele>582.7</ele>
        <time>2020-05-08T18:30:19Z</time>
      </trkpt>
      <trkpt lat="46.07763" lon="6.29647">
        <ele>581.73</ele>
        <time>2020-05-08T18:30:21Z</time>
      </trkpt>
      <trkpt lat="46.07756" lon="6.29652">
        <ele>581.73</ele>
        <time>2020-05-08T18:30:22Z</time>
      </trkpt>
      <trkpt lat="46.07745" lon="6.29646">
        <ele>581.73</ele>
        <time>2020-05-08T18:30:23Z</time>
      </trkpt>
      <trkpt lat="46.07736" lon="6.29642">
        <ele>581.25</ele>
        <time>2020-05-08T18:30:24Z</time>
      </trkpt>
      <trkpt lat="46.07728" lon="6.29638">
        <ele>581.25</ele>
        <time>2020-05-08T18:30:25Z</time>
      </trkpt>
      <trkpt lat="46.07719" lon="6.29626">
        <ele>581.73</ele>
        <time>2020-05-08T18:30:26Z</time>
      </trkpt>
      <trkpt lat="46.07714" lon="6.29609">
        <ele>582.22</ele>
        <time>2020-05-08T18:30:27Z</time>
      </trkpt>
      <trkpt lat="46.07706" lon="6.29587">
        <ele>582.7</ele>
        <time>2020-05-08T18:30:28Z</time>
      </trkpt>
      <trkpt lat="46.07655" lon="6.29443">
        <ele>587.02</ele>
        <time>2020-05-08T18:30:32Z</time>
      </trkpt>
      <trkpt lat="46.07565" lon="6.29261">
        <ele>597.6</ele>
        <time>2020-05-08T18:30:37Z</time>
      </trkpt>
      <trkpt lat="46.07492" lon="6.29108">
        <ele>607.69</ele>
        <time>2020-05-08T18:30:42Z</time>
      </trkpt>
      <trkpt lat="46.07469" lon="6.29015">
        <ele>612.02</ele>
        <time>2020-05-08T18:30:45Z</time>
      </trkpt>
      <trkpt lat="46.07459" lon="6.28986">
        <ele>613.46</ele>
        <time>2020-05-08T18:30:46Z</time>
      </trkpt>
      <trkpt lat="46.07446" lon="6.2896">
        <ele>614.9</ele>
        <time>2020-05-08T18:30:47Z</time>
      </trkpt>
      <trkpt lat="46.0743" lon="6.28935">
        <ele>615.86</ele>
        <time>2020-05-08T18:30:48Z</time>
      </trkpt>
      <trkpt lat="46.07414" lon="6.28911">
        <ele>617.3</ele>
        <time>2020-05-08T18:30:49Z</time>
      </trkpt>
      <trkpt lat="46.07395" lon="6.28889">
        <ele>618.26</ele>
        <time>2020-05-08T18:30:50Z</time>
      </trkpt>
      <trkpt lat="46.07374" lon="6.28872">
        <ele>619.71</ele>
        <time>2020-05-08T18:30:51Z</time>
      </trkpt>
      <trkpt lat="46.07353" lon="6.28858">
        <ele>621.15</ele>
        <time>2020-05-08T18:30:52Z</time>
      </trkpt>
      <trkpt lat="46.07332" lon="6.28848">
        <ele>622.59</ele>
        <time>2020-05-08T18:30:53Z</time>
      </trkpt>
      <trkpt lat="46.0731" lon="6.2884">
        <ele>624.03</ele>
        <time>2020-05-08T18:30:54Z</time>
      </trkpt>
      <trkpt lat="46.07287" lon="6.28835">
        <ele>625.47</ele>
        <time>2020-05-08T18:30:55Z</time>
      </trkpt>
      <trkpt lat="46.07264" lon="6.28831">
        <ele>626.92</ele>
        <time>2020-05-08T18:30:56Z</time>
      </trkpt>
      <trkpt lat="46.07078" lon="6.28814">
        <ele>637.97</ele>
        <time>2020-05-08T18:31:04Z</time>
      </trkpt>
      <trkpt lat="46.07016" lon="6.28793">
        <ele>641.82</ele>
        <time>2020-05-08T18:31:07Z</time>
      </trkpt>
      <trkpt lat="46.06996" lon="6.28779">
        <ele>642.78</ele>
        <time>2020-05-08T18:31:08Z</time>
      </trkpt>
      <trkpt lat="46.06836" lon="6.28682">
        <ele>654.8</ele>
        <time>2020-05-08T18:31:15Z</time>
      </trkpt>
      <trkpt lat="46.06813" lon="6.28676">
        <ele>655.76</ele>
        <time>2020-05-08T18:31:16Z</time>
      </trkpt>
      <trkpt lat="46.06789" lon="6.28672">
        <ele>657.2</ele>
        <time>2020-05-08T18:31:17Z</time>
      </trkpt>
      <trkpt lat="46.06765" lon="6.28677">
        <ele>659.12</ele>
        <time>2020-05-08T18:31:18Z</time>
      </trkpt>
      <trkpt lat="46.06741" lon="6.28682">
        <ele>660.56</ele>
        <time>2020-05-08T18:31:19Z</time>
      </trkpt>
      <trkpt lat="46.06718" lon="6.2869">
        <ele>661.52</ele>
        <time>2020-05-08T18:31:20Z</time>
      </trkpt>
      <trkpt lat="46.06696" lon="6.28704">
        <ele>662.97</ele>
        <time>2020-05-08T18:31:21Z</time>
      </trkpt>
      <trkpt lat="46.06672" lon="6.28718">
        <ele>663.93</ele>
        <time>2020-05-08T18:31:22Z</time>
      </trkpt>
      <trkpt lat="46.06509" lon="6.28816">
        <ele>674.02</ele>
        <time>2020-05-08T18:31:30Z</time>
      </trkpt>
      <trkpt lat="46.06481" lon="6.28826">
        <ele>676.42</ele>
        <time>2020-05-08T18:31:32Z</time>
      </trkpt>
      <trkpt lat="46.06469" lon="6.28829">
        <ele>677.39</ele>
        <time>2020-05-08T18:31:33Z</time>
      </trkpt>
      <trkpt lat="46.06452" lon="6.28819">
        <ele>678.35</ele>
        <time>2020-05-08T18:31:34Z</time>
      </trkpt>
      <trkpt lat="46.06448" lon="6.28818">
        <ele>678.83</ele>
        <time>2020-05-08T18:31:35Z</time>
      </trkpt>
      <trkpt lat="46.06438" lon="6.28817">
        <ele>679.79</ele>
        <time>2020-05-08T18:31:36Z</time>
      </trkpt>
      <trkpt lat="46.0643" lon="6.28824">
        <ele>680.27</ele>
        <time>2020-05-08T18:31:37Z</time>
      </trkpt>
      <trkpt lat="46.06428" lon="6.28826">
        <ele>680.75</ele>
        <time>2020-05-08T18:31:38Z</time>
      </trkpt>
      <trkpt lat="46.06407" lon="6.2884">
        <ele>681.23</ele>
        <time>2020-05-08T18:31:39Z</time>
      </trkpt>
      <trkpt lat="46.06392" lon="6.28843">
        <ele>681.71</ele>
        <time>2020-05-08T18:31:40Z</time>
      </trkpt>
      <trkpt lat="46.06373" lon="6.28847">
        <ele>682.67</ele>
        <time>2020-05-08T18:31:41Z</time>
      </trkpt>
      <trkpt lat="46.06259" lon="6.28877">
        <ele>687.48</ele>
        <time>2020-05-08T18:31:45Z</time>
      </trkpt>
      <trkpt lat="46.06063" lon="6.28944">
        <ele>696.61</ele>
        <time>2020-05-08T18:31:50Z</time>
      </trkpt>
      <trkpt lat="46.0593" lon="6.28988">
        <ele>704.78</ele>
        <time>2020-05-08T18:31:54Z</time>
      </trkpt>
      <trkpt lat="46.05792" lon="6.29006">
        <ele>712.47</ele>
        <time>2020-05-08T18:31:59Z</time>
      </trkpt>
      <trkpt lat="46.05766" lon="6.28999">
        <ele>713.44</ele>
        <time>2020-05-08T18:32:00Z</time>
      </trkpt>
      <trkpt lat="46.0574" lon="6.28991">
        <ele>714.88</ele>
        <time>2020-05-08T18:32:01Z</time>
      </trkpt>
      <trkpt lat="46.05716" lon="6.28976">
        <ele>716.32</ele>
        <time>2020-05-08T18:32:02Z</time>
      </trkpt>
      <trkpt lat="46.05693" lon="6.2896">
        <ele>717.76</ele>
        <time>2020-05-08T18:32:03Z</time>
      </trkpt>
      <trkpt lat="46.05671" lon="6.28942">
        <ele>719.2</ele>
        <time>2020-05-08T18:32:04Z</time>
      </trkpt>
      <trkpt lat="46.05651" lon="6.2892">
        <ele>720.65</ele>
        <time>2020-05-08T18:32:05Z</time>
      </trkpt>
      <trkpt lat="46.05634" lon="6.28893">
        <ele>722.57</ele>
        <time>2020-05-08T18:32:06Z</time>
      </trkpt>
      <trkpt lat="46.05617" lon="6.28866">
        <ele>724.01</ele>
        <time>2020-05-08T18:32:07Z</time>
      </trkpt>
      <trkpt lat="46.05602" lon="6.28837">
        <ele>725.93</ele>
        <time>2020-05-08T18:32:08Z</time>
      </trkpt>
      <trkpt lat="46.05589" lon="6.28806">
        <ele>727.37</ele>
        <time>2020-05-08T18:32:09Z</time>
      </trkpt>
      <trkpt lat="46.05576" lon="6.28773">
        <ele>729.3</ele>
        <time>2020-05-08T18:32:10Z</time>
      </trkpt>
      <trkpt lat="46.05452" lon="6.28416">
        <ele>744.68</ele>
        <time>2020-05-08T18:32:21Z</time>
      </trkpt>
      <trkpt lat="46.05333" lon="6.28076">
        <ele>754.77</ele>
        <time>2020-05-08T18:32:31Z</time>
      </trkpt>
      <trkpt lat="46.05189" lon="6.27656">
        <ele>761.02</ele>
        <time>2020-05-08T18:32:43Z</time>
      </trkpt>
      <trkpt lat="46.05132" lon="6.27357">
        <ele>766.31</ele>
        <time>2020-05-08T18:32:51Z</time>
      </trkpt>
      <trkpt lat="46.05131" lon="6.27055">
        <ele>774</ele>
        <time>2020-05-08T18:32:59Z</time>
      </trkpt>
      <trkpt lat="46.05147" lon="6.26798">
        <ele>777.84</ele>
        <time>2020-05-08T18:33:06Z</time>
      </trkpt>
      <trkpt lat="46.05143" lon="6.26764">
        <ele>777.84</ele>
        <time>2020-05-08T18:33:07Z</time>
      </trkpt>
      <trkpt lat="46.05138" lon="6.2673">
        <ele>778.32</ele>
        <time>2020-05-08T18:33:08Z</time>
      </trkpt>
      <trkpt lat="46.05129" lon="6.26697">
        <ele>778.32</ele>
        <time>2020-05-08T18:33:09Z</time>
      </trkpt>
      <trkpt lat="46.0512" lon="6.26663">
        <ele>778.81</ele>
        <time>2020-05-08T18:33:10Z</time>
      </trkpt>
      <trkpt lat="46.05109" lon="6.26632">
        <ele>779.29</ele>
        <time>2020-05-08T18:33:11Z</time>
      </trkpt>
      <trkpt lat="46.05095" lon="6.26603">
        <ele>780.25</ele>
        <time>2020-05-08T18:33:12Z</time>
      </trkpt>
      <trkpt lat="46.0508" lon="6.26574">
        <ele>780.73</ele>
        <time>2020-05-08T18:33:13Z</time>
      </trkpt>
      <trkpt lat="46.05062" lon="6.26548">
        <ele>781.69</ele>
        <time>2020-05-08T18:33:14Z</time>
      </trkpt>
      <trkpt lat="46.05042" lon="6.26525">
        <ele>782.65</ele>
        <time>2020-05-08T18:33:15Z</time>
      </trkpt>
      <trkpt lat="46.05021" lon="6.26504">
        <ele>783.61</ele>
        <time>2020-05-08T18:33:16Z</time>
      </trkpt>
      <trkpt lat="46.05" lon="6.26483">
        <ele>785.05</ele>
        <time>2020-05-08T18:33:17Z</time>
      </trkpt>
      <trkpt lat="46.04893" lon="6.26388">
        <ele>791.3</ele>
        <time>2020-05-08T18:33:22Z</time>
      </trkpt>
      <trkpt lat="46.04874" lon="6.26366">
        <ele>792.26</ele>
        <time>2020-05-08T18:33:23Z</time>
      </trkpt>
      <trkpt lat="46.04858" lon="6.2634">
        <ele>793.22</ele>
        <time>2020-05-08T18:33:24Z</time>
      </trkpt>
      <trkpt lat="46.04843" lon="6.26313">
        <ele>794.19</ele>
        <time>2020-05-08T18:33:25Z</time>
      </trkpt>
      <trkpt lat="46.04827" lon="6.26285">
        <ele>795.63</ele>
        <time>2020-05-08T18:33:26Z</time>
      </trkpt>
      <trkpt lat="46.0471" lon="6.26041">
        <ele>803.32</ele>
        <time>2020-05-08T18:33:35Z</time>
      </trkpt>
      <trkpt lat="46.04617" lon="6.2585">
        <ele>805.24</ele>
        <time>2020-05-08T18:33:44Z</time>
      </trkpt>
      <trkpt lat="46.0454" lon="6.25692">
        <ele>806.2</ele>
        <time>2020-05-08T18:33:50Z</time>
      </trkpt>
      <trkpt lat="46.04446" lon="6.25475">
        <ele>806.2</ele>
        <time>2020-05-08T18:33:57Z</time>
      </trkpt>
      <trkpt lat="46.04356" lon="6.25113">
        <ele>799.95</ele>
        <time>2020-05-08T18:34:07Z</time>
      </trkpt>
      <trkpt lat="46.04342" lon="6.25079">
        <ele>798.03</ele>
        <time>2020-05-08T18:34:08Z</time>
      </trkpt>
      <trkpt lat="46.04326" lon="6.25047">
        <ele>796.59</ele>
        <time>2020-05-08T18:34:09Z</time>
      </trkpt>
      <trkpt lat="46.0431" lon="6.25015">
        <ele>795.15</ele>
        <time>2020-05-08T18:34:10Z</time>
      </trkpt>
      <trkpt lat="46.04152" lon="6.24798">
        <ele>787.94</ele>
        <time>2020-05-08T18:34:18Z</time>
      </trkpt>
      <trkpt lat="46.04133" lon="6.24777">
        <ele>788.42</ele>
        <time>2020-05-08T18:34:19Z</time>
      </trkpt>
      <trkpt lat="46.04114" lon="6.24755">
        <ele>788.9</ele>
        <time>2020-05-08T18:34:20Z</time>
      </trkpt>
      <trkpt lat="46.04092" lon="6.24741">
        <ele>789.86</ele>
        <time>2020-05-08T18:34:21Z</time>
      </trkpt>
      <trkpt lat="46.04069" lon="6.24727">
        <ele>790.82</ele>
        <time>2020-05-08T18:34:22Z</time>
      </trkpt>
      <trkpt lat="46.04044" lon="6.24718">
        <ele>791.3</ele>
        <time>2020-05-08T18:34:23Z</time>
      </trkpt>
      <trkpt lat="46.04019" lon="6.24711">
        <ele>791.78</ele>
        <time>2020-05-08T18:34:24Z</time>
      </trkpt>
      <trkpt lat="46.03948" lon="6.2468">
        <ele>793.22</ele>
        <time>2020-05-08T18:34:27Z</time>
      </trkpt>
      <trkpt lat="46.03926" lon="6.24662">
        <ele>793.22</ele>
        <time>2020-05-08T18:34:28Z</time>
      </trkpt>
      <trkpt lat="46.03905" lon="6.24642">
        <ele>792.74</ele>
        <time>2020-05-08T18:34:29Z</time>
      </trkpt>
      <trkpt lat="46.03886" lon="6.24619">
        <ele>792.26</ele>
        <time>2020-05-08T18:34:30Z</time>
      </trkpt>
      <trkpt lat="46.03868" lon="6.24592">
        <ele>792.26</ele>
        <time>2020-05-08T18:34:31Z</time>
      </trkpt>
      <trkpt lat="46.03854" lon="6.24562">
        <ele>791.3</ele>
        <time>2020-05-08T18:34:32Z</time>
      </trkpt>
      <trkpt lat="46.03842" lon="6.2453">
        <ele>790.82</ele>
        <time>2020-05-08T18:34:33Z</time>
      </trkpt>
      <trkpt lat="46.03834" lon="6.24494">
        <ele>789.86</ele>
        <time>2020-05-08T18:34:34Z</time>
      </trkpt>
      <trkpt lat="46.03825" lon="6.24457">
        <ele>788.9</ele>
        <time>2020-05-08T18:34:35Z</time>
      </trkpt>
      <trkpt lat="46.03816" lon="6.2442">
        <ele>787.94</ele>
        <time>2020-05-08T18:34:36Z</time>
      </trkpt>
      <trkpt lat="46.03775" lon="6.24249">
        <ele>781.21</ele>
        <time>2020-05-08T18:34:41Z</time>
      </trkpt>
      <trkpt lat="46.03764" lon="6.24219">
        <ele>779.77</ele>
        <time>2020-05-08T18:34:42Z</time>
      </trkpt>
      <trkpt lat="46.0375" lon="6.24193">
        <ele>778.32</ele>
        <time>2020-05-08T18:34:43Z</time>
      </trkpt>
      <trkpt lat="46.03733" lon="6.24169">
        <ele>776.88</ele>
        <time>2020-05-08T18:34:44Z</time>
      </trkpt>
      <trkpt lat="46.03717" lon="6.24145">
        <ele>775.44</ele>
        <time>2020-05-08T18:34:45Z</time>
      </trkpt>
      <trkpt lat="46.03701" lon="6.24123">
        <ele>773.52</ele>
        <time>2020-05-08T18:34:46Z</time>
      </trkpt>
      <trkpt lat="46.03683" lon="6.24106">
        <ele>772.08</ele>
        <time>2020-05-08T18:34:47Z</time>
      </trkpt>
      <trkpt lat="46.03665" lon="6.24089">
        <ele>770.63</ele>
        <time>2020-05-08T18:34:48Z</time>
      </trkpt>
      <trkpt lat="46.03646" lon="6.24079">
        <ele>769.19</ele>
        <time>2020-05-08T18:34:49Z</time>
      </trkpt>
      <trkpt lat="46.03626" lon="6.24074">
        <ele>768.23</ele>
        <time>2020-05-08T18:34:50Z</time>
      </trkpt>
      <trkpt lat="46.03606" lon="6.24072">
        <ele>767.27</ele>
        <time>2020-05-08T18:34:51Z</time>
      </trkpt>
      <trkpt lat="46.03587" lon="6.24073">
        <ele>766.31</ele>
        <time>2020-05-08T18:34:52Z</time>
      </trkpt>
      <trkpt lat="46.03568" lon="6.24079">
        <ele>765.35</ele>
        <time>2020-05-08T18:34:53Z</time>
      </trkpt>
      <trkpt lat="46.0355" lon="6.24088">
        <ele>764.39</ele>
        <time>2020-05-08T18:34:54Z</time>
      </trkpt>
      <trkpt lat="46.03533" lon="6.24101">
        <ele>763.9</ele>
        <time>2020-05-08T18:34:55Z</time>
      </trkpt>
      <trkpt lat="46.0352" lon="6.2412">
        <ele>762.94</ele>
        <time>2020-05-08T18:34:56Z</time>
      </trkpt>
      <trkpt lat="46.03508" lon="6.24141">
        <ele>762.46</ele>
        <time>2020-05-08T18:34:57Z</time>
      </trkpt>
      <trkpt lat="46.03495" lon="6.24162">
        <ele>761.5</ele>
        <time>2020-05-08T18:34:58Z</time>
      </trkpt>
      <trkpt lat="46.03483" lon="6.24182">
        <ele>760.54</ele>
        <time>2020-05-08T18:34:59Z</time>
      </trkpt>
      <trkpt lat="46.03458" lon="6.2422">
        <ele>758.62</ele>
        <time>2020-05-08T18:35:01Z</time>
      </trkpt>
      <trkpt lat="46.03445" lon="6.24237">
        <ele>757.66</ele>
        <time>2020-05-08T18:35:02Z</time>
      </trkpt>
      <trkpt lat="46.03429" lon="6.24247">
        <ele>756.21</ele>
        <time>2020-05-08T18:35:03Z</time>
      </trkpt>
      <trkpt lat="46.03411" lon="6.24256">
        <ele>755.25</ele>
        <time>2020-05-08T18:35:04Z</time>
      </trkpt>
      <trkpt lat="46.03393" lon="6.24262">
        <ele>754.29</ele>
        <time>2020-05-08T18:35:05Z</time>
      </trkpt>
      <trkpt lat="46.03375" lon="6.24261">
        <ele>753.33</ele>
        <time>2020-05-08T18:35:06Z</time>
      </trkpt>
      <trkpt lat="46.03357" lon="6.24256">
        <ele>752.37</ele>
        <time>2020-05-08T18:35:07Z</time>
      </trkpt>
      <trkpt lat="46.03341" lon="6.24246">
        <ele>751.89</ele>
        <time>2020-05-08T18:35:08Z</time>
      </trkpt>
      <trkpt lat="46.03324" lon="6.24232">
        <ele>750.93</ele>
        <time>2020-05-08T18:35:09Z</time>
      </trkpt>
      <trkpt lat="46.03307" lon="6.24217">
        <ele>750.45</ele>
        <time>2020-05-08T18:35:10Z</time>
      </trkpt>
      <trkpt lat="46.0329" lon="6.24198">
        <ele>749.97</ele>
        <time>2020-05-08T18:35:11Z</time>
      </trkpt>
      <trkpt lat="46.03275" lon="6.24174">
        <ele>749.97</ele>
        <time>2020-05-08T18:35:12Z</time>
      </trkpt>
      <trkpt lat="46.03259" lon="6.24149">
        <ele>749.49</ele>
        <time>2020-05-08T18:35:13Z</time>
      </trkpt>
      <trkpt lat="46.03134" lon="6.23997">
        <ele>746.12</ele>
        <time>2020-05-08T18:35:19Z</time>
      </trkpt>
      <trkpt lat="46.03018" lon="6.23879">
        <ele>743.72</ele>
        <time>2020-05-08T18:35:24Z</time>
      </trkpt>
      <trkpt lat="46.02991" lon="6.23864">
        <ele>743.24</ele>
        <time>2020-05-08T18:35:25Z</time>
      </trkpt>
      <trkpt lat="46.0279" lon="6.23784">
        <ele>738.91</ele>
        <time>2020-05-08T18:35:32Z</time>
      </trkpt>
      <trkpt lat="46.02583" lon="6.2374">
        <ele>728.34</ele>
        <time>2020-05-08T18:35:40Z</time>
      </trkpt>
      <trkpt lat="46.0256" lon="6.23728">
        <ele>726.89</ele>
        <time>2020-05-08T18:35:41Z</time>
      </trkpt>
      <trkpt lat="46.02538" lon="6.23711">
        <ele>725.93</ele>
        <time>2020-05-08T18:35:42Z</time>
      </trkpt>
      <trkpt lat="46.02519" lon="6.23689">
        <ele>725.45</ele>
        <time>2020-05-08T18:35:43Z</time>
      </trkpt>
      <trkpt lat="46.02502" lon="6.23665">
        <ele>724.97</ele>
        <time>2020-05-08T18:35:44Z</time>
      </trkpt>
      <trkpt lat="46.02486" lon="6.23639">
        <ele>724.01</ele>
        <time>2020-05-08T18:35:45Z</time>
      </trkpt>
      <trkpt lat="46.0247" lon="6.23612">
        <ele>723.53</ele>
        <time>2020-05-08T18:35:46Z</time>
      </trkpt>
      <trkpt lat="46.02456" lon="6.23583">
        <ele>722.57</ele>
        <time>2020-05-08T18:35:47Z</time>
      </trkpt>
      <trkpt lat="46.02415" lon="6.23499">
        <ele>720.16</ele>
        <time>2020-05-08T18:35:50Z</time>
      </trkpt>
      <trkpt lat="46.02399" lon="6.23475">
        <ele>719.2</ele>
        <time>2020-05-08T18:35:51Z</time>
      </trkpt>
      <trkpt lat="46.02379" lon="6.23458">
        <ele>718.24</ele>
        <time>2020-05-08T18:35:52Z</time>
      </trkpt>
      <trkpt lat="46.02361" lon="6.23441">
        <ele>716.8</ele>
        <time>2020-05-08T18:35:53Z</time>
      </trkpt>
      <trkpt lat="46.02343" lon="6.23425">
        <ele>715.84</ele>
        <time>2020-05-08T18:35:54Z</time>
      </trkpt>
      <trkpt lat="46.02293" lon="6.2338">
        <ele>711.99</ele>
        <time>2020-05-08T18:35:57Z</time>
      </trkpt>
      <trkpt lat="46.0228" lon="6.23361">
        <ele>710.55</ele>
        <time>2020-05-08T18:35:58Z</time>
      </trkpt>
      <trkpt lat="46.02268" lon="6.23341">
        <ele>709.59</ele>
        <time>2020-05-08T18:35:59Z</time>
      </trkpt>
      <trkpt lat="46.02169" lon="6.23137">
        <ele>704.3</ele>
        <time>2020-05-08T18:36:08Z</time>
      </trkpt>
      <trkpt lat="46.02141" lon="6.23093">
        <ele>703.34</ele>
        <time>2020-05-08T18:36:10Z</time>
      </trkpt>
      <trkpt lat="46.02125" lon="6.2307">
        <ele>702.86</ele>
        <time>2020-05-08T18:36:11Z</time>
      </trkpt>
      <trkpt lat="46.02089" lon="6.23024">
        <ele>702.86</ele>
        <time>2020-05-08T18:36:13Z</time>
      </trkpt>
      <trkpt lat="46.02072" lon="6.22996">
        <ele>702.86</ele>
        <time>2020-05-08T18:36:14Z</time>
      </trkpt>
      <trkpt lat="46.02059" lon="6.22964">
        <ele>702.38</ele>
        <time>2020-05-08T18:36:15Z</time>
      </trkpt>
      <trkpt lat="46.02047" lon="6.22927">
        <ele>701.9</ele>
        <time>2020-05-08T18:36:16Z</time>
      </trkpt>
      <trkpt lat="46.02039" lon="6.22887">
        <ele>701.9</ele>
        <time>2020-05-08T18:36:17Z</time>
      </trkpt>
      <trkpt lat="46.02032" lon="6.22845">
        <ele>700.94</ele>
        <time>2020-05-08T18:36:18Z</time>
      </trkpt>
      <trkpt lat="46.02025" lon="6.228">
        <ele>700.46</ele>
        <time>2020-05-08T18:36:19Z</time>
      </trkpt>
      <trkpt lat="46.01987" lon="6.22532">
        <ele>697.57</ele>
        <time>2020-05-08T18:36:24Z</time>
      </trkpt>
      <trkpt lat="46.01932" lon="6.22177">
        <ele>690.36</ele>
        <time>2020-05-08T18:36:30Z</time>
      </trkpt>
      <trkpt lat="46.01876" lon="6.21947">
        <ele>686.04</ele>
        <time>2020-05-08T18:36:35Z</time>
      </trkpt>
      <trkpt lat="46.01775" lon="6.2169">
        <ele>683.63</ele>
        <time>2020-05-08T18:36:42Z</time>
      </trkpt>
      <trkpt lat="46.01681" lon="6.21491">
        <ele>682.67</ele>
        <time>2020-05-08T18:36:48Z</time>
      </trkpt>
      <trkpt lat="46.01658" lon="6.21464">
        <ele>682.19</ele>
        <time>2020-05-08T18:36:49Z</time>
      </trkpt>
      <trkpt lat="46.01476" lon="6.21283">
        <ele>680.27</ele>
        <time>2020-05-08T18:36:56Z</time>
      </trkpt>
      <trkpt lat="46.01427" lon="6.21229">
        <ele>679.79</ele>
        <time>2020-05-08T18:36:58Z</time>
      </trkpt>
      <trkpt lat="46.01405" lon="6.21197">
        <ele>679.31</ele>
        <time>2020-05-08T18:36:59Z</time>
      </trkpt>
      <trkpt lat="46.01272" lon="6.21005">
        <ele>674.98</ele>
        <time>2020-05-08T18:37:05Z</time>
      </trkpt>
      <trkpt lat="46.01074" lon="6.20765">
        <ele>667.77</ele>
        <time>2020-05-08T18:37:13Z</time>
      </trkpt>
      <trkpt lat="46.00938" lon="6.20604">
        <ele>662.97</ele>
        <time>2020-05-08T18:37:20Z</time>
      </trkpt>
      <trkpt lat="46.00893" lon="6.20547">
        <ele>661.52</ele>
        <time>2020-05-08T18:37:23Z</time>
      </trkpt>
      <trkpt lat="46.00881" lon="6.20528">
        <ele>661.04</ele>
        <time>2020-05-08T18:37:24Z</time>
      </trkpt>
      <trkpt lat="46.00872" lon="6.20503">
        <ele>660.08</ele>
        <time>2020-05-08T18:37:25Z</time>
      </trkpt>
      <trkpt lat="46.00863" lon="6.20479">
        <ele>659.6</ele>
        <time>2020-05-08T18:37:26Z</time>
      </trkpt>
      <trkpt lat="46.00854" lon="6.20453">
        <ele>659.6</ele>
        <time>2020-05-08T18:37:27Z</time>
      </trkpt>
      <trkpt lat="46.00847" lon="6.20424">
        <ele>659.12</ele>
        <time>2020-05-08T18:37:28Z</time>
      </trkpt>
      <trkpt lat="46.00781" lon="6.20187">
        <ele>654.31</ele>
        <time>2020-05-08T18:37:35Z</time>
      </trkpt>
      <trkpt lat="46.00733" lon="6.19977">
        <ele>645.66</ele>
        <time>2020-05-08T18:37:40Z</time>
      </trkpt>
      <trkpt lat="46.00676" lon="6.19734">
        <ele>635.09</ele>
        <time>2020-05-08T18:37:46Z</time>
      </trkpt>
      <trkpt lat="46.00612" lon="6.19571">
        <ele>627.4</ele>
        <time>2020-05-08T18:37:51Z</time>
      </trkpt>
      <trkpt lat="46.00599" lon="6.19549">
        <ele>625.96</ele>
        <time>2020-05-08T18:37:52Z</time>
      </trkpt>
      <trkpt lat="46.00584" lon="6.19529">
        <ele>624.51</ele>
        <time>2020-05-08T18:37:53Z</time>
      </trkpt>
      <trkpt lat="46.00567" lon="6.19511">
        <ele>623.07</ele>
        <time>2020-05-08T18:37:54Z</time>
      </trkpt>
      <trkpt lat="46.0055" lon="6.19495">
        <ele>621.63</ele>
        <time>2020-05-08T18:37:55Z</time>
      </trkpt>
      <trkpt lat="46.00488" lon="6.19405">
        <ele>613.94</ele>
        <time>2020-05-08T18:38:00Z</time>
      </trkpt>
      <trkpt lat="46.00482" lon="6.19387">
        <ele>612.98</ele>
        <time>2020-05-08T18:38:01Z</time>
      </trkpt>
      <trkpt lat="46.0048" lon="6.19368">
        <ele>611.54</ele>
        <time>2020-05-08T18:38:02Z</time>
      </trkpt>
      <trkpt lat="46.00483" lon="6.19349">
        <ele>610.57</ele>
        <time>2020-05-08T18:38:03Z</time>
      </trkpt>
      <trkpt lat="46.00491" lon="6.19333">
        <ele>609.13</ele>
        <time>2020-05-08T18:38:04Z</time>
      </trkpt>
      <trkpt lat="46.005" lon="6.19318">
        <ele>607.69</ele>
        <time>2020-05-08T18:38:05Z</time>
      </trkpt>
      <trkpt lat="46.00513" lon="6.1931">
        <ele>606.25</ele>
        <time>2020-05-08T18:38:06Z</time>
      </trkpt>
      <trkpt lat="46.00528" lon="6.19308">
        <ele>604.81</ele>
        <time>2020-05-08T18:38:07Z</time>
      </trkpt>
      <trkpt lat="46.00542" lon="6.19315">
        <ele>603.36</ele>
        <time>2020-05-08T18:38:08Z</time>
      </trkpt>
      <trkpt lat="46.00556" lon="6.19326">
        <ele>601.92</ele>
        <time>2020-05-08T18:38:09Z</time>
      </trkpt>
      <trkpt lat="46.00569" lon="6.19342">
        <ele>600.96</ele>
        <time>2020-05-08T18:38:10Z</time>
      </trkpt>
      <trkpt lat="46.00585" lon="6.19362">
        <ele>599.52</ele>
        <time>2020-05-08T18:38:11Z</time>
      </trkpt>
      <trkpt lat="46.00613" lon="6.19419">
        <ele>597.12</ele>
        <time>2020-05-08T18:38:13Z</time>
      </trkpt>
      <trkpt lat="46.00661" lon="6.19522">
        <ele>593.27</ele>
        <time>2020-05-08T18:38:18Z</time>
      </trkpt>
      <trkpt lat="46.00667" lon="6.19535">
        <ele>592.79</ele>
        <time>2020-05-08T18:38:19Z</time>
      </trkpt>
      <trkpt lat="46.00674" lon="6.19538">
        <ele>592.79</ele>
        <time>2020-05-08T18:38:20Z</time>
      </trkpt>
      <trkpt lat="46.00682" lon="6.19541">
        <ele>592.79</ele>
        <time>2020-05-08T18:38:21Z</time>
      </trkpt>
      <trkpt lat="46.0069" lon="6.19534">
        <ele>592.31</ele>
        <time>2020-05-08T18:38:22Z</time>
      </trkpt>
      <trkpt lat="46.00693" lon="6.19521">
        <ele>592.31</ele>
        <time>2020-05-08T18:38:23Z</time>
      </trkpt>
      <trkpt lat="46.00694" lon="6.19508">
        <ele>592.31</ele>
        <time>2020-05-08T18:38:24Z</time>
      </trkpt>
      <trkpt lat="46.00689" lon="6.19491">
        <ele>592.31</ele>
        <time>2020-05-08T18:38:25Z</time>
      </trkpt>
      <trkpt lat="46.00682" lon="6.19473">
        <ele>591.83</ele>
        <time>2020-05-08T18:38:26Z</time>
      </trkpt>
      <trkpt lat="46.00673" lon="6.19451">
        <ele>591.83</ele>
        <time>2020-05-08T18:38:27Z</time>
      </trkpt>
      <trkpt lat="46.00616" lon="6.1929">
        <ele>586.54</ele>
        <time>2020-05-08T18:38:32Z</time>
      </trkpt>
      <trkpt lat="46.00523" lon="6.1905">
        <ele>572.12</ele>
        <time>2020-05-08T18:38:39Z</time>
      </trkpt>
      <trkpt lat="46.00467" lon="6.18951">
        <ele>564.43</ele>
        <time>2020-05-08T18:38:43Z</time>
      </trkpt>
      <trkpt lat="46.00453" lon="6.18932">
        <ele>562.99</ele>
        <time>2020-05-08T18:38:44Z</time>
      </trkpt>
      <trkpt lat="46.00439" lon="6.18914">
        <ele>561.55</ele>
        <time>2020-05-08T18:38:45Z</time>
      </trkpt>
      <trkpt lat="46.00403" lon="6.18878">
        <ele>557.22</ele>
        <time>2020-05-08T18:38:48Z</time>
      </trkpt>
      <trkpt lat="46.00405" lon="6.18858">
        <ele>556.26</ele>
        <time>2020-05-08T18:38:49Z</time>
      </trkpt>
      <trkpt lat="46.00401" lon="6.18848">
        <ele>555.3</ele>
        <time>2020-05-08T18:38:50Z</time>
      </trkpt>
      <trkpt lat="46.00403" lon="6.18839">
        <ele>554.34</ele>
        <time>2020-05-08T18:38:51Z</time>
      </trkpt>
      <trkpt lat="46.00407" lon="6.18829">
        <ele>553.38</ele>
        <time>2020-05-08T18:38:52Z</time>
      </trkpt>
      <trkpt lat="46.00416" lon="6.18822">
        <ele>552.9</ele>
        <time>2020-05-08T18:38:53Z</time>
      </trkpt>
      <trkpt lat="46.00426" lon="6.18818">
        <ele>552.41</ele>
        <time>2020-05-08T18:38:54Z</time>
      </trkpt>
      <trkpt lat="46.00433" lon="6.18823">
        <ele>551.93</ele>
        <time>2020-05-08T18:38:55Z</time>
      </trkpt>
      <trkpt lat="46.0044" lon="6.18834">
        <ele>551.93</ele>
        <time>2020-05-08T18:38:56Z</time>
      </trkpt>
      <trkpt lat="46.00444" lon="6.18846">
        <ele>551.93</ele>
        <time>2020-05-08T18:38:57Z</time>
      </trkpt>
      <trkpt lat="46.00448" lon="6.18858">
        <ele>551.45</ele>
        <time>2020-05-08T18:38:58Z</time>
      </trkpt>
      <trkpt lat="46.00452" lon="6.18867">
        <ele>551.45</ele>
        <time>2020-05-08T18:38:59Z</time>
      </trkpt>
      <trkpt lat="46.00446" lon="6.18891">
        <ele>551.93</ele>
        <time>2020-05-08T18:39:00Z</time>
      </trkpt>
      <trkpt lat="46.00438" lon="6.18899">
        <ele>551.93</ele>
        <time>2020-05-08T18:39:01Z</time>
      </trkpt>
      <trkpt lat="46.00426" lon="6.18914">
        <ele>550.97</ele>
        <time>2020-05-08T18:39:02Z</time>
      </trkpt>
      <trkpt lat="46.00405" lon="6.18948">
        <ele>549.05</ele>
        <time>2020-05-08T18:39:04Z</time>
      </trkpt>
      <trkpt lat="46.00397" lon="6.1897">
        <ele>548.57</ele>
        <time>2020-05-08T18:39:05Z</time>
      </trkpt>
      <trkpt lat="46.00392" lon="6.18995">
        <ele>548.57</ele>
        <time>2020-05-08T18:39:06Z</time>
      </trkpt>
      <trkpt lat="46.00386" lon="6.19022">
        <ele>549.05</ele>
        <time>2020-05-08T18:39:07Z</time>
      </trkpt>
      <trkpt lat="46.00379" lon="6.19054">
        <ele>549.05</ele>
        <time>2020-05-08T18:39:08Z</time>
      </trkpt>
      <trkpt lat="46.00332" lon="6.19287">
        <ele>551.93</ele>
        <time>2020-05-08T18:39:14Z</time>
      </trkpt>
      <trkpt lat="46.00292" lon="6.19499">
        <ele>554.82</ele>
        <time>2020-05-08T18:39:20Z</time>
      </trkpt>
      <trkpt lat="46.0029" lon="6.19535">
        <ele>555.3</ele>
        <time>2020-05-08T18:39:21Z</time>
      </trkpt>
      <trkpt lat="46.0028" lon="6.19774">
        <ele>556.74</ele>
        <time>2020-05-08T18:39:28Z</time>
      </trkpt>
      <trkpt lat="46.00275" lon="6.19804">
        <ele>557.22</ele>
        <time>2020-05-08T18:39:29Z</time>
      </trkpt>
      <trkpt lat="46.00264" lon="6.19833">
        <ele>558.18</ele>
        <time>2020-05-08T18:39:30Z</time>
      </trkpt>
      <trkpt lat="46.00208" lon="6.19983">
        <ele>561.55</ele>
        <time>2020-05-08T18:39:36Z</time>
      </trkpt>
      <trkpt lat="46.00203" lon="6.19997">
        <ele>562.03</ele>
        <time>2020-05-08T18:39:37Z</time>
      </trkpt>
      <trkpt lat="46.00195" lon="6.20016">
        <ele>562.99</ele>
        <time>2020-05-08T18:39:39Z</time>
      </trkpt>
      <trkpt lat="46.00194" lon="6.2002">
        <ele>563.47</ele>
        <time>2020-05-08T18:39:40Z</time>
      </trkpt>
      <trkpt lat="46.00184" lon="6.20001">
        <ele>565.39</ele>
        <time>2020-05-08T18:39:46Z</time>
      </trkpt>
      <trkpt lat="46.00183" lon="6.19997">
        <ele>566.83</ele>
        <time>2020-05-08T18:39:55Z</time>
      </trkpt>
      <trkpt lat="46.00183" lon="6.19998">
        <ele>567.32</ele>
        <time>2020-05-08T18:40:03Z</time>
      </trkpt>
      <trkpt lat="46.00181" lon="6.2">
        <ele>567.8</ele>
        <time>2020-05-08T18:40:14Z</time>
      </trkpt>
      <trkpt lat="46.0018" lon="6.2">
        <ele>568.76</ele>
        <time>2020-05-08T18:40:48Z</time>
      </trkpt>
    </trkseg>
  </trk>
  <trk>
    <name><![CDATA[Journal actif: 2020-05-09 10:16]]></name>
    <trkseg>
      <trkpt lat="46.00183" lon="6.19979">
        <ele>576.45</ele>
        <time>2020-05-09T08:16:27Z</time>
      </trkpt>
      <trkpt lat="46.00178" lon="6.19995">
        <ele>574.04</ele>
        <time>2020-05-09T08:16:35Z</time>
      </trkpt>
      <trkpt lat="46.00191" lon="6.20028">
        <ele>572.6</ele>
        <time>2020-05-09T08:16:41Z</time>
      </trkpt>
      <trkpt lat="46.0019" lon="6.2003">
        <ele>569.72</ele>
        <time>2020-05-09T08:16:47Z</time>
      </trkpt>
      <trkpt lat="46.00192" lon="6.20026">
        <ele>569.72</ele>
        <time>2020-05-09T08:16:48Z</time>
      </trkpt>
      <trkpt lat="46.00195" lon="6.20018">
        <ele>569.72</ele>
        <time>2020-05-09T08:16:49Z</time>
      </trkpt>
      <trkpt lat="46.00199" lon="6.20007">
        <ele>569.24</ele>
        <time>2020-05-09T08:16:50Z</time>
      </trkpt>
      <trkpt lat="46.00204" lon="6.19994">
        <ele>569.24</ele>
        <time>2020-05-09T08:16:51Z</time>
      </trkpt>
      <trkpt lat="46.00247" lon="6.19879">
        <ele>575.01</ele>
        <time>2020-05-09T08:16:57Z</time>
      </trkpt>
      <trkpt lat="46.00273" lon="6.19808">
        <ele>575.49</ele>
        <time>2020-05-09T08:17:00Z</time>
      </trkpt>
      <trkpt lat="46.0028" lon="6.19781">
        <ele>575.01</ele>
        <time>2020-05-09T08:17:01Z</time>
      </trkpt>
      <trkpt lat="46.00282" lon="6.19755">
        <ele>574.04</ele>
        <time>2020-05-09T08:17:02Z</time>
      </trkpt>
      <trkpt lat="46.00285" lon="6.1973">
        <ele>573.56</ele>
        <time>2020-05-09T08:17:03Z</time>
      </trkpt>
      <trkpt lat="46.00287" lon="6.19704">
        <ele>573.08</ele>
        <time>2020-05-09T08:17:04Z</time>
      </trkpt>
      <trkpt lat="46.00287" lon="6.19653">
        <ele>572.6</ele>
        <time>2020-05-09T08:17:06Z</time>
      </trkpt>
      <trkpt lat="46.00295" lon="6.19481">
        <ele>572.12</ele>
        <time>2020-05-09T08:17:11Z</time>
      </trkpt>
      <trkpt lat="46.00341" lon="6.19238">
        <ele>577.89</ele>
        <time>2020-05-09T08:17:17Z</time>
      </trkpt>
      <trkpt lat="46.00375" lon="6.19071">
        <ele>575.49</ele>
        <time>2020-05-09T08:17:23Z</time>
      </trkpt>
      <trkpt lat="46.00398" lon="6.18968">
        <ele>562.99</ele>
        <time>2020-05-09T08:17:29Z</time>
      </trkpt>
      <trkpt lat="46.004" lon="6.1896">
        <ele>562.51</ele>
        <time>2020-05-09T08:17:30Z</time>
      </trkpt>
      <trkpt lat="46.00401" lon="6.18955">
        <ele>561.55</ele>
        <time>2020-05-09T08:17:31Z</time>
      </trkpt>
      <trkpt lat="46.00398" lon="6.18954">
        <ele>561.07</ele>
        <time>2020-05-09T08:17:32Z</time>
      </trkpt>
      <trkpt lat="46.00392" lon="6.1895">
        <ele>561.07</ele>
        <time>2020-05-09T08:17:33Z</time>
      </trkpt>
      <trkpt lat="46.00385" lon="6.18946">
        <ele>561.07</ele>
        <time>2020-05-09T08:17:34Z</time>
      </trkpt>
      <trkpt lat="46.00377" lon="6.1894">
        <ele>561.07</ele>
        <time>2020-05-09T08:17:35Z</time>
      </trkpt>
      <trkpt lat="46.0037" lon="6.18933">
        <ele>561.07</ele>
        <time>2020-05-09T08:17:36Z</time>
      </trkpt>
      <trkpt lat="46.00361" lon="6.18923">
        <ele>561.07</ele>
        <time>2020-05-09T08:17:37Z</time>
      </trkpt>
      <trkpt lat="46.00358" lon="6.18906">
        <ele>561.07</ele>
        <time>2020-05-09T08:17:38Z</time>
      </trkpt>
      <trkpt lat="46.0036" lon="6.18894">
        <ele>561.07</ele>
        <time>2020-05-09T08:17:39Z</time>
      </trkpt>
      <trkpt lat="46.00369" lon="6.18883">
        <ele>560.59</ele>
        <time>2020-05-09T08:17:40Z</time>
      </trkpt>
      <trkpt lat="46.00376" lon="6.18879">
        <ele>560.59</ele>
        <time>2020-05-09T08:17:41Z</time>
      </trkpt>
      <trkpt lat="46.00384" lon="6.18877">
        <ele>560.59</ele>
        <time>2020-05-09T08:17:42Z</time>
      </trkpt>
      <trkpt lat="46.00392" lon="6.18881">
        <ele>560.59</ele>
        <time>2020-05-09T08:17:43Z</time>
      </trkpt>
      <trkpt lat="46.00403" lon="6.18887">
        <ele>561.07</ele>
        <time>2020-05-09T08:17:44Z</time>
      </trkpt>
      <trkpt lat="46.0042" lon="6.18895">
        <ele>561.55</ele>
        <time>2020-05-09T08:17:45Z</time>
      </trkpt>
      <trkpt lat="46.00431" lon="6.18905">
        <ele>562.51</ele>
        <time>2020-05-09T08:17:46Z</time>
      </trkpt>
      <trkpt lat="46.00447" lon="6.18925">
        <ele>563.47</ele>
        <time>2020-05-09T08:17:47Z</time>
      </trkpt>
      <trkpt lat="46.00483" lon="6.18972">
        <ele>565.39</ele>
        <time>2020-05-09T08:17:49Z</time>
      </trkpt>
      <trkpt lat="46.00499" lon="6.18999">
        <ele>566.35</ele>
        <time>2020-05-09T08:17:50Z</time>
      </trkpt>
      <trkpt lat="46.00564" lon="6.19146">
        <ele>573.56</ele>
        <time>2020-05-09T08:17:56Z</time>
      </trkpt>
      <trkpt lat="46.00584" lon="6.19199">
        <ele>575.97</ele>
        <time>2020-05-09T08:17:58Z</time>
      </trkpt>
      <trkpt lat="46.00649" lon="6.19386">
        <ele>586.54</ele>
        <time>2020-05-09T08:18:04Z</time>
      </trkpt>
      <trkpt lat="46.00686" lon="6.19484">
        <ele>594.71</ele>
        <time>2020-05-09T08:18:09Z</time>
      </trkpt>
      <trkpt lat="46.00692" lon="6.19497">
        <ele>596.15</ele>
        <time>2020-05-09T08:18:10Z</time>
      </trkpt>
      <trkpt lat="46.00694" lon="6.1951">
        <ele>597.12</ele>
        <time>2020-05-09T08:18:11Z</time>
      </trkpt>
      <trkpt lat="46.00693" lon="6.19521">
        <ele>598.08</ele>
        <time>2020-05-09T08:18:12Z</time>
      </trkpt>
      <trkpt lat="46.00691" lon="6.19533">
        <ele>599.04</ele>
        <time>2020-05-09T08:18:13Z</time>
      </trkpt>
      <trkpt lat="46.00683" lon="6.19541">
        <ele>600</ele>
        <time>2020-05-09T08:18:14Z</time>
      </trkpt>
      <trkpt lat="46.00673" lon="6.19537">
        <ele>600.96</ele>
        <time>2020-05-09T08:18:15Z</time>
      </trkpt>
      <trkpt lat="46.00663" lon="6.19527">
        <ele>601.92</ele>
        <time>2020-05-09T08:18:16Z</time>
      </trkpt>
      <trkpt lat="46.00657" lon="6.19514">
        <ele>602.4</ele>
        <time>2020-05-09T08:18:17Z</time>
      </trkpt>
      <trkpt lat="46.0065" lon="6.19497">
        <ele>602.88</ele>
        <time>2020-05-09T08:18:18Z</time>
      </trkpt>
      <trkpt lat="46.00641" lon="6.19478">
        <ele>603.36</ele>
        <time>2020-05-09T08:18:19Z</time>
      </trkpt>
      <trkpt lat="46.00605" lon="6.19403">
        <ele>605.29</ele>
        <time>2020-05-09T08:18:22Z</time>
      </trkpt>
      <trkpt lat="46.00554" lon="6.19325">
        <ele>608.65</ele>
        <time>2020-05-09T08:18:26Z</time>
      </trkpt>
      <trkpt lat="46.00541" lon="6.19315">
        <ele>609.61</ele>
        <time>2020-05-09T08:18:27Z</time>
      </trkpt>
      <trkpt lat="46.00529" lon="6.19309">
        <ele>611.06</ele>
        <time>2020-05-09T08:18:28Z</time>
      </trkpt>
      <trkpt lat="46.00517" lon="6.19308">
        <ele>612.5</ele>
        <time>2020-05-09T08:18:29Z</time>
      </trkpt>
      <trkpt lat="46.00506" lon="6.19315">
        <ele>613.94</ele>
        <time>2020-05-09T08:18:30Z</time>
      </trkpt>
      <trkpt lat="46.00496" lon="6.19323">
        <ele>614.9</ele>
        <time>2020-05-09T08:18:31Z</time>
      </trkpt>
      <trkpt lat="46.00489" lon="6.19338">
        <ele>615.86</ele>
        <time>2020-05-09T08:18:32Z</time>
      </trkpt>
      <trkpt lat="46.00481" lon="6.19354">
        <ele>616.82</ele>
        <time>2020-05-09T08:18:33Z</time>
      </trkpt>
      <trkpt lat="46.0048" lon="6.19372">
        <ele>617.78</ele>
        <time>2020-05-09T08:18:34Z</time>
      </trkpt>
      <trkpt lat="46.00483" lon="6.1939">
        <ele>618.75</ele>
        <time>2020-05-09T08:18:35Z</time>
      </trkpt>
      <trkpt lat="46.0049" lon="6.19408">
        <ele>619.71</ele>
        <time>2020-05-09T08:18:36Z</time>
      </trkpt>
      <trkpt lat="46.00498" lon="6.19427">
        <ele>620.67</ele>
        <time>2020-05-09T08:18:37Z</time>
      </trkpt>
      <trkpt lat="46.00509" lon="6.19446">
        <ele>621.15</ele>
        <time>2020-05-09T08:18:38Z</time>
      </trkpt>
      <trkpt lat="46.00522" lon="6.19467">
        <ele>621.63</ele>
        <time>2020-05-09T08:18:39Z</time>
      </trkpt>
      <trkpt lat="46.00537" lon="6.19484">
        <ele>622.59</ele>
        <time>2020-05-09T08:18:40Z</time>
      </trkpt>
      <trkpt lat="46.00556" lon="6.19501">
        <ele>623.55</ele>
        <time>2020-05-09T08:18:41Z</time>
      </trkpt>
      <trkpt lat="46.00574" lon="6.19517">
        <ele>624.99</ele>
        <time>2020-05-09T08:18:42Z</time>
      </trkpt>
      <trkpt lat="46.00591" lon="6.19539">
        <ele>625.96</ele>
        <time>2020-05-09T08:18:43Z</time>
      </trkpt>
      <trkpt lat="46.00608" lon="6.19561">
        <ele>626.92</ele>
        <time>2020-05-09T08:18:44Z</time>
      </trkpt>
      <trkpt lat="46.00619" lon="6.19589">
        <ele>628.36</ele>
        <time>2020-05-09T08:18:45Z</time>
      </trkpt>
      <trkpt lat="46.0063" lon="6.19618">
        <ele>629.32</ele>
        <time>2020-05-09T08:18:46Z</time>
      </trkpt>
      <trkpt lat="46.00712" lon="6.19876">
        <ele>637.97</ele>
        <time>2020-05-09T08:18:54Z</time>
      </trkpt>
      <trkpt lat="46.00791" lon="6.20221">
        <ele>651.91</ele>
        <time>2020-05-09T08:19:05Z</time>
      </trkpt>
      <trkpt lat="46.00857" lon="6.20463">
        <ele>660.08</ele>
        <time>2020-05-09T08:19:14Z</time>
      </trkpt>
      <trkpt lat="46.00873" lon="6.20506">
        <ele>661.04</ele>
        <time>2020-05-09T08:19:16Z</time>
      </trkpt>
      <trkpt lat="46.00881" lon="6.20528">
        <ele>661.52</ele>
        <time>2020-05-09T08:19:17Z</time>
      </trkpt>
      <trkpt lat="46.00892" lon="6.20546">
        <ele>661.52</ele>
        <time>2020-05-09T08:19:18Z</time>
      </trkpt>
      <trkpt lat="46.00905" lon="6.20565">
        <ele>662.01</ele>
        <time>2020-05-09T08:19:19Z</time>
      </trkpt>
      <trkpt lat="46.00919" lon="6.20582">
        <ele>662.49</ele>
        <time>2020-05-09T08:19:20Z</time>
      </trkpt>
      <trkpt lat="46.0104" lon="6.20726">
        <ele>664.41</ele>
        <time>2020-05-09T08:19:27Z</time>
      </trkpt>
      <trkpt lat="46.01266" lon="6.20998">
        <ele>670.18</ele>
        <time>2020-05-09T08:19:38Z</time>
      </trkpt>
      <trkpt lat="46.0141" lon="6.21205">
        <ele>675.46</ele>
        <time>2020-05-09T08:19:46Z</time>
      </trkpt>
      <trkpt lat="46.01448" lon="6.21252">
        <ele>676.91</ele>
        <time>2020-05-09T08:19:48Z</time>
      </trkpt>
      <trkpt lat="46.01468" lon="6.21273">
        <ele>677.39</ele>
        <time>2020-05-09T08:19:49Z</time>
      </trkpt>
      <trkpt lat="46.01488" lon="6.21296">
        <ele>678.35</ele>
        <time>2020-05-09T08:19:50Z</time>
      </trkpt>
      <trkpt lat="46.01508" lon="6.21318">
        <ele>679.79</ele>
        <time>2020-05-09T08:19:51Z</time>
      </trkpt>
      <trkpt lat="46.0153" lon="6.21338">
        <ele>680.75</ele>
        <time>2020-05-09T08:19:52Z</time>
      </trkpt>
      <trkpt lat="46.01721" lon="6.2156">
        <ele>687.96</ele>
        <time>2020-05-09T08:20:02Z</time>
      </trkpt>
      <trkpt lat="46.01803" lon="6.21759">
        <ele>687</ele>
        <time>2020-05-09T08:20:08Z</time>
      </trkpt>
      <trkpt lat="46.01909" lon="6.22068">
        <ele>689.4</ele>
        <time>2020-05-09T08:20:16Z</time>
      </trkpt>
      <trkpt lat="46.01961" lon="6.22362">
        <ele>693.73</ele>
        <time>2020-05-09T08:20:23Z</time>
      </trkpt>
      <trkpt lat="46.02026" lon="6.22807">
        <ele>703.82</ele>
        <time>2020-05-09T08:20:34Z</time>
      </trkpt>
      <trkpt lat="46.02051" lon="6.2294">
        <ele>706.23</ele>
        <time>2020-05-09T08:20:38Z</time>
      </trkpt>
      <trkpt lat="46.0206" lon="6.22968">
        <ele>706.71</ele>
        <time>2020-05-09T08:20:39Z</time>
      </trkpt>
      <trkpt lat="46.02071" lon="6.22994">
        <ele>706.71</ele>
        <time>2020-05-09T08:20:40Z</time>
      </trkpt>
      <trkpt lat="46.02084" lon="6.23018">
        <ele>707.19</ele>
        <time>2020-05-09T08:20:41Z</time>
      </trkpt>
      <trkpt lat="46.02099" lon="6.23038">
        <ele>707.19</ele>
        <time>2020-05-09T08:20:42Z</time>
      </trkpt>
      <trkpt lat="46.02115" lon="6.23057">
        <ele>707.67</ele>
        <time>2020-05-09T08:20:43Z</time>
      </trkpt>
      <trkpt lat="46.02129" lon="6.23075">
        <ele>707.67</ele>
        <time>2020-05-09T08:20:44Z</time>
      </trkpt>
      <trkpt lat="46.02142" lon="6.23094">
        <ele>707.67</ele>
        <time>2020-05-09T08:20:45Z</time>
      </trkpt>
      <trkpt lat="46.02154" lon="6.23111">
        <ele>708.15</ele>
        <time>2020-05-09T08:20:46Z</time>
      </trkpt>
      <trkpt lat="46.02164" lon="6.23129">
        <ele>708.63</ele>
        <time>2020-05-09T08:20:47Z</time>
      </trkpt>
      <trkpt lat="46.02226" lon="6.23252">
        <ele>711.03</ele>
        <time>2020-05-09T08:20:54Z</time>
      </trkpt>
      <trkpt lat="46.02279" lon="6.23359">
        <ele>714.4</ele>
        <time>2020-05-09T08:21:00Z</time>
      </trkpt>
      <trkpt lat="46.02289" lon="6.23375">
        <ele>714.88</ele>
        <time>2020-05-09T08:21:01Z</time>
      </trkpt>
      <trkpt lat="46.02302" lon="6.23387">
        <ele>715.36</ele>
        <time>2020-05-09T08:21:02Z</time>
      </trkpt>
      <trkpt lat="46.02315" lon="6.234">
        <ele>715.84</ele>
        <time>2020-05-09T08:21:03Z</time>
      </trkpt>
      <trkpt lat="46.0233" lon="6.23413">
        <ele>716.32</ele>
        <time>2020-05-09T08:21:04Z</time>
      </trkpt>
      <trkpt lat="46.02394" lon="6.23471">
        <ele>720.16</ele>
        <time>2020-05-09T08:21:08Z</time>
      </trkpt>
      <trkpt lat="46.0241" lon="6.23491">
        <ele>721.61</ele>
        <time>2020-05-09T08:21:09Z</time>
      </trkpt>
      <trkpt lat="46.02425" lon="6.23515">
        <ele>722.57</ele>
        <time>2020-05-09T08:21:10Z</time>
      </trkpt>
      <trkpt lat="46.02437" lon="6.23541">
        <ele>723.53</ele>
        <time>2020-05-09T08:21:11Z</time>
      </trkpt>
      <trkpt lat="46.02449" lon="6.23568">
        <ele>725.45</ele>
        <time>2020-05-09T08:21:12Z</time>
      </trkpt>
      <trkpt lat="46.02476" lon="6.23622">
        <ele>727.86</ele>
        <time>2020-05-09T08:21:14Z</time>
      </trkpt>
      <trkpt lat="46.02506" lon="6.23672">
        <ele>729.78</ele>
        <time>2020-05-09T08:21:16Z</time>
      </trkpt>
      <trkpt lat="46.02523" lon="6.23694">
        <ele>730.74</ele>
        <time>2020-05-09T08:21:17Z</time>
      </trkpt>
      <trkpt lat="46.02541" lon="6.23713">
        <ele>731.22</ele>
        <time>2020-05-09T08:21:18Z</time>
      </trkpt>
      <trkpt lat="46.02561" lon="6.23728">
        <ele>732.18</ele>
        <time>2020-05-09T08:21:19Z</time>
      </trkpt>
      <trkpt lat="46.02582" lon="6.23739">
        <ele>732.66</ele>
        <time>2020-05-09T08:21:20Z</time>
      </trkpt>
      <trkpt lat="46.02604" lon="6.2375">
        <ele>733.62</ele>
        <time>2020-05-09T08:21:21Z</time>
      </trkpt>
      <trkpt lat="46.02628" lon="6.23756">
        <ele>734.1</ele>
        <time>2020-05-09T08:21:22Z</time>
      </trkpt>
      <trkpt lat="46.02653" lon="6.23761">
        <ele>735.07</ele>
        <time>2020-05-09T08:21:23Z</time>
      </trkpt>
      <trkpt lat="46.02895" lon="6.23814">
        <ele>746.12</ele>
        <time>2020-05-09T08:21:32Z</time>
      </trkpt>
      <trkpt lat="46.03044" lon="6.23895">
        <ele>750.45</ele>
        <time>2020-05-09T08:21:38Z</time>
      </trkpt>
      <trkpt lat="46.03065" lon="6.23918">
        <ele>750.45</ele>
        <time>2020-05-09T08:21:39Z</time>
      </trkpt>
      <trkpt lat="46.03247" lon="6.2413">
        <ele>754.77</ele>
        <time>2020-05-09T08:21:48Z</time>
      </trkpt>
      <trkpt lat="46.03325" lon="6.24245">
        <ele>757.18</ele>
        <time>2020-05-09T08:21:54Z</time>
      </trkpt>
      <trkpt lat="46.03341" lon="6.24257">
        <ele>757.18</ele>
        <time>2020-05-09T08:21:55Z</time>
      </trkpt>
      <trkpt lat="46.03358" lon="6.24266">
        <ele>757.66</ele>
        <time>2020-05-09T08:21:56Z</time>
      </trkpt>
      <trkpt lat="46.03376" lon="6.24272">
        <ele>757.66</ele>
        <time>2020-05-09T08:21:57Z</time>
      </trkpt>
      <trkpt lat="46.03394" lon="6.24269">
        <ele>758.62</ele>
        <time>2020-05-09T08:21:58Z</time>
      </trkpt>
      <trkpt lat="46.03411" lon="6.24266">
        <ele>758.62</ele>
        <time>2020-05-09T08:21:59Z</time>
      </trkpt>
      <trkpt lat="46.03428" lon="6.24255">
        <ele>759.1</ele>
        <time>2020-05-09T08:22:00Z</time>
      </trkpt>
      <trkpt lat="46.03441" lon="6.24247">
        <ele>759.58</ele>
        <time>2020-05-09T08:22:01Z</time>
      </trkpt>
      <trkpt lat="46.03456" lon="6.24224">
        <ele>760.06</ele>
        <time>2020-05-09T08:22:02Z</time>
      </trkpt>
      <trkpt lat="46.03468" lon="6.24204">
        <ele>761.02</ele>
        <time>2020-05-09T08:22:03Z</time>
      </trkpt>
      <trkpt lat="46.03482" lon="6.24183">
        <ele>761.98</ele>
        <time>2020-05-09T08:22:04Z</time>
      </trkpt>
      <trkpt lat="46.03521" lon="6.24118">
        <ele>764.87</ele>
        <time>2020-05-09T08:22:07Z</time>
      </trkpt>
      <trkpt lat="46.03535" lon="6.241">
        <ele>765.83</ele>
        <time>2020-05-09T08:22:08Z</time>
      </trkpt>
      <trkpt lat="46.03551" lon="6.24087">
        <ele>766.31</ele>
        <time>2020-05-09T08:22:09Z</time>
      </trkpt>
      <trkpt lat="46.03569" lon="6.24079">
        <ele>766.79</ele>
        <time>2020-05-09T08:22:10Z</time>
      </trkpt>
      <trkpt lat="46.03589" lon="6.24072">
        <ele>767.27</ele>
        <time>2020-05-09T08:22:11Z</time>
      </trkpt>
      <trkpt lat="46.03609" lon="6.24072">
        <ele>767.75</ele>
        <time>2020-05-09T08:22:12Z</time>
      </trkpt>
      <trkpt lat="46.03629" lon="6.24074">
        <ele>768.23</ele>
        <time>2020-05-09T08:22:13Z</time>
      </trkpt>
      <trkpt lat="46.0365" lon="6.24081">
        <ele>769.19</ele>
        <time>2020-05-09T08:22:14Z</time>
      </trkpt>
      <trkpt lat="46.0367" lon="6.24093">
        <ele>769.67</ele>
        <time>2020-05-09T08:22:15Z</time>
      </trkpt>
      <trkpt lat="46.03688" lon="6.24111">
        <ele>770.63</ele>
        <time>2020-05-09T08:22:16Z</time>
      </trkpt>
      <trkpt lat="46.03707" lon="6.2413">
        <ele>772.08</ele>
        <time>2020-05-09T08:22:17Z</time>
      </trkpt>
      <trkpt lat="46.03724" lon="6.24155">
        <ele>773.04</ele>
        <time>2020-05-09T08:22:18Z</time>
      </trkpt>
      <trkpt lat="46.03742" lon="6.24182">
        <ele>774</ele>
        <time>2020-05-09T08:22:19Z</time>
      </trkpt>
      <trkpt lat="46.03761" lon="6.2421">
        <ele>775.92</ele>
        <time>2020-05-09T08:22:20Z</time>
      </trkpt>
      <trkpt lat="46.03773" lon="6.24245">
        <ele>777.84</ele>
        <time>2020-05-09T08:22:21Z</time>
      </trkpt>
      <trkpt lat="46.03786" lon="6.2428">
        <ele>779.77</ele>
        <time>2020-05-09T08:22:22Z</time>
      </trkpt>
      <trkpt lat="46.03796" lon="6.24318">
        <ele>781.21</ele>
        <time>2020-05-09T08:22:23Z</time>
      </trkpt>
      <trkpt lat="46.03804" lon="6.24358">
        <ele>783.13</ele>
        <time>2020-05-09T08:22:24Z</time>
      </trkpt>
      <trkpt lat="46.03812" lon="6.24398">
        <ele>785.05</ele>
        <time>2020-05-09T08:22:25Z</time>
      </trkpt>
      <trkpt lat="46.03847" lon="6.24543">
        <ele>792.26</ele>
        <time>2020-05-09T08:22:29Z</time>
      </trkpt>
      <trkpt lat="46.03859" lon="6.24574">
        <ele>793.71</ele>
        <time>2020-05-09T08:22:30Z</time>
      </trkpt>
      <trkpt lat="46.03875" lon="6.24602">
        <ele>795.15</ele>
        <time>2020-05-09T08:22:31Z</time>
      </trkpt>
      <trkpt lat="46.03892" lon="6.24628">
        <ele>796.11</ele>
        <time>2020-05-09T08:22:32Z</time>
      </trkpt>
      <trkpt lat="46.03912" lon="6.24649">
        <ele>797.55</ele>
        <time>2020-05-09T08:22:33Z</time>
      </trkpt>
      <trkpt lat="46.03933" lon="6.2467">
        <ele>798.51</ele>
        <time>2020-05-09T08:22:34Z</time>
      </trkpt>
      <trkpt lat="46.03955" lon="6.24685">
        <ele>798.99</ele>
        <time>2020-05-09T08:22:35Z</time>
      </trkpt>
      <trkpt lat="46.03979" lon="6.24699">
        <ele>799.47</ele>
        <time>2020-05-09T08:22:36Z</time>
      </trkpt>
      <trkpt lat="46.04004" lon="6.24707">
        <ele>799.47</ele>
        <time>2020-05-09T08:22:37Z</time>
      </trkpt>
      <trkpt lat="46.0403" lon="6.24713">
        <ele>799.47</ele>
        <time>2020-05-09T08:22:38Z</time>
      </trkpt>
      <trkpt lat="46.04081" lon="6.24734">
        <ele>798.51</ele>
        <time>2020-05-09T08:22:40Z</time>
      </trkpt>
      <trkpt lat="46.04105" lon="6.24749">
        <ele>798.03</ele>
        <time>2020-05-09T08:22:41Z</time>
      </trkpt>
      <trkpt lat="46.04128" lon="6.2477">
        <ele>797.07</ele>
        <time>2020-05-09T08:22:42Z</time>
      </trkpt>
      <trkpt lat="46.0415" lon="6.24795">
        <ele>795.63</ele>
        <time>2020-05-09T08:22:43Z</time>
      </trkpt>
      <trkpt lat="46.04172" lon="6.24821">
        <ele>794.19</ele>
        <time>2020-05-09T08:22:44Z</time>
      </trkpt>
      <trkpt lat="46.04193" lon="6.2485">
        <ele>793.22</ele>
        <time>2020-05-09T08:22:45Z</time>
      </trkpt>
      <trkpt lat="46.04335" lon="6.25064">
        <ele>794.67</ele>
        <time>2020-05-09T08:22:53Z</time>
      </trkpt>
      <trkpt lat="46.04349" lon="6.25092">
        <ele>795.63</ele>
        <time>2020-05-09T08:22:54Z</time>
      </trkpt>
      <trkpt lat="46.04359" lon="6.25122">
        <ele>797.55</ele>
        <time>2020-05-09T08:22:55Z</time>
      </trkpt>
      <trkpt lat="46.04369" lon="6.25152">
        <ele>798.51</ele>
        <time>2020-05-09T08:22:56Z</time>
      </trkpt>
      <trkpt lat="46.04377" lon="6.25182">
        <ele>799.95</ele>
        <time>2020-05-09T08:22:57Z</time>
      </trkpt>
      <trkpt lat="46.04383" lon="6.25214">
        <ele>800.92</ele>
        <time>2020-05-09T08:22:58Z</time>
      </trkpt>
      <trkpt lat="46.04442" lon="6.25463">
        <ele>807.16</ele>
        <time>2020-05-09T08:23:05Z</time>
      </trkpt>
      <trkpt lat="46.04465" lon="6.25531">
        <ele>808.13</ele>
        <time>2020-05-09T08:23:07Z</time>
      </trkpt>
      <trkpt lat="46.04588" lon="6.2579">
        <ele>806.68</ele>
        <time>2020-05-09T08:23:16Z</time>
      </trkpt>
      <trkpt lat="46.04769" lon="6.26165">
        <ele>800.92</ele>
        <time>2020-05-09T08:23:29Z</time>
      </trkpt>
      <trkpt lat="46.04912" lon="6.26411">
        <ele>790.34</ele>
        <time>2020-05-09T08:23:38Z</time>
      </trkpt>
      <trkpt lat="46.05042" lon="6.26526">
        <ele>782.65</ele>
        <time>2020-05-09T08:23:44Z</time>
      </trkpt>
      <trkpt lat="46.0508" lon="6.26576">
        <ele>780.25</ele>
        <time>2020-05-09T08:23:46Z</time>
      </trkpt>
      <trkpt lat="46.05096" lon="6.26605">
        <ele>778.81</ele>
        <time>2020-05-09T08:23:47Z</time>
      </trkpt>
      <trkpt lat="46.05111" lon="6.26637">
        <ele>777.36</ele>
        <time>2020-05-09T08:23:48Z</time>
      </trkpt>
      <trkpt lat="46.05122" lon="6.26671">
        <ele>775.92</ele>
        <time>2020-05-09T08:23:49Z</time>
      </trkpt>
      <trkpt lat="46.05132" lon="6.26706">
        <ele>774.96</ele>
        <time>2020-05-09T08:23:50Z</time>
      </trkpt>
      <trkpt lat="46.05141" lon="6.26742">
        <ele>774</ele>
        <time>2020-05-09T08:23:51Z</time>
      </trkpt>
      <trkpt lat="46.05145" lon="6.2678">
        <ele>773.52</ele>
        <time>2020-05-09T08:23:52Z</time>
      </trkpt>
      <trkpt lat="46.05149" lon="6.26818">
        <ele>773.04</ele>
        <time>2020-05-09T08:23:53Z</time>
      </trkpt>
      <trkpt lat="46.05148" lon="6.26856">
        <ele>772.56</ele>
        <time>2020-05-09T08:23:54Z</time>
      </trkpt>
      <trkpt lat="46.05146" lon="6.26894">
        <ele>772.08</ele>
        <time>2020-05-09T08:23:55Z</time>
      </trkpt>
      <trkpt lat="46.05142" lon="6.26932">
        <ele>772.08</ele>
        <time>2020-05-09T08:23:56Z</time>
      </trkpt>
      <trkpt lat="46.05125" lon="6.27169">
        <ele>769.19</ele>
        <time>2020-05-09T08:24:03Z</time>
      </trkpt>
      <trkpt lat="46.05134" lon="6.27383">
        <ele>763.9</ele>
        <time>2020-05-09T08:24:09Z</time>
      </trkpt>
      <trkpt lat="46.05188" lon="6.2765">
        <ele>757.18</ele>
        <time>2020-05-09T08:24:16Z</time>
      </trkpt>
      <trkpt lat="46.05302" lon="6.2799">
        <ele>753.33</ele>
        <time>2020-05-09T08:24:25Z</time>
      </trkpt>
      <trkpt lat="46.05471" lon="6.2847">
        <ele>744.68</ele>
        <time>2020-05-09T08:24:38Z</time>
      </trkpt>
      <trkpt lat="46.056" lon="6.28831">
        <ele>735.55</ele>
        <time>2020-05-09T08:24:48Z</time>
      </trkpt>
      <trkpt lat="46.05615" lon="6.28862">
        <ele>734.1</ele>
        <time>2020-05-09T08:24:49Z</time>
      </trkpt>
      <trkpt lat="46.05633" lon="6.28891">
        <ele>733.14</ele>
        <time>2020-05-09T08:24:50Z</time>
      </trkpt>
      <trkpt lat="46.05651" lon="6.2892">
        <ele>731.7</ele>
        <time>2020-05-09T08:24:51Z</time>
      </trkpt>
      <trkpt lat="46.05672" lon="6.28943">
        <ele>730.26</ele>
        <time>2020-05-09T08:24:52Z</time>
      </trkpt>
      <trkpt lat="46.05695" lon="6.28962">
        <ele>728.82</ele>
        <time>2020-05-09T08:24:53Z</time>
      </trkpt>
      <trkpt lat="46.05719" lon="6.28978">
        <ele>727.86</ele>
        <time>2020-05-09T08:24:54Z</time>
      </trkpt>
      <trkpt lat="46.05745" lon="6.28992">
        <ele>726.41</ele>
        <time>2020-05-09T08:24:55Z</time>
      </trkpt>
      <trkpt lat="46.05771" lon="6.29001">
        <ele>724.97</ele>
        <time>2020-05-09T08:24:56Z</time>
      </trkpt>
      <trkpt lat="46.05799" lon="6.29007">
        <ele>723.53</ele>
        <time>2020-05-09T08:24:57Z</time>
      </trkpt>
      <trkpt lat="46.05827" lon="6.29009">
        <ele>722.09</ele>
        <time>2020-05-09T08:24:58Z</time>
      </trkpt>
      <trkpt lat="46.05855" lon="6.29006">
        <ele>720.16</ele>
        <time>2020-05-09T08:24:59Z</time>
      </trkpt>
      <trkpt lat="46.05884" lon="6.29002">
        <ele>718.72</ele>
        <time>2020-05-09T08:25:00Z</time>
      </trkpt>
      <trkpt lat="46.05912" lon="6.28994">
        <ele>717.28</ele>
        <time>2020-05-09T08:25:01Z</time>
      </trkpt>
      <trkpt lat="46.06118" lon="6.28925">
        <ele>703.34</ele>
        <time>2020-05-09T08:25:09Z</time>
      </trkpt>
      <trkpt lat="46.06352" lon="6.28852">
        <ele>688.92</ele>
        <time>2020-05-09T08:25:19Z</time>
      </trkpt>
      <trkpt lat="46.06416" lon="6.28838">
        <ele>683.63</ele>
        <time>2020-05-09T08:25:23Z</time>
      </trkpt>
      <trkpt lat="46.06426" lon="6.28836">
        <ele>683.15</ele>
        <time>2020-05-09T08:25:24Z</time>
      </trkpt>
      <trkpt lat="46.06436" lon="6.28858">
        <ele>682.67</ele>
        <time>2020-05-09T08:25:25Z</time>
      </trkpt>
      <trkpt lat="46.0645" lon="6.28854">
        <ele>682.19</ele>
        <time>2020-05-09T08:25:26Z</time>
      </trkpt>
      <trkpt lat="46.06456" lon="6.28849">
        <ele>682.19</ele>
        <time>2020-05-09T08:25:27Z</time>
      </trkpt>
      <trkpt lat="46.06467" lon="6.2883">
        <ele>681.71</ele>
        <time>2020-05-09T08:25:28Z</time>
      </trkpt>
      <trkpt lat="46.06481" lon="6.28826">
        <ele>680.75</ele>
        <time>2020-05-09T08:25:29Z</time>
      </trkpt>
      <trkpt lat="46.06496" lon="6.28821">
        <ele>680.27</ele>
        <time>2020-05-09T08:25:30Z</time>
      </trkpt>
      <trkpt lat="46.06632" lon="6.28742">
        <ele>673.54</ele>
        <time>2020-05-09T08:25:38Z</time>
      </trkpt>
      <trkpt lat="46.0679" lon="6.28672">
        <ele>665.85</ele>
        <time>2020-05-09T08:25:47Z</time>
      </trkpt>
      <trkpt lat="46.06808" lon="6.28674">
        <ele>664.89</ele>
        <time>2020-05-09T08:25:48Z</time>
      </trkpt>
      <trkpt lat="46.06826" lon="6.28679">
        <ele>663.93</ele>
        <time>2020-05-09T08:25:49Z</time>
      </trkpt>
      <trkpt lat="46.06845" lon="6.28684">
        <ele>662.97</ele>
        <time>2020-05-09T08:25:50Z</time>
      </trkpt>
      <trkpt lat="46.06864" lon="6.28692">
        <ele>662.01</ele>
        <time>2020-05-09T08:25:51Z</time>
      </trkpt>
      <trkpt lat="46.06883" lon="6.28703">
        <ele>661.04</ele>
        <time>2020-05-09T08:25:52Z</time>
      </trkpt>
      <trkpt lat="46.06901" lon="6.28713">
        <ele>660.08</ele>
        <time>2020-05-09T08:25:53Z</time>
      </trkpt>
      <trkpt lat="46.07038" lon="6.28802">
        <ele>652.39</ele>
        <time>2020-05-09T08:26:01Z</time>
      </trkpt>
      <trkpt lat="46.0721" lon="6.28826">
        <ele>642.78</ele>
        <time>2020-05-09T08:26:10Z</time>
      </trkpt>
      <trkpt lat="46.07365" lon="6.28866">
        <ele>634.13</ele>
        <time>2020-05-09T08:26:18Z</time>
      </trkpt>
      <trkpt lat="46.07382" lon="6.28878">
        <ele>632.68</ele>
        <time>2020-05-09T08:26:19Z</time>
      </trkpt>
      <trkpt lat="46.07399" lon="6.28893">
        <ele>631.72</ele>
        <time>2020-05-09T08:26:20Z</time>
      </trkpt>
      <trkpt lat="46.07415" lon="6.28911">
        <ele>630.76</ele>
        <time>2020-05-09T08:26:21Z</time>
      </trkpt>
      <trkpt lat="46.07428" lon="6.28932">
        <ele>629.8</ele>
        <time>2020-05-09T08:26:22Z</time>
      </trkpt>
      <trkpt lat="46.07441" lon="6.28953">
        <ele>628.84</ele>
        <time>2020-05-09T08:26:23Z</time>
      </trkpt>
      <trkpt lat="46.07453" lon="6.28975">
        <ele>627.88</ele>
        <time>2020-05-09T08:26:24Z</time>
      </trkpt>
      <trkpt lat="46.07464" lon="6.28999">
        <ele>627.4</ele>
        <time>2020-05-09T08:26:25Z</time>
      </trkpt>
      <trkpt lat="46.07472" lon="6.29025">
        <ele>626.92</ele>
        <time>2020-05-09T08:26:26Z</time>
      </trkpt>
      <trkpt lat="46.07477" lon="6.29051">
        <ele>625.96</ele>
        <time>2020-05-09T08:26:27Z</time>
      </trkpt>
      <trkpt lat="46.07508" lon="6.29171">
        <ele>621.63</ele>
        <time>2020-05-09T08:26:32Z</time>
      </trkpt>
      <trkpt lat="46.07516" lon="6.29189">
        <ele>621.15</ele>
        <time>2020-05-09T08:26:33Z</time>
      </trkpt>
      <trkpt lat="46.07519" lon="6.29215">
        <ele>620.19</ele>
        <time>2020-05-09T08:26:34Z</time>
      </trkpt>
      <trkpt lat="46.07513" lon="6.29235">
        <ele>619.71</ele>
        <time>2020-05-09T08:26:35Z</time>
      </trkpt>
      <trkpt lat="46.07505" lon="6.29257">
        <ele>619.23</ele>
        <time>2020-05-09T08:26:36Z</time>
      </trkpt>
      <trkpt lat="46.07497" lon="6.29283">
        <ele>618.26</ele>
        <time>2020-05-09T08:26:37Z</time>
      </trkpt>
      <trkpt lat="46.07451" lon="6.29396">
        <ele>614.9</ele>
        <time>2020-05-09T08:26:41Z</time>
      </trkpt>
      <trkpt lat="46.07435" lon="6.29423">
        <ele>613.94</ele>
        <time>2020-05-09T08:26:42Z</time>
      </trkpt>
      <trkpt lat="46.07291" lon="6.29634">
        <ele>607.21</ele>
        <time>2020-05-09T08:26:51Z</time>
      </trkpt>
      <trkpt lat="46.07234" lon="6.29703">
        <ele>604.33</ele>
        <time>2020-05-09T08:26:55Z</time>
      </trkpt>
      <trkpt lat="46.07148" lon="6.29802">
        <ele>599.04</ele>
        <time>2020-05-09T08:27:02Z</time>
      </trkpt>
      <trkpt lat="46.07093" lon="6.29947">
        <ele>590.87</ele>
        <time>2020-05-09T08:27:11Z</time>
      </trkpt>
      <trkpt lat="46.07089" lon="6.29963">
        <ele>590.39</ele>
        <time>2020-05-09T08:27:12Z</time>
      </trkpt>
      <trkpt lat="46.07086" lon="6.29978">
        <ele>589.91</ele>
        <time>2020-05-09T08:27:13Z</time>
      </trkpt>
      <trkpt lat="46.07074" lon="6.30048">
        <ele>588.95</ele>
        <time>2020-05-09T08:27:18Z</time>
      </trkpt>
      <trkpt lat="46.07078" lon="6.30057">
        <ele>589.43</ele>
        <time>2020-05-09T08:27:19Z</time>
      </trkpt>
      <trkpt lat="46.07085" lon="6.30072">
        <ele>589.43</ele>
        <time>2020-05-09T08:27:20Z</time>
      </trkpt>
      <trkpt lat="46.07084" lon="6.30084">
        <ele>589.91</ele>
        <time>2020-05-09T08:27:21Z</time>
      </trkpt>
      <trkpt lat="46.07082" lon="6.30098">
        <ele>589.91</ele>
        <time>2020-05-09T08:27:22Z</time>
      </trkpt>
      <trkpt lat="46.07076" lon="6.3011">
        <ele>590.87</ele>
        <time>2020-05-09T08:27:23Z</time>
      </trkpt>
      <trkpt lat="46.07071" lon="6.30123">
        <ele>591.35</ele>
        <time>2020-05-09T08:27:24Z</time>
      </trkpt>
      <trkpt lat="46.07064" lon="6.30137">
        <ele>591.35</ele>
        <time>2020-05-09T08:27:25Z</time>
      </trkpt>
      <trkpt lat="46.07058" lon="6.30152">
        <ele>591.83</ele>
        <time>2020-05-09T08:27:26Z</time>
      </trkpt>
      <trkpt lat="46.07055" lon="6.30169">
        <ele>591.83</ele>
        <time>2020-05-09T08:27:27Z</time>
      </trkpt>
      <trkpt lat="46.07046" lon="6.30211">
        <ele>590.87</ele>
        <time>2020-05-09T08:27:30Z</time>
      </trkpt>
      <trkpt lat="46.07044" lon="6.30223">
        <ele>590.39</ele>
        <time>2020-05-09T08:27:31Z</time>
      </trkpt>
      <trkpt lat="46.07033" lon="6.30229">
        <ele>590.39</ele>
        <time>2020-05-09T08:27:32Z</time>
      </trkpt>
      <trkpt lat="46.07031" lon="6.30237">
        <ele>589.91</ele>
        <time>2020-05-09T08:27:33Z</time>
      </trkpt>
      <trkpt lat="46.07037" lon="6.3025">
        <ele>589.43</ele>
        <time>2020-05-09T08:27:34Z</time>
      </trkpt>
      <trkpt lat="46.07035" lon="6.30264">
        <ele>588.95</ele>
        <time>2020-05-09T08:27:35Z</time>
      </trkpt>
      <trkpt lat="46.07032" lon="6.3028">
        <ele>587.98</ele>
        <time>2020-05-09T08:27:36Z</time>
      </trkpt>
      <trkpt lat="46.0703" lon="6.30297">
        <ele>587.02</ele>
        <time>2020-05-09T08:27:37Z</time>
      </trkpt>
      <trkpt lat="46.07027" lon="6.30315">
        <ele>585.58</ele>
        <time>2020-05-09T08:27:38Z</time>
      </trkpt>
      <trkpt lat="46.07024" lon="6.30334">
        <ele>584.62</ele>
        <time>2020-05-09T08:27:39Z</time>
      </trkpt>
      <trkpt lat="46.07005" lon="6.30452">
        <ele>575.97</ele>
        <time>2020-05-09T08:27:47Z</time>
      </trkpt>
      <trkpt lat="46.06995" lon="6.30504">
        <ele>572.12</ele>
        <time>2020-05-09T08:27:51Z</time>
      </trkpt>
      <trkpt lat="46.06988" lon="6.30528">
        <ele>570.68</ele>
        <time>2020-05-09T08:27:53Z</time>
      </trkpt>
      <trkpt lat="46.06987" lon="6.30549">
        <ele>569.72</ele>
        <time>2020-05-09T08:27:55Z</time>
      </trkpt>
      <trkpt lat="46.06984" lon="6.30559">
        <ele>569.72</ele>
        <time>2020-05-09T08:27:56Z</time>
      </trkpt>
      <trkpt lat="46.06982" lon="6.30571">
        <ele>569.72</ele>
        <time>2020-05-09T08:27:57Z</time>
      </trkpt>
      <trkpt lat="46.0698" lon="6.30583">
        <ele>569.72</ele>
        <time>2020-05-09T08:27:58Z</time>
      </trkpt>
      <trkpt lat="46.06977" lon="6.30598">
        <ele>569.24</ele>
        <time>2020-05-09T08:27:59Z</time>
      </trkpt>
      <trkpt lat="46.06961" lon="6.30679">
        <ele>566.35</ele>
        <time>2020-05-09T08:28:05Z</time>
      </trkpt>
      <trkpt lat="46.06959" lon="6.30692">
        <ele>565.87</ele>
        <time>2020-05-09T08:28:06Z</time>
      </trkpt>
      <trkpt lat="46.06947" lon="6.30728">
        <ele>564.91</ele>
        <time>2020-05-09T08:28:09Z</time>
      </trkpt>
      <trkpt lat="46.0693" lon="6.30768">
        <ele>564.91</ele>
        <time>2020-05-09T08:28:14Z</time>
      </trkpt>
      <trkpt lat="46.06927" lon="6.30773">
        <ele>564.91</ele>
        <time>2020-05-09T08:28:15Z</time>
      </trkpt>
      <trkpt lat="46.06912" lon="6.308">
        <ele>564.91</ele>
        <time>2020-05-09T08:28:18Z</time>
      </trkpt>
      <trkpt lat="46.06895" lon="6.30821">
        <ele>565.39</ele>
        <time>2020-05-09T08:28:20Z</time>
      </trkpt>
      <trkpt lat="46.06887" lon="6.30831">
        <ele>565.39</ele>
        <time>2020-05-09T08:28:21Z</time>
      </trkpt>
      <trkpt lat="46.06871" lon="6.30852">
        <ele>565.87</ele>
        <time>2020-05-09T08:28:23Z</time>
      </trkpt>
      <trkpt lat="46.06838" lon="6.30894">
        <ele>565.39</ele>
        <time>2020-05-09T08:28:27Z</time>
      </trkpt>
      <trkpt lat="46.06826" lon="6.30911">
        <ele>564.91</ele>
        <time>2020-05-09T08:28:29Z</time>
      </trkpt>
      <trkpt lat="46.06821" lon="6.30917">
        <ele>564.91</ele>
        <time>2020-05-09T08:28:30Z</time>
      </trkpt>
      <trkpt lat="46.06817" lon="6.30922">
        <ele>564.91</ele>
        <time>2020-05-09T08:28:31Z</time>
      </trkpt>
      <trkpt lat="46.06814" lon="6.30929">
        <ele>564.43</ele>
        <time>2020-05-09T08:28:32Z</time>
      </trkpt>
      <trkpt lat="46.06813" lon="6.30932">
        <ele>564.43</ele>
        <time>2020-05-09T08:28:33Z</time>
      </trkpt>
      <trkpt lat="46.06811" lon="6.30937">
        <ele>564.43</ele>
        <time>2020-05-09T08:28:34Z</time>
      </trkpt>
      <trkpt lat="46.0681" lon="6.30941">
        <ele>564.43</ele>
        <time>2020-05-09T08:28:35Z</time>
      </trkpt>
      <trkpt lat="46.06809" lon="6.30944">
        <ele>563.95</ele>
        <time>2020-05-09T08:28:36Z</time>
      </trkpt>
      <trkpt lat="46.06809" lon="6.30944">
        <ele>563.95</ele>
        <time>2020-05-09T08:28:47Z</time>
      </trkpt>
      <trkpt lat="46.0675" lon="6.30801">
        <ele>568.28</ele>
        <time>2020-05-09T10:41:49Z</time>
      </trkpt>
      <trkpt lat="46.06758" lon="6.30798">
        <ele>571.64</ele>
        <time>2020-05-09T10:41:52Z</time>
      </trkpt>
      <trkpt lat="46.06758" lon="6.30798">
        <ele>570.68</ele>
        <time>2020-05-09T10:41:53Z</time>
      </trkpt>
      <trkpt lat="46.06776" lon="6.30784">
        <ele>569.72</ele>
        <time>2020-05-09T10:41:54Z</time>
      </trkpt>
      <trkpt lat="46.06784" lon="6.30778">
        <ele>569.24</ele>
        <time>2020-05-09T10:41:55Z</time>
      </trkpt>
      <trkpt lat="46.06788" lon="6.30774">
        <ele>569.72</ele>
        <time>2020-05-09T10:41:56Z</time>
      </trkpt>
      <trkpt lat="46.06791" lon="6.30772">
        <ele>569.24</ele>
        <time>2020-05-09T10:41:57Z</time>
      </trkpt>
      <trkpt lat="46.06799" lon="6.30764">
        <ele>568.76</ele>
        <time>2020-05-09T10:41:59Z</time>
      </trkpt>
      <trkpt lat="46.06798" lon="6.3076">
        <ele>568.76</ele>
        <time>2020-05-09T10:42:00Z</time>
      </trkpt>
      <trkpt lat="46.06796" lon="6.30749">
        <ele>568.76</ele>
        <time>2020-05-09T10:42:01Z</time>
      </trkpt>
      <trkpt lat="46.06793" lon="6.30735">
        <ele>568.28</ele>
        <time>2020-05-09T10:42:02Z</time>
      </trkpt>
      <trkpt lat="46.06789" lon="6.30718">
        <ele>568.76</ele>
        <time>2020-05-09T10:42:03Z</time>
      </trkpt>
      <trkpt lat="46.06786" lon="6.30705">
        <ele>568.76</ele>
        <time>2020-05-09T10:42:04Z</time>
      </trkpt>
      <trkpt lat="46.06785" lon="6.30682">
        <ele>569.24</ele>
        <time>2020-05-09T10:42:05Z</time>
      </trkpt>
      <trkpt lat="46.06784" lon="6.30662">
        <ele>569.72</ele>
        <time>2020-05-09T10:42:06Z</time>
      </trkpt>
      <trkpt lat="46.06783" lon="6.30643">
        <ele>570.68</ele>
        <time>2020-05-09T10:42:07Z</time>
      </trkpt>
      <trkpt lat="46.06782" lon="6.30624">
        <ele>572.12</ele>
        <time>2020-05-09T10:42:08Z</time>
      </trkpt>
      <trkpt lat="46.06785" lon="6.30605">
        <ele>573.56</ele>
        <time>2020-05-09T10:42:09Z</time>
      </trkpt>
      <trkpt lat="46.06788" lon="6.30588">
        <ele>574.04</ele>
        <time>2020-05-09T10:42:10Z</time>
      </trkpt>
      <trkpt lat="46.06792" lon="6.30571">
        <ele>574.53</ele>
        <time>2020-05-09T10:42:11Z</time>
      </trkpt>
      <trkpt lat="46.06797" lon="6.30555">
        <ele>575.01</ele>
        <time>2020-05-09T10:42:12Z</time>
      </trkpt>
      <trkpt lat="46.06802" lon="6.3054">
        <ele>575.01</ele>
        <time>2020-05-09T10:42:13Z</time>
      </trkpt>
      <trkpt lat="46.06807" lon="6.30526">
        <ele>575.49</ele>
        <time>2020-05-09T10:42:14Z</time>
      </trkpt>
      <trkpt lat="46.06812" lon="6.30514">
        <ele>575.97</ele>
        <time>2020-05-09T10:42:15Z</time>
      </trkpt>
      <trkpt lat="46.06815" lon="6.30503">
        <ele>576.45</ele>
        <time>2020-05-09T10:42:16Z</time>
      </trkpt>
      <trkpt lat="46.06831" lon="6.3046">
        <ele>579.81</ele>
        <time>2020-05-09T10:42:21Z</time>
      </trkpt>
      <trkpt lat="46.06834" lon="6.30451">
        <ele>580.77</ele>
        <time>2020-05-09T10:42:22Z</time>
      </trkpt>
      <trkpt lat="46.06838" lon="6.30439">
        <ele>580.77</ele>
        <time>2020-05-09T10:42:23Z</time>
      </trkpt>
      <trkpt lat="46.06843" lon="6.30424">
        <ele>581.25</ele>
        <time>2020-05-09T10:42:24Z</time>
      </trkpt>
      <trkpt lat="46.06849" lon="6.30408">
        <ele>581.25</ele>
        <time>2020-05-09T10:42:25Z</time>
      </trkpt>
      <trkpt lat="46.06854" lon="6.30392">
        <ele>581.73</ele>
        <time>2020-05-09T10:42:26Z</time>
      </trkpt>
      <trkpt lat="46.06857" lon="6.30377">
        <ele>582.22</ele>
        <time>2020-05-09T10:42:27Z</time>
      </trkpt>
      <trkpt lat="46.06858" lon="6.30362">
        <ele>582.22</ele>
        <time>2020-05-09T10:42:28Z</time>
      </trkpt>
      <trkpt lat="46.06861" lon="6.30285">
        <ele>585.58</ele>
        <time>2020-05-09T10:42:33Z</time>
      </trkpt>
      <trkpt lat="46.06861" lon="6.30264">
        <ele>586.06</ele>
        <time>2020-05-09T10:42:35Z</time>
      </trkpt>
      <trkpt lat="46.06863" lon="6.30254">
        <ele>586.54</ele>
        <time>2020-05-09T10:42:36Z</time>
      </trkpt>
      <trkpt lat="46.06864" lon="6.30247">
        <ele>587.02</ele>
        <time>2020-05-09T10:42:37Z</time>
      </trkpt>
      <trkpt lat="46.06868" lon="6.30238">
        <ele>587.5</ele>
        <time>2020-05-09T10:42:38Z</time>
      </trkpt>
      <trkpt lat="46.06885" lon="6.30233">
        <ele>587.5</ele>
        <time>2020-05-09T10:42:39Z</time>
      </trkpt>
      <trkpt lat="46.06889" lon="6.30231">
        <ele>587.98</ele>
        <time>2020-05-09T10:42:40Z</time>
      </trkpt>
      <trkpt lat="46.069" lon="6.30225">
        <ele>588.46</ele>
        <time>2020-05-09T10:42:41Z</time>
      </trkpt>
      <trkpt lat="46.06954" lon="6.30192">
        <ele>589.43</ele>
        <time>2020-05-09T10:42:45Z</time>
      </trkpt>
      <trkpt lat="46.0704" lon="6.30082">
        <ele>592.79</ele>
        <time>2020-05-09T10:42:53Z</time>
      </trkpt>
      <trkpt lat="46.07052" lon="6.30065">
        <ele>594.71</ele>
        <time>2020-05-09T10:42:55Z</time>
      </trkpt>
      <trkpt lat="46.07058" lon="6.30059">
        <ele>595.19</ele>
        <time>2020-05-09T10:42:56Z</time>
      </trkpt>
      <trkpt lat="46.07062" lon="6.30056">
        <ele>595.67</ele>
        <time>2020-05-09T10:42:57Z</time>
      </trkpt>
      <trkpt lat="46.07078" lon="6.30057">
        <ele>595.67</ele>
        <time>2020-05-09T10:42:58Z</time>
      </trkpt>
      <trkpt lat="46.07078" lon="6.30057">
        <ele>596.15</ele>
        <time>2020-05-09T10:42:59Z</time>
      </trkpt>
      <trkpt lat="46.07087" lon="6.3006">
        <ele>596.64</ele>
        <time>2020-05-09T10:43:00Z</time>
      </trkpt>
      <trkpt lat="46.07093" lon="6.30054">
        <ele>596.64</ele>
        <time>2020-05-09T10:43:01Z</time>
      </trkpt>
      <trkpt lat="46.07099" lon="6.30039">
        <ele>596.64</ele>
        <time>2020-05-09T10:43:02Z</time>
      </trkpt>
      <trkpt lat="46.0711" lon="6.3003">
        <ele>597.12</ele>
        <time>2020-05-09T10:43:03Z</time>
      </trkpt>
      <trkpt lat="46.07123" lon="6.30019">
        <ele>597.12</ele>
        <time>2020-05-09T10:43:04Z</time>
      </trkpt>
      <trkpt lat="46.07251" lon="6.29914">
        <ele>597.12</ele>
        <time>2020-05-09T10:43:13Z</time>
      </trkpt>
      <trkpt lat="46.07312" lon="6.29866">
        <ele>598.56</ele>
        <time>2020-05-09T10:43:19Z</time>
      </trkpt>
      <trkpt lat="46.07363" lon="6.29826">
        <ele>599.52</ele>
        <time>2020-05-09T10:43:26Z</time>
      </trkpt>
      <trkpt lat="46.07474" lon="6.29754">
        <ele>600</ele>
        <time>2020-05-09T10:43:33Z</time>
      </trkpt>
      <trkpt lat="46.07492" lon="6.29745">
        <ele>600</ele>
        <time>2020-05-09T10:43:34Z</time>
      </trkpt>
      <trkpt lat="46.0751" lon="6.29737">
        <ele>600.96</ele>
        <time>2020-05-09T10:43:35Z</time>
      </trkpt>
      <trkpt lat="46.07527" lon="6.29736">
        <ele>601.92</ele>
        <time>2020-05-09T10:43:36Z</time>
      </trkpt>
      <trkpt lat="46.07545" lon="6.29737">
        <ele>602.88</ele>
        <time>2020-05-09T10:43:37Z</time>
      </trkpt>
      <trkpt lat="46.07563" lon="6.29737">
        <ele>603.85</ele>
        <time>2020-05-09T10:43:38Z</time>
      </trkpt>
      <trkpt lat="46.0758" lon="6.29743">
        <ele>604.81</ele>
        <time>2020-05-09T10:43:39Z</time>
      </trkpt>
      <trkpt lat="46.07597" lon="6.29751">
        <ele>605.29</ele>
        <time>2020-05-09T10:43:40Z</time>
      </trkpt>
      <trkpt lat="46.07615" lon="6.29759">
        <ele>605.77</ele>
        <time>2020-05-09T10:43:41Z</time>
      </trkpt>
      <trkpt lat="46.07633" lon="6.29761">
        <ele>605.29</ele>
        <time>2020-05-09T10:43:42Z</time>
      </trkpt>
      <trkpt lat="46.07651" lon="6.29761">
        <ele>604.81</ele>
        <time>2020-05-09T10:43:43Z</time>
      </trkpt>
      <trkpt lat="46.0767" lon="6.29758">
        <ele>604.33</ele>
        <time>2020-05-09T10:43:44Z</time>
      </trkpt>
      <trkpt lat="46.07686" lon="6.29747">
        <ele>603.36</ele>
        <time>2020-05-09T10:43:45Z</time>
      </trkpt>
      <trkpt lat="46.07704" lon="6.29735">
        <ele>602.88</ele>
        <time>2020-05-09T10:43:46Z</time>
      </trkpt>
      <trkpt lat="46.07722" lon="6.29724">
        <ele>601.92</ele>
        <time>2020-05-09T10:43:47Z</time>
      </trkpt>
      <trkpt lat="46.0774" lon="6.29713">
        <ele>600.96</ele>
        <time>2020-05-09T10:43:48Z</time>
      </trkpt>
      <trkpt lat="46.07757" lon="6.297">
        <ele>600.48</ele>
        <time>2020-05-09T10:43:49Z</time>
      </trkpt>
      <trkpt lat="46.07797" lon="6.29668">
        <ele>600</ele>
        <time>2020-05-09T10:43:52Z</time>
      </trkpt>
      <trkpt lat="46.07806" lon="6.29657">
        <ele>599.52</ele>
        <time>2020-05-09T10:43:53Z</time>
      </trkpt>
      <trkpt lat="46.07813" lon="6.29648">
        <ele>599.04</ele>
        <time>2020-05-09T10:43:54Z</time>
      </trkpt>
      <trkpt lat="46.07818" lon="6.29639">
        <ele>598.56</ele>
        <time>2020-05-09T10:43:55Z</time>
      </trkpt>
      <trkpt lat="46.07821" lon="6.29632">
        <ele>597.6</ele>
        <time>2020-05-09T10:43:56Z</time>
      </trkpt>
      <trkpt lat="46.07816" lon="6.29622">
        <ele>597.12</ele>
        <time>2020-05-09T10:43:57Z</time>
      </trkpt>
      <trkpt lat="46.0781" lon="6.29618">
        <ele>596.64</ele>
        <time>2020-05-09T10:43:58Z</time>
      </trkpt>
      <trkpt lat="46.07802" lon="6.29618">
        <ele>596.64</ele>
        <time>2020-05-09T10:43:59Z</time>
      </trkpt>
      <trkpt lat="46.07794" lon="6.29623">
        <ele>596.15</ele>
        <time>2020-05-09T10:44:00Z</time>
      </trkpt>
      <trkpt lat="46.07784" lon="6.2963">
        <ele>595.19</ele>
        <time>2020-05-09T10:44:01Z</time>
      </trkpt>
      <trkpt lat="46.07774" lon="6.29638">
        <ele>595.67</ele>
        <time>2020-05-09T10:44:02Z</time>
      </trkpt>
      <trkpt lat="46.07764" lon="6.29646">
        <ele>595.67</ele>
        <time>2020-05-09T10:44:03Z</time>
      </trkpt>
      <trkpt lat="46.07756" lon="6.29652">
        <ele>595.67</ele>
        <time>2020-05-09T10:44:04Z</time>
      </trkpt>
      <trkpt lat="46.07744" lon="6.29646">
        <ele>595.19</ele>
        <time>2020-05-09T10:44:05Z</time>
      </trkpt>
      <trkpt lat="46.07736" lon="6.29641">
        <ele>595.19</ele>
        <time>2020-05-09T10:44:06Z</time>
      </trkpt>
      <trkpt lat="46.07722" lon="6.29635">
        <ele>595.19</ele>
        <time>2020-05-09T10:44:07Z</time>
      </trkpt>
      <trkpt lat="46.07717" lon="6.2962">
        <ele>594.23</ele>
        <time>2020-05-09T10:44:08Z</time>
      </trkpt>
      <trkpt lat="46.07711" lon="6.29602">
        <ele>593.75</ele>
        <time>2020-05-09T10:44:09Z</time>
      </trkpt>
      <trkpt lat="46.07704" lon="6.29581">
        <ele>593.27</ele>
        <time>2020-05-09T10:44:10Z</time>
      </trkpt>
      <trkpt lat="46.0765" lon="6.2943">
        <ele>597.6</ele>
        <time>2020-05-09T10:44:15Z</time>
      </trkpt>
      <trkpt lat="46.07607" lon="6.29327">
        <ele>603.36</ele>
        <time>2020-05-09T10:44:18Z</time>
      </trkpt>
      <trkpt lat="46.07588" lon="6.29297">
        <ele>605.29</ele>
        <time>2020-05-09T10:44:19Z</time>
      </trkpt>
      <trkpt lat="46.07519" lon="6.29172">
        <ele>613.94</ele>
        <time>2020-05-09T10:44:23Z</time>
      </trkpt>
      <trkpt lat="46.07505" lon="6.29141">
        <ele>615.86</ele>
        <time>2020-05-09T10:44:24Z</time>
      </trkpt>
      <trkpt lat="46.07492" lon="6.29107">
        <ele>617.78</ele>
        <time>2020-05-09T10:44:25Z</time>
      </trkpt>
      <trkpt lat="46.07483" lon="6.29072">
        <ele>619.23</ele>
        <time>2020-05-09T10:44:26Z</time>
      </trkpt>
      <trkpt lat="46.07475" lon="6.29038">
        <ele>621.15</ele>
        <time>2020-05-09T10:44:27Z</time>
      </trkpt>
      <trkpt lat="46.07466" lon="6.29005">
        <ele>622.59</ele>
        <time>2020-05-09T10:44:28Z</time>
      </trkpt>
      <trkpt lat="46.07453" lon="6.28975">
        <ele>624.51</ele>
        <time>2020-05-09T10:44:29Z</time>
      </trkpt>
      <trkpt lat="46.07439" lon="6.28949">
        <ele>625.47</ele>
        <time>2020-05-09T10:44:30Z</time>
      </trkpt>
      <trkpt lat="46.07423" lon="6.28924">
        <ele>626.92</ele>
        <time>2020-05-09T10:44:31Z</time>
      </trkpt>
      <trkpt lat="46.07405" lon="6.289">
        <ele>628.36</ele>
        <time>2020-05-09T10:44:32Z</time>
      </trkpt>
      <trkpt lat="46.07386" lon="6.2888">
        <ele>629.32</ele>
        <time>2020-05-09T10:44:33Z</time>
      </trkpt>
      <trkpt lat="46.07364" lon="6.28865">
        <ele>630.76</ele>
        <time>2020-05-09T10:44:34Z</time>
      </trkpt>
      <trkpt lat="46.07341" lon="6.28853">
        <ele>631.72</ele>
        <time>2020-05-09T10:44:35Z</time>
      </trkpt>
      <trkpt lat="46.07317" lon="6.28842">
        <ele>633.17</ele>
        <time>2020-05-09T10:44:36Z</time>
      </trkpt>
      <trkpt lat="46.07293" lon="6.28836">
        <ele>634.61</ele>
        <time>2020-05-09T10:44:37Z</time>
      </trkpt>
      <trkpt lat="46.07268" lon="6.28832">
        <ele>635.57</ele>
        <time>2020-05-09T10:44:38Z</time>
      </trkpt>
      <trkpt lat="46.07243" lon="6.28828">
        <ele>636.53</ele>
        <time>2020-05-09T10:44:39Z</time>
      </trkpt>
      <trkpt lat="46.07219" lon="6.28826">
        <ele>637.49</ele>
        <time>2020-05-09T10:44:40Z</time>
      </trkpt>
      <trkpt lat="46.07033" lon="6.28801">
        <ele>647.59</ele>
        <time>2020-05-09T10:44:47Z</time>
      </trkpt>
      <trkpt lat="46.07007" lon="6.28787">
        <ele>648.55</ele>
        <time>2020-05-09T10:44:48Z</time>
      </trkpt>
      <trkpt lat="46.06983" lon="6.2877">
        <ele>649.51</ele>
        <time>2020-05-09T10:44:49Z</time>
      </trkpt>
      <trkpt lat="46.06839" lon="6.28682">
        <ele>656.72</ele>
        <time>2020-05-09T10:44:55Z</time>
      </trkpt>
      <trkpt lat="46.06815" lon="6.28676">
        <ele>657.68</ele>
        <time>2020-05-09T10:44:56Z</time>
      </trkpt>
      <trkpt lat="46.0679" lon="6.28672">
        <ele>659.12</ele>
        <time>2020-05-09T10:44:57Z</time>
      </trkpt>
      <trkpt lat="46.06766" lon="6.28677">
        <ele>660.56</ele>
        <time>2020-05-09T10:44:58Z</time>
      </trkpt>
      <trkpt lat="46.06742" lon="6.28681">
        <ele>661.52</ele>
        <time>2020-05-09T10:44:59Z</time>
      </trkpt>
      <trkpt lat="46.0672" lon="6.28689">
        <ele>662.97</ele>
        <time>2020-05-09T10:45:00Z</time>
      </trkpt>
      <trkpt lat="46.06698" lon="6.28702">
        <ele>663.93</ele>
        <time>2020-05-09T10:45:01Z</time>
      </trkpt>
      <trkpt lat="46.06676" lon="6.28716">
        <ele>665.37</ele>
        <time>2020-05-09T10:45:02Z</time>
      </trkpt>
      <trkpt lat="46.06518" lon="6.28811">
        <ele>675.46</ele>
        <time>2020-05-09T10:45:10Z</time>
      </trkpt>
      <trkpt lat="46.06475" lon="6.28827">
        <ele>679.31</ele>
        <time>2020-05-09T10:45:13Z</time>
      </trkpt>
      <trkpt lat="46.06463" lon="6.28831">
        <ele>680.27</ele>
        <time>2020-05-09T10:45:14Z</time>
      </trkpt>
      <trkpt lat="46.06452" lon="6.28819">
        <ele>681.23</ele>
        <time>2020-05-09T10:45:15Z</time>
      </trkpt>
      <trkpt lat="46.06442" lon="6.28816">
        <ele>682.19</ele>
        <time>2020-05-09T10:45:16Z</time>
      </trkpt>
      <trkpt lat="46.06432" lon="6.28822">
        <ele>683.15</ele>
        <time>2020-05-09T10:45:17Z</time>
      </trkpt>
      <trkpt lat="46.06428" lon="6.28826">
        <ele>683.63</ele>
        <time>2020-05-09T10:45:18Z</time>
      </trkpt>
      <trkpt lat="46.06412" lon="6.28839">
        <ele>684.12</ele>
        <time>2020-05-09T10:45:19Z</time>
      </trkpt>
      <trkpt lat="46.06399" lon="6.28842">
        <ele>685.08</ele>
        <time>2020-05-09T10:45:20Z</time>
      </trkpt>
      <trkpt lat="46.06383" lon="6.28845">
        <ele>686.04</ele>
        <time>2020-05-09T10:45:21Z</time>
      </trkpt>
      <trkpt lat="46.06365" lon="6.28849">
        <ele>687</ele>
        <time>2020-05-09T10:45:22Z</time>
      </trkpt>
      <trkpt lat="46.06244" lon="6.28883">
        <ele>691.81</ele>
        <time>2020-05-09T10:45:27Z</time>
      </trkpt>
      <trkpt lat="46.06061" lon="6.28945">
        <ele>699.02</ele>
        <time>2020-05-09T10:45:33Z</time>
      </trkpt>
      <trkpt lat="46.05825" lon="6.2901">
        <ele>711.51</ele>
        <time>2020-05-09T10:45:40Z</time>
      </trkpt>
      <trkpt lat="46.0579" lon="6.29005">
        <ele>713.44</ele>
        <time>2020-05-09T10:45:41Z</time>
      </trkpt>
      <trkpt lat="46.05757" lon="6.28996">
        <ele>714.88</ele>
        <time>2020-05-09T10:45:42Z</time>
      </trkpt>
      <trkpt lat="46.05725" lon="6.28982">
        <ele>716.8</ele>
        <time>2020-05-09T10:45:43Z</time>
      </trkpt>
      <trkpt lat="46.05696" lon="6.28962">
        <ele>718.72</ele>
        <time>2020-05-09T10:45:44Z</time>
      </trkpt>
      <trkpt lat="46.05667" lon="6.28938">
        <ele>720.16</ele>
        <time>2020-05-09T10:45:45Z</time>
      </trkpt>
      <trkpt lat="46.05642" lon="6.28906">
        <ele>722.09</ele>
        <time>2020-05-09T10:45:46Z</time>
      </trkpt>
      <trkpt lat="46.0562" lon="6.28871">
        <ele>724.01</ele>
        <time>2020-05-09T10:45:47Z</time>
      </trkpt>
      <trkpt lat="46.05601" lon="6.28833">
        <ele>725.45</ele>
        <time>2020-05-09T10:45:48Z</time>
      </trkpt>
      <trkpt lat="46.05583" lon="6.2879">
        <ele>727.37</ele>
        <time>2020-05-09T10:45:49Z</time>
      </trkpt>
      <trkpt lat="46.05565" lon="6.28745">
        <ele>729.3</ele>
        <time>2020-05-09T10:45:50Z</time>
      </trkpt>
      <trkpt lat="46.05454" lon="6.28422">
        <ele>737.95</ele>
        <time>2020-05-09T10:45:56Z</time>
      </trkpt>
      <trkpt lat="46.05312" lon="6.28018">
        <ele>747.56</ele>
        <time>2020-05-09T10:46:03Z</time>
      </trkpt>
      <trkpt lat="46.05164" lon="6.27558">
        <ele>754.77</ele>
        <time>2020-05-09T10:46:11Z</time>
      </trkpt>
      <trkpt lat="46.05132" lon="6.27355">
        <ele>759.1</ele>
        <time>2020-05-09T10:46:15Z</time>
      </trkpt>
      <trkpt lat="46.05129" lon="6.27074">
        <ele>767.27</ele>
        <time>2020-05-09T10:46:21Z</time>
      </trkpt>
      <trkpt lat="46.05148" lon="6.2684">
        <ele>771.6</ele>
        <time>2020-05-09T10:46:26Z</time>
      </trkpt>
      <trkpt lat="46.05147" lon="6.26798">
        <ele>772.08</ele>
        <time>2020-05-09T10:46:27Z</time>
      </trkpt>
      <trkpt lat="46.05142" lon="6.26755">
        <ele>772.56</ele>
        <time>2020-05-09T10:46:28Z</time>
      </trkpt>
      <trkpt lat="46.05134" lon="6.26715">
        <ele>773.52</ele>
        <time>2020-05-09T10:46:29Z</time>
      </trkpt>
      <trkpt lat="46.05124" lon="6.26675">
        <ele>774</ele>
        <time>2020-05-09T10:46:30Z</time>
      </trkpt>
      <trkpt lat="46.05111" lon="6.26637">
        <ele>774.48</ele>
        <time>2020-05-09T10:46:31Z</time>
      </trkpt>
      <trkpt lat="46.05095" lon="6.26602">
        <ele>775.92</ele>
        <time>2020-05-09T10:46:32Z</time>
      </trkpt>
      <trkpt lat="46.05076" lon="6.26568">
        <ele>777.36</ele>
        <time>2020-05-09T10:46:33Z</time>
      </trkpt>
      <trkpt lat="46.05055" lon="6.26538">
        <ele>778.32</ele>
        <time>2020-05-09T10:46:34Z</time>
      </trkpt>
      <trkpt lat="46.05027" lon="6.26511">
        <ele>779.77</ele>
        <time>2020-05-09T10:46:35Z</time>
      </trkpt>
      <trkpt lat="46.05" lon="6.26484">
        <ele>781.21</ele>
        <time>2020-05-09T10:46:36Z</time>
      </trkpt>
      <trkpt lat="46.0497" lon="6.26461">
        <ele>782.65</ele>
        <time>2020-05-09T10:46:37Z</time>
      </trkpt>
      <trkpt lat="46.04914" lon="6.26413">
        <ele>786.02</ele>
        <time>2020-05-09T10:46:39Z</time>
      </trkpt>
      <trkpt lat="46.04891" lon="6.26385">
        <ele>787.46</ele>
        <time>2020-05-09T10:46:40Z</time>
      </trkpt>
      <trkpt lat="46.04867" lon="6.26357">
        <ele>789.38</ele>
        <time>2020-05-09T10:46:41Z</time>
      </trkpt>
      <trkpt lat="46.04848" lon="6.26322">
        <ele>790.82</ele>
        <time>2020-05-09T10:46:42Z</time>
      </trkpt>
      <trkpt lat="46.04828" lon="6.26287">
        <ele>792.74</ele>
        <time>2020-05-09T10:46:43Z</time>
      </trkpt>
      <trkpt lat="46.04809" lon="6.2625">
        <ele>794.67</ele>
        <time>2020-05-09T10:46:44Z</time>
      </trkpt>
      <trkpt lat="46.04732" lon="6.26086">
        <ele>801.88</ele>
        <time>2020-05-09T10:46:49Z</time>
      </trkpt>
      <trkpt lat="46.04629" lon="6.25875">
        <ele>807.16</ele>
        <time>2020-05-09T10:46:58Z</time>
      </trkpt>
      <trkpt lat="46.04546" lon="6.25706">
        <ele>808.61</ele>
        <time>2020-05-09T10:47:04Z</time>
      </trkpt>
      <trkpt lat="46.04456" lon="6.25512">
        <ele>810.05</ele>
        <time>2020-05-09T10:47:09Z</time>
      </trkpt>
      <trkpt lat="46.04444" lon="6.25469">
        <ele>810.05</ele>
        <time>2020-05-09T10:47:10Z</time>
      </trkpt>
      <trkpt lat="46.04389" lon="6.25241">
        <ele>807.64</ele>
        <time>2020-05-09T10:47:15Z</time>
      </trkpt>
      <trkpt lat="46.04346" lon="6.25086">
        <ele>804.28</ele>
        <time>2020-05-09T10:47:19Z</time>
      </trkpt>
      <trkpt lat="46.04329" lon="6.25052">
        <ele>802.84</ele>
        <time>2020-05-09T10:47:20Z</time>
      </trkpt>
      <trkpt lat="46.04312" lon="6.25018">
        <ele>801.4</ele>
        <time>2020-05-09T10:47:21Z</time>
      </trkpt>
      <trkpt lat="46.04291" lon="6.24986">
        <ele>799.95</ele>
        <time>2020-05-09T10:47:22Z</time>
      </trkpt>
      <trkpt lat="46.04269" lon="6.24956">
        <ele>798.51</ele>
        <time>2020-05-09T10:47:23Z</time>
      </trkpt>
      <trkpt lat="46.04139" lon="6.24783">
        <ele>793.71</ele>
        <time>2020-05-09T10:47:29Z</time>
      </trkpt>
      <trkpt lat="46.04119" lon="6.2476">
        <ele>794.19</ele>
        <time>2020-05-09T10:47:30Z</time>
      </trkpt>
      <trkpt lat="46.04095" lon="6.24743">
        <ele>794.67</ele>
        <time>2020-05-09T10:47:31Z</time>
      </trkpt>
      <trkpt lat="46.04071" lon="6.24728">
        <ele>795.63</ele>
        <time>2020-05-09T10:47:32Z</time>
      </trkpt>
      <trkpt lat="46.04045" lon="6.24718">
        <ele>796.11</ele>
        <time>2020-05-09T10:47:33Z</time>
      </trkpt>
      <trkpt lat="46.04018" lon="6.24711">
        <ele>796.59</ele>
        <time>2020-05-09T10:47:34Z</time>
      </trkpt>
      <trkpt lat="46.03964" lon="6.2469">
        <ele>797.55</ele>
        <time>2020-05-09T10:47:36Z</time>
      </trkpt>
      <trkpt lat="46.03938" lon="6.24675">
        <ele>798.03</ele>
        <time>2020-05-09T10:47:37Z</time>
      </trkpt>
      <trkpt lat="46.03915" lon="6.24652">
        <ele>798.03</ele>
        <time>2020-05-09T10:47:38Z</time>
      </trkpt>
      <trkpt lat="46.03893" lon="6.24629">
        <ele>798.03</ele>
        <time>2020-05-09T10:47:39Z</time>
      </trkpt>
      <trkpt lat="46.03874" lon="6.246">
        <ele>798.03</ele>
        <time>2020-05-09T10:47:40Z</time>
      </trkpt>
      <trkpt lat="46.03857" lon="6.24568">
        <ele>797.55</ele>
        <time>2020-05-09T10:47:41Z</time>
      </trkpt>
      <trkpt lat="46.03843" lon="6.24533">
        <ele>797.07</ele>
        <time>2020-05-09T10:47:42Z</time>
      </trkpt>
      <trkpt lat="46.03833" lon="6.24493">
        <ele>796.11</ele>
        <time>2020-05-09T10:47:43Z</time>
      </trkpt>
      <trkpt lat="46.03824" lon="6.24452">
        <ele>795.15</ele>
        <time>2020-05-09T10:47:44Z</time>
      </trkpt>
      <trkpt lat="46.03814" lon="6.24409">
        <ele>793.22</ele>
        <time>2020-05-09T10:47:45Z</time>
      </trkpt>
      <trkpt lat="46.03768" lon="6.2423">
        <ele>784.57</ele>
        <time>2020-05-09T10:47:50Z</time>
      </trkpt>
      <trkpt lat="46.03755" lon="6.24202">
        <ele>783.13</ele>
        <time>2020-05-09T10:47:51Z</time>
      </trkpt>
      <trkpt lat="46.03739" lon="6.24177">
        <ele>781.69</ele>
        <time>2020-05-09T10:47:52Z</time>
      </trkpt>
      <trkpt lat="46.03723" lon="6.24153">
        <ele>779.77</ele>
        <time>2020-05-09T10:47:53Z</time>
      </trkpt>
      <trkpt lat="46.03706" lon="6.24129">
        <ele>778.32</ele>
        <time>2020-05-09T10:47:54Z</time>
      </trkpt>
      <trkpt lat="46.03688" lon="6.2411">
        <ele>776.88</ele>
        <time>2020-05-09T10:47:55Z</time>
      </trkpt>
      <trkpt lat="46.03669" lon="6.24092">
        <ele>774.96</ele>
        <time>2020-05-09T10:47:56Z</time>
      </trkpt>
      <trkpt lat="46.03649" lon="6.2408">
        <ele>773.52</ele>
        <time>2020-05-09T10:47:57Z</time>
      </trkpt>
      <trkpt lat="46.03628" lon="6.24074">
        <ele>772.08</ele>
        <time>2020-05-09T10:47:58Z</time>
      </trkpt>
      <trkpt lat="46.03607" lon="6.24072">
        <ele>770.63</ele>
        <time>2020-05-09T10:47:59Z</time>
      </trkpt>
      <trkpt lat="46.03586" lon="6.24073">
        <ele>769.19</ele>
        <time>2020-05-09T10:48:00Z</time>
      </trkpt>
      <trkpt lat="46.03566" lon="6.2408">
        <ele>767.75</ele>
        <time>2020-05-09T10:48:01Z</time>
      </trkpt>
      <trkpt lat="46.03547" lon="6.2409">
        <ele>766.31</ele>
        <time>2020-05-09T10:48:02Z</time>
      </trkpt>
      <trkpt lat="46.03529" lon="6.24105">
        <ele>764.87</ele>
        <time>2020-05-09T10:48:03Z</time>
      </trkpt>
      <trkpt lat="46.03516" lon="6.24126">
        <ele>763.42</ele>
        <time>2020-05-09T10:48:04Z</time>
      </trkpt>
      <trkpt lat="46.03503" lon="6.24148">
        <ele>762.46</ele>
        <time>2020-05-09T10:48:05Z</time>
      </trkpt>
      <trkpt lat="46.0349" lon="6.24171">
        <ele>761.02</ele>
        <time>2020-05-09T10:48:06Z</time>
      </trkpt>
      <trkpt lat="46.03463" lon="6.24212">
        <ele>759.1</ele>
        <time>2020-05-09T10:48:08Z</time>
      </trkpt>
      <trkpt lat="46.03451" lon="6.24231">
        <ele>758.14</ele>
        <time>2020-05-09T10:48:09Z</time>
      </trkpt>
      <trkpt lat="46.03435" lon="6.24244">
        <ele>756.69</ele>
        <time>2020-05-09T10:48:10Z</time>
      </trkpt>
      <trkpt lat="46.03418" lon="6.24254">
        <ele>755.73</ele>
        <time>2020-05-09T10:48:11Z</time>
      </trkpt>
      <trkpt lat="46.03399" lon="6.2426">
        <ele>753.81</ele>
        <time>2020-05-09T10:48:12Z</time>
      </trkpt>
      <trkpt lat="46.03381" lon="6.24262">
        <ele>752.85</ele>
        <time>2020-05-09T10:48:13Z</time>
      </trkpt>
      <trkpt lat="46.03362" lon="6.24258">
        <ele>751.89</ele>
        <time>2020-05-09T10:48:14Z</time>
      </trkpt>
      <trkpt lat="46.03345" lon="6.24249">
        <ele>750.93</ele>
        <time>2020-05-09T10:48:15Z</time>
      </trkpt>
      <trkpt lat="46.03328" lon="6.24235">
        <ele>749.97</ele>
        <time>2020-05-09T10:48:16Z</time>
      </trkpt>
      <trkpt lat="46.0331" lon="6.2422">
        <ele>749</ele>
        <time>2020-05-09T10:48:17Z</time>
      </trkpt>
      <trkpt lat="46.03291" lon="6.24199">
        <ele>748.52</ele>
        <time>2020-05-09T10:48:18Z</time>
      </trkpt>
      <trkpt lat="46.03274" lon="6.24173">
        <ele>748.04</ele>
        <time>2020-05-09T10:48:19Z</time>
      </trkpt>
      <trkpt lat="46.03256" lon="6.24144">
        <ele>747.08</ele>
        <time>2020-05-09T10:48:20Z</time>
      </trkpt>
      <trkpt lat="46.03156" lon="6.24022">
        <ele>744.2</ele>
        <time>2020-05-09T10:48:24Z</time>
      </trkpt>
      <trkpt lat="46.03035" lon="6.23888">
        <ele>740.83</ele>
        <time>2020-05-09T10:48:29Z</time>
      </trkpt>
      <trkpt lat="46.03009" lon="6.23874">
        <ele>740.83</ele>
        <time>2020-05-09T10:48:30Z</time>
      </trkpt>
      <trkpt lat="46.02846" lon="6.23796">
        <ele>737.95</ele>
        <time>2020-05-09T10:48:36Z</time>
      </trkpt>
      <trkpt lat="46.02612" lon="6.23752">
        <ele>729.3</ele>
        <time>2020-05-09T10:48:45Z</time>
      </trkpt>
      <trkpt lat="46.02588" lon="6.23742">
        <ele>728.34</ele>
        <time>2020-05-09T10:48:46Z</time>
      </trkpt>
      <trkpt lat="46.02564" lon="6.23731">
        <ele>726.89</ele>
        <time>2020-05-09T10:48:47Z</time>
      </trkpt>
      <trkpt lat="46.02542" lon="6.23714">
        <ele>725.93</ele>
        <time>2020-05-09T10:48:48Z</time>
      </trkpt>
      <trkpt lat="46.02522" lon="6.23693">
        <ele>724.49</ele>
        <time>2020-05-09T10:48:49Z</time>
      </trkpt>
      <trkpt lat="46.02504" lon="6.23669">
        <ele>723.05</ele>
        <time>2020-05-09T10:48:50Z</time>
      </trkpt>
      <trkpt lat="46.02487" lon="6.23641">
        <ele>722.09</ele>
        <time>2020-05-09T10:48:51Z</time>
      </trkpt>
      <trkpt lat="46.02469" lon="6.23612">
        <ele>721.13</ele>
        <time>2020-05-09T10:48:52Z</time>
      </trkpt>
      <trkpt lat="46.02456" lon="6.23583">
        <ele>720.16</ele>
        <time>2020-05-09T10:48:53Z</time>
      </trkpt>
      <trkpt lat="46.02443" lon="6.23554">
        <ele>719.2</ele>
        <time>2020-05-09T10:48:54Z</time>
      </trkpt>
      <trkpt lat="46.02416" lon="6.235">
        <ele>716.8</ele>
        <time>2020-05-09T10:48:56Z</time>
      </trkpt>
      <trkpt lat="46.024" lon="6.23476">
        <ele>716.32</ele>
        <time>2020-05-09T10:48:57Z</time>
      </trkpt>
      <trkpt lat="46.0238" lon="6.23459">
        <ele>715.36</ele>
        <time>2020-05-09T10:48:58Z</time>
      </trkpt>
      <trkpt lat="46.02362" lon="6.23442">
        <ele>714.4</ele>
        <time>2020-05-09T10:48:59Z</time>
      </trkpt>
      <trkpt lat="46.02343" lon="6.23425">
        <ele>713.44</ele>
        <time>2020-05-09T10:49:00Z</time>
      </trkpt>
      <trkpt lat="46.02291" lon="6.23378">
        <ele>709.11</ele>
        <time>2020-05-09T10:49:03Z</time>
      </trkpt>
      <trkpt lat="46.02278" lon="6.23357">
        <ele>707.19</ele>
        <time>2020-05-09T10:49:04Z</time>
      </trkpt>
      <trkpt lat="46.02266" lon="6.23336">
        <ele>705.75</ele>
        <time>2020-05-09T10:49:05Z</time>
      </trkpt>
      <trkpt lat="46.02256" lon="6.23314">
        <ele>704.78</ele>
        <time>2020-05-09T10:49:06Z</time>
      </trkpt>
      <trkpt lat="46.02245" lon="6.23292">
        <ele>703.82</ele>
        <time>2020-05-09T10:49:07Z</time>
      </trkpt>
      <trkpt lat="46.02139" lon="6.2309">
        <ele>700.46</ele>
        <time>2020-05-09T10:49:17Z</time>
      </trkpt>
      <trkpt lat="46.02124" lon="6.23068">
        <ele>699.98</ele>
        <time>2020-05-09T10:49:18Z</time>
      </trkpt>
      <trkpt lat="46.02107" lon="6.23047">
        <ele>699.98</ele>
        <time>2020-05-09T10:49:19Z</time>
      </trkpt>
      <trkpt lat="46.02088" lon="6.23024">
        <ele>699.5</ele>
        <time>2020-05-09T10:49:20Z</time>
      </trkpt>
      <trkpt lat="46.02072" lon="6.22996">
        <ele>699.02</ele>
        <time>2020-05-09T10:49:21Z</time>
      </trkpt>
      <trkpt lat="46.02059" lon="6.22964">
        <ele>698.53</ele>
        <time>2020-05-09T10:49:22Z</time>
      </trkpt>
      <trkpt lat="46.02047" lon="6.22928">
        <ele>698.53</ele>
        <time>2020-05-09T10:49:23Z</time>
      </trkpt>
      <trkpt lat="46.02039" lon="6.2289">
        <ele>698.05</ele>
        <time>2020-05-09T10:49:24Z</time>
      </trkpt>
      <trkpt lat="46.02033" lon="6.22849">
        <ele>697.57</ele>
        <time>2020-05-09T10:49:25Z</time>
      </trkpt>
      <trkpt lat="46.02026" lon="6.22807">
        <ele>697.09</ele>
        <time>2020-05-09T10:49:26Z</time>
      </trkpt>
      <trkpt lat="46.01965" lon="6.2239">
        <ele>690.84</ele>
        <time>2020-05-09T10:49:36Z</time>
      </trkpt>
      <trkpt lat="46.01884" lon="6.21975">
        <ele>683.15</ele>
        <time>2020-05-09T10:49:47Z</time>
      </trkpt>
      <trkpt lat="46.0179" lon="6.21725">
        <ele>679.79</ele>
        <time>2020-05-09T10:49:55Z</time>
      </trkpt>
      <trkpt lat="46.01706" lon="6.2153">
        <ele>677.87</ele>
        <time>2020-05-09T10:50:02Z</time>
      </trkpt>
      <trkpt lat="46.01691" lon="6.21505">
        <ele>677.87</ele>
        <time>2020-05-09T10:50:03Z</time>
      </trkpt>
      <trkpt lat="46.01674" lon="6.21482">
        <ele>677.39</ele>
        <time>2020-05-09T10:50:04Z</time>
      </trkpt>
      <trkpt lat="46.01656" lon="6.21461">
        <ele>677.39</ele>
        <time>2020-05-09T10:50:05Z</time>
      </trkpt>
      <trkpt lat="46.01637" lon="6.21442">
        <ele>677.39</ele>
        <time>2020-05-09T10:50:06Z</time>
      </trkpt>
      <trkpt lat="46.0142" lon="6.21221">
        <ele>672.1</ele>
        <time>2020-05-09T10:50:18Z</time>
      </trkpt>
      <trkpt lat="46.01392" lon="6.21173">
        <ele>670.18</ele>
        <time>2020-05-09T10:50:20Z</time>
      </trkpt>
      <trkpt lat="46.01267" lon="6.20999">
        <ele>664.41</ele>
        <time>2020-05-09T10:50:28Z</time>
      </trkpt>
      <trkpt lat="46.01083" lon="6.20777">
        <ele>660.08</ele>
        <time>2020-05-09T10:50:39Z</time>
      </trkpt>
      <trkpt lat="46.00942" lon="6.2061">
        <ele>656.72</ele>
        <time>2020-05-09T10:50:48Z</time>
      </trkpt>
      <trkpt lat="46.00868" lon="6.20493">
        <ele>655.76</ele>
        <time>2020-05-09T10:50:54Z</time>
      </trkpt>
      <trkpt lat="46.00859" lon="6.20469">
        <ele>655.28</ele>
        <time>2020-05-09T10:50:55Z</time>
      </trkpt>
      <trkpt lat="46.00852" lon="6.20442">
        <ele>654.8</ele>
        <time>2020-05-09T10:50:56Z</time>
      </trkpt>
      <trkpt lat="46.00767" lon="6.20126">
        <ele>649.51</ele>
        <time>2020-05-09T10:51:07Z</time>
      </trkpt>
      <trkpt lat="46.00687" lon="6.19768">
        <ele>637.49</ele>
        <time>2020-05-09T10:51:19Z</time>
      </trkpt>
      <trkpt lat="46.00611" lon="6.19571">
        <ele>629.8</ele>
        <time>2020-05-09T10:51:27Z</time>
      </trkpt>
      <trkpt lat="46.006" lon="6.1955">
        <ele>629.32</ele>
        <time>2020-05-09T10:51:28Z</time>
      </trkpt>
      <trkpt lat="46.00587" lon="6.19533">
        <ele>628.36</ele>
        <time>2020-05-09T10:51:29Z</time>
      </trkpt>
      <trkpt lat="46.00573" lon="6.19516">
        <ele>627.88</ele>
        <time>2020-05-09T10:51:30Z</time>
      </trkpt>
      <trkpt lat="46.00558" lon="6.19502">
        <ele>626.92</ele>
        <time>2020-05-09T10:51:31Z</time>
      </trkpt>
      <trkpt lat="46.00515" lon="6.19456">
        <ele>624.51</ele>
        <time>2020-05-09T10:51:34Z</time>
      </trkpt>
      <trkpt lat="46.00504" lon="6.19437">
        <ele>623.55</ele>
        <time>2020-05-09T10:51:35Z</time>
      </trkpt>
      <trkpt lat="46.00486" lon="6.19399">
        <ele>621.63</ele>
        <time>2020-05-09T10:51:37Z</time>
      </trkpt>
      <trkpt lat="46.0048" lon="6.1938">
        <ele>620.67</ele>
        <time>2020-05-09T10:51:38Z</time>
      </trkpt>
      <trkpt lat="46.0048" lon="6.19361">
        <ele>619.23</ele>
        <time>2020-05-09T10:51:39Z</time>
      </trkpt>
      <trkpt lat="46.00485" lon="6.19345">
        <ele>618.75</ele>
        <time>2020-05-09T10:51:40Z</time>
      </trkpt>
      <trkpt lat="46.00492" lon="6.1933">
        <ele>617.78</ele>
        <time>2020-05-09T10:51:41Z</time>
      </trkpt>
      <trkpt lat="46.00502" lon="6.19317">
        <ele>616.82</ele>
        <time>2020-05-09T10:51:42Z</time>
      </trkpt>
      <trkpt lat="46.00514" lon="6.1931">
        <ele>615.86</ele>
        <time>2020-05-09T10:51:43Z</time>
      </trkpt>
      <trkpt lat="46.00528" lon="6.19308">
        <ele>614.9</ele>
        <time>2020-05-09T10:51:44Z</time>
      </trkpt>
      <trkpt lat="46.00542" lon="6.19315">
        <ele>613.94</ele>
        <time>2020-05-09T10:51:45Z</time>
      </trkpt>
      <trkpt lat="46.00555" lon="6.19325">
        <ele>612.5</ele>
        <time>2020-05-09T10:51:46Z</time>
      </trkpt>
      <trkpt lat="46.00567" lon="6.19339">
        <ele>611.54</ele>
        <time>2020-05-09T10:51:47Z</time>
      </trkpt>
      <trkpt lat="46.00579" lon="6.19355">
        <ele>610.57</ele>
        <time>2020-05-09T10:51:48Z</time>
      </trkpt>
      <trkpt lat="46.0059" lon="6.19373">
        <ele>609.13</ele>
        <time>2020-05-09T10:51:49Z</time>
      </trkpt>
      <trkpt lat="46.00599" lon="6.19391">
        <ele>608.17</ele>
        <time>2020-05-09T10:51:50Z</time>
      </trkpt>
      <trkpt lat="46.00658" lon="6.19515">
        <ele>603.36</ele>
        <time>2020-05-09T10:51:57Z</time>
      </trkpt>
      <trkpt lat="46.00664" lon="6.19529">
        <ele>602.88</ele>
        <time>2020-05-09T10:51:58Z</time>
      </trkpt>
      <trkpt lat="46.00672" lon="6.19537">
        <ele>602.4</ele>
        <time>2020-05-09T10:51:59Z</time>
      </trkpt>
      <trkpt lat="46.00682" lon="6.19541">
        <ele>601.92</ele>
        <time>2020-05-09T10:52:00Z</time>
      </trkpt>
      <trkpt lat="46.00687" lon="6.19539">
        <ele>601.44</ele>
        <time>2020-05-09T10:52:01Z</time>
      </trkpt>
      <trkpt lat="46.00692" lon="6.1953">
        <ele>600.96</ele>
        <time>2020-05-09T10:52:02Z</time>
      </trkpt>
      <trkpt lat="46.00693" lon="6.19517">
        <ele>600.48</ele>
        <time>2020-05-09T10:52:03Z</time>
      </trkpt>
      <trkpt lat="46.00695" lon="6.19505">
        <ele>599.52</ele>
        <time>2020-05-09T10:52:04Z</time>
      </trkpt>
      <trkpt lat="46.00688" lon="6.19487">
        <ele>598.56</ele>
        <time>2020-05-09T10:52:05Z</time>
      </trkpt>
      <trkpt lat="46.00679" lon="6.19465">
        <ele>598.08</ele>
        <time>2020-05-09T10:52:06Z</time>
      </trkpt>
      <trkpt lat="46.00667" lon="6.19436">
        <ele>597.12</ele>
        <time>2020-05-09T10:52:07Z</time>
      </trkpt>
      <trkpt lat="46.00606" lon="6.19261">
        <ele>591.83</ele>
        <time>2020-05-09T10:52:11Z</time>
      </trkpt>
      <trkpt lat="46.00523" lon="6.19049">
        <ele>580.29</ele>
        <time>2020-05-09T10:52:16Z</time>
      </trkpt>
      <trkpt lat="46.00454" lon="6.18934">
        <ele>572.6</ele>
        <time>2020-05-09T10:52:20Z</time>
      </trkpt>
      <trkpt lat="46.00439" lon="6.18914">
        <ele>571.16</ele>
        <time>2020-05-09T10:52:21Z</time>
      </trkpt>
      <trkpt lat="46.00408" lon="6.18867">
        <ele>567.32</ele>
        <time>2020-05-09T10:52:24Z</time>
      </trkpt>
      <trkpt lat="46.00403" lon="6.18854">
        <ele>565.87</ele>
        <time>2020-05-09T10:52:25Z</time>
      </trkpt>
      <trkpt lat="46.00402" lon="6.18843">
        <ele>564.91</ele>
        <time>2020-05-09T10:52:26Z</time>
      </trkpt>
      <trkpt lat="46.00405" lon="6.18831">
        <ele>564.43</ele>
        <time>2020-05-09T10:52:27Z</time>
      </trkpt>
      <trkpt lat="46.00412" lon="6.18825">
        <ele>563.95</ele>
        <time>2020-05-09T10:52:28Z</time>
      </trkpt>
      <trkpt lat="46.00421" lon="6.1882">
        <ele>562.99</ele>
        <time>2020-05-09T10:52:29Z</time>
      </trkpt>
      <trkpt lat="46.00431" lon="6.18822">
        <ele>562.03</ele>
        <time>2020-05-09T10:52:30Z</time>
      </trkpt>
      <trkpt lat="46.0044" lon="6.18834">
        <ele>561.55</ele>
        <time>2020-05-09T10:52:31Z</time>
      </trkpt>
      <trkpt lat="46.00445" lon="6.18848">
        <ele>561.07</ele>
        <time>2020-05-09T10:52:32Z</time>
      </trkpt>
      <trkpt lat="46.00449" lon="6.1886">
        <ele>561.07</ele>
        <time>2020-05-09T10:52:33Z</time>
      </trkpt>
      <trkpt lat="46.00447" lon="6.18889">
        <ele>561.07</ele>
        <time>2020-05-09T10:52:35Z</time>
      </trkpt>
      <trkpt lat="46.00429" lon="6.18911">
        <ele>561.07</ele>
        <time>2020-05-09T10:52:36Z</time>
      </trkpt>
      <trkpt lat="46.00407" lon="6.18945">
        <ele>561.55</ele>
        <time>2020-05-09T10:52:38Z</time>
      </trkpt>
      <trkpt lat="46.00399" lon="6.18963">
        <ele>562.03</ele>
        <time>2020-05-09T10:52:39Z</time>
      </trkpt>
      <trkpt lat="46.00394" lon="6.18988">
        <ele>562.99</ele>
        <time>2020-05-09T10:52:40Z</time>
      </trkpt>
      <trkpt lat="46.00363" lon="6.1913">
        <ele>567.32</ele>
        <time>2020-05-09T10:52:44Z</time>
      </trkpt>
      <trkpt lat="46.00312" lon="6.19389">
        <ele>571.64</ele>
        <time>2020-05-09T10:52:50Z</time>
      </trkpt>
      <trkpt lat="46.00292" lon="6.19497">
        <ele>571.64</ele>
        <time>2020-05-09T10:52:53Z</time>
      </trkpt>
      <trkpt lat="46.0029" lon="6.19533">
        <ele>572.12</ele>
        <time>2020-05-09T10:52:54Z</time>
      </trkpt>
      <trkpt lat="46.00289" lon="6.19569">
        <ele>572.12</ele>
        <time>2020-05-09T10:52:55Z</time>
      </trkpt>
      <trkpt lat="46.0028" lon="6.19774">
        <ele>572.12</ele>
        <time>2020-05-09T10:53:01Z</time>
      </trkpt>
      <trkpt lat="46.00274" lon="6.19806">
        <ele>572.12</ele>
        <time>2020-05-09T10:53:02Z</time>
      </trkpt>
      <trkpt lat="46.00263" lon="6.19836">
        <ele>572.6</ele>
        <time>2020-05-09T10:53:03Z</time>
      </trkpt>
      <trkpt lat="46.00208" lon="6.19984">
        <ele>574.04</ele>
        <time>2020-05-09T10:53:09Z</time>
      </trkpt>
      <trkpt lat="46.00193" lon="6.20024">
        <ele>573.56</ele>
        <time>2020-05-09T10:53:13Z</time>
      </trkpt>
      <trkpt lat="46.00192" lon="6.20026">
        <ele>573.56</ele>
        <time>2020-05-09T10:53:14Z</time>
      </trkpt>
      <trkpt lat="46.00179" lon="6.20006">
        <ele>572.12</ele>
        <time>2020-05-09T10:53:20Z</time>
      </trkpt>
      <trkpt lat="46.00178" lon="6.19999">
        <ele>570.68</ele>
        <time>2020-05-09T10:53:32Z</time>
      </trkpt>
      <trkpt lat="46.00178" lon="6.19999">
        <ele>570.2</ele>
        <time>2020-05-09T10:53:43Z</time>
      </trkpt>
      <trkpt lat="46.00178" lon="6.19999">
        <ele>570.2</ele>
        <time>2020-05-09T10:54:17Z</time>
      </trkpt>
    </trkseg>
  </trk>
  <trk>
    <name><![CDATA[Journal actif: 2020-05-09 17:04]]></name>
    <trkseg>
      <trkpt lat="46.00176" lon="6.19997">
        <ele>558.18</ele>
        <time>2020-05-09T15:04:38Z</time>
      </trkpt>
      <trkpt lat="46.00173" lon="6.19993">
        <ele>557.22</ele>
        <time>2020-05-09T15:04:55Z</time>
      </trkpt>
      <trkpt lat="46.00192" lon="6.20024">
        <ele>556.26</ele>
        <time>2020-05-09T15:05:01Z</time>
      </trkpt>
      <trkpt lat="46.00189" lon="6.2002">
        <ele>554.34</ele>
        <time>2020-05-09T15:05:10Z</time>
      </trkpt>
      <trkpt lat="46.00194" lon="6.2002">
        <ele>555.3</ele>
        <time>2020-05-09T15:05:15Z</time>
      </trkpt>
      <trkpt lat="46.00199" lon="6.20006">
        <ele>556.26</ele>
        <time>2020-05-09T15:05:16Z</time>
      </trkpt>
      <trkpt lat="46.00209" lon="6.19979">
        <ele>556.26</ele>
        <time>2020-05-09T15:05:17Z</time>
      </trkpt>
      <trkpt lat="46.00257" lon="6.19852">
        <ele>560.11</ele>
        <time>2020-05-09T15:05:23Z</time>
      </trkpt>
      <trkpt lat="46.00266" lon="6.19827">
        <ele>559.62</ele>
        <time>2020-05-09T15:05:25Z</time>
      </trkpt>
      <trkpt lat="46.0028" lon="6.19775">
        <ele>559.62</ele>
        <time>2020-05-09T15:05:26Z</time>
      </trkpt>
      <trkpt lat="46.00283" lon="6.19745">
        <ele>559.62</ele>
        <time>2020-05-09T15:05:27Z</time>
      </trkpt>
      <trkpt lat="46.00287" lon="6.19713">
        <ele>559.62</ele>
        <time>2020-05-09T15:05:28Z</time>
      </trkpt>
      <trkpt lat="46.00287" lon="6.19682">
        <ele>559.62</ele>
        <time>2020-05-09T15:05:29Z</time>
      </trkpt>
      <trkpt lat="46.00293" lon="6.19493">
        <ele>560.59</ele>
        <time>2020-05-09T15:05:36Z</time>
      </trkpt>
      <trkpt lat="46.00299" lon="6.19461">
        <ele>560.59</ele>
        <time>2020-05-09T15:05:37Z</time>
      </trkpt>
      <trkpt lat="46.00371" lon="6.19092">
        <ele>555.78</ele>
        <time>2020-05-09T15:05:48Z</time>
      </trkpt>
      <trkpt lat="46.00396" lon="6.18975">
        <ele>551.45</ele>
        <time>2020-05-09T15:05:54Z</time>
      </trkpt>
      <trkpt lat="46.00401" lon="6.18955">
        <ele>549.05</ele>
        <time>2020-05-09T15:05:56Z</time>
      </trkpt>
      <trkpt lat="46.00399" lon="6.18954">
        <ele>548.09</ele>
        <time>2020-05-09T15:05:57Z</time>
      </trkpt>
      <trkpt lat="46.00395" lon="6.18952">
        <ele>547.13</ele>
        <time>2020-05-09T15:05:58Z</time>
      </trkpt>
      <trkpt lat="46.0039" lon="6.18949">
        <ele>546.17</ele>
        <time>2020-05-09T15:05:59Z</time>
      </trkpt>
      <trkpt lat="46.00383" lon="6.18945">
        <ele>545.2</ele>
        <time>2020-05-09T15:06:00Z</time>
      </trkpt>
      <trkpt lat="46.00379" lon="6.18942">
        <ele>544.72</ele>
        <time>2020-05-09T15:06:01Z</time>
      </trkpt>
      <trkpt lat="46.00369" lon="6.18932">
        <ele>544.24</ele>
        <time>2020-05-09T15:06:02Z</time>
      </trkpt>
      <trkpt lat="46.00361" lon="6.18922">
        <ele>543.28</ele>
        <time>2020-05-09T15:06:03Z</time>
      </trkpt>
      <trkpt lat="46.00358" lon="6.1891">
        <ele>542.8</ele>
        <time>2020-05-09T15:06:04Z</time>
      </trkpt>
      <trkpt lat="46.0036" lon="6.18896">
        <ele>542.32</ele>
        <time>2020-05-09T15:06:06Z</time>
      </trkpt>
      <trkpt lat="46.0037" lon="6.18882">
        <ele>541.84</ele>
        <time>2020-05-09T15:06:07Z</time>
      </trkpt>
      <trkpt lat="46.00377" lon="6.18878">
        <ele>541.36</ele>
        <time>2020-05-09T15:06:08Z</time>
      </trkpt>
      <trkpt lat="46.00391" lon="6.18881">
        <ele>541.84</ele>
        <time>2020-05-09T15:06:10Z</time>
      </trkpt>
      <trkpt lat="46.0042" lon="6.18895">
        <ele>542.8</ele>
        <time>2020-05-09T15:06:12Z</time>
      </trkpt>
      <trkpt lat="46.0042" lon="6.18895">
        <ele>543.76</ele>
        <time>2020-05-09T15:06:13Z</time>
      </trkpt>
      <trkpt lat="46.00443" lon="6.18919">
        <ele>544.24</ele>
        <time>2020-05-09T15:06:14Z</time>
      </trkpt>
      <trkpt lat="46.00517" lon="6.19035">
        <ele>549.05</ele>
        <time>2020-05-09T15:06:19Z</time>
      </trkpt>
      <trkpt lat="46.0053" lon="6.19066">
        <ele>551.45</ele>
        <time>2020-05-09T15:06:20Z</time>
      </trkpt>
      <trkpt lat="46.00629" lon="6.19328">
        <ele>565.39</ele>
        <time>2020-05-09T15:06:28Z</time>
      </trkpt>
      <trkpt lat="46.00685" lon="6.1948">
        <ele>574.04</ele>
        <time>2020-05-09T15:06:34Z</time>
      </trkpt>
      <trkpt lat="46.0069" lon="6.19494">
        <ele>575.01</ele>
        <time>2020-05-09T15:06:35Z</time>
      </trkpt>
      <trkpt lat="46.00694" lon="6.19509">
        <ele>575.97</ele>
        <time>2020-05-09T15:06:36Z</time>
      </trkpt>
      <trkpt lat="46.00692" lon="6.1953">
        <ele>576.45</ele>
        <time>2020-05-09T15:06:37Z</time>
      </trkpt>
      <trkpt lat="46.00686" lon="6.1954">
        <ele>576.93</ele>
        <time>2020-05-09T15:06:38Z</time>
      </trkpt>
      <trkpt lat="46.00674" lon="6.19538">
        <ele>577.41</ele>
        <time>2020-05-09T15:06:39Z</time>
      </trkpt>
      <trkpt lat="46.00667" lon="6.19535">
        <ele>578.37</ele>
        <time>2020-05-09T15:06:40Z</time>
      </trkpt>
      <trkpt lat="46.00658" lon="6.19517">
        <ele>578.85</ele>
        <time>2020-05-09T15:06:41Z</time>
      </trkpt>
      <trkpt lat="46.00651" lon="6.195">
        <ele>579.33</ele>
        <time>2020-05-09T15:06:42Z</time>
      </trkpt>
      <trkpt lat="46.00642" lon="6.19481">
        <ele>580.29</ele>
        <time>2020-05-09T15:06:43Z</time>
      </trkpt>
      <trkpt lat="46.00633" lon="6.19459">
        <ele>581.73</ele>
        <time>2020-05-09T15:06:44Z</time>
      </trkpt>
      <trkpt lat="46.00597" lon="6.19388">
        <ele>585.1</ele>
        <time>2020-05-09T15:06:47Z</time>
      </trkpt>
      <trkpt lat="46.0056" lon="6.19329">
        <ele>588.46</ele>
        <time>2020-05-09T15:06:50Z</time>
      </trkpt>
      <trkpt lat="46.00547" lon="6.19319">
        <ele>589.43</ele>
        <time>2020-05-09T15:06:51Z</time>
      </trkpt>
      <trkpt lat="46.00535" lon="6.1931">
        <ele>590.39</ele>
        <time>2020-05-09T15:06:52Z</time>
      </trkpt>
      <trkpt lat="46.00522" lon="6.19308">
        <ele>590.87</ele>
        <time>2020-05-09T15:06:53Z</time>
      </trkpt>
      <trkpt lat="46.00511" lon="6.19312">
        <ele>591.83</ele>
        <time>2020-05-09T15:06:54Z</time>
      </trkpt>
      <trkpt lat="46.00499" lon="6.19319">
        <ele>592.79</ele>
        <time>2020-05-09T15:06:55Z</time>
      </trkpt>
      <trkpt lat="46.00492" lon="6.19331">
        <ele>593.27</ele>
        <time>2020-05-09T15:06:56Z</time>
      </trkpt>
      <trkpt lat="46.00484" lon="6.19347">
        <ele>594.23</ele>
        <time>2020-05-09T15:06:57Z</time>
      </trkpt>
      <trkpt lat="46.0048" lon="6.19364">
        <ele>595.67</ele>
        <time>2020-05-09T15:06:58Z</time>
      </trkpt>
      <trkpt lat="46.0048" lon="6.19382">
        <ele>596.64</ele>
        <time>2020-05-09T15:06:59Z</time>
      </trkpt>
      <trkpt lat="46.00487" lon="6.19401">
        <ele>598.08</ele>
        <time>2020-05-09T15:07:00Z</time>
      </trkpt>
      <trkpt lat="46.00495" lon="6.19423">
        <ele>600</ele>
        <time>2020-05-09T15:07:01Z</time>
      </trkpt>
      <trkpt lat="46.00505" lon="6.1944">
        <ele>600.96</ele>
        <time>2020-05-09T15:07:02Z</time>
      </trkpt>
      <trkpt lat="46.00518" lon="6.19461">
        <ele>602.88</ele>
        <time>2020-05-09T15:07:03Z</time>
      </trkpt>
      <trkpt lat="46.00533" lon="6.1948">
        <ele>604.33</ele>
        <time>2020-05-09T15:07:04Z</time>
      </trkpt>
      <trkpt lat="46.00571" lon="6.19514">
        <ele>607.21</ele>
        <time>2020-05-09T15:07:06Z</time>
      </trkpt>
      <trkpt lat="46.00589" lon="6.19535">
        <ele>608.65</ele>
        <time>2020-05-09T15:07:07Z</time>
      </trkpt>
      <trkpt lat="46.00606" lon="6.19557">
        <ele>609.61</ele>
        <time>2020-05-09T15:07:08Z</time>
      </trkpt>
      <trkpt lat="46.00618" lon="6.19588">
        <ele>611.06</ele>
        <time>2020-05-09T15:07:09Z</time>
      </trkpt>
      <trkpt lat="46.0063" lon="6.19618">
        <ele>612.5</ele>
        <time>2020-05-09T15:07:10Z</time>
      </trkpt>
      <trkpt lat="46.00642" lon="6.19648">
        <ele>613.46</ele>
        <time>2020-05-09T15:07:11Z</time>
      </trkpt>
      <trkpt lat="46.00704" lon="6.19832">
        <ele>621.15</ele>
        <time>2020-05-09T15:07:17Z</time>
      </trkpt>
      <trkpt lat="46.00704" lon="6.19832">
        <ele>622.59</ele>
        <time>2020-05-09T15:07:18Z</time>
      </trkpt>
      <trkpt lat="46.00765" lon="6.2012">
        <ele>637.01</ele>
        <time>2020-05-09T15:07:27Z</time>
      </trkpt>
      <trkpt lat="46.00864" lon="6.20482">
        <ele>652.39</ele>
        <time>2020-05-09T15:07:41Z</time>
      </trkpt>
      <trkpt lat="46.0088" lon="6.20526">
        <ele>654.8</ele>
        <time>2020-05-09T15:07:43Z</time>
      </trkpt>
      <trkpt lat="46.00891" lon="6.20544">
        <ele>655.28</ele>
        <time>2020-05-09T15:07:44Z</time>
      </trkpt>
      <trkpt lat="46.00903" lon="6.20563">
        <ele>656.24</ele>
        <time>2020-05-09T15:07:45Z</time>
      </trkpt>
      <trkpt lat="46.00917" lon="6.20579">
        <ele>657.2</ele>
        <time>2020-05-09T15:07:46Z</time>
      </trkpt>
      <trkpt lat="46.0093" lon="6.20596">
        <ele>658.16</ele>
        <time>2020-05-09T15:07:47Z</time>
      </trkpt>
      <trkpt lat="46.01047" lon="6.20735">
        <ele>660.56</ele>
        <time>2020-05-09T15:07:54Z</time>
      </trkpt>
      <trkpt lat="46.01213" lon="6.20933">
        <ele>666.81</ele>
        <time>2020-05-09T15:08:04Z</time>
      </trkpt>
      <trkpt lat="46.01373" lon="6.2114">
        <ele>671.14</ele>
        <time>2020-05-09T15:08:14Z</time>
      </trkpt>
      <trkpt lat="46.01428" lon="6.2123">
        <ele>672.58</ele>
        <time>2020-05-09T15:08:18Z</time>
      </trkpt>
      <trkpt lat="46.01444" lon="6.21248">
        <ele>673.06</ele>
        <time>2020-05-09T15:08:19Z</time>
      </trkpt>
      <trkpt lat="46.01549" lon="6.21355">
        <ele>676.42</ele>
        <time>2020-05-09T15:08:25Z</time>
      </trkpt>
      <trkpt lat="46.01702" lon="6.21522">
        <ele>682.19</ele>
        <time>2020-05-09T15:08:35Z</time>
      </trkpt>
      <trkpt lat="46.01714" lon="6.21545">
        <ele>682.67</ele>
        <time>2020-05-09T15:08:36Z</time>
      </trkpt>
      <trkpt lat="46.01802" lon="6.21756">
        <ele>685.08</ele>
        <time>2020-05-09T15:08:45Z</time>
      </trkpt>
      <trkpt lat="46.01893" lon="6.2201">
        <ele>688.44</ele>
        <time>2020-05-09T15:08:55Z</time>
      </trkpt>
      <trkpt lat="46.0194" lon="6.2223">
        <ele>689.4</ele>
        <time>2020-05-09T15:09:01Z</time>
      </trkpt>
      <trkpt lat="46.01982" lon="6.22495">
        <ele>691.33</ele>
        <time>2020-05-09T15:09:06Z</time>
      </trkpt>
      <trkpt lat="46.02011" lon="6.22698">
        <ele>696.13</ele>
        <time>2020-05-09T15:09:11Z</time>
      </trkpt>
      <trkpt lat="46.02043" lon="6.22908">
        <ele>699.02</ele>
        <time>2020-05-09T15:09:18Z</time>
      </trkpt>
      <trkpt lat="46.0205" lon="6.22935">
        <ele>699.5</ele>
        <time>2020-05-09T15:09:19Z</time>
      </trkpt>
      <trkpt lat="46.02058" lon="6.22962">
        <ele>699.98</ele>
        <time>2020-05-09T15:09:20Z</time>
      </trkpt>
      <trkpt lat="46.02067" lon="6.22987">
        <ele>700.46</ele>
        <time>2020-05-09T15:09:21Z</time>
      </trkpt>
      <trkpt lat="46.02079" lon="6.23009">
        <ele>700.94</ele>
        <time>2020-05-09T15:09:22Z</time>
      </trkpt>
      <trkpt lat="46.02092" lon="6.23028">
        <ele>700.94</ele>
        <time>2020-05-09T15:09:23Z</time>
      </trkpt>
      <trkpt lat="46.02105" lon="6.23045">
        <ele>701.42</ele>
        <time>2020-05-09T15:09:24Z</time>
      </trkpt>
      <trkpt lat="46.02118" lon="6.23061">
        <ele>701.9</ele>
        <time>2020-05-09T15:09:25Z</time>
      </trkpt>
      <trkpt lat="46.02141" lon="6.23093">
        <ele>702.86</ele>
        <time>2020-05-09T15:09:27Z</time>
      </trkpt>
      <trkpt lat="46.02152" lon="6.23109">
        <ele>703.34</ele>
        <time>2020-05-09T15:09:28Z</time>
      </trkpt>
      <trkpt lat="46.02244" lon="6.2329">
        <ele>706.23</ele>
        <time>2020-05-09T15:09:39Z</time>
      </trkpt>
      <trkpt lat="46.02277" lon="6.23356">
        <ele>707.19</ele>
        <time>2020-05-09T15:09:43Z</time>
      </trkpt>
      <trkpt lat="46.02286" lon="6.2337">
        <ele>707.67</ele>
        <time>2020-05-09T15:09:44Z</time>
      </trkpt>
      <trkpt lat="46.02297" lon="6.23383">
        <ele>708.63</ele>
        <time>2020-05-09T15:09:45Z</time>
      </trkpt>
      <trkpt lat="46.02373" lon="6.23452">
        <ele>713.92</ele>
        <time>2020-05-09T15:09:50Z</time>
      </trkpt>
      <trkpt lat="46.02393" lon="6.2347">
        <ele>715.36</ele>
        <time>2020-05-09T15:09:51Z</time>
      </trkpt>
      <trkpt lat="46.02411" lon="6.23492">
        <ele>716.32</ele>
        <time>2020-05-09T15:09:52Z</time>
      </trkpt>
      <trkpt lat="46.02426" lon="6.23517">
        <ele>717.28</ele>
        <time>2020-05-09T15:09:53Z</time>
      </trkpt>
      <trkpt lat="46.02439" lon="6.23547">
        <ele>718.72</ele>
        <time>2020-05-09T15:09:54Z</time>
      </trkpt>
      <trkpt lat="46.02452" lon="6.23575">
        <ele>720.16</ele>
        <time>2020-05-09T15:09:55Z</time>
      </trkpt>
      <trkpt lat="46.02465" lon="6.23602">
        <ele>721.13</ele>
        <time>2020-05-09T15:09:56Z</time>
      </trkpt>
      <trkpt lat="46.02522" lon="6.23693">
        <ele>724.97</ele>
        <time>2020-05-09T15:10:00Z</time>
      </trkpt>
      <trkpt lat="46.02538" lon="6.2371">
        <ele>725.93</ele>
        <time>2020-05-09T15:10:01Z</time>
      </trkpt>
      <trkpt lat="46.02555" lon="6.23724">
        <ele>726.89</ele>
        <time>2020-05-09T15:10:02Z</time>
      </trkpt>
      <trkpt lat="46.02573" lon="6.23735">
        <ele>727.37</ele>
        <time>2020-05-09T15:10:03Z</time>
      </trkpt>
      <trkpt lat="46.0259" lon="6.23743">
        <ele>728.34</ele>
        <time>2020-05-09T15:10:04Z</time>
      </trkpt>
      <trkpt lat="46.02608" lon="6.23751">
        <ele>729.3</ele>
        <time>2020-05-09T15:10:05Z</time>
      </trkpt>
      <trkpt lat="46.02626" lon="6.23755">
        <ele>730.26</ele>
        <time>2020-05-09T15:10:06Z</time>
      </trkpt>
      <trkpt lat="46.02644" lon="6.23759">
        <ele>730.74</ele>
        <time>2020-05-09T15:10:07Z</time>
      </trkpt>
      <trkpt lat="46.02862" lon="6.23802">
        <ele>741.31</ele>
        <time>2020-05-09T15:10:18Z</time>
      </trkpt>
      <trkpt lat="46.03032" lon="6.23887">
        <ele>745.16</ele>
        <time>2020-05-09T15:10:26Z</time>
      </trkpt>
      <trkpt lat="46.03051" lon="6.23903">
        <ele>745.16</ele>
        <time>2020-05-09T15:10:27Z</time>
      </trkpt>
      <trkpt lat="46.03068" lon="6.23922">
        <ele>745.64</ele>
        <time>2020-05-09T15:10:28Z</time>
      </trkpt>
      <trkpt lat="46.03215" lon="6.24088">
        <ele>747.56</ele>
        <time>2020-05-09T15:10:37Z</time>
      </trkpt>
      <trkpt lat="46.03306" lon="6.24226">
        <ele>750.45</ele>
        <time>2020-05-09T15:10:44Z</time>
      </trkpt>
      <trkpt lat="46.0332" lon="6.24241">
        <ele>750.93</ele>
        <time>2020-05-09T15:10:45Z</time>
      </trkpt>
      <trkpt lat="46.03335" lon="6.24253">
        <ele>750.93</ele>
        <time>2020-05-09T15:10:46Z</time>
      </trkpt>
      <trkpt lat="46.03351" lon="6.24264">
        <ele>750.93</ele>
        <time>2020-05-09T15:10:47Z</time>
      </trkpt>
      <trkpt lat="46.03369" lon="6.24269">
        <ele>751.41</ele>
        <time>2020-05-09T15:10:48Z</time>
      </trkpt>
      <trkpt lat="46.03385" lon="6.24271">
        <ele>751.89</ele>
        <time>2020-05-09T15:10:49Z</time>
      </trkpt>
      <trkpt lat="46.03401" lon="6.24268">
        <ele>752.37</ele>
        <time>2020-05-09T15:10:50Z</time>
      </trkpt>
      <trkpt lat="46.03417" lon="6.24262">
        <ele>752.85</ele>
        <time>2020-05-09T15:10:51Z</time>
      </trkpt>
      <trkpt lat="46.03431" lon="6.24253">
        <ele>752.85</ele>
        <time>2020-05-09T15:10:52Z</time>
      </trkpt>
      <trkpt lat="46.03444" lon="6.24241">
        <ele>753.33</ele>
        <time>2020-05-09T15:10:53Z</time>
      </trkpt>
      <trkpt lat="46.03456" lon="6.24224">
        <ele>754.29</ele>
        <time>2020-05-09T15:10:54Z</time>
      </trkpt>
      <trkpt lat="46.03467" lon="6.24206">
        <ele>754.77</ele>
        <time>2020-05-09T15:10:55Z</time>
      </trkpt>
      <trkpt lat="46.03479" lon="6.24187">
        <ele>755.25</ele>
        <time>2020-05-09T15:10:56Z</time>
      </trkpt>
      <trkpt lat="46.03492" lon="6.24167">
        <ele>756.21</ele>
        <time>2020-05-09T15:10:57Z</time>
      </trkpt>
      <trkpt lat="46.03535" lon="6.241">
        <ele>759.58</ele>
        <time>2020-05-09T15:11:00Z</time>
      </trkpt>
      <trkpt lat="46.03553" lon="6.24085">
        <ele>760.54</ele>
        <time>2020-05-09T15:11:01Z</time>
      </trkpt>
      <trkpt lat="46.03575" lon="6.24077">
        <ele>761.5</ele>
        <time>2020-05-09T15:11:02Z</time>
      </trkpt>
      <trkpt lat="46.03597" lon="6.24071">
        <ele>761.98</ele>
        <time>2020-05-09T15:11:03Z</time>
      </trkpt>
      <trkpt lat="46.0362" lon="6.24073">
        <ele>762.94</ele>
        <time>2020-05-09T15:11:04Z</time>
      </trkpt>
      <trkpt lat="46.03644" lon="6.24078">
        <ele>763.9</ele>
        <time>2020-05-09T15:11:05Z</time>
      </trkpt>
      <trkpt lat="46.03667" lon="6.24091">
        <ele>765.35</ele>
        <time>2020-05-09T15:11:06Z</time>
      </trkpt>
      <trkpt lat="46.03689" lon="6.24111">
        <ele>766.31</ele>
        <time>2020-05-09T15:11:07Z</time>
      </trkpt>
      <trkpt lat="46.0371" lon="6.24134">
        <ele>767.27</ele>
        <time>2020-05-09T15:11:08Z</time>
      </trkpt>
      <trkpt lat="46.03729" lon="6.24163">
        <ele>768.71</ele>
        <time>2020-05-09T15:11:09Z</time>
      </trkpt>
      <trkpt lat="46.03748" lon="6.24191">
        <ele>770.15</ele>
        <time>2020-05-09T15:11:10Z</time>
      </trkpt>
      <trkpt lat="46.03765" lon="6.24223">
        <ele>771.6</ele>
        <time>2020-05-09T15:11:11Z</time>
      </trkpt>
      <trkpt lat="46.03789" lon="6.2429">
        <ele>774.48</ele>
        <time>2020-05-09T15:11:13Z</time>
      </trkpt>
      <trkpt lat="46.03797" lon="6.24323">
        <ele>776.4</ele>
        <time>2020-05-09T15:11:14Z</time>
      </trkpt>
      <trkpt lat="46.03845" lon="6.24539">
        <ele>787.94</ele>
        <time>2020-05-09T15:11:21Z</time>
      </trkpt>
      <trkpt lat="46.03856" lon="6.24566">
        <ele>789.38</ele>
        <time>2020-05-09T15:11:22Z</time>
      </trkpt>
      <trkpt lat="46.03869" lon="6.24593">
        <ele>790.82</ele>
        <time>2020-05-09T15:11:23Z</time>
      </trkpt>
      <trkpt lat="46.03884" lon="6.24616">
        <ele>791.78</ele>
        <time>2020-05-09T15:11:24Z</time>
      </trkpt>
      <trkpt lat="46.03901" lon="6.24638">
        <ele>792.26</ele>
        <time>2020-05-09T15:11:25Z</time>
      </trkpt>
      <trkpt lat="46.0392" lon="6.24657">
        <ele>793.22</ele>
        <time>2020-05-09T15:11:26Z</time>
      </trkpt>
      <trkpt lat="46.03939" lon="6.24675">
        <ele>794.19</ele>
        <time>2020-05-09T15:11:27Z</time>
      </trkpt>
      <trkpt lat="46.0396" lon="6.24687">
        <ele>794.67</ele>
        <time>2020-05-09T15:11:28Z</time>
      </trkpt>
      <trkpt lat="46.0398" lon="6.247">
        <ele>795.15</ele>
        <time>2020-05-09T15:11:29Z</time>
      </trkpt>
      <trkpt lat="46.04002" lon="6.24706">
        <ele>795.15</ele>
        <time>2020-05-09T15:11:30Z</time>
      </trkpt>
      <trkpt lat="46.04024" lon="6.24712">
        <ele>795.63</ele>
        <time>2020-05-09T15:11:31Z</time>
      </trkpt>
      <trkpt lat="46.04084" lon="6.24736">
        <ele>795.15</ele>
        <time>2020-05-09T15:11:34Z</time>
      </trkpt>
      <trkpt lat="46.04103" lon="6.24748">
        <ele>794.67</ele>
        <time>2020-05-09T15:11:35Z</time>
      </trkpt>
      <trkpt lat="46.04122" lon="6.24764">
        <ele>794.19</ele>
        <time>2020-05-09T15:11:36Z</time>
      </trkpt>
      <trkpt lat="46.04139" lon="6.24783">
        <ele>793.71</ele>
        <time>2020-05-09T15:11:37Z</time>
      </trkpt>
      <trkpt lat="46.04175" lon="6.24824">
        <ele>791.78</ele>
        <time>2020-05-09T15:11:39Z</time>
      </trkpt>
      <trkpt lat="46.04334" lon="6.25062">
        <ele>791.78</ele>
        <time>2020-05-09T15:11:50Z</time>
      </trkpt>
      <trkpt lat="46.04346" lon="6.25086">
        <ele>792.74</ele>
        <time>2020-05-09T15:11:51Z</time>
      </trkpt>
      <trkpt lat="46.04355" lon="6.25111">
        <ele>793.71</ele>
        <time>2020-05-09T15:11:52Z</time>
      </trkpt>
      <trkpt lat="46.04364" lon="6.25138">
        <ele>794.67</ele>
        <time>2020-05-09T15:11:53Z</time>
      </trkpt>
      <trkpt lat="46.04423" lon="6.2539">
        <ele>801.88</ele>
        <time>2020-05-09T15:12:02Z</time>
      </trkpt>
      <trkpt lat="46.04501" lon="6.25608">
        <ele>803.32</ele>
        <time>2020-05-09T15:12:11Z</time>
      </trkpt>
      <trkpt lat="46.04663" lon="6.25946">
        <ele>799.47</ele>
        <time>2020-05-09T15:12:26Z</time>
      </trkpt>
      <trkpt lat="46.04795" lon="6.26219">
        <ele>793.71</ele>
        <time>2020-05-09T15:12:38Z</time>
      </trkpt>
      <trkpt lat="46.04853" lon="6.26331">
        <ele>789.38</ele>
        <time>2020-05-09T15:12:43Z</time>
      </trkpt>
      <trkpt lat="46.04951" lon="6.26448">
        <ele>783.61</ele>
        <time>2020-05-09T15:12:50Z</time>
      </trkpt>
      <trkpt lat="46.0505" lon="6.26534">
        <ele>776.4</ele>
        <time>2020-05-09T15:12:56Z</time>
      </trkpt>
      <trkpt lat="46.05079" lon="6.26572">
        <ele>774</ele>
        <time>2020-05-09T15:12:58Z</time>
      </trkpt>
      <trkpt lat="46.05102" lon="6.26616">
        <ele>771.6</ele>
        <time>2020-05-09T15:13:00Z</time>
      </trkpt>
      <trkpt lat="46.05144" lon="6.26771">
        <ele>765.35</ele>
        <time>2020-05-09T15:13:07Z</time>
      </trkpt>
      <trkpt lat="46.05142" lon="6.26931">
        <ele>762.94</ele>
        <time>2020-05-09T15:13:14Z</time>
      </trkpt>
      <trkpt lat="46.05124" lon="6.27223">
        <ele>758.14</ele>
        <time>2020-05-09T15:13:26Z</time>
      </trkpt>
      <trkpt lat="46.05151" lon="6.27488">
        <ele>749.97</ele>
        <time>2020-05-09T15:13:36Z</time>
      </trkpt>
      <trkpt lat="46.05189" lon="6.27657">
        <ele>747.56</ele>
        <time>2020-05-09T15:13:41Z</time>
      </trkpt>
      <trkpt lat="46.05257" lon="6.27862">
        <ele>745.64</ele>
        <time>2020-05-09T15:13:45Z</time>
      </trkpt>
      <trkpt lat="46.05387" lon="6.28232">
        <ele>740.35</ele>
        <time>2020-05-09T15:13:51Z</time>
      </trkpt>
      <trkpt lat="46.05483" lon="6.28503">
        <ele>732.66</ele>
        <time>2020-05-09T15:13:56Z</time>
      </trkpt>
      <trkpt lat="46.05572" lon="6.28762">
        <ele>725.45</ele>
        <time>2020-05-09T15:14:02Z</time>
      </trkpt>
      <trkpt lat="46.05617" lon="6.28865">
        <ele>723.05</ele>
        <time>2020-05-09T15:14:05Z</time>
      </trkpt>
      <trkpt lat="46.05634" lon="6.28893">
        <ele>722.09</ele>
        <time>2020-05-09T15:14:06Z</time>
      </trkpt>
      <trkpt lat="46.05651" lon="6.2892">
        <ele>721.13</ele>
        <time>2020-05-09T15:14:07Z</time>
      </trkpt>
      <trkpt lat="46.05671" lon="6.28941">
        <ele>719.68</ele>
        <time>2020-05-09T15:14:08Z</time>
      </trkpt>
      <trkpt lat="46.05693" lon="6.2896">
        <ele>718.24</ele>
        <time>2020-05-09T15:14:09Z</time>
      </trkpt>
      <trkpt lat="46.05716" lon="6.28976">
        <ele>717.28</ele>
        <time>2020-05-09T15:14:10Z</time>
      </trkpt>
      <trkpt lat="46.05739" lon="6.2899">
        <ele>715.84</ele>
        <time>2020-05-09T15:14:11Z</time>
      </trkpt>
      <trkpt lat="46.05765" lon="6.28999">
        <ele>714.4</ele>
        <time>2020-05-09T15:14:12Z</time>
      </trkpt>
      <trkpt lat="46.05791" lon="6.29006">
        <ele>713.44</ele>
        <time>2020-05-09T15:14:13Z</time>
      </trkpt>
      <trkpt lat="46.05817" lon="6.2901">
        <ele>711.51</ele>
        <time>2020-05-09T15:14:14Z</time>
      </trkpt>
      <trkpt lat="46.05843" lon="6.29007">
        <ele>710.07</ele>
        <time>2020-05-09T15:14:15Z</time>
      </trkpt>
      <trkpt lat="46.05867" lon="6.29004">
        <ele>708.63</ele>
        <time>2020-05-09T15:14:16Z</time>
      </trkpt>
      <trkpt lat="46.05891" lon="6.29001">
        <ele>707.67</ele>
        <time>2020-05-09T15:14:17Z</time>
      </trkpt>
      <trkpt lat="46.06067" lon="6.28942">
        <ele>699.02</ele>
        <time>2020-05-09T15:14:25Z</time>
      </trkpt>
      <trkpt lat="46.06277" lon="6.28871">
        <ele>687</ele>
        <time>2020-05-09T15:14:35Z</time>
      </trkpt>
      <trkpt lat="46.06408" lon="6.2884">
        <ele>678.35</ele>
        <time>2020-05-09T15:14:43Z</time>
      </trkpt>
      <trkpt lat="46.0642" lon="6.28838">
        <ele>676.91</ele>
        <time>2020-05-09T15:14:44Z</time>
      </trkpt>
      <trkpt lat="46.06434" lon="6.28858">
        <ele>675.94</ele>
        <time>2020-05-09T15:14:45Z</time>
      </trkpt>
      <trkpt lat="46.0644" lon="6.28859">
        <ele>674.98</ele>
        <time>2020-05-09T15:14:46Z</time>
      </trkpt>
      <trkpt lat="46.06454" lon="6.28851">
        <ele>674.5</ele>
        <time>2020-05-09T15:14:47Z</time>
      </trkpt>
      <trkpt lat="46.06456" lon="6.28849">
        <ele>674.02</ele>
        <time>2020-05-09T15:14:48Z</time>
      </trkpt>
      <trkpt lat="46.06468" lon="6.28829">
        <ele>673.54</ele>
        <time>2020-05-09T15:14:49Z</time>
      </trkpt>
      <trkpt lat="46.06479" lon="6.28826">
        <ele>673.06</ele>
        <time>2020-05-09T15:14:50Z</time>
      </trkpt>
      <trkpt lat="46.06492" lon="6.28823">
        <ele>672.58</ele>
        <time>2020-05-09T15:14:51Z</time>
      </trkpt>
      <trkpt lat="46.06611" lon="6.28755">
        <ele>665.85</ele>
        <time>2020-05-09T15:14:59Z</time>
      </trkpt>
      <trkpt lat="46.0675" lon="6.2868">
        <ele>659.6</ele>
        <time>2020-05-09T15:15:07Z</time>
      </trkpt>
      <trkpt lat="46.06769" lon="6.28676">
        <ele>658.64</ele>
        <time>2020-05-09T15:15:08Z</time>
      </trkpt>
      <trkpt lat="46.06787" lon="6.28673">
        <ele>657.2</ele>
        <time>2020-05-09T15:15:09Z</time>
      </trkpt>
      <trkpt lat="46.06807" lon="6.28674">
        <ele>656.72</ele>
        <time>2020-05-09T15:15:10Z</time>
      </trkpt>
      <trkpt lat="46.06826" lon="6.28679">
        <ele>655.28</ele>
        <time>2020-05-09T15:15:11Z</time>
      </trkpt>
      <trkpt lat="46.06844" lon="6.28683">
        <ele>654.31</ele>
        <time>2020-05-09T15:15:12Z</time>
      </trkpt>
      <trkpt lat="46.06862" lon="6.2869">
        <ele>653.35</ele>
        <time>2020-05-09T15:15:13Z</time>
      </trkpt>
      <trkpt lat="46.06879" lon="6.287">
        <ele>652.39</ele>
        <time>2020-05-09T15:15:14Z</time>
      </trkpt>
      <trkpt lat="46.06895" lon="6.2871">
        <ele>651.43</ele>
        <time>2020-05-09T15:15:15Z</time>
      </trkpt>
      <trkpt lat="46.06912" lon="6.2872">
        <ele>650.95</ele>
        <time>2020-05-09T15:15:16Z</time>
      </trkpt>
      <trkpt lat="46.07047" lon="6.28805">
        <ele>642.3</ele>
        <time>2020-05-09T15:15:24Z</time>
      </trkpt>
      <trkpt lat="46.07224" lon="6.28826">
        <ele>633.17</ele>
        <time>2020-05-09T15:15:33Z</time>
      </trkpt>
      <trkpt lat="46.07301" lon="6.28837">
        <ele>627.88</ele>
        <time>2020-05-09T15:15:37Z</time>
      </trkpt>
      <trkpt lat="46.07358" lon="6.28861">
        <ele>622.59</ele>
        <time>2020-05-09T15:15:41Z</time>
      </trkpt>
      <trkpt lat="46.07393" lon="6.28887">
        <ele>621.15</ele>
        <time>2020-05-09T15:15:42Z</time>
      </trkpt>
      <trkpt lat="46.07409" lon="6.28903">
        <ele>620.19</ele>
        <time>2020-05-09T15:15:43Z</time>
      </trkpt>
      <trkpt lat="46.07423" lon="6.28924">
        <ele>618.75</ele>
        <time>2020-05-09T15:15:44Z</time>
      </trkpt>
      <trkpt lat="46.07436" lon="6.28945">
        <ele>617.78</ele>
        <time>2020-05-09T15:15:45Z</time>
      </trkpt>
      <trkpt lat="46.07449" lon="6.28967">
        <ele>616.82</ele>
        <time>2020-05-09T15:15:46Z</time>
      </trkpt>
      <trkpt lat="46.07461" lon="6.28992">
        <ele>615.86</ele>
        <time>2020-05-09T15:15:47Z</time>
      </trkpt>
      <trkpt lat="46.0747" lon="6.29019">
        <ele>614.9</ele>
        <time>2020-05-09T15:15:48Z</time>
      </trkpt>
      <trkpt lat="46.07476" lon="6.29046">
        <ele>613.94</ele>
        <time>2020-05-09T15:15:49Z</time>
      </trkpt>
      <trkpt lat="46.07483" lon="6.29073">
        <ele>613.46</ele>
        <time>2020-05-09T15:15:50Z</time>
      </trkpt>
      <trkpt lat="46.07537" lon="6.2923">
        <ele>607.21</ele>
        <time>2020-05-09T15:15:56Z</time>
      </trkpt>
      <trkpt lat="46.0755" lon="6.29253">
        <ele>606.25</ele>
        <time>2020-05-09T15:15:57Z</time>
      </trkpt>
      <trkpt lat="46.07641" lon="6.29424">
        <ele>595.67</ele>
        <time>2020-05-09T15:16:04Z</time>
      </trkpt>
      <trkpt lat="46.07778" lon="6.29831">
        <ele>574.04</ele>
        <time>2020-05-09T15:16:18Z</time>
      </trkpt>
      <trkpt lat="46.07794" lon="6.2992">
        <ele>569.24</ele>
        <time>2020-05-09T15:16:21Z</time>
      </trkpt>
      <trkpt lat="46.07796" lon="6.2995">
        <ele>567.8</ele>
        <time>2020-05-09T15:16:22Z</time>
      </trkpt>
      <trkpt lat="46.07798" lon="6.29978">
        <ele>565.87</ele>
        <time>2020-05-09T15:16:23Z</time>
      </trkpt>
      <trkpt lat="46.07798" lon="6.30008">
        <ele>564.43</ele>
        <time>2020-05-09T15:16:24Z</time>
      </trkpt>
      <trkpt lat="46.07796" lon="6.30036">
        <ele>562.99</ele>
        <time>2020-05-09T15:16:25Z</time>
      </trkpt>
      <trkpt lat="46.07793" lon="6.30066">
        <ele>561.55</ele>
        <time>2020-05-09T15:16:26Z</time>
      </trkpt>
      <trkpt lat="46.07787" lon="6.30092">
        <ele>559.62</ele>
        <time>2020-05-09T15:16:27Z</time>
      </trkpt>
      <trkpt lat="46.07781" lon="6.30119">
        <ele>558.18</ele>
        <time>2020-05-09T15:16:28Z</time>
      </trkpt>
      <trkpt lat="46.07773" lon="6.30146">
        <ele>556.26</ele>
        <time>2020-05-09T15:16:29Z</time>
      </trkpt>
      <trkpt lat="46.07763" lon="6.30172">
        <ele>554.34</ele>
        <time>2020-05-09T15:16:30Z</time>
      </trkpt>
      <trkpt lat="46.07752" lon="6.30196">
        <ele>552.9</ele>
        <time>2020-05-09T15:16:31Z</time>
      </trkpt>
      <trkpt lat="46.0774" lon="6.30219">
        <ele>551.45</ele>
        <time>2020-05-09T15:16:32Z</time>
      </trkpt>
      <trkpt lat="46.07647" lon="6.30381">
        <ele>542.8</ele>
        <time>2020-05-09T15:16:40Z</time>
      </trkpt>
      <trkpt lat="46.07631" lon="6.3041">
        <ele>542.32</ele>
        <time>2020-05-09T15:16:42Z</time>
      </trkpt>
      <trkpt lat="46.07619" lon="6.30419">
        <ele>541.84</ele>
        <time>2020-05-09T15:16:43Z</time>
      </trkpt>
      <trkpt lat="46.07612" lon="6.30418">
        <ele>541.84</ele>
        <time>2020-05-09T15:16:44Z</time>
      </trkpt>
      <trkpt lat="46.07604" lon="6.30422">
        <ele>542.32</ele>
        <time>2020-05-09T15:16:45Z</time>
      </trkpt>
      <trkpt lat="46.076" lon="6.30431">
        <ele>542.32</ele>
        <time>2020-05-09T15:16:46Z</time>
      </trkpt>
      <trkpt lat="46.07602" lon="6.30445">
        <ele>542.32</ele>
        <time>2020-05-09T15:16:47Z</time>
      </trkpt>
      <trkpt lat="46.07598" lon="6.30465">
        <ele>541.36</ele>
        <time>2020-05-09T15:16:48Z</time>
      </trkpt>
      <trkpt lat="46.0759" lon="6.30481">
        <ele>540.88</ele>
        <time>2020-05-09T15:16:49Z</time>
      </trkpt>
      <trkpt lat="46.0758" lon="6.30501">
        <ele>539.92</ele>
        <time>2020-05-09T15:16:50Z</time>
      </trkpt>
      <trkpt lat="46.0757" lon="6.30522">
        <ele>539.44</ele>
        <time>2020-05-09T15:16:51Z</time>
      </trkpt>
      <trkpt lat="46.07509" lon="6.30695">
        <ele>537.03</ele>
        <time>2020-05-09T15:16:58Z</time>
      </trkpt>
      <trkpt lat="46.07477" lon="6.30905">
        <ele>530.3</ele>
        <time>2020-05-09T15:17:06Z</time>
      </trkpt>
      <trkpt lat="46.07455" lon="6.31198">
        <ele>518.29</ele>
        <time>2020-05-09T15:17:16Z</time>
      </trkpt>
      <trkpt lat="46.07418" lon="6.31319">
        <ele>514.44</ele>
        <time>2020-05-09T15:17:22Z</time>
      </trkpt>
      <trkpt lat="46.07406" lon="6.31334">
        <ele>514.44</ele>
        <time>2020-05-09T15:17:23Z</time>
      </trkpt>
      <trkpt lat="46.07401" lon="6.31343">
        <ele>513.96</ele>
        <time>2020-05-09T15:17:24Z</time>
      </trkpt>
      <trkpt lat="46.07395" lon="6.31357">
        <ele>513.96</ele>
        <time>2020-05-09T15:17:25Z</time>
      </trkpt>
      <trkpt lat="46.07395" lon="6.31372">
        <ele>513.96</ele>
        <time>2020-05-09T15:17:26Z</time>
      </trkpt>
      <trkpt lat="46.07397" lon="6.31382">
        <ele>513.48</ele>
        <time>2020-05-09T15:17:27Z</time>
      </trkpt>
      <trkpt lat="46.07399" lon="6.31392">
        <ele>513.48</ele>
        <time>2020-05-09T15:17:28Z</time>
      </trkpt>
      <trkpt lat="46.07397" lon="6.31404">
        <ele>513</ele>
        <time>2020-05-09T15:17:29Z</time>
      </trkpt>
      <trkpt lat="46.07394" lon="6.31412">
        <ele>512.52</ele>
        <time>2020-05-09T15:17:30Z</time>
      </trkpt>
      <trkpt lat="46.0739" lon="6.31423">
        <ele>512.04</ele>
        <time>2020-05-09T15:17:31Z</time>
      </trkpt>
      <trkpt lat="46.07386" lon="6.31435">
        <ele>511.56</ele>
        <time>2020-05-09T15:17:32Z</time>
      </trkpt>
      <trkpt lat="46.07379" lon="6.31454">
        <ele>511.56</ele>
        <time>2020-05-09T15:17:33Z</time>
      </trkpt>
      <trkpt lat="46.07372" lon="6.31462">
        <ele>511.56</ele>
        <time>2020-05-09T15:17:34Z</time>
      </trkpt>
      <trkpt lat="46.07285" lon="6.3157">
        <ele>509.64</ele>
        <time>2020-05-09T15:17:42Z</time>
      </trkpt>
      <trkpt lat="46.07211" lon="6.31679">
        <ele>509.16</ele>
        <time>2020-05-09T15:17:46Z</time>
      </trkpt>
      <trkpt lat="46.07124" lon="6.31819">
        <ele>508.67</ele>
        <time>2020-05-09T15:17:52Z</time>
      </trkpt>
      <trkpt lat="46.07034" lon="6.3205">
        <ele>506.27</ele>
        <time>2020-05-09T15:18:02Z</time>
      </trkpt>
      <trkpt lat="46.07027" lon="6.32125">
        <ele>506.75</ele>
        <time>2020-05-09T15:18:05Z</time>
      </trkpt>
      <trkpt lat="46.07026" lon="6.32149">
        <ele>506.75</ele>
        <time>2020-05-09T15:18:06Z</time>
      </trkpt>
      <trkpt lat="46.07029" lon="6.32215">
        <ele>506.27</ele>
        <time>2020-05-09T15:18:09Z</time>
      </trkpt>
      <trkpt lat="46.07032" lon="6.32236">
        <ele>506.27</ele>
        <time>2020-05-09T15:18:10Z</time>
      </trkpt>
      <trkpt lat="46.07081" lon="6.3243">
        <ele>500.5</ele>
        <time>2020-05-09T15:18:19Z</time>
      </trkpt>
      <trkpt lat="46.07109" lon="6.32656">
        <ele>493.29</ele>
        <time>2020-05-09T15:18:30Z</time>
      </trkpt>
      <trkpt lat="46.07114" lon="6.3273">
        <ele>488.97</ele>
        <time>2020-05-09T15:18:35Z</time>
      </trkpt>
      <trkpt lat="46.07114" lon="6.3274">
        <ele>488.49</ele>
        <time>2020-05-09T15:18:36Z</time>
      </trkpt>
      <trkpt lat="46.07108" lon="6.32759">
        <ele>487.53</ele>
        <time>2020-05-09T15:18:38Z</time>
      </trkpt>
      <trkpt lat="46.0711" lon="6.3277">
        <ele>486.56</ele>
        <time>2020-05-09T15:18:39Z</time>
      </trkpt>
      <trkpt lat="46.07115" lon="6.3278">
        <ele>486.08</ele>
        <time>2020-05-09T15:18:40Z</time>
      </trkpt>
      <trkpt lat="46.07122" lon="6.32782">
        <ele>485.6</ele>
        <time>2020-05-09T15:18:41Z</time>
      </trkpt>
      <trkpt lat="46.07131" lon="6.32779">
        <ele>485.12</ele>
        <time>2020-05-09T15:18:42Z</time>
      </trkpt>
      <trkpt lat="46.07136" lon="6.32776">
        <ele>485.12</ele>
        <time>2020-05-09T15:18:43Z</time>
      </trkpt>
      <trkpt lat="46.07149" lon="6.32755">
        <ele>484.64</ele>
        <time>2020-05-09T15:18:44Z</time>
      </trkpt>
      <trkpt lat="46.07161" lon="6.32744">
        <ele>484.16</ele>
        <time>2020-05-09T15:18:45Z</time>
      </trkpt>
      <trkpt lat="46.07173" lon="6.3273">
        <ele>483.2</ele>
        <time>2020-05-09T15:18:46Z</time>
      </trkpt>
      <trkpt lat="46.07183" lon="6.32714">
        <ele>482.24</ele>
        <time>2020-05-09T15:18:47Z</time>
      </trkpt>
      <trkpt lat="46.07216" lon="6.32664">
        <ele>479.35</ele>
        <time>2020-05-09T15:18:51Z</time>
      </trkpt>
      <trkpt lat="46.07222" lon="6.32656">
        <ele>479.35</ele>
        <time>2020-05-09T15:18:52Z</time>
      </trkpt>
      <trkpt lat="46.07226" lon="6.32649">
        <ele>478.87</ele>
        <time>2020-05-09T15:18:53Z</time>
      </trkpt>
      <trkpt lat="46.07235" lon="6.32645">
        <ele>478.39</ele>
        <time>2020-05-09T15:18:54Z</time>
      </trkpt>
      <trkpt lat="46.07233" lon="6.32636">
        <ele>477.91</ele>
        <time>2020-05-09T15:18:55Z</time>
      </trkpt>
      <trkpt lat="46.07224" lon="6.32634">
        <ele>477.43</ele>
        <time>2020-05-09T15:18:56Z</time>
      </trkpt>
      <trkpt lat="46.07218" lon="6.32625">
        <ele>476.95</ele>
        <time>2020-05-09T15:18:57Z</time>
      </trkpt>
      <trkpt lat="46.07211" lon="6.32613">
        <ele>477.43</ele>
        <time>2020-05-09T15:18:58Z</time>
      </trkpt>
      <trkpt lat="46.07204" lon="6.326">
        <ele>477.91</ele>
        <time>2020-05-09T15:18:59Z</time>
      </trkpt>
      <trkpt lat="46.07198" lon="6.32586">
        <ele>478.87</ele>
        <time>2020-05-09T15:19:00Z</time>
      </trkpt>
      <trkpt lat="46.07195" lon="6.3257">
        <ele>479.84</ele>
        <time>2020-05-09T15:19:01Z</time>
      </trkpt>
      <trkpt lat="46.07193" lon="6.32553">
        <ele>480.32</ele>
        <time>2020-05-09T15:19:02Z</time>
      </trkpt>
      <trkpt lat="46.07188" lon="6.32521">
        <ele>481.76</ele>
        <time>2020-05-09T15:19:04Z</time>
      </trkpt>
      <trkpt lat="46.07186" lon="6.32512">
        <ele>482.24</ele>
        <time>2020-05-09T15:19:05Z</time>
      </trkpt>
      <trkpt lat="46.07185" lon="6.32507">
        <ele>482.72</ele>
        <time>2020-05-09T15:19:06Z</time>
      </trkpt>
      <trkpt lat="46.07176" lon="6.32504">
        <ele>483.2</ele>
        <time>2020-05-09T15:19:07Z</time>
      </trkpt>
      <trkpt lat="46.07174" lon="6.3251">
        <ele>483.68</ele>
        <time>2020-05-09T15:19:08Z</time>
      </trkpt>
      <trkpt lat="46.0717" lon="6.32518">
        <ele>484.16</ele>
        <time>2020-05-09T15:19:09Z</time>
      </trkpt>
      <trkpt lat="46.07167" lon="6.32527">
        <ele>484.16</ele>
        <time>2020-05-09T15:19:10Z</time>
      </trkpt>
      <trkpt lat="46.07163" lon="6.32536">
        <ele>484.64</ele>
        <time>2020-05-09T15:19:11Z</time>
      </trkpt>
      <trkpt lat="46.07161" lon="6.32543">
        <ele>484.64</ele>
        <time>2020-05-09T15:19:12Z</time>
      </trkpt>
      <trkpt lat="46.07159" lon="6.32547">
        <ele>485.12</ele>
        <time>2020-05-09T15:19:13Z</time>
      </trkpt>
      <trkpt lat="46.07149" lon="6.32557">
        <ele>485.6</ele>
        <time>2020-05-09T15:19:14Z</time>
      </trkpt>
      <trkpt lat="46.07149" lon="6.32557">
        <ele>485.6</ele>
        <time>2020-05-09T15:19:25Z</time>
      </trkpt>
      <trkpt lat="46.07163" lon="6.32569">
        <ele>492.81</ele>
        <time>2020-05-09T15:54:04Z</time>
      </trkpt>
      <trkpt lat="46.07157" lon="6.32568">
        <ele>498.1</ele>
        <time>2020-05-09T15:54:05Z</time>
      </trkpt>
      <trkpt lat="46.07152" lon="6.32544">
        <ele>496.18</ele>
        <time>2020-05-09T15:54:18Z</time>
      </trkpt>
      <trkpt lat="46.07147" lon="6.32556">
        <ele>496.66</ele>
        <time>2020-05-09T15:54:20Z</time>
      </trkpt>
      <trkpt lat="46.07146" lon="6.32555">
        <ele>496.66</ele>
        <time>2020-05-09T15:54:21Z</time>
      </trkpt>
      <trkpt lat="46.07153" lon="6.32562">
        <ele>496.66</ele>
        <time>2020-05-09T15:54:22Z</time>
      </trkpt>
      <trkpt lat="46.07153" lon="6.32562">
        <ele>496.66</ele>
        <time>2020-05-09T15:54:23Z</time>
      </trkpt>
      <trkpt lat="46.07149" lon="6.3259">
        <ele>496.66</ele>
        <time>2020-05-09T15:54:24Z</time>
      </trkpt>
      <trkpt lat="46.07138" lon="6.32613">
        <ele>496.66</ele>
        <time>2020-05-09T15:54:26Z</time>
      </trkpt>
      <trkpt lat="46.07129" lon="6.32599">
        <ele>496.18</ele>
        <time>2020-05-09T15:54:27Z</time>
      </trkpt>
      <trkpt lat="46.07133" lon="6.32678">
        <ele>494.26</ele>
        <time>2020-05-09T15:54:32Z</time>
      </trkpt>
      <trkpt lat="46.07134" lon="6.32692">
        <ele>493.77</ele>
        <time>2020-05-09T15:54:33Z</time>
      </trkpt>
      <trkpt lat="46.0714" lon="6.32699">
        <ele>492.33</ele>
        <time>2020-05-09T15:54:34Z</time>
      </trkpt>
      <trkpt lat="46.07149" lon="6.32707">
        <ele>491.37</ele>
        <time>2020-05-09T15:54:35Z</time>
      </trkpt>
      <trkpt lat="46.07161" lon="6.32709">
        <ele>490.41</ele>
        <time>2020-05-09T15:54:36Z</time>
      </trkpt>
      <trkpt lat="46.07169" lon="6.32702">
        <ele>489.45</ele>
        <time>2020-05-09T15:54:37Z</time>
      </trkpt>
      <trkpt lat="46.07178" lon="6.32693">
        <ele>488.49</ele>
        <time>2020-05-09T15:54:38Z</time>
      </trkpt>
      <trkpt lat="46.07186" lon="6.3268">
        <ele>487.53</ele>
        <time>2020-05-09T15:54:39Z</time>
      </trkpt>
      <trkpt lat="46.07194" lon="6.32666">
        <ele>486.56</ele>
        <time>2020-05-09T15:54:40Z</time>
      </trkpt>
      <trkpt lat="46.07201" lon="6.32653">
        <ele>485.6</ele>
        <time>2020-05-09T15:54:41Z</time>
      </trkpt>
      <trkpt lat="46.07207" lon="6.32643">
        <ele>484.64</ele>
        <time>2020-05-09T15:54:42Z</time>
      </trkpt>
      <trkpt lat="46.07207" lon="6.32636">
        <ele>484.16</ele>
        <time>2020-05-09T15:54:43Z</time>
      </trkpt>
      <trkpt lat="46.07208" lon="6.32632">
        <ele>484.16</ele>
        <time>2020-05-09T15:54:44Z</time>
      </trkpt>
      <trkpt lat="46.07209" lon="6.32617">
        <ele>481.28</ele>
        <time>2020-05-09T15:54:53Z</time>
      </trkpt>
      <trkpt lat="46.07211" lon="6.32613">
        <ele>481.28</ele>
        <time>2020-05-09T15:54:54Z</time>
      </trkpt>
      <trkpt lat="46.07213" lon="6.32617">
        <ele>481.28</ele>
        <time>2020-05-09T15:54:55Z</time>
      </trkpt>
      <trkpt lat="46.07216" lon="6.32621">
        <ele>480.8</ele>
        <time>2020-05-09T15:54:56Z</time>
      </trkpt>
      <trkpt lat="46.07224" lon="6.32634">
        <ele>480.8</ele>
        <time>2020-05-09T15:54:57Z</time>
      </trkpt>
      <trkpt lat="46.07225" lon="6.32638">
        <ele>480.32</ele>
        <time>2020-05-09T15:54:58Z</time>
      </trkpt>
      <trkpt lat="46.07221" lon="6.32656">
        <ele>479.84</ele>
        <time>2020-05-09T15:54:59Z</time>
      </trkpt>
      <trkpt lat="46.07215" lon="6.32666">
        <ele>479.84</ele>
        <time>2020-05-09T15:55:00Z</time>
      </trkpt>
      <trkpt lat="46.07206" lon="6.32679">
        <ele>479.84</ele>
        <time>2020-05-09T15:55:01Z</time>
      </trkpt>
      <trkpt lat="46.07171" lon="6.32734">
        <ele>483.2</ele>
        <time>2020-05-09T15:55:05Z</time>
      </trkpt>
      <trkpt lat="46.07162" lon="6.32743">
        <ele>484.16</ele>
        <time>2020-05-09T15:55:06Z</time>
      </trkpt>
      <trkpt lat="46.07155" lon="6.32749">
        <ele>484.64</ele>
        <time>2020-05-09T15:55:07Z</time>
      </trkpt>
      <trkpt lat="46.07147" lon="6.32757">
        <ele>485.6</ele>
        <time>2020-05-09T15:55:08Z</time>
      </trkpt>
      <trkpt lat="46.07136" lon="6.3275">
        <ele>486.08</ele>
        <time>2020-05-09T15:55:09Z</time>
      </trkpt>
      <trkpt lat="46.07134" lon="6.32749">
        <ele>487.05</ele>
        <time>2020-05-09T15:55:10Z</time>
      </trkpt>
      <trkpt lat="46.07125" lon="6.32739">
        <ele>487.53</ele>
        <time>2020-05-09T15:55:11Z</time>
      </trkpt>
      <trkpt lat="46.07123" lon="6.32729">
        <ele>488.49</ele>
        <time>2020-05-09T15:55:12Z</time>
      </trkpt>
      <trkpt lat="46.07122" lon="6.3271">
        <ele>488.97</ele>
        <time>2020-05-09T15:55:13Z</time>
      </trkpt>
      <trkpt lat="46.0712" lon="6.32695">
        <ele>489.45</ele>
        <time>2020-05-09T15:55:14Z</time>
      </trkpt>
      <trkpt lat="46.07119" lon="6.3268">
        <ele>490.41</ele>
        <time>2020-05-09T15:55:15Z</time>
      </trkpt>
      <trkpt lat="46.07106" lon="6.32551">
        <ele>494.74</ele>
        <time>2020-05-09T15:55:22Z</time>
      </trkpt>
      <trkpt lat="46.07062" lon="6.32361">
        <ele>500.98</ele>
        <time>2020-05-09T15:55:30Z</time>
      </trkpt>
      <trkpt lat="46.07025" lon="6.32186">
        <ele>506.27</ele>
        <time>2020-05-09T15:55:39Z</time>
      </trkpt>
      <trkpt lat="46.07027" lon="6.32123">
        <ele>506.75</ele>
        <time>2020-05-09T15:55:44Z</time>
      </trkpt>
      <trkpt lat="46.07027" lon="6.32114">
        <ele>506.75</ele>
        <time>2020-05-09T15:55:45Z</time>
      </trkpt>
      <trkpt lat="46.0702" lon="6.321">
        <ele>507.23</ele>
        <time>2020-05-09T15:55:47Z</time>
      </trkpt>
      <trkpt lat="46.07006" lon="6.32096">
        <ele>507.23</ele>
        <time>2020-05-09T15:55:48Z</time>
      </trkpt>
      <trkpt lat="46.06993" lon="6.32091">
        <ele>507.71</ele>
        <time>2020-05-09T15:55:50Z</time>
      </trkpt>
      <trkpt lat="46.06986" lon="6.32089">
        <ele>507.71</ele>
        <time>2020-05-09T15:55:51Z</time>
      </trkpt>
      <trkpt lat="46.0698" lon="6.32083">
        <ele>507.71</ele>
        <time>2020-05-09T15:55:52Z</time>
      </trkpt>
      <trkpt lat="46.06977" lon="6.32073">
        <ele>508.19</ele>
        <time>2020-05-09T15:55:53Z</time>
      </trkpt>
      <trkpt lat="46.06974" lon="6.32063">
        <ele>508.67</ele>
        <time>2020-05-09T15:55:54Z</time>
      </trkpt>
      <trkpt lat="46.0697" lon="6.32051">
        <ele>509.16</ele>
        <time>2020-05-09T15:55:55Z</time>
      </trkpt>
      <trkpt lat="46.06946" lon="6.31966">
        <ele>512.04</ele>
        <time>2020-05-09T15:56:03Z</time>
      </trkpt>
      <trkpt lat="46.06912" lon="6.31859">
        <ele>514.44</ele>
        <time>2020-05-09T15:56:11Z</time>
      </trkpt>
      <trkpt lat="46.06909" lon="6.31849">
        <ele>514.44</ele>
        <time>2020-05-09T15:56:12Z</time>
      </trkpt>
      <trkpt lat="46.06906" lon="6.3184">
        <ele>514.44</ele>
        <time>2020-05-09T15:56:13Z</time>
      </trkpt>
      <trkpt lat="46.06876" lon="6.31743">
        <ele>517.81</ele>
        <time>2020-05-09T15:56:20Z</time>
      </trkpt>
      <trkpt lat="46.0685" lon="6.31656">
        <ele>522.61</ele>
        <time>2020-05-09T15:56:27Z</time>
      </trkpt>
      <trkpt lat="46.06817" lon="6.31555">
        <ele>528.38</ele>
        <time>2020-05-09T15:56:33Z</time>
      </trkpt>
      <trkpt lat="46.06804" lon="6.31514">
        <ele>530.3</ele>
        <time>2020-05-09T15:56:36Z</time>
      </trkpt>
      <trkpt lat="46.06799" lon="6.31501">
        <ele>531.27</ele>
        <time>2020-05-09T15:56:37Z</time>
      </trkpt>
      <trkpt lat="46.06795" lon="6.31488">
        <ele>532.23</ele>
        <time>2020-05-09T15:56:38Z</time>
      </trkpt>
      <trkpt lat="46.06782" lon="6.31447">
        <ele>534.63</ele>
        <time>2020-05-09T15:56:41Z</time>
      </trkpt>
      <trkpt lat="46.06752" lon="6.31376">
        <ele>537.99</ele>
        <time>2020-05-09T15:56:47Z</time>
      </trkpt>
      <trkpt lat="46.06751" lon="6.31361">
        <ele>538.48</ele>
        <time>2020-05-09T15:56:48Z</time>
      </trkpt>
      <trkpt lat="46.06749" lon="6.31332">
        <ele>540.4</ele>
        <time>2020-05-09T15:56:50Z</time>
      </trkpt>
      <trkpt lat="46.06739" lon="6.31297">
        <ele>542.32</ele>
        <time>2020-05-09T15:56:54Z</time>
      </trkpt>
      <trkpt lat="46.06737" lon="6.31292">
        <ele>542.8</ele>
        <time>2020-05-09T15:56:55Z</time>
      </trkpt>
      <trkpt lat="46.06735" lon="6.31286">
        <ele>543.28</ele>
        <time>2020-05-09T15:56:56Z</time>
      </trkpt>
      <trkpt lat="46.06732" lon="6.31281">
        <ele>544.24</ele>
        <time>2020-05-09T15:56:57Z</time>
      </trkpt>
      <trkpt lat="46.06729" lon="6.31272">
        <ele>544.72</ele>
        <time>2020-05-09T15:56:58Z</time>
      </trkpt>
      <trkpt lat="46.06734" lon="6.31255">
        <ele>545.2</ele>
        <time>2020-05-09T15:56:59Z</time>
      </trkpt>
      <trkpt lat="46.06727" lon="6.31247">
        <ele>546.17</ele>
        <time>2020-05-09T15:57:00Z</time>
      </trkpt>
      <trkpt lat="46.06725" lon="6.31236">
        <ele>546.65</ele>
        <time>2020-05-09T15:57:01Z</time>
      </trkpt>
      <trkpt lat="46.06724" lon="6.31226">
        <ele>547.13</ele>
        <time>2020-05-09T15:57:02Z</time>
      </trkpt>
      <trkpt lat="46.06711" lon="6.31199">
        <ele>548.57</ele>
        <time>2020-05-09T15:57:04Z</time>
      </trkpt>
      <trkpt lat="46.06666" lon="6.31145">
        <ele>550.97</ele>
        <time>2020-05-09T15:57:10Z</time>
      </trkpt>
      <trkpt lat="46.06652" lon="6.31136">
        <ele>551.93</ele>
        <time>2020-05-09T15:57:15Z</time>
      </trkpt>
      <trkpt lat="46.0665" lon="6.31135">
        <ele>552.41</ele>
        <time>2020-05-09T15:57:16Z</time>
      </trkpt>
      <trkpt lat="46.06647" lon="6.31133">
        <ele>552.41</ele>
        <time>2020-05-09T15:57:17Z</time>
      </trkpt>
      <trkpt lat="46.06641" lon="6.31129">
        <ele>552.41</ele>
        <time>2020-05-09T15:57:18Z</time>
      </trkpt>
      <trkpt lat="46.06633" lon="6.31123">
        <ele>552.9</ele>
        <time>2020-05-09T15:57:19Z</time>
      </trkpt>
      <trkpt lat="46.06621" lon="6.31113">
        <ele>552.9</ele>
        <time>2020-05-09T15:57:21Z</time>
      </trkpt>
      <trkpt lat="46.06615" lon="6.31109">
        <ele>552.9</ele>
        <time>2020-05-09T15:57:22Z</time>
      </trkpt>
      <trkpt lat="46.06611" lon="6.31107">
        <ele>552.9</ele>
        <time>2020-05-09T15:57:23Z</time>
      </trkpt>
      <trkpt lat="46.06607" lon="6.31104">
        <ele>553.38</ele>
        <time>2020-05-09T15:57:24Z</time>
      </trkpt>
      <trkpt lat="46.06602" lon="6.31101">
        <ele>553.38</ele>
        <time>2020-05-09T15:57:25Z</time>
      </trkpt>
      <trkpt lat="46.06598" lon="6.31095">
        <ele>553.86</ele>
        <time>2020-05-09T15:57:26Z</time>
      </trkpt>
      <trkpt lat="46.06599" lon="6.31089">
        <ele>553.86</ele>
        <time>2020-05-09T15:57:27Z</time>
      </trkpt>
      <trkpt lat="46.066" lon="6.31082">
        <ele>554.34</ele>
        <time>2020-05-09T15:57:28Z</time>
      </trkpt>
      <trkpt lat="46.06601" lon="6.31077">
        <ele>554.34</ele>
        <time>2020-05-09T15:57:29Z</time>
      </trkpt>
      <trkpt lat="46.06601" lon="6.31073">
        <ele>554.82</ele>
        <time>2020-05-09T15:57:30Z</time>
      </trkpt>
      <trkpt lat="46.06602" lon="6.31069">
        <ele>554.82</ele>
        <time>2020-05-09T15:57:31Z</time>
      </trkpt>
      <trkpt lat="46.06602" lon="6.31067">
        <ele>555.3</ele>
        <time>2020-05-09T15:57:32Z</time>
      </trkpt>
      <trkpt lat="46.06605" lon="6.31044">
        <ele>556.74</ele>
        <time>2020-05-09T15:57:35Z</time>
      </trkpt>
      <trkpt lat="46.06606" lon="6.31031">
        <ele>557.22</ele>
        <time>2020-05-09T15:57:36Z</time>
      </trkpt>
      <trkpt lat="46.06611" lon="6.31007">
        <ele>557.7</ele>
        <time>2020-05-09T15:57:38Z</time>
      </trkpt>
      <trkpt lat="46.06615" lon="6.30987">
        <ele>559.14</ele>
        <time>2020-05-09T15:57:40Z</time>
      </trkpt>
      <trkpt lat="46.0662" lon="6.30964">
        <ele>561.07</ele>
        <time>2020-05-09T15:57:42Z</time>
      </trkpt>
      <trkpt lat="46.06622" lon="6.30953">
        <ele>562.03</ele>
        <time>2020-05-09T15:57:43Z</time>
      </trkpt>
      <trkpt lat="46.06625" lon="6.30941">
        <ele>563.47</ele>
        <time>2020-05-09T15:57:44Z</time>
      </trkpt>
      <trkpt lat="46.06627" lon="6.30931">
        <ele>564.43</ele>
        <time>2020-05-09T15:57:45Z</time>
      </trkpt>
      <trkpt lat="46.06628" lon="6.30925">
        <ele>564.91</ele>
        <time>2020-05-09T15:57:46Z</time>
      </trkpt>
      <trkpt lat="46.06632" lon="6.30914">
        <ele>566.35</ele>
        <time>2020-05-09T15:57:48Z</time>
      </trkpt>
      <trkpt lat="46.06649" lon="6.30911">
        <ele>566.83</ele>
        <time>2020-05-09T15:57:49Z</time>
      </trkpt>
      <trkpt lat="46.06649" lon="6.30911">
        <ele>567.8</ele>
        <time>2020-05-09T15:57:50Z</time>
      </trkpt>
      <trkpt lat="46.06654" lon="6.3091">
        <ele>568.28</ele>
        <time>2020-05-09T15:57:51Z</time>
      </trkpt>
      <trkpt lat="46.06661" lon="6.30908">
        <ele>568.76</ele>
        <time>2020-05-09T15:57:52Z</time>
      </trkpt>
      <trkpt lat="46.06667" lon="6.30907">
        <ele>569.72</ele>
        <time>2020-05-09T15:57:53Z</time>
      </trkpt>
      <trkpt lat="46.06672" lon="6.30906">
        <ele>570.68</ele>
        <time>2020-05-09T15:57:54Z</time>
      </trkpt>
      <trkpt lat="46.06689" lon="6.30901">
        <ele>572.6</ele>
        <time>2020-05-09T15:57:57Z</time>
      </trkpt>
      <trkpt lat="46.06695" lon="6.30896">
        <ele>573.08</ele>
        <time>2020-05-09T15:57:58Z</time>
      </trkpt>
      <trkpt lat="46.067" lon="6.30888">
        <ele>573.08</ele>
        <time>2020-05-09T15:57:59Z</time>
      </trkpt>
      <trkpt lat="46.06723" lon="6.30852">
        <ele>573.08</ele>
        <time>2020-05-09T15:58:03Z</time>
      </trkpt>
      <trkpt lat="46.06729" lon="6.30844">
        <ele>573.08</ele>
        <time>2020-05-09T15:58:04Z</time>
      </trkpt>
      <trkpt lat="46.06733" lon="6.30836">
        <ele>572.6</ele>
        <time>2020-05-09T15:58:05Z</time>
      </trkpt>
      <trkpt lat="46.06737" lon="6.30831">
        <ele>572.12</ele>
        <time>2020-05-09T15:58:06Z</time>
      </trkpt>
      <trkpt lat="46.06741" lon="6.30825">
        <ele>571.64</ele>
        <time>2020-05-09T15:58:07Z</time>
      </trkpt>
      <trkpt lat="46.06745" lon="6.30818">
        <ele>571.16</ele>
        <time>2020-05-09T15:58:08Z</time>
      </trkpt>
      <trkpt lat="46.06749" lon="6.30813">
        <ele>570.2</ele>
        <time>2020-05-09T15:58:09Z</time>
      </trkpt>
      <trkpt lat="46.06751" lon="6.3081">
        <ele>569.24</ele>
        <time>2020-05-09T15:58:10Z</time>
      </trkpt>
      <trkpt lat="46.06751" lon="6.3081">
        <ele>569.24</ele>
        <time>2020-05-09T15:58:11Z</time>
      </trkpt>
      <trkpt lat="46.06751" lon="6.3081">
        <ele>568.76</ele>
        <time>2020-05-09T15:58:28Z</time>
      </trkpt>
      <trkpt lat="46.06751" lon="6.3081">
        <ele>568.76</ele>
        <time>2020-05-09T15:58:40Z</time>
      </trkpt>
      <trkpt lat="46.06752" lon="6.30808">
        <ele>567.32</ele>
        <time>2020-05-09T15:58:43Z</time>
      </trkpt>
      <trkpt lat="46.06753" lon="6.30807">
        <ele>566.35</ele>
        <time>2020-05-09T15:58:44Z</time>
      </trkpt>
      <trkpt lat="46.06754" lon="6.30805">
        <ele>565.87</ele>
        <time>2020-05-09T15:58:45Z</time>
      </trkpt>
    </trkseg>
  </trk>
  <trk>
    <name><![CDATA[Journal actif: 2020-05-14 13:39]]></name>
    <trkseg>
      <trkpt lat="46.069" lon="6.31821">
        <ele>544.72</ele>
        <time>2020-05-14T11:39:40Z</time>
      </trkpt>
      <trkpt lat="46.06961" lon="6.32018">
        <ele>539.92</ele>
        <time>2020-05-14T11:39:51Z</time>
      </trkpt>
      <trkpt lat="46.06982" lon="6.32088">
        <ele>539.92</ele>
        <time>2020-05-14T11:39:57Z</time>
      </trkpt>
      <trkpt lat="46.06986" lon="6.32094">
        <ele>539.44</ele>
        <time>2020-05-14T11:39:58Z</time>
      </trkpt>
      <trkpt lat="46.06992" lon="6.32104">
        <ele>538.96</ele>
        <time>2020-05-14T11:39:59Z</time>
      </trkpt>
      <trkpt lat="46.06992" lon="6.32104">
        <ele>538.48</ele>
        <time>2020-05-14T11:40:00Z</time>
      </trkpt>
      <trkpt lat="46.06997" lon="6.32107">
        <ele>532.23</ele>
        <time>2020-05-14T11:40:01Z</time>
      </trkpt>
      <trkpt lat="46.07006" lon="6.32111">
        <ele>529.34</ele>
        <time>2020-05-14T11:40:02Z</time>
      </trkpt>
      <trkpt lat="46.07011" lon="6.32113">
        <ele>527.42</ele>
        <time>2020-05-14T11:40:03Z</time>
      </trkpt>
      <trkpt lat="46.07011" lon="6.32113">
        <ele>524.06</ele>
        <time>2020-05-14T11:40:04Z</time>
      </trkpt>
      <trkpt lat="46.07026" lon="6.32125">
        <ele>521.65</ele>
        <time>2020-05-14T11:40:07Z</time>
      </trkpt>
      <trkpt lat="46.07026" lon="6.32154">
        <ele>521.17</ele>
        <time>2020-05-14T11:40:09Z</time>
      </trkpt>
      <trkpt lat="46.07038" lon="6.32268">
        <ele>521.17</ele>
        <time>2020-05-14T11:40:14Z</time>
      </trkpt>
      <trkpt lat="46.07083" lon="6.32439">
        <ele>521.17</ele>
        <time>2020-05-14T11:40:22Z</time>
      </trkpt>
      <trkpt lat="46.07107" lon="6.32618">
        <ele>518.29</ele>
        <time>2020-05-14T11:40:31Z</time>
      </trkpt>
      <trkpt lat="46.07109" lon="6.3266">
        <ele>509.16</ele>
        <time>2020-05-14T11:40:36Z</time>
      </trkpt>
      <trkpt lat="46.07108" lon="6.3275">
        <ele>502.43</ele>
        <time>2020-05-14T11:40:42Z</time>
      </trkpt>
      <trkpt lat="46.07108" lon="6.3275">
        <ele>501.46</ele>
        <time>2020-05-14T11:40:43Z</time>
      </trkpt>
      <trkpt lat="46.07114" lon="6.32779">
        <ele>499.06</ele>
        <time>2020-05-14T11:40:45Z</time>
      </trkpt>
      <trkpt lat="46.07123" lon="6.32783">
        <ele>498.58</ele>
        <time>2020-05-14T11:40:46Z</time>
      </trkpt>
      <trkpt lat="46.07132" lon="6.32778">
        <ele>498.1</ele>
        <time>2020-05-14T11:40:47Z</time>
      </trkpt>
      <trkpt lat="46.07136" lon="6.32776">
        <ele>497.62</ele>
        <time>2020-05-14T11:40:48Z</time>
      </trkpt>
      <trkpt lat="46.07143" lon="6.32758">
        <ele>496.66</ele>
        <time>2020-05-14T11:40:49Z</time>
      </trkpt>
      <trkpt lat="46.07148" lon="6.32755">
        <ele>496.18</ele>
        <time>2020-05-14T11:40:50Z</time>
      </trkpt>
      <trkpt lat="46.07154" lon="6.3275">
        <ele>495.7</ele>
        <time>2020-05-14T11:40:51Z</time>
      </trkpt>
      <trkpt lat="46.07168" lon="6.32737">
        <ele>494.74</ele>
        <time>2020-05-14T11:40:53Z</time>
      </trkpt>
      <trkpt lat="46.07182" lon="6.32716">
        <ele>493.29</ele>
        <time>2020-05-14T11:40:56Z</time>
      </trkpt>
      <trkpt lat="46.07216" lon="6.32665">
        <ele>490.89</ele>
        <time>2020-05-14T11:41:03Z</time>
      </trkpt>
      <trkpt lat="46.07221" lon="6.32657">
        <ele>489.93</ele>
        <time>2020-05-14T11:41:05Z</time>
      </trkpt>
      <trkpt lat="46.07235" lon="6.32641">
        <ele>488.97</ele>
        <time>2020-05-14T11:41:07Z</time>
      </trkpt>
      <trkpt lat="46.07233" lon="6.32634">
        <ele>488.97</ele>
        <time>2020-05-14T11:41:08Z</time>
      </trkpt>
      <trkpt lat="46.07224" lon="6.32634">
        <ele>488.49</ele>
        <time>2020-05-14T11:41:09Z</time>
      </trkpt>
      <trkpt lat="46.07222" lon="6.32631">
        <ele>488.01</ele>
        <time>2020-05-14T11:41:10Z</time>
      </trkpt>
      <trkpt lat="46.07218" lon="6.32626">
        <ele>488.01</ele>
        <time>2020-05-14T11:41:11Z</time>
      </trkpt>
      <trkpt lat="46.07214" lon="6.32619">
        <ele>488.01</ele>
        <time>2020-05-14T11:41:12Z</time>
      </trkpt>
      <trkpt lat="46.07209" lon="6.32611">
        <ele>488.01</ele>
        <time>2020-05-14T11:41:13Z</time>
      </trkpt>
      <trkpt lat="46.07205" lon="6.32603">
        <ele>488.49</ele>
        <time>2020-05-14T11:41:14Z</time>
      </trkpt>
      <trkpt lat="46.07202" lon="6.32595">
        <ele>488.97</ele>
        <time>2020-05-14T11:41:15Z</time>
      </trkpt>
      <trkpt lat="46.07196" lon="6.32577">
        <ele>489.45</ele>
        <time>2020-05-14T11:41:17Z</time>
      </trkpt>
      <trkpt lat="46.07194" lon="6.32567">
        <ele>489.93</ele>
        <time>2020-05-14T11:41:18Z</time>
      </trkpt>
      <trkpt lat="46.07193" lon="6.32556">
        <ele>490.41</ele>
        <time>2020-05-14T11:41:19Z</time>
      </trkpt>
      <trkpt lat="46.07192" lon="6.32546">
        <ele>490.89</ele>
        <time>2020-05-14T11:41:20Z</time>
      </trkpt>
      <trkpt lat="46.07191" lon="6.32536">
        <ele>490.89</ele>
        <time>2020-05-14T11:41:21Z</time>
      </trkpt>
      <trkpt lat="46.07188" lon="6.32521">
        <ele>492.33</ele>
        <time>2020-05-14T11:41:23Z</time>
      </trkpt>
      <trkpt lat="46.07187" lon="6.32515">
        <ele>492.81</ele>
        <time>2020-05-14T11:41:24Z</time>
      </trkpt>
      <trkpt lat="46.07186" lon="6.32511">
        <ele>492.81</ele>
        <time>2020-05-14T11:41:25Z</time>
      </trkpt>
      <trkpt lat="46.07185" lon="6.32507">
        <ele>493.29</ele>
        <time>2020-05-14T11:41:26Z</time>
      </trkpt>
      <trkpt lat="46.07175" lon="6.32507">
        <ele>494.26</ele>
        <time>2020-05-14T11:41:27Z</time>
      </trkpt>
      <trkpt lat="46.07172" lon="6.32513">
        <ele>494.74</ele>
        <time>2020-05-14T11:41:28Z</time>
      </trkpt>
      <trkpt lat="46.07169" lon="6.32523">
        <ele>495.22</ele>
        <time>2020-05-14T11:41:29Z</time>
      </trkpt>
      <trkpt lat="46.07165" lon="6.32532">
        <ele>495.7</ele>
        <time>2020-05-14T11:41:30Z</time>
      </trkpt>
      <trkpt lat="46.07162" lon="6.3254">
        <ele>496.66</ele>
        <time>2020-05-14T11:41:31Z</time>
      </trkpt>
      <trkpt lat="46.07159" lon="6.32546">
        <ele>497.14</ele>
        <time>2020-05-14T11:41:32Z</time>
      </trkpt>
      <trkpt lat="46.07158" lon="6.3255">
        <ele>497.62</ele>
        <time>2020-05-14T11:41:33Z</time>
      </trkpt>
      <trkpt lat="46.07157" lon="6.32551">
        <ele>498.1</ele>
        <time>2020-05-14T11:41:34Z</time>
      </trkpt>
      <trkpt lat="46.07157" lon="6.32552">
        <ele>499.06</ele>
        <time>2020-05-14T11:41:35Z</time>
      </trkpt>
      <trkpt lat="46.07157" lon="6.32552">
        <ele>499.54</ele>
        <time>2020-05-14T11:41:50Z</time>
      </trkpt>
      <trkpt lat="46.07157" lon="6.32552">
        <ele>498.58</ele>
        <time>2020-05-14T11:42:22Z</time>
      </trkpt>
      <trkpt lat="46.07157" lon="6.32552">
        <ele>498.1</ele>
        <time>2020-05-14T11:43:17Z</time>
      </trkpt>
      <trkpt lat="46.07155" lon="6.32545">
        <ele>495.7</ele>
        <time>2020-05-14T11:53:49Z</time>
      </trkpt>
      <trkpt lat="46.07155" lon="6.3255">
        <ele>498.1</ele>
        <time>2020-05-14T11:54:00Z</time>
      </trkpt>
      <trkpt lat="46.07151" lon="6.3256">
        <ele>499.54</ele>
        <time>2020-05-14T11:54:04Z</time>
      </trkpt>
      <trkpt lat="46.07171" lon="6.32516">
        <ele>498.58</ele>
        <time>2020-05-14T11:54:09Z</time>
      </trkpt>
      <trkpt lat="46.07173" lon="6.32511">
        <ele>498.58</ele>
        <time>2020-05-14T11:54:10Z</time>
      </trkpt>
      <trkpt lat="46.0719" lon="6.32527">
        <ele>498.58</ele>
        <time>2020-05-14T11:54:11Z</time>
      </trkpt>
      <trkpt lat="46.07187" lon="6.32514">
        <ele>498.58</ele>
        <time>2020-05-14T11:54:12Z</time>
      </trkpt>
      <trkpt lat="46.07188" lon="6.32519">
        <ele>498.58</ele>
        <time>2020-05-14T11:54:13Z</time>
      </trkpt>
      <trkpt lat="46.0719" lon="6.32527">
        <ele>498.1</ele>
        <time>2020-05-14T11:54:14Z</time>
      </trkpt>
      <trkpt lat="46.07191" lon="6.32541">
        <ele>498.1</ele>
        <time>2020-05-14T11:54:15Z</time>
      </trkpt>
      <trkpt lat="46.07193" lon="6.32557">
        <ele>497.62</ele>
        <time>2020-05-14T11:54:16Z</time>
      </trkpt>
      <trkpt lat="46.07195" lon="6.32572">
        <ele>497.14</ele>
        <time>2020-05-14T11:54:17Z</time>
      </trkpt>
      <trkpt lat="46.07196" lon="6.32583">
        <ele>497.14</ele>
        <time>2020-05-14T11:54:18Z</time>
      </trkpt>
      <trkpt lat="46.07203" lon="6.32597">
        <ele>496.66</ele>
        <time>2020-05-14T11:54:19Z</time>
      </trkpt>
      <trkpt lat="46.07209" lon="6.32611">
        <ele>496.18</ele>
        <time>2020-05-14T11:54:20Z</time>
      </trkpt>
      <trkpt lat="46.07214" lon="6.32619">
        <ele>495.7</ele>
        <time>2020-05-14T11:54:21Z</time>
      </trkpt>
      <trkpt lat="46.07224" lon="6.32634">
        <ele>495.22</ele>
        <time>2020-05-14T11:54:22Z</time>
      </trkpt>
      <trkpt lat="46.07225" lon="6.32641">
        <ele>495.22</ele>
        <time>2020-05-14T11:54:23Z</time>
      </trkpt>
      <trkpt lat="46.07221" lon="6.32658">
        <ele>494.74</ele>
        <time>2020-05-14T11:54:24Z</time>
      </trkpt>
      <trkpt lat="46.07215" lon="6.32665">
        <ele>493.77</ele>
        <time>2020-05-14T11:54:25Z</time>
      </trkpt>
      <trkpt lat="46.07207" lon="6.32677">
        <ele>493.29</ele>
        <time>2020-05-14T11:54:26Z</time>
      </trkpt>
      <trkpt lat="46.072" lon="6.32689">
        <ele>493.29</ele>
        <time>2020-05-14T11:54:27Z</time>
      </trkpt>
      <trkpt lat="46.07171" lon="6.32733">
        <ele>493.77</ele>
        <time>2020-05-14T11:54:30Z</time>
      </trkpt>
      <trkpt lat="46.07162" lon="6.32743">
        <ele>494.26</ele>
        <time>2020-05-14T11:54:31Z</time>
      </trkpt>
      <trkpt lat="46.07154" lon="6.3275">
        <ele>494.74</ele>
        <time>2020-05-14T11:54:32Z</time>
      </trkpt>
      <trkpt lat="46.07146" lon="6.32757">
        <ele>495.22</ele>
        <time>2020-05-14T11:54:33Z</time>
      </trkpt>
      <trkpt lat="46.07136" lon="6.3275">
        <ele>495.22</ele>
        <time>2020-05-14T11:54:34Z</time>
      </trkpt>
      <trkpt lat="46.07132" lon="6.32747">
        <ele>496.18</ele>
        <time>2020-05-14T11:54:35Z</time>
      </trkpt>
      <trkpt lat="46.07125" lon="6.32739">
        <ele>496.66</ele>
        <time>2020-05-14T11:54:36Z</time>
      </trkpt>
      <trkpt lat="46.07123" lon="6.32729">
        <ele>497.14</ele>
        <time>2020-05-14T11:54:37Z</time>
      </trkpt>
      <trkpt lat="46.07121" lon="6.32708">
        <ele>498.1</ele>
        <time>2020-05-14T11:54:38Z</time>
      </trkpt>
      <trkpt lat="46.0712" lon="6.3269">
        <ele>498.58</ele>
        <time>2020-05-14T11:54:39Z</time>
      </trkpt>
      <trkpt lat="46.07118" lon="6.32671">
        <ele>499.06</ele>
        <time>2020-05-14T11:54:40Z</time>
      </trkpt>
      <trkpt lat="46.07094" lon="6.32472">
        <ele>504.35</ele>
        <time>2020-05-14T11:54:51Z</time>
      </trkpt>
      <trkpt lat="46.07041" lon="6.32282">
        <ele>511.56</ele>
        <time>2020-05-14T11:55:01Z</time>
      </trkpt>
      <trkpt lat="46.07025" lon="6.32177">
        <ele>513.48</ele>
        <time>2020-05-14T11:55:06Z</time>
      </trkpt>
      <trkpt lat="46.07027" lon="6.32118">
        <ele>514.92</ele>
        <time>2020-05-14T11:55:10Z</time>
      </trkpt>
      <trkpt lat="46.07023" lon="6.32101">
        <ele>514.92</ele>
        <time>2020-05-14T11:55:11Z</time>
      </trkpt>
      <trkpt lat="46.07017" lon="6.32099">
        <ele>514.92</ele>
        <time>2020-05-14T11:55:12Z</time>
      </trkpt>
      <trkpt lat="46.07009" lon="6.32097">
        <ele>514.92</ele>
        <time>2020-05-14T11:55:13Z</time>
      </trkpt>
      <trkpt lat="46.07" lon="6.32094">
        <ele>514.92</ele>
        <time>2020-05-14T11:55:14Z</time>
      </trkpt>
      <trkpt lat="46.06992" lon="6.32091">
        <ele>515.4</ele>
        <time>2020-05-14T11:55:15Z</time>
      </trkpt>
      <trkpt lat="46.06982" lon="6.32087">
        <ele>515.4</ele>
        <time>2020-05-14T11:55:16Z</time>
      </trkpt>
      <trkpt lat="46.06978" lon="6.32077">
        <ele>515.4</ele>
        <time>2020-05-14T11:55:17Z</time>
      </trkpt>
      <trkpt lat="46.06974" lon="6.32063">
        <ele>515.88</ele>
        <time>2020-05-14T11:55:18Z</time>
      </trkpt>
      <trkpt lat="46.06968" lon="6.32046">
        <ele>515.88</ele>
        <time>2020-05-14T11:55:19Z</time>
      </trkpt>
      <trkpt lat="46.06915" lon="6.3187">
        <ele>519.73</ele>
        <time>2020-05-14T11:55:29Z</time>
      </trkpt>
      <trkpt lat="46.06849" lon="6.31653">
        <ele>527.42</ele>
        <time>2020-05-14T11:55:41Z</time>
      </trkpt>
      <trkpt lat="46.06795" lon="6.31488">
        <ele>535.11</ele>
        <time>2020-05-14T11:55:51Z</time>
      </trkpt>
      <trkpt lat="46.06767" lon="6.31415">
        <ele>539.92</ele>
        <time>2020-05-14T11:55:56Z</time>
      </trkpt>
      <trkpt lat="46.06762" lon="6.31403">
        <ele>540.88</ele>
        <time>2020-05-14T11:55:57Z</time>
      </trkpt>
      <trkpt lat="46.06752" lon="6.31375">
        <ele>543.28</ele>
        <time>2020-05-14T11:56:00Z</time>
      </trkpt>
      <trkpt lat="46.06751" lon="6.31364">
        <ele>543.76</ele>
        <time>2020-05-14T11:56:01Z</time>
      </trkpt>
      <trkpt lat="46.0675" lon="6.31336">
        <ele>545.2</ele>
        <time>2020-05-14T11:56:04Z</time>
      </trkpt>
      <trkpt lat="46.06748" lon="6.31326">
        <ele>545.2</ele>
        <time>2020-05-14T11:56:05Z</time>
      </trkpt>
      <trkpt lat="46.06743" lon="6.31311">
        <ele>546.65</ele>
        <time>2020-05-14T11:56:08Z</time>
      </trkpt>
      <trkpt lat="46.06741" lon="6.31302">
        <ele>547.61</ele>
        <time>2020-05-14T11:56:10Z</time>
      </trkpt>
      <trkpt lat="46.06738" lon="6.31296">
        <ele>547.61</ele>
        <time>2020-05-14T11:56:11Z</time>
      </trkpt>
      <trkpt lat="46.0673" lon="6.31274">
        <ele>548.57</ele>
        <time>2020-05-14T11:56:14Z</time>
      </trkpt>
      <trkpt lat="46.06733" lon="6.31253">
        <ele>549.53</ele>
        <time>2020-05-14T11:56:16Z</time>
      </trkpt>
      <trkpt lat="46.06726" lon="6.31246">
        <ele>549.53</ele>
        <time>2020-05-14T11:56:17Z</time>
      </trkpt>
      <trkpt lat="46.06725" lon="6.31238">
        <ele>550.01</ele>
        <time>2020-05-14T11:56:18Z</time>
      </trkpt>
      <trkpt lat="46.06724" lon="6.31229">
        <ele>550.01</ele>
        <time>2020-05-14T11:56:19Z</time>
      </trkpt>
      <trkpt lat="46.06723" lon="6.3122">
        <ele>550.49</ele>
        <time>2020-05-14T11:56:20Z</time>
      </trkpt>
      <trkpt lat="46.06717" lon="6.31207">
        <ele>550.49</ele>
        <time>2020-05-14T11:56:21Z</time>
      </trkpt>
      <trkpt lat="46.06713" lon="6.31201">
        <ele>550.97</ele>
        <time>2020-05-14T11:56:22Z</time>
      </trkpt>
      <trkpt lat="46.06666" lon="6.31145">
        <ele>555.3</ele>
        <time>2020-05-14T11:56:30Z</time>
      </trkpt>
      <trkpt lat="46.0666" lon="6.31141">
        <ele>555.78</ele>
        <time>2020-05-14T11:56:31Z</time>
      </trkpt>
      <trkpt lat="46.06645" lon="6.31131">
        <ele>556.74</ele>
        <time>2020-05-14T11:56:33Z</time>
      </trkpt>
      <trkpt lat="46.06636" lon="6.31125">
        <ele>557.7</ele>
        <time>2020-05-14T11:56:34Z</time>
      </trkpt>
      <trkpt lat="46.06619" lon="6.31112">
        <ele>559.14</ele>
        <time>2020-05-14T11:56:36Z</time>
      </trkpt>
      <trkpt lat="46.06611" lon="6.31107">
        <ele>559.62</ele>
        <time>2020-05-14T11:56:37Z</time>
      </trkpt>
      <trkpt lat="46.066" lon="6.31099">
        <ele>559.62</ele>
        <time>2020-05-14T11:56:39Z</time>
      </trkpt>
      <trkpt lat="46.06599" lon="6.3109">
        <ele>559.62</ele>
        <time>2020-05-14T11:56:40Z</time>
      </trkpt>
      <trkpt lat="46.066" lon="6.31083">
        <ele>559.14</ele>
        <time>2020-05-14T11:56:41Z</time>
      </trkpt>
      <trkpt lat="46.06604" lon="6.31055">
        <ele>559.14</ele>
        <time>2020-05-14T11:56:43Z</time>
      </trkpt>
      <trkpt lat="46.06605" lon="6.31039">
        <ele>559.14</ele>
        <time>2020-05-14T11:56:44Z</time>
      </trkpt>
      <trkpt lat="46.0661" lon="6.31009">
        <ele>560.59</ele>
        <time>2020-05-14T11:56:46Z</time>
      </trkpt>
      <trkpt lat="46.06613" lon="6.30996">
        <ele>561.55</ele>
        <time>2020-05-14T11:56:47Z</time>
      </trkpt>
      <trkpt lat="46.06624" lon="6.30942">
        <ele>565.87</ele>
        <time>2020-05-14T11:56:52Z</time>
      </trkpt>
      <trkpt lat="46.06633" lon="6.3091">
        <ele>567.32</ele>
        <time>2020-05-14T11:56:55Z</time>
      </trkpt>
      <trkpt lat="46.06641" lon="6.30908">
        <ele>567.8</ele>
        <time>2020-05-14T11:56:56Z</time>
      </trkpt>
      <trkpt lat="46.06646" lon="6.3091">
        <ele>568.76</ele>
        <time>2020-05-14T11:56:57Z</time>
      </trkpt>
      <trkpt lat="46.06652" lon="6.30911">
        <ele>569.24</ele>
        <time>2020-05-14T11:56:58Z</time>
      </trkpt>
      <trkpt lat="46.0666" lon="6.30909">
        <ele>569.72</ele>
        <time>2020-05-14T11:56:59Z</time>
      </trkpt>
      <trkpt lat="46.06669" lon="6.30906">
        <ele>570.68</ele>
        <time>2020-05-14T11:57:00Z</time>
      </trkpt>
      <trkpt lat="46.06685" lon="6.30903">
        <ele>571.64</ele>
        <time>2020-05-14T11:57:02Z</time>
      </trkpt>
      <trkpt lat="46.06693" lon="6.309">
        <ele>572.6</ele>
        <time>2020-05-14T11:57:03Z</time>
      </trkpt>
      <trkpt lat="46.06699" lon="6.3089">
        <ele>573.08</ele>
        <time>2020-05-14T11:57:04Z</time>
      </trkpt>
      <trkpt lat="46.06706" lon="6.30879">
        <ele>573.56</ele>
        <time>2020-05-14T11:57:05Z</time>
      </trkpt>
      <trkpt lat="46.06715" lon="6.30866">
        <ele>574.04</ele>
        <time>2020-05-14T11:57:06Z</time>
      </trkpt>
      <trkpt lat="46.06748" lon="6.30813">
        <ele>573.56</ele>
        <time>2020-05-14T11:57:12Z</time>
      </trkpt>
      <trkpt lat="46.06749" lon="6.30812">
        <ele>573.56</ele>
        <time>2020-05-14T11:57:13Z</time>
      </trkpt>
      <trkpt lat="46.06749" lon="6.30812">
        <ele>573.56</ele>
        <time>2020-05-14T11:57:14Z</time>
      </trkpt>
      <trkpt lat="46.06749" lon="6.30812">
        <ele>574.04</ele>
        <time>2020-05-14T11:57:28Z</time>
      </trkpt>
    </trkseg>
  </trk>
  <trk>
    <name><![CDATA[Journal actif: 2020-05-18 15:42]]></name>
    <trkseg>
      <trkpt lat="46.06812" lon="6.30916">
        <ele>572.12</ele>
        <time>2020-05-18T13:42:09Z</time>
      </trkpt>
      <trkpt lat="46.06814" lon="6.30929">
        <ele>570.68</ele>
        <time>2020-05-18T13:42:10Z</time>
      </trkpt>
      <trkpt lat="46.06795" lon="6.30983">
        <ele>566.35</ele>
        <time>2020-05-18T13:42:12Z</time>
      </trkpt>
      <trkpt lat="46.06781" lon="6.31028">
        <ele>564.91</ele>
        <time>2020-05-18T13:42:15Z</time>
      </trkpt>
      <trkpt lat="46.06773" lon="6.31058">
        <ele>560.59</ele>
        <time>2020-05-18T13:42:19Z</time>
      </trkpt>
      <trkpt lat="46.06756" lon="6.31118">
        <ele>552.9</ele>
        <time>2020-05-18T13:42:24Z</time>
      </trkpt>
      <trkpt lat="46.06753" lon="6.31128">
        <ele>553.38</ele>
        <time>2020-05-18T13:42:25Z</time>
      </trkpt>
      <trkpt lat="46.0675" lon="6.31137">
        <ele>550.49</ele>
        <time>2020-05-18T13:42:27Z</time>
      </trkpt>
      <trkpt lat="46.06747" lon="6.31147">
        <ele>550.49</ele>
        <time>2020-05-18T13:42:28Z</time>
      </trkpt>
      <trkpt lat="46.06729" lon="6.31197">
        <ele>554.34</ele>
        <time>2020-05-18T13:42:32Z</time>
      </trkpt>
      <trkpt lat="46.06727" lon="6.31202">
        <ele>555.3</ele>
        <time>2020-05-18T13:42:33Z</time>
      </trkpt>
      <trkpt lat="46.06724" lon="6.31208">
        <ele>556.26</ele>
        <time>2020-05-18T13:42:34Z</time>
      </trkpt>
      <trkpt lat="46.06723" lon="6.3121">
        <ele>556.26</ele>
        <time>2020-05-18T13:42:35Z</time>
      </trkpt>
      <trkpt lat="46.06722" lon="6.31214">
        <ele>557.7</ele>
        <time>2020-05-18T13:42:36Z</time>
      </trkpt>
      <trkpt lat="46.06722" lon="6.31214">
        <ele>557.7</ele>
        <time>2020-05-18T13:42:37Z</time>
      </trkpt>
      <trkpt lat="46.06724" lon="6.31233">
        <ele>557.22</ele>
        <time>2020-05-18T13:42:38Z</time>
      </trkpt>
      <trkpt lat="46.06718" lon="6.31253">
        <ele>556.74</ele>
        <time>2020-05-18T13:42:39Z</time>
      </trkpt>
      <trkpt lat="46.06718" lon="6.31253">
        <ele>557.22</ele>
        <time>2020-05-18T13:42:40Z</time>
      </trkpt>
      <trkpt lat="46.06719" lon="6.31261">
        <ele>556.26</ele>
        <time>2020-05-18T13:42:41Z</time>
      </trkpt>
      <trkpt lat="46.06723" lon="6.31268">
        <ele>555.78</ele>
        <time>2020-05-18T13:42:42Z</time>
      </trkpt>
      <trkpt lat="46.06728" lon="6.3127">
        <ele>555.78</ele>
        <time>2020-05-18T13:42:43Z</time>
      </trkpt>
      <trkpt lat="46.06733" lon="6.31283">
        <ele>555.3</ele>
        <time>2020-05-18T13:42:44Z</time>
      </trkpt>
      <trkpt lat="46.06737" lon="6.31293">
        <ele>554.82</ele>
        <time>2020-05-18T13:42:45Z</time>
      </trkpt>
      <trkpt lat="46.06742" lon="6.31306">
        <ele>554.34</ele>
        <time>2020-05-18T13:42:46Z</time>
      </trkpt>
      <trkpt lat="46.06746" lon="6.31319">
        <ele>554.34</ele>
        <time>2020-05-18T13:42:47Z</time>
      </trkpt>
      <trkpt lat="46.0675" lon="6.31334">
        <ele>554.34</ele>
        <time>2020-05-18T13:42:48Z</time>
      </trkpt>
      <trkpt lat="46.0675" lon="6.31336">
        <ele>553.86</ele>
        <time>2020-05-18T13:42:49Z</time>
      </trkpt>
      <trkpt lat="46.0675" lon="6.31336">
        <ele>553.86</ele>
        <time>2020-05-18T13:42:51Z</time>
      </trkpt>
      <trkpt lat="46.0675" lon="6.31342">
        <ele>553.86</ele>
        <time>2020-05-18T13:42:53Z</time>
      </trkpt>
      <trkpt lat="46.06752" lon="6.31377">
        <ele>555.3</ele>
        <time>2020-05-18T13:42:57Z</time>
      </trkpt>
      <trkpt lat="46.06754" lon="6.31388">
        <ele>555.3</ele>
        <time>2020-05-18T13:42:59Z</time>
      </trkpt>
      <trkpt lat="46.0679" lon="6.31473">
        <ele>555.3</ele>
        <time>2020-05-18T13:43:04Z</time>
      </trkpt>
      <trkpt lat="46.06795" lon="6.31488">
        <ele>555.3</ele>
        <time>2020-05-18T13:43:06Z</time>
      </trkpt>
      <trkpt lat="46.06857" lon="6.31679">
        <ele>552.9</ele>
        <time>2020-05-18T13:43:19Z</time>
      </trkpt>
      <trkpt lat="46.06893" lon="6.31798">
        <ele>536.07</ele>
        <time>2020-05-18T13:43:30Z</time>
      </trkpt>
      <trkpt lat="46.06899" lon="6.31818">
        <ele>533.19</ele>
        <time>2020-05-18T13:43:32Z</time>
      </trkpt>
      <trkpt lat="46.06942" lon="6.31954">
        <ele>522.61</ele>
        <time>2020-05-18T13:43:44Z</time>
      </trkpt>
      <trkpt lat="46.06985" lon="6.32092">
        <ele>516.85</ele>
        <time>2020-05-18T13:43:56Z</time>
      </trkpt>
      <trkpt lat="46.06988" lon="6.32098">
        <ele>516.37</ele>
        <time>2020-05-18T13:43:57Z</time>
      </trkpt>
      <trkpt lat="46.06992" lon="6.32104">
        <ele>515.88</ele>
        <time>2020-05-18T13:43:58Z</time>
      </trkpt>
      <trkpt lat="46.06995" lon="6.32106">
        <ele>515.4</ele>
        <time>2020-05-18T13:43:59Z</time>
      </trkpt>
      <trkpt lat="46.06999" lon="6.32108">
        <ele>515.4</ele>
        <time>2020-05-18T13:44:00Z</time>
      </trkpt>
      <trkpt lat="46.07003" lon="6.32109">
        <ele>514.92</ele>
        <time>2020-05-18T13:44:01Z</time>
      </trkpt>
      <trkpt lat="46.07008" lon="6.32111">
        <ele>514.92</ele>
        <time>2020-05-18T13:44:02Z</time>
      </trkpt>
      <trkpt lat="46.07016" lon="6.32115">
        <ele>514.44</ele>
        <time>2020-05-18T13:44:05Z</time>
      </trkpt>
      <trkpt lat="46.07027" lon="6.32121">
        <ele>514.44</ele>
        <time>2020-05-18T13:44:07Z</time>
      </trkpt>
      <trkpt lat="46.07026" lon="6.32128">
        <ele>513.96</ele>
        <time>2020-05-18T13:44:08Z</time>
      </trkpt>
      <trkpt lat="46.07026" lon="6.3214">
        <ele>513.96</ele>
        <time>2020-05-18T13:44:09Z</time>
      </trkpt>
      <trkpt lat="46.07038" lon="6.32271">
        <ele>513.96</ele>
        <time>2020-05-18T13:44:17Z</time>
      </trkpt>
      <trkpt lat="46.07076" lon="6.32413">
        <ele>509.64</ele>
        <time>2020-05-18T13:44:25Z</time>
      </trkpt>
      <trkpt lat="46.07107" lon="6.32624">
        <ele>501.46</ele>
        <time>2020-05-18T13:44:36Z</time>
      </trkpt>
      <trkpt lat="46.07114" lon="6.3273">
        <ele>496.66</ele>
        <time>2020-05-18T13:44:44Z</time>
      </trkpt>
      <trkpt lat="46.07108" lon="6.32753">
        <ele>496.18</ele>
        <time>2020-05-18T13:44:46Z</time>
      </trkpt>
      <trkpt lat="46.07114" lon="6.32779">
        <ele>495.7</ele>
        <time>2020-05-18T13:44:48Z</time>
      </trkpt>
      <trkpt lat="46.07114" lon="6.32779">
        <ele>494.74</ele>
        <time>2020-05-18T13:44:49Z</time>
      </trkpt>
      <trkpt lat="46.07123" lon="6.32791">
        <ele>493.77</ele>
        <time>2020-05-18T13:44:50Z</time>
      </trkpt>
      <trkpt lat="46.07123" lon="6.32813">
        <ele>492.81</ele>
        <time>2020-05-18T13:44:51Z</time>
      </trkpt>
      <trkpt lat="46.07139" lon="6.32998">
        <ele>483.68</ele>
        <time>2020-05-18T13:45:00Z</time>
      </trkpt>
      <trkpt lat="46.07137" lon="6.33167">
        <ele>476.47</ele>
        <time>2020-05-18T13:45:07Z</time>
      </trkpt>
      <trkpt lat="46.07108" lon="6.33281">
        <ele>474.55</ele>
        <time>2020-05-18T13:45:12Z</time>
      </trkpt>
      <trkpt lat="46.071" lon="6.33302">
        <ele>473.59</ele>
        <time>2020-05-18T13:45:13Z</time>
      </trkpt>
      <trkpt lat="46.07093" lon="6.33323">
        <ele>473.59</ele>
        <time>2020-05-18T13:45:14Z</time>
      </trkpt>
      <trkpt lat="46.07014" lon="6.33448">
        <ele>471.66</ele>
        <time>2020-05-18T13:45:22Z</time>
      </trkpt>
      <trkpt lat="46.06976" lon="6.33506">
        <ele>471.18</ele>
        <time>2020-05-18T13:45:26Z</time>
      </trkpt>
      <trkpt lat="46.06967" lon="6.33519">
        <ele>470.7</ele>
        <time>2020-05-18T13:45:27Z</time>
      </trkpt>
      <trkpt lat="46.06962" lon="6.33536">
        <ele>470.22</ele>
        <time>2020-05-18T13:45:28Z</time>
      </trkpt>
      <trkpt lat="46.06952" lon="6.33576">
        <ele>469.74</ele>
        <time>2020-05-18T13:45:30Z</time>
      </trkpt>
      <trkpt lat="46.06951" lon="6.33594">
        <ele>469.26</ele>
        <time>2020-05-18T13:45:31Z</time>
      </trkpt>
      <trkpt lat="46.0695" lon="6.33615">
        <ele>469.26</ele>
        <time>2020-05-18T13:45:32Z</time>
      </trkpt>
      <trkpt lat="46.06961" lon="6.33827">
        <ele>466.86</ele>
        <time>2020-05-18T13:45:40Z</time>
      </trkpt>
      <trkpt lat="46.06979" lon="6.34096">
        <ele>462.53</ele>
        <time>2020-05-18T13:45:52Z</time>
      </trkpt>
      <trkpt lat="46.07004" lon="6.34472">
        <ele>459.17</ele>
        <time>2020-05-18T13:46:07Z</time>
      </trkpt>
      <trkpt lat="46.07012" lon="6.34601">
        <ele>459.17</ele>
        <time>2020-05-18T13:46:15Z</time>
      </trkpt>
      <trkpt lat="46.07013" lon="6.34612">
        <ele>458.69</ele>
        <time>2020-05-18T13:46:16Z</time>
      </trkpt>
      <trkpt lat="46.07014" lon="6.34621">
        <ele>458.21</ele>
        <time>2020-05-18T13:46:17Z</time>
      </trkpt>
      <trkpt lat="46.07004" lon="6.34657">
        <ele>457.72</ele>
        <time>2020-05-18T13:46:20Z</time>
      </trkpt>
      <trkpt lat="46.07001" lon="6.34669">
        <ele>457.72</ele>
        <time>2020-05-18T13:46:21Z</time>
      </trkpt>
      <trkpt lat="46.07004" lon="6.3468">
        <ele>457.24</ele>
        <time>2020-05-18T13:46:23Z</time>
      </trkpt>
      <trkpt lat="46.07019" lon="6.347">
        <ele>457.24</ele>
        <time>2020-05-18T13:46:25Z</time>
      </trkpt>
      <trkpt lat="46.07019" lon="6.34713">
        <ele>457.24</ele>
        <time>2020-05-18T13:46:26Z</time>
      </trkpt>
      <trkpt lat="46.0703" lon="6.34891">
        <ele>456.76</ele>
        <time>2020-05-18T13:46:36Z</time>
      </trkpt>
      <trkpt lat="46.0705" lon="6.35206">
        <ele>456.28</ele>
        <time>2020-05-18T13:46:51Z</time>
      </trkpt>
      <trkpt lat="46.07072" lon="6.35566">
        <ele>456.76</ele>
        <time>2020-05-18T13:47:06Z</time>
      </trkpt>
      <trkpt lat="46.0709" lon="6.35822">
        <ele>456.76</ele>
        <time>2020-05-18T13:47:17Z</time>
      </trkpt>
      <trkpt lat="46.07108" lon="6.36174">
        <ele>458.69</ele>
        <time>2020-05-18T13:47:31Z</time>
      </trkpt>
      <trkpt lat="46.07118" lon="6.36345">
        <ele>460.13</ele>
        <time>2020-05-18T13:47:39Z</time>
      </trkpt>
      <trkpt lat="46.07124" lon="6.36449">
        <ele>460.61</ele>
        <time>2020-05-18T13:47:48Z</time>
      </trkpt>
      <trkpt lat="46.07125" lon="6.36474">
        <ele>460.61</ele>
        <time>2020-05-18T13:47:51Z</time>
      </trkpt>
      <trkpt lat="46.07125" lon="6.36481">
        <ele>460.13</ele>
        <time>2020-05-18T13:47:52Z</time>
      </trkpt>
      <trkpt lat="46.07121" lon="6.36488">
        <ele>460.13</ele>
        <time>2020-05-18T13:47:53Z</time>
      </trkpt>
      <trkpt lat="46.07119" lon="6.3649">
        <ele>460.13</ele>
        <time>2020-05-18T13:47:54Z</time>
      </trkpt>
      <trkpt lat="46.07119" lon="6.3649">
        <ele>460.13</ele>
        <time>2020-05-18T13:47:55Z</time>
      </trkpt>
      <trkpt lat="46.07119" lon="6.3649">
        <ele>460.13</ele>
        <time>2020-05-18T13:47:56Z</time>
      </trkpt>
      <trkpt lat="46.07109" lon="6.36506">
        <ele>460.13</ele>
        <time>2020-05-18T13:47:57Z</time>
      </trkpt>
      <trkpt lat="46.07106" lon="6.36506">
        <ele>460.13</ele>
        <time>2020-05-18T13:47:58Z</time>
      </trkpt>
      <trkpt lat="46.07102" lon="6.36505">
        <ele>460.61</ele>
        <time>2020-05-18T13:47:59Z</time>
      </trkpt>
      <trkpt lat="46.07097" lon="6.36504">
        <ele>461.09</ele>
        <time>2020-05-18T13:48:00Z</time>
      </trkpt>
      <trkpt lat="46.07036" lon="6.36496">
        <ele>462.05</ele>
        <time>2020-05-18T13:48:08Z</time>
      </trkpt>
      <trkpt lat="46.06886" lon="6.36478">
        <ele>465.42</ele>
        <time>2020-05-18T13:48:19Z</time>
      </trkpt>
      <trkpt lat="46.06739" lon="6.3645">
        <ele>466.86</ele>
        <time>2020-05-18T13:48:29Z</time>
      </trkpt>
      <trkpt lat="46.06585" lon="6.36421">
        <ele>467.34</ele>
        <time>2020-05-18T13:48:42Z</time>
      </trkpt>
      <trkpt lat="46.06573" lon="6.36418">
        <ele>467.82</ele>
        <time>2020-05-18T13:48:44Z</time>
      </trkpt>
      <trkpt lat="46.06565" lon="6.36407">
        <ele>467.82</ele>
        <time>2020-05-18T13:48:45Z</time>
      </trkpt>
      <trkpt lat="46.06565" lon="6.36406">
        <ele>467.82</ele>
        <time>2020-05-18T13:48:46Z</time>
      </trkpt>
      <trkpt lat="46.0656" lon="6.36403">
        <ele>467.82</ele>
        <time>2020-05-18T13:48:47Z</time>
      </trkpt>
      <trkpt lat="46.06554" lon="6.36409">
        <ele>467.82</ele>
        <time>2020-05-18T13:48:49Z</time>
      </trkpt>
      <trkpt lat="46.06549" lon="6.36409">
        <ele>467.82</ele>
        <time>2020-05-18T13:48:50Z</time>
      </trkpt>
      <trkpt lat="46.06538" lon="6.36409">
        <ele>467.82</ele>
        <time>2020-05-18T13:48:51Z</time>
      </trkpt>
      <trkpt lat="46.06532" lon="6.3641">
        <ele>468.3</ele>
        <time>2020-05-18T13:48:52Z</time>
      </trkpt>
      <trkpt lat="46.06453" lon="6.36406">
        <ele>467.82</ele>
        <time>2020-05-18T13:49:02Z</time>
      </trkpt>
      <trkpt lat="46.06393" lon="6.36409">
        <ele>470.22</ele>
        <time>2020-05-18T13:49:10Z</time>
      </trkpt>
      <trkpt lat="46.06366" lon="6.36408">
        <ele>471.18</ele>
        <time>2020-05-18T13:49:16Z</time>
      </trkpt>
      <trkpt lat="46.06359" lon="6.36407">
        <ele>471.66</ele>
        <time>2020-05-18T13:49:17Z</time>
      </trkpt>
      <trkpt lat="46.06353" lon="6.36406">
        <ele>471.66</ele>
        <time>2020-05-18T13:49:18Z</time>
      </trkpt>
      <trkpt lat="46.06345" lon="6.36404">
        <ele>472.14</ele>
        <time>2020-05-18T13:49:19Z</time>
      </trkpt>
      <trkpt lat="46.06335" lon="6.36403">
        <ele>472.14</ele>
        <time>2020-05-18T13:49:20Z</time>
      </trkpt>
      <trkpt lat="46.06322" lon="6.36401">
        <ele>472.14</ele>
        <time>2020-05-18T13:49:21Z</time>
      </trkpt>
      <trkpt lat="46.06198" lon="6.36372">
        <ele>472.14</ele>
        <time>2020-05-18T13:49:33Z</time>
      </trkpt>
      <trkpt lat="46.06186" lon="6.36373">
        <ele>472.14</ele>
        <time>2020-05-18T13:49:34Z</time>
      </trkpt>
      <trkpt lat="46.06156" lon="6.36374">
        <ele>473.11</ele>
        <time>2020-05-18T13:49:37Z</time>
      </trkpt>
      <trkpt lat="46.06033" lon="6.36362">
        <ele>475.51</ele>
        <time>2020-05-18T13:49:50Z</time>
      </trkpt>
      <trkpt lat="46.05986" lon="6.36355">
        <ele>476.95</ele>
        <time>2020-05-18T13:49:57Z</time>
      </trkpt>
      <trkpt lat="46.05966" lon="6.36359">
        <ele>478.39</ele>
        <time>2020-05-18T13:50:00Z</time>
      </trkpt>
      <trkpt lat="46.05965" lon="6.36366">
        <ele>478.87</ele>
        <time>2020-05-18T13:50:01Z</time>
      </trkpt>
      <trkpt lat="46.05961" lon="6.364">
        <ele>479.35</ele>
        <time>2020-05-18T13:50:03Z</time>
      </trkpt>
      <trkpt lat="46.05963" lon="6.36414">
        <ele>479.84</ele>
        <time>2020-05-18T13:50:04Z</time>
      </trkpt>
      <trkpt lat="46.05966" lon="6.3643">
        <ele>480.32</ele>
        <time>2020-05-18T13:50:05Z</time>
      </trkpt>
      <trkpt lat="46.05969" lon="6.36446">
        <ele>480.8</ele>
        <time>2020-05-18T13:50:06Z</time>
      </trkpt>
      <trkpt lat="46.05971" lon="6.36461">
        <ele>480.8</ele>
        <time>2020-05-18T13:50:07Z</time>
      </trkpt>
      <trkpt lat="46.05973" lon="6.36476">
        <ele>481.28</ele>
        <time>2020-05-18T13:50:08Z</time>
      </trkpt>
      <trkpt lat="46.05976" lon="6.3666">
        <ele>484.16</ele>
        <time>2020-05-18T13:50:20Z</time>
      </trkpt>
      <trkpt lat="46.05965" lon="6.36839">
        <ele>483.2</ele>
        <time>2020-05-18T13:50:34Z</time>
      </trkpt>
      <trkpt lat="46.05957" lon="6.36893">
        <ele>483.2</ele>
        <time>2020-05-18T13:50:37Z</time>
      </trkpt>
      <trkpt lat="46.05955" lon="6.36906">
        <ele>483.2</ele>
        <time>2020-05-18T13:50:38Z</time>
      </trkpt>
      <trkpt lat="46.0595" lon="6.36933">
        <ele>483.2</ele>
        <time>2020-05-18T13:50:40Z</time>
      </trkpt>
      <trkpt lat="46.05939" lon="6.36988">
        <ele>482.72</ele>
        <time>2020-05-18T13:50:44Z</time>
      </trkpt>
      <trkpt lat="46.05939" lon="6.37019">
        <ele>483.2</ele>
        <time>2020-05-18T13:50:46Z</time>
      </trkpt>
      <trkpt lat="46.05947" lon="6.37091">
        <ele>484.64</ele>
        <time>2020-05-18T13:50:51Z</time>
      </trkpt>
      <trkpt lat="46.05948" lon="6.37106">
        <ele>484.64</ele>
        <time>2020-05-18T13:50:52Z</time>
      </trkpt>
      <trkpt lat="46.05953" lon="6.37238">
        <ele>486.08</ele>
        <time>2020-05-18T13:51:01Z</time>
      </trkpt>
      <trkpt lat="46.05942" lon="6.3731">
        <ele>485.6</ele>
        <time>2020-05-18T13:51:06Z</time>
      </trkpt>
      <trkpt lat="46.05938" lon="6.37323">
        <ele>485.12</ele>
        <time>2020-05-18T13:51:07Z</time>
      </trkpt>
      <trkpt lat="46.05932" lon="6.37336">
        <ele>484.64</ele>
        <time>2020-05-18T13:51:08Z</time>
      </trkpt>
      <trkpt lat="46.05926" lon="6.37348">
        <ele>484.16</ele>
        <time>2020-05-18T13:51:09Z</time>
      </trkpt>
      <trkpt lat="46.05919" lon="6.3736">
        <ele>483.68</ele>
        <time>2020-05-18T13:51:10Z</time>
      </trkpt>
      <trkpt lat="46.05912" lon="6.37371">
        <ele>483.2</ele>
        <time>2020-05-18T13:51:11Z</time>
      </trkpt>
      <trkpt lat="46.05905" lon="6.37382">
        <ele>482.72</ele>
        <time>2020-05-18T13:51:13Z</time>
      </trkpt>
      <trkpt lat="46.05892" lon="6.37403">
        <ele>482.72</ele>
        <time>2020-05-18T13:51:14Z</time>
      </trkpt>
      <trkpt lat="46.05885" lon="6.37411">
        <ele>482.24</ele>
        <time>2020-05-18T13:51:15Z</time>
      </trkpt>
      <trkpt lat="46.05878" lon="6.37418">
        <ele>481.76</ele>
        <time>2020-05-18T13:51:16Z</time>
      </trkpt>
      <trkpt lat="46.05824" lon="6.37466">
        <ele>480.8</ele>
        <time>2020-05-18T13:51:25Z</time>
      </trkpt>
      <trkpt lat="46.0581" lon="6.37473">
        <ele>481.28</ele>
        <time>2020-05-18T13:51:27Z</time>
      </trkpt>
      <trkpt lat="46.05758" lon="6.37499">
        <ele>484.64</ele>
        <time>2020-05-18T13:51:35Z</time>
      </trkpt>
      <trkpt lat="46.05728" lon="6.37509">
        <ele>488.49</ele>
        <time>2020-05-18T13:51:39Z</time>
      </trkpt>
      <trkpt lat="46.05722" lon="6.37501">
        <ele>490.89</ele>
        <time>2020-05-18T13:51:41Z</time>
      </trkpt>
      <trkpt lat="46.05717" lon="6.37491">
        <ele>491.85</ele>
        <time>2020-05-18T13:51:42Z</time>
      </trkpt>
      <trkpt lat="46.05678" lon="6.37391">
        <ele>499.06</ele>
        <time>2020-05-18T13:51:50Z</time>
      </trkpt>
      <trkpt lat="46.0567" lon="6.37372">
        <ele>498.58</ele>
        <time>2020-05-18T13:51:51Z</time>
      </trkpt>
      <trkpt lat="46.05665" lon="6.37362">
        <ele>498.1</ele>
        <time>2020-05-18T13:51:53Z</time>
      </trkpt>
      <trkpt lat="46.05586" lon="6.37277">
        <ele>495.7</ele>
        <time>2020-05-18T13:52:00Z</time>
      </trkpt>
      <trkpt lat="46.05517" lon="6.37203">
        <ele>497.62</ele>
        <time>2020-05-18T13:52:06Z</time>
      </trkpt>
      <trkpt lat="46.05505" lon="6.37194">
        <ele>498.1</ele>
        <time>2020-05-18T13:52:07Z</time>
      </trkpt>
      <trkpt lat="46.05492" lon="6.37191">
        <ele>499.06</ele>
        <time>2020-05-18T13:52:08Z</time>
      </trkpt>
      <trkpt lat="46.05478" lon="6.37194">
        <ele>499.54</ele>
        <time>2020-05-18T13:52:09Z</time>
      </trkpt>
      <trkpt lat="46.05461" lon="6.372">
        <ele>500.5</ele>
        <time>2020-05-18T13:52:10Z</time>
      </trkpt>
      <trkpt lat="46.05446" lon="6.37211">
        <ele>501.46</ele>
        <time>2020-05-18T13:52:11Z</time>
      </trkpt>
      <trkpt lat="46.05432" lon="6.37222">
        <ele>501.95</ele>
        <time>2020-05-18T13:52:12Z</time>
      </trkpt>
      <trkpt lat="46.0536" lon="6.37289">
        <ele>506.75</ele>
        <time>2020-05-18T13:52:20Z</time>
      </trkpt>
      <trkpt lat="46.05355" lon="6.37313">
        <ele>507.23</ele>
        <time>2020-05-18T13:52:21Z</time>
      </trkpt>
      <trkpt lat="46.05358" lon="6.37327">
        <ele>507.23</ele>
        <time>2020-05-18T13:52:22Z</time>
      </trkpt>
      <trkpt lat="46.05365" lon="6.37336">
        <ele>507.71</ele>
        <time>2020-05-18T13:52:24Z</time>
      </trkpt>
      <trkpt lat="46.0538" lon="6.37354">
        <ele>507.23</ele>
        <time>2020-05-18T13:52:25Z</time>
      </trkpt>
      <trkpt lat="46.05387" lon="6.37363">
        <ele>507.71</ele>
        <time>2020-05-18T13:52:27Z</time>
      </trkpt>
      <trkpt lat="46.05387" lon="6.37375">
        <ele>508.19</ele>
        <time>2020-05-18T13:52:28Z</time>
      </trkpt>
      <trkpt lat="46.05379" lon="6.37399">
        <ele>508.19</ele>
        <time>2020-05-18T13:52:29Z</time>
      </trkpt>
      <trkpt lat="46.0537" lon="6.37409">
        <ele>508.67</ele>
        <time>2020-05-18T13:52:30Z</time>
      </trkpt>
      <trkpt lat="46.05358" lon="6.37418">
        <ele>509.16</ele>
        <time>2020-05-18T13:52:32Z</time>
      </trkpt>
      <trkpt lat="46.0533" lon="6.37418">
        <ele>509.16</ele>
        <time>2020-05-18T13:52:33Z</time>
      </trkpt>
      <trkpt lat="46.05317" lon="6.37417">
        <ele>510.12</ele>
        <time>2020-05-18T13:52:35Z</time>
      </trkpt>
      <trkpt lat="46.05307" lon="6.37416">
        <ele>510.12</ele>
        <time>2020-05-18T13:52:36Z</time>
      </trkpt>
      <trkpt lat="46.05294" lon="6.37414">
        <ele>510.12</ele>
        <time>2020-05-18T13:52:37Z</time>
      </trkpt>
      <trkpt lat="46.05289" lon="6.37414">
        <ele>510.6</ele>
        <time>2020-05-18T13:52:38Z</time>
      </trkpt>
      <trkpt lat="46.05285" lon="6.37413">
        <ele>510.6</ele>
        <time>2020-05-18T13:52:39Z</time>
      </trkpt>
      <trkpt lat="46.05282" lon="6.37413">
        <ele>511.08</ele>
        <time>2020-05-18T13:52:40Z</time>
      </trkpt>
      <trkpt lat="46.05278" lon="6.37412">
        <ele>511.08</ele>
        <time>2020-05-18T13:52:41Z</time>
      </trkpt>
      <trkpt lat="46.05276" lon="6.37412">
        <ele>511.08</ele>
        <time>2020-05-18T13:52:42Z</time>
      </trkpt>
      <trkpt lat="46.05265" lon="6.37411">
        <ele>511.08</ele>
        <time>2020-05-18T13:52:43Z</time>
      </trkpt>
      <trkpt lat="46.05265" lon="6.37411">
        <ele>511.08</ele>
        <time>2020-05-18T13:52:44Z</time>
      </trkpt>
      <trkpt lat="46.05252" lon="6.37417">
        <ele>512.04</ele>
        <time>2020-05-18T13:52:46Z</time>
      </trkpt>
      <trkpt lat="46.05241" lon="6.37436">
        <ele>513</ele>
        <time>2020-05-18T13:52:49Z</time>
      </trkpt>
      <trkpt lat="46.05235" lon="6.37447">
        <ele>513.48</ele>
        <time>2020-05-18T13:52:50Z</time>
      </trkpt>
      <trkpt lat="46.05228" lon="6.37459">
        <ele>513.96</ele>
        <time>2020-05-18T13:52:51Z</time>
      </trkpt>
      <trkpt lat="46.05222" lon="6.37471">
        <ele>513.96</ele>
        <time>2020-05-18T13:52:52Z</time>
      </trkpt>
      <trkpt lat="46.05215" lon="6.37482">
        <ele>514.92</ele>
        <time>2020-05-18T13:52:54Z</time>
      </trkpt>
      <trkpt lat="46.05202" lon="6.37513">
        <ele>515.4</ele>
        <time>2020-05-18T13:52:55Z</time>
      </trkpt>
      <trkpt lat="46.05197" lon="6.37527">
        <ele>515.88</ele>
        <time>2020-05-18T13:52:56Z</time>
      </trkpt>
      <trkpt lat="46.05192" lon="6.37541">
        <ele>515.88</ele>
        <time>2020-05-18T13:52:57Z</time>
      </trkpt>
      <trkpt lat="46.05187" lon="6.37555">
        <ele>516.37</ele>
        <time>2020-05-18T13:52:58Z</time>
      </trkpt>
      <trkpt lat="46.05182" lon="6.3757">
        <ele>516.85</ele>
        <time>2020-05-18T13:52:59Z</time>
      </trkpt>
      <trkpt lat="46.05174" lon="6.37583">
        <ele>517.33</ele>
        <time>2020-05-18T13:53:00Z</time>
      </trkpt>
      <trkpt lat="46.05162" lon="6.37596">
        <ele>518.29</ele>
        <time>2020-05-18T13:53:01Z</time>
      </trkpt>
      <trkpt lat="46.05146" lon="6.37612">
        <ele>518.77</ele>
        <time>2020-05-18T13:53:02Z</time>
      </trkpt>
      <trkpt lat="46.0513" lon="6.37633">
        <ele>519.73</ele>
        <time>2020-05-18T13:53:03Z</time>
      </trkpt>
      <trkpt lat="46.05103" lon="6.37668">
        <ele>520.69</ele>
        <time>2020-05-18T13:53:05Z</time>
      </trkpt>
      <trkpt lat="46.0509" lon="6.37675">
        <ele>521.17</ele>
        <time>2020-05-18T13:53:06Z</time>
      </trkpt>
      <trkpt lat="46.05078" lon="6.37675">
        <ele>522.13</ele>
        <time>2020-05-18T13:53:07Z</time>
      </trkpt>
      <trkpt lat="46.05066" lon="6.37667">
        <ele>522.61</ele>
        <time>2020-05-18T13:53:08Z</time>
      </trkpt>
      <trkpt lat="46.05056" lon="6.37657">
        <ele>523.09</ele>
        <time>2020-05-18T13:53:09Z</time>
      </trkpt>
      <trkpt lat="46.05045" lon="6.37647">
        <ele>523.58</ele>
        <time>2020-05-18T13:53:10Z</time>
      </trkpt>
      <trkpt lat="46.05034" lon="6.37636">
        <ele>524.06</ele>
        <time>2020-05-18T13:53:11Z</time>
      </trkpt>
      <trkpt lat="46.05024" lon="6.37627">
        <ele>524.54</ele>
        <time>2020-05-18T13:53:12Z</time>
      </trkpt>
      <trkpt lat="46.05014" lon="6.37624">
        <ele>525.02</ele>
        <time>2020-05-18T13:53:14Z</time>
      </trkpt>
      <trkpt lat="46.04995" lon="6.3763">
        <ele>525.02</ele>
        <time>2020-05-18T13:53:15Z</time>
      </trkpt>
      <trkpt lat="46.04984" lon="6.37636">
        <ele>525.02</ele>
        <time>2020-05-18T13:53:16Z</time>
      </trkpt>
      <trkpt lat="46.04973" lon="6.37638">
        <ele>525.02</ele>
        <time>2020-05-18T13:53:17Z</time>
      </trkpt>
      <trkpt lat="46.0496" lon="6.37631">
        <ele>525.5</ele>
        <time>2020-05-18T13:53:18Z</time>
      </trkpt>
      <trkpt lat="46.04943" lon="6.37622">
        <ele>525.98</ele>
        <time>2020-05-18T13:53:19Z</time>
      </trkpt>
      <trkpt lat="46.04878" lon="6.37586">
        <ele>527.9</ele>
        <time>2020-05-18T13:53:22Z</time>
      </trkpt>
      <trkpt lat="46.04854" lon="6.37577">
        <ele>529.34</ele>
        <time>2020-05-18T13:53:24Z</time>
      </trkpt>
      <trkpt lat="46.04847" lon="6.37578">
        <ele>530.79</ele>
        <time>2020-05-18T13:53:26Z</time>
      </trkpt>
      <trkpt lat="46.0483" lon="6.37598">
        <ele>531.27</ele>
        <time>2020-05-18T13:53:27Z</time>
      </trkpt>
      <trkpt lat="46.04822" lon="6.37608">
        <ele>531.27</ele>
        <time>2020-05-18T13:53:28Z</time>
      </trkpt>
      <trkpt lat="46.04812" lon="6.37616">
        <ele>531.27</ele>
        <time>2020-05-18T13:53:29Z</time>
      </trkpt>
      <trkpt lat="46.04806" lon="6.37615">
        <ele>531.75</ele>
        <time>2020-05-18T13:53:30Z</time>
      </trkpt>
      <trkpt lat="46.04793" lon="6.37602">
        <ele>532.71</ele>
        <time>2020-05-18T13:53:31Z</time>
      </trkpt>
      <trkpt lat="46.04778" lon="6.37587">
        <ele>534.15</ele>
        <time>2020-05-18T13:53:32Z</time>
      </trkpt>
      <trkpt lat="46.04762" lon="6.37578">
        <ele>535.11</ele>
        <time>2020-05-18T13:53:33Z</time>
      </trkpt>
      <trkpt lat="46.0475" lon="6.3757">
        <ele>536.07</ele>
        <time>2020-05-18T13:53:34Z</time>
      </trkpt>
      <trkpt lat="46.04741" lon="6.37565">
        <ele>537.51</ele>
        <time>2020-05-18T13:53:35Z</time>
      </trkpt>
      <trkpt lat="46.04726" lon="6.3757">
        <ele>538.96</ele>
        <time>2020-05-18T13:53:36Z</time>
      </trkpt>
      <trkpt lat="46.04711" lon="6.37575">
        <ele>540.4</ele>
        <time>2020-05-18T13:53:37Z</time>
      </trkpt>
      <trkpt lat="46.04694" lon="6.37578">
        <ele>541.84</ele>
        <time>2020-05-18T13:53:38Z</time>
      </trkpt>
      <trkpt lat="46.04681" lon="6.37575">
        <ele>543.28</ele>
        <time>2020-05-18T13:53:39Z</time>
      </trkpt>
      <trkpt lat="46.04669" lon="6.37573">
        <ele>544.24</ele>
        <time>2020-05-18T13:53:40Z</time>
      </trkpt>
      <trkpt lat="46.04662" lon="6.37575">
        <ele>545.69</ele>
        <time>2020-05-18T13:53:41Z</time>
      </trkpt>
      <trkpt lat="46.04655" lon="6.37584">
        <ele>546.17</ele>
        <time>2020-05-18T13:53:42Z</time>
      </trkpt>
      <trkpt lat="46.04649" lon="6.37592">
        <ele>546.65</ele>
        <time>2020-05-18T13:53:43Z</time>
      </trkpt>
      <trkpt lat="46.04647" lon="6.37608">
        <ele>547.61</ele>
        <time>2020-05-18T13:53:44Z</time>
      </trkpt>
      <trkpt lat="46.04646" lon="6.37626">
        <ele>548.09</ele>
        <time>2020-05-18T13:53:45Z</time>
      </trkpt>
      <trkpt lat="46.04639" lon="6.3764">
        <ele>549.05</ele>
        <time>2020-05-18T13:53:46Z</time>
      </trkpt>
      <trkpt lat="46.04633" lon="6.3765">
        <ele>549.53</ele>
        <time>2020-05-18T13:53:47Z</time>
      </trkpt>
      <trkpt lat="46.04621" lon="6.37654">
        <ele>550.97</ele>
        <time>2020-05-18T13:53:48Z</time>
      </trkpt>
      <trkpt lat="46.04609" lon="6.37656">
        <ele>551.93</ele>
        <time>2020-05-18T13:53:49Z</time>
      </trkpt>
      <trkpt lat="46.04593" lon="6.3766">
        <ele>552.41</ele>
        <time>2020-05-18T13:53:50Z</time>
      </trkpt>
      <trkpt lat="46.04584" lon="6.37666">
        <ele>552.9</ele>
        <time>2020-05-18T13:53:51Z</time>
      </trkpt>
      <trkpt lat="46.04573" lon="6.37673">
        <ele>553.38</ele>
        <time>2020-05-18T13:53:52Z</time>
      </trkpt>
      <trkpt lat="46.04563" lon="6.3768">
        <ele>554.34</ele>
        <time>2020-05-18T13:53:53Z</time>
      </trkpt>
      <trkpt lat="46.04557" lon="6.37693">
        <ele>555.3</ele>
        <time>2020-05-18T13:53:54Z</time>
      </trkpt>
      <trkpt lat="46.0455" lon="6.37713">
        <ele>555.78</ele>
        <time>2020-05-18T13:53:55Z</time>
      </trkpt>
      <trkpt lat="46.04548" lon="6.37738">
        <ele>556.74</ele>
        <time>2020-05-18T13:53:56Z</time>
      </trkpt>
      <trkpt lat="46.04547" lon="6.37761">
        <ele>556.74</ele>
        <time>2020-05-18T13:53:57Z</time>
      </trkpt>
      <trkpt lat="46.04548" lon="6.37781">
        <ele>556.74</ele>
        <time>2020-05-18T13:53:58Z</time>
      </trkpt>
      <trkpt lat="46.04544" lon="6.37796">
        <ele>556.26</ele>
        <time>2020-05-18T13:53:59Z</time>
      </trkpt>
      <trkpt lat="46.04539" lon="6.37811">
        <ele>556.26</ele>
        <time>2020-05-18T13:54:00Z</time>
      </trkpt>
      <trkpt lat="46.04527" lon="6.37819">
        <ele>556.74</ele>
        <time>2020-05-18T13:54:01Z</time>
      </trkpt>
      <trkpt lat="46.04512" lon="6.37821">
        <ele>556.74</ele>
        <time>2020-05-18T13:54:02Z</time>
      </trkpt>
      <trkpt lat="46.04494" lon="6.37822">
        <ele>556.74</ele>
        <time>2020-05-18T13:54:03Z</time>
      </trkpt>
      <trkpt lat="46.04459" lon="6.37829">
        <ele>557.22</ele>
        <time>2020-05-18T13:54:05Z</time>
      </trkpt>
      <trkpt lat="46.04428" lon="6.37842">
        <ele>557.7</ele>
        <time>2020-05-18T13:54:07Z</time>
      </trkpt>
      <trkpt lat="46.04413" lon="6.37856">
        <ele>558.66</ele>
        <time>2020-05-18T13:54:08Z</time>
      </trkpt>
      <trkpt lat="46.04357" lon="6.37935">
        <ele>562.99</ele>
        <time>2020-05-18T13:54:12Z</time>
      </trkpt>
      <trkpt lat="46.04343" lon="6.37945">
        <ele>563.47</ele>
        <time>2020-05-18T13:54:13Z</time>
      </trkpt>
      <trkpt lat="46.04325" lon="6.37948">
        <ele>563.95</ele>
        <time>2020-05-18T13:54:14Z</time>
      </trkpt>
      <trkpt lat="46.04306" lon="6.37949">
        <ele>564.91</ele>
        <time>2020-05-18T13:54:15Z</time>
      </trkpt>
      <trkpt lat="46.04286" lon="6.37946">
        <ele>564.91</ele>
        <time>2020-05-18T13:54:16Z</time>
      </trkpt>
      <trkpt lat="46.04267" lon="6.37943">
        <ele>565.39</ele>
        <time>2020-05-18T13:54:17Z</time>
      </trkpt>
      <trkpt lat="46.04252" lon="6.37941">
        <ele>565.39</ele>
        <time>2020-05-18T13:54:18Z</time>
      </trkpt>
      <trkpt lat="46.04242" lon="6.37947">
        <ele>565.39</ele>
        <time>2020-05-18T13:54:19Z</time>
      </trkpt>
      <trkpt lat="46.04231" lon="6.37954">
        <ele>565.87</ele>
        <time>2020-05-18T13:54:20Z</time>
      </trkpt>
      <trkpt lat="46.0422" lon="6.37968">
        <ele>566.35</ele>
        <time>2020-05-18T13:54:21Z</time>
      </trkpt>
      <trkpt lat="46.04209" lon="6.37984">
        <ele>565.87</ele>
        <time>2020-05-18T13:54:22Z</time>
      </trkpt>
      <trkpt lat="46.04192" lon="6.37994">
        <ele>566.35</ele>
        <time>2020-05-18T13:54:23Z</time>
      </trkpt>
      <trkpt lat="46.04172" lon="6.38003">
        <ele>566.83</ele>
        <time>2020-05-18T13:54:24Z</time>
      </trkpt>
      <trkpt lat="46.0415" lon="6.38012">
        <ele>566.83</ele>
        <time>2020-05-18T13:54:25Z</time>
      </trkpt>
      <trkpt lat="46.0413" lon="6.3802">
        <ele>567.32</ele>
        <time>2020-05-18T13:54:26Z</time>
      </trkpt>
      <trkpt lat="46.04111" lon="6.3802">
        <ele>567.8</ele>
        <time>2020-05-18T13:54:27Z</time>
      </trkpt>
      <trkpt lat="46.04093" lon="6.3802">
        <ele>567.8</ele>
        <time>2020-05-18T13:54:28Z</time>
      </trkpt>
      <trkpt lat="46.04078" lon="6.3802">
        <ele>567.8</ele>
        <time>2020-05-18T13:54:29Z</time>
      </trkpt>
      <trkpt lat="46.04064" lon="6.38031">
        <ele>567.8</ele>
        <time>2020-05-18T13:54:30Z</time>
      </trkpt>
      <trkpt lat="46.04049" lon="6.38041">
        <ele>568.28</ele>
        <time>2020-05-18T13:54:31Z</time>
      </trkpt>
      <trkpt lat="46.04018" lon="6.3806">
        <ele>568.28</ele>
        <time>2020-05-18T13:54:33Z</time>
      </trkpt>
      <trkpt lat="46.04005" lon="6.38069">
        <ele>568.28</ele>
        <time>2020-05-18T13:54:34Z</time>
      </trkpt>
      <trkpt lat="46.03992" lon="6.38077">
        <ele>568.76</ele>
        <time>2020-05-18T13:54:35Z</time>
      </trkpt>
      <trkpt lat="46.0398" lon="6.38086">
        <ele>569.72</ele>
        <time>2020-05-18T13:54:36Z</time>
      </trkpt>
      <trkpt lat="46.03968" lon="6.38096">
        <ele>570.2</ele>
        <time>2020-05-18T13:54:37Z</time>
      </trkpt>
      <trkpt lat="46.03957" lon="6.38105">
        <ele>570.68</ele>
        <time>2020-05-18T13:54:38Z</time>
      </trkpt>
      <trkpt lat="46.03948" lon="6.38115">
        <ele>571.16</ele>
        <time>2020-05-18T13:54:39Z</time>
      </trkpt>
      <trkpt lat="46.03941" lon="6.38131">
        <ele>571.64</ele>
        <time>2020-05-18T13:54:40Z</time>
      </trkpt>
      <trkpt lat="46.03901" lon="6.38206">
        <ele>573.08</ele>
        <time>2020-05-18T13:54:45Z</time>
      </trkpt>
      <trkpt lat="46.03886" lon="6.38221">
        <ele>573.56</ele>
        <time>2020-05-18T13:54:46Z</time>
      </trkpt>
      <trkpt lat="46.03864" lon="6.38236">
        <ele>574.04</ele>
        <time>2020-05-18T13:54:47Z</time>
      </trkpt>
      <trkpt lat="46.03775" lon="6.38292">
        <ele>576.45</ele>
        <time>2020-05-18T13:54:51Z</time>
      </trkpt>
      <trkpt lat="46.03758" lon="6.38296">
        <ele>577.41</ele>
        <time>2020-05-18T13:54:52Z</time>
      </trkpt>
      <trkpt lat="46.03726" lon="6.38302">
        <ele>579.33</ele>
        <time>2020-05-18T13:54:54Z</time>
      </trkpt>
      <trkpt lat="46.03707" lon="6.38306">
        <ele>579.81</ele>
        <time>2020-05-18T13:54:55Z</time>
      </trkpt>
      <trkpt lat="46.03692" lon="6.38319">
        <ele>580.77</ele>
        <time>2020-05-18T13:54:56Z</time>
      </trkpt>
      <trkpt lat="46.03635" lon="6.38359">
        <ele>583.18</ele>
        <time>2020-05-18T13:54:59Z</time>
      </trkpt>
      <trkpt lat="46.03588" lon="6.3838">
        <ele>585.58</ele>
        <time>2020-05-18T13:55:02Z</time>
      </trkpt>
      <trkpt lat="46.03574" lon="6.38385">
        <ele>586.06</ele>
        <time>2020-05-18T13:55:03Z</time>
      </trkpt>
      <trkpt lat="46.03563" lon="6.38383">
        <ele>587.02</ele>
        <time>2020-05-18T13:55:04Z</time>
      </trkpt>
      <trkpt lat="46.03549" lon="6.38381">
        <ele>587.98</ele>
        <time>2020-05-18T13:55:05Z</time>
      </trkpt>
      <trkpt lat="46.03537" lon="6.3838">
        <ele>588.46</ele>
        <time>2020-05-18T13:55:06Z</time>
      </trkpt>
      <trkpt lat="46.03523" lon="6.38386">
        <ele>589.43</ele>
        <time>2020-05-18T13:55:07Z</time>
      </trkpt>
      <trkpt lat="46.0351" lon="6.38397">
        <ele>590.87</ele>
        <time>2020-05-18T13:55:08Z</time>
      </trkpt>
      <trkpt lat="46.03447" lon="6.38482">
        <ele>595.19</ele>
        <time>2020-05-18T13:55:12Z</time>
      </trkpt>
      <trkpt lat="46.03428" lon="6.3852">
        <ele>597.6</ele>
        <time>2020-05-18T13:55:14Z</time>
      </trkpt>
      <trkpt lat="46.03422" lon="6.3854">
        <ele>598.56</ele>
        <time>2020-05-18T13:55:15Z</time>
      </trkpt>
      <trkpt lat="46.03417" lon="6.38558">
        <ele>599.04</ele>
        <time>2020-05-18T13:55:16Z</time>
      </trkpt>
      <trkpt lat="46.03416" lon="6.38578">
        <ele>600.48</ele>
        <time>2020-05-18T13:55:17Z</time>
      </trkpt>
      <trkpt lat="46.03417" lon="6.38598">
        <ele>601.92</ele>
        <time>2020-05-18T13:55:18Z</time>
      </trkpt>
      <trkpt lat="46.03416" lon="6.38619">
        <ele>602.88</ele>
        <time>2020-05-18T13:55:19Z</time>
      </trkpt>
      <trkpt lat="46.03409" lon="6.38638">
        <ele>603.85</ele>
        <time>2020-05-18T13:55:20Z</time>
      </trkpt>
      <trkpt lat="46.03399" lon="6.38655">
        <ele>604.81</ele>
        <time>2020-05-18T13:55:21Z</time>
      </trkpt>
      <trkpt lat="46.03387" lon="6.38677">
        <ele>605.77</ele>
        <time>2020-05-18T13:55:22Z</time>
      </trkpt>
      <trkpt lat="46.03372" lon="6.38702">
        <ele>606.73</ele>
        <time>2020-05-18T13:55:23Z</time>
      </trkpt>
      <trkpt lat="46.03296" lon="6.38832">
        <ele>609.13</ele>
        <time>2020-05-18T13:55:27Z</time>
      </trkpt>
      <trkpt lat="46.03256" lon="6.38887">
        <ele>612.5</ele>
        <time>2020-05-18T13:55:30Z</time>
      </trkpt>
      <trkpt lat="46.03098" lon="6.39025">
        <ele>623.07</ele>
        <time>2020-05-18T13:55:35Z</time>
      </trkpt>
      <trkpt lat="46.03074" lon="6.39049">
        <ele>627.4</ele>
        <time>2020-05-18T13:55:37Z</time>
      </trkpt>
      <trkpt lat="46.03008" lon="6.39095">
        <ele>630.76</ele>
        <time>2020-05-18T13:55:39Z</time>
      </trkpt>
      <trkpt lat="46.02986" lon="6.391">
        <ele>632.2</ele>
        <time>2020-05-18T13:55:40Z</time>
      </trkpt>
      <trkpt lat="46.02964" lon="6.39102">
        <ele>633.65</ele>
        <time>2020-05-18T13:55:41Z</time>
      </trkpt>
      <trkpt lat="46.02944" lon="6.39105">
        <ele>635.09</ele>
        <time>2020-05-18T13:55:42Z</time>
      </trkpt>
      <trkpt lat="46.02925" lon="6.39103">
        <ele>636.53</ele>
        <time>2020-05-18T13:55:43Z</time>
      </trkpt>
      <trkpt lat="46.0291" lon="6.39097">
        <ele>637.97</ele>
        <time>2020-05-18T13:55:44Z</time>
      </trkpt>
      <trkpt lat="46.02897" lon="6.39098">
        <ele>639.41</ele>
        <time>2020-05-18T13:55:45Z</time>
      </trkpt>
      <trkpt lat="46.02887" lon="6.39103">
        <ele>640.86</ele>
        <time>2020-05-18T13:55:46Z</time>
      </trkpt>
      <trkpt lat="46.02881" lon="6.39116">
        <ele>641.34</ele>
        <time>2020-05-18T13:55:47Z</time>
      </trkpt>
      <trkpt lat="46.02875" lon="6.39128">
        <ele>642.78</ele>
        <time>2020-05-18T13:55:48Z</time>
      </trkpt>
      <trkpt lat="46.02874" lon="6.39146">
        <ele>643.74</ele>
        <time>2020-05-18T13:55:49Z</time>
      </trkpt>
      <trkpt lat="46.02874" lon="6.39169">
        <ele>645.18</ele>
        <time>2020-05-18T13:55:50Z</time>
      </trkpt>
      <trkpt lat="46.02874" lon="6.39195">
        <ele>646.62</ele>
        <time>2020-05-18T13:55:51Z</time>
      </trkpt>
      <trkpt lat="46.02873" lon="6.39241">
        <ele>649.51</ele>
        <time>2020-05-18T13:55:53Z</time>
      </trkpt>
      <trkpt lat="46.02873" lon="6.39261">
        <ele>650.95</ele>
        <time>2020-05-18T13:55:54Z</time>
      </trkpt>
      <trkpt lat="46.02869" lon="6.39277">
        <ele>651.91</ele>
        <time>2020-05-18T13:55:55Z</time>
      </trkpt>
      <trkpt lat="46.02864" lon="6.39294">
        <ele>653.35</ele>
        <time>2020-05-18T13:55:56Z</time>
      </trkpt>
      <trkpt lat="46.02858" lon="6.39307">
        <ele>654.8</ele>
        <time>2020-05-18T13:55:57Z</time>
      </trkpt>
      <trkpt lat="46.02847" lon="6.39315">
        <ele>656.24</ele>
        <time>2020-05-18T13:55:58Z</time>
      </trkpt>
      <trkpt lat="46.02835" lon="6.39316">
        <ele>657.2</ele>
        <time>2020-05-18T13:55:59Z</time>
      </trkpt>
      <trkpt lat="46.02821" lon="6.39311">
        <ele>658.64</ele>
        <time>2020-05-18T13:56:00Z</time>
      </trkpt>
      <trkpt lat="46.02808" lon="6.39301">
        <ele>659.6</ele>
        <time>2020-05-18T13:56:01Z</time>
      </trkpt>
      <trkpt lat="46.02796" lon="6.39285">
        <ele>661.04</ele>
        <time>2020-05-18T13:56:02Z</time>
      </trkpt>
      <trkpt lat="46.02786" lon="6.39265">
        <ele>662.01</ele>
        <time>2020-05-18T13:56:03Z</time>
      </trkpt>
      <trkpt lat="46.02777" lon="6.39245">
        <ele>663.45</ele>
        <time>2020-05-18T13:56:04Z</time>
      </trkpt>
      <trkpt lat="46.02769" lon="6.39228">
        <ele>664.89</ele>
        <time>2020-05-18T13:56:05Z</time>
      </trkpt>
      <trkpt lat="46.02763" lon="6.39213">
        <ele>666.81</ele>
        <time>2020-05-18T13:56:06Z</time>
      </trkpt>
      <trkpt lat="46.02752" lon="6.3919">
        <ele>670.18</ele>
        <time>2020-05-18T13:56:08Z</time>
      </trkpt>
      <trkpt lat="46.02743" lon="6.39182">
        <ele>671.62</ele>
        <time>2020-05-18T13:56:09Z</time>
      </trkpt>
      <trkpt lat="46.02733" lon="6.39174">
        <ele>672.58</ele>
        <time>2020-05-18T13:56:10Z</time>
      </trkpt>
      <trkpt lat="46.02724" lon="6.39172">
        <ele>674.02</ele>
        <time>2020-05-18T13:56:11Z</time>
      </trkpt>
      <trkpt lat="46.02711" lon="6.39175">
        <ele>675.46</ele>
        <time>2020-05-18T13:56:12Z</time>
      </trkpt>
      <trkpt lat="46.02697" lon="6.3918">
        <ele>676.42</ele>
        <time>2020-05-18T13:56:13Z</time>
      </trkpt>
      <trkpt lat="46.02682" lon="6.39188">
        <ele>677.39</ele>
        <time>2020-05-18T13:56:14Z</time>
      </trkpt>
      <trkpt lat="46.02664" lon="6.39196">
        <ele>678.35</ele>
        <time>2020-05-18T13:56:15Z</time>
      </trkpt>
      <trkpt lat="46.02648" lon="6.39207">
        <ele>678.83</ele>
        <time>2020-05-18T13:56:16Z</time>
      </trkpt>
      <trkpt lat="46.02635" lon="6.3922">
        <ele>679.79</ele>
        <time>2020-05-18T13:56:17Z</time>
      </trkpt>
      <trkpt lat="46.02532" lon="6.39327">
        <ele>686.04</ele>
        <time>2020-05-18T13:56:25Z</time>
      </trkpt>
      <trkpt lat="46.02523" lon="6.3934">
        <ele>687</ele>
        <time>2020-05-18T13:56:26Z</time>
      </trkpt>
      <trkpt lat="46.02512" lon="6.39354">
        <ele>687.48</ele>
        <time>2020-05-18T13:56:27Z</time>
      </trkpt>
      <trkpt lat="46.02501" lon="6.39366">
        <ele>687.96</ele>
        <time>2020-05-18T13:56:28Z</time>
      </trkpt>
      <trkpt lat="46.02491" lon="6.39377">
        <ele>688.44</ele>
        <time>2020-05-18T13:56:29Z</time>
      </trkpt>
      <trkpt lat="46.02473" lon="6.39398">
        <ele>689.4</ele>
        <time>2020-05-18T13:56:31Z</time>
      </trkpt>
      <trkpt lat="46.02468" lon="6.39412">
        <ele>689.88</ele>
        <time>2020-05-18T13:56:32Z</time>
      </trkpt>
      <trkpt lat="46.02464" lon="6.39426">
        <ele>690.36</ele>
        <time>2020-05-18T13:56:33Z</time>
      </trkpt>
      <trkpt lat="46.0246" lon="6.3944">
        <ele>689.88</ele>
        <time>2020-05-18T13:56:34Z</time>
      </trkpt>
      <trkpt lat="46.02456" lon="6.39455">
        <ele>689.4</ele>
        <time>2020-05-18T13:56:35Z</time>
      </trkpt>
      <trkpt lat="46.02452" lon="6.39469">
        <ele>688.92</ele>
        <time>2020-05-18T13:56:36Z</time>
      </trkpt>
      <trkpt lat="46.02447" lon="6.3948">
        <ele>688.92</ele>
        <time>2020-05-18T13:56:37Z</time>
      </trkpt>
      <trkpt lat="46.02438" lon="6.39487">
        <ele>688.92</ele>
        <time>2020-05-18T13:56:38Z</time>
      </trkpt>
      <trkpt lat="46.02428" lon="6.3949">
        <ele>688.92</ele>
        <time>2020-05-18T13:56:39Z</time>
      </trkpt>
      <trkpt lat="46.02415" lon="6.3949">
        <ele>688.92</ele>
        <time>2020-05-18T13:56:40Z</time>
      </trkpt>
      <trkpt lat="46.02401" lon="6.39489">
        <ele>689.4</ele>
        <time>2020-05-18T13:56:41Z</time>
      </trkpt>
      <trkpt lat="46.02387" lon="6.3949">
        <ele>690.36</ele>
        <time>2020-05-18T13:56:42Z</time>
      </trkpt>
      <trkpt lat="46.02376" lon="6.39494">
        <ele>691.81</ele>
        <time>2020-05-18T13:56:43Z</time>
      </trkpt>
      <trkpt lat="46.02365" lon="6.39503">
        <ele>692.77</ele>
        <time>2020-05-18T13:56:44Z</time>
      </trkpt>
      <trkpt lat="46.02356" lon="6.39512">
        <ele>693.73</ele>
        <time>2020-05-18T13:56:45Z</time>
      </trkpt>
      <trkpt lat="46.02346" lon="6.39521">
        <ele>694.69</ele>
        <time>2020-05-18T13:56:46Z</time>
      </trkpt>
      <trkpt lat="46.02337" lon="6.3953">
        <ele>695.65</ele>
        <time>2020-05-18T13:56:47Z</time>
      </trkpt>
      <trkpt lat="46.02327" lon="6.39531">
        <ele>696.61</ele>
        <time>2020-05-18T13:56:48Z</time>
      </trkpt>
      <trkpt lat="46.02315" lon="6.3953">
        <ele>698.05</ele>
        <time>2020-05-18T13:56:49Z</time>
      </trkpt>
      <trkpt lat="46.02304" lon="6.3953">
        <ele>699.02</ele>
        <time>2020-05-18T13:56:50Z</time>
      </trkpt>
      <trkpt lat="46.02293" lon="6.39529">
        <ele>699.98</ele>
        <time>2020-05-18T13:56:51Z</time>
      </trkpt>
      <trkpt lat="46.02283" lon="6.39533">
        <ele>700.94</ele>
        <time>2020-05-18T13:56:52Z</time>
      </trkpt>
      <trkpt lat="46.02272" lon="6.3954">
        <ele>700.94</ele>
        <time>2020-05-18T13:56:53Z</time>
      </trkpt>
      <trkpt lat="46.02262" lon="6.39549">
        <ele>701.42</ele>
        <time>2020-05-18T13:56:54Z</time>
      </trkpt>
      <trkpt lat="46.02253" lon="6.39566">
        <ele>701.9</ele>
        <time>2020-05-18T13:56:55Z</time>
      </trkpt>
      <trkpt lat="46.02243" lon="6.39583">
        <ele>702.86</ele>
        <time>2020-05-18T13:56:57Z</time>
      </trkpt>
      <trkpt lat="46.02214" lon="6.39631">
        <ele>703.34</ele>
        <time>2020-05-18T13:56:59Z</time>
      </trkpt>
      <trkpt lat="46.02163" lon="6.39696">
        <ele>706.71</ele>
        <time>2020-05-18T13:57:04Z</time>
      </trkpt>
      <trkpt lat="46.02149" lon="6.39703">
        <ele>707.67</ele>
        <time>2020-05-18T13:57:05Z</time>
      </trkpt>
      <trkpt lat="46.02136" lon="6.39709">
        <ele>708.15</ele>
        <time>2020-05-18T13:57:06Z</time>
      </trkpt>
      <trkpt lat="46.02122" lon="6.39707">
        <ele>709.11</ele>
        <time>2020-05-18T13:57:07Z</time>
      </trkpt>
      <trkpt lat="46.02108" lon="6.397">
        <ele>709.59</ele>
        <time>2020-05-18T13:57:08Z</time>
      </trkpt>
      <trkpt lat="46.02095" lon="6.3969">
        <ele>709.59</ele>
        <time>2020-05-18T13:57:09Z</time>
      </trkpt>
      <trkpt lat="46.02082" lon="6.39679">
        <ele>710.55</ele>
        <time>2020-05-18T13:57:10Z</time>
      </trkpt>
      <trkpt lat="46.02055" lon="6.39658">
        <ele>711.51</ele>
        <time>2020-05-18T13:57:12Z</time>
      </trkpt>
      <trkpt lat="46.02031" lon="6.3964">
        <ele>712.95</ele>
        <time>2020-05-18T13:57:14Z</time>
      </trkpt>
      <trkpt lat="46.02008" lon="6.39628">
        <ele>713.44</ele>
        <time>2020-05-18T13:57:16Z</time>
      </trkpt>
      <trkpt lat="46.01995" lon="6.39624">
        <ele>713.92</ele>
        <time>2020-05-18T13:57:17Z</time>
      </trkpt>
      <trkpt lat="46.01983" lon="6.39621">
        <ele>713.92</ele>
        <time>2020-05-18T13:57:18Z</time>
      </trkpt>
      <trkpt lat="46.01972" lon="6.3962">
        <ele>713.92</ele>
        <time>2020-05-18T13:57:19Z</time>
      </trkpt>
      <trkpt lat="46.01961" lon="6.39622">
        <ele>713.92</ele>
        <time>2020-05-18T13:57:20Z</time>
      </trkpt>
      <trkpt lat="46.01951" lon="6.39628">
        <ele>713.92</ele>
        <time>2020-05-18T13:57:21Z</time>
      </trkpt>
      <trkpt lat="46.01943" lon="6.39636">
        <ele>713.92</ele>
        <time>2020-05-18T13:57:22Z</time>
      </trkpt>
      <trkpt lat="46.01935" lon="6.39645">
        <ele>713.92</ele>
        <time>2020-05-18T13:57:23Z</time>
      </trkpt>
      <trkpt lat="46.01929" lon="6.39658">
        <ele>713.92</ele>
        <time>2020-05-18T13:57:24Z</time>
      </trkpt>
      <trkpt lat="46.01923" lon="6.39672">
        <ele>713.92</ele>
        <time>2020-05-18T13:57:25Z</time>
      </trkpt>
      <trkpt lat="46.01917" lon="6.39686">
        <ele>713.92</ele>
        <time>2020-05-18T13:57:26Z</time>
      </trkpt>
      <trkpt lat="46.01909" lon="6.39697">
        <ele>713.92</ele>
        <time>2020-05-18T13:57:27Z</time>
      </trkpt>
      <trkpt lat="46.01897" lon="6.39703">
        <ele>713.92</ele>
        <time>2020-05-18T13:57:28Z</time>
      </trkpt>
      <trkpt lat="46.01885" lon="6.397">
        <ele>713.92</ele>
        <time>2020-05-18T13:57:29Z</time>
      </trkpt>
      <trkpt lat="46.01873" lon="6.39695">
        <ele>713.92</ele>
        <time>2020-05-18T13:57:30Z</time>
      </trkpt>
      <trkpt lat="46.01859" lon="6.39688">
        <ele>714.4</ele>
        <time>2020-05-18T13:57:31Z</time>
      </trkpt>
      <trkpt lat="46.01846" lon="6.3968">
        <ele>714.88</ele>
        <time>2020-05-18T13:57:32Z</time>
      </trkpt>
      <trkpt lat="46.01833" lon="6.39672">
        <ele>715.84</ele>
        <time>2020-05-18T13:57:33Z</time>
      </trkpt>
      <trkpt lat="46.0174" lon="6.39643">
        <ele>719.2</ele>
        <time>2020-05-18T13:57:40Z</time>
      </trkpt>
      <trkpt lat="46.01626" lon="6.39602">
        <ele>722.09</ele>
        <time>2020-05-18T13:57:48Z</time>
      </trkpt>
      <trkpt lat="46.01609" lon="6.39599">
        <ele>722.09</ele>
        <time>2020-05-18T13:57:49Z</time>
      </trkpt>
      <trkpt lat="46.01595" lon="6.39597">
        <ele>722.57</ele>
        <time>2020-05-18T13:57:50Z</time>
      </trkpt>
      <trkpt lat="46.01581" lon="6.39596">
        <ele>722.57</ele>
        <time>2020-05-18T13:57:51Z</time>
      </trkpt>
      <trkpt lat="46.01449" lon="6.39628">
        <ele>721.13</ele>
        <time>2020-05-18T13:58:02Z</time>
      </trkpt>
      <trkpt lat="46.01351" lon="6.39651">
        <ele>717.28</ele>
        <time>2020-05-18T13:58:10Z</time>
      </trkpt>
      <trkpt lat="46.01338" lon="6.39647">
        <ele>716.8</ele>
        <time>2020-05-18T13:58:11Z</time>
      </trkpt>
      <trkpt lat="46.01325" lon="6.39642">
        <ele>716.8</ele>
        <time>2020-05-18T13:58:12Z</time>
      </trkpt>
      <trkpt lat="46.01217" lon="6.39597">
        <ele>716.32</ele>
        <time>2020-05-18T13:58:21Z</time>
      </trkpt>
      <trkpt lat="46.01181" lon="6.39583">
        <ele>717.28</ele>
        <time>2020-05-18T13:58:24Z</time>
      </trkpt>
      <trkpt lat="46.01169" lon="6.39582">
        <ele>717.76</ele>
        <time>2020-05-18T13:58:25Z</time>
      </trkpt>
      <trkpt lat="46.01156" lon="6.3958">
        <ele>717.76</ele>
        <time>2020-05-18T13:58:26Z</time>
      </trkpt>
      <trkpt lat="46.01145" lon="6.39587">
        <ele>717.76</ele>
        <time>2020-05-18T13:58:27Z</time>
      </trkpt>
      <trkpt lat="46.01133" lon="6.39595">
        <ele>717.76</ele>
        <time>2020-05-18T13:58:28Z</time>
      </trkpt>
      <trkpt lat="46.01122" lon="6.39607">
        <ele>717.76</ele>
        <time>2020-05-18T13:58:29Z</time>
      </trkpt>
      <trkpt lat="46.01111" lon="6.39618">
        <ele>717.76</ele>
        <time>2020-05-18T13:58:30Z</time>
      </trkpt>
      <trkpt lat="46.01079" lon="6.3965">
        <ele>717.76</ele>
        <time>2020-05-18T13:58:34Z</time>
      </trkpt>
      <trkpt lat="46.01028" lon="6.39682">
        <ele>717.28</ele>
        <time>2020-05-18T13:58:37Z</time>
      </trkpt>
      <trkpt lat="46.01014" lon="6.39684">
        <ele>717.28</ele>
        <time>2020-05-18T13:58:38Z</time>
      </trkpt>
      <trkpt lat="46.00986" lon="6.39688">
        <ele>716.8</ele>
        <time>2020-05-18T13:58:40Z</time>
      </trkpt>
      <trkpt lat="46.00971" lon="6.39686">
        <ele>716.8</ele>
        <time>2020-05-18T13:58:41Z</time>
      </trkpt>
      <trkpt lat="46.00774" lon="6.39673">
        <ele>720.65</ele>
        <time>2020-05-18T13:58:55Z</time>
      </trkpt>
      <trkpt lat="46.00615" lon="6.39692">
        <ele>721.61</ele>
        <time>2020-05-18T13:59:06Z</time>
      </trkpt>
      <trkpt lat="46.00551" lon="6.39705">
        <ele>720.16</ele>
        <time>2020-05-18T13:59:11Z</time>
      </trkpt>
      <trkpt lat="46.0054" lon="6.39711">
        <ele>719.2</ele>
        <time>2020-05-18T13:59:12Z</time>
      </trkpt>
      <trkpt lat="46.0053" lon="6.3972">
        <ele>718.24</ele>
        <time>2020-05-18T13:59:13Z</time>
      </trkpt>
      <trkpt lat="46.0052" lon="6.39729">
        <ele>717.28</ele>
        <time>2020-05-18T13:59:14Z</time>
      </trkpt>
      <trkpt lat="46.0051" lon="6.39737">
        <ele>716.8</ele>
        <time>2020-05-18T13:59:15Z</time>
      </trkpt>
      <trkpt lat="46.00501" lon="6.39746">
        <ele>715.84</ele>
        <time>2020-05-18T13:59:16Z</time>
      </trkpt>
      <trkpt lat="46.0049" lon="6.39753">
        <ele>715.36</ele>
        <time>2020-05-18T13:59:17Z</time>
      </trkpt>
      <trkpt lat="46.00478" lon="6.39756">
        <ele>714.4</ele>
        <time>2020-05-18T13:59:18Z</time>
      </trkpt>
      <trkpt lat="46.00467" lon="6.39755">
        <ele>713.92</ele>
        <time>2020-05-18T13:59:19Z</time>
      </trkpt>
      <trkpt lat="46.00456" lon="6.39752">
        <ele>712.95</ele>
        <time>2020-05-18T13:59:20Z</time>
      </trkpt>
      <trkpt lat="46.00445" lon="6.39748">
        <ele>712.95</ele>
        <time>2020-05-18T13:59:21Z</time>
      </trkpt>
      <trkpt lat="46.00383" lon="6.39718">
        <ele>712.95</ele>
        <time>2020-05-18T13:59:29Z</time>
      </trkpt>
      <trkpt lat="46.00362" lon="6.39707">
        <ele>713.44</ele>
        <time>2020-05-18T13:59:34Z</time>
      </trkpt>
      <trkpt lat="46.00338" lon="6.39693">
        <ele>715.84</ele>
        <time>2020-05-18T13:59:43Z</time>
      </trkpt>
      <trkpt lat="46.00333" lon="6.3969">
        <ele>715.84</ele>
        <time>2020-05-18T13:59:50Z</time>
      </trkpt>
      <trkpt lat="46.00331" lon="6.39689">
        <ele>716.32</ele>
        <time>2020-05-18T13:59:51Z</time>
      </trkpt>
      <trkpt lat="46.00328" lon="6.39687">
        <ele>716.32</ele>
        <time>2020-05-18T13:59:52Z</time>
      </trkpt>
      <trkpt lat="46.00324" lon="6.39685">
        <ele>716.8</ele>
        <time>2020-05-18T13:59:53Z</time>
      </trkpt>
      <trkpt lat="46.00321" lon="6.39683">
        <ele>716.8</ele>
        <time>2020-05-18T13:59:54Z</time>
      </trkpt>
      <trkpt lat="46.00318" lon="6.39682">
        <ele>717.28</ele>
        <time>2020-05-18T13:59:55Z</time>
      </trkpt>
      <trkpt lat="46.00316" lon="6.3968">
        <ele>717.76</ele>
        <time>2020-05-18T13:59:57Z</time>
      </trkpt>
      <trkpt lat="46.00314" lon="6.39679">
        <ele>718.24</ele>
        <time>2020-05-18T14:00:11Z</time>
      </trkpt>
      <trkpt lat="46.00314" lon="6.39679">
        <ele>718.72</ele>
        <time>2020-05-18T14:00:59Z</time>
      </trkpt>
      <trkpt lat="46.0029" lon="6.39664">
        <ele>721.13</ele>
        <time>2020-05-18T14:01:08Z</time>
      </trkpt>
      <trkpt lat="46.00286" lon="6.39661">
        <ele>720.65</ele>
        <time>2020-05-18T14:01:09Z</time>
      </trkpt>
      <trkpt lat="46.00281" lon="6.39658">
        <ele>721.13</ele>
        <time>2020-05-18T14:01:10Z</time>
      </trkpt>
      <trkpt lat="46.0027" lon="6.39651">
        <ele>722.09</ele>
        <time>2020-05-18T14:01:12Z</time>
      </trkpt>
      <trkpt lat="46.00263" lon="6.39649">
        <ele>722.09</ele>
        <time>2020-05-18T14:01:13Z</time>
      </trkpt>
      <trkpt lat="46.00255" lon="6.39646">
        <ele>722.57</ele>
        <time>2020-05-18T14:01:15Z</time>
      </trkpt>
      <trkpt lat="46.00226" lon="6.39633">
        <ele>723.53</ele>
        <time>2020-05-18T14:01:19Z</time>
      </trkpt>
      <trkpt lat="46.00212" lon="6.39628">
        <ele>723.53</ele>
        <time>2020-05-18T14:01:21Z</time>
      </trkpt>
      <trkpt lat="46.00199" lon="6.39623">
        <ele>724.01</ele>
        <time>2020-05-18T14:01:22Z</time>
      </trkpt>
      <trkpt lat="46.00193" lon="6.39623">
        <ele>724.01</ele>
        <time>2020-05-18T14:01:24Z</time>
      </trkpt>
      <trkpt lat="46.00178" lon="6.39623">
        <ele>724.49</ele>
        <time>2020-05-18T14:01:25Z</time>
      </trkpt>
      <trkpt lat="46.0017" lon="6.39622">
        <ele>724.49</ele>
        <time>2020-05-18T14:01:26Z</time>
      </trkpt>
      <trkpt lat="46.00141" lon="6.39622">
        <ele>726.89</ele>
        <time>2020-05-18T14:01:30Z</time>
      </trkpt>
      <trkpt lat="46.00135" lon="6.39621">
        <ele>727.37</ele>
        <time>2020-05-18T14:01:31Z</time>
      </trkpt>
      <trkpt lat="46.00116" lon="6.39621">
        <ele>729.3</ele>
        <time>2020-05-18T14:01:35Z</time>
      </trkpt>
      <trkpt lat="46.0011" lon="6.3962">
        <ele>730.26</ele>
        <time>2020-05-18T14:01:36Z</time>
      </trkpt>
      <trkpt lat="46.00105" lon="6.39619">
        <ele>731.22</ele>
        <time>2020-05-18T14:01:38Z</time>
      </trkpt>
      <trkpt lat="46.00094" lon="6.39617">
        <ele>732.18</ele>
        <time>2020-05-18T14:01:39Z</time>
      </trkpt>
      <trkpt lat="46.00084" lon="6.39613">
        <ele>733.62</ele>
        <time>2020-05-18T14:01:42Z</time>
      </trkpt>
      <trkpt lat="46.00062" lon="6.39598">
        <ele>735.07</ele>
        <time>2020-05-18T14:01:45Z</time>
      </trkpt>
      <trkpt lat="46.00056" lon="6.39594">
        <ele>735.55</ele>
        <time>2020-05-18T14:01:46Z</time>
      </trkpt>
      <trkpt lat="46.00023" lon="6.39557">
        <ele>737.95</ele>
        <time>2020-05-18T14:01:53Z</time>
      </trkpt>
      <trkpt lat="45.99999" lon="6.39525">
        <ele>738.91</ele>
        <time>2020-05-18T14:01:57Z</time>
      </trkpt>
      <trkpt lat="45.99982" lon="6.39497">
        <ele>739.87</ele>
        <time>2020-05-18T14:02:01Z</time>
      </trkpt>
      <trkpt lat="45.99964" lon="6.39476">
        <ele>740.83</ele>
        <time>2020-05-18T14:02:07Z</time>
      </trkpt>
      <trkpt lat="45.99956" lon="6.39467">
        <ele>741.31</ele>
        <time>2020-05-18T14:02:09Z</time>
      </trkpt>
      <trkpt lat="45.99952" lon="6.39463">
        <ele>741.79</ele>
        <time>2020-05-18T14:02:10Z</time>
      </trkpt>
      <trkpt lat="45.99947" lon="6.39461">
        <ele>741.79</ele>
        <time>2020-05-18T14:02:11Z</time>
      </trkpt>
      <trkpt lat="45.99936" lon="6.39456">
        <ele>742.28</ele>
        <time>2020-05-18T14:02:13Z</time>
      </trkpt>
      <trkpt lat="45.99928" lon="6.39453">
        <ele>742.76</ele>
        <time>2020-05-18T14:02:14Z</time>
      </trkpt>
      <trkpt lat="45.99919" lon="6.3945">
        <ele>742.76</ele>
        <time>2020-05-18T14:02:15Z</time>
      </trkpt>
      <trkpt lat="45.99907" lon="6.39447">
        <ele>742.76</ele>
        <time>2020-05-18T14:02:16Z</time>
      </trkpt>
      <trkpt lat="45.99895" lon="6.39447">
        <ele>743.24</ele>
        <time>2020-05-18T14:02:17Z</time>
      </trkpt>
      <trkpt lat="45.99799" lon="6.39449">
        <ele>746.6</ele>
        <time>2020-05-18T14:02:24Z</time>
      </trkpt>
      <trkpt lat="45.99617" lon="6.39433">
        <ele>750.45</ele>
        <time>2020-05-18T14:02:36Z</time>
      </trkpt>
      <trkpt lat="45.99522" lon="6.39445">
        <ele>751.41</ele>
        <time>2020-05-18T14:02:40Z</time>
      </trkpt>
      <trkpt lat="45.99501" lon="6.39448">
        <ele>751.89</ele>
        <time>2020-05-18T14:02:42Z</time>
      </trkpt>
      <trkpt lat="45.99378" lon="6.39416">
        <ele>753.33</ele>
        <time>2020-05-18T14:02:48Z</time>
      </trkpt>
      <trkpt lat="45.99231" lon="6.39336">
        <ele>755.73</ele>
        <time>2020-05-18T14:02:58Z</time>
      </trkpt>
      <trkpt lat="45.9919" lon="6.39322">
        <ele>755.25</ele>
        <time>2020-05-18T14:03:02Z</time>
      </trkpt>
      <trkpt lat="45.9918" lon="6.39325">
        <ele>755.25</ele>
        <time>2020-05-18T14:03:03Z</time>
      </trkpt>
      <trkpt lat="45.99173" lon="6.39331">
        <ele>754.29</ele>
        <time>2020-05-18T14:03:05Z</time>
      </trkpt>
      <trkpt lat="45.9916" lon="6.39354">
        <ele>754.29</ele>
        <time>2020-05-18T14:03:06Z</time>
      </trkpt>
      <trkpt lat="45.99153" lon="6.39365">
        <ele>753.81</ele>
        <time>2020-05-18T14:03:07Z</time>
      </trkpt>
      <trkpt lat="45.99146" lon="6.39372">
        <ele>753.33</ele>
        <time>2020-05-18T14:03:08Z</time>
      </trkpt>
      <trkpt lat="45.99138" lon="6.39379">
        <ele>752.85</ele>
        <time>2020-05-18T14:03:09Z</time>
      </trkpt>
      <trkpt lat="45.99128" lon="6.39382">
        <ele>751.41</ele>
        <time>2020-05-18T14:03:11Z</time>
      </trkpt>
      <trkpt lat="45.99118" lon="6.3938">
        <ele>750.93</ele>
        <time>2020-05-18T14:03:12Z</time>
      </trkpt>
      <trkpt lat="45.99088" lon="6.39374">
        <ele>747.56</ele>
        <time>2020-05-18T14:03:15Z</time>
      </trkpt>
      <trkpt lat="45.99067" lon="6.39375">
        <ele>746.6</ele>
        <time>2020-05-18T14:03:16Z</time>
      </trkpt>
      <trkpt lat="45.99056" lon="6.39376">
        <ele>746.12</ele>
        <time>2020-05-18T14:03:17Z</time>
      </trkpt>
      <trkpt lat="45.99045" lon="6.39378">
        <ele>745.16</ele>
        <time>2020-05-18T14:03:18Z</time>
      </trkpt>
      <trkpt lat="45.99035" lon="6.3938">
        <ele>744.68</ele>
        <time>2020-05-18T14:03:19Z</time>
      </trkpt>
      <trkpt lat="45.99025" lon="6.39377">
        <ele>744.2</ele>
        <time>2020-05-18T14:03:20Z</time>
      </trkpt>
      <trkpt lat="45.99015" lon="6.39368">
        <ele>744.2</ele>
        <time>2020-05-18T14:03:21Z</time>
      </trkpt>
      <trkpt lat="45.99005" lon="6.39359">
        <ele>743.24</ele>
        <time>2020-05-18T14:03:22Z</time>
      </trkpt>
      <trkpt lat="45.98988" lon="6.39345">
        <ele>741.79</ele>
        <time>2020-05-18T14:03:25Z</time>
      </trkpt>
      <trkpt lat="45.98971" lon="6.39341">
        <ele>741.31</ele>
        <time>2020-05-18T14:03:26Z</time>
      </trkpt>
      <trkpt lat="45.98962" lon="6.39343">
        <ele>740.35</ele>
        <time>2020-05-18T14:03:27Z</time>
      </trkpt>
      <trkpt lat="45.98938" lon="6.39345">
        <ele>737.95</ele>
        <time>2020-05-18T14:03:29Z</time>
      </trkpt>
      <trkpt lat="45.98927" lon="6.39345">
        <ele>736.99</ele>
        <time>2020-05-18T14:03:30Z</time>
      </trkpt>
      <trkpt lat="45.98914" lon="6.39342">
        <ele>736.03</ele>
        <time>2020-05-18T14:03:31Z</time>
      </trkpt>
      <trkpt lat="45.98903" lon="6.39336">
        <ele>735.55</ele>
        <time>2020-05-18T14:03:32Z</time>
      </trkpt>
      <trkpt lat="45.98892" lon="6.39328">
        <ele>735.07</ele>
        <time>2020-05-18T14:03:33Z</time>
      </trkpt>
      <trkpt lat="45.9888" lon="6.39318">
        <ele>734.1</ele>
        <time>2020-05-18T14:03:34Z</time>
      </trkpt>
      <trkpt lat="45.98869" lon="6.39308">
        <ele>733.62</ele>
        <time>2020-05-18T14:03:35Z</time>
      </trkpt>
      <trkpt lat="45.9881" lon="6.39243">
        <ele>730.74</ele>
        <time>2020-05-18T14:03:39Z</time>
      </trkpt>
      <trkpt lat="45.98794" lon="6.3922">
        <ele>730.26</ele>
        <time>2020-05-18T14:03:40Z</time>
      </trkpt>
      <trkpt lat="45.98768" lon="6.39175">
        <ele>728.34</ele>
        <time>2020-05-18T14:03:42Z</time>
      </trkpt>
      <trkpt lat="45.98753" lon="6.39157">
        <ele>727.37</ele>
        <time>2020-05-18T14:03:43Z</time>
      </trkpt>
      <trkpt lat="45.98737" lon="6.39141">
        <ele>726.41</ele>
        <time>2020-05-18T14:03:44Z</time>
      </trkpt>
      <trkpt lat="45.9862" lon="6.39038">
        <ele>720.16</ele>
        <time>2020-05-18T14:03:50Z</time>
      </trkpt>
      <trkpt lat="45.98517" lon="6.38904">
        <ele>717.76</ele>
        <time>2020-05-18T14:03:54Z</time>
      </trkpt>
      <trkpt lat="45.98449" lon="6.38798">
        <ele>718.24</ele>
        <time>2020-05-18T14:03:58Z</time>
      </trkpt>
      <trkpt lat="45.98434" lon="6.38785">
        <ele>718.72</ele>
        <time>2020-05-18T14:03:59Z</time>
      </trkpt>
      <trkpt lat="45.98419" lon="6.38776">
        <ele>719.2</ele>
        <time>2020-05-18T14:04:00Z</time>
      </trkpt>
      <trkpt lat="45.98402" lon="6.38768">
        <ele>719.68</ele>
        <time>2020-05-18T14:04:01Z</time>
      </trkpt>
      <trkpt lat="45.98382" lon="6.38764">
        <ele>720.65</ele>
        <time>2020-05-18T14:04:02Z</time>
      </trkpt>
      <trkpt lat="45.98363" lon="6.3876">
        <ele>721.61</ele>
        <time>2020-05-18T14:04:03Z</time>
      </trkpt>
      <trkpt lat="45.98325" lon="6.38752">
        <ele>723.05</ele>
        <time>2020-05-18T14:04:05Z</time>
      </trkpt>
      <trkpt lat="45.98255" lon="6.38733">
        <ele>725.45</ele>
        <time>2020-05-18T14:04:09Z</time>
      </trkpt>
      <trkpt lat="45.98239" lon="6.38733">
        <ele>725.93</ele>
        <time>2020-05-18T14:04:10Z</time>
      </trkpt>
      <trkpt lat="45.98223" lon="6.38733">
        <ele>726.41</ele>
        <time>2020-05-18T14:04:11Z</time>
      </trkpt>
      <trkpt lat="45.98137" lon="6.3874">
        <ele>727.86</ele>
        <time>2020-05-18T14:04:15Z</time>
      </trkpt>
      <trkpt lat="45.97996" lon="6.38735">
        <ele>729.3</ele>
        <time>2020-05-18T14:04:19Z</time>
      </trkpt>
      <trkpt lat="45.97868" lon="6.38721">
        <ele>731.7</ele>
        <time>2020-05-18T14:04:23Z</time>
      </trkpt>
      <trkpt lat="45.97808" lon="6.38722">
        <ele>733.14</ele>
        <time>2020-05-18T14:04:26Z</time>
      </trkpt>
      <trkpt lat="45.9779" lon="6.38725">
        <ele>733.62</ele>
        <time>2020-05-18T14:04:27Z</time>
      </trkpt>
      <trkpt lat="45.97773" lon="6.38727">
        <ele>734.1</ele>
        <time>2020-05-18T14:04:28Z</time>
      </trkpt>
      <trkpt lat="45.97756" lon="6.3873">
        <ele>734.58</ele>
        <time>2020-05-18T14:04:29Z</time>
      </trkpt>
      <trkpt lat="45.97739" lon="6.38724">
        <ele>735.07</ele>
        <time>2020-05-18T14:04:30Z</time>
      </trkpt>
      <trkpt lat="45.9772" lon="6.38715">
        <ele>735.07</ele>
        <time>2020-05-18T14:04:31Z</time>
      </trkpt>
      <trkpt lat="45.97699" lon="6.38706">
        <ele>736.03</ele>
        <time>2020-05-18T14:04:32Z</time>
      </trkpt>
      <trkpt lat="45.97675" lon="6.38699">
        <ele>736.51</ele>
        <time>2020-05-18T14:04:33Z</time>
      </trkpt>
      <trkpt lat="45.9765" lon="6.38693">
        <ele>737.95</ele>
        <time>2020-05-18T14:04:35Z</time>
      </trkpt>
      <trkpt lat="45.97497" lon="6.38661">
        <ele>740.83</ele>
        <time>2020-05-18T14:04:41Z</time>
      </trkpt>
      <trkpt lat="45.97482" lon="6.38658">
        <ele>741.79</ele>
        <time>2020-05-18T14:04:43Z</time>
      </trkpt>
      <trkpt lat="45.97461" lon="6.3864">
        <ele>742.28</ele>
        <time>2020-05-18T14:04:44Z</time>
      </trkpt>
      <trkpt lat="45.97452" lon="6.38623">
        <ele>743.24</ele>
        <time>2020-05-18T14:04:45Z</time>
      </trkpt>
      <trkpt lat="45.97442" lon="6.38605">
        <ele>743.72</ele>
        <time>2020-05-18T14:04:46Z</time>
      </trkpt>
      <trkpt lat="45.97432" lon="6.38584">
        <ele>744.68</ele>
        <time>2020-05-18T14:04:47Z</time>
      </trkpt>
      <trkpt lat="45.97417" lon="6.38564">
        <ele>746.12</ele>
        <time>2020-05-18T14:04:49Z</time>
      </trkpt>
      <trkpt lat="45.97373" lon="6.38502">
        <ele>747.08</ele>
        <time>2020-05-18T14:04:51Z</time>
      </trkpt>
      <trkpt lat="45.97335" lon="6.38452">
        <ele>747.08</ele>
        <time>2020-05-18T14:04:54Z</time>
      </trkpt>
      <trkpt lat="45.97325" lon="6.38441">
        <ele>747.56</ele>
        <time>2020-05-18T14:04:55Z</time>
      </trkpt>
      <trkpt lat="45.97313" lon="6.38436">
        <ele>747.56</ele>
        <time>2020-05-18T14:04:56Z</time>
      </trkpt>
      <trkpt lat="45.973" lon="6.3843">
        <ele>747.56</ele>
        <time>2020-05-18T14:04:57Z</time>
      </trkpt>
      <trkpt lat="45.97285" lon="6.38434">
        <ele>747.56</ele>
        <time>2020-05-18T14:04:58Z</time>
      </trkpt>
      <trkpt lat="45.97268" lon="6.38439">
        <ele>748.04</ele>
        <time>2020-05-18T14:04:59Z</time>
      </trkpt>
      <trkpt lat="45.97144" lon="6.38478">
        <ele>745.64</ele>
        <time>2020-05-18T14:05:05Z</time>
      </trkpt>
      <trkpt lat="45.97087" lon="6.38492">
        <ele>745.16</ele>
        <time>2020-05-18T14:05:08Z</time>
      </trkpt>
      <trkpt lat="45.97068" lon="6.3849">
        <ele>744.68</ele>
        <time>2020-05-18T14:05:09Z</time>
      </trkpt>
      <trkpt lat="45.97049" lon="6.3848">
        <ele>744.68</ele>
        <time>2020-05-18T14:05:10Z</time>
      </trkpt>
      <trkpt lat="45.97028" lon="6.3847">
        <ele>744.68</ele>
        <time>2020-05-18T14:05:11Z</time>
      </trkpt>
      <trkpt lat="45.97009" lon="6.3846">
        <ele>745.16</ele>
        <time>2020-05-18T14:05:12Z</time>
      </trkpt>
      <trkpt lat="45.96978" lon="6.38445">
        <ele>745.64</ele>
        <time>2020-05-18T14:05:14Z</time>
      </trkpt>
      <trkpt lat="45.96963" lon="6.38442">
        <ele>746.12</ele>
        <time>2020-05-18T14:05:15Z</time>
      </trkpt>
      <trkpt lat="45.96947" lon="6.38445">
        <ele>746.6</ele>
        <time>2020-05-18T14:05:16Z</time>
      </trkpt>
      <trkpt lat="45.96928" lon="6.38451">
        <ele>746.6</ele>
        <time>2020-05-18T14:05:17Z</time>
      </trkpt>
      <trkpt lat="45.96907" lon="6.3846">
        <ele>747.08</ele>
        <time>2020-05-18T14:05:18Z</time>
      </trkpt>
      <trkpt lat="45.96883" lon="6.38473">
        <ele>747.56</ele>
        <time>2020-05-18T14:05:19Z</time>
      </trkpt>
      <trkpt lat="45.96755" lon="6.38528">
        <ele>751.41</ele>
        <time>2020-05-18T14:05:24Z</time>
      </trkpt>
      <trkpt lat="45.96732" lon="6.38534">
        <ele>751.89</ele>
        <time>2020-05-18T14:05:25Z</time>
      </trkpt>
      <trkpt lat="45.96707" lon="6.38537">
        <ele>752.85</ele>
        <time>2020-05-18T14:05:26Z</time>
      </trkpt>
      <trkpt lat="45.96592" lon="6.38537">
        <ele>755.73</ele>
        <time>2020-05-18T14:05:31Z</time>
      </trkpt>
      <trkpt lat="45.96569" lon="6.38546">
        <ele>756.21</ele>
        <time>2020-05-18T14:05:32Z</time>
      </trkpt>
      <trkpt lat="45.96545" lon="6.38556">
        <ele>756.69</ele>
        <time>2020-05-18T14:05:33Z</time>
      </trkpt>
      <trkpt lat="45.96438" lon="6.38614">
        <ele>758.62</ele>
        <time>2020-05-18T14:05:38Z</time>
      </trkpt>
      <trkpt lat="45.9642" lon="6.38621">
        <ele>759.1</ele>
        <time>2020-05-18T14:05:39Z</time>
      </trkpt>
      <trkpt lat="45.964" lon="6.38618">
        <ele>759.1</ele>
        <time>2020-05-18T14:05:40Z</time>
      </trkpt>
      <trkpt lat="45.9638" lon="6.38614">
        <ele>759.58</ele>
        <time>2020-05-18T14:05:41Z</time>
      </trkpt>
      <trkpt lat="45.9636" lon="6.38608">
        <ele>759.58</ele>
        <time>2020-05-18T14:05:42Z</time>
      </trkpt>
      <trkpt lat="45.9634" lon="6.38599">
        <ele>759.58</ele>
        <time>2020-05-18T14:05:43Z</time>
      </trkpt>
      <trkpt lat="45.96321" lon="6.38595">
        <ele>760.06</ele>
        <time>2020-05-18T14:05:44Z</time>
      </trkpt>
      <trkpt lat="45.96302" lon="6.38593">
        <ele>760.06</ele>
        <time>2020-05-18T14:05:45Z</time>
      </trkpt>
      <trkpt lat="45.96284" lon="6.3859">
        <ele>760.06</ele>
        <time>2020-05-18T14:05:46Z</time>
      </trkpt>
      <trkpt lat="45.96268" lon="6.38589">
        <ele>761.02</ele>
        <time>2020-05-18T14:05:48Z</time>
      </trkpt>
      <trkpt lat="45.96238" lon="6.38587">
        <ele>761.02</ele>
        <time>2020-05-18T14:05:49Z</time>
      </trkpt>
      <trkpt lat="45.96224" lon="6.38591">
        <ele>761.5</ele>
        <time>2020-05-18T14:05:50Z</time>
      </trkpt>
      <trkpt lat="45.9621" lon="6.38597">
        <ele>761.98</ele>
        <time>2020-05-18T14:05:51Z</time>
      </trkpt>
      <trkpt lat="45.96069" lon="6.38684">
        <ele>766.31</ele>
        <time>2020-05-18T14:06:01Z</time>
      </trkpt>
      <trkpt lat="45.95971" lon="6.38742">
        <ele>770.15</ele>
        <time>2020-05-18T14:06:11Z</time>
      </trkpt>
      <trkpt lat="45.9596" lon="6.38747">
        <ele>770.15</ele>
        <time>2020-05-18T14:06:12Z</time>
      </trkpt>
      <trkpt lat="45.95837" lon="6.38783">
        <ele>773.04</ele>
        <time>2020-05-18T14:06:21Z</time>
      </trkpt>
      <trkpt lat="45.95825" lon="6.38785">
        <ele>773.52</ele>
        <time>2020-05-18T14:06:22Z</time>
      </trkpt>
      <trkpt lat="45.9571" lon="6.38815">
        <ele>775.92</ele>
        <time>2020-05-18T14:06:32Z</time>
      </trkpt>
      <trkpt lat="45.95627" lon="6.3885">
        <ele>776.88</ele>
        <time>2020-05-18T14:06:39Z</time>
      </trkpt>
      <trkpt lat="45.95557" lon="6.38893">
        <ele>778.81</ele>
        <time>2020-05-18T14:06:45Z</time>
      </trkpt>
      <trkpt lat="45.95545" lon="6.38906">
        <ele>778.81</ele>
        <time>2020-05-18T14:06:46Z</time>
      </trkpt>
      <trkpt lat="45.95483" lon="6.38983">
        <ele>780.25</ele>
        <time>2020-05-18T14:06:51Z</time>
      </trkpt>
      <trkpt lat="45.95468" lon="6.38995">
        <ele>780.73</ele>
        <time>2020-05-18T14:06:52Z</time>
      </trkpt>
      <trkpt lat="45.95452" lon="6.39006">
        <ele>781.69</ele>
        <time>2020-05-18T14:06:54Z</time>
      </trkpt>
      <trkpt lat="45.95418" lon="6.39011">
        <ele>782.17</ele>
        <time>2020-05-18T14:06:55Z</time>
      </trkpt>
      <trkpt lat="45.95352" lon="6.3902">
        <ele>785.05</ele>
        <time>2020-05-18T14:06:59Z</time>
      </trkpt>
      <trkpt lat="45.95322" lon="6.39027">
        <ele>786.02</ele>
        <time>2020-05-18T14:07:01Z</time>
      </trkpt>
      <trkpt lat="45.95309" lon="6.39038">
        <ele>786.98</ele>
        <time>2020-05-18T14:07:02Z</time>
      </trkpt>
      <trkpt lat="45.95296" lon="6.3905">
        <ele>787.46</ele>
        <time>2020-05-18T14:07:03Z</time>
      </trkpt>
      <trkpt lat="45.95284" lon="6.39066">
        <ele>788.42</ele>
        <time>2020-05-18T14:07:04Z</time>
      </trkpt>
      <trkpt lat="45.95273" lon="6.39084">
        <ele>788.9</ele>
        <time>2020-05-18T14:07:05Z</time>
      </trkpt>
      <trkpt lat="45.95163" lon="6.39292">
        <ele>794.67</ele>
        <time>2020-05-18T14:07:16Z</time>
      </trkpt>
      <trkpt lat="45.95085" lon="6.39446">
        <ele>797.55</ele>
        <time>2020-05-18T14:07:25Z</time>
      </trkpt>
      <trkpt lat="45.95028" lon="6.39577">
        <ele>799.95</ele>
        <time>2020-05-18T14:07:31Z</time>
      </trkpt>
      <trkpt lat="45.9501" lon="6.39633">
        <ele>800.92</ele>
        <time>2020-05-18T14:07:33Z</time>
      </trkpt>
      <trkpt lat="45.94999" lon="6.39653">
        <ele>801.88</ele>
        <time>2020-05-18T14:07:34Z</time>
      </trkpt>
      <trkpt lat="45.94989" lon="6.3967">
        <ele>802.36</ele>
        <time>2020-05-18T14:07:35Z</time>
      </trkpt>
      <trkpt lat="45.94979" lon="6.39684">
        <ele>802.36</ele>
        <time>2020-05-18T14:07:36Z</time>
      </trkpt>
      <trkpt lat="45.94968" lon="6.39694">
        <ele>802.84</ele>
        <time>2020-05-18T14:07:37Z</time>
      </trkpt>
      <trkpt lat="45.94956" lon="6.39704">
        <ele>803.32</ele>
        <time>2020-05-18T14:07:38Z</time>
      </trkpt>
      <trkpt lat="45.94922" lon="6.39734">
        <ele>804.28</ele>
        <time>2020-05-18T14:07:41Z</time>
      </trkpt>
      <trkpt lat="45.94897" lon="6.39757">
        <ele>805.72</ele>
        <time>2020-05-18T14:07:44Z</time>
      </trkpt>
      <trkpt lat="45.94789" lon="6.39885">
        <ele>808.13</ele>
        <time>2020-05-18T14:07:48Z</time>
      </trkpt>
      <trkpt lat="45.94652" lon="6.40067">
        <ele>812.93</ele>
        <time>2020-05-18T14:07:54Z</time>
      </trkpt>
      <trkpt lat="45.94487" lon="6.40213">
        <ele>817.26</ele>
        <time>2020-05-18T14:08:00Z</time>
      </trkpt>
      <trkpt lat="45.94372" lon="6.40289">
        <ele>821.58</ele>
        <time>2020-05-18T14:08:05Z</time>
      </trkpt>
      <trkpt lat="45.94348" lon="6.40297">
        <ele>822.55</ele>
        <time>2020-05-18T14:08:06Z</time>
      </trkpt>
      <trkpt lat="45.943" lon="6.40309">
        <ele>823.99</ele>
        <time>2020-05-18T14:08:08Z</time>
      </trkpt>
      <trkpt lat="45.94274" lon="6.40309">
        <ele>824.47</ele>
        <time>2020-05-18T14:08:09Z</time>
      </trkpt>
      <trkpt lat="45.94249" lon="6.40304">
        <ele>825.43</ele>
        <time>2020-05-18T14:08:10Z</time>
      </trkpt>
      <trkpt lat="45.942" lon="6.40294">
        <ele>827.35</ele>
        <time>2020-05-18T14:08:12Z</time>
      </trkpt>
      <trkpt lat="45.9416" lon="6.40287">
        <ele>829.76</ele>
        <time>2020-05-18T14:08:14Z</time>
      </trkpt>
      <trkpt lat="45.94125" lon="6.40276">
        <ele>833.12</ele>
        <time>2020-05-18T14:08:17Z</time>
      </trkpt>
      <trkpt lat="45.94109" lon="6.40269">
        <ele>834.08</ele>
        <time>2020-05-18T14:08:18Z</time>
      </trkpt>
      <trkpt lat="45.94099" lon="6.40257">
        <ele>835.52</ele>
        <time>2020-05-18T14:08:19Z</time>
      </trkpt>
      <trkpt lat="45.94086" lon="6.40241">
        <ele>836.96</ele>
        <time>2020-05-18T14:08:20Z</time>
      </trkpt>
      <trkpt lat="45.94072" lon="6.40226">
        <ele>838.41</ele>
        <time>2020-05-18T14:08:21Z</time>
      </trkpt>
      <trkpt lat="45.94051" lon="6.40213">
        <ele>839.85</ele>
        <time>2020-05-18T14:08:22Z</time>
      </trkpt>
      <trkpt lat="45.94034" lon="6.40209">
        <ele>840.81</ele>
        <time>2020-05-18T14:08:23Z</time>
      </trkpt>
      <trkpt lat="45.94015" lon="6.40204">
        <ele>841.77</ele>
        <time>2020-05-18T14:08:24Z</time>
      </trkpt>
      <trkpt lat="45.93995" lon="6.40202">
        <ele>842.73</ele>
        <time>2020-05-18T14:08:25Z</time>
      </trkpt>
      <trkpt lat="45.93977" lon="6.40206">
        <ele>843.69</ele>
        <time>2020-05-18T14:08:26Z</time>
      </trkpt>
      <trkpt lat="45.9396" lon="6.4021">
        <ele>844.66</ele>
        <time>2020-05-18T14:08:27Z</time>
      </trkpt>
      <trkpt lat="45.93948" lon="6.40213">
        <ele>844.66</ele>
        <time>2020-05-18T14:08:28Z</time>
      </trkpt>
      <trkpt lat="45.93926" lon="6.40209">
        <ele>844.66</ele>
        <time>2020-05-18T14:08:29Z</time>
      </trkpt>
      <trkpt lat="45.93908" lon="6.40206">
        <ele>844.66</ele>
        <time>2020-05-18T14:08:30Z</time>
      </trkpt>
      <trkpt lat="45.93863" lon="6.40198">
        <ele>844.18</ele>
        <time>2020-05-18T14:08:33Z</time>
      </trkpt>
      <trkpt lat="45.9385" lon="6.40196">
        <ele>844.18</ele>
        <time>2020-05-18T14:08:34Z</time>
      </trkpt>
      <trkpt lat="45.93828" lon="6.40183">
        <ele>843.69</ele>
        <time>2020-05-18T14:08:35Z</time>
      </trkpt>
      <trkpt lat="45.93823" lon="6.40174">
        <ele>843.69</ele>
        <time>2020-05-18T14:08:36Z</time>
      </trkpt>
      <trkpt lat="45.93807" lon="6.40147">
        <ele>843.69</ele>
        <time>2020-05-18T14:08:37Z</time>
      </trkpt>
      <trkpt lat="45.93795" lon="6.40126">
        <ele>843.21</ele>
        <time>2020-05-18T14:08:38Z</time>
      </trkpt>
      <trkpt lat="45.93784" lon="6.40108">
        <ele>843.21</ele>
        <time>2020-05-18T14:08:39Z</time>
      </trkpt>
      <trkpt lat="45.93769" lon="6.40093">
        <ele>843.21</ele>
        <time>2020-05-18T14:08:40Z</time>
      </trkpt>
      <trkpt lat="45.93751" lon="6.40084">
        <ele>843.69</ele>
        <time>2020-05-18T14:08:41Z</time>
      </trkpt>
      <trkpt lat="45.93734" lon="6.40081">
        <ele>844.66</ele>
        <time>2020-05-18T14:08:42Z</time>
      </trkpt>
      <trkpt lat="45.93718" lon="6.40078">
        <ele>846.58</ele>
        <time>2020-05-18T14:08:43Z</time>
      </trkpt>
      <trkpt lat="45.93702" lon="6.40069">
        <ele>847.54</ele>
        <time>2020-05-18T14:08:44Z</time>
      </trkpt>
      <trkpt lat="45.93686" lon="6.40059">
        <ele>848.98</ele>
        <time>2020-05-18T14:08:45Z</time>
      </trkpt>
      <trkpt lat="45.93669" lon="6.4005">
        <ele>849.94</ele>
        <time>2020-05-18T14:08:46Z</time>
      </trkpt>
      <trkpt lat="45.93651" lon="6.40046">
        <ele>850.9</ele>
        <time>2020-05-18T14:08:47Z</time>
      </trkpt>
      <trkpt lat="45.93609" lon="6.40046">
        <ele>853.31</ele>
        <time>2020-05-18T14:08:49Z</time>
      </trkpt>
      <trkpt lat="45.93586" lon="6.40046">
        <ele>854.27</ele>
        <time>2020-05-18T14:08:50Z</time>
      </trkpt>
      <trkpt lat="45.93562" lon="6.40044">
        <ele>854.75</ele>
        <time>2020-05-18T14:08:51Z</time>
      </trkpt>
      <trkpt lat="45.93477" lon="6.40033">
        <ele>858.11</ele>
        <time>2020-05-18T14:08:55Z</time>
      </trkpt>
      <trkpt lat="45.93459" lon="6.40037">
        <ele>858.59</ele>
        <time>2020-05-18T14:08:56Z</time>
      </trkpt>
      <trkpt lat="45.9344" lon="6.40049">
        <ele>859.08</ele>
        <time>2020-05-18T14:08:57Z</time>
      </trkpt>
      <trkpt lat="45.93397" lon="6.40079">
        <ele>859.56</ele>
        <time>2020-05-18T14:08:59Z</time>
      </trkpt>
      <trkpt lat="45.93336" lon="6.40123">
        <ele>858.11</ele>
        <time>2020-05-18T14:09:02Z</time>
      </trkpt>
      <trkpt lat="45.93319" lon="6.40142">
        <ele>858.11</ele>
        <time>2020-05-18T14:09:03Z</time>
      </trkpt>
      <trkpt lat="45.93302" lon="6.40163">
        <ele>858.11</ele>
        <time>2020-05-18T14:09:04Z</time>
      </trkpt>
      <trkpt lat="45.93287" lon="6.40189">
        <ele>858.11</ele>
        <time>2020-05-18T14:09:05Z</time>
      </trkpt>
      <trkpt lat="45.9327" lon="6.40217">
        <ele>858.11</ele>
        <time>2020-05-18T14:09:06Z</time>
      </trkpt>
      <trkpt lat="45.93217" lon="6.40291">
        <ele>858.59</ele>
        <time>2020-05-18T14:09:09Z</time>
      </trkpt>
      <trkpt lat="45.93202" lon="6.40317">
        <ele>858.59</ele>
        <time>2020-05-18T14:09:10Z</time>
      </trkpt>
      <trkpt lat="45.93189" lon="6.40344">
        <ele>859.08</ele>
        <time>2020-05-18T14:09:11Z</time>
      </trkpt>
      <trkpt lat="45.93151" lon="6.40443">
        <ele>861.48</ele>
        <time>2020-05-18T14:09:16Z</time>
      </trkpt>
      <trkpt lat="45.93142" lon="6.40465">
        <ele>862.92</ele>
        <time>2020-05-18T14:09:18Z</time>
      </trkpt>
      <trkpt lat="45.93138" lon="6.40475">
        <ele>863.4</ele>
        <time>2020-05-18T14:09:19Z</time>
      </trkpt>
      <trkpt lat="45.93137" lon="6.4052">
        <ele>865.8</ele>
        <time>2020-05-18T14:09:22Z</time>
      </trkpt>
      <trkpt lat="45.93134" lon="6.40539">
        <ele>867.25</ele>
        <time>2020-05-18T14:09:24Z</time>
      </trkpt>
      <trkpt lat="45.9313" lon="6.40571">
        <ele>867.73</ele>
        <time>2020-05-18T14:09:25Z</time>
      </trkpt>
      <trkpt lat="45.93129" lon="6.40587">
        <ele>868.69</ele>
        <time>2020-05-18T14:09:26Z</time>
      </trkpt>
      <trkpt lat="45.9313" lon="6.40607">
        <ele>869.65</ele>
        <time>2020-05-18T14:09:27Z</time>
      </trkpt>
      <trkpt lat="45.93144" lon="6.40778">
        <ele>880.22</ele>
        <time>2020-05-18T14:09:36Z</time>
      </trkpt>
      <trkpt lat="45.93161" lon="6.40861">
        <ele>885.51</ele>
        <time>2020-05-18T14:09:41Z</time>
      </trkpt>
      <trkpt lat="45.93172" lon="6.4089">
        <ele>887.91</ele>
        <time>2020-05-18T14:09:43Z</time>
      </trkpt>
      <trkpt lat="45.93233" lon="6.41028">
        <ele>894.16</ele>
        <time>2020-05-18T14:09:51Z</time>
      </trkpt>
      <trkpt lat="45.93278" lon="6.41113">
        <ele>896.09</ele>
        <time>2020-05-18T14:09:57Z</time>
      </trkpt>
      <trkpt lat="45.93285" lon="6.41121">
        <ele>896.09</ele>
        <time>2020-05-18T14:09:58Z</time>
      </trkpt>
      <trkpt lat="45.93319" lon="6.41161">
        <ele>897.05</ele>
        <time>2020-05-18T14:10:05Z</time>
      </trkpt>
      <trkpt lat="45.93344" lon="6.41196">
        <ele>897.53</ele>
        <time>2020-05-18T14:10:18Z</time>
      </trkpt>
      <trkpt lat="45.93359" lon="6.41223">
        <ele>898.49</ele>
        <time>2020-05-18T14:10:29Z</time>
      </trkpt>
      <trkpt lat="45.93373" lon="6.41252">
        <ele>899.45</ele>
        <time>2020-05-18T14:10:35Z</time>
      </trkpt>
      <trkpt lat="45.93397" lon="6.41293">
        <ele>900.89</ele>
        <time>2020-05-18T14:10:41Z</time>
      </trkpt>
      <trkpt lat="45.93416" lon="6.41314">
        <ele>901.85</ele>
        <time>2020-05-18T14:10:45Z</time>
      </trkpt>
      <trkpt lat="45.9342" lon="6.41319">
        <ele>902.82</ele>
        <time>2020-05-18T14:10:47Z</time>
      </trkpt>
      <trkpt lat="45.93441" lon="6.41338">
        <ele>903.78</ele>
        <time>2020-05-18T14:10:56Z</time>
      </trkpt>
      <trkpt lat="45.93476" lon="6.41374">
        <ele>903.78</ele>
        <time>2020-05-18T14:11:03Z</time>
      </trkpt>
      <trkpt lat="45.93481" lon="6.41383">
        <ele>904.26</ele>
        <time>2020-05-18T14:11:04Z</time>
      </trkpt>
      <trkpt lat="45.93486" lon="6.41393">
        <ele>904.26</ele>
        <time>2020-05-18T14:11:05Z</time>
      </trkpt>
      <trkpt lat="45.93492" lon="6.41404">
        <ele>904.26</ele>
        <time>2020-05-18T14:11:06Z</time>
      </trkpt>
      <trkpt lat="45.93497" lon="6.41414">
        <ele>903.78</ele>
        <time>2020-05-18T14:11:07Z</time>
      </trkpt>
      <trkpt lat="45.93502" lon="6.41425">
        <ele>903.78</ele>
        <time>2020-05-18T14:11:08Z</time>
      </trkpt>
      <trkpt lat="45.93529" lon="6.41483">
        <ele>903.78</ele>
        <time>2020-05-18T14:11:13Z</time>
      </trkpt>
      <trkpt lat="45.93594" lon="6.41589">
        <ele>902.82</ele>
        <time>2020-05-18T14:11:23Z</time>
      </trkpt>
      <trkpt lat="45.93628" lon="6.4163">
        <ele>900.89</ele>
        <time>2020-05-18T14:11:29Z</time>
      </trkpt>
      <trkpt lat="45.93632" lon="6.41634">
        <ele>900.41</ele>
        <time>2020-05-18T14:11:30Z</time>
      </trkpt>
      <trkpt lat="45.93635" lon="6.41638">
        <ele>899.93</ele>
        <time>2020-05-18T14:11:31Z</time>
      </trkpt>
      <trkpt lat="45.93635" lon="6.4164">
        <ele>899.93</ele>
        <time>2020-05-18T14:11:32Z</time>
      </trkpt>
      <trkpt lat="45.93636" lon="6.41642">
        <ele>899.45</ele>
        <time>2020-05-18T14:11:33Z</time>
      </trkpt>
      <trkpt lat="45.93628" lon="6.41654">
        <ele>898.97</ele>
        <time>2020-05-18T14:11:35Z</time>
      </trkpt>
      <trkpt lat="45.93627" lon="6.41653">
        <ele>898.49</ele>
        <time>2020-05-18T14:11:36Z</time>
      </trkpt>
      <trkpt lat="45.93621" lon="6.41648">
        <ele>898.01</ele>
        <time>2020-05-18T14:11:37Z</time>
      </trkpt>
      <trkpt lat="45.93615" lon="6.41641">
        <ele>897.53</ele>
        <time>2020-05-18T14:11:38Z</time>
      </trkpt>
      <trkpt lat="45.93554" lon="6.41581">
        <ele>895.12</ele>
        <time>2020-05-18T14:11:43Z</time>
      </trkpt>
      <trkpt lat="45.93542" lon="6.41571">
        <ele>894.64</ele>
        <time>2020-05-18T14:11:44Z</time>
      </trkpt>
      <trkpt lat="45.93529" lon="6.41566">
        <ele>893.68</ele>
        <time>2020-05-18T14:11:45Z</time>
      </trkpt>
      <trkpt lat="45.93516" lon="6.41562">
        <ele>892.72</ele>
        <time>2020-05-18T14:11:46Z</time>
      </trkpt>
      <trkpt lat="45.93501" lon="6.4156">
        <ele>891.76</ele>
        <time>2020-05-18T14:11:47Z</time>
      </trkpt>
      <trkpt lat="45.93486" lon="6.4156">
        <ele>890.8</ele>
        <time>2020-05-18T14:11:48Z</time>
      </trkpt>
      <trkpt lat="45.9347" lon="6.41559">
        <ele>889.84</ele>
        <time>2020-05-18T14:11:49Z</time>
      </trkpt>
      <trkpt lat="45.93409" lon="6.41552">
        <ele>886.47</ele>
        <time>2020-05-18T14:11:53Z</time>
      </trkpt>
      <trkpt lat="45.93394" lon="6.41551">
        <ele>886.47</ele>
        <time>2020-05-18T14:11:54Z</time>
      </trkpt>
      <trkpt lat="45.9338" lon="6.41544">
        <ele>886.47</ele>
        <time>2020-05-18T14:11:55Z</time>
      </trkpt>
      <trkpt lat="45.93366" lon="6.41534">
        <ele>886.47</ele>
        <time>2020-05-18T14:11:56Z</time>
      </trkpt>
      <trkpt lat="45.93351" lon="6.41524">
        <ele>886.47</ele>
        <time>2020-05-18T14:11:57Z</time>
      </trkpt>
      <trkpt lat="45.93337" lon="6.4151">
        <ele>886.95</ele>
        <time>2020-05-18T14:11:58Z</time>
      </trkpt>
      <trkpt lat="45.93324" lon="6.41493">
        <ele>887.43</ele>
        <time>2020-05-18T14:11:59Z</time>
      </trkpt>
      <trkpt lat="45.93219" lon="6.41364">
        <ele>894.16</ele>
        <time>2020-05-18T14:12:06Z</time>
      </trkpt>
      <trkpt lat="45.93198" lon="6.41345">
        <ele>895.61</ele>
        <time>2020-05-18T14:12:07Z</time>
      </trkpt>
      <trkpt lat="45.93079" lon="6.41261">
        <ele>903.3</ele>
        <time>2020-05-18T14:12:12Z</time>
      </trkpt>
      <trkpt lat="45.92984" lon="6.41207">
        <ele>911.47</ele>
        <time>2020-05-18T14:12:18Z</time>
      </trkpt>
      <trkpt lat="45.92968" lon="6.412">
        <ele>912.91</ele>
        <time>2020-05-18T14:12:19Z</time>
      </trkpt>
      <trkpt lat="45.92955" lon="6.41203">
        <ele>913.87</ele>
        <time>2020-05-18T14:12:20Z</time>
      </trkpt>
      <trkpt lat="45.92941" lon="6.41206">
        <ele>914.35</ele>
        <time>2020-05-18T14:12:21Z</time>
      </trkpt>
      <trkpt lat="45.92927" lon="6.41209">
        <ele>915.31</ele>
        <time>2020-05-18T14:12:22Z</time>
      </trkpt>
      <trkpt lat="45.92911" lon="6.41212">
        <ele>916.27</ele>
        <time>2020-05-18T14:12:23Z</time>
      </trkpt>
      <trkpt lat="45.92894" lon="6.41215">
        <ele>917.24</ele>
        <time>2020-05-18T14:12:24Z</time>
      </trkpt>
      <trkpt lat="45.92875" lon="6.41217">
        <ele>918.68</ele>
        <time>2020-05-18T14:12:25Z</time>
      </trkpt>
      <trkpt lat="45.92742" lon="6.41206">
        <ele>926.85</ele>
        <time>2020-05-18T14:12:33Z</time>
      </trkpt>
      <trkpt lat="45.92661" lon="6.41172">
        <ele>931.17</ele>
        <time>2020-05-18T14:12:37Z</time>
      </trkpt>
      <trkpt lat="45.92641" lon="6.41163">
        <ele>933.1</ele>
        <time>2020-05-18T14:12:38Z</time>
      </trkpt>
      <trkpt lat="45.92624" lon="6.41148">
        <ele>934.06</ele>
        <time>2020-05-18T14:12:39Z</time>
      </trkpt>
      <trkpt lat="45.92608" lon="6.4113">
        <ele>935.5</ele>
        <time>2020-05-18T14:12:40Z</time>
      </trkpt>
      <trkpt lat="45.92595" lon="6.41104">
        <ele>937.42</ele>
        <time>2020-05-18T14:12:41Z</time>
      </trkpt>
      <trkpt lat="45.92583" lon="6.41077">
        <ele>938.86</ele>
        <time>2020-05-18T14:12:42Z</time>
      </trkpt>
      <trkpt lat="45.92531" lon="6.40984">
        <ele>945.11</ele>
        <time>2020-05-18T14:12:47Z</time>
      </trkpt>
      <trkpt lat="45.92505" lon="6.40952">
        <ele>948</ele>
        <time>2020-05-18T14:12:50Z</time>
      </trkpt>
      <trkpt lat="45.92495" lon="6.40945">
        <ele>948.96</ele>
        <time>2020-05-18T14:12:51Z</time>
      </trkpt>
      <trkpt lat="45.92484" lon="6.40941">
        <ele>949.44</ele>
        <time>2020-05-18T14:12:52Z</time>
      </trkpt>
      <trkpt lat="45.92474" lon="6.40936">
        <ele>950.4</ele>
        <time>2020-05-18T14:12:53Z</time>
      </trkpt>
      <trkpt lat="45.92462" lon="6.4094">
        <ele>951.36</ele>
        <time>2020-05-18T14:12:54Z</time>
      </trkpt>
      <trkpt lat="45.9245" lon="6.40943">
        <ele>952.32</ele>
        <time>2020-05-18T14:12:55Z</time>
      </trkpt>
      <trkpt lat="45.92438" lon="6.40947">
        <ele>953.28</ele>
        <time>2020-05-18T14:12:56Z</time>
      </trkpt>
      <trkpt lat="45.92429" lon="6.40953">
        <ele>954.25</ele>
        <time>2020-05-18T14:12:57Z</time>
      </trkpt>
      <trkpt lat="45.9242" lon="6.4096">
        <ele>954.73</ele>
        <time>2020-05-18T14:12:58Z</time>
      </trkpt>
      <trkpt lat="45.92412" lon="6.40967">
        <ele>955.21</ele>
        <time>2020-05-18T14:12:59Z</time>
      </trkpt>
      <trkpt lat="45.92368" lon="6.40999">
        <ele>960.01</ele>
        <time>2020-05-18T14:13:08Z</time>
      </trkpt>
      <trkpt lat="45.92304" lon="6.41027">
        <ele>960.49</ele>
        <time>2020-05-18T14:13:18Z</time>
      </trkpt>
      <trkpt lat="45.92298" lon="6.4103">
        <ele>960.98</ele>
        <time>2020-05-18T14:13:19Z</time>
      </trkpt>
      <trkpt lat="45.92275" lon="6.41041">
        <ele>960.98</ele>
        <time>2020-05-18T14:13:24Z</time>
      </trkpt>
      <trkpt lat="45.92264" lon="6.41033">
        <ele>960.98</ele>
        <time>2020-05-18T14:13:26Z</time>
      </trkpt>
      <trkpt lat="45.92264" lon="6.41033">
        <ele>960.98</ele>
        <time>2020-05-18T14:13:27Z</time>
      </trkpt>
      <trkpt lat="45.92258" lon="6.41032">
        <ele>960.98</ele>
        <time>2020-05-18T14:13:28Z</time>
      </trkpt>
      <trkpt lat="45.92248" lon="6.41043">
        <ele>960.98</ele>
        <time>2020-05-18T14:13:29Z</time>
      </trkpt>
      <trkpt lat="45.92247" lon="6.41054">
        <ele>960.98</ele>
        <time>2020-05-18T14:13:31Z</time>
      </trkpt>
      <trkpt lat="45.92263" lon="6.41072">
        <ele>961.94</ele>
        <time>2020-05-18T14:13:33Z</time>
      </trkpt>
      <trkpt lat="45.92272" lon="6.4112">
        <ele>963.86</ele>
        <time>2020-05-18T14:13:36Z</time>
      </trkpt>
      <trkpt lat="45.92282" lon="6.41149">
        <ele>964.82</ele>
        <time>2020-05-18T14:13:37Z</time>
      </trkpt>
      <trkpt lat="45.92288" lon="6.41161">
        <ele>965.3</ele>
        <time>2020-05-18T14:13:38Z</time>
      </trkpt>
      <trkpt lat="45.92297" lon="6.41173">
        <ele>965.78</ele>
        <time>2020-05-18T14:13:39Z</time>
      </trkpt>
      <trkpt lat="45.92307" lon="6.41183">
        <ele>966.26</ele>
        <time>2020-05-18T14:13:40Z</time>
      </trkpt>
      <trkpt lat="45.92315" lon="6.41192">
        <ele>966.74</ele>
        <time>2020-05-18T14:13:41Z</time>
      </trkpt>
      <trkpt lat="45.92323" lon="6.41205">
        <ele>966.74</ele>
        <time>2020-05-18T14:13:42Z</time>
      </trkpt>
      <trkpt lat="45.92332" lon="6.41218">
        <ele>966.74</ele>
        <time>2020-05-18T14:13:43Z</time>
      </trkpt>
      <trkpt lat="45.92336" lon="6.41235">
        <ele>966.74</ele>
        <time>2020-05-18T14:13:44Z</time>
      </trkpt>
      <trkpt lat="45.92341" lon="6.41253">
        <ele>967.22</ele>
        <time>2020-05-18T14:13:45Z</time>
      </trkpt>
      <trkpt lat="45.92342" lon="6.41273">
        <ele>967.7</ele>
        <time>2020-05-18T14:13:46Z</time>
      </trkpt>
      <trkpt lat="45.9234" lon="6.41293">
        <ele>968.18</ele>
        <time>2020-05-18T14:13:47Z</time>
      </trkpt>
      <trkpt lat="45.92337" lon="6.41315">
        <ele>968.67</ele>
        <time>2020-05-18T14:13:48Z</time>
      </trkpt>
      <trkpt lat="45.92329" lon="6.41332">
        <ele>969.15</ele>
        <time>2020-05-18T14:13:49Z</time>
      </trkpt>
      <trkpt lat="45.9232" lon="6.4135">
        <ele>969.63</ele>
        <time>2020-05-18T14:13:50Z</time>
      </trkpt>
      <trkpt lat="45.92283" lon="6.41417">
        <ele>972.03</ele>
        <time>2020-05-18T14:13:54Z</time>
      </trkpt>
      <trkpt lat="45.9227" lon="6.41428">
        <ele>972.99</ele>
        <time>2020-05-18T14:13:55Z</time>
      </trkpt>
      <trkpt lat="45.92257" lon="6.41439">
        <ele>973.47</ele>
        <time>2020-05-18T14:13:56Z</time>
      </trkpt>
      <trkpt lat="45.9223" lon="6.41463">
        <ele>973.95</ele>
        <time>2020-05-18T14:13:58Z</time>
      </trkpt>
      <trkpt lat="45.92217" lon="6.41478">
        <ele>973.47</ele>
        <time>2020-05-18T14:13:59Z</time>
      </trkpt>
      <trkpt lat="45.92175" lon="6.41531">
        <ele>974.43</ele>
        <time>2020-05-18T14:14:03Z</time>
      </trkpt>
      <trkpt lat="45.92164" lon="6.4154">
        <ele>974.91</ele>
        <time>2020-05-18T14:14:04Z</time>
      </trkpt>
      <trkpt lat="45.92152" lon="6.41541">
        <ele>975.39</ele>
        <time>2020-05-18T14:14:05Z</time>
      </trkpt>
      <trkpt lat="45.92139" lon="6.41542">
        <ele>975.88</ele>
        <time>2020-05-18T14:14:06Z</time>
      </trkpt>
      <trkpt lat="45.92129" lon="6.41532">
        <ele>976.36</ele>
        <time>2020-05-18T14:14:07Z</time>
      </trkpt>
      <trkpt lat="45.92117" lon="6.41521">
        <ele>977.32</ele>
        <time>2020-05-18T14:14:08Z</time>
      </trkpt>
      <trkpt lat="45.92103" lon="6.41507">
        <ele>977.8</ele>
        <time>2020-05-18T14:14:09Z</time>
      </trkpt>
      <trkpt lat="45.92078" lon="6.41483">
        <ele>979.72</ele>
        <time>2020-05-18T14:14:11Z</time>
      </trkpt>
      <trkpt lat="45.92066" lon="6.41476">
        <ele>980.2</ele>
        <time>2020-05-18T14:14:12Z</time>
      </trkpt>
      <trkpt lat="45.92053" lon="6.41477">
        <ele>981.16</ele>
        <time>2020-05-18T14:14:13Z</time>
      </trkpt>
      <trkpt lat="45.92041" lon="6.41482">
        <ele>981.16</ele>
        <time>2020-05-18T14:14:14Z</time>
      </trkpt>
      <trkpt lat="45.92028" lon="6.41492">
        <ele>981.64</ele>
        <time>2020-05-18T14:14:15Z</time>
      </trkpt>
      <trkpt lat="45.92014" lon="6.41505">
        <ele>982.12</ele>
        <time>2020-05-18T14:14:16Z</time>
      </trkpt>
      <trkpt lat="45.91998" lon="6.41516">
        <ele>982.6</ele>
        <time>2020-05-18T14:14:17Z</time>
      </trkpt>
      <trkpt lat="45.91984" lon="6.41527">
        <ele>983.09</ele>
        <time>2020-05-18T14:14:18Z</time>
      </trkpt>
      <trkpt lat="45.91969" lon="6.41537">
        <ele>983.57</ele>
        <time>2020-05-18T14:14:19Z</time>
      </trkpt>
      <trkpt lat="45.91955" lon="6.41547">
        <ele>984.05</ele>
        <time>2020-05-18T14:14:20Z</time>
      </trkpt>
      <trkpt lat="45.91941" lon="6.41556">
        <ele>984.53</ele>
        <time>2020-05-18T14:14:21Z</time>
      </trkpt>
      <trkpt lat="45.91929" lon="6.41567">
        <ele>985.01</ele>
        <time>2020-05-18T14:14:22Z</time>
      </trkpt>
      <trkpt lat="45.9192" lon="6.41584">
        <ele>985.49</ele>
        <time>2020-05-18T14:14:23Z</time>
      </trkpt>
      <trkpt lat="45.91909" lon="6.41603">
        <ele>985.97</ele>
        <time>2020-05-18T14:14:24Z</time>
      </trkpt>
      <trkpt lat="45.91896" lon="6.41626">
        <ele>986.45</ele>
        <time>2020-05-18T14:14:25Z</time>
      </trkpt>
      <trkpt lat="45.91882" lon="6.41652">
        <ele>986.93</ele>
        <time>2020-05-18T14:14:26Z</time>
      </trkpt>
      <trkpt lat="45.91866" lon="6.41676">
        <ele>986.93</ele>
        <time>2020-05-18T14:14:27Z</time>
      </trkpt>
      <trkpt lat="45.91848" lon="6.41699">
        <ele>987.89</ele>
        <time>2020-05-18T14:14:28Z</time>
      </trkpt>
      <trkpt lat="45.91831" lon="6.41722">
        <ele>987.89</ele>
        <time>2020-05-18T14:14:29Z</time>
      </trkpt>
      <trkpt lat="45.91815" lon="6.41748">
        <ele>988.85</ele>
        <time>2020-05-18T14:14:30Z</time>
      </trkpt>
      <trkpt lat="45.91798" lon="6.41777">
        <ele>989.33</ele>
        <time>2020-05-18T14:14:31Z</time>
      </trkpt>
      <trkpt lat="45.91705" lon="6.41928">
        <ele>992.22</ele>
        <time>2020-05-18T14:14:37Z</time>
      </trkpt>
      <trkpt lat="45.91679" lon="6.41959">
        <ele>993.18</ele>
        <time>2020-05-18T14:14:39Z</time>
      </trkpt>
      <trkpt lat="45.91665" lon="6.4197">
        <ele>993.66</ele>
        <time>2020-05-18T14:14:40Z</time>
      </trkpt>
      <trkpt lat="45.91649" lon="6.41975">
        <ele>994.62</ele>
        <time>2020-05-18T14:14:41Z</time>
      </trkpt>
      <trkpt lat="45.91633" lon="6.41977">
        <ele>995.1</ele>
        <time>2020-05-18T14:14:42Z</time>
      </trkpt>
      <trkpt lat="45.91616" lon="6.41969">
        <ele>996.06</ele>
        <time>2020-05-18T14:14:43Z</time>
      </trkpt>
      <trkpt lat="45.91601" lon="6.41957">
        <ele>997.02</ele>
        <time>2020-05-18T14:14:44Z</time>
      </trkpt>
      <trkpt lat="45.91587" lon="6.4194">
        <ele>997.99</ele>
        <time>2020-05-18T14:14:45Z</time>
      </trkpt>
      <trkpt lat="45.91572" lon="6.41922">
        <ele>998.95</ele>
        <time>2020-05-18T14:14:46Z</time>
      </trkpt>
      <trkpt lat="45.91556" lon="6.41903">
        <ele>1000.39</ele>
        <time>2020-05-18T14:14:47Z</time>
      </trkpt>
      <trkpt lat="45.91516" lon="6.41855">
        <ele>1003.27</ele>
        <time>2020-05-18T14:14:50Z</time>
      </trkpt>
      <trkpt lat="45.91502" lon="6.4184">
        <ele>1003.75</ele>
        <time>2020-05-18T14:14:51Z</time>
      </trkpt>
      <trkpt lat="45.91488" lon="6.41834">
        <ele>1005.68</ele>
        <time>2020-05-18T14:14:53Z</time>
      </trkpt>
      <trkpt lat="45.91429" lon="6.41831">
        <ele>1007.12</ele>
        <time>2020-05-18T14:14:55Z</time>
      </trkpt>
      <trkpt lat="45.91407" lon="6.41828">
        <ele>1008.08</ele>
        <time>2020-05-18T14:14:56Z</time>
      </trkpt>
      <trkpt lat="45.91367" lon="6.4182">
        <ele>1009.52</ele>
        <time>2020-05-18T14:14:58Z</time>
      </trkpt>
      <trkpt lat="45.91347" lon="6.41816">
        <ele>1010</ele>
        <time>2020-05-18T14:14:59Z</time>
      </trkpt>
      <trkpt lat="45.91326" lon="6.41823">
        <ele>1010.48</ele>
        <time>2020-05-18T14:15:00Z</time>
      </trkpt>
      <trkpt lat="45.91306" lon="6.41829">
        <ele>1010.96</ele>
        <time>2020-05-18T14:15:01Z</time>
      </trkpt>
      <trkpt lat="45.91288" lon="6.41838">
        <ele>1010.96</ele>
        <time>2020-05-18T14:15:02Z</time>
      </trkpt>
      <trkpt lat="45.91273" lon="6.41847">
        <ele>1011.93</ele>
        <time>2020-05-18T14:15:03Z</time>
      </trkpt>
      <trkpt lat="45.9126" lon="6.41859">
        <ele>1012.89</ele>
        <time>2020-05-18T14:15:04Z</time>
      </trkpt>
      <trkpt lat="45.91248" lon="6.41877">
        <ele>1013.85</ele>
        <time>2020-05-18T14:15:05Z</time>
      </trkpt>
      <trkpt lat="45.91236" lon="6.41894">
        <ele>1014.33</ele>
        <time>2020-05-18T14:15:06Z</time>
      </trkpt>
      <trkpt lat="45.91223" lon="6.41908">
        <ele>1015.29</ele>
        <time>2020-05-18T14:15:07Z</time>
      </trkpt>
      <trkpt lat="45.91208" lon="6.41914">
        <ele>1015.77</ele>
        <time>2020-05-18T14:15:08Z</time>
      </trkpt>
      <trkpt lat="45.91192" lon="6.41921">
        <ele>1016.25</ele>
        <time>2020-05-18T14:15:09Z</time>
      </trkpt>
      <trkpt lat="45.91175" lon="6.41929">
        <ele>1016.73</ele>
        <time>2020-05-18T14:15:10Z</time>
      </trkpt>
      <trkpt lat="45.91158" lon="6.41939">
        <ele>1016.73</ele>
        <time>2020-05-18T14:15:11Z</time>
      </trkpt>
      <trkpt lat="45.91141" lon="6.4195">
        <ele>1017.21</ele>
        <time>2020-05-18T14:15:12Z</time>
      </trkpt>
      <trkpt lat="45.91124" lon="6.4196">
        <ele>1017.21</ele>
        <time>2020-05-18T14:15:13Z</time>
      </trkpt>
      <trkpt lat="45.91105" lon="6.41963">
        <ele>1017.21</ele>
        <time>2020-05-18T14:15:14Z</time>
      </trkpt>
      <trkpt lat="45.91085" lon="6.41964">
        <ele>1017.69</ele>
        <time>2020-05-18T14:15:15Z</time>
      </trkpt>
      <trkpt lat="45.91065" lon="6.41958">
        <ele>1017.69</ele>
        <time>2020-05-18T14:15:16Z</time>
      </trkpt>
      <trkpt lat="45.91043" lon="6.4195">
        <ele>1017.69</ele>
        <time>2020-05-18T14:15:17Z</time>
      </trkpt>
      <trkpt lat="45.9096" lon="6.41903">
        <ele>1018.65</ele>
        <time>2020-05-18T14:15:21Z</time>
      </trkpt>
      <trkpt lat="45.90943" lon="6.41894">
        <ele>1019.13</ele>
        <time>2020-05-18T14:15:22Z</time>
      </trkpt>
      <trkpt lat="45.90924" lon="6.41895">
        <ele>1019.13</ele>
        <time>2020-05-18T14:15:23Z</time>
      </trkpt>
      <trkpt lat="45.90904" lon="6.41898">
        <ele>1018.65</ele>
        <time>2020-05-18T14:15:24Z</time>
      </trkpt>
      <trkpt lat="45.90883" lon="6.419">
        <ele>1018.65</ele>
        <time>2020-05-18T14:15:25Z</time>
      </trkpt>
      <trkpt lat="45.90861" lon="6.41903">
        <ele>1018.65</ele>
        <time>2020-05-18T14:15:26Z</time>
      </trkpt>
      <trkpt lat="45.90804" lon="6.4191">
        <ele>1017.21</ele>
        <time>2020-05-18T14:15:29Z</time>
      </trkpt>
      <trkpt lat="45.90788" lon="6.41916">
        <ele>1016.73</ele>
        <time>2020-05-18T14:15:30Z</time>
      </trkpt>
      <trkpt lat="45.90773" lon="6.41927">
        <ele>1015.77</ele>
        <time>2020-05-18T14:15:31Z</time>
      </trkpt>
      <trkpt lat="45.90759" lon="6.41942">
        <ele>1014.81</ele>
        <time>2020-05-18T14:15:32Z</time>
      </trkpt>
      <trkpt lat="45.90746" lon="6.4196">
        <ele>1014.33</ele>
        <time>2020-05-18T14:15:33Z</time>
      </trkpt>
      <trkpt lat="45.90732" lon="6.41978">
        <ele>1013.37</ele>
        <time>2020-05-18T14:15:34Z</time>
      </trkpt>
      <trkpt lat="45.90706" lon="6.42012">
        <ele>1011.44</ele>
        <time>2020-05-18T14:15:36Z</time>
      </trkpt>
      <trkpt lat="45.90697" lon="6.42031">
        <ele>1010.96</ele>
        <time>2020-05-18T14:15:37Z</time>
      </trkpt>
      <trkpt lat="45.90688" lon="6.42048">
        <ele>1010.96</ele>
        <time>2020-05-18T14:15:38Z</time>
      </trkpt>
      <trkpt lat="45.9068" lon="6.42064">
        <ele>1010.48</ele>
        <time>2020-05-18T14:15:39Z</time>
      </trkpt>
      <trkpt lat="45.9067" lon="6.42077">
        <ele>1010.48</ele>
        <time>2020-05-18T14:15:40Z</time>
      </trkpt>
      <trkpt lat="45.90659" lon="6.42087">
        <ele>1010.48</ele>
        <time>2020-05-18T14:15:41Z</time>
      </trkpt>
      <trkpt lat="45.90642" lon="6.42108">
        <ele>1010.96</ele>
        <time>2020-05-18T14:15:43Z</time>
      </trkpt>
      <trkpt lat="45.90635" lon="6.42119">
        <ele>1010.96</ele>
        <time>2020-05-18T14:15:44Z</time>
      </trkpt>
      <trkpt lat="45.9063" lon="6.42131">
        <ele>1010.48</ele>
        <time>2020-05-18T14:15:45Z</time>
      </trkpt>
      <trkpt lat="45.90624" lon="6.42144">
        <ele>1010</ele>
        <time>2020-05-18T14:15:46Z</time>
      </trkpt>
      <trkpt lat="45.90619" lon="6.42154">
        <ele>1010</ele>
        <time>2020-05-18T14:15:47Z</time>
      </trkpt>
      <trkpt lat="45.90616" lon="6.42162">
        <ele>1010.48</ele>
        <time>2020-05-18T14:15:48Z</time>
      </trkpt>
      <trkpt lat="45.90613" lon="6.42168">
        <ele>1010</ele>
        <time>2020-05-18T14:15:49Z</time>
      </trkpt>
      <trkpt lat="45.9061" lon="6.42174">
        <ele>1010</ele>
        <time>2020-05-18T14:15:50Z</time>
      </trkpt>
      <trkpt lat="45.90607" lon="6.42179">
        <ele>1009.52</ele>
        <time>2020-05-18T14:15:51Z</time>
      </trkpt>
      <trkpt lat="45.90597" lon="6.42189">
        <ele>1009.52</ele>
        <time>2020-05-18T14:15:52Z</time>
      </trkpt>
      <trkpt lat="45.90605" lon="6.422">
        <ele>1009.04</ele>
        <time>2020-05-18T14:15:54Z</time>
      </trkpt>
      <trkpt lat="45.90605" lon="6.42208">
        <ele>1009.04</ele>
        <time>2020-05-18T14:15:55Z</time>
      </trkpt>
      <trkpt lat="45.90602" lon="6.42274">
        <ele>1009.52</ele>
        <time>2020-05-18T14:15:58Z</time>
      </trkpt>
      <trkpt lat="45.90597" lon="6.42353">
        <ele>1012.89</ele>
        <time>2020-05-18T14:16:03Z</time>
      </trkpt>
      <trkpt lat="45.90597" lon="6.4237">
        <ele>1013.85</ele>
        <time>2020-05-18T14:16:04Z</time>
      </trkpt>
      <trkpt lat="45.90595" lon="6.42399">
        <ele>1015.77</ele>
        <time>2020-05-18T14:16:06Z</time>
      </trkpt>
      <trkpt lat="45.90592" lon="6.42431">
        <ele>1018.65</ele>
        <time>2020-05-18T14:16:08Z</time>
      </trkpt>
      <trkpt lat="45.9059" lon="6.42447">
        <ele>1020.1</ele>
        <time>2020-05-18T14:16:09Z</time>
      </trkpt>
      <trkpt lat="45.9059" lon="6.42464">
        <ele>1021.54</ele>
        <time>2020-05-18T14:16:10Z</time>
      </trkpt>
      <trkpt lat="45.9059" lon="6.42604">
        <ele>1034.04</ele>
        <time>2020-05-18T14:16:18Z</time>
      </trkpt>
      <trkpt lat="45.90592" lon="6.42615">
        <ele>1035</ele>
        <time>2020-05-18T14:16:19Z</time>
      </trkpt>
      <trkpt lat="45.90597" lon="6.42644">
        <ele>1037.88</ele>
        <time>2020-05-18T14:16:21Z</time>
      </trkpt>
      <trkpt lat="45.906" lon="6.42657">
        <ele>1039.8</ele>
        <time>2020-05-18T14:16:23Z</time>
      </trkpt>
      <trkpt lat="45.90605" lon="6.42688">
        <ele>1041.25</ele>
        <time>2020-05-18T14:16:25Z</time>
      </trkpt>
      <trkpt lat="45.90607" lon="6.42699">
        <ele>1041.73</ele>
        <time>2020-05-18T14:16:26Z</time>
      </trkpt>
      <trkpt lat="45.90603" lon="6.42711">
        <ele>1042.69</ele>
        <time>2020-05-18T14:16:27Z</time>
      </trkpt>
      <trkpt lat="45.90607" lon="6.4273">
        <ele>1043.65</ele>
        <time>2020-05-18T14:16:29Z</time>
      </trkpt>
      <trkpt lat="45.90606" lon="6.4274">
        <ele>1044.13</ele>
        <time>2020-05-18T14:16:30Z</time>
      </trkpt>
      <trkpt lat="45.90605" lon="6.42755">
        <ele>1044.61</ele>
        <time>2020-05-18T14:16:31Z</time>
      </trkpt>
      <trkpt lat="45.90603" lon="6.4277">
        <ele>1045.09</ele>
        <time>2020-05-18T14:16:32Z</time>
      </trkpt>
      <trkpt lat="45.90593" lon="6.42865">
        <ele>1048.94</ele>
        <time>2020-05-18T14:16:38Z</time>
      </trkpt>
      <trkpt lat="45.9059" lon="6.42895">
        <ele>1052.3</ele>
        <time>2020-05-18T14:16:40Z</time>
      </trkpt>
      <trkpt lat="45.90591" lon="6.4291">
        <ele>1053.74</ele>
        <time>2020-05-18T14:16:41Z</time>
      </trkpt>
      <trkpt lat="45.90601" lon="6.42999">
        <ele>1060.95</ele>
        <time>2020-05-18T14:16:49Z</time>
      </trkpt>
      <trkpt lat="45.90601" lon="6.43027">
        <ele>1062.87</ele>
        <time>2020-05-18T14:16:52Z</time>
      </trkpt>
      <trkpt lat="45.90599" lon="6.43038">
        <ele>1063.84</ele>
        <time>2020-05-18T14:16:53Z</time>
      </trkpt>
      <trkpt lat="45.90584" lon="6.43048">
        <ele>1064.8</ele>
        <time>2020-05-18T14:16:55Z</time>
      </trkpt>
      <trkpt lat="45.90567" lon="6.43044">
        <ele>1065.76</ele>
        <time>2020-05-18T14:16:56Z</time>
      </trkpt>
      <trkpt lat="45.90556" lon="6.43034">
        <ele>1066.72</ele>
        <time>2020-05-18T14:16:57Z</time>
      </trkpt>
      <trkpt lat="45.90546" lon="6.43024">
        <ele>1067.68</ele>
        <time>2020-05-18T14:16:58Z</time>
      </trkpt>
      <trkpt lat="45.90535" lon="6.43014">
        <ele>1068.16</ele>
        <time>2020-05-18T14:16:59Z</time>
      </trkpt>
      <trkpt lat="45.90525" lon="6.43">
        <ele>1068.64</ele>
        <time>2020-05-18T14:17:00Z</time>
      </trkpt>
      <trkpt lat="45.90516" lon="6.42985">
        <ele>1069.6</ele>
        <time>2020-05-18T14:17:01Z</time>
      </trkpt>
      <trkpt lat="45.90507" lon="6.42968">
        <ele>1070.57</ele>
        <time>2020-05-18T14:17:02Z</time>
      </trkpt>
      <trkpt lat="45.90445" lon="6.42802">
        <ele>1077.29</ele>
        <time>2020-05-18T14:17:10Z</time>
      </trkpt>
      <trkpt lat="45.90408" lon="6.42719">
        <ele>1081.62</ele>
        <time>2020-05-18T14:17:14Z</time>
      </trkpt>
      <trkpt lat="45.90399" lon="6.42701">
        <ele>1082.58</ele>
        <time>2020-05-18T14:17:15Z</time>
      </trkpt>
      <trkpt lat="45.90388" lon="6.42686">
        <ele>1083.54</ele>
        <time>2020-05-18T14:17:16Z</time>
      </trkpt>
      <trkpt lat="45.90377" lon="6.42671">
        <ele>1084.5</ele>
        <time>2020-05-18T14:17:17Z</time>
      </trkpt>
      <trkpt lat="45.90366" lon="6.42659">
        <ele>1085.47</ele>
        <time>2020-05-18T14:17:18Z</time>
      </trkpt>
      <trkpt lat="45.90353" lon="6.42647">
        <ele>1086.43</ele>
        <time>2020-05-18T14:17:19Z</time>
      </trkpt>
      <trkpt lat="45.90248" lon="6.42557">
        <ele>1096.04</ele>
        <time>2020-05-18T14:17:28Z</time>
      </trkpt>
      <trkpt lat="45.90236" lon="6.42551">
        <ele>1096.52</ele>
        <time>2020-05-18T14:17:29Z</time>
      </trkpt>
      <trkpt lat="45.90222" lon="6.42548">
        <ele>1097.48</ele>
        <time>2020-05-18T14:17:30Z</time>
      </trkpt>
      <trkpt lat="45.90127" lon="6.42541">
        <ele>1103.25</ele>
        <time>2020-05-18T14:17:37Z</time>
      </trkpt>
      <trkpt lat="45.90114" lon="6.42544">
        <ele>1104.21</ele>
        <time>2020-05-18T14:17:38Z</time>
      </trkpt>
      <trkpt lat="45.90101" lon="6.42548">
        <ele>1105.65</ele>
        <time>2020-05-18T14:17:39Z</time>
      </trkpt>
      <trkpt lat="45.90087" lon="6.4255">
        <ele>1106.61</ele>
        <time>2020-05-18T14:17:40Z</time>
      </trkpt>
      <trkpt lat="45.90073" lon="6.42551">
        <ele>1108.06</ele>
        <time>2020-05-18T14:17:41Z</time>
      </trkpt>
      <trkpt lat="45.90061" lon="6.42544">
        <ele>1109.02</ele>
        <time>2020-05-18T14:17:42Z</time>
      </trkpt>
      <trkpt lat="45.90048" lon="6.42536">
        <ele>1110.46</ele>
        <time>2020-05-18T14:17:43Z</time>
      </trkpt>
      <trkpt lat="45.90035" lon="6.42528">
        <ele>1111.9</ele>
        <time>2020-05-18T14:17:44Z</time>
      </trkpt>
      <trkpt lat="45.90024" lon="6.42522">
        <ele>1113.34</ele>
        <time>2020-05-18T14:17:45Z</time>
      </trkpt>
      <trkpt lat="45.90014" lon="6.4252">
        <ele>1114.31</ele>
        <time>2020-05-18T14:17:46Z</time>
      </trkpt>
      <trkpt lat="45.90005" lon="6.42524">
        <ele>1115.75</ele>
        <time>2020-05-18T14:17:47Z</time>
      </trkpt>
      <trkpt lat="45.89993" lon="6.42541">
        <ele>1117.19</ele>
        <time>2020-05-18T14:17:49Z</time>
      </trkpt>
      <trkpt lat="45.89993" lon="6.42541">
        <ele>1117.67</ele>
        <time>2020-05-18T14:17:50Z</time>
      </trkpt>
      <trkpt lat="45.89989" lon="6.42552">
        <ele>1118.63</ele>
        <time>2020-05-18T14:17:51Z</time>
      </trkpt>
      <trkpt lat="45.89991" lon="6.4259">
        <ele>1119.11</ele>
        <time>2020-05-18T14:17:52Z</time>
      </trkpt>
      <trkpt lat="45.89991" lon="6.42611">
        <ele>1120.55</ele>
        <time>2020-05-18T14:17:53Z</time>
      </trkpt>
      <trkpt lat="45.89993" lon="6.42651">
        <ele>1123.44</ele>
        <time>2020-05-18T14:17:56Z</time>
      </trkpt>
      <trkpt lat="45.89993" lon="6.42669">
        <ele>1123.92</ele>
        <time>2020-05-18T14:17:57Z</time>
      </trkpt>
      <trkpt lat="45.89992" lon="6.42689">
        <ele>1124.4</ele>
        <time>2020-05-18T14:17:58Z</time>
      </trkpt>
      <trkpt lat="45.89981" lon="6.42722">
        <ele>1124.88</ele>
        <time>2020-05-18T14:17:59Z</time>
      </trkpt>
      <trkpt lat="45.8997" lon="6.42734">
        <ele>1125.36</ele>
        <time>2020-05-18T14:18:00Z</time>
      </trkpt>
      <trkpt lat="45.89959" lon="6.42746">
        <ele>1125.84</ele>
        <time>2020-05-18T14:18:01Z</time>
      </trkpt>
      <trkpt lat="45.89945" lon="6.42752">
        <ele>1126.8</ele>
        <time>2020-05-18T14:18:02Z</time>
      </trkpt>
      <trkpt lat="45.8993" lon="6.42756">
        <ele>1129.21</ele>
        <time>2020-05-18T14:18:04Z</time>
      </trkpt>
      <trkpt lat="45.89915" lon="6.42761">
        <ele>1130.17</ele>
        <time>2020-05-18T14:18:05Z</time>
      </trkpt>
      <trkpt lat="45.899" lon="6.42767">
        <ele>1131.61</ele>
        <time>2020-05-18T14:18:06Z</time>
      </trkpt>
      <trkpt lat="45.89763" lon="6.42874">
        <ele>1141.7</ele>
        <time>2020-05-18T14:18:15Z</time>
      </trkpt>
      <trkpt lat="45.89679" lon="6.42924">
        <ele>1146.51</ele>
        <time>2020-05-18T14:18:19Z</time>
      </trkpt>
      <trkpt lat="45.89662" lon="6.42927">
        <ele>1147.95</ele>
        <time>2020-05-18T14:18:20Z</time>
      </trkpt>
      <trkpt lat="45.89646" lon="6.4293">
        <ele>1149.39</ele>
        <time>2020-05-18T14:18:21Z</time>
      </trkpt>
      <trkpt lat="45.8963" lon="6.42931">
        <ele>1151.8</ele>
        <time>2020-05-18T14:18:23Z</time>
      </trkpt>
      <trkpt lat="45.89599" lon="6.42925">
        <ele>1152.76</ele>
        <time>2020-05-18T14:18:24Z</time>
      </trkpt>
      <trkpt lat="45.89583" lon="6.42924">
        <ele>1155.16</ele>
        <time>2020-05-18T14:18:26Z</time>
      </trkpt>
      <trkpt lat="45.89555" lon="6.42936">
        <ele>1157.08</ele>
        <time>2020-05-18T14:18:28Z</time>
      </trkpt>
      <trkpt lat="45.89524" lon="6.42966">
        <ele>1158.53</ele>
        <time>2020-05-18T14:18:30Z</time>
      </trkpt>
      <trkpt lat="45.89514" lon="6.42972">
        <ele>1159.97</ele>
        <time>2020-05-18T14:18:32Z</time>
      </trkpt>
      <trkpt lat="45.89502" lon="6.4297">
        <ele>1160.45</ele>
        <time>2020-05-18T14:18:33Z</time>
      </trkpt>
      <trkpt lat="45.89488" lon="6.42968">
        <ele>1161.41</ele>
        <time>2020-05-18T14:18:34Z</time>
      </trkpt>
      <trkpt lat="45.8947" lon="6.42965">
        <ele>1162.37</ele>
        <time>2020-05-18T14:18:35Z</time>
      </trkpt>
      <trkpt lat="45.8937" lon="6.42967">
        <ele>1168.14</ele>
        <time>2020-05-18T14:18:40Z</time>
      </trkpt>
      <trkpt lat="45.89261" lon="6.42996">
        <ele>1175.83</ele>
        <time>2020-05-18T14:18:46Z</time>
      </trkpt>
      <trkpt lat="45.89244" lon="6.43004">
        <ele>1176.79</ele>
        <time>2020-05-18T14:18:47Z</time>
      </trkpt>
      <trkpt lat="45.89207" lon="6.4302">
        <ele>1179.19</ele>
        <time>2020-05-18T14:18:49Z</time>
      </trkpt>
      <trkpt lat="45.89189" lon="6.43027">
        <ele>1180.64</ele>
        <time>2020-05-18T14:18:50Z</time>
      </trkpt>
      <trkpt lat="45.8917" lon="6.43032">
        <ele>1182.08</ele>
        <time>2020-05-18T14:18:51Z</time>
      </trkpt>
      <trkpt lat="45.89151" lon="6.43036">
        <ele>1183.04</ele>
        <time>2020-05-18T14:18:52Z</time>
      </trkpt>
      <trkpt lat="45.89117" lon="6.43053">
        <ele>1184.48</ele>
        <time>2020-05-18T14:18:53Z</time>
      </trkpt>
      <trkpt lat="45.89117" lon="6.43053">
        <ele>1185.92</ele>
        <time>2020-05-18T14:18:54Z</time>
      </trkpt>
      <trkpt lat="45.89031" lon="6.43108">
        <ele>1192.65</ele>
        <time>2020-05-18T14:18:59Z</time>
      </trkpt>
      <trkpt lat="45.88999" lon="6.43135">
        <ele>1194.09</ele>
        <time>2020-05-18T14:19:00Z</time>
      </trkpt>
      <trkpt lat="45.8892" lon="6.43214">
        <ele>1202.27</ele>
        <time>2020-05-18T14:19:07Z</time>
      </trkpt>
      <trkpt lat="45.88896" lon="6.43236">
        <ele>1203.71</ele>
        <time>2020-05-18T14:19:08Z</time>
      </trkpt>
      <trkpt lat="45.88766" lon="6.43307">
        <ele>1211.4</ele>
        <time>2020-05-18T14:19:17Z</time>
      </trkpt>
      <trkpt lat="45.88697" lon="6.43335">
        <ele>1215.24</ele>
        <time>2020-05-18T14:19:22Z</time>
      </trkpt>
      <trkpt lat="45.88682" lon="6.43334">
        <ele>1216.69</ele>
        <time>2020-05-18T14:19:24Z</time>
      </trkpt>
      <trkpt lat="45.88637" lon="6.43336">
        <ele>1217.65</ele>
        <time>2020-05-18T14:19:26Z</time>
      </trkpt>
      <trkpt lat="45.88623" lon="6.43342">
        <ele>1218.13</ele>
        <time>2020-05-18T14:19:27Z</time>
      </trkpt>
      <trkpt lat="45.88609" lon="6.43353">
        <ele>1218.61</ele>
        <time>2020-05-18T14:19:28Z</time>
      </trkpt>
      <trkpt lat="45.88526" lon="6.43426">
        <ele>1222.93</ele>
        <time>2020-05-18T14:19:34Z</time>
      </trkpt>
      <trkpt lat="45.88514" lon="6.43439">
        <ele>1223.9</ele>
        <time>2020-05-18T14:19:35Z</time>
      </trkpt>
      <trkpt lat="45.88503" lon="6.43457">
        <ele>1224.86</ele>
        <time>2020-05-18T14:19:36Z</time>
      </trkpt>
      <trkpt lat="45.88458" lon="6.43533">
        <ele>1228.7</ele>
        <time>2020-05-18T14:19:40Z</time>
      </trkpt>
      <trkpt lat="45.88447" lon="6.43549">
        <ele>1230.14</ele>
        <time>2020-05-18T14:19:41Z</time>
      </trkpt>
      <trkpt lat="45.88435" lon="6.43563">
        <ele>1231.11</ele>
        <time>2020-05-18T14:19:42Z</time>
      </trkpt>
      <trkpt lat="45.88424" lon="6.43576">
        <ele>1231.59</ele>
        <time>2020-05-18T14:19:43Z</time>
      </trkpt>
      <trkpt lat="45.88413" lon="6.4359">
        <ele>1232.55</ele>
        <time>2020-05-18T14:19:44Z</time>
      </trkpt>
      <trkpt lat="45.88405" lon="6.4361">
        <ele>1233.03</ele>
        <time>2020-05-18T14:19:45Z</time>
      </trkpt>
      <trkpt lat="45.88398" lon="6.43633">
        <ele>1233.51</ele>
        <time>2020-05-18T14:19:46Z</time>
      </trkpt>
      <trkpt lat="45.88391" lon="6.43658">
        <ele>1234.47</ele>
        <time>2020-05-18T14:19:47Z</time>
      </trkpt>
      <trkpt lat="45.88384" lon="6.43685">
        <ele>1235.91</ele>
        <time>2020-05-18T14:19:48Z</time>
      </trkpt>
      <trkpt lat="45.8835" lon="6.43822">
        <ele>1242.64</ele>
        <time>2020-05-18T14:19:53Z</time>
      </trkpt>
      <trkpt lat="45.88342" lon="6.43846">
        <ele>1244.56</ele>
        <time>2020-05-18T14:19:54Z</time>
      </trkpt>
      <trkpt lat="45.8833" lon="6.43867">
        <ele>1247.45</ele>
        <time>2020-05-18T14:19:56Z</time>
      </trkpt>
      <trkpt lat="45.88309" lon="6.4391">
        <ele>1249.85</ele>
        <time>2020-05-18T14:19:58Z</time>
      </trkpt>
      <trkpt lat="45.88299" lon="6.4393">
        <ele>1250.81</ele>
        <time>2020-05-18T14:19:59Z</time>
      </trkpt>
      <trkpt lat="45.88287" lon="6.43975">
        <ele>1252.25</ele>
        <time>2020-05-18T14:20:00Z</time>
      </trkpt>
      <trkpt lat="45.8828" lon="6.44024">
        <ele>1257.06</ele>
        <time>2020-05-18T14:20:03Z</time>
      </trkpt>
      <trkpt lat="45.88269" lon="6.44073">
        <ele>1258.98</ele>
        <time>2020-05-18T14:20:04Z</time>
      </trkpt>
      <trkpt lat="45.88218" lon="6.44204">
        <ele>1267.16</ele>
        <time>2020-05-18T14:20:10Z</time>
      </trkpt>
      <trkpt lat="45.88209" lon="6.44221">
        <ele>1268.12</ele>
        <time>2020-05-18T14:20:11Z</time>
      </trkpt>
      <trkpt lat="45.88194" lon="6.4423">
        <ele>1269.56</ele>
        <time>2020-05-18T14:20:12Z</time>
      </trkpt>
      <trkpt lat="45.88181" lon="6.44239">
        <ele>1272.44</ele>
        <time>2020-05-18T14:20:14Z</time>
      </trkpt>
      <trkpt lat="45.88168" lon="6.44247">
        <ele>1273.88</ele>
        <time>2020-05-18T14:20:15Z</time>
      </trkpt>
      <trkpt lat="45.88147" lon="6.44277">
        <ele>1274.85</ele>
        <time>2020-05-18T14:20:16Z</time>
      </trkpt>
      <trkpt lat="45.88135" lon="6.44294">
        <ele>1276.29</ele>
        <time>2020-05-18T14:20:17Z</time>
      </trkpt>
      <trkpt lat="45.88122" lon="6.44307">
        <ele>1277.25</ele>
        <time>2020-05-18T14:20:18Z</time>
      </trkpt>
      <trkpt lat="45.88108" lon="6.44317">
        <ele>1278.69</ele>
        <time>2020-05-18T14:20:19Z</time>
      </trkpt>
      <trkpt lat="45.88095" lon="6.44326">
        <ele>1279.65</ele>
        <time>2020-05-18T14:20:20Z</time>
      </trkpt>
      <trkpt lat="45.88083" lon="6.44334">
        <ele>1281.09</ele>
        <time>2020-05-18T14:20:21Z</time>
      </trkpt>
      <trkpt lat="45.88071" lon="6.44345">
        <ele>1282.06</ele>
        <time>2020-05-18T14:20:22Z</time>
      </trkpt>
      <trkpt lat="45.8806" lon="6.44359">
        <ele>1283.02</ele>
        <time>2020-05-18T14:20:23Z</time>
      </trkpt>
      <trkpt lat="45.88032" lon="6.44412">
        <ele>1287.34</ele>
        <time>2020-05-18T14:20:27Z</time>
      </trkpt>
      <trkpt lat="45.88029" lon="6.44426">
        <ele>1288.3</ele>
        <time>2020-05-18T14:20:28Z</time>
      </trkpt>
      <trkpt lat="45.88029" lon="6.44438">
        <ele>1289.27</ele>
        <time>2020-05-18T14:20:29Z</time>
      </trkpt>
      <trkpt lat="45.88032" lon="6.44451">
        <ele>1290.23</ele>
        <time>2020-05-18T14:20:30Z</time>
      </trkpt>
      <trkpt lat="45.88037" lon="6.44456">
        <ele>1291.19</ele>
        <time>2020-05-18T14:20:31Z</time>
      </trkpt>
      <trkpt lat="45.88045" lon="6.44461">
        <ele>1292.15</ele>
        <time>2020-05-18T14:20:32Z</time>
      </trkpt>
      <trkpt lat="45.88053" lon="6.44458">
        <ele>1293.11</ele>
        <time>2020-05-18T14:20:33Z</time>
      </trkpt>
      <trkpt lat="45.88064" lon="6.4445">
        <ele>1294.07</ele>
        <time>2020-05-18T14:20:34Z</time>
      </trkpt>
      <trkpt lat="45.88079" lon="6.44439">
        <ele>1295.99</ele>
        <time>2020-05-18T14:20:36Z</time>
      </trkpt>
      <trkpt lat="45.88146" lon="6.44387">
        <ele>1300.32</ele>
        <time>2020-05-18T14:20:40Z</time>
      </trkpt>
      <trkpt lat="45.88166" lon="6.44375">
        <ele>1302.24</ele>
        <time>2020-05-18T14:20:42Z</time>
      </trkpt>
      <trkpt lat="45.88181" lon="6.44384">
        <ele>1303.2</ele>
        <time>2020-05-18T14:20:43Z</time>
      </trkpt>
      <trkpt lat="45.88185" lon="6.44396">
        <ele>1304.17</ele>
        <time>2020-05-18T14:20:44Z</time>
      </trkpt>
      <trkpt lat="45.88182" lon="6.44411">
        <ele>1305.13</ele>
        <time>2020-05-18T14:20:45Z</time>
      </trkpt>
      <trkpt lat="45.88175" lon="6.44422">
        <ele>1306.09</ele>
        <time>2020-05-18T14:20:46Z</time>
      </trkpt>
      <trkpt lat="45.88165" lon="6.44437">
        <ele>1307.53</ele>
        <time>2020-05-18T14:20:47Z</time>
      </trkpt>
      <trkpt lat="45.88154" lon="6.44455">
        <ele>1308.97</ele>
        <time>2020-05-18T14:20:48Z</time>
      </trkpt>
      <trkpt lat="45.88143" lon="6.44478">
        <ele>1310.41</ele>
        <time>2020-05-18T14:20:49Z</time>
      </trkpt>
      <trkpt lat="45.88133" lon="6.44505">
        <ele>1311.38</ele>
        <time>2020-05-18T14:20:50Z</time>
      </trkpt>
      <trkpt lat="45.88104" lon="6.44581">
        <ele>1315.7</ele>
        <time>2020-05-18T14:20:53Z</time>
      </trkpt>
      <trkpt lat="45.88088" lon="6.446">
        <ele>1317.14</ele>
        <time>2020-05-18T14:20:54Z</time>
      </trkpt>
      <trkpt lat="45.88072" lon="6.44619">
        <ele>1318.59</ele>
        <time>2020-05-18T14:20:55Z</time>
      </trkpt>
      <trkpt lat="45.88004" lon="6.44706">
        <ele>1325.31</ele>
        <time>2020-05-18T14:21:00Z</time>
      </trkpt>
      <trkpt lat="45.87998" lon="6.44727">
        <ele>1326.76</ele>
        <time>2020-05-18T14:21:01Z</time>
      </trkpt>
      <trkpt lat="45.87992" lon="6.44751">
        <ele>1328.68</ele>
        <time>2020-05-18T14:21:02Z</time>
      </trkpt>
      <trkpt lat="45.87987" lon="6.44773">
        <ele>1330.12</ele>
        <time>2020-05-18T14:21:03Z</time>
      </trkpt>
      <trkpt lat="45.87976" lon="6.44795">
        <ele>1331.08</ele>
        <time>2020-05-18T14:21:04Z</time>
      </trkpt>
      <trkpt lat="45.87965" lon="6.44813">
        <ele>1332.04</ele>
        <time>2020-05-18T14:21:05Z</time>
      </trkpt>
      <trkpt lat="45.87951" lon="6.44827">
        <ele>1333.49</ele>
        <time>2020-05-18T14:21:06Z</time>
      </trkpt>
      <trkpt lat="45.87935" lon="6.44842">
        <ele>1334.93</ele>
        <time>2020-05-18T14:21:07Z</time>
      </trkpt>
      <trkpt lat="45.87919" lon="6.44854">
        <ele>1335.89</ele>
        <time>2020-05-18T14:21:08Z</time>
      </trkpt>
      <trkpt lat="45.87845" lon="6.44906">
        <ele>1343.1</ele>
        <time>2020-05-18T14:21:14Z</time>
      </trkpt>
      <trkpt lat="45.87809" lon="6.44931">
        <ele>1346.46</ele>
        <time>2020-05-18T14:21:17Z</time>
      </trkpt>
      <trkpt lat="45.87795" lon="6.44943">
        <ele>1347.91</ele>
        <time>2020-05-18T14:21:18Z</time>
      </trkpt>
      <trkpt lat="45.87723" lon="6.4504">
        <ele>1354.63</ele>
        <time>2020-05-18T14:21:23Z</time>
      </trkpt>
      <trkpt lat="45.87694" lon="6.4508">
        <ele>1359.44</ele>
        <time>2020-05-18T14:21:26Z</time>
      </trkpt>
      <trkpt lat="45.87691" lon="6.45091">
        <ele>1360.88</ele>
        <time>2020-05-18T14:21:27Z</time>
      </trkpt>
      <trkpt lat="45.87689" lon="6.45103">
        <ele>1362.33</ele>
        <time>2020-05-18T14:21:28Z</time>
      </trkpt>
      <trkpt lat="45.87692" lon="6.45111">
        <ele>1363.29</ele>
        <time>2020-05-18T14:21:29Z</time>
      </trkpt>
      <trkpt lat="45.87699" lon="6.45118">
        <ele>1364.25</ele>
        <time>2020-05-18T14:21:30Z</time>
      </trkpt>
      <trkpt lat="45.87705" lon="6.45119">
        <ele>1365.69</ele>
        <time>2020-05-18T14:21:31Z</time>
      </trkpt>
      <trkpt lat="45.87715" lon="6.45114">
        <ele>1366.65</ele>
        <time>2020-05-18T14:21:32Z</time>
      </trkpt>
      <trkpt lat="45.87726" lon="6.45109">
        <ele>1367.13</ele>
        <time>2020-05-18T14:21:33Z</time>
      </trkpt>
      <trkpt lat="45.8774" lon="6.45102">
        <ele>1368.09</ele>
        <time>2020-05-18T14:21:34Z</time>
      </trkpt>
      <trkpt lat="45.87755" lon="6.45095">
        <ele>1368.57</ele>
        <time>2020-05-18T14:21:35Z</time>
      </trkpt>
      <trkpt lat="45.87772" lon="6.45091">
        <ele>1369.54</ele>
        <time>2020-05-18T14:21:36Z</time>
      </trkpt>
      <trkpt lat="45.87791" lon="6.45093">
        <ele>1370.5</ele>
        <time>2020-05-18T14:21:37Z</time>
      </trkpt>
      <trkpt lat="45.8781" lon="6.45095">
        <ele>1371.46</ele>
        <time>2020-05-18T14:21:38Z</time>
      </trkpt>
      <trkpt lat="45.87827" lon="6.45096">
        <ele>1372.42</ele>
        <time>2020-05-18T14:21:39Z</time>
      </trkpt>
      <trkpt lat="45.87842" lon="6.45095">
        <ele>1373.38</ele>
        <time>2020-05-18T14:21:40Z</time>
      </trkpt>
      <trkpt lat="45.87855" lon="6.4509">
        <ele>1374.34</ele>
        <time>2020-05-18T14:21:41Z</time>
      </trkpt>
      <trkpt lat="45.87887" lon="6.45077">
        <ele>1377.23</ele>
        <time>2020-05-18T14:21:44Z</time>
      </trkpt>
      <trkpt lat="45.87893" lon="6.4508">
        <ele>1378.19</ele>
        <time>2020-05-18T14:21:45Z</time>
      </trkpt>
      <trkpt lat="45.87898" lon="6.45089">
        <ele>1379.15</ele>
        <time>2020-05-18T14:21:46Z</time>
      </trkpt>
      <trkpt lat="45.87904" lon="6.45099">
        <ele>1379.63</ele>
        <time>2020-05-18T14:21:47Z</time>
      </trkpt>
      <trkpt lat="45.87902" lon="6.45109">
        <ele>1380.59</ele>
        <time>2020-05-18T14:21:48Z</time>
      </trkpt>
      <trkpt lat="45.87898" lon="6.45122">
        <ele>1381.07</ele>
        <time>2020-05-18T14:21:49Z</time>
      </trkpt>
      <trkpt lat="45.87891" lon="6.45134">
        <ele>1381.55</ele>
        <time>2020-05-18T14:21:50Z</time>
      </trkpt>
      <trkpt lat="45.87879" lon="6.45146">
        <ele>1382.03</ele>
        <time>2020-05-18T14:21:51Z</time>
      </trkpt>
      <trkpt lat="45.87851" lon="6.45176">
        <ele>1383.96</ele>
        <time>2020-05-18T14:21:53Z</time>
      </trkpt>
      <trkpt lat="45.87833" lon="6.45192">
        <ele>1384.92</ele>
        <time>2020-05-18T14:21:54Z</time>
      </trkpt>
      <trkpt lat="45.87695" lon="6.45275">
        <ele>1395.01</ele>
        <time>2020-05-18T14:22:00Z</time>
      </trkpt>
      <trkpt lat="45.87655" lon="6.45299">
        <ele>1398.37</ele>
        <time>2020-05-18T14:22:02Z</time>
      </trkpt>
      <trkpt lat="45.87637" lon="6.45316">
        <ele>1400.3</ele>
        <time>2020-05-18T14:22:03Z</time>
      </trkpt>
      <trkpt lat="45.87547" lon="6.45405">
        <ele>1408.47</ele>
        <time>2020-05-18T14:22:08Z</time>
      </trkpt>
      <trkpt lat="45.87525" lon="6.45417">
        <ele>1410.39</ele>
        <time>2020-05-18T14:22:09Z</time>
      </trkpt>
      <trkpt lat="45.87404" lon="6.45475">
        <ele>1420</ele>
        <time>2020-05-18T14:22:15Z</time>
      </trkpt>
      <trkpt lat="45.87382" lon="6.45486">
        <ele>1421.93</ele>
        <time>2020-05-18T14:22:17Z</time>
      </trkpt>
      <trkpt lat="45.87375" lon="6.45493">
        <ele>1423.37</ele>
        <time>2020-05-18T14:22:18Z</time>
      </trkpt>
      <trkpt lat="45.87369" lon="6.45503">
        <ele>1424.81</ele>
        <time>2020-05-18T14:22:19Z</time>
      </trkpt>
      <trkpt lat="45.87367" lon="6.45515">
        <ele>1425.77</ele>
        <time>2020-05-18T14:22:20Z</time>
      </trkpt>
      <trkpt lat="45.87371" lon="6.45526">
        <ele>1426.73</ele>
        <time>2020-05-18T14:22:21Z</time>
      </trkpt>
      <trkpt lat="45.87377" lon="6.45534">
        <ele>1427.7</ele>
        <time>2020-05-18T14:22:22Z</time>
      </trkpt>
      <trkpt lat="45.87386" lon="6.45536">
        <ele>1428.66</ele>
        <time>2020-05-18T14:22:23Z</time>
      </trkpt>
      <trkpt lat="45.87396" lon="6.45535">
        <ele>1429.14</ele>
        <time>2020-05-18T14:22:24Z</time>
      </trkpt>
      <trkpt lat="45.8741" lon="6.45531">
        <ele>1429.62</ele>
        <time>2020-05-18T14:22:25Z</time>
      </trkpt>
      <trkpt lat="45.87427" lon="6.45525">
        <ele>1430.1</ele>
        <time>2020-05-18T14:22:26Z</time>
      </trkpt>
      <trkpt lat="45.87536" lon="6.45492">
        <ele>1433.46</ele>
        <time>2020-05-18T14:22:31Z</time>
      </trkpt>
      <trkpt lat="45.87591" lon="6.45475">
        <ele>1436.83</ele>
        <time>2020-05-18T14:22:35Z</time>
      </trkpt>
      <trkpt lat="45.876" lon="6.45477">
        <ele>1437.31</ele>
        <time>2020-05-18T14:22:36Z</time>
      </trkpt>
      <trkpt lat="45.87608" lon="6.45481">
        <ele>1437.79</ele>
        <time>2020-05-18T14:22:37Z</time>
      </trkpt>
      <trkpt lat="45.87612" lon="6.45488">
        <ele>1438.75</ele>
        <time>2020-05-18T14:22:38Z</time>
      </trkpt>
      <trkpt lat="45.87615" lon="6.45499">
        <ele>1439.23</ele>
        <time>2020-05-18T14:22:39Z</time>
      </trkpt>
      <trkpt lat="45.8761" lon="6.45509">
        <ele>1440.19</ele>
        <time>2020-05-18T14:22:40Z</time>
      </trkpt>
      <trkpt lat="45.87603" lon="6.45519">
        <ele>1440.67</ele>
        <time>2020-05-18T14:22:41Z</time>
      </trkpt>
      <trkpt lat="45.87591" lon="6.45528">
        <ele>1441.63</ele>
        <time>2020-05-18T14:22:42Z</time>
      </trkpt>
      <trkpt lat="45.87576" lon="6.45538">
        <ele>1442.6</ele>
        <time>2020-05-18T14:22:43Z</time>
      </trkpt>
      <trkpt lat="45.87541" lon="6.45563">
        <ele>1445.48</ele>
        <time>2020-05-18T14:22:45Z</time>
      </trkpt>
      <trkpt lat="45.87523" lon="6.45579">
        <ele>1446.92</ele>
        <time>2020-05-18T14:22:46Z</time>
      </trkpt>
      <trkpt lat="45.87504" lon="6.45597">
        <ele>1448.36</ele>
        <time>2020-05-18T14:22:47Z</time>
      </trkpt>
      <trkpt lat="45.87448" lon="6.45676">
        <ele>1453.65</ele>
        <time>2020-05-18T14:22:51Z</time>
      </trkpt>
      <trkpt lat="45.87438" lon="6.45696">
        <ele>1455.09</ele>
        <time>2020-05-18T14:22:52Z</time>
      </trkpt>
      <trkpt lat="45.87431" lon="6.45718">
        <ele>1456.53</ele>
        <time>2020-05-18T14:22:53Z</time>
      </trkpt>
      <trkpt lat="45.87427" lon="6.45741">
        <ele>1457.98</ele>
        <time>2020-05-18T14:22:54Z</time>
      </trkpt>
      <trkpt lat="45.87422" lon="6.45765">
        <ele>1458.94</ele>
        <time>2020-05-18T14:22:55Z</time>
      </trkpt>
      <trkpt lat="45.87418" lon="6.4579">
        <ele>1460.38</ele>
        <time>2020-05-18T14:22:56Z</time>
      </trkpt>
      <trkpt lat="45.87417" lon="6.45817">
        <ele>1461.82</ele>
        <time>2020-05-18T14:22:57Z</time>
      </trkpt>
      <trkpt lat="45.87407" lon="6.46066">
        <ele>1470.95</ele>
        <time>2020-05-18T14:23:06Z</time>
      </trkpt>
      <trkpt lat="45.87404" lon="6.4609">
        <ele>1471.44</ele>
        <time>2020-05-18T14:23:07Z</time>
      </trkpt>
      <trkpt lat="45.874" lon="6.46115">
        <ele>1471.92</ele>
        <time>2020-05-18T14:23:08Z</time>
      </trkpt>
      <trkpt lat="45.87391" lon="6.46138">
        <ele>1472.4</ele>
        <time>2020-05-18T14:23:09Z</time>
      </trkpt>
      <trkpt lat="45.87382" lon="6.46161">
        <ele>1472.88</ele>
        <time>2020-05-18T14:23:10Z</time>
      </trkpt>
      <trkpt lat="45.87372" lon="6.46182">
        <ele>1473.36</ele>
        <time>2020-05-18T14:23:11Z</time>
      </trkpt>
      <trkpt lat="45.8732" lon="6.46296">
        <ele>1477.2</ele>
        <time>2020-05-18T14:23:18Z</time>
      </trkpt>
      <trkpt lat="45.87258" lon="6.4643">
        <ele>1480.57</ele>
        <time>2020-05-18T14:23:29Z</time>
      </trkpt>
      <trkpt lat="45.87234" lon="6.46484">
        <ele>1481.53</ele>
        <time>2020-05-18T14:23:36Z</time>
      </trkpt>
      <trkpt lat="45.87231" lon="6.4649">
        <ele>1481.53</ele>
        <time>2020-05-18T14:23:37Z</time>
      </trkpt>
      <trkpt lat="45.87228" lon="6.46495">
        <ele>1482.01</ele>
        <time>2020-05-18T14:23:38Z</time>
      </trkpt>
      <trkpt lat="45.87226" lon="6.46499">
        <ele>1482.01</ele>
        <time>2020-05-18T14:23:39Z</time>
      </trkpt>
      <trkpt lat="45.87225" lon="6.46502">
        <ele>1482.01</ele>
        <time>2020-05-18T14:23:40Z</time>
      </trkpt>
      <trkpt lat="45.87222" lon="6.46508">
        <ele>1482.01</ele>
        <time>2020-05-18T14:23:41Z</time>
      </trkpt>
      <trkpt lat="45.87219" lon="6.46513">
        <ele>1482.49</ele>
        <time>2020-05-18T14:23:42Z</time>
      </trkpt>
      <trkpt lat="45.87217" lon="6.46518">
        <ele>1482.49</ele>
        <time>2020-05-18T14:23:43Z</time>
      </trkpt>
      <trkpt lat="45.87214" lon="6.46524">
        <ele>1482.49</ele>
        <time>2020-05-18T14:23:44Z</time>
      </trkpt>
      <trkpt lat="45.87211" lon="6.46531">
        <ele>1482.49</ele>
        <time>2020-05-18T14:23:45Z</time>
      </trkpt>
      <trkpt lat="45.87209" lon="6.46537">
        <ele>1482.49</ele>
        <time>2020-05-18T14:23:46Z</time>
      </trkpt>
      <trkpt lat="45.87207" lon="6.46542">
        <ele>1482.49</ele>
        <time>2020-05-18T14:23:47Z</time>
      </trkpt>
      <trkpt lat="45.87205" lon="6.46548">
        <ele>1482.49</ele>
        <time>2020-05-18T14:23:48Z</time>
      </trkpt>
      <trkpt lat="45.87204" lon="6.46553">
        <ele>1482.49</ele>
        <time>2020-05-18T14:23:49Z</time>
      </trkpt>
      <trkpt lat="45.87203" lon="6.46556">
        <ele>1482.49</ele>
        <time>2020-05-18T14:23:50Z</time>
      </trkpt>
      <trkpt lat="45.87205" lon="6.4655">
        <ele>1482.01</ele>
        <time>2020-05-18T14:23:53Z</time>
      </trkpt>
      <trkpt lat="45.87206" lon="6.46546">
        <ele>1481.53</ele>
        <time>2020-05-18T14:23:55Z</time>
      </trkpt>
      <trkpt lat="45.87244" lon="6.46462">
        <ele>1482.01</ele>
        <time>2020-05-18T14:24:02Z</time>
      </trkpt>
      <trkpt lat="45.87299" lon="6.46342">
        <ele>1481.53</ele>
        <time>2020-05-18T14:24:07Z</time>
      </trkpt>
      <trkpt lat="45.87399" lon="6.46116">
        <ele>1475.28</ele>
        <time>2020-05-18T14:24:15Z</time>
      </trkpt>
      <trkpt lat="45.87405" lon="6.46083">
        <ele>1474.32</ele>
        <time>2020-05-18T14:24:16Z</time>
      </trkpt>
      <trkpt lat="45.87409" lon="6.46049">
        <ele>1473.84</ele>
        <time>2020-05-18T14:24:17Z</time>
      </trkpt>
      <trkpt lat="45.87411" lon="6.46013">
        <ele>1472.88</ele>
        <time>2020-05-18T14:24:18Z</time>
      </trkpt>
      <trkpt lat="45.87412" lon="6.45978">
        <ele>1472.4</ele>
        <time>2020-05-18T14:24:19Z</time>
      </trkpt>
      <trkpt lat="45.87418" lon="6.45788">
        <ele>1467.11</ele>
        <time>2020-05-18T14:24:25Z</time>
      </trkpt>
      <trkpt lat="45.87422" lon="6.45762">
        <ele>1465.67</ele>
        <time>2020-05-18T14:24:26Z</time>
      </trkpt>
      <trkpt lat="45.87428" lon="6.45736">
        <ele>1463.74</ele>
        <time>2020-05-18T14:24:27Z</time>
      </trkpt>
      <trkpt lat="45.87433" lon="6.45711">
        <ele>1462.3</ele>
        <time>2020-05-18T14:24:28Z</time>
      </trkpt>
      <trkpt lat="45.87442" lon="6.4569">
        <ele>1460.86</ele>
        <time>2020-05-18T14:24:29Z</time>
      </trkpt>
      <trkpt lat="45.87452" lon="6.45667">
        <ele>1458.94</ele>
        <time>2020-05-18T14:24:30Z</time>
      </trkpt>
      <trkpt lat="45.87466" lon="6.45647">
        <ele>1457.5</ele>
        <time>2020-05-18T14:24:31Z</time>
      </trkpt>
      <trkpt lat="45.87481" lon="6.45627">
        <ele>1456.05</ele>
        <time>2020-05-18T14:24:32Z</time>
      </trkpt>
      <trkpt lat="45.87572" lon="6.45541">
        <ele>1448.36</ele>
        <time>2020-05-18T14:24:38Z</time>
      </trkpt>
      <trkpt lat="45.87609" lon="6.4551">
        <ele>1443.56</ele>
        <time>2020-05-18T14:24:42Z</time>
      </trkpt>
      <trkpt lat="45.87613" lon="6.45502">
        <ele>1442.6</ele>
        <time>2020-05-18T14:24:43Z</time>
      </trkpt>
      <trkpt lat="45.87616" lon="6.45495">
        <ele>1441.63</ele>
        <time>2020-05-18T14:24:44Z</time>
      </trkpt>
      <trkpt lat="45.87612" lon="6.45486">
        <ele>1440.67</ele>
        <time>2020-05-18T14:24:45Z</time>
      </trkpt>
      <trkpt lat="45.87608" lon="6.4548">
        <ele>1439.71</ele>
        <time>2020-05-18T14:24:46Z</time>
      </trkpt>
      <trkpt lat="45.87599" lon="6.45477">
        <ele>1438.75</ele>
        <time>2020-05-18T14:24:47Z</time>
      </trkpt>
      <trkpt lat="45.87589" lon="6.45476">
        <ele>1437.79</ele>
        <time>2020-05-18T14:24:48Z</time>
      </trkpt>
      <trkpt lat="45.87576" lon="6.4548">
        <ele>1436.83</ele>
        <time>2020-05-18T14:24:49Z</time>
      </trkpt>
      <trkpt lat="45.87559" lon="6.45485">
        <ele>1435.87</ele>
        <time>2020-05-18T14:24:50Z</time>
      </trkpt>
      <trkpt lat="45.87437" lon="6.45522">
        <ele>1430.58</ele>
        <time>2020-05-18T14:24:56Z</time>
      </trkpt>
      <trkpt lat="45.87397" lon="6.45534">
        <ele>1428.18</ele>
        <time>2020-05-18T14:24:59Z</time>
      </trkpt>
      <trkpt lat="45.87387" lon="6.45537">
        <ele>1427.7</ele>
        <time>2020-05-18T14:25:00Z</time>
      </trkpt>
      <trkpt lat="45.8738" lon="6.45534">
        <ele>1426.73</ele>
        <time>2020-05-18T14:25:01Z</time>
      </trkpt>
      <trkpt lat="45.87372" lon="6.45528">
        <ele>1426.25</ele>
        <time>2020-05-18T14:25:02Z</time>
      </trkpt>
      <trkpt lat="45.87368" lon="6.45519">
        <ele>1425.77</ele>
        <time>2020-05-18T14:25:03Z</time>
      </trkpt>
      <trkpt lat="45.87369" lon="6.45505">
        <ele>1425.29</ele>
        <time>2020-05-18T14:25:04Z</time>
      </trkpt>
      <trkpt lat="45.87374" lon="6.45494">
        <ele>1424.33</ele>
        <time>2020-05-18T14:25:05Z</time>
      </trkpt>
      <trkpt lat="45.87383" lon="6.45485">
        <ele>1423.37</ele>
        <time>2020-05-18T14:25:06Z</time>
      </trkpt>
      <trkpt lat="45.87397" lon="6.45478">
        <ele>1422.41</ele>
        <time>2020-05-18T14:25:07Z</time>
      </trkpt>
      <trkpt lat="45.87415" lon="6.4547">
        <ele>1421.45</ele>
        <time>2020-05-18T14:25:08Z</time>
      </trkpt>
      <trkpt lat="45.87513" lon="6.45423">
        <ele>1415.2</ele>
        <time>2020-05-18T14:25:12Z</time>
      </trkpt>
      <trkpt lat="45.87536" lon="6.45412">
        <ele>1413.76</ele>
        <time>2020-05-18T14:25:13Z</time>
      </trkpt>
      <trkpt lat="45.87556" lon="6.45395">
        <ele>1412.31</ele>
        <time>2020-05-18T14:25:14Z</time>
      </trkpt>
      <trkpt lat="45.87576" lon="6.45376">
        <ele>1410.87</ele>
        <time>2020-05-18T14:25:15Z</time>
      </trkpt>
      <trkpt lat="45.87595" lon="6.45357">
        <ele>1408.95</ele>
        <time>2020-05-18T14:25:16Z</time>
      </trkpt>
      <trkpt lat="45.87614" lon="6.45339">
        <ele>1407.03</ele>
        <time>2020-05-18T14:25:17Z</time>
      </trkpt>
      <trkpt lat="45.87653" lon="6.45301">
        <ele>1403.18</ele>
        <time>2020-05-18T14:25:19Z</time>
      </trkpt>
      <trkpt lat="45.87674" lon="6.45288">
        <ele>1400.78</ele>
        <time>2020-05-18T14:25:20Z</time>
      </trkpt>
      <trkpt lat="45.87817" lon="6.45201">
        <ele>1386.84</ele>
        <time>2020-05-18T14:25:27Z</time>
      </trkpt>
      <trkpt lat="45.8786" lon="6.45167">
        <ele>1382.51</ele>
        <time>2020-05-18T14:25:30Z</time>
      </trkpt>
      <trkpt lat="45.87871" lon="6.45155">
        <ele>1381.07</ele>
        <time>2020-05-18T14:25:31Z</time>
      </trkpt>
      <trkpt lat="45.87899" lon="6.45123">
        <ele>1376.26</ele>
        <time>2020-05-18T14:25:35Z</time>
      </trkpt>
      <trkpt lat="45.87904" lon="6.451">
        <ele>1374.82</ele>
        <time>2020-05-18T14:25:37Z</time>
      </trkpt>
      <trkpt lat="45.879" lon="6.45093">
        <ele>1373.86</ele>
        <time>2020-05-18T14:25:38Z</time>
      </trkpt>
      <trkpt lat="45.87895" lon="6.45084">
        <ele>1372.9</ele>
        <time>2020-05-18T14:25:39Z</time>
      </trkpt>
      <trkpt lat="45.87888" lon="6.45077">
        <ele>1371.94</ele>
        <time>2020-05-18T14:25:40Z</time>
      </trkpt>
      <trkpt lat="45.87866" lon="6.45086">
        <ele>1370.98</ele>
        <time>2020-05-18T14:25:41Z</time>
      </trkpt>
      <trkpt lat="45.87831" lon="6.45097">
        <ele>1369.54</ele>
        <time>2020-05-18T14:25:43Z</time>
      </trkpt>
      <trkpt lat="45.87812" lon="6.45095">
        <ele>1368.09</ele>
        <time>2020-05-18T14:25:44Z</time>
      </trkpt>
      <trkpt lat="45.87793" lon="6.45093">
        <ele>1366.17</ele>
        <time>2020-05-18T14:25:46Z</time>
      </trkpt>
      <trkpt lat="45.8776" lon="6.45093">
        <ele>1364.73</ele>
        <time>2020-05-18T14:25:47Z</time>
      </trkpt>
      <trkpt lat="45.87745" lon="6.451">
        <ele>1363.77</ele>
        <time>2020-05-18T14:25:48Z</time>
      </trkpt>
      <trkpt lat="45.87732" lon="6.45106">
        <ele>1363.29</ele>
        <time>2020-05-18T14:25:49Z</time>
      </trkpt>
      <trkpt lat="45.87722" lon="6.45111">
        <ele>1362.33</ele>
        <time>2020-05-18T14:25:50Z</time>
      </trkpt>
      <trkpt lat="45.87712" lon="6.45116">
        <ele>1361.84</ele>
        <time>2020-05-18T14:25:51Z</time>
      </trkpt>
      <trkpt lat="45.87704" lon="6.4512">
        <ele>1360.88</ele>
        <time>2020-05-18T14:25:52Z</time>
      </trkpt>
      <trkpt lat="45.87697" lon="6.45115">
        <ele>1359.92</ele>
        <time>2020-05-18T14:25:53Z</time>
      </trkpt>
      <trkpt lat="45.8769" lon="6.45109">
        <ele>1359.44</ele>
        <time>2020-05-18T14:25:54Z</time>
      </trkpt>
      <trkpt lat="45.8769" lon="6.45098">
        <ele>1358.48</ele>
        <time>2020-05-18T14:25:55Z</time>
      </trkpt>
      <trkpt lat="45.87691" lon="6.45085">
        <ele>1357.04</ele>
        <time>2020-05-18T14:25:56Z</time>
      </trkpt>
      <trkpt lat="45.87699" lon="6.45073">
        <ele>1356.08</ele>
        <time>2020-05-18T14:25:57Z</time>
      </trkpt>
      <trkpt lat="45.8771" lon="6.45058">
        <ele>1355.12</ele>
        <time>2020-05-18T14:25:58Z</time>
      </trkpt>
      <trkpt lat="45.87724" lon="6.45039">
        <ele>1353.67</ele>
        <time>2020-05-18T14:25:59Z</time>
      </trkpt>
      <trkpt lat="45.87789" lon="6.4495">
        <ele>1347.43</ele>
        <time>2020-05-18T14:26:03Z</time>
      </trkpt>
      <trkpt lat="45.87808" lon="6.44932">
        <ele>1345.5</ele>
        <time>2020-05-18T14:26:04Z</time>
      </trkpt>
      <trkpt lat="45.87828" lon="6.44918">
        <ele>1343.58</ele>
        <time>2020-05-18T14:26:05Z</time>
      </trkpt>
      <trkpt lat="45.87959" lon="6.44819">
        <ele>1330.6</ele>
        <time>2020-05-18T14:26:12Z</time>
      </trkpt>
      <trkpt lat="45.87972" lon="6.44803">
        <ele>1329.64</ele>
        <time>2020-05-18T14:26:13Z</time>
      </trkpt>
      <trkpt lat="45.87983" lon="6.44782">
        <ele>1327.72</ele>
        <time>2020-05-18T14:26:15Z</time>
      </trkpt>
      <trkpt lat="45.88001" lon="6.44716">
        <ele>1324.83</ele>
        <time>2020-05-18T14:26:17Z</time>
      </trkpt>
      <trkpt lat="45.88009" lon="6.44698">
        <ele>1321.95</ele>
        <time>2020-05-18T14:26:19Z</time>
      </trkpt>
      <trkpt lat="45.88035" lon="6.44663">
        <ele>1320.51</ele>
        <time>2020-05-18T14:26:20Z</time>
      </trkpt>
      <trkpt lat="45.881" lon="6.44585">
        <ele>1315.22</ele>
        <time>2020-05-18T14:26:24Z</time>
      </trkpt>
      <trkpt lat="45.88113" lon="6.44557">
        <ele>1313.78</ele>
        <time>2020-05-18T14:26:25Z</time>
      </trkpt>
      <trkpt lat="45.88124" lon="6.44528">
        <ele>1311.86</ele>
        <time>2020-05-18T14:26:26Z</time>
      </trkpt>
      <trkpt lat="45.88164" lon="6.44439">
        <ele>1306.09</ele>
        <time>2020-05-18T14:26:30Z</time>
      </trkpt>
      <trkpt lat="45.88185" lon="6.44403">
        <ele>1303.2</ele>
        <time>2020-05-18T14:26:33Z</time>
      </trkpt>
      <trkpt lat="45.88185" lon="6.44392">
        <ele>1302.72</ele>
        <time>2020-05-18T14:26:34Z</time>
      </trkpt>
      <trkpt lat="45.88179" lon="6.44383">
        <ele>1302.24</ele>
        <time>2020-05-18T14:26:35Z</time>
      </trkpt>
      <trkpt lat="45.88173" lon="6.44375">
        <ele>1301.28</ele>
        <time>2020-05-18T14:26:36Z</time>
      </trkpt>
      <trkpt lat="45.88164" lon="6.44375">
        <ele>1300.32</ele>
        <time>2020-05-18T14:26:37Z</time>
      </trkpt>
      <trkpt lat="45.88154" lon="6.4438">
        <ele>1298.4</ele>
        <time>2020-05-18T14:26:39Z</time>
      </trkpt>
      <trkpt lat="45.88063" lon="6.44451">
        <ele>1293.11</ele>
        <time>2020-05-18T14:26:44Z</time>
      </trkpt>
      <trkpt lat="45.88052" lon="6.44459">
        <ele>1292.15</ele>
        <time>2020-05-18T14:26:45Z</time>
      </trkpt>
      <trkpt lat="45.88043" lon="6.44459">
        <ele>1290.23</ele>
        <time>2020-05-18T14:26:47Z</time>
      </trkpt>
      <trkpt lat="45.88031" lon="6.44447">
        <ele>1289.75</ele>
        <time>2020-05-18T14:26:48Z</time>
      </trkpt>
      <trkpt lat="45.88028" lon="6.44432">
        <ele>1288.3</ele>
        <time>2020-05-18T14:26:50Z</time>
      </trkpt>
      <trkpt lat="45.88035" lon="6.44399">
        <ele>1286.86</ele>
        <time>2020-05-18T14:26:52Z</time>
      </trkpt>
      <trkpt lat="45.88057" lon="6.44364">
        <ele>1284.94</ele>
        <time>2020-05-18T14:26:54Z</time>
      </trkpt>
      <trkpt lat="45.88069" lon="6.44347">
        <ele>1283.5</ele>
        <time>2020-05-18T14:26:55Z</time>
      </trkpt>
      <trkpt lat="45.88085" lon="6.44333">
        <ele>1282.06</ele>
        <time>2020-05-18T14:26:56Z</time>
      </trkpt>
      <trkpt lat="45.88101" lon="6.44322">
        <ele>1281.09</ele>
        <time>2020-05-18T14:26:57Z</time>
      </trkpt>
      <trkpt lat="45.88116" lon="6.44312">
        <ele>1279.65</ele>
        <time>2020-05-18T14:26:58Z</time>
      </trkpt>
      <trkpt lat="45.88142" lon="6.44284">
        <ele>1279.17</ele>
        <time>2020-05-18T14:26:59Z</time>
      </trkpt>
      <trkpt lat="45.88142" lon="6.44284">
        <ele>1277.73</ele>
        <time>2020-05-18T14:27:00Z</time>
      </trkpt>
      <trkpt lat="45.88165" lon="6.44252">
        <ele>1276.29</ele>
        <time>2020-05-18T14:27:01Z</time>
      </trkpt>
      <trkpt lat="45.88179" lon="6.4424">
        <ele>1275.33</ele>
        <time>2020-05-18T14:27:02Z</time>
      </trkpt>
      <trkpt lat="45.88193" lon="6.44231">
        <ele>1273.88</ele>
        <time>2020-05-18T14:27:03Z</time>
      </trkpt>
      <trkpt lat="45.88206" lon="6.44223">
        <ele>1272.44</ele>
        <time>2020-05-18T14:27:04Z</time>
      </trkpt>
      <trkpt lat="45.88217" lon="6.44205">
        <ele>1271</ele>
        <time>2020-05-18T14:27:05Z</time>
      </trkpt>
      <trkpt lat="45.88228" lon="6.44186">
        <ele>1269.56</ele>
        <time>2020-05-18T14:27:06Z</time>
      </trkpt>
      <trkpt lat="45.88237" lon="6.44163">
        <ele>1268.12</ele>
        <time>2020-05-18T14:27:07Z</time>
      </trkpt>
      <trkpt lat="45.88246" lon="6.44141">
        <ele>1267.16</ele>
        <time>2020-05-18T14:27:08Z</time>
      </trkpt>
      <trkpt lat="45.88278" lon="6.44032">
        <ele>1259.94</ele>
        <time>2020-05-18T14:27:13Z</time>
      </trkpt>
      <trkpt lat="45.8829" lon="6.43962">
        <ele>1255.62</ele>
        <time>2020-05-18T14:27:16Z</time>
      </trkpt>
      <trkpt lat="45.88297" lon="6.43937">
        <ele>1252.25</ele>
        <time>2020-05-18T14:27:18Z</time>
      </trkpt>
      <trkpt lat="45.88347" lon="6.43834">
        <ele>1246.97</ele>
        <time>2020-05-18T14:27:23Z</time>
      </trkpt>
      <trkpt lat="45.88352" lon="6.43813">
        <ele>1245.53</ele>
        <time>2020-05-18T14:27:24Z</time>
      </trkpt>
      <trkpt lat="45.88367" lon="6.43748">
        <ele>1242.64</ele>
        <time>2020-05-18T14:27:27Z</time>
      </trkpt>
      <trkpt lat="45.88378" lon="6.43709">
        <ele>1241.2</ele>
        <time>2020-05-18T14:27:29Z</time>
      </trkpt>
      <trkpt lat="45.88394" lon="6.43646">
        <ele>1238.32</ele>
        <time>2020-05-18T14:27:32Z</time>
      </trkpt>
      <trkpt lat="45.884" lon="6.43624">
        <ele>1237.35</ele>
        <time>2020-05-18T14:27:33Z</time>
      </trkpt>
      <trkpt lat="45.88407" lon="6.43604">
        <ele>1236.87</ele>
        <time>2020-05-18T14:27:34Z</time>
      </trkpt>
      <trkpt lat="45.88415" lon="6.43587">
        <ele>1235.91</ele>
        <time>2020-05-18T14:27:35Z</time>
      </trkpt>
      <trkpt lat="45.88427" lon="6.43573">
        <ele>1234.47</ele>
        <time>2020-05-18T14:27:36Z</time>
      </trkpt>
      <trkpt lat="45.88438" lon="6.43559">
        <ele>1233.51</ele>
        <time>2020-05-18T14:27:37Z</time>
      </trkpt>
      <trkpt lat="45.88451" lon="6.43544">
        <ele>1232.55</ele>
        <time>2020-05-18T14:27:38Z</time>
      </trkpt>
      <trkpt lat="45.88463" lon="6.43525">
        <ele>1231.11</ele>
        <time>2020-05-18T14:27:39Z</time>
      </trkpt>
      <trkpt lat="45.8851" lon="6.43446">
        <ele>1225.34</ele>
        <time>2020-05-18T14:27:43Z</time>
      </trkpt>
      <trkpt lat="45.88522" lon="6.4343">
        <ele>1223.9</ele>
        <time>2020-05-18T14:27:44Z</time>
      </trkpt>
      <trkpt lat="45.88607" lon="6.43355">
        <ele>1215.24</ele>
        <time>2020-05-18T14:27:50Z</time>
      </trkpt>
      <trkpt lat="45.88619" lon="6.43345">
        <ele>1214.28</ele>
        <time>2020-05-18T14:27:51Z</time>
      </trkpt>
      <trkpt lat="45.88633" lon="6.43337">
        <ele>1212.84</ele>
        <time>2020-05-18T14:27:52Z</time>
      </trkpt>
      <trkpt lat="45.88649" lon="6.43335">
        <ele>1211.4</ele>
        <time>2020-05-18T14:27:53Z</time>
      </trkpt>
      <trkpt lat="45.88664" lon="6.43333">
        <ele>1209.96</ele>
        <time>2020-05-18T14:27:54Z</time>
      </trkpt>
      <trkpt lat="45.88694" lon="6.43335">
        <ele>1208.03</ele>
        <time>2020-05-18T14:27:57Z</time>
      </trkpt>
      <trkpt lat="45.88704" lon="6.43335">
        <ele>1207.55</ele>
        <time>2020-05-18T14:27:58Z</time>
      </trkpt>
      <trkpt lat="45.88704" lon="6.43335">
        <ele>1207.55</ele>
        <time>2020-05-18T14:27:59Z</time>
      </trkpt>
      <trkpt lat="45.88697" lon="6.43331">
        <ele>1207.55</ele>
        <time>2020-05-18T14:28:00Z</time>
      </trkpt>
      <trkpt lat="45.88694" lon="6.43329">
        <ele>1207.07</ele>
        <time>2020-05-18T14:28:01Z</time>
      </trkpt>
      <trkpt lat="45.88688" lon="6.43325">
        <ele>1207.07</ele>
        <time>2020-05-18T14:28:02Z</time>
      </trkpt>
      <trkpt lat="45.88679" lon="6.43319">
        <ele>1207.07</ele>
        <time>2020-05-18T14:28:03Z</time>
      </trkpt>
      <trkpt lat="45.88644" lon="6.43297">
        <ele>1207.07</ele>
        <time>2020-05-18T14:28:06Z</time>
      </trkpt>
      <trkpt lat="45.88632" lon="6.43294">
        <ele>1207.55</ele>
        <time>2020-05-18T14:28:07Z</time>
      </trkpt>
      <trkpt lat="45.88619" lon="6.4329">
        <ele>1208.03</ele>
        <time>2020-05-18T14:28:08Z</time>
      </trkpt>
      <trkpt lat="45.88605" lon="6.43286">
        <ele>1208.51</ele>
        <time>2020-05-18T14:28:09Z</time>
      </trkpt>
      <trkpt lat="45.88577" lon="6.43302">
        <ele>1209</ele>
        <time>2020-05-18T14:28:11Z</time>
      </trkpt>
      <trkpt lat="45.8856" lon="6.43314">
        <ele>1209</ele>
        <time>2020-05-18T14:28:12Z</time>
      </trkpt>
      <trkpt lat="45.88543" lon="6.43327">
        <ele>1209.48</ele>
        <time>2020-05-18T14:28:13Z</time>
      </trkpt>
      <trkpt lat="45.88444" lon="6.43444">
        <ele>1212.36</ele>
        <time>2020-05-18T14:28:20Z</time>
      </trkpt>
      <trkpt lat="45.88432" lon="6.43457">
        <ele>1212.84</ele>
        <time>2020-05-18T14:28:21Z</time>
      </trkpt>
      <trkpt lat="45.88419" lon="6.43472">
        <ele>1213.32</ele>
        <time>2020-05-18T14:28:22Z</time>
      </trkpt>
      <trkpt lat="45.88331" lon="6.43645">
        <ele>1217.65</ele>
        <time>2020-05-18T14:28:29Z</time>
      </trkpt>
      <trkpt lat="45.88311" lon="6.43674">
        <ele>1219.57</ele>
        <time>2020-05-18T14:28:32Z</time>
      </trkpt>
      <trkpt lat="45.88294" lon="6.43694">
        <ele>1221.01</ele>
        <time>2020-05-18T14:28:34Z</time>
      </trkpt>
      <trkpt lat="45.88273" lon="6.43694">
        <ele>1221.01</ele>
        <time>2020-05-18T14:28:35Z</time>
      </trkpt>
      <trkpt lat="45.88266" lon="6.43685">
        <ele>1221.49</ele>
        <time>2020-05-18T14:28:36Z</time>
      </trkpt>
      <trkpt lat="45.88261" lon="6.43673">
        <ele>1222.45</ele>
        <time>2020-05-18T14:28:38Z</time>
      </trkpt>
      <trkpt lat="45.88258" lon="6.43659">
        <ele>1223.42</ele>
        <time>2020-05-18T14:28:39Z</time>
      </trkpt>
      <trkpt lat="45.88261" lon="6.43578">
        <ele>1225.82</ele>
        <time>2020-05-18T14:28:43Z</time>
      </trkpt>
      <trkpt lat="45.88259" lon="6.43557">
        <ele>1227.26</ele>
        <time>2020-05-18T14:28:44Z</time>
      </trkpt>
      <trkpt lat="45.88248" lon="6.43514">
        <ele>1228.22</ele>
        <time>2020-05-18T14:28:45Z</time>
      </trkpt>
      <trkpt lat="45.88234" lon="6.43471">
        <ele>1232.07</ele>
        <time>2020-05-18T14:28:48Z</time>
      </trkpt>
      <trkpt lat="45.88228" lon="6.43452">
        <ele>1233.03</ele>
        <time>2020-05-18T14:28:49Z</time>
      </trkpt>
      <trkpt lat="45.88222" lon="6.43433">
        <ele>1234.47</ele>
        <time>2020-05-18T14:28:50Z</time>
      </trkpt>
      <trkpt lat="45.88222" lon="6.43413">
        <ele>1235.43</ele>
        <time>2020-05-18T14:28:51Z</time>
      </trkpt>
      <trkpt lat="45.88224" lon="6.43392">
        <ele>1236.39</ele>
        <time>2020-05-18T14:28:52Z</time>
      </trkpt>
      <trkpt lat="45.8823" lon="6.43373">
        <ele>1237.35</ele>
        <time>2020-05-18T14:28:53Z</time>
      </trkpt>
      <trkpt lat="45.88311" lon="6.43184">
        <ele>1246.49</ele>
        <time>2020-05-18T14:29:01Z</time>
      </trkpt>
      <trkpt lat="45.88333" lon="6.43144">
        <ele>1247.45</ele>
        <time>2020-05-18T14:29:02Z</time>
      </trkpt>
      <trkpt lat="45.88345" lon="6.43124">
        <ele>1250.33</ele>
        <time>2020-05-18T14:29:04Z</time>
      </trkpt>
      <trkpt lat="45.8838" lon="6.43021">
        <ele>1257.06</ele>
        <time>2020-05-18T14:29:08Z</time>
      </trkpt>
      <trkpt lat="45.88379" lon="6.43003">
        <ele>1258.5</ele>
        <time>2020-05-18T14:29:09Z</time>
      </trkpt>
      <trkpt lat="45.88378" lon="6.42983">
        <ele>1260.91</ele>
        <time>2020-05-18T14:29:11Z</time>
      </trkpt>
      <trkpt lat="45.88355" lon="6.42927">
        <ele>1263.79</ele>
        <time>2020-05-18T14:29:14Z</time>
      </trkpt>
      <trkpt lat="45.88349" lon="6.42901">
        <ele>1265.71</ele>
        <time>2020-05-18T14:29:15Z</time>
      </trkpt>
      <trkpt lat="45.88346" lon="6.42874">
        <ele>1267.16</ele>
        <time>2020-05-18T14:29:16Z</time>
      </trkpt>
      <trkpt lat="45.88342" lon="6.42846">
        <ele>1268.6</ele>
        <time>2020-05-18T14:29:17Z</time>
      </trkpt>
      <trkpt lat="45.88336" lon="6.42821">
        <ele>1270.04</ele>
        <time>2020-05-18T14:29:18Z</time>
      </trkpt>
      <trkpt lat="45.88315" lon="6.42774">
        <ele>1273.4</ele>
        <time>2020-05-18T14:29:20Z</time>
      </trkpt>
      <trkpt lat="45.88305" lon="6.42751">
        <ele>1275.33</ele>
        <time>2020-05-18T14:29:21Z</time>
      </trkpt>
      <trkpt lat="45.88294" lon="6.42732">
        <ele>1277.25</ele>
        <time>2020-05-18T14:29:22Z</time>
      </trkpt>
      <trkpt lat="45.88213" lon="6.42655">
        <ele>1285.42</ele>
        <time>2020-05-18T14:29:26Z</time>
      </trkpt>
      <trkpt lat="45.88202" lon="6.42636">
        <ele>1286.86</ele>
        <time>2020-05-18T14:29:27Z</time>
      </trkpt>
      <trkpt lat="45.88191" lon="6.42615">
        <ele>1288.3</ele>
        <time>2020-05-18T14:29:28Z</time>
      </trkpt>
      <trkpt lat="45.88183" lon="6.42591">
        <ele>1290.23</ele>
        <time>2020-05-18T14:29:29Z</time>
      </trkpt>
      <trkpt lat="45.88176" lon="6.42567">
        <ele>1292.15</ele>
        <time>2020-05-18T14:29:30Z</time>
      </trkpt>
      <trkpt lat="45.8817" lon="6.42547">
        <ele>1294.55</ele>
        <time>2020-05-18T14:29:31Z</time>
      </trkpt>
      <trkpt lat="45.88165" lon="6.4253">
        <ele>1296.96</ele>
        <time>2020-05-18T14:29:32Z</time>
      </trkpt>
      <trkpt lat="45.88158" lon="6.4252">
        <ele>1298.88</ele>
        <time>2020-05-18T14:29:33Z</time>
      </trkpt>
      <trkpt lat="45.88148" lon="6.42511">
        <ele>1300.8</ele>
        <time>2020-05-18T14:29:34Z</time>
      </trkpt>
      <trkpt lat="45.88136" lon="6.42504">
        <ele>1302.24</ele>
        <time>2020-05-18T14:29:35Z</time>
      </trkpt>
      <trkpt lat="45.88121" lon="6.42497">
        <ele>1305.13</ele>
        <time>2020-05-18T14:29:37Z</time>
      </trkpt>
      <trkpt lat="45.88105" lon="6.42486">
        <ele>1307.05</ele>
        <time>2020-05-18T14:29:38Z</time>
      </trkpt>
      <trkpt lat="45.88073" lon="6.42459">
        <ele>1310.41</ele>
        <time>2020-05-18T14:29:40Z</time>
      </trkpt>
      <trkpt lat="45.88041" lon="6.4242">
        <ele>1313.78</ele>
        <time>2020-05-18T14:29:42Z</time>
      </trkpt>
      <trkpt lat="45.87965" lon="6.4228">
        <ele>1323.39</ele>
        <time>2020-05-18T14:29:47Z</time>
      </trkpt>
      <trkpt lat="45.87953" lon="6.42258">
        <ele>1325.8</ele>
        <time>2020-05-18T14:29:48Z</time>
      </trkpt>
      <trkpt lat="45.87939" lon="6.42246">
        <ele>1327.72</ele>
        <time>2020-05-18T14:29:49Z</time>
      </trkpt>
      <trkpt lat="45.87886" lon="6.42198">
        <ele>1334.45</ele>
        <time>2020-05-18T14:29:52Z</time>
      </trkpt>
      <trkpt lat="45.87871" lon="6.42179">
        <ele>1336.37</ele>
        <time>2020-05-18T14:29:53Z</time>
      </trkpt>
      <trkpt lat="45.8783" lon="6.42127">
        <ele>1342.62</ele>
        <time>2020-05-18T14:29:56Z</time>
      </trkpt>
      <trkpt lat="45.87812" lon="6.42112">
        <ele>1346.94</ele>
        <time>2020-05-18T14:29:58Z</time>
      </trkpt>
      <trkpt lat="45.87665" lon="6.4203">
        <ele>1363.77</ele>
        <time>2020-05-18T14:30:05Z</time>
      </trkpt>
      <trkpt lat="45.87568" lon="6.41958">
        <ele>1373.86</ele>
        <time>2020-05-18T14:30:12Z</time>
      </trkpt>
      <trkpt lat="45.87547" lon="6.41941">
        <ele>1374.82</ele>
        <time>2020-05-18T14:30:14Z</time>
      </trkpt>
      <trkpt lat="45.87539" lon="6.41934">
        <ele>1375.3</ele>
        <time>2020-05-18T14:30:15Z</time>
      </trkpt>
      <trkpt lat="45.87532" lon="6.41926">
        <ele>1375.78</ele>
        <time>2020-05-18T14:30:16Z</time>
      </trkpt>
      <trkpt lat="45.87532" lon="6.41903">
        <ele>1376.26</ele>
        <time>2020-05-18T14:30:17Z</time>
      </trkpt>
      <trkpt lat="45.87536" lon="6.41892">
        <ele>1376.26</ele>
        <time>2020-05-18T14:30:18Z</time>
      </trkpt>
      <trkpt lat="45.87544" lon="6.41885">
        <ele>1376.26</ele>
        <time>2020-05-18T14:30:19Z</time>
      </trkpt>
      <trkpt lat="45.87555" lon="6.41881">
        <ele>1376.26</ele>
        <time>2020-05-18T14:30:20Z</time>
      </trkpt>
      <trkpt lat="45.87571" lon="6.41876">
        <ele>1376.26</ele>
        <time>2020-05-18T14:30:21Z</time>
      </trkpt>
      <trkpt lat="45.87632" lon="6.41858">
        <ele>1376.26</ele>
        <time>2020-05-18T14:30:25Z</time>
      </trkpt>
      <trkpt lat="45.87655" lon="6.4185">
        <ele>1376.75</ele>
        <time>2020-05-18T14:30:26Z</time>
      </trkpt>
      <trkpt lat="45.87763" lon="6.41845">
        <ele>1379.63</ele>
        <time>2020-05-18T14:30:30Z</time>
      </trkpt>
      <trkpt lat="45.87781" lon="6.41846">
        <ele>1380.11</ele>
        <time>2020-05-18T14:30:31Z</time>
      </trkpt>
      <trkpt lat="45.8783" lon="6.41842">
        <ele>1381.07</ele>
        <time>2020-05-18T14:30:34Z</time>
      </trkpt>
      <trkpt lat="45.87845" lon="6.41839">
        <ele>1381.55</ele>
        <time>2020-05-18T14:30:35Z</time>
      </trkpt>
      <trkpt lat="45.87858" lon="6.41836">
        <ele>1382.51</ele>
        <time>2020-05-18T14:30:37Z</time>
      </trkpt>
      <trkpt lat="45.87869" lon="6.41833">
        <ele>1382.51</ele>
        <time>2020-05-18T14:30:38Z</time>
      </trkpt>
      <trkpt lat="45.87889" lon="6.41812">
        <ele>1382.99</ele>
        <time>2020-05-18T14:30:39Z</time>
      </trkpt>
      <trkpt lat="45.87892" lon="6.41799">
        <ele>1382.99</ele>
        <time>2020-05-18T14:30:40Z</time>
      </trkpt>
      <trkpt lat="45.87896" lon="6.4178">
        <ele>1384.44</ele>
        <time>2020-05-18T14:30:42Z</time>
      </trkpt>
      <trkpt lat="45.879" lon="6.41761">
        <ele>1384.92</ele>
        <time>2020-05-18T14:30:43Z</time>
      </trkpt>
      <trkpt lat="45.87918" lon="6.41662">
        <ele>1388.76</ele>
        <time>2020-05-18T14:30:49Z</time>
      </trkpt>
      <trkpt lat="45.87914" lon="6.4163">
        <ele>1389.72</ele>
        <time>2020-05-18T14:30:50Z</time>
      </trkpt>
      <trkpt lat="45.8791" lon="6.41594">
        <ele>1392.61</ele>
        <time>2020-05-18T14:30:53Z</time>
      </trkpt>
      <trkpt lat="45.87906" lon="6.41545">
        <ele>1395.97</ele>
        <time>2020-05-18T14:30:55Z</time>
      </trkpt>
      <trkpt lat="45.87923" lon="6.41374">
        <ele>1403.18</ele>
        <time>2020-05-18T14:31:00Z</time>
      </trkpt>
      <trkpt lat="45.87925" lon="6.41353">
        <ele>1406.07</ele>
        <time>2020-05-18T14:31:02Z</time>
      </trkpt>
      <trkpt lat="45.87922" lon="6.41317">
        <ele>1407.51</ele>
        <time>2020-05-18T14:31:03Z</time>
      </trkpt>
      <trkpt lat="45.87915" lon="6.41299">
        <ele>1409.91</ele>
        <time>2020-05-18T14:31:05Z</time>
      </trkpt>
      <trkpt lat="45.87899" lon="6.41257">
        <ele>1410.87</ele>
        <time>2020-05-18T14:31:06Z</time>
      </trkpt>
      <trkpt lat="45.87893" lon="6.41235">
        <ele>1413.28</ele>
        <time>2020-05-18T14:31:08Z</time>
      </trkpt>
      <trkpt lat="45.87889" lon="6.41213">
        <ele>1414.24</ele>
        <time>2020-05-18T14:31:09Z</time>
      </trkpt>
      <trkpt lat="45.87894" lon="6.41099">
        <ele>1420.97</ele>
        <time>2020-05-18T14:31:13Z</time>
      </trkpt>
      <trkpt lat="45.87907" lon="6.40991">
        <ele>1427.7</ele>
        <time>2020-05-18T14:31:17Z</time>
      </trkpt>
      <trkpt lat="45.87906" lon="6.40971">
        <ele>1430.58</ele>
        <time>2020-05-18T14:31:19Z</time>
      </trkpt>
      <trkpt lat="45.87886" lon="6.40909">
        <ele>1432.98</ele>
        <time>2020-05-18T14:31:21Z</time>
      </trkpt>
      <trkpt lat="45.87879" lon="6.40887">
        <ele>1434.42</ele>
        <time>2020-05-18T14:31:22Z</time>
      </trkpt>
      <trkpt lat="45.87872" lon="6.40866">
        <ele>1435.87</ele>
        <time>2020-05-18T14:31:23Z</time>
      </trkpt>
      <trkpt lat="45.87844" lon="6.40781">
        <ele>1444.52</ele>
        <time>2020-05-18T14:31:28Z</time>
      </trkpt>
      <trkpt lat="45.87825" lon="6.40748">
        <ele>1445.96</ele>
        <time>2020-05-18T14:31:29Z</time>
      </trkpt>
      <trkpt lat="45.87815" lon="6.4073">
        <ele>1447.4</ele>
        <time>2020-05-18T14:31:30Z</time>
      </trkpt>
      <trkpt lat="45.87773" lon="6.40632">
        <ele>1455.09</ele>
        <time>2020-05-18T14:31:35Z</time>
      </trkpt>
      <trkpt lat="45.8776" lon="6.40623">
        <ele>1456.05</ele>
        <time>2020-05-18T14:31:36Z</time>
      </trkpt>
      <trkpt lat="45.87748" lon="6.40615">
        <ele>1457.5</ele>
        <time>2020-05-18T14:31:37Z</time>
      </trkpt>
      <trkpt lat="45.87737" lon="6.40607">
        <ele>1457.98</ele>
        <time>2020-05-18T14:31:38Z</time>
      </trkpt>
      <trkpt lat="45.87726" lon="6.406">
        <ele>1458.46</ele>
        <time>2020-05-18T14:31:39Z</time>
      </trkpt>
      <trkpt lat="45.87717" lon="6.40587">
        <ele>1459.42</ele>
        <time>2020-05-18T14:31:40Z</time>
      </trkpt>
      <trkpt lat="45.87709" lon="6.40571">
        <ele>1460.38</ele>
        <time>2020-05-18T14:31:42Z</time>
      </trkpt>
      <trkpt lat="45.87697" lon="6.40526">
        <ele>1460.86</ele>
        <time>2020-05-18T14:31:44Z</time>
      </trkpt>
      <trkpt lat="45.87687" lon="6.40436">
        <ele>1459.9</ele>
        <time>2020-05-18T14:31:48Z</time>
      </trkpt>
      <trkpt lat="45.87687" lon="6.40415">
        <ele>1459.42</ele>
        <time>2020-05-18T14:31:49Z</time>
      </trkpt>
      <trkpt lat="45.87688" lon="6.40393">
        <ele>1458.94</ele>
        <time>2020-05-18T14:31:50Z</time>
      </trkpt>
      <trkpt lat="45.87695" lon="6.40314">
        <ele>1457.02</ele>
        <time>2020-05-18T14:31:54Z</time>
      </trkpt>
      <trkpt lat="45.8769" lon="6.40274">
        <ele>1456.05</ele>
        <time>2020-05-18T14:31:55Z</time>
      </trkpt>
      <trkpt lat="45.87684" lon="6.40253">
        <ele>1455.57</ele>
        <time>2020-05-18T14:31:56Z</time>
      </trkpt>
      <trkpt lat="45.87679" lon="6.40232">
        <ele>1454.61</ele>
        <time>2020-05-18T14:31:57Z</time>
      </trkpt>
      <trkpt lat="45.87673" lon="6.4021">
        <ele>1454.13</ele>
        <time>2020-05-18T14:31:58Z</time>
      </trkpt>
      <trkpt lat="45.87667" lon="6.40188">
        <ele>1453.17</ele>
        <time>2020-05-18T14:31:59Z</time>
      </trkpt>
      <trkpt lat="45.87663" lon="6.40165">
        <ele>1452.21</ele>
        <time>2020-05-18T14:32:00Z</time>
      </trkpt>
      <trkpt lat="45.87646" lon="6.40076">
        <ele>1449.81</ele>
        <time>2020-05-18T14:32:04Z</time>
      </trkpt>
      <trkpt lat="45.87638" lon="6.40054">
        <ele>1447.4</ele>
        <time>2020-05-18T14:32:06Z</time>
      </trkpt>
      <trkpt lat="45.87608" lon="6.39967">
        <ele>1443.56</ele>
        <time>2020-05-18T14:32:09Z</time>
      </trkpt>
      <trkpt lat="45.87602" lon="6.39949">
        <ele>1441.63</ele>
        <time>2020-05-18T14:32:10Z</time>
      </trkpt>
      <trkpt lat="45.87592" lon="6.39921">
        <ele>1436.83</ele>
        <time>2020-05-18T14:32:13Z</time>
      </trkpt>
      <trkpt lat="45.87589" lon="6.39914">
        <ele>1435.39</ele>
        <time>2020-05-18T14:32:14Z</time>
      </trkpt>
      <trkpt lat="45.87583" lon="6.39909">
        <ele>1433.46</ele>
        <time>2020-05-18T14:32:15Z</time>
      </trkpt>
      <trkpt lat="45.8758" lon="6.39906">
        <ele>1432.02</ele>
        <time>2020-05-18T14:32:16Z</time>
      </trkpt>
      <trkpt lat="45.87575" lon="6.39913">
        <ele>1430.58</ele>
        <time>2020-05-18T14:32:17Z</time>
      </trkpt>
      <trkpt lat="45.87565" lon="6.39983">
        <ele>1424.81</ele>
        <time>2020-05-18T14:32:21Z</time>
      </trkpt>
      <trkpt lat="45.87555" lon="6.40021">
        <ele>1421.93</ele>
        <time>2020-05-18T14:32:23Z</time>
      </trkpt>
      <trkpt lat="45.87531" lon="6.40045">
        <ele>1420.49</ele>
        <time>2020-05-18T14:32:24Z</time>
      </trkpt>
      <trkpt lat="45.87518" lon="6.40052">
        <ele>1419.52</ele>
        <time>2020-05-18T14:32:25Z</time>
      </trkpt>
      <trkpt lat="45.87507" lon="6.40059">
        <ele>1418.08</ele>
        <time>2020-05-18T14:32:26Z</time>
      </trkpt>
      <trkpt lat="45.87496" lon="6.40071">
        <ele>1416.16</ele>
        <time>2020-05-18T14:32:28Z</time>
      </trkpt>
      <trkpt lat="45.87485" lon="6.40082">
        <ele>1415.68</ele>
        <time>2020-05-18T14:32:29Z</time>
      </trkpt>
      <trkpt lat="45.87474" lon="6.40126">
        <ele>1414.24</ele>
        <time>2020-05-18T14:32:31Z</time>
      </trkpt>
      <trkpt lat="45.87468" lon="6.40134">
        <ele>1413.28</ele>
        <time>2020-05-18T14:32:32Z</time>
      </trkpt>
      <trkpt lat="45.87461" lon="6.40137">
        <ele>1411.83</ele>
        <time>2020-05-18T14:32:33Z</time>
      </trkpt>
      <trkpt lat="45.87456" lon="6.40134">
        <ele>1410.39</ele>
        <time>2020-05-18T14:32:34Z</time>
      </trkpt>
      <trkpt lat="45.87449" lon="6.40126">
        <ele>1409.43</ele>
        <time>2020-05-18T14:32:35Z</time>
      </trkpt>
      <trkpt lat="45.87447" lon="6.40109">
        <ele>1408.95</ele>
        <time>2020-05-18T14:32:36Z</time>
      </trkpt>
      <trkpt lat="45.87448" lon="6.40088">
        <ele>1407.99</ele>
        <time>2020-05-18T14:32:37Z</time>
      </trkpt>
      <trkpt lat="45.8745" lon="6.40017">
        <ele>1403.66</ele>
        <time>2020-05-18T14:32:41Z</time>
      </trkpt>
      <trkpt lat="45.87463" lon="6.39978">
        <ele>1402.7</ele>
        <time>2020-05-18T14:32:42Z</time>
      </trkpt>
      <trkpt lat="45.8747" lon="6.39961">
        <ele>1401.26</ele>
        <time>2020-05-18T14:32:43Z</time>
      </trkpt>
      <trkpt lat="45.87476" lon="6.39947">
        <ele>1399.82</ele>
        <time>2020-05-18T14:32:45Z</time>
      </trkpt>
      <trkpt lat="45.87482" lon="6.39926">
        <ele>1398.86</ele>
        <time>2020-05-18T14:32:46Z</time>
      </trkpt>
      <trkpt lat="45.87478" lon="6.39912">
        <ele>1397.89</ele>
        <time>2020-05-18T14:32:47Z</time>
      </trkpt>
      <trkpt lat="45.87439" lon="6.39804">
        <ele>1391.65</ele>
        <time>2020-05-18T14:32:53Z</time>
      </trkpt>
      <trkpt lat="45.87397" lon="6.39572">
        <ele>1380.59</ele>
        <time>2020-05-18T14:33:01Z</time>
      </trkpt>
      <trkpt lat="45.87381" lon="6.39498">
        <ele>1377.23</ele>
        <time>2020-05-18T14:33:04Z</time>
      </trkpt>
      <trkpt lat="45.87372" lon="6.39476">
        <ele>1376.26</ele>
        <time>2020-05-18T14:33:05Z</time>
      </trkpt>
      <trkpt lat="45.87305" lon="6.39318">
        <ele>1367.61</ele>
        <time>2020-05-18T14:33:12Z</time>
      </trkpt>
      <trkpt lat="45.87297" lon="6.39296">
        <ele>1365.69</ele>
        <time>2020-05-18T14:33:13Z</time>
      </trkpt>
      <trkpt lat="45.87291" lon="6.39273">
        <ele>1364.25</ele>
        <time>2020-05-18T14:33:14Z</time>
      </trkpt>
      <trkpt lat="45.87286" lon="6.39248">
        <ele>1362.81</ele>
        <time>2020-05-18T14:33:15Z</time>
      </trkpt>
      <trkpt lat="45.87283" lon="6.39223">
        <ele>1361.36</ele>
        <time>2020-05-18T14:33:16Z</time>
      </trkpt>
      <trkpt lat="45.87281" lon="6.39199">
        <ele>1359.92</ele>
        <time>2020-05-18T14:33:17Z</time>
      </trkpt>
      <trkpt lat="45.87279" lon="6.39178">
        <ele>1358.48</ele>
        <time>2020-05-18T14:33:18Z</time>
      </trkpt>
      <trkpt lat="45.87273" lon="6.3916">
        <ele>1357.04</ele>
        <time>2020-05-18T14:33:19Z</time>
      </trkpt>
      <trkpt lat="45.87254" lon="6.39127">
        <ele>1355.12</ele>
        <time>2020-05-18T14:33:21Z</time>
      </trkpt>
      <trkpt lat="45.87243" lon="6.3911">
        <ele>1353.67</ele>
        <time>2020-05-18T14:33:22Z</time>
      </trkpt>
      <trkpt lat="45.87232" lon="6.39094">
        <ele>1352.23</ele>
        <time>2020-05-18T14:33:23Z</time>
      </trkpt>
      <trkpt lat="45.87222" lon="6.39075">
        <ele>1350.31</ele>
        <time>2020-05-18T14:33:24Z</time>
      </trkpt>
      <trkpt lat="45.87216" lon="6.39052">
        <ele>1348.87</ele>
        <time>2020-05-18T14:33:25Z</time>
      </trkpt>
      <trkpt lat="45.8721" lon="6.39027">
        <ele>1346.94</ele>
        <time>2020-05-18T14:33:26Z</time>
      </trkpt>
      <trkpt lat="45.8718" lon="6.38857">
        <ele>1336.85</ele>
        <time>2020-05-18T14:33:33Z</time>
      </trkpt>
      <trkpt lat="45.87176" lon="6.38837">
        <ele>1335.41</ele>
        <time>2020-05-18T14:33:34Z</time>
      </trkpt>
      <trkpt lat="45.87177" lon="6.38817">
        <ele>1333.49</ele>
        <time>2020-05-18T14:33:35Z</time>
      </trkpt>
      <trkpt lat="45.87179" lon="6.38798">
        <ele>1332.04</ele>
        <time>2020-05-18T14:33:36Z</time>
      </trkpt>
      <trkpt lat="45.87196" lon="6.38724">
        <ele>1326.76</ele>
        <time>2020-05-18T14:33:40Z</time>
      </trkpt>
      <trkpt lat="45.87197" lon="6.38687">
        <ele>1324.83</ele>
        <time>2020-05-18T14:33:42Z</time>
      </trkpt>
      <trkpt lat="45.87192" lon="6.38666">
        <ele>1323.39</ele>
        <time>2020-05-18T14:33:43Z</time>
      </trkpt>
      <trkpt lat="45.87186" lon="6.38644">
        <ele>1322.43</ele>
        <time>2020-05-18T14:33:44Z</time>
      </trkpt>
      <trkpt lat="45.87166" lon="6.38561">
        <ele>1319.07</ele>
        <time>2020-05-18T14:33:47Z</time>
      </trkpt>
      <trkpt lat="45.87164" lon="6.3854">
        <ele>1318.1</ele>
        <time>2020-05-18T14:33:48Z</time>
      </trkpt>
      <trkpt lat="45.87162" lon="6.38517">
        <ele>1316.66</ele>
        <time>2020-05-18T14:33:50Z</time>
      </trkpt>
      <trkpt lat="45.87161" lon="6.38495">
        <ele>1315.22</ele>
        <time>2020-05-18T14:33:51Z</time>
      </trkpt>
      <trkpt lat="45.87172" lon="6.38453">
        <ele>1314.26</ele>
        <time>2020-05-18T14:33:52Z</time>
      </trkpt>
      <trkpt lat="45.87185" lon="6.38417">
        <ele>1310.41</ele>
        <time>2020-05-18T14:33:55Z</time>
      </trkpt>
      <trkpt lat="45.87192" lon="6.384">
        <ele>1309.45</ele>
        <time>2020-05-18T14:33:56Z</time>
      </trkpt>
      <trkpt lat="45.87193" lon="6.38381">
        <ele>1308.97</ele>
        <time>2020-05-18T14:33:57Z</time>
      </trkpt>
      <trkpt lat="45.8719" lon="6.38359">
        <ele>1308.01</ele>
        <time>2020-05-18T14:33:58Z</time>
      </trkpt>
      <trkpt lat="45.87185" lon="6.38322">
        <ele>1305.13</ele>
        <time>2020-05-18T14:34:00Z</time>
      </trkpt>
      <trkpt lat="45.87184" lon="6.38283">
        <ele>1304.17</ele>
        <time>2020-05-18T14:34:01Z</time>
      </trkpt>
      <trkpt lat="45.87183" lon="6.38263">
        <ele>1302.72</ele>
        <time>2020-05-18T14:34:02Z</time>
      </trkpt>
      <trkpt lat="45.87178" lon="6.38241">
        <ele>1301.28</ele>
        <time>2020-05-18T14:34:03Z</time>
      </trkpt>
      <trkpt lat="45.87168" lon="6.38219">
        <ele>1299.84</ele>
        <time>2020-05-18T14:34:04Z</time>
      </trkpt>
      <trkpt lat="45.87158" lon="6.38195">
        <ele>1296.96</ele>
        <time>2020-05-18T14:34:06Z</time>
      </trkpt>
      <trkpt lat="45.8712" lon="6.38106">
        <ele>1290.71</ele>
        <time>2020-05-18T14:34:10Z</time>
      </trkpt>
      <trkpt lat="45.87113" lon="6.38083">
        <ele>1289.27</ele>
        <time>2020-05-18T14:34:11Z</time>
      </trkpt>
      <trkpt lat="45.87096" lon="6.38019">
        <ele>1284.94</ele>
        <time>2020-05-18T14:34:14Z</time>
      </trkpt>
      <trkpt lat="45.87093" lon="6.37998">
        <ele>1283.98</ele>
        <time>2020-05-18T14:34:15Z</time>
      </trkpt>
      <trkpt lat="45.87095" lon="6.37976">
        <ele>1282.54</ele>
        <time>2020-05-18T14:34:16Z</time>
      </trkpt>
      <trkpt lat="45.87119" lon="6.37812">
        <ele>1272.92</ele>
        <time>2020-05-18T14:34:22Z</time>
      </trkpt>
      <trkpt lat="45.87124" lon="6.37784">
        <ele>1271</ele>
        <time>2020-05-18T14:34:23Z</time>
      </trkpt>
      <trkpt lat="45.87125" lon="6.37755">
        <ele>1269.56</ele>
        <time>2020-05-18T14:34:24Z</time>
      </trkpt>
      <trkpt lat="45.87125" lon="6.37726">
        <ele>1267.64</ele>
        <time>2020-05-18T14:34:25Z</time>
      </trkpt>
      <trkpt lat="45.87123" lon="6.37699">
        <ele>1266.19</ele>
        <time>2020-05-18T14:34:26Z</time>
      </trkpt>
      <trkpt lat="45.87115" lon="6.37628">
        <ele>1261.39</ele>
        <time>2020-05-18T14:34:29Z</time>
      </trkpt>
      <trkpt lat="45.8712" lon="6.37588">
        <ele>1259.94</ele>
        <time>2020-05-18T14:34:30Z</time>
      </trkpt>
      <trkpt lat="45.87124" lon="6.37566">
        <ele>1256.58</ele>
        <time>2020-05-18T14:34:32Z</time>
      </trkpt>
      <trkpt lat="45.87135" lon="6.37514">
        <ele>1255.14</ele>
        <time>2020-05-18T14:34:33Z</time>
      </trkpt>
      <trkpt lat="45.87139" lon="6.37484">
        <ele>1253.7</ele>
        <time>2020-05-18T14:34:34Z</time>
      </trkpt>
      <trkpt lat="45.8715" lon="6.37365">
        <ele>1247.45</ele>
        <time>2020-05-18T14:34:39Z</time>
      </trkpt>
      <trkpt lat="45.8715" lon="6.37352">
        <ele>1245.04</ele>
        <time>2020-05-18T14:34:41Z</time>
      </trkpt>
      <trkpt lat="45.87148" lon="6.37344">
        <ele>1244.08</ele>
        <time>2020-05-18T14:34:42Z</time>
      </trkpt>
      <trkpt lat="45.87143" lon="6.37336">
        <ele>1243.12</ele>
        <time>2020-05-18T14:34:43Z</time>
      </trkpt>
      <trkpt lat="45.8714" lon="6.37335">
        <ele>1242.16</ele>
        <time>2020-05-18T14:34:44Z</time>
      </trkpt>
      <trkpt lat="45.87128" lon="6.37342">
        <ele>1240.24</ele>
        <time>2020-05-18T14:34:46Z</time>
      </trkpt>
      <trkpt lat="45.87118" lon="6.37372">
        <ele>1238.8</ele>
        <time>2020-05-18T14:34:48Z</time>
      </trkpt>
      <trkpt lat="45.87112" lon="6.3739">
        <ele>1237.35</ele>
        <time>2020-05-18T14:34:49Z</time>
      </trkpt>
      <trkpt lat="45.87105" lon="6.37408">
        <ele>1236.39</ele>
        <time>2020-05-18T14:34:50Z</time>
      </trkpt>
      <trkpt lat="45.8708" lon="6.37433">
        <ele>1233.03</ele>
        <time>2020-05-18T14:34:52Z</time>
      </trkpt>
      <trkpt lat="45.87069" lon="6.37447">
        <ele>1231.59</ele>
        <time>2020-05-18T14:34:53Z</time>
      </trkpt>
      <trkpt lat="45.8706" lon="6.37465">
        <ele>1230.14</ele>
        <time>2020-05-18T14:34:54Z</time>
      </trkpt>
      <trkpt lat="45.87052" lon="6.37481">
        <ele>1228.7</ele>
        <time>2020-05-18T14:34:55Z</time>
      </trkpt>
      <trkpt lat="45.87044" lon="6.37497">
        <ele>1227.26</ele>
        <time>2020-05-18T14:34:56Z</time>
      </trkpt>
      <trkpt lat="45.87034" lon="6.3751">
        <ele>1226.78</ele>
        <time>2020-05-18T14:34:57Z</time>
      </trkpt>
      <trkpt lat="45.8702" lon="6.3752">
        <ele>1225.82</ele>
        <time>2020-05-18T14:34:58Z</time>
      </trkpt>
      <trkpt lat="45.87003" lon="6.37528">
        <ele>1224.86</ele>
        <time>2020-05-18T14:34:59Z</time>
      </trkpt>
      <trkpt lat="45.86918" lon="6.3755">
        <ele>1218.61</ele>
        <time>2020-05-18T14:35:04Z</time>
      </trkpt>
      <trkpt lat="45.86905" lon="6.37553">
        <ele>1217.17</ele>
        <time>2020-05-18T14:35:05Z</time>
      </trkpt>
      <trkpt lat="45.86893" lon="6.37557">
        <ele>1215.72</ele>
        <time>2020-05-18T14:35:06Z</time>
      </trkpt>
      <trkpt lat="45.86883" lon="6.37565">
        <ele>1214.76</ele>
        <time>2020-05-18T14:35:07Z</time>
      </trkpt>
      <trkpt lat="45.86874" lon="6.37576">
        <ele>1213.32</ele>
        <time>2020-05-18T14:35:08Z</time>
      </trkpt>
      <trkpt lat="45.86855" lon="6.3763">
        <ele>1209.48</ele>
        <time>2020-05-18T14:35:11Z</time>
      </trkpt>
      <trkpt lat="45.86851" lon="6.37646">
        <ele>1208.03</ele>
        <time>2020-05-18T14:35:12Z</time>
      </trkpt>
      <trkpt lat="45.86844" lon="6.37661">
        <ele>1207.07</ele>
        <time>2020-05-18T14:35:13Z</time>
      </trkpt>
      <trkpt lat="45.86834" lon="6.37671">
        <ele>1206.59</ele>
        <time>2020-05-18T14:35:14Z</time>
      </trkpt>
      <trkpt lat="45.86821" lon="6.37675">
        <ele>1206.11</ele>
        <time>2020-05-18T14:35:15Z</time>
      </trkpt>
      <trkpt lat="45.86809" lon="6.37679">
        <ele>1205.15</ele>
        <time>2020-05-18T14:35:16Z</time>
      </trkpt>
      <trkpt lat="45.86796" lon="6.37688">
        <ele>1204.67</ele>
        <time>2020-05-18T14:35:17Z</time>
      </trkpt>
      <trkpt lat="45.86784" lon="6.37698">
        <ele>1204.19</ele>
        <time>2020-05-18T14:35:18Z</time>
      </trkpt>
      <trkpt lat="45.86773" lon="6.37707">
        <ele>1203.23</ele>
        <time>2020-05-18T14:35:19Z</time>
      </trkpt>
      <trkpt lat="45.86765" lon="6.37724">
        <ele>1202.75</ele>
        <time>2020-05-18T14:35:20Z</time>
      </trkpt>
      <trkpt lat="45.8675" lon="6.37755">
        <ele>1200.82</ele>
        <time>2020-05-18T14:35:22Z</time>
      </trkpt>
      <trkpt lat="45.86745" lon="6.37769">
        <ele>1199.86</ele>
        <time>2020-05-18T14:35:23Z</time>
      </trkpt>
      <trkpt lat="45.86744" lon="6.37809">
        <ele>1198.9</ele>
        <time>2020-05-18T14:35:24Z</time>
      </trkpt>
      <trkpt lat="45.86749" lon="6.37833">
        <ele>1196.5</ele>
        <time>2020-05-18T14:35:26Z</time>
      </trkpt>
      <trkpt lat="45.86775" lon="6.37975">
        <ele>1190.25</ele>
        <time>2020-05-18T14:35:31Z</time>
      </trkpt>
      <trkpt lat="45.86777" lon="6.37987">
        <ele>1188.33</ele>
        <time>2020-05-18T14:35:33Z</time>
      </trkpt>
      <trkpt lat="45.86772" lon="6.38003">
        <ele>1187.37</ele>
        <time>2020-05-18T14:35:34Z</time>
      </trkpt>
      <trkpt lat="45.86764" lon="6.38004">
        <ele>1186.88</ele>
        <time>2020-05-18T14:35:35Z</time>
      </trkpt>
      <trkpt lat="45.86756" lon="6.37999">
        <ele>1185.44</ele>
        <time>2020-05-18T14:35:37Z</time>
      </trkpt>
      <trkpt lat="45.86729" lon="6.37955">
        <ele>1183.04</ele>
        <time>2020-05-18T14:35:39Z</time>
      </trkpt>
      <trkpt lat="45.86721" lon="6.37937">
        <ele>1182.08</ele>
        <time>2020-05-18T14:35:40Z</time>
      </trkpt>
      <trkpt lat="45.86712" lon="6.37919">
        <ele>1180.64</ele>
        <time>2020-05-18T14:35:41Z</time>
      </trkpt>
      <trkpt lat="45.86702" lon="6.37903">
        <ele>1179.19</ele>
        <time>2020-05-18T14:35:42Z</time>
      </trkpt>
      <trkpt lat="45.8669" lon="6.37885">
        <ele>1177.75</ele>
        <time>2020-05-18T14:35:43Z</time>
      </trkpt>
      <trkpt lat="45.86678" lon="6.37867">
        <ele>1176.31</ele>
        <time>2020-05-18T14:35:44Z</time>
      </trkpt>
      <trkpt lat="45.86667" lon="6.37847">
        <ele>1174.39</ele>
        <time>2020-05-18T14:35:45Z</time>
      </trkpt>
      <trkpt lat="45.86658" lon="6.37825">
        <ele>1172.95</ele>
        <time>2020-05-18T14:35:46Z</time>
      </trkpt>
      <trkpt lat="45.8665" lon="6.37803">
        <ele>1171.5</ele>
        <time>2020-05-18T14:35:47Z</time>
      </trkpt>
      <trkpt lat="45.86643" lon="6.37778">
        <ele>1170.06</ele>
        <time>2020-05-18T14:35:48Z</time>
      </trkpt>
      <trkpt lat="45.86636" lon="6.37751">
        <ele>1168.14</ele>
        <time>2020-05-18T14:35:49Z</time>
      </trkpt>
      <trkpt lat="45.8662" lon="6.37676">
        <ele>1160.93</ele>
        <time>2020-05-18T14:35:53Z</time>
      </trkpt>
      <trkpt lat="45.86606" lon="6.37596">
        <ele>1157.08</ele>
        <time>2020-05-18T14:35:55Z</time>
      </trkpt>
      <trkpt lat="45.86597" lon="6.37542">
        <ele>1150.84</ele>
        <time>2020-05-18T14:35:58Z</time>
      </trkpt>
      <trkpt lat="45.86593" lon="6.37517">
        <ele>1147.95</ele>
        <time>2020-05-18T14:35:59Z</time>
      </trkpt>
      <trkpt lat="45.86594" lon="6.37468">
        <ele>1145.55</ele>
        <time>2020-05-18T14:36:00Z</time>
      </trkpt>
      <trkpt lat="45.86594" lon="6.37468">
        <ele>1143.14</ele>
        <time>2020-05-18T14:36:01Z</time>
      </trkpt>
      <trkpt lat="45.86598" lon="6.37426">
        <ele>1140.74</ele>
        <time>2020-05-18T14:36:02Z</time>
      </trkpt>
      <trkpt lat="45.86604" lon="6.3741">
        <ele>1138.82</ele>
        <time>2020-05-18T14:36:03Z</time>
      </trkpt>
      <trkpt lat="45.86609" lon="6.37396">
        <ele>1135.45</ele>
        <time>2020-05-18T14:36:05Z</time>
      </trkpt>
      <trkpt lat="45.86616" lon="6.37377">
        <ele>1134.01</ele>
        <time>2020-05-18T14:36:06Z</time>
      </trkpt>
      <trkpt lat="45.86614" lon="6.37373">
        <ele>1132.57</ele>
        <time>2020-05-18T14:36:07Z</time>
      </trkpt>
      <trkpt lat="45.86609" lon="6.37367">
        <ele>1131.13</ele>
        <time>2020-05-18T14:36:08Z</time>
      </trkpt>
      <trkpt lat="45.866" lon="6.3737">
        <ele>1129.69</ele>
        <time>2020-05-18T14:36:09Z</time>
      </trkpt>
      <trkpt lat="45.86592" lon="6.37379">
        <ele>1128.73</ele>
        <time>2020-05-18T14:36:10Z</time>
      </trkpt>
      <trkpt lat="45.86581" lon="6.37389">
        <ele>1126.8</ele>
        <time>2020-05-18T14:36:11Z</time>
      </trkpt>
      <trkpt lat="45.86568" lon="6.374">
        <ele>1123.44</ele>
        <time>2020-05-18T14:36:13Z</time>
      </trkpt>
      <trkpt lat="45.86554" lon="6.37413">
        <ele>1121.52</ele>
        <time>2020-05-18T14:36:14Z</time>
      </trkpt>
      <trkpt lat="45.8653" lon="6.3744">
        <ele>1119.59</ele>
        <time>2020-05-18T14:36:15Z</time>
      </trkpt>
      <trkpt lat="45.8652" lon="6.37455">
        <ele>1117.67</ele>
        <time>2020-05-18T14:36:16Z</time>
      </trkpt>
      <trkpt lat="45.86511" lon="6.37469">
        <ele>1115.75</ele>
        <time>2020-05-18T14:36:17Z</time>
      </trkpt>
      <trkpt lat="45.86506" lon="6.37487">
        <ele>1113.82</ele>
        <time>2020-05-18T14:36:18Z</time>
      </trkpt>
      <trkpt lat="45.86501" lon="6.37504">
        <ele>1111.9</ele>
        <time>2020-05-18T14:36:19Z</time>
      </trkpt>
      <trkpt lat="45.86496" lon="6.3752">
        <ele>1109.98</ele>
        <time>2020-05-18T14:36:20Z</time>
      </trkpt>
      <trkpt lat="45.86489" lon="6.37545">
        <ele>1106.61</ele>
        <time>2020-05-18T14:36:22Z</time>
      </trkpt>
      <trkpt lat="45.86482" lon="6.37555">
        <ele>1105.17</ele>
        <time>2020-05-18T14:36:23Z</time>
      </trkpt>
      <trkpt lat="45.86474" lon="6.37562">
        <ele>1103.73</ele>
        <time>2020-05-18T14:36:24Z</time>
      </trkpt>
      <trkpt lat="45.86466" lon="6.3757">
        <ele>1102.29</ele>
        <time>2020-05-18T14:36:25Z</time>
      </trkpt>
      <trkpt lat="45.86458" lon="6.37577">
        <ele>1101.33</ele>
        <time>2020-05-18T14:36:26Z</time>
      </trkpt>
      <trkpt lat="45.86451" lon="6.37583">
        <ele>1099.89</ele>
        <time>2020-05-18T14:36:27Z</time>
      </trkpt>
      <trkpt lat="45.86442" lon="6.37591">
        <ele>1098.92</ele>
        <time>2020-05-18T14:36:28Z</time>
      </trkpt>
      <trkpt lat="45.8644" lon="6.37601">
        <ele>1097.96</ele>
        <time>2020-05-18T14:36:29Z</time>
      </trkpt>
      <trkpt lat="45.86438" lon="6.37616">
        <ele>1097</ele>
        <time>2020-05-18T14:36:30Z</time>
      </trkpt>
      <trkpt lat="45.86435" lon="6.37633">
        <ele>1096.04</ele>
        <time>2020-05-18T14:36:31Z</time>
      </trkpt>
      <trkpt lat="45.86419" lon="6.37725">
        <ele>1089.31</ele>
        <time>2020-05-18T14:36:36Z</time>
      </trkpt>
      <trkpt lat="45.86413" lon="6.37742">
        <ele>1087.87</ele>
        <time>2020-05-18T14:36:37Z</time>
      </trkpt>
      <trkpt lat="45.86388" lon="6.37829">
        <ele>1078.74</ele>
        <time>2020-05-18T14:36:43Z</time>
      </trkpt>
      <trkpt lat="45.86382" lon="6.37866">
        <ele>1077.29</ele>
        <time>2020-05-18T14:36:44Z</time>
      </trkpt>
      <trkpt lat="45.86379" lon="6.37884">
        <ele>1075.85</ele>
        <time>2020-05-18T14:36:45Z</time>
      </trkpt>
      <trkpt lat="45.86376" lon="6.37902">
        <ele>1074.41</ele>
        <time>2020-05-18T14:36:46Z</time>
      </trkpt>
      <trkpt lat="45.86362" lon="6.37984">
        <ele>1067.68</ele>
        <time>2020-05-18T14:36:51Z</time>
      </trkpt>
      <trkpt lat="45.86361" lon="6.37999">
        <ele>1066.24</ele>
        <time>2020-05-18T14:36:52Z</time>
      </trkpt>
      <trkpt lat="45.86362" lon="6.38013">
        <ele>1064.32</ele>
        <time>2020-05-18T14:36:54Z</time>
      </trkpt>
      <trkpt lat="45.86363" lon="6.38035">
        <ele>1061.91</ele>
        <time>2020-05-18T14:36:56Z</time>
      </trkpt>
      <trkpt lat="45.86357" lon="6.38053">
        <ele>1059.99</ele>
        <time>2020-05-18T14:36:58Z</time>
      </trkpt>
      <trkpt lat="45.8635" lon="6.38055">
        <ele>1059.51</ele>
        <time>2020-05-18T14:36:59Z</time>
      </trkpt>
      <trkpt lat="45.86337" lon="6.38039">
        <ele>1059.51</ele>
        <time>2020-05-18T14:37:00Z</time>
      </trkpt>
      <trkpt lat="45.86332" lon="6.38028">
        <ele>1059.03</ele>
        <time>2020-05-18T14:37:01Z</time>
      </trkpt>
      <trkpt lat="45.86313" lon="6.3799">
        <ele>1058.07</ele>
        <time>2020-05-18T14:37:05Z</time>
      </trkpt>
      <trkpt lat="45.86307" lon="6.37976">
        <ele>1057.59</ele>
        <time>2020-05-18T14:37:06Z</time>
      </trkpt>
      <trkpt lat="45.86303" lon="6.37926">
        <ele>1055.67</ele>
        <time>2020-05-18T14:37:08Z</time>
      </trkpt>
      <trkpt lat="45.86303" lon="6.37926">
        <ele>1054.7</ele>
        <time>2020-05-18T14:37:09Z</time>
      </trkpt>
      <trkpt lat="45.86303" lon="6.37892">
        <ele>1053.74</ele>
        <time>2020-05-18T14:37:10Z</time>
      </trkpt>
      <trkpt lat="45.86298" lon="6.37875">
        <ele>1052.3</ele>
        <time>2020-05-18T14:37:11Z</time>
      </trkpt>
      <trkpt lat="45.8629" lon="6.37857">
        <ele>1051.34</ele>
        <time>2020-05-18T14:37:12Z</time>
      </trkpt>
      <trkpt lat="45.8628" lon="6.37833">
        <ele>1049.9</ele>
        <time>2020-05-18T14:37:13Z</time>
      </trkpt>
      <trkpt lat="45.86268" lon="6.37806">
        <ele>1047.97</ele>
        <time>2020-05-18T14:37:14Z</time>
      </trkpt>
      <trkpt lat="45.86258" lon="6.37779">
        <ele>1044.13</ele>
        <time>2020-05-18T14:37:16Z</time>
      </trkpt>
      <trkpt lat="45.86249" lon="6.37754">
        <ele>1042.69</ele>
        <time>2020-05-18T14:37:17Z</time>
      </trkpt>
      <trkpt lat="45.86233" lon="6.37709">
        <ele>1040.76</ele>
        <time>2020-05-18T14:37:18Z</time>
      </trkpt>
      <trkpt lat="45.86228" lon="6.37685">
        <ele>1038.84</ele>
        <time>2020-05-18T14:37:19Z</time>
      </trkpt>
      <trkpt lat="45.86226" lon="6.37659">
        <ele>1036.92</ele>
        <time>2020-05-18T14:37:20Z</time>
      </trkpt>
      <trkpt lat="45.86226" lon="6.37631">
        <ele>1035.48</ele>
        <time>2020-05-18T14:37:21Z</time>
      </trkpt>
      <trkpt lat="45.86225" lon="6.37604">
        <ele>1034.04</ele>
        <time>2020-05-18T14:37:22Z</time>
      </trkpt>
      <trkpt lat="45.86224" lon="6.37578">
        <ele>1030.67</ele>
        <time>2020-05-18T14:37:24Z</time>
      </trkpt>
      <trkpt lat="45.86216" lon="6.37531">
        <ele>1028.75</ele>
        <time>2020-05-18T14:37:25Z</time>
      </trkpt>
      <trkpt lat="45.86207" lon="6.37487">
        <ele>1024.9</ele>
        <time>2020-05-18T14:37:27Z</time>
      </trkpt>
      <trkpt lat="45.86204" lon="6.37462">
        <ele>1022.98</ele>
        <time>2020-05-18T14:37:28Z</time>
      </trkpt>
      <trkpt lat="45.86213" lon="6.37352">
        <ele>1012.41</ele>
        <time>2020-05-18T14:37:34Z</time>
      </trkpt>
      <trkpt lat="45.86215" lon="6.37325">
        <ele>1009.52</ele>
        <time>2020-05-18T14:37:36Z</time>
      </trkpt>
      <trkpt lat="45.86217" lon="6.37312">
        <ele>1008.08</ele>
        <time>2020-05-18T14:37:37Z</time>
      </trkpt>
      <trkpt lat="45.86221" lon="6.37299">
        <ele>1005.68</ele>
        <time>2020-05-18T14:37:39Z</time>
      </trkpt>
      <trkpt lat="45.86247" lon="6.37254">
        <ele>1002.31</ele>
        <time>2020-05-18T14:37:41Z</time>
      </trkpt>
      <trkpt lat="45.86252" lon="6.37232">
        <ele>1000.39</ele>
        <time>2020-05-18T14:37:42Z</time>
      </trkpt>
      <trkpt lat="45.86256" lon="6.37211">
        <ele>998.95</ele>
        <time>2020-05-18T14:37:43Z</time>
      </trkpt>
      <trkpt lat="45.86257" lon="6.3719">
        <ele>995.58</ele>
        <time>2020-05-18T14:37:45Z</time>
      </trkpt>
      <trkpt lat="45.86264" lon="6.37156">
        <ele>994.14</ele>
        <time>2020-05-18T14:37:46Z</time>
      </trkpt>
      <trkpt lat="45.86268" lon="6.37144">
        <ele>992.7</ele>
        <time>2020-05-18T14:37:47Z</time>
      </trkpt>
      <trkpt lat="45.86272" lon="6.37135">
        <ele>991.74</ele>
        <time>2020-05-18T14:37:48Z</time>
      </trkpt>
      <trkpt lat="45.86271" lon="6.37128">
        <ele>990.3</ele>
        <time>2020-05-18T14:37:49Z</time>
      </trkpt>
      <trkpt lat="45.86265" lon="6.37123">
        <ele>989.33</ele>
        <time>2020-05-18T14:37:50Z</time>
      </trkpt>
      <trkpt lat="45.86258" lon="6.37121">
        <ele>988.37</ele>
        <time>2020-05-18T14:37:51Z</time>
      </trkpt>
      <trkpt lat="45.8625" lon="6.3713">
        <ele>987.89</ele>
        <time>2020-05-18T14:37:52Z</time>
      </trkpt>
      <trkpt lat="45.86239" lon="6.37142">
        <ele>986.93</ele>
        <time>2020-05-18T14:37:53Z</time>
      </trkpt>
      <trkpt lat="45.86226" lon="6.37156">
        <ele>985.97</ele>
        <time>2020-05-18T14:37:54Z</time>
      </trkpt>
      <trkpt lat="45.8621" lon="6.37173">
        <ele>984.53</ele>
        <time>2020-05-18T14:37:55Z</time>
      </trkpt>
      <trkpt lat="45.86193" lon="6.37187">
        <ele>983.09</ele>
        <time>2020-05-18T14:37:56Z</time>
      </trkpt>
      <trkpt lat="45.86176" lon="6.372">
        <ele>981.64</ele>
        <time>2020-05-18T14:37:57Z</time>
      </trkpt>
      <trkpt lat="45.86159" lon="6.37212">
        <ele>979.72</ele>
        <time>2020-05-18T14:37:58Z</time>
      </trkpt>
      <trkpt lat="45.86144" lon="6.37229">
        <ele>978.28</ele>
        <time>2020-05-18T14:37:59Z</time>
      </trkpt>
      <trkpt lat="45.8613" lon="6.37246">
        <ele>976.36</ele>
        <time>2020-05-18T14:38:00Z</time>
      </trkpt>
      <trkpt lat="45.86105" lon="6.37276">
        <ele>971.07</ele>
        <time>2020-05-18T14:38:03Z</time>
      </trkpt>
      <trkpt lat="45.86084" lon="6.37309">
        <ele>968.67</ele>
        <time>2020-05-18T14:38:04Z</time>
      </trkpt>
      <trkpt lat="45.86076" lon="6.37327">
        <ele>966.74</ele>
        <time>2020-05-18T14:38:05Z</time>
      </trkpt>
      <trkpt lat="45.86019" lon="6.37476">
        <ele>953.28</ele>
        <time>2020-05-18T14:38:14Z</time>
      </trkpt>
      <trkpt lat="45.86005" lon="6.37536">
        <ele>948.48</ele>
        <time>2020-05-18T14:38:18Z</time>
      </trkpt>
      <trkpt lat="45.86002" lon="6.37548">
        <ele>947.52</ele>
        <time>2020-05-18T14:38:19Z</time>
      </trkpt>
      <trkpt lat="45.85997" lon="6.37554">
        <ele>946.07</ele>
        <time>2020-05-18T14:38:20Z</time>
      </trkpt>
      <trkpt lat="45.8599" lon="6.37554">
        <ele>945.11</ele>
        <time>2020-05-18T14:38:21Z</time>
      </trkpt>
      <trkpt lat="45.85985" lon="6.37547">
        <ele>944.15</ele>
        <time>2020-05-18T14:38:22Z</time>
      </trkpt>
      <trkpt lat="45.85983" lon="6.37536">
        <ele>942.71</ele>
        <time>2020-05-18T14:38:23Z</time>
      </trkpt>
      <trkpt lat="45.85984" lon="6.37522">
        <ele>941.75</ele>
        <time>2020-05-18T14:38:24Z</time>
      </trkpt>
      <trkpt lat="45.85985" lon="6.37506">
        <ele>941.27</ele>
        <time>2020-05-18T14:38:25Z</time>
      </trkpt>
      <trkpt lat="45.85984" lon="6.3749">
        <ele>940.31</ele>
        <time>2020-05-18T14:38:26Z</time>
      </trkpt>
      <trkpt lat="45.85981" lon="6.37472">
        <ele>939.35</ele>
        <time>2020-05-18T14:38:27Z</time>
      </trkpt>
      <trkpt lat="45.85975" lon="6.37455">
        <ele>937.9</ele>
        <time>2020-05-18T14:38:28Z</time>
      </trkpt>
      <trkpt lat="45.85968" lon="6.3744">
        <ele>936.94</ele>
        <time>2020-05-18T14:38:29Z</time>
      </trkpt>
      <trkpt lat="45.85961" lon="6.37425">
        <ele>935.98</ele>
        <time>2020-05-18T14:38:30Z</time>
      </trkpt>
      <trkpt lat="45.85956" lon="6.37409">
        <ele>935.02</ele>
        <time>2020-05-18T14:38:31Z</time>
      </trkpt>
      <trkpt lat="45.85954" lon="6.37391">
        <ele>934.54</ele>
        <time>2020-05-18T14:38:32Z</time>
      </trkpt>
      <trkpt lat="45.85952" lon="6.37373">
        <ele>933.58</ele>
        <time>2020-05-18T14:38:33Z</time>
      </trkpt>
      <trkpt lat="45.85953" lon="6.37355">
        <ele>933.58</ele>
        <time>2020-05-18T14:38:34Z</time>
      </trkpt>
      <trkpt lat="45.85957" lon="6.37335">
        <ele>933.1</ele>
        <time>2020-05-18T14:38:35Z</time>
      </trkpt>
      <trkpt lat="45.85961" lon="6.37314">
        <ele>932.62</ele>
        <time>2020-05-18T14:38:36Z</time>
      </trkpt>
      <trkpt lat="45.85988" lon="6.37205">
        <ele>930.69</ele>
        <time>2020-05-18T14:38:43Z</time>
      </trkpt>
      <trkpt lat="45.86035" lon="6.37085">
        <ele>931.17</ele>
        <time>2020-05-18T14:38:52Z</time>
      </trkpt>
      <trkpt lat="45.86038" lon="6.3707">
        <ele>930.69</ele>
        <time>2020-05-18T14:38:53Z</time>
      </trkpt>
      <trkpt lat="45.86041" lon="6.37056">
        <ele>930.21</ele>
        <time>2020-05-18T14:38:54Z</time>
      </trkpt>
      <trkpt lat="45.86048" lon="6.37043">
        <ele>929.73</ele>
        <time>2020-05-18T14:38:55Z</time>
      </trkpt>
      <trkpt lat="45.86056" lon="6.37031">
        <ele>928.29</ele>
        <time>2020-05-18T14:38:56Z</time>
      </trkpt>
      <trkpt lat="45.86065" lon="6.3702">
        <ele>927.81</ele>
        <time>2020-05-18T14:38:57Z</time>
      </trkpt>
      <trkpt lat="45.86086" lon="6.3699">
        <ele>924.93</ele>
        <time>2020-05-18T14:39:00Z</time>
      </trkpt>
      <trkpt lat="45.86103" lon="6.36954">
        <ele>922.52</ele>
        <time>2020-05-18T14:39:04Z</time>
      </trkpt>
      <trkpt lat="45.86108" lon="6.36947">
        <ele>922.52</ele>
        <time>2020-05-18T14:39:05Z</time>
      </trkpt>
      <trkpt lat="45.86119" lon="6.36935">
        <ele>921.08</ele>
        <time>2020-05-18T14:39:07Z</time>
      </trkpt>
      <trkpt lat="45.86136" lon="6.36914">
        <ele>919.16</ele>
        <time>2020-05-18T14:39:10Z</time>
      </trkpt>
      <trkpt lat="45.86141" lon="6.36908">
        <ele>918.68</ele>
        <time>2020-05-18T14:39:11Z</time>
      </trkpt>
      <trkpt lat="45.86145" lon="6.369">
        <ele>918.2</ele>
        <time>2020-05-18T14:39:12Z</time>
      </trkpt>
      <trkpt lat="45.86149" lon="6.36888">
        <ele>916.75</ele>
        <time>2020-05-18T14:39:14Z</time>
      </trkpt>
      <trkpt lat="45.86151" lon="6.36861">
        <ele>915.79</ele>
        <time>2020-05-18T14:39:15Z</time>
      </trkpt>
      <trkpt lat="45.86148" lon="6.36847">
        <ele>915.31</ele>
        <time>2020-05-18T14:39:16Z</time>
      </trkpt>
      <trkpt lat="45.86144" lon="6.36825">
        <ele>914.83</ele>
        <time>2020-05-18T14:39:17Z</time>
      </trkpt>
      <trkpt lat="45.86113" lon="6.36745">
        <ele>910.03</ele>
        <time>2020-05-18T14:39:22Z</time>
      </trkpt>
      <trkpt lat="45.86106" lon="6.3673">
        <ele>909.54</ele>
        <time>2020-05-18T14:39:23Z</time>
      </trkpt>
      <trkpt lat="45.861" lon="6.36716">
        <ele>909.06</ele>
        <time>2020-05-18T14:39:24Z</time>
      </trkpt>
      <trkpt lat="45.86093" lon="6.36703">
        <ele>908.1</ele>
        <time>2020-05-18T14:39:25Z</time>
      </trkpt>
      <trkpt lat="45.86087" lon="6.36689">
        <ele>907.14</ele>
        <time>2020-05-18T14:39:26Z</time>
      </trkpt>
      <trkpt lat="45.86081" lon="6.36674">
        <ele>906.18</ele>
        <time>2020-05-18T14:39:27Z</time>
      </trkpt>
      <trkpt lat="45.86077" lon="6.36657">
        <ele>905.22</ele>
        <time>2020-05-18T14:39:28Z</time>
      </trkpt>
      <trkpt lat="45.86068" lon="6.36595">
        <ele>903.3</ele>
        <time>2020-05-18T14:39:32Z</time>
      </trkpt>
      <trkpt lat="45.86067" lon="6.3658">
        <ele>902.82</ele>
        <time>2020-05-18T14:39:33Z</time>
      </trkpt>
      <trkpt lat="45.86068" lon="6.36562">
        <ele>902.82</ele>
        <time>2020-05-18T14:39:34Z</time>
      </trkpt>
      <trkpt lat="45.86073" lon="6.36521">
        <ele>901.85</ele>
        <time>2020-05-18T14:39:36Z</time>
      </trkpt>
      <trkpt lat="45.86073" lon="6.36501">
        <ele>901.37</ele>
        <time>2020-05-18T14:39:37Z</time>
      </trkpt>
      <trkpt lat="45.86072" lon="6.3648">
        <ele>900.41</ele>
        <time>2020-05-18T14:39:38Z</time>
      </trkpt>
      <trkpt lat="45.86067" lon="6.36458">
        <ele>899.45</ele>
        <time>2020-05-18T14:39:39Z</time>
      </trkpt>
      <trkpt lat="45.86064" lon="6.36437">
        <ele>898.49</ele>
        <time>2020-05-18T14:39:40Z</time>
      </trkpt>
      <trkpt lat="45.86064" lon="6.36412">
        <ele>897.53</ele>
        <time>2020-05-18T14:39:41Z</time>
      </trkpt>
      <trkpt lat="45.86065" lon="6.36385">
        <ele>896.57</ele>
        <time>2020-05-18T14:39:42Z</time>
      </trkpt>
      <trkpt lat="45.86093" lon="6.36174">
        <ele>890.8</ele>
        <time>2020-05-18T14:39:50Z</time>
      </trkpt>
      <trkpt lat="45.86107" lon="6.36116">
        <ele>890.8</ele>
        <time>2020-05-18T14:39:52Z</time>
      </trkpt>
      <trkpt lat="45.86112" lon="6.36088">
        <ele>890.8</ele>
        <time>2020-05-18T14:39:53Z</time>
      </trkpt>
      <trkpt lat="45.86136" lon="6.3599">
        <ele>892.72</ele>
        <time>2020-05-18T14:39:57Z</time>
      </trkpt>
      <trkpt lat="45.86172" lon="6.35917">
        <ele>893.68</ele>
        <time>2020-05-18T14:40:01Z</time>
      </trkpt>
      <trkpt lat="45.86179" lon="6.35905">
        <ele>893.2</ele>
        <time>2020-05-18T14:40:02Z</time>
      </trkpt>
      <trkpt lat="45.86187" lon="6.35896">
        <ele>892.24</ele>
        <time>2020-05-18T14:40:03Z</time>
      </trkpt>
      <trkpt lat="45.862" lon="6.35892">
        <ele>890.8</ele>
        <time>2020-05-18T14:40:04Z</time>
      </trkpt>
      <trkpt lat="45.86212" lon="6.35895">
        <ele>889.36</ele>
        <time>2020-05-18T14:40:05Z</time>
      </trkpt>
      <trkpt lat="45.86226" lon="6.359">
        <ele>888.4</ele>
        <time>2020-05-18T14:40:06Z</time>
      </trkpt>
      <trkpt lat="45.86238" lon="6.35898">
        <ele>887.43</ele>
        <time>2020-05-18T14:40:07Z</time>
      </trkpt>
      <trkpt lat="45.86252" lon="6.35895">
        <ele>886.95</ele>
        <time>2020-05-18T14:40:08Z</time>
      </trkpt>
      <trkpt lat="45.86265" lon="6.35892">
        <ele>885.99</ele>
        <time>2020-05-18T14:40:09Z</time>
      </trkpt>
      <trkpt lat="45.86273" lon="6.35887">
        <ele>885.51</ele>
        <time>2020-05-18T14:40:10Z</time>
      </trkpt>
      <trkpt lat="45.86281" lon="6.3588">
        <ele>885.03</ele>
        <time>2020-05-18T14:40:11Z</time>
      </trkpt>
      <trkpt lat="45.86286" lon="6.35873">
        <ele>884.55</ele>
        <time>2020-05-18T14:40:12Z</time>
      </trkpt>
      <trkpt lat="45.86288" lon="6.3586">
        <ele>884.07</ele>
        <time>2020-05-18T14:40:14Z</time>
      </trkpt>
      <trkpt lat="45.86286" lon="6.35845">
        <ele>883.59</ele>
        <time>2020-05-18T14:40:15Z</time>
      </trkpt>
      <trkpt lat="45.86271" lon="6.35811">
        <ele>883.59</ele>
        <time>2020-05-18T14:40:16Z</time>
      </trkpt>
      <trkpt lat="45.8626" lon="6.35791">
        <ele>883.59</ele>
        <time>2020-05-18T14:40:17Z</time>
      </trkpt>
      <trkpt lat="45.86223" lon="6.35722">
        <ele>883.59</ele>
        <time>2020-05-18T14:40:21Z</time>
      </trkpt>
      <trkpt lat="45.86213" lon="6.3571">
        <ele>883.11</ele>
        <time>2020-05-18T14:40:22Z</time>
      </trkpt>
      <trkpt lat="45.86201" lon="6.35704">
        <ele>883.59</ele>
        <time>2020-05-18T14:40:23Z</time>
      </trkpt>
      <trkpt lat="45.86189" lon="6.35697">
        <ele>884.55</ele>
        <time>2020-05-18T14:40:25Z</time>
      </trkpt>
      <trkpt lat="45.86167" lon="6.35685">
        <ele>885.51</ele>
        <time>2020-05-18T14:40:26Z</time>
      </trkpt>
      <trkpt lat="45.86157" lon="6.3568">
        <ele>885.99</ele>
        <time>2020-05-18T14:40:28Z</time>
      </trkpt>
      <trkpt lat="45.86099" lon="6.35607">
        <ele>885.99</ele>
        <time>2020-05-18T14:40:34Z</time>
      </trkpt>
      <trkpt lat="45.86093" lon="6.35591">
        <ele>885.51</ele>
        <time>2020-05-18T14:40:35Z</time>
      </trkpt>
      <trkpt lat="45.86086" lon="6.35572">
        <ele>885.03</ele>
        <time>2020-05-18T14:40:36Z</time>
      </trkpt>
      <trkpt lat="45.86074" lon="6.35514">
        <ele>883.11</ele>
        <time>2020-05-18T14:40:38Z</time>
      </trkpt>
      <trkpt lat="45.86044" lon="6.35398">
        <ele>876.86</ele>
        <time>2020-05-18T14:40:42Z</time>
      </trkpt>
      <trkpt lat="45.86037" lon="6.35374">
        <ele>874.94</ele>
        <time>2020-05-18T14:40:43Z</time>
      </trkpt>
      <trkpt lat="45.85995" lon="6.35239">
        <ele>863.88</ele>
        <time>2020-05-18T14:40:49Z</time>
      </trkpt>
      <trkpt lat="45.85989" lon="6.35216">
        <ele>862.44</ele>
        <time>2020-05-18T14:40:50Z</time>
      </trkpt>
      <trkpt lat="45.85985" lon="6.35191">
        <ele>860.52</ele>
        <time>2020-05-18T14:40:51Z</time>
      </trkpt>
      <trkpt lat="45.85981" lon="6.35124">
        <ele>855.71</ele>
        <time>2020-05-18T14:40:54Z</time>
      </trkpt>
      <trkpt lat="45.85985" lon="6.35105">
        <ele>854.27</ele>
        <time>2020-05-18T14:40:55Z</time>
      </trkpt>
      <trkpt lat="45.85989" lon="6.35086">
        <ele>852.35</ele>
        <time>2020-05-18T14:40:56Z</time>
      </trkpt>
      <trkpt lat="45.85998" lon="6.35044">
        <ele>849.46</ele>
        <time>2020-05-18T14:40:58Z</time>
      </trkpt>
      <trkpt lat="45.85998" lon="6.35023">
        <ele>848.02</ele>
        <time>2020-05-18T14:40:59Z</time>
      </trkpt>
      <trkpt lat="45.85996" lon="6.34872">
        <ele>838.89</ele>
        <time>2020-05-18T14:41:05Z</time>
      </trkpt>
      <trkpt lat="45.86" lon="6.34852">
        <ele>837.45</ele>
        <time>2020-05-18T14:41:06Z</time>
      </trkpt>
      <trkpt lat="45.86004" lon="6.34833">
        <ele>836</ele>
        <time>2020-05-18T14:41:07Z</time>
      </trkpt>
      <trkpt lat="45.86009" lon="6.34818">
        <ele>835.04</ele>
        <time>2020-05-18T14:41:08Z</time>
      </trkpt>
      <trkpt lat="45.86015" lon="6.34806">
        <ele>833.6</ele>
        <time>2020-05-18T14:41:09Z</time>
      </trkpt>
      <trkpt lat="45.86025" lon="6.348">
        <ele>832.64</ele>
        <time>2020-05-18T14:41:10Z</time>
      </trkpt>
      <trkpt lat="45.86036" lon="6.34796">
        <ele>831.68</ele>
        <time>2020-05-18T14:41:11Z</time>
      </trkpt>
      <trkpt lat="45.86048" lon="6.34791">
        <ele>830.72</ele>
        <time>2020-05-18T14:41:12Z</time>
      </trkpt>
      <trkpt lat="45.8606" lon="6.34787">
        <ele>829.76</ele>
        <time>2020-05-18T14:41:13Z</time>
      </trkpt>
      <trkpt lat="45.86071" lon="6.34782">
        <ele>829.27</ele>
        <time>2020-05-18T14:41:14Z</time>
      </trkpt>
      <trkpt lat="45.86081" lon="6.34771">
        <ele>828.31</ele>
        <time>2020-05-18T14:41:15Z</time>
      </trkpt>
      <trkpt lat="45.86093" lon="6.34758">
        <ele>826.87</ele>
        <time>2020-05-18T14:41:16Z</time>
      </trkpt>
      <trkpt lat="45.86111" lon="6.34731">
        <ele>824.95</ele>
        <time>2020-05-18T14:41:18Z</time>
      </trkpt>
      <trkpt lat="45.86118" lon="6.34718">
        <ele>823.99</ele>
        <time>2020-05-18T14:41:19Z</time>
      </trkpt>
      <trkpt lat="45.86118" lon="6.34701">
        <ele>823.03</ele>
        <time>2020-05-18T14:41:20Z</time>
      </trkpt>
      <trkpt lat="45.86118" lon="6.34683">
        <ele>822.06</ele>
        <time>2020-05-18T14:41:21Z</time>
      </trkpt>
      <trkpt lat="45.86112" lon="6.34664">
        <ele>820.62</ele>
        <time>2020-05-18T14:41:22Z</time>
      </trkpt>
      <trkpt lat="45.86105" lon="6.34645">
        <ele>819.18</ele>
        <time>2020-05-18T14:41:23Z</time>
      </trkpt>
      <trkpt lat="45.86098" lon="6.34626">
        <ele>817.74</ele>
        <time>2020-05-18T14:41:24Z</time>
      </trkpt>
      <trkpt lat="45.86085" lon="6.34611">
        <ele>816.78</ele>
        <time>2020-05-18T14:41:25Z</time>
      </trkpt>
      <trkpt lat="45.86073" lon="6.34597">
        <ele>815.82</ele>
        <time>2020-05-18T14:41:26Z</time>
      </trkpt>
      <trkpt lat="45.86063" lon="6.34584">
        <ele>814.85</ele>
        <time>2020-05-18T14:41:27Z</time>
      </trkpt>
      <trkpt lat="45.86054" lon="6.34571">
        <ele>813.89</ele>
        <time>2020-05-18T14:41:28Z</time>
      </trkpt>
      <trkpt lat="45.86048" lon="6.34556">
        <ele>812.93</ele>
        <time>2020-05-18T14:41:29Z</time>
      </trkpt>
      <trkpt lat="45.86042" lon="6.34539">
        <ele>811.49</ele>
        <time>2020-05-18T14:41:30Z</time>
      </trkpt>
      <trkpt lat="45.86036" lon="6.34523">
        <ele>810.53</ele>
        <time>2020-05-18T14:41:31Z</time>
      </trkpt>
      <trkpt lat="45.86032" lon="6.34507">
        <ele>809.57</ele>
        <time>2020-05-18T14:41:32Z</time>
      </trkpt>
      <trkpt lat="45.86031" lon="6.34489">
        <ele>808.61</ele>
        <time>2020-05-18T14:41:33Z</time>
      </trkpt>
      <trkpt lat="45.86031" lon="6.34472">
        <ele>807.64</ele>
        <time>2020-05-18T14:41:34Z</time>
      </trkpt>
      <trkpt lat="45.86032" lon="6.34455">
        <ele>806.68</ele>
        <time>2020-05-18T14:41:35Z</time>
      </trkpt>
      <trkpt lat="45.86036" lon="6.34437">
        <ele>805.24</ele>
        <time>2020-05-18T14:41:37Z</time>
      </trkpt>
      <trkpt lat="45.86042" lon="6.34403">
        <ele>804.28</ele>
        <time>2020-05-18T14:41:38Z</time>
      </trkpt>
      <trkpt lat="45.86039" lon="6.34383">
        <ele>803.8</ele>
        <time>2020-05-18T14:41:39Z</time>
      </trkpt>
      <trkpt lat="45.86031" lon="6.34367">
        <ele>802.84</ele>
        <time>2020-05-18T14:41:40Z</time>
      </trkpt>
      <trkpt lat="45.86014" lon="6.34342">
        <ele>801.4</ele>
        <time>2020-05-18T14:41:42Z</time>
      </trkpt>
      <trkpt lat="45.86011" lon="6.34327">
        <ele>800.92</ele>
        <time>2020-05-18T14:41:43Z</time>
      </trkpt>
      <trkpt lat="45.86009" lon="6.34309">
        <ele>800.44</ele>
        <time>2020-05-18T14:41:44Z</time>
      </trkpt>
      <trkpt lat="45.86012" lon="6.34292">
        <ele>799.47</ele>
        <time>2020-05-18T14:41:45Z</time>
      </trkpt>
      <trkpt lat="45.86017" lon="6.34274">
        <ele>798.51</ele>
        <time>2020-05-18T14:41:46Z</time>
      </trkpt>
      <trkpt lat="45.86024" lon="6.34254">
        <ele>797.55</ele>
        <time>2020-05-18T14:41:47Z</time>
      </trkpt>
      <trkpt lat="45.8603" lon="6.34233">
        <ele>796.11</ele>
        <time>2020-05-18T14:41:48Z</time>
      </trkpt>
      <trkpt lat="45.86043" lon="6.34201">
        <ele>792.74</ele>
        <time>2020-05-18T14:41:51Z</time>
      </trkpt>
      <trkpt lat="45.86046" lon="6.34168">
        <ele>791.3</ele>
        <time>2020-05-18T14:41:52Z</time>
      </trkpt>
      <trkpt lat="45.86041" lon="6.3415">
        <ele>790.34</ele>
        <time>2020-05-18T14:41:53Z</time>
      </trkpt>
      <trkpt lat="45.8603" lon="6.34132">
        <ele>788.9</ele>
        <time>2020-05-18T14:41:54Z</time>
      </trkpt>
      <trkpt lat="45.86006" lon="6.34098">
        <ele>786.5</ele>
        <time>2020-05-18T14:41:56Z</time>
      </trkpt>
      <trkpt lat="45.8599" lon="6.34074">
        <ele>784.57</ele>
        <time>2020-05-18T14:41:58Z</time>
      </trkpt>
      <trkpt lat="45.85982" lon="6.3405">
        <ele>784.09</ele>
        <time>2020-05-18T14:41:59Z</time>
      </trkpt>
      <trkpt lat="45.85977" lon="6.34031">
        <ele>783.13</ele>
        <time>2020-05-18T14:42:00Z</time>
      </trkpt>
      <trkpt lat="45.85977" lon="6.34018">
        <ele>782.17</ele>
        <time>2020-05-18T14:42:01Z</time>
      </trkpt>
      <trkpt lat="45.85978" lon="6.33999">
        <ele>781.69</ele>
        <time>2020-05-18T14:42:02Z</time>
      </trkpt>
      <trkpt lat="45.85977" lon="6.33979">
        <ele>780.73</ele>
        <time>2020-05-18T14:42:03Z</time>
      </trkpt>
      <trkpt lat="45.85975" lon="6.33959">
        <ele>779.77</ele>
        <time>2020-05-18T14:42:04Z</time>
      </trkpt>
      <trkpt lat="45.85972" lon="6.3394">
        <ele>778.81</ele>
        <time>2020-05-18T14:42:05Z</time>
      </trkpt>
      <trkpt lat="45.85972" lon="6.33923">
        <ele>778.32</ele>
        <time>2020-05-18T14:42:06Z</time>
      </trkpt>
      <trkpt lat="45.85975" lon="6.33904">
        <ele>777.36</ele>
        <time>2020-05-18T14:42:07Z</time>
      </trkpt>
      <trkpt lat="45.85979" lon="6.33884">
        <ele>776.4</ele>
        <time>2020-05-18T14:42:08Z</time>
      </trkpt>
      <trkpt lat="45.85983" lon="6.33865">
        <ele>775.44</ele>
        <time>2020-05-18T14:42:09Z</time>
      </trkpt>
      <trkpt lat="45.85982" lon="6.33847">
        <ele>774.96</ele>
        <time>2020-05-18T14:42:10Z</time>
      </trkpt>
      <trkpt lat="45.85982" lon="6.33828">
        <ele>774.48</ele>
        <time>2020-05-18T14:42:11Z</time>
      </trkpt>
      <trkpt lat="45.85976" lon="6.3381">
        <ele>773.52</ele>
        <time>2020-05-18T14:42:12Z</time>
      </trkpt>
      <trkpt lat="45.85968" lon="6.33798">
        <ele>772.08</ele>
        <time>2020-05-18T14:42:13Z</time>
      </trkpt>
      <trkpt lat="45.8596" lon="6.33787">
        <ele>770.15</ele>
        <time>2020-05-18T14:42:15Z</time>
      </trkpt>
      <trkpt lat="45.85952" lon="6.33767">
        <ele>768.71</ele>
        <time>2020-05-18T14:42:16Z</time>
      </trkpt>
      <trkpt lat="45.8595" lon="6.33754">
        <ele>767.75</ele>
        <time>2020-05-18T14:42:17Z</time>
      </trkpt>
      <trkpt lat="45.85955" lon="6.33722">
        <ele>765.35</ele>
        <time>2020-05-18T14:42:19Z</time>
      </trkpt>
      <trkpt lat="45.8596" lon="6.33702">
        <ele>763.9</ele>
        <time>2020-05-18T14:42:20Z</time>
      </trkpt>
      <trkpt lat="45.85966" lon="6.3368">
        <ele>762.94</ele>
        <time>2020-05-18T14:42:21Z</time>
      </trkpt>
      <trkpt lat="45.8598" lon="6.33635">
        <ele>759.1</ele>
        <time>2020-05-18T14:42:24Z</time>
      </trkpt>
      <trkpt lat="45.86009" lon="6.33582">
        <ele>756.69</ele>
        <time>2020-05-18T14:42:26Z</time>
      </trkpt>
      <trkpt lat="45.86013" lon="6.33562">
        <ele>755.25</ele>
        <time>2020-05-18T14:42:27Z</time>
      </trkpt>
      <trkpt lat="45.86013" lon="6.3354">
        <ele>753.81</ele>
        <time>2020-05-18T14:42:28Z</time>
      </trkpt>
      <trkpt lat="45.86014" lon="6.33487">
        <ele>750.93</ele>
        <time>2020-05-18T14:42:30Z</time>
      </trkpt>
      <trkpt lat="45.86019" lon="6.3346">
        <ele>749.49</ele>
        <time>2020-05-18T14:42:31Z</time>
      </trkpt>
      <trkpt lat="45.8603" lon="6.33404">
        <ele>747.08</ele>
        <time>2020-05-18T14:42:33Z</time>
      </trkpt>
      <trkpt lat="45.86035" lon="6.33377">
        <ele>745.64</ele>
        <time>2020-05-18T14:42:34Z</time>
      </trkpt>
      <trkpt lat="45.86039" lon="6.33352">
        <ele>744.2</ele>
        <time>2020-05-18T14:42:35Z</time>
      </trkpt>
      <trkpt lat="45.8606" lon="6.33238">
        <ele>737.95</ele>
        <time>2020-05-18T14:42:40Z</time>
      </trkpt>
      <trkpt lat="45.86068" lon="6.33219">
        <ele>736.51</ele>
        <time>2020-05-18T14:42:41Z</time>
      </trkpt>
      <trkpt lat="45.86077" lon="6.33202">
        <ele>735.55</ele>
        <time>2020-05-18T14:42:42Z</time>
      </trkpt>
      <trkpt lat="45.86088" lon="6.33185">
        <ele>734.1</ele>
        <time>2020-05-18T14:42:43Z</time>
      </trkpt>
      <trkpt lat="45.86101" lon="6.33168">
        <ele>733.14</ele>
        <time>2020-05-18T14:42:44Z</time>
      </trkpt>
      <trkpt lat="45.86115" lon="6.33151">
        <ele>731.7</ele>
        <time>2020-05-18T14:42:45Z</time>
      </trkpt>
      <trkpt lat="45.86221" lon="6.33012">
        <ele>720.65</ele>
        <time>2020-05-18T14:42:52Z</time>
      </trkpt>
      <trkpt lat="45.86271" lon="6.32934">
        <ele>714.4</ele>
        <time>2020-05-18T14:42:56Z</time>
      </trkpt>
      <trkpt lat="45.86287" lon="6.32921">
        <ele>712.47</ele>
        <time>2020-05-18T14:42:57Z</time>
      </trkpt>
      <trkpt lat="45.86302" lon="6.3291">
        <ele>710.55</ele>
        <time>2020-05-18T14:42:58Z</time>
      </trkpt>
      <trkpt lat="45.86342" lon="6.32878">
        <ele>706.23</ele>
        <time>2020-05-18T14:43:01Z</time>
      </trkpt>
      <trkpt lat="45.86353" lon="6.32862">
        <ele>705.26</ele>
        <time>2020-05-18T14:43:02Z</time>
      </trkpt>
      <trkpt lat="45.86374" lon="6.32825">
        <ele>702.38</ele>
        <time>2020-05-18T14:43:04Z</time>
      </trkpt>
      <trkpt lat="45.86385" lon="6.32807">
        <ele>700.94</ele>
        <time>2020-05-18T14:43:05Z</time>
      </trkpt>
      <trkpt lat="45.86398" lon="6.3279">
        <ele>699.02</ele>
        <time>2020-05-18T14:43:06Z</time>
      </trkpt>
      <trkpt lat="45.86416" lon="6.32779">
        <ele>697.09</ele>
        <time>2020-05-18T14:43:07Z</time>
      </trkpt>
      <trkpt lat="45.86435" lon="6.32766">
        <ele>694.69</ele>
        <time>2020-05-18T14:43:08Z</time>
      </trkpt>
      <trkpt lat="45.86507" lon="6.32714">
        <ele>687.48</ele>
        <time>2020-05-18T14:43:12Z</time>
      </trkpt>
      <trkpt lat="45.86522" lon="6.32698">
        <ele>686.04</ele>
        <time>2020-05-18T14:43:13Z</time>
      </trkpt>
      <trkpt lat="45.86536" lon="6.3268">
        <ele>684.12</ele>
        <time>2020-05-18T14:43:14Z</time>
      </trkpt>
      <trkpt lat="45.86614" lon="6.32577">
        <ele>673.06</ele>
        <time>2020-05-18T14:43:20Z</time>
      </trkpt>
      <trkpt lat="45.86629" lon="6.32566">
        <ele>671.14</ele>
        <time>2020-05-18T14:43:21Z</time>
      </trkpt>
      <trkpt lat="45.86644" lon="6.32555">
        <ele>669.7</ele>
        <time>2020-05-18T14:43:22Z</time>
      </trkpt>
      <trkpt lat="45.86657" lon="6.32546">
        <ele>668.25</ele>
        <time>2020-05-18T14:43:23Z</time>
      </trkpt>
      <trkpt lat="45.86674" lon="6.32544">
        <ele>666.81</ele>
        <time>2020-05-18T14:43:24Z</time>
      </trkpt>
      <trkpt lat="45.8669" lon="6.32542">
        <ele>665.37</ele>
        <time>2020-05-18T14:43:25Z</time>
      </trkpt>
      <trkpt lat="45.86708" lon="6.32541">
        <ele>664.41</ele>
        <time>2020-05-18T14:43:26Z</time>
      </trkpt>
      <trkpt lat="45.86727" lon="6.32541">
        <ele>662.97</ele>
        <time>2020-05-18T14:43:27Z</time>
      </trkpt>
      <trkpt lat="45.86745" lon="6.32537">
        <ele>661.04</ele>
        <time>2020-05-18T14:43:28Z</time>
      </trkpt>
      <trkpt lat="45.86797" lon="6.32516">
        <ele>657.2</ele>
        <time>2020-05-18T14:43:31Z</time>
      </trkpt>
      <trkpt lat="45.86891" lon="6.32481">
        <ele>645.66</ele>
        <time>2020-05-18T14:43:38Z</time>
      </trkpt>
      <trkpt lat="45.86959" lon="6.32437">
        <ele>637.97</ele>
        <time>2020-05-18T14:43:45Z</time>
      </trkpt>
      <trkpt lat="45.8696" lon="6.32428">
        <ele>637.49</ele>
        <time>2020-05-18T14:43:46Z</time>
      </trkpt>
      <trkpt lat="45.8696" lon="6.32424">
        <ele>637.49</ele>
        <time>2020-05-18T14:43:47Z</time>
      </trkpt>
      <trkpt lat="45.86961" lon="6.32421">
        <ele>637.01</ele>
        <time>2020-05-18T14:43:48Z</time>
      </trkpt>
      <trkpt lat="45.86961" lon="6.32419">
        <ele>637.01</ele>
        <time>2020-05-18T14:43:49Z</time>
      </trkpt>
      <trkpt lat="45.86961" lon="6.32417">
        <ele>637.01</ele>
        <time>2020-05-18T14:43:50Z</time>
      </trkpt>
      <trkpt lat="45.86966" lon="6.32403">
        <ele>636.53</ele>
        <time>2020-05-18T14:43:52Z</time>
      </trkpt>
      <trkpt lat="45.8697" lon="6.32401">
        <ele>636.53</ele>
        <time>2020-05-18T14:43:53Z</time>
      </trkpt>
      <trkpt lat="45.86983" lon="6.32395">
        <ele>636.53</ele>
        <time>2020-05-18T14:43:54Z</time>
      </trkpt>
      <trkpt lat="45.87076" lon="6.32353">
        <ele>637.01</ele>
        <time>2020-05-18T14:44:04Z</time>
      </trkpt>
      <trkpt lat="45.87119" lon="6.32336">
        <ele>637.01</ele>
        <time>2020-05-18T14:44:08Z</time>
      </trkpt>
      <trkpt lat="45.87203" lon="6.32315">
        <ele>634.61</ele>
        <time>2020-05-18T14:44:16Z</time>
      </trkpt>
      <trkpt lat="45.8735" lon="6.32305">
        <ele>629.32</ele>
        <time>2020-05-18T14:44:28Z</time>
      </trkpt>
      <trkpt lat="45.87486" lon="6.32347">
        <ele>626.44</ele>
        <time>2020-05-18T14:44:40Z</time>
      </trkpt>
      <trkpt lat="45.87555" lon="6.32368">
        <ele>627.4</ele>
        <time>2020-05-18T14:44:46Z</time>
      </trkpt>
      <trkpt lat="45.87626" lon="6.32391">
        <ele>630.28</ele>
        <time>2020-05-18T14:44:52Z</time>
      </trkpt>
      <trkpt lat="45.87638" lon="6.32394">
        <ele>630.28</ele>
        <time>2020-05-18T14:44:53Z</time>
      </trkpt>
      <trkpt lat="45.87649" lon="6.32398">
        <ele>630.28</ele>
        <time>2020-05-18T14:44:54Z</time>
      </trkpt>
      <trkpt lat="45.87742" lon="6.32426">
        <ele>631.24</ele>
        <time>2020-05-18T14:45:05Z</time>
      </trkpt>
      <trkpt lat="45.87766" lon="6.32432">
        <ele>630.76</ele>
        <time>2020-05-18T14:45:08Z</time>
      </trkpt>
      <trkpt lat="45.87774" lon="6.32434">
        <ele>630.28</ele>
        <time>2020-05-18T14:45:10Z</time>
      </trkpt>
      <trkpt lat="45.8783" lon="6.32449">
        <ele>629.32</ele>
        <time>2020-05-18T14:45:15Z</time>
      </trkpt>
      <trkpt lat="45.87839" lon="6.32452">
        <ele>628.84</ele>
        <time>2020-05-18T14:45:16Z</time>
      </trkpt>
      <trkpt lat="45.8788" lon="6.32466">
        <ele>627.4</ele>
        <time>2020-05-18T14:45:21Z</time>
      </trkpt>
      <trkpt lat="45.87888" lon="6.32468">
        <ele>627.4</ele>
        <time>2020-05-18T14:45:22Z</time>
      </trkpt>
      <trkpt lat="45.87894" lon="6.3247">
        <ele>627.4</ele>
        <time>2020-05-18T14:45:23Z</time>
      </trkpt>
      <trkpt lat="45.87901" lon="6.32473">
        <ele>627.88</ele>
        <time>2020-05-18T14:45:24Z</time>
      </trkpt>
      <trkpt lat="45.87906" lon="6.32476">
        <ele>627.88</ele>
        <time>2020-05-18T14:45:25Z</time>
      </trkpt>
      <trkpt lat="45.87911" lon="6.3248">
        <ele>628.36</ele>
        <time>2020-05-18T14:45:26Z</time>
      </trkpt>
      <trkpt lat="45.87914" lon="6.32482">
        <ele>628.84</ele>
        <time>2020-05-18T14:45:28Z</time>
      </trkpt>
      <trkpt lat="45.87957" lon="6.32546">
        <ele>629.32</ele>
        <time>2020-05-18T14:45:35Z</time>
      </trkpt>
      <trkpt lat="45.87963" lon="6.32552">
        <ele>629.32</ele>
        <time>2020-05-18T14:45:36Z</time>
      </trkpt>
      <trkpt lat="45.87969" lon="6.32557">
        <ele>628.84</ele>
        <time>2020-05-18T14:45:37Z</time>
      </trkpt>
      <trkpt lat="45.87975" lon="6.32563">
        <ele>628.84</ele>
        <time>2020-05-18T14:45:38Z</time>
      </trkpt>
      <trkpt lat="45.8798" lon="6.32568">
        <ele>628.84</ele>
        <time>2020-05-18T14:45:39Z</time>
      </trkpt>
      <trkpt lat="45.87987" lon="6.32574">
        <ele>628.36</ele>
        <time>2020-05-18T14:45:40Z</time>
      </trkpt>
      <trkpt lat="45.88016" lon="6.32587">
        <ele>627.4</ele>
        <time>2020-05-18T14:45:44Z</time>
      </trkpt>
      <trkpt lat="45.88094" lon="6.32613">
        <ele>623.07</ele>
        <time>2020-05-18T14:45:53Z</time>
      </trkpt>
      <trkpt lat="45.88119" lon="6.3262">
        <ele>623.55</ele>
        <time>2020-05-18T14:45:56Z</time>
      </trkpt>
      <trkpt lat="45.88126" lon="6.32623">
        <ele>623.55</ele>
        <time>2020-05-18T14:45:57Z</time>
      </trkpt>
      <trkpt lat="45.88213" lon="6.32652">
        <ele>625.47</ele>
        <time>2020-05-18T14:46:07Z</time>
      </trkpt>
      <trkpt lat="45.88251" lon="6.32662">
        <ele>625.47</ele>
        <time>2020-05-18T14:46:12Z</time>
      </trkpt>
      <trkpt lat="45.88269" lon="6.32659">
        <ele>625.47</ele>
        <time>2020-05-18T14:46:16Z</time>
      </trkpt>
      <trkpt lat="45.88274" lon="6.32658">
        <ele>625.47</ele>
        <time>2020-05-18T14:46:17Z</time>
      </trkpt>
      <trkpt lat="45.88278" lon="6.32657">
        <ele>625.96</ele>
        <time>2020-05-18T14:46:18Z</time>
      </trkpt>
      <trkpt lat="45.88282" lon="6.32656">
        <ele>625.96</ele>
        <time>2020-05-18T14:46:19Z</time>
      </trkpt>
      <trkpt lat="45.88283" lon="6.32656">
        <ele>625.96</ele>
        <time>2020-05-18T14:46:20Z</time>
      </trkpt>
      <trkpt lat="45.88289" lon="6.32656">
        <ele>625.47</ele>
        <time>2020-05-18T14:46:21Z</time>
      </trkpt>
      <trkpt lat="45.88293" lon="6.32652">
        <ele>625.47</ele>
        <time>2020-05-18T14:46:22Z</time>
      </trkpt>
      <trkpt lat="45.88296" lon="6.32647">
        <ele>625.47</ele>
        <time>2020-05-18T14:46:23Z</time>
      </trkpt>
      <trkpt lat="45.88294" lon="6.32641">
        <ele>625.47</ele>
        <time>2020-05-18T14:46:24Z</time>
      </trkpt>
      <trkpt lat="45.88292" lon="6.32637">
        <ele>624.51</ele>
        <time>2020-05-18T14:46:26Z</time>
      </trkpt>
      <trkpt lat="45.88292" lon="6.32637">
        <ele>624.03</ele>
        <time>2020-05-18T14:46:27Z</time>
      </trkpt>
      <trkpt lat="45.88281" lon="6.32628">
        <ele>623.55</ele>
        <time>2020-05-18T14:46:28Z</time>
      </trkpt>
      <trkpt lat="45.88279" lon="6.32619">
        <ele>623.07</ele>
        <time>2020-05-18T14:46:29Z</time>
      </trkpt>
      <trkpt lat="45.88274" lon="6.32601">
        <ele>623.07</ele>
        <time>2020-05-18T14:46:30Z</time>
      </trkpt>
      <trkpt lat="45.88271" lon="6.3259">
        <ele>622.59</ele>
        <time>2020-05-18T14:46:31Z</time>
      </trkpt>
      <trkpt lat="45.88268" lon="6.3258">
        <ele>622.59</ele>
        <time>2020-05-18T14:46:32Z</time>
      </trkpt>
      <trkpt lat="45.88265" lon="6.32571">
        <ele>623.07</ele>
        <time>2020-05-18T14:46:33Z</time>
      </trkpt>
      <trkpt lat="45.88263" lon="6.32563">
        <ele>623.07</ele>
        <time>2020-05-18T14:46:34Z</time>
      </trkpt>
      <trkpt lat="45.8826" lon="6.32555">
        <ele>623.07</ele>
        <time>2020-05-18T14:46:35Z</time>
      </trkpt>
      <trkpt lat="45.88258" lon="6.32548">
        <ele>623.55</ele>
        <time>2020-05-18T14:46:36Z</time>
      </trkpt>
      <trkpt lat="45.88255" lon="6.32541">
        <ele>623.55</ele>
        <time>2020-05-18T14:46:37Z</time>
      </trkpt>
      <trkpt lat="45.88253" lon="6.32534">
        <ele>623.55</ele>
        <time>2020-05-18T14:46:38Z</time>
      </trkpt>
      <trkpt lat="45.88242" lon="6.32503">
        <ele>624.99</ele>
        <time>2020-05-18T14:46:44Z</time>
      </trkpt>
      <trkpt lat="45.88236" lon="6.32491">
        <ele>625.47</ele>
        <time>2020-05-18T14:46:46Z</time>
      </trkpt>
      <trkpt lat="45.88226" lon="6.32479">
        <ele>625.47</ele>
        <time>2020-05-18T14:46:48Z</time>
      </trkpt>
      <trkpt lat="45.88218" lon="6.32467">
        <ele>625.96</ele>
        <time>2020-05-18T14:46:49Z</time>
      </trkpt>
      <trkpt lat="45.88215" lon="6.32463">
        <ele>625.96</ele>
        <time>2020-05-18T14:46:50Z</time>
      </trkpt>
      <trkpt lat="45.88204" lon="6.32455">
        <ele>626.44</ele>
        <time>2020-05-18T14:46:52Z</time>
      </trkpt>
      <trkpt lat="45.8819" lon="6.32444">
        <ele>626.92</ele>
        <time>2020-05-18T14:46:55Z</time>
      </trkpt>
      <trkpt lat="45.88184" lon="6.32438">
        <ele>627.4</ele>
        <time>2020-05-18T14:46:56Z</time>
      </trkpt>
      <trkpt lat="45.88181" lon="6.3243">
        <ele>627.88</ele>
        <time>2020-05-18T14:46:57Z</time>
      </trkpt>
      <trkpt lat="45.88178" lon="6.32419">
        <ele>627.88</ele>
        <time>2020-05-18T14:46:58Z</time>
      </trkpt>
      <trkpt lat="45.88179" lon="6.32407">
        <ele>628.84</ele>
        <time>2020-05-18T14:46:59Z</time>
      </trkpt>
      <trkpt lat="45.88182" lon="6.32399">
        <ele>629.32</ele>
        <time>2020-05-18T14:47:00Z</time>
      </trkpt>
      <trkpt lat="45.88185" lon="6.3239">
        <ele>629.8</ele>
        <time>2020-05-18T14:47:01Z</time>
      </trkpt>
      <trkpt lat="45.88189" lon="6.32382">
        <ele>630.28</ele>
        <time>2020-05-18T14:47:02Z</time>
      </trkpt>
      <trkpt lat="45.88194" lon="6.32372">
        <ele>630.28</ele>
        <time>2020-05-18T14:47:03Z</time>
      </trkpt>
      <trkpt lat="45.88218" lon="6.32334">
        <ele>630.76</ele>
        <time>2020-05-18T14:47:07Z</time>
      </trkpt>
      <trkpt lat="45.88258" lon="6.32272">
        <ele>630.76</ele>
        <time>2020-05-18T14:47:15Z</time>
      </trkpt>
      <trkpt lat="45.8828" lon="6.32272">
        <ele>628.84</ele>
        <time>2020-05-18T14:47:23Z</time>
      </trkpt>
      <trkpt lat="45.88285" lon="6.32267">
        <ele>628.84</ele>
        <time>2020-05-18T14:47:24Z</time>
      </trkpt>
      <trkpt lat="45.8829" lon="6.3226">
        <ele>628.36</ele>
        <time>2020-05-18T14:47:26Z</time>
      </trkpt>
      <trkpt lat="45.88289" lon="6.32233">
        <ele>627.88</ele>
        <time>2020-05-18T14:47:28Z</time>
      </trkpt>
      <trkpt lat="45.88295" lon="6.32224">
        <ele>627.4</ele>
        <time>2020-05-18T14:47:29Z</time>
      </trkpt>
      <trkpt lat="45.88301" lon="6.32214">
        <ele>627.4</ele>
        <time>2020-05-18T14:47:30Z</time>
      </trkpt>
      <trkpt lat="45.88346" lon="6.32141">
        <ele>625.47</ele>
        <time>2020-05-18T14:47:36Z</time>
      </trkpt>
      <trkpt lat="45.88354" lon="6.32129">
        <ele>625.47</ele>
        <time>2020-05-18T14:47:38Z</time>
      </trkpt>
      <trkpt lat="45.88438" lon="6.31993">
        <ele>625.96</ele>
        <time>2020-05-18T14:47:47Z</time>
      </trkpt>
      <trkpt lat="45.88526" lon="6.31821">
        <ele>623.55</ele>
        <time>2020-05-18T14:47:59Z</time>
      </trkpt>
      <trkpt lat="45.88587" lon="6.31679">
        <ele>621.15</ele>
        <time>2020-05-18T14:48:09Z</time>
      </trkpt>
      <trkpt lat="45.88658" lon="6.3153">
        <ele>616.34</ele>
        <time>2020-05-18T14:48:19Z</time>
      </trkpt>
      <trkpt lat="45.88761" lon="6.31408">
        <ele>610.09</ele>
        <time>2020-05-18T14:48:30Z</time>
      </trkpt>
      <trkpt lat="45.88872" lon="6.31282">
        <ele>605.29</ele>
        <time>2020-05-18T14:48:41Z</time>
      </trkpt>
      <trkpt lat="45.88967" lon="6.31176">
        <ele>603.36</ele>
        <time>2020-05-18T14:48:51Z</time>
      </trkpt>
      <trkpt lat="45.89028" lon="6.31106">
        <ele>601.92</ele>
        <time>2020-05-18T14:49:00Z</time>
      </trkpt>
      <trkpt lat="45.89138" lon="6.3098">
        <ele>600.96</ele>
        <time>2020-05-18T14:49:10Z</time>
      </trkpt>
      <trkpt lat="45.89229" lon="6.30853">
        <ele>601.92</ele>
        <time>2020-05-18T14:49:17Z</time>
      </trkpt>
      <trkpt lat="45.89297" lon="6.30713">
        <ele>600.48</ele>
        <time>2020-05-18T14:49:24Z</time>
      </trkpt>
      <trkpt lat="45.89365" lon="6.30563">
        <ele>598.56</ele>
        <time>2020-05-18T14:49:33Z</time>
      </trkpt>
      <trkpt lat="45.89374" lon="6.30544">
        <ele>597.6</ele>
        <time>2020-05-18T14:49:35Z</time>
      </trkpt>
      <trkpt lat="45.89384" lon="6.30542">
        <ele>597.12</ele>
        <time>2020-05-18T14:49:36Z</time>
      </trkpt>
      <trkpt lat="45.89389" lon="6.30538">
        <ele>596.64</ele>
        <time>2020-05-18T14:49:37Z</time>
      </trkpt>
      <trkpt lat="45.89396" lon="6.30529">
        <ele>596.15</ele>
        <time>2020-05-18T14:49:38Z</time>
      </trkpt>
      <trkpt lat="45.89398" lon="6.3052">
        <ele>595.67</ele>
        <time>2020-05-18T14:49:39Z</time>
      </trkpt>
      <trkpt lat="45.89399" lon="6.30517">
        <ele>595.19</ele>
        <time>2020-05-18T14:49:40Z</time>
      </trkpt>
      <trkpt lat="45.89399" lon="6.30484">
        <ele>594.23</ele>
        <time>2020-05-18T14:49:42Z</time>
      </trkpt>
      <trkpt lat="45.89404" lon="6.30472">
        <ele>593.75</ele>
        <time>2020-05-18T14:49:44Z</time>
      </trkpt>
      <trkpt lat="45.89462" lon="6.30335">
        <ele>591.83</ele>
        <time>2020-05-18T14:49:52Z</time>
      </trkpt>
      <trkpt lat="45.89551" lon="6.30136">
        <ele>593.27</ele>
        <time>2020-05-18T14:50:03Z</time>
      </trkpt>
      <trkpt lat="45.89644" lon="6.29926">
        <ele>593.75</ele>
        <time>2020-05-18T14:50:13Z</time>
      </trkpt>
      <trkpt lat="45.89783" lon="6.29609">
        <ele>584.14</ele>
        <time>2020-05-18T14:50:27Z</time>
      </trkpt>
      <trkpt lat="45.89875" lon="6.29444">
        <ele>580.77</ele>
        <time>2020-05-18T14:50:35Z</time>
      </trkpt>
      <trkpt lat="45.89929" lon="6.29307">
        <ele>579.33</ele>
        <time>2020-05-18T14:50:42Z</time>
      </trkpt>
      <trkpt lat="45.8994" lon="6.29156">
        <ele>577.89</ele>
        <time>2020-05-18T14:50:49Z</time>
      </trkpt>
      <trkpt lat="45.89938" lon="6.29134">
        <ele>577.89</ele>
        <time>2020-05-18T14:50:51Z</time>
      </trkpt>
      <trkpt lat="45.89895" lon="6.28887">
        <ele>575.01</ele>
        <time>2020-05-18T14:51:01Z</time>
      </trkpt>
      <trkpt lat="45.89875" lon="6.28661">
        <ele>569.72</ele>
        <time>2020-05-18T14:51:10Z</time>
      </trkpt>
      <trkpt lat="45.89854" lon="6.28405">
        <ele>565.87</ele>
        <time>2020-05-18T14:51:19Z</time>
      </trkpt>
      <trkpt lat="45.89835" lon="6.28244">
        <ele>564.43</ele>
        <time>2020-05-18T14:51:25Z</time>
      </trkpt>
      <trkpt lat="45.89764" lon="6.28025">
        <ele>564.91</ele>
        <time>2020-05-18T14:51:34Z</time>
      </trkpt>
      <trkpt lat="45.89705" lon="6.27827">
        <ele>563.47</ele>
        <time>2020-05-18T14:51:41Z</time>
      </trkpt>
      <trkpt lat="45.89655" lon="6.27652">
        <ele>560.59</ele>
        <time>2020-05-18T14:51:45Z</time>
      </trkpt>
      <trkpt lat="45.89587" lon="6.27407">
        <ele>556.74</ele>
        <time>2020-05-18T14:51:51Z</time>
      </trkpt>
      <trkpt lat="45.89525" lon="6.2719">
        <ele>554.34</ele>
        <time>2020-05-18T14:51:58Z</time>
      </trkpt>
      <trkpt lat="45.89455" lon="6.26975">
        <ele>551.45</ele>
        <time>2020-05-18T14:52:06Z</time>
      </trkpt>
      <trkpt lat="45.89431" lon="6.26899">
        <ele>551.45</ele>
        <time>2020-05-18T14:52:09Z</time>
      </trkpt>
      <trkpt lat="45.89385" lon="6.26644">
        <ele>550.49</ele>
        <time>2020-05-18T14:52:19Z</time>
      </trkpt>
      <trkpt lat="45.89378" lon="6.26471">
        <ele>550.01</ele>
        <time>2020-05-18T14:52:27Z</time>
      </trkpt>
      <trkpt lat="45.89384" lon="6.2632">
        <ele>551.93</ele>
        <time>2020-05-18T14:52:34Z</time>
      </trkpt>
      <trkpt lat="45.89381" lon="6.2628">
        <ele>551.45</ele>
        <time>2020-05-18T14:52:36Z</time>
      </trkpt>
      <trkpt lat="45.89379" lon="6.26259">
        <ele>550.49</ele>
        <time>2020-05-18T14:52:37Z</time>
      </trkpt>
      <trkpt lat="45.89345" lon="6.26091">
        <ele>542.8</ele>
        <time>2020-05-18T14:52:44Z</time>
      </trkpt>
      <trkpt lat="45.89253" lon="6.25858">
        <ele>538.96</ele>
        <time>2020-05-18T14:52:54Z</time>
      </trkpt>
      <trkpt lat="45.89193" lon="6.25645">
        <ele>537.99</ele>
        <time>2020-05-18T14:53:03Z</time>
      </trkpt>
      <trkpt lat="45.89169" lon="6.25417">
        <ele>537.99</ele>
        <time>2020-05-18T14:53:12Z</time>
      </trkpt>
      <trkpt lat="45.89164" lon="6.25283">
        <ele>537.03</ele>
        <time>2020-05-18T14:53:19Z</time>
      </trkpt>
      <trkpt lat="45.89171" lon="6.25176">
        <ele>538.96</ele>
        <time>2020-05-18T14:53:26Z</time>
      </trkpt>
      <trkpt lat="45.89174" lon="6.25163">
        <ele>539.92</ele>
        <time>2020-05-18T14:53:28Z</time>
      </trkpt>
      <trkpt lat="45.89188" lon="6.25153">
        <ele>540.4</ele>
        <time>2020-05-18T14:53:29Z</time>
      </trkpt>
      <trkpt lat="45.89193" lon="6.2514">
        <ele>540.88</ele>
        <time>2020-05-18T14:53:30Z</time>
      </trkpt>
      <trkpt lat="45.89193" lon="6.25128">
        <ele>540.88</ele>
        <time>2020-05-18T14:53:31Z</time>
      </trkpt>
      <trkpt lat="45.8919" lon="6.25114">
        <ele>541.36</ele>
        <time>2020-05-18T14:53:32Z</time>
      </trkpt>
      <trkpt lat="45.89185" lon="6.25103">
        <ele>541.84</ele>
        <time>2020-05-18T14:53:34Z</time>
      </trkpt>
      <trkpt lat="45.89185" lon="6.25089">
        <ele>541.84</ele>
        <time>2020-05-18T14:53:35Z</time>
      </trkpt>
      <trkpt lat="45.89186" lon="6.25056">
        <ele>541.84</ele>
        <time>2020-05-18T14:53:36Z</time>
      </trkpt>
      <trkpt lat="45.89221" lon="6.249">
        <ele>542.8</ele>
        <time>2020-05-18T14:53:43Z</time>
      </trkpt>
      <trkpt lat="45.89287" lon="6.24709">
        <ele>543.76</ele>
        <time>2020-05-18T14:53:50Z</time>
      </trkpt>
      <trkpt lat="45.89392" lon="6.24395">
        <ele>543.28</ele>
        <time>2020-05-18T14:54:01Z</time>
      </trkpt>
      <trkpt lat="45.89441" lon="6.24198">
        <ele>542.8</ele>
        <time>2020-05-18T14:54:08Z</time>
      </trkpt>
      <trkpt lat="45.89456" lon="6.2397">
        <ele>543.28</ele>
        <time>2020-05-18T14:54:16Z</time>
      </trkpt>
      <trkpt lat="45.89477" lon="6.23747">
        <ele>540.4</ele>
        <time>2020-05-18T14:54:23Z</time>
      </trkpt>
      <trkpt lat="45.89558" lon="6.23289">
        <ele>533.19</ele>
        <time>2020-05-18T14:54:36Z</time>
      </trkpt>
      <trkpt lat="45.89642" lon="6.2284">
        <ele>528.38</ele>
        <time>2020-05-18T14:54:48Z</time>
      </trkpt>
      <trkpt lat="45.89715" lon="6.22427">
        <ele>523.58</ele>
        <time>2020-05-18T14:54:59Z</time>
      </trkpt>
      <trkpt lat="45.89783" lon="6.22051">
        <ele>518.77</ele>
        <time>2020-05-18T14:55:11Z</time>
      </trkpt>
      <trkpt lat="45.89848" lon="6.21693">
        <ele>518.77</ele>
        <time>2020-05-18T14:55:24Z</time>
      </trkpt>
      <trkpt lat="45.899" lon="6.21415">
        <ele>517.81</ele>
        <time>2020-05-18T14:55:34Z</time>
      </trkpt>
      <trkpt lat="45.89909" lon="6.2139">
        <ele>518.29</ele>
        <time>2020-05-18T14:55:35Z</time>
      </trkpt>
      <trkpt lat="45.8992" lon="6.21366">
        <ele>518.29</ele>
        <time>2020-05-18T14:55:36Z</time>
      </trkpt>
      <trkpt lat="45.89933" lon="6.21344">
        <ele>518.77</ele>
        <time>2020-05-18T14:55:37Z</time>
      </trkpt>
      <trkpt lat="45.8995" lon="6.21327">
        <ele>519.25</ele>
        <time>2020-05-18T14:55:38Z</time>
      </trkpt>
      <trkpt lat="45.89967" lon="6.2131">
        <ele>519.25</ele>
        <time>2020-05-18T14:55:39Z</time>
      </trkpt>
      <trkpt lat="45.89985" lon="6.21297">
        <ele>519.73</ele>
        <time>2020-05-18T14:55:40Z</time>
      </trkpt>
      <trkpt lat="45.90044" lon="6.21247">
        <ele>520.69</ele>
        <time>2020-05-18T14:55:44Z</time>
      </trkpt>
      <trkpt lat="45.90057" lon="6.21233">
        <ele>520.69</ele>
        <time>2020-05-18T14:55:45Z</time>
      </trkpt>
      <trkpt lat="45.90095" lon="6.21186">
        <ele>521.17</ele>
        <time>2020-05-18T14:55:48Z</time>
      </trkpt>
      <trkpt lat="45.90107" lon="6.2117">
        <ele>521.17</ele>
        <time>2020-05-18T14:55:49Z</time>
      </trkpt>
      <trkpt lat="45.90207" lon="6.21105">
        <ele>522.13</ele>
        <time>2020-05-18T14:55:56Z</time>
      </trkpt>
      <trkpt lat="45.9022" lon="6.21095">
        <ele>522.13</ele>
        <time>2020-05-18T14:55:57Z</time>
      </trkpt>
      <trkpt lat="45.90231" lon="6.21081">
        <ele>521.65</ele>
        <time>2020-05-18T14:55:58Z</time>
      </trkpt>
      <trkpt lat="45.9033" lon="6.2097">
        <ele>519.73</ele>
        <time>2020-05-18T14:56:06Z</time>
      </trkpt>
      <trkpt lat="45.90344" lon="6.2095">
        <ele>518.77</ele>
        <time>2020-05-18T14:56:07Z</time>
      </trkpt>
      <trkpt lat="45.90359" lon="6.20927">
        <ele>518.29</ele>
        <time>2020-05-18T14:56:08Z</time>
      </trkpt>
      <trkpt lat="45.90373" lon="6.20898">
        <ele>517.33</ele>
        <time>2020-05-18T14:56:09Z</time>
      </trkpt>
      <trkpt lat="45.90389" lon="6.20865">
        <ele>516.37</ele>
        <time>2020-05-18T14:56:10Z</time>
      </trkpt>
      <trkpt lat="45.90409" lon="6.20832">
        <ele>515.88</ele>
        <time>2020-05-18T14:56:11Z</time>
      </trkpt>
      <trkpt lat="45.9043" lon="6.208">
        <ele>515.88</ele>
        <time>2020-05-18T14:56:12Z</time>
      </trkpt>
      <trkpt lat="45.90449" lon="6.20773">
        <ele>515.88</ele>
        <time>2020-05-18T14:56:13Z</time>
      </trkpt>
      <trkpt lat="45.90464" lon="6.2075">
        <ele>515.4</ele>
        <time>2020-05-18T14:56:14Z</time>
      </trkpt>
      <trkpt lat="45.90476" lon="6.20732">
        <ele>515.4</ele>
        <time>2020-05-18T14:56:15Z</time>
      </trkpt>
      <trkpt lat="45.90505" lon="6.20681">
        <ele>515.4</ele>
        <time>2020-05-18T14:56:18Z</time>
      </trkpt>
      <trkpt lat="45.90512" lon="6.20662">
        <ele>515.88</ele>
        <time>2020-05-18T14:56:19Z</time>
      </trkpt>
      <trkpt lat="45.90518" lon="6.20642">
        <ele>515.88</ele>
        <time>2020-05-18T14:56:20Z</time>
      </trkpt>
      <trkpt lat="45.90523" lon="6.20621">
        <ele>516.37</ele>
        <time>2020-05-18T14:56:21Z</time>
      </trkpt>
      <trkpt lat="45.90527" lon="6.20601">
        <ele>516.37</ele>
        <time>2020-05-18T14:56:22Z</time>
      </trkpt>
      <trkpt lat="45.90543" lon="6.20543">
        <ele>517.33</ele>
        <time>2020-05-18T14:56:25Z</time>
      </trkpt>
      <trkpt lat="45.90551" lon="6.20526">
        <ele>517.33</ele>
        <time>2020-05-18T14:56:26Z</time>
      </trkpt>
      <trkpt lat="45.9056" lon="6.20512">
        <ele>517.81</ele>
        <time>2020-05-18T14:56:27Z</time>
      </trkpt>
      <trkpt lat="45.90571" lon="6.205">
        <ele>517.81</ele>
        <time>2020-05-18T14:56:28Z</time>
      </trkpt>
      <trkpt lat="45.90582" lon="6.20487">
        <ele>517.81</ele>
        <time>2020-05-18T14:56:29Z</time>
      </trkpt>
      <trkpt lat="45.90665" lon="6.20394">
        <ele>519.25</ele>
        <time>2020-05-18T14:56:36Z</time>
      </trkpt>
      <trkpt lat="45.90677" lon="6.20382">
        <ele>519.73</ele>
        <time>2020-05-18T14:56:37Z</time>
      </trkpt>
      <trkpt lat="45.90716" lon="6.20348">
        <ele>520.69</ele>
        <time>2020-05-18T14:56:40Z</time>
      </trkpt>
      <trkpt lat="45.90727" lon="6.20333">
        <ele>521.17</ele>
        <time>2020-05-18T14:56:41Z</time>
      </trkpt>
      <trkpt lat="45.90737" lon="6.20319">
        <ele>521.65</ele>
        <time>2020-05-18T14:56:42Z</time>
      </trkpt>
      <trkpt lat="45.90746" lon="6.20306">
        <ele>522.61</ele>
        <time>2020-05-18T14:56:43Z</time>
      </trkpt>
      <trkpt lat="45.90755" lon="6.20293">
        <ele>523.58</ele>
        <time>2020-05-18T14:56:44Z</time>
      </trkpt>
      <trkpt lat="45.90764" lon="6.20281">
        <ele>524.54</ele>
        <time>2020-05-18T14:56:45Z</time>
      </trkpt>
      <trkpt lat="45.90771" lon="6.20266">
        <ele>525.5</ele>
        <time>2020-05-18T14:56:46Z</time>
      </trkpt>
      <trkpt lat="45.90777" lon="6.2025">
        <ele>526.46</ele>
        <time>2020-05-18T14:56:47Z</time>
      </trkpt>
      <trkpt lat="45.90781" lon="6.20232">
        <ele>527.42</ele>
        <time>2020-05-18T14:56:48Z</time>
      </trkpt>
      <trkpt lat="45.90783" lon="6.20213">
        <ele>528.38</ele>
        <time>2020-05-18T14:56:49Z</time>
      </trkpt>
      <trkpt lat="45.90783" lon="6.20195">
        <ele>529.82</ele>
        <time>2020-05-18T14:56:50Z</time>
      </trkpt>
      <trkpt lat="45.90783" lon="6.20176">
        <ele>530.79</ele>
        <time>2020-05-18T14:56:51Z</time>
      </trkpt>
      <trkpt lat="45.90782" lon="6.20158">
        <ele>531.75</ele>
        <time>2020-05-18T14:56:52Z</time>
      </trkpt>
      <trkpt lat="45.90779" lon="6.2005">
        <ele>536.55</ele>
        <time>2020-05-18T14:56:58Z</time>
      </trkpt>
      <trkpt lat="45.90782" lon="6.20012">
        <ele>537.51</ele>
        <time>2020-05-18T14:57:00Z</time>
      </trkpt>
      <trkpt lat="45.90785" lon="6.19993">
        <ele>537.51</ele>
        <time>2020-05-18T14:57:01Z</time>
      </trkpt>
      <trkpt lat="45.90792" lon="6.19975">
        <ele>537.99</ele>
        <time>2020-05-18T14:57:02Z</time>
      </trkpt>
      <trkpt lat="45.908" lon="6.19957">
        <ele>538.48</ele>
        <time>2020-05-18T14:57:03Z</time>
      </trkpt>
      <trkpt lat="45.9081" lon="6.19942">
        <ele>538.96</ele>
        <time>2020-05-18T14:57:04Z</time>
      </trkpt>
      <trkpt lat="45.90821" lon="6.19927">
        <ele>539.92</ele>
        <time>2020-05-18T14:57:05Z</time>
      </trkpt>
      <trkpt lat="45.9085" lon="6.19887">
        <ele>541.84</ele>
        <time>2020-05-18T14:57:08Z</time>
      </trkpt>
      <trkpt lat="45.90863" lon="6.19877">
        <ele>542.8</ele>
        <time>2020-05-18T14:57:09Z</time>
      </trkpt>
      <trkpt lat="45.90876" lon="6.19868">
        <ele>543.28</ele>
        <time>2020-05-18T14:57:10Z</time>
      </trkpt>
      <trkpt lat="45.9089" lon="6.1986">
        <ele>543.76</ele>
        <time>2020-05-18T14:57:11Z</time>
      </trkpt>
      <trkpt lat="45.90905" lon="6.19858">
        <ele>543.76</ele>
        <time>2020-05-18T14:57:12Z</time>
      </trkpt>
      <trkpt lat="45.90919" lon="6.19856">
        <ele>544.24</ele>
        <time>2020-05-18T14:57:13Z</time>
      </trkpt>
      <trkpt lat="45.90933" lon="6.19853">
        <ele>544.72</ele>
        <time>2020-05-18T14:57:14Z</time>
      </trkpt>
      <trkpt lat="45.90948" lon="6.19851">
        <ele>544.72</ele>
        <time>2020-05-18T14:57:15Z</time>
      </trkpt>
      <trkpt lat="45.91075" lon="6.19819">
        <ele>551.45</ele>
        <time>2020-05-18T14:57:24Z</time>
      </trkpt>
      <trkpt lat="45.91102" lon="6.19806">
        <ele>553.38</ele>
        <time>2020-05-18T14:57:26Z</time>
      </trkpt>
      <trkpt lat="45.91217" lon="6.19785">
        <ele>558.66</ele>
        <time>2020-05-18T14:57:34Z</time>
      </trkpt>
      <trkpt lat="45.91356" lon="6.19783">
        <ele>562.03</ele>
        <time>2020-05-18T14:57:43Z</time>
      </trkpt>
      <trkpt lat="45.91466" lon="6.19797">
        <ele>562.99</ele>
        <time>2020-05-18T14:57:50Z</time>
      </trkpt>
      <trkpt lat="45.91564" lon="6.19796">
        <ele>563.47</ele>
        <time>2020-05-18T14:57:56Z</time>
      </trkpt>
      <trkpt lat="45.9171" lon="6.19757">
        <ele>563.47</ele>
        <time>2020-05-18T14:58:05Z</time>
      </trkpt>
      <trkpt lat="45.91725" lon="6.19748">
        <ele>563.47</ele>
        <time>2020-05-18T14:58:06Z</time>
      </trkpt>
      <trkpt lat="45.91741" lon="6.19736">
        <ele>563.47</ele>
        <time>2020-05-18T14:58:07Z</time>
      </trkpt>
      <trkpt lat="45.91751" lon="6.19718">
        <ele>563.47</ele>
        <time>2020-05-18T14:58:08Z</time>
      </trkpt>
      <trkpt lat="45.91761" lon="6.19701">
        <ele>563.47</ele>
        <time>2020-05-18T14:58:09Z</time>
      </trkpt>
      <trkpt lat="45.91771" lon="6.19686">
        <ele>563.47</ele>
        <time>2020-05-18T14:58:10Z</time>
      </trkpt>
      <trkpt lat="45.91852" lon="6.19561">
        <ele>565.39</ele>
        <time>2020-05-18T14:58:18Z</time>
      </trkpt>
      <trkpt lat="45.91871" lon="6.19537">
        <ele>566.35</ele>
        <time>2020-05-18T14:58:20Z</time>
      </trkpt>
      <trkpt lat="45.91879" lon="6.19517">
        <ele>566.83</ele>
        <time>2020-05-18T14:58:21Z</time>
      </trkpt>
      <trkpt lat="45.91885" lon="6.19502">
        <ele>567.32</ele>
        <time>2020-05-18T14:58:22Z</time>
      </trkpt>
      <trkpt lat="45.9189" lon="6.19486">
        <ele>568.28</ele>
        <time>2020-05-18T14:58:23Z</time>
      </trkpt>
      <trkpt lat="45.91893" lon="6.19469">
        <ele>568.76</ele>
        <time>2020-05-18T14:58:24Z</time>
      </trkpt>
      <trkpt lat="45.91894" lon="6.19451">
        <ele>569.24</ele>
        <time>2020-05-18T14:58:25Z</time>
      </trkpt>
      <trkpt lat="45.91894" lon="6.19433">
        <ele>570.2</ele>
        <time>2020-05-18T14:58:26Z</time>
      </trkpt>
      <trkpt lat="45.91888" lon="6.19312">
        <ele>573.56</ele>
        <time>2020-05-18T14:58:32Z</time>
      </trkpt>
      <trkpt lat="45.91887" lon="6.1929">
        <ele>573.56</ele>
        <time>2020-05-18T14:58:33Z</time>
      </trkpt>
      <trkpt lat="45.91887" lon="6.1918">
        <ele>574.53</ele>
        <time>2020-05-18T14:58:38Z</time>
      </trkpt>
      <trkpt lat="45.91888" lon="6.19051">
        <ele>575.49</ele>
        <time>2020-05-18T14:58:43Z</time>
      </trkpt>
      <trkpt lat="45.91856" lon="6.18859">
        <ele>579.33</ele>
        <time>2020-05-18T14:58:48Z</time>
      </trkpt>
      <trkpt lat="45.9182" lon="6.18697">
        <ele>585.1</ele>
        <time>2020-05-18T14:58:54Z</time>
      </trkpt>
      <trkpt lat="45.9181" lon="6.18654">
        <ele>587.02</ele>
        <time>2020-05-18T14:58:56Z</time>
      </trkpt>
      <trkpt lat="45.91808" lon="6.18633">
        <ele>587.5</ele>
        <time>2020-05-18T14:58:57Z</time>
      </trkpt>
      <trkpt lat="45.91811" lon="6.1861">
        <ele>587.98</ele>
        <time>2020-05-18T14:58:58Z</time>
      </trkpt>
      <trkpt lat="45.91815" lon="6.18587">
        <ele>588.95</ele>
        <time>2020-05-18T14:58:59Z</time>
      </trkpt>
      <trkpt lat="45.91824" lon="6.18565">
        <ele>589.43</ele>
        <time>2020-05-18T14:59:00Z</time>
      </trkpt>
      <trkpt lat="45.91836" lon="6.18545">
        <ele>589.91</ele>
        <time>2020-05-18T14:59:01Z</time>
      </trkpt>
      <trkpt lat="45.9185" lon="6.18529">
        <ele>590.39</ele>
        <time>2020-05-18T14:59:02Z</time>
      </trkpt>
      <trkpt lat="45.91867" lon="6.18515">
        <ele>590.39</ele>
        <time>2020-05-18T14:59:03Z</time>
      </trkpt>
      <trkpt lat="45.91887" lon="6.18505">
        <ele>590.87</ele>
        <time>2020-05-18T14:59:04Z</time>
      </trkpt>
      <trkpt lat="45.91948" lon="6.18472">
        <ele>591.83</ele>
        <time>2020-05-18T14:59:07Z</time>
      </trkpt>
      <trkpt lat="45.91966" lon="6.18459">
        <ele>592.79</ele>
        <time>2020-05-18T14:59:09Z</time>
      </trkpt>
      <trkpt lat="45.91993" lon="6.18421">
        <ele>593.27</ele>
        <time>2020-05-18T14:59:10Z</time>
      </trkpt>
      <trkpt lat="45.92002" lon="6.18396">
        <ele>593.27</ele>
        <time>2020-05-18T14:59:11Z</time>
      </trkpt>
      <trkpt lat="45.9201" lon="6.18372">
        <ele>593.75</ele>
        <time>2020-05-18T14:59:12Z</time>
      </trkpt>
      <trkpt lat="45.92015" lon="6.18345">
        <ele>594.23</ele>
        <time>2020-05-18T14:59:13Z</time>
      </trkpt>
      <trkpt lat="45.92015" lon="6.18316">
        <ele>594.71</ele>
        <time>2020-05-18T14:59:14Z</time>
      </trkpt>
      <trkpt lat="45.92013" lon="6.18286">
        <ele>595.19</ele>
        <time>2020-05-18T14:59:15Z</time>
      </trkpt>
      <trkpt lat="45.92008" lon="6.18257">
        <ele>595.67</ele>
        <time>2020-05-18T14:59:16Z</time>
      </trkpt>
      <trkpt lat="45.91996" lon="6.18178">
        <ele>596.64</ele>
        <time>2020-05-18T14:59:19Z</time>
      </trkpt>
      <trkpt lat="45.92" lon="6.18152">
        <ele>596.15</ele>
        <time>2020-05-18T14:59:20Z</time>
      </trkpt>
      <trkpt lat="45.92005" lon="6.18128">
        <ele>596.15</ele>
        <time>2020-05-18T14:59:21Z</time>
      </trkpt>
      <trkpt lat="45.92014" lon="6.18107">
        <ele>595.67</ele>
        <time>2020-05-18T14:59:22Z</time>
      </trkpt>
      <trkpt lat="45.92025" lon="6.18089">
        <ele>595.19</ele>
        <time>2020-05-18T14:59:23Z</time>
      </trkpt>
      <trkpt lat="45.92043" lon="6.18078">
        <ele>594.71</ele>
        <time>2020-05-18T14:59:24Z</time>
      </trkpt>
      <trkpt lat="45.92061" lon="6.1807">
        <ele>594.23</ele>
        <time>2020-05-18T14:59:25Z</time>
      </trkpt>
      <trkpt lat="45.9208" lon="6.18068">
        <ele>594.23</ele>
        <time>2020-05-18T14:59:26Z</time>
      </trkpt>
      <trkpt lat="45.92097" lon="6.18065">
        <ele>594.23</ele>
        <time>2020-05-18T14:59:27Z</time>
      </trkpt>
      <trkpt lat="45.92115" lon="6.18059">
        <ele>594.71</ele>
        <time>2020-05-18T14:59:28Z</time>
      </trkpt>
      <trkpt lat="45.9213" lon="6.18048">
        <ele>594.71</ele>
        <time>2020-05-18T14:59:29Z</time>
      </trkpt>
      <trkpt lat="45.92144" lon="6.18034">
        <ele>594.71</ele>
        <time>2020-05-18T14:59:30Z</time>
      </trkpt>
      <trkpt lat="45.92154" lon="6.18014">
        <ele>594.71</ele>
        <time>2020-05-18T14:59:31Z</time>
      </trkpt>
      <trkpt lat="45.92164" lon="6.17993">
        <ele>594.71</ele>
        <time>2020-05-18T14:59:32Z</time>
      </trkpt>
      <trkpt lat="45.92167" lon="6.17969">
        <ele>595.19</ele>
        <time>2020-05-18T14:59:33Z</time>
      </trkpt>
      <trkpt lat="45.92169" lon="6.17946">
        <ele>595.19</ele>
        <time>2020-05-18T14:59:34Z</time>
      </trkpt>
      <trkpt lat="45.92168" lon="6.17925">
        <ele>595.19</ele>
        <time>2020-05-18T14:59:35Z</time>
      </trkpt>
      <trkpt lat="45.92165" lon="6.17909">
        <ele>595.19</ele>
        <time>2020-05-18T14:59:36Z</time>
      </trkpt>
      <trkpt lat="45.9216" lon="6.17894">
        <ele>595.19</ele>
        <time>2020-05-18T14:59:37Z</time>
      </trkpt>
      <trkpt lat="45.92156" lon="6.1788">
        <ele>594.71</ele>
        <time>2020-05-18T14:59:38Z</time>
      </trkpt>
      <trkpt lat="45.92142" lon="6.17827">
        <ele>592.79</ele>
        <time>2020-05-18T14:59:42Z</time>
      </trkpt>
      <trkpt lat="45.92139" lon="6.17812">
        <ele>592.31</ele>
        <time>2020-05-18T14:59:43Z</time>
      </trkpt>
      <trkpt lat="45.92136" lon="6.17797">
        <ele>591.83</ele>
        <time>2020-05-18T14:59:44Z</time>
      </trkpt>
      <trkpt lat="45.92137" lon="6.17781">
        <ele>591.35</ele>
        <time>2020-05-18T14:59:45Z</time>
      </trkpt>
      <trkpt lat="45.92139" lon="6.17767">
        <ele>590.87</ele>
        <time>2020-05-18T14:59:46Z</time>
      </trkpt>
      <trkpt lat="45.92142" lon="6.17752">
        <ele>590.39</ele>
        <time>2020-05-18T14:59:47Z</time>
      </trkpt>
      <trkpt lat="45.92144" lon="6.17737">
        <ele>589.91</ele>
        <time>2020-05-18T14:59:48Z</time>
      </trkpt>
      <trkpt lat="45.9215" lon="6.17724">
        <ele>589.91</ele>
        <time>2020-05-18T14:59:49Z</time>
      </trkpt>
      <trkpt lat="45.92157" lon="6.17709">
        <ele>588.95</ele>
        <time>2020-05-18T14:59:51Z</time>
      </trkpt>
      <trkpt lat="45.92215" lon="6.17598">
        <ele>585.58</ele>
        <time>2020-05-18T15:00:00Z</time>
      </trkpt>
      <trkpt lat="45.92285" lon="6.17515">
        <ele>582.22</ele>
        <time>2020-05-18T15:00:09Z</time>
      </trkpt>
      <trkpt lat="45.92296" lon="6.17504">
        <ele>581.73</ele>
        <time>2020-05-18T15:00:10Z</time>
      </trkpt>
      <trkpt lat="45.92326" lon="6.17442">
        <ele>577.41</ele>
        <time>2020-05-18T15:00:16Z</time>
      </trkpt>
      <trkpt lat="45.92329" lon="6.17436">
        <ele>576.93</ele>
        <time>2020-05-18T15:00:17Z</time>
      </trkpt>
      <trkpt lat="45.92331" lon="6.17431">
        <ele>576.93</ele>
        <time>2020-05-18T15:00:18Z</time>
      </trkpt>
      <trkpt lat="45.92336" lon="6.1742">
        <ele>576.45</ele>
        <time>2020-05-18T15:00:20Z</time>
      </trkpt>
      <trkpt lat="45.92343" lon="6.17416">
        <ele>576.45</ele>
        <time>2020-05-18T15:00:21Z</time>
      </trkpt>
      <trkpt lat="45.92368" lon="6.17415">
        <ele>575.97</ele>
        <time>2020-05-18T15:00:24Z</time>
      </trkpt>
      <trkpt lat="45.92377" lon="6.17408">
        <ele>575.01</ele>
        <time>2020-05-18T15:00:26Z</time>
      </trkpt>
      <trkpt lat="45.92387" lon="6.17408">
        <ele>574.53</ele>
        <time>2020-05-18T15:00:27Z</time>
      </trkpt>
      <trkpt lat="45.92398" lon="6.17408">
        <ele>574.53</ele>
        <time>2020-05-18T15:00:28Z</time>
      </trkpt>
      <trkpt lat="45.92408" lon="6.1741">
        <ele>574.53</ele>
        <time>2020-05-18T15:00:29Z</time>
      </trkpt>
      <trkpt lat="45.92524" lon="6.17438">
        <ele>576.45</ele>
        <time>2020-05-18T15:00:38Z</time>
      </trkpt>
      <trkpt lat="45.92651" lon="6.17427">
        <ele>577.89</ele>
        <time>2020-05-18T15:00:46Z</time>
      </trkpt>
      <trkpt lat="45.9283" lon="6.17368">
        <ele>571.16</ele>
        <time>2020-05-18T15:00:57Z</time>
      </trkpt>
      <trkpt lat="45.92969" lon="6.17295">
        <ele>568.28</ele>
        <time>2020-05-18T15:01:05Z</time>
      </trkpt>
      <trkpt lat="45.9312" lon="6.17168">
        <ele>561.55</ele>
        <time>2020-05-18T15:01:15Z</time>
      </trkpt>
      <trkpt lat="45.93137" lon="6.1716">
        <ele>561.07</ele>
        <time>2020-05-18T15:01:16Z</time>
      </trkpt>
      <trkpt lat="45.93154" lon="6.17154">
        <ele>561.07</ele>
        <time>2020-05-18T15:01:17Z</time>
      </trkpt>
      <trkpt lat="45.93172" lon="6.17148">
        <ele>560.59</ele>
        <time>2020-05-18T15:01:18Z</time>
      </trkpt>
      <trkpt lat="45.9332" lon="6.17154">
        <ele>558.18</ele>
        <time>2020-05-18T15:01:26Z</time>
      </trkpt>
      <trkpt lat="45.93357" lon="6.17154">
        <ele>557.7</ele>
        <time>2020-05-18T15:01:28Z</time>
      </trkpt>
      <trkpt lat="45.93376" lon="6.1715">
        <ele>557.7</ele>
        <time>2020-05-18T15:01:29Z</time>
      </trkpt>
      <trkpt lat="45.93394" lon="6.17144">
        <ele>557.7</ele>
        <time>2020-05-18T15:01:30Z</time>
      </trkpt>
      <trkpt lat="45.9343" lon="6.17125">
        <ele>557.7</ele>
        <time>2020-05-18T15:01:31Z</time>
      </trkpt>
      <trkpt lat="45.93448" lon="6.17113">
        <ele>557.22</ele>
        <time>2020-05-18T15:01:32Z</time>
      </trkpt>
      <trkpt lat="45.93466" lon="6.171">
        <ele>557.22</ele>
        <time>2020-05-18T15:01:33Z</time>
      </trkpt>
      <trkpt lat="45.93483" lon="6.1708">
        <ele>557.22</ele>
        <time>2020-05-18T15:01:34Z</time>
      </trkpt>
      <trkpt lat="45.93501" lon="6.17059">
        <ele>556.26</ele>
        <time>2020-05-18T15:01:35Z</time>
      </trkpt>
      <trkpt lat="45.93518" lon="6.17035">
        <ele>555.78</ele>
        <time>2020-05-18T15:01:36Z</time>
      </trkpt>
      <trkpt lat="45.93533" lon="6.17007">
        <ele>553.38</ele>
        <time>2020-05-18T15:01:38Z</time>
      </trkpt>
      <trkpt lat="45.93558" lon="6.16937">
        <ele>551.93</ele>
        <time>2020-05-18T15:01:39Z</time>
      </trkpt>
      <trkpt lat="45.93565" lon="6.16893">
        <ele>550.49</ele>
        <time>2020-05-18T15:01:40Z</time>
      </trkpt>
      <trkpt lat="45.93569" lon="6.16847">
        <ele>547.13</ele>
        <time>2020-05-18T15:01:42Z</time>
      </trkpt>
      <trkpt lat="45.93577" lon="6.16701">
        <ele>540.88</ele>
        <time>2020-05-18T15:01:45Z</time>
      </trkpt>
      <trkpt lat="45.93579" lon="6.16654">
        <ele>538.48</ele>
        <time>2020-05-18T15:01:46Z</time>
      </trkpt>
      <trkpt lat="45.93586" lon="6.1661">
        <ele>536.55</ele>
        <time>2020-05-18T15:01:47Z</time>
      </trkpt>
      <trkpt lat="45.93594" lon="6.16568">
        <ele>534.15</ele>
        <time>2020-05-18T15:01:48Z</time>
      </trkpt>
      <trkpt lat="45.93608" lon="6.16529">
        <ele>531.27</ele>
        <time>2020-05-18T15:01:49Z</time>
      </trkpt>
      <trkpt lat="45.93625" lon="6.16492">
        <ele>528.86</ele>
        <time>2020-05-18T15:01:50Z</time>
      </trkpt>
      <trkpt lat="45.93747" lon="6.16247">
        <ele>511.08</ele>
        <time>2020-05-18T15:01:57Z</time>
      </trkpt>
      <trkpt lat="45.93792" lon="6.16057">
        <ele>498.58</ele>
        <time>2020-05-18T15:02:02Z</time>
      </trkpt>
      <trkpt lat="45.93797" lon="6.15857">
        <ele>486.56</ele>
        <time>2020-05-18T15:02:07Z</time>
      </trkpt>
      <trkpt lat="45.93752" lon="6.15578">
        <ele>469.26</ele>
        <time>2020-05-18T15:02:15Z</time>
      </trkpt>
      <trkpt lat="45.93739" lon="6.15314">
        <ele>459.17</ele>
        <time>2020-05-18T15:02:23Z</time>
      </trkpt>
      <trkpt lat="45.93757" lon="6.15073">
        <ele>455.8</ele>
        <time>2020-05-18T15:02:31Z</time>
      </trkpt>
      <trkpt lat="45.93799" lon="6.14732">
        <ele>455.32</ele>
        <time>2020-05-18T15:02:43Z</time>
      </trkpt>
      <trkpt lat="45.93781" lon="6.14533">
        <ele>457.72</ele>
        <time>2020-05-18T15:02:50Z</time>
      </trkpt>
      <trkpt lat="45.93762" lon="6.14375">
        <ele>463.01</ele>
        <time>2020-05-18T15:02:56Z</time>
      </trkpt>
      <trkpt lat="45.93772" lon="6.14188">
        <ele>466.38</ele>
        <time>2020-05-18T15:03:04Z</time>
      </trkpt>
      <trkpt lat="45.93768" lon="6.14136">
        <ele>465.42</ele>
        <time>2020-05-18T15:03:07Z</time>
      </trkpt>
      <trkpt lat="45.93752" lon="6.1406">
        <ele>463.97</ele>
        <time>2020-05-18T15:03:12Z</time>
      </trkpt>
      <trkpt lat="45.9375" lon="6.1405">
        <ele>463.49</ele>
        <time>2020-05-18T15:03:13Z</time>
      </trkpt>
      <trkpt lat="45.93749" lon="6.14036">
        <ele>463.49</ele>
        <time>2020-05-18T15:03:14Z</time>
      </trkpt>
      <trkpt lat="45.93753" lon="6.14024">
        <ele>463.49</ele>
        <time>2020-05-18T15:03:15Z</time>
      </trkpt>
      <trkpt lat="45.93755" lon="6.14013">
        <ele>463.49</ele>
        <time>2020-05-18T15:03:16Z</time>
      </trkpt>
      <trkpt lat="45.93755" lon="6.14">
        <ele>463.49</ele>
        <time>2020-05-18T15:03:17Z</time>
      </trkpt>
      <trkpt lat="45.93751" lon="6.13989">
        <ele>463.49</ele>
        <time>2020-05-18T15:03:18Z</time>
      </trkpt>
      <trkpt lat="45.93747" lon="6.13976">
        <ele>463.49</ele>
        <time>2020-05-18T15:03:20Z</time>
      </trkpt>
      <trkpt lat="45.93745" lon="6.13963">
        <ele>463.97</ele>
        <time>2020-05-18T15:03:21Z</time>
      </trkpt>
      <trkpt lat="45.93748" lon="6.13939">
        <ele>463.97</ele>
        <time>2020-05-18T15:03:22Z</time>
      </trkpt>
      <trkpt lat="45.93751" lon="6.13925">
        <ele>463.01</ele>
        <time>2020-05-18T15:03:23Z</time>
      </trkpt>
      <trkpt lat="45.93754" lon="6.13909">
        <ele>462.53</ele>
        <time>2020-05-18T15:03:24Z</time>
      </trkpt>
      <trkpt lat="45.93757" lon="6.13891">
        <ele>462.05</ele>
        <time>2020-05-18T15:03:25Z</time>
      </trkpt>
      <trkpt lat="45.93759" lon="6.13876">
        <ele>461.57</ele>
        <time>2020-05-18T15:03:26Z</time>
      </trkpt>
      <trkpt lat="45.93765" lon="6.13793">
        <ele>461.09</ele>
        <time>2020-05-18T15:03:30Z</time>
      </trkpt>
      <trkpt lat="45.93761" lon="6.13774">
        <ele>461.57</ele>
        <time>2020-05-18T15:03:31Z</time>
      </trkpt>
      <trkpt lat="45.93755" lon="6.13758">
        <ele>462.05</ele>
        <time>2020-05-18T15:03:32Z</time>
      </trkpt>
      <trkpt lat="45.93745" lon="6.1374">
        <ele>462.53</ele>
        <time>2020-05-18T15:03:33Z</time>
      </trkpt>
      <trkpt lat="45.93736" lon="6.13722">
        <ele>462.53</ele>
        <time>2020-05-18T15:03:34Z</time>
      </trkpt>
      <trkpt lat="45.93726" lon="6.13705">
        <ele>462.53</ele>
        <time>2020-05-18T15:03:35Z</time>
      </trkpt>
      <trkpt lat="45.93707" lon="6.13669">
        <ele>462.53</ele>
        <time>2020-05-18T15:03:37Z</time>
      </trkpt>
      <trkpt lat="45.93696" lon="6.1365">
        <ele>462.53</ele>
        <time>2020-05-18T15:03:38Z</time>
      </trkpt>
      <trkpt lat="45.93604" lon="6.13447">
        <ele>460.61</ele>
        <time>2020-05-18T15:03:47Z</time>
      </trkpt>
      <trkpt lat="45.93554" lon="6.13288">
        <ele>458.69</ele>
        <time>2020-05-18T15:03:55Z</time>
      </trkpt>
      <trkpt lat="45.93548" lon="6.13263">
        <ele>458.21</ele>
        <time>2020-05-18T15:03:56Z</time>
      </trkpt>
      <trkpt lat="45.93538" lon="6.13215">
        <ele>458.21</ele>
        <time>2020-05-18T15:03:57Z</time>
      </trkpt>
      <trkpt lat="45.93541" lon="6.13191">
        <ele>458.21</ele>
        <time>2020-05-18T15:03:58Z</time>
      </trkpt>
      <trkpt lat="45.93543" lon="6.13168">
        <ele>458.69</ele>
        <time>2020-05-18T15:03:59Z</time>
      </trkpt>
      <trkpt lat="45.93549" lon="6.13146">
        <ele>459.17</ele>
        <time>2020-05-18T15:04:00Z</time>
      </trkpt>
      <trkpt lat="45.93556" lon="6.13123">
        <ele>460.13</ele>
        <time>2020-05-18T15:04:01Z</time>
      </trkpt>
      <trkpt lat="45.93566" lon="6.13102">
        <ele>460.61</ele>
        <time>2020-05-18T15:04:02Z</time>
      </trkpt>
      <trkpt lat="45.93577" lon="6.1308">
        <ele>461.57</ele>
        <time>2020-05-18T15:04:03Z</time>
      </trkpt>
      <trkpt lat="45.9359" lon="6.13057">
        <ele>462.53</ele>
        <time>2020-05-18T15:04:04Z</time>
      </trkpt>
      <trkpt lat="45.93649" lon="6.12941">
        <ele>469.74</ele>
        <time>2020-05-18T15:04:10Z</time>
      </trkpt>
      <trkpt lat="45.93661" lon="6.12917">
        <ele>470.7</ele>
        <time>2020-05-18T15:04:11Z</time>
      </trkpt>
      <trkpt lat="45.93666" lon="6.12896">
        <ele>471.66</ele>
        <time>2020-05-18T15:04:12Z</time>
      </trkpt>
      <trkpt lat="45.93671" lon="6.12875">
        <ele>473.11</ele>
        <time>2020-05-18T15:04:13Z</time>
      </trkpt>
      <trkpt lat="45.9368" lon="6.1284">
        <ele>474.07</ele>
        <time>2020-05-18T15:04:14Z</time>
      </trkpt>
      <trkpt lat="45.93686" lon="6.12827">
        <ele>474.55</ele>
        <time>2020-05-18T15:04:15Z</time>
      </trkpt>
      <trkpt lat="45.93696" lon="6.12818">
        <ele>475.03</ele>
        <time>2020-05-18T15:04:16Z</time>
      </trkpt>
      <trkpt lat="45.9371" lon="6.12814">
        <ele>475.03</ele>
        <time>2020-05-18T15:04:17Z</time>
      </trkpt>
      <trkpt lat="45.93723" lon="6.12818">
        <ele>475.51</ele>
        <time>2020-05-18T15:04:18Z</time>
      </trkpt>
      <trkpt lat="45.93736" lon="6.12822">
        <ele>475.51</ele>
        <time>2020-05-18T15:04:19Z</time>
      </trkpt>
      <trkpt lat="45.93747" lon="6.12825">
        <ele>475.99</ele>
        <time>2020-05-18T15:04:20Z</time>
      </trkpt>
      <trkpt lat="45.93758" lon="6.1282">
        <ele>476.47</ele>
        <time>2020-05-18T15:04:21Z</time>
      </trkpt>
      <trkpt lat="45.93767" lon="6.12815">
        <ele>476.95</ele>
        <time>2020-05-18T15:04:22Z</time>
      </trkpt>
      <trkpt lat="45.93777" lon="6.12805">
        <ele>476.95</ele>
        <time>2020-05-18T15:04:23Z</time>
      </trkpt>
      <trkpt lat="45.93786" lon="6.12792">
        <ele>477.43</ele>
        <time>2020-05-18T15:04:24Z</time>
      </trkpt>
      <trkpt lat="45.93802" lon="6.1277">
        <ele>477.43</ele>
        <time>2020-05-18T15:04:27Z</time>
      </trkpt>
      <trkpt lat="45.93808" lon="6.12758">
        <ele>477.43</ele>
        <time>2020-05-18T15:04:28Z</time>
      </trkpt>
      <trkpt lat="45.93815" lon="6.12732">
        <ele>477.91</ele>
        <time>2020-05-18T15:04:30Z</time>
      </trkpt>
      <trkpt lat="45.93815" lon="6.12685">
        <ele>477.91</ele>
        <time>2020-05-18T15:04:33Z</time>
      </trkpt>
      <trkpt lat="45.93824" lon="6.12668">
        <ele>478.39</ele>
        <time>2020-05-18T15:04:34Z</time>
      </trkpt>
      <trkpt lat="45.93824" lon="6.12668">
        <ele>478.39</ele>
        <time>2020-05-18T15:04:35Z</time>
      </trkpt>
      <trkpt lat="45.93837" lon="6.12664">
        <ele>479.35</ele>
        <time>2020-05-18T15:04:37Z</time>
      </trkpt>
      <trkpt lat="45.93846" lon="6.12671">
        <ele>479.84</ele>
        <time>2020-05-18T15:04:38Z</time>
      </trkpt>
      <trkpt lat="45.93939" lon="6.12731">
        <ele>482.72</ele>
        <time>2020-05-18T15:04:44Z</time>
      </trkpt>
      <trkpt lat="45.93953" lon="6.12736">
        <ele>482.72</ele>
        <time>2020-05-18T15:04:45Z</time>
      </trkpt>
      <trkpt lat="45.93968" lon="6.12741">
        <ele>482.72</ele>
        <time>2020-05-18T15:04:46Z</time>
      </trkpt>
      <trkpt lat="45.94072" lon="6.12758">
        <ele>483.68</ele>
        <time>2020-05-18T15:04:55Z</time>
      </trkpt>
      <trkpt lat="45.94089" lon="6.12776">
        <ele>483.2</ele>
        <time>2020-05-18T15:04:57Z</time>
      </trkpt>
      <trkpt lat="45.94088" lon="6.12786">
        <ele>483.2</ele>
        <time>2020-05-18T15:04:58Z</time>
      </trkpt>
      <trkpt lat="45.94076" lon="6.12834">
        <ele>483.68</ele>
        <time>2020-05-18T15:05:00Z</time>
      </trkpt>
      <trkpt lat="45.94075" lon="6.12855">
        <ele>483.68</ele>
        <time>2020-05-18T15:05:01Z</time>
      </trkpt>
      <trkpt lat="45.9408" lon="6.12871">
        <ele>483.2</ele>
        <time>2020-05-18T15:05:02Z</time>
      </trkpt>
      <trkpt lat="45.94085" lon="6.1289">
        <ele>483.2</ele>
        <time>2020-05-18T15:05:03Z</time>
      </trkpt>
      <trkpt lat="45.9409" lon="6.12908">
        <ele>483.2</ele>
        <time>2020-05-18T15:05:04Z</time>
      </trkpt>
      <trkpt lat="45.94094" lon="6.1293">
        <ele>483.68</ele>
        <time>2020-05-18T15:05:05Z</time>
      </trkpt>
      <trkpt lat="45.94139" lon="6.13139">
        <ele>484.16</ele>
        <time>2020-05-18T15:05:16Z</time>
      </trkpt>
      <trkpt lat="45.94171" lon="6.13321">
        <ele>485.12</ele>
        <time>2020-05-18T15:05:24Z</time>
      </trkpt>
      <trkpt lat="45.94172" lon="6.13343">
        <ele>485.6</ele>
        <time>2020-05-18T15:05:25Z</time>
      </trkpt>
      <trkpt lat="45.94185" lon="6.13391">
        <ele>488.01</ele>
        <time>2020-05-18T15:05:29Z</time>
      </trkpt>
      <trkpt lat="45.94193" lon="6.13413">
        <ele>488.49</ele>
        <time>2020-05-18T15:05:30Z</time>
      </trkpt>
      <trkpt lat="45.94192" lon="6.13418">
        <ele>488.97</ele>
        <time>2020-05-18T15:05:31Z</time>
      </trkpt>
      <trkpt lat="45.9419" lon="6.13425">
        <ele>488.97</ele>
        <time>2020-05-18T15:05:32Z</time>
      </trkpt>
      <trkpt lat="45.94183" lon="6.13437">
        <ele>490.41</ele>
        <time>2020-05-18T15:05:34Z</time>
      </trkpt>
      <trkpt lat="45.94104" lon="6.13508">
        <ele>493.29</ele>
        <time>2020-05-18T15:05:43Z</time>
      </trkpt>
      <trkpt lat="45.94057" lon="6.13554">
        <ele>495.22</ele>
        <time>2020-05-18T15:05:50Z</time>
      </trkpt>
      <trkpt lat="45.94052" lon="6.13561">
        <ele>495.7</ele>
        <time>2020-05-18T15:05:52Z</time>
      </trkpt>
      <trkpt lat="45.94051" lon="6.13584">
        <ele>496.18</ele>
        <time>2020-05-18T15:05:54Z</time>
      </trkpt>
      <trkpt lat="45.94033" lon="6.13628">
        <ele>496.66</ele>
        <time>2020-05-18T15:05:57Z</time>
      </trkpt>
      <trkpt lat="45.9403" lon="6.13641">
        <ele>496.66</ele>
        <time>2020-05-18T15:05:58Z</time>
      </trkpt>
      <trkpt lat="45.94028" lon="6.13654">
        <ele>496.66</ele>
        <time>2020-05-18T15:05:59Z</time>
      </trkpt>
      <trkpt lat="45.94026" lon="6.13667">
        <ele>496.66</ele>
        <time>2020-05-18T15:06:00Z</time>
      </trkpt>
      <trkpt lat="45.94028" lon="6.13679">
        <ele>496.18</ele>
        <time>2020-05-18T15:06:01Z</time>
      </trkpt>
      <trkpt lat="45.9403" lon="6.13692">
        <ele>496.18</ele>
        <time>2020-05-18T15:06:02Z</time>
      </trkpt>
      <trkpt lat="45.94032" lon="6.13705">
        <ele>496.18</ele>
        <time>2020-05-18T15:06:03Z</time>
      </trkpt>
      <trkpt lat="45.94035" lon="6.13718">
        <ele>496.66</ele>
        <time>2020-05-18T15:06:04Z</time>
      </trkpt>
      <trkpt lat="45.94049" lon="6.13803">
        <ele>496.18</ele>
        <time>2020-05-18T15:06:11Z</time>
      </trkpt>
      <trkpt lat="45.94051" lon="6.13829">
        <ele>496.18</ele>
        <time>2020-05-18T15:06:12Z</time>
      </trkpt>
      <trkpt lat="45.94051" lon="6.13841">
        <ele>496.66</ele>
        <time>2020-05-18T15:06:13Z</time>
      </trkpt>
      <trkpt lat="45.94049" lon="6.13863">
        <ele>497.14</ele>
        <time>2020-05-18T15:06:15Z</time>
      </trkpt>
      <trkpt lat="45.94001" lon="6.14011">
        <ele>496.18</ele>
        <time>2020-05-18T15:06:25Z</time>
      </trkpt>
      <trkpt lat="45.93999" lon="6.14025">
        <ele>495.7</ele>
        <time>2020-05-18T15:06:26Z</time>
      </trkpt>
      <trkpt lat="45.93997" lon="6.14039">
        <ele>495.22</ele>
        <time>2020-05-18T15:06:28Z</time>
      </trkpt>
      <trkpt lat="45.93977" lon="6.14226">
        <ele>494.26</ele>
        <time>2020-05-18T15:06:41Z</time>
      </trkpt>
      <trkpt lat="45.93965" lon="6.14343">
        <ele>497.14</ele>
        <time>2020-05-18T15:06:51Z</time>
      </trkpt>
      <trkpt lat="45.93956" lon="6.14393">
        <ele>499.54</ele>
        <time>2020-05-18T15:06:58Z</time>
      </trkpt>
      <trkpt lat="45.93954" lon="6.14399">
        <ele>500.98</ele>
        <time>2020-05-18T15:07:08Z</time>
      </trkpt>
      <trkpt lat="45.93937" lon="6.14415">
        <ele>501.95</ele>
        <time>2020-05-18T15:07:14Z</time>
      </trkpt>
      <trkpt lat="45.93931" lon="6.14428">
        <ele>501.46</ele>
        <time>2020-05-18T15:07:16Z</time>
      </trkpt>
      <trkpt lat="45.93931" lon="6.14438">
        <ele>501.46</ele>
        <time>2020-05-18T15:07:17Z</time>
      </trkpt>
      <trkpt lat="45.93949" lon="6.14455">
        <ele>501.46</ele>
        <time>2020-05-18T15:07:19Z</time>
      </trkpt>
      <trkpt lat="45.93975" lon="6.14527">
        <ele>500.98</ele>
        <time>2020-05-18T15:07:22Z</time>
      </trkpt>
      <trkpt lat="45.94058" lon="6.14678">
        <ele>500.5</ele>
        <time>2020-05-18T15:07:32Z</time>
      </trkpt>
      <trkpt lat="45.94168" lon="6.14901">
        <ele>500.02</ele>
        <time>2020-05-18T15:07:48Z</time>
      </trkpt>
      <trkpt lat="45.94238" lon="6.15075">
        <ele>500.5</ele>
        <time>2020-05-18T15:07:58Z</time>
      </trkpt>
      <trkpt lat="45.94242" lon="6.15086">
        <ele>500.98</ele>
        <time>2020-05-18T15:08:00Z</time>
      </trkpt>
      <trkpt lat="45.9424" lon="6.15106">
        <ele>501.46</ele>
        <time>2020-05-18T15:08:01Z</time>
      </trkpt>
      <trkpt lat="45.9424" lon="6.15115">
        <ele>501.46</ele>
        <time>2020-05-18T15:08:02Z</time>
      </trkpt>
      <trkpt lat="45.94253" lon="6.15138">
        <ele>501.46</ele>
        <time>2020-05-18T15:08:03Z</time>
      </trkpt>
      <trkpt lat="45.94266" lon="6.15144">
        <ele>501.95</ele>
        <time>2020-05-18T15:08:05Z</time>
      </trkpt>
      <trkpt lat="45.94273" lon="6.15161">
        <ele>501.95</ele>
        <time>2020-05-18T15:08:06Z</time>
      </trkpt>
      <trkpt lat="45.94326" lon="6.15267">
        <ele>502.43</ele>
        <time>2020-05-18T15:08:12Z</time>
      </trkpt>
      <trkpt lat="45.94439" lon="6.1543">
        <ele>503.87</ele>
        <time>2020-05-18T15:08:26Z</time>
      </trkpt>
      <trkpt lat="45.94464" lon="6.15466">
        <ele>504.35</ele>
        <time>2020-05-18T15:08:29Z</time>
      </trkpt>
      <trkpt lat="45.94472" lon="6.15477">
        <ele>504.83</ele>
        <time>2020-05-18T15:08:30Z</time>
      </trkpt>
      <trkpt lat="45.94481" lon="6.15489">
        <ele>505.31</ele>
        <time>2020-05-18T15:08:31Z</time>
      </trkpt>
      <trkpt lat="45.94577" lon="6.15626">
        <ele>506.75</ele>
        <time>2020-05-18T15:08:42Z</time>
      </trkpt>
      <trkpt lat="45.94634" lon="6.15704">
        <ele>507.23</ele>
        <time>2020-05-18T15:08:45Z</time>
      </trkpt>
      <trkpt lat="45.94759" lon="6.15883">
        <ele>508.67</ele>
        <time>2020-05-18T15:08:50Z</time>
      </trkpt>
      <trkpt lat="45.94836" lon="6.16022">
        <ele>513</ele>
        <time>2020-05-18T15:08:55Z</time>
      </trkpt>
      <trkpt lat="45.94857" lon="6.16055">
        <ele>515.4</ele>
        <time>2020-05-18T15:08:58Z</time>
      </trkpt>
      <trkpt lat="45.94879" lon="6.16083">
        <ele>515.4</ele>
        <time>2020-05-18T15:08:59Z</time>
      </trkpt>
      <trkpt lat="45.94891" lon="6.16093">
        <ele>515.88</ele>
        <time>2020-05-18T15:09:00Z</time>
      </trkpt>
      <trkpt lat="45.94905" lon="6.16103">
        <ele>516.37</ele>
        <time>2020-05-18T15:09:01Z</time>
      </trkpt>
      <trkpt lat="45.94919" lon="6.16109">
        <ele>516.37</ele>
        <time>2020-05-18T15:09:02Z</time>
      </trkpt>
      <trkpt lat="45.94934" lon="6.16112">
        <ele>516.37</ele>
        <time>2020-05-18T15:09:03Z</time>
      </trkpt>
      <trkpt lat="45.94949" lon="6.16114">
        <ele>516.37</ele>
        <time>2020-05-18T15:09:04Z</time>
      </trkpt>
      <trkpt lat="45.94965" lon="6.16112">
        <ele>516.37</ele>
        <time>2020-05-18T15:09:05Z</time>
      </trkpt>
      <trkpt lat="45.9498" lon="6.1611">
        <ele>516.37</ele>
        <time>2020-05-18T15:09:06Z</time>
      </trkpt>
      <trkpt lat="45.95011" lon="6.16109">
        <ele>516.85</ele>
        <time>2020-05-18T15:09:08Z</time>
      </trkpt>
      <trkpt lat="45.95026" lon="6.16114">
        <ele>516.85</ele>
        <time>2020-05-18T15:09:09Z</time>
      </trkpt>
      <trkpt lat="45.95041" lon="6.16123">
        <ele>516.37</ele>
        <time>2020-05-18T15:09:10Z</time>
      </trkpt>
      <trkpt lat="45.95055" lon="6.16136">
        <ele>516.37</ele>
        <time>2020-05-18T15:09:11Z</time>
      </trkpt>
      <trkpt lat="45.95069" lon="6.16149">
        <ele>516.37</ele>
        <time>2020-05-18T15:09:12Z</time>
      </trkpt>
      <trkpt lat="45.95143" lon="6.16201">
        <ele>515.4</ele>
        <time>2020-05-18T15:09:17Z</time>
      </trkpt>
      <trkpt lat="45.95158" lon="6.16206">
        <ele>514.92</ele>
        <time>2020-05-18T15:09:18Z</time>
      </trkpt>
      <trkpt lat="45.95175" lon="6.16209">
        <ele>513.96</ele>
        <time>2020-05-18T15:09:20Z</time>
      </trkpt>
      <trkpt lat="45.95236" lon="6.16223">
        <ele>513.48</ele>
        <time>2020-05-18T15:09:23Z</time>
      </trkpt>
      <trkpt lat="45.95251" lon="6.16228">
        <ele>513.48</ele>
        <time>2020-05-18T15:09:24Z</time>
      </trkpt>
      <trkpt lat="45.95265" lon="6.16239">
        <ele>513.48</ele>
        <time>2020-05-18T15:09:25Z</time>
      </trkpt>
      <trkpt lat="45.95336" lon="6.16291">
        <ele>511.56</ele>
        <time>2020-05-18T15:09:30Z</time>
      </trkpt>
      <trkpt lat="45.95367" lon="6.16304">
        <ele>511.08</ele>
        <time>2020-05-18T15:09:32Z</time>
      </trkpt>
      <trkpt lat="45.95506" lon="6.16345">
        <ele>512.04</ele>
        <time>2020-05-18T15:09:41Z</time>
      </trkpt>
      <trkpt lat="45.95647" lon="6.16389">
        <ele>513</ele>
        <time>2020-05-18T15:09:51Z</time>
      </trkpt>
      <trkpt lat="45.95805" lon="6.16444">
        <ele>509.64</ele>
        <time>2020-05-18T15:10:03Z</time>
      </trkpt>
      <trkpt lat="45.95837" lon="6.16457">
        <ele>508.67</ele>
        <time>2020-05-18T15:10:07Z</time>
      </trkpt>
      <trkpt lat="45.95878" lon="6.16477">
        <ele>505.79</ele>
        <time>2020-05-18T15:10:15Z</time>
      </trkpt>
      <trkpt lat="45.9589" lon="6.16487">
        <ele>504.35</ele>
        <time>2020-05-18T15:10:19Z</time>
      </trkpt>
      <trkpt lat="45.95894" lon="6.1649">
        <ele>504.35</ele>
        <time>2020-05-18T15:10:20Z</time>
      </trkpt>
      <trkpt lat="45.95898" lon="6.16494">
        <ele>504.35</ele>
        <time>2020-05-18T15:10:21Z</time>
      </trkpt>
      <trkpt lat="45.95915" lon="6.16508">
        <ele>504.35</ele>
        <time>2020-05-18T15:10:25Z</time>
      </trkpt>
      <trkpt lat="45.95948" lon="6.16569">
        <ele>504.83</ele>
        <time>2020-05-18T15:10:37Z</time>
      </trkpt>
      <trkpt lat="45.95949" lon="6.16577">
        <ele>505.31</ele>
        <time>2020-05-18T15:10:39Z</time>
      </trkpt>
      <trkpt lat="45.95954" lon="6.16587">
        <ele>504.83</ele>
        <time>2020-05-18T15:10:40Z</time>
      </trkpt>
      <trkpt lat="45.95961" lon="6.16592">
        <ele>505.31</ele>
        <time>2020-05-18T15:10:41Z</time>
      </trkpt>
      <trkpt lat="45.95967" lon="6.16594">
        <ele>505.31</ele>
        <time>2020-05-18T15:10:42Z</time>
      </trkpt>
      <trkpt lat="45.95975" lon="6.16589">
        <ele>505.31</ele>
        <time>2020-05-18T15:10:43Z</time>
      </trkpt>
      <trkpt lat="45.9598" lon="6.16584">
        <ele>505.31</ele>
        <time>2020-05-18T15:10:44Z</time>
      </trkpt>
      <trkpt lat="45.95982" lon="6.16582">
        <ele>505.79</ele>
        <time>2020-05-18T15:10:45Z</time>
      </trkpt>
      <trkpt lat="45.95989" lon="6.16563">
        <ele>505.79</ele>
        <time>2020-05-18T15:10:47Z</time>
      </trkpt>
      <trkpt lat="45.95999" lon="6.16564">
        <ele>505.79</ele>
        <time>2020-05-18T15:10:48Z</time>
      </trkpt>
      <trkpt lat="45.96026" lon="6.16566">
        <ele>506.27</ele>
        <time>2020-05-18T15:10:49Z</time>
      </trkpt>
      <trkpt lat="45.96116" lon="6.1657">
        <ele>507.71</ele>
        <time>2020-05-18T15:10:57Z</time>
      </trkpt>
      <trkpt lat="45.96244" lon="6.16552">
        <ele>509.64</ele>
        <time>2020-05-18T15:11:10Z</time>
      </trkpt>
      <trkpt lat="45.9634" lon="6.16525">
        <ele>510.12</ele>
        <time>2020-05-18T15:11:19Z</time>
      </trkpt>
      <trkpt lat="45.96358" lon="6.16519">
        <ele>510.6</ele>
        <time>2020-05-18T15:11:20Z</time>
      </trkpt>
      <trkpt lat="45.96641" lon="6.1643">
        <ele>512.04</ele>
        <time>2020-05-18T15:11:36Z</time>
      </trkpt>
      <trkpt lat="45.9675" lon="6.16396">
        <ele>510.12</ele>
        <time>2020-05-18T15:11:44Z</time>
      </trkpt>
      <trkpt lat="45.96829" lon="6.16379">
        <ele>509.16</ele>
        <time>2020-05-18T15:11:52Z</time>
      </trkpt>
      <trkpt lat="45.96933" lon="6.16382">
        <ele>507.23</ele>
        <time>2020-05-18T15:12:01Z</time>
      </trkpt>
      <trkpt lat="45.97034" lon="6.16387">
        <ele>507.23</ele>
        <time>2020-05-18T15:12:05Z</time>
      </trkpt>
      <trkpt lat="45.97279" lon="6.164">
        <ele>508.19</ele>
        <time>2020-05-18T15:12:17Z</time>
      </trkpt>
      <trkpt lat="45.97426" lon="6.16408">
        <ele>510.6</ele>
        <time>2020-05-18T15:12:26Z</time>
      </trkpt>
      <trkpt lat="45.97581" lon="6.16416">
        <ele>514.92</ele>
        <time>2020-05-18T15:12:37Z</time>
      </trkpt>
      <trkpt lat="45.97702" lon="6.16422">
        <ele>517.33</ele>
        <time>2020-05-18T15:12:47Z</time>
      </trkpt>
      <trkpt lat="45.97725" lon="6.16423">
        <ele>517.33</ele>
        <time>2020-05-18T15:12:52Z</time>
      </trkpt>
      <trkpt lat="45.97726" lon="6.16416">
        <ele>517.81</ele>
        <time>2020-05-18T15:12:54Z</time>
      </trkpt>
      <trkpt lat="45.97727" lon="6.1641">
        <ele>517.81</ele>
        <time>2020-05-18T15:12:55Z</time>
      </trkpt>
      <trkpt lat="45.97735" lon="6.16393">
        <ele>518.29</ele>
        <time>2020-05-18T15:12:57Z</time>
      </trkpt>
      <trkpt lat="45.97735" lon="6.16365">
        <ele>518.77</ele>
        <time>2020-05-18T15:12:58Z</time>
      </trkpt>
      <trkpt lat="45.97739" lon="6.16337">
        <ele>521.65</ele>
        <time>2020-05-18T15:13:01Z</time>
      </trkpt>
      <trkpt lat="45.9774" lon="6.16305">
        <ele>522.13</ele>
        <time>2020-05-18T15:13:02Z</time>
      </trkpt>
      <trkpt lat="45.97736" lon="6.16293">
        <ele>523.09</ele>
        <time>2020-05-18T15:13:03Z</time>
      </trkpt>
      <trkpt lat="45.97731" lon="6.16279">
        <ele>523.58</ele>
        <time>2020-05-18T15:13:04Z</time>
      </trkpt>
      <trkpt lat="45.97724" lon="6.16262">
        <ele>524.54</ele>
        <time>2020-05-18T15:13:05Z</time>
      </trkpt>
      <trkpt lat="45.97717" lon="6.16246">
        <ele>525.02</ele>
        <time>2020-05-18T15:13:06Z</time>
      </trkpt>
      <trkpt lat="45.97711" lon="6.16231">
        <ele>525.5</ele>
        <time>2020-05-18T15:13:07Z</time>
      </trkpt>
      <trkpt lat="45.97704" lon="6.16217">
        <ele>525.98</ele>
        <time>2020-05-18T15:13:08Z</time>
      </trkpt>
      <trkpt lat="45.97699" lon="6.16204">
        <ele>526.46</ele>
        <time>2020-05-18T15:13:09Z</time>
      </trkpt>
      <trkpt lat="45.977" lon="6.16188">
        <ele>528.38</ele>
        <time>2020-05-18T15:13:11Z</time>
      </trkpt>
      <trkpt lat="45.977" lon="6.16162">
        <ele>528.86</ele>
        <time>2020-05-18T15:13:12Z</time>
      </trkpt>
      <trkpt lat="45.97701" lon="6.16149">
        <ele>529.34</ele>
        <time>2020-05-18T15:13:13Z</time>
      </trkpt>
      <trkpt lat="45.97702" lon="6.16131">
        <ele>530.3</ele>
        <time>2020-05-18T15:13:14Z</time>
      </trkpt>
      <trkpt lat="45.9771" lon="6.16123">
        <ele>530.79</ele>
        <time>2020-05-18T15:13:15Z</time>
      </trkpt>
      <trkpt lat="45.97718" lon="6.16113">
        <ele>531.75</ele>
        <time>2020-05-18T15:13:16Z</time>
      </trkpt>
      <trkpt lat="45.97728" lon="6.16103">
        <ele>532.71</ele>
        <time>2020-05-18T15:13:17Z</time>
      </trkpt>
      <trkpt lat="45.97736" lon="6.16094">
        <ele>534.63</ele>
        <time>2020-05-18T15:13:19Z</time>
      </trkpt>
      <trkpt lat="45.97761" lon="6.16071">
        <ele>537.51</ele>
        <time>2020-05-18T15:13:22Z</time>
      </trkpt>
      <trkpt lat="45.97781" lon="6.16059">
        <ele>539.44</ele>
        <time>2020-05-18T15:13:24Z</time>
      </trkpt>
      <trkpt lat="45.97783" lon="6.16043">
        <ele>539.92</ele>
        <time>2020-05-18T15:13:25Z</time>
      </trkpt>
      <trkpt lat="45.97786" lon="6.16038">
        <ele>541.36</ele>
        <time>2020-05-18T15:13:26Z</time>
      </trkpt>
      <trkpt lat="45.97792" lon="6.16028">
        <ele>542.8</ele>
        <time>2020-05-18T15:13:27Z</time>
      </trkpt>
      <trkpt lat="45.97798" lon="6.16018">
        <ele>544.24</ele>
        <time>2020-05-18T15:13:28Z</time>
      </trkpt>
      <trkpt lat="45.97803" lon="6.1601">
        <ele>545.69</ele>
        <time>2020-05-18T15:13:29Z</time>
      </trkpt>
      <trkpt lat="45.97807" lon="6.16003">
        <ele>547.13</ele>
        <time>2020-05-18T15:13:30Z</time>
      </trkpt>
      <trkpt lat="45.9781" lon="6.15997">
        <ele>548.57</ele>
        <time>2020-05-18T15:13:31Z</time>
      </trkpt>
      <trkpt lat="45.97813" lon="6.15992">
        <ele>550.01</ele>
        <time>2020-05-18T15:13:32Z</time>
      </trkpt>
      <trkpt lat="45.97817" lon="6.15985">
        <ele>551.45</ele>
        <time>2020-05-18T15:13:33Z</time>
      </trkpt>
      <trkpt lat="45.97817" lon="6.15968">
        <ele>552.41</ele>
        <time>2020-05-18T15:13:34Z</time>
      </trkpt>
      <trkpt lat="45.97815" lon="6.15966">
        <ele>553.38</ele>
        <time>2020-05-18T15:13:35Z</time>
      </trkpt>
      <trkpt lat="45.97817" lon="6.15968">
        <ele>557.7</ele>
        <time>2020-05-18T15:13:42Z</time>
      </trkpt>
      <trkpt lat="45.97817" lon="6.15968">
        <ele>559.14</ele>
        <time>2020-05-18T15:13:50Z</time>
      </trkpt>
      <trkpt lat="45.97805" lon="6.15977">
        <ele>560.59</ele>
        <time>2020-05-18T15:13:52Z</time>
      </trkpt>
      <trkpt lat="45.97817" lon="6.15985">
        <ele>563.47</ele>
        <time>2020-05-18T15:13:56Z</time>
      </trkpt>
      <trkpt lat="45.97812" lon="6.15994">
        <ele>563.47</ele>
        <time>2020-05-18T15:13:58Z</time>
      </trkpt>
      <trkpt lat="45.97789" lon="6.16033">
        <ele>562.51</ele>
        <time>2020-05-18T15:14:01Z</time>
      </trkpt>
      <trkpt lat="45.97761" lon="6.16071">
        <ele>557.7</ele>
        <time>2020-05-18T15:14:06Z</time>
      </trkpt>
      <trkpt lat="45.97729" lon="6.16102">
        <ele>554.82</ele>
        <time>2020-05-18T15:14:10Z</time>
      </trkpt>
      <trkpt lat="45.97711" lon="6.16121">
        <ele>552.41</ele>
        <time>2020-05-18T15:14:12Z</time>
      </trkpt>
      <trkpt lat="45.97702" lon="6.1613">
        <ele>551.45</ele>
        <time>2020-05-18T15:14:13Z</time>
      </trkpt>
      <trkpt lat="45.97701" lon="6.16148">
        <ele>550.01</ele>
        <time>2020-05-18T15:14:14Z</time>
      </trkpt>
      <trkpt lat="45.977" lon="6.16165">
        <ele>548.09</ele>
        <time>2020-05-18T15:14:16Z</time>
      </trkpt>
      <trkpt lat="45.97699" lon="6.162">
        <ele>546.65</ele>
        <time>2020-05-18T15:14:17Z</time>
      </trkpt>
      <trkpt lat="45.97705" lon="6.16218">
        <ele>545.2</ele>
        <time>2020-05-18T15:14:18Z</time>
      </trkpt>
      <trkpt lat="45.97712" lon="6.16235">
        <ele>543.76</ele>
        <time>2020-05-18T15:14:19Z</time>
      </trkpt>
      <trkpt lat="45.97738" lon="6.16301">
        <ele>538.96</ele>
        <time>2020-05-18T15:14:23Z</time>
      </trkpt>
      <trkpt lat="45.9774" lon="6.16319">
        <ele>537.51</ele>
        <time>2020-05-18T15:14:24Z</time>
      </trkpt>
      <trkpt lat="45.97739" lon="6.16335">
        <ele>536.07</ele>
        <time>2020-05-18T15:14:25Z</time>
      </trkpt>
      <trkpt lat="45.97737" lon="6.1635">
        <ele>534.63</ele>
        <time>2020-05-18T15:14:26Z</time>
      </trkpt>
      <trkpt lat="45.97735" lon="6.16366">
        <ele>533.19</ele>
        <time>2020-05-18T15:14:27Z</time>
      </trkpt>
      <trkpt lat="45.97733" lon="6.16381">
        <ele>530.3</ele>
        <time>2020-05-18T15:14:29Z</time>
      </trkpt>
      <trkpt lat="45.9773" lon="6.16393">
        <ele>528.86</ele>
        <time>2020-05-18T15:14:30Z</time>
      </trkpt>
      <trkpt lat="45.97728" lon="6.16403">
        <ele>527.42</ele>
        <time>2020-05-18T15:14:31Z</time>
      </trkpt>
      <trkpt lat="45.97727" lon="6.16414">
        <ele>525.02</ele>
        <time>2020-05-18T15:14:37Z</time>
      </trkpt>
      <trkpt lat="45.9773" lon="6.16423">
        <ele>523.09</ele>
        <time>2020-05-18T15:14:52Z</time>
      </trkpt>
      <trkpt lat="45.97734" lon="6.16423">
        <ele>522.61</ele>
        <time>2020-05-18T15:14:53Z</time>
      </trkpt>
      <trkpt lat="45.97754" lon="6.16423">
        <ele>521.17</ele>
        <time>2020-05-18T15:14:54Z</time>
      </trkpt>
      <trkpt lat="45.97767" lon="6.16423">
        <ele>520.69</ele>
        <time>2020-05-18T15:14:55Z</time>
      </trkpt>
      <trkpt lat="45.97852" lon="6.1643">
        <ele>522.13</ele>
        <time>2020-05-18T15:15:04Z</time>
      </trkpt>
      <trkpt lat="45.97958" lon="6.16442">
        <ele>522.13</ele>
        <time>2020-05-18T15:15:12Z</time>
      </trkpt>
      <trkpt lat="45.98173" lon="6.16505">
        <ele>524.54</ele>
        <time>2020-05-18T15:15:24Z</time>
      </trkpt>
      <trkpt lat="45.98397" lon="6.16602">
        <ele>524.54</ele>
        <time>2020-05-18T15:15:36Z</time>
      </trkpt>
      <trkpt lat="45.98557" lon="6.16708">
        <ele>525.5</ele>
        <time>2020-05-18T15:15:45Z</time>
      </trkpt>
      <trkpt lat="45.9871" lon="6.16856">
        <ele>528.38</ele>
        <time>2020-05-18T15:15:55Z</time>
      </trkpt>
      <trkpt lat="45.98874" lon="6.16972">
        <ele>528.38</ele>
        <time>2020-05-18T15:16:05Z</time>
      </trkpt>
      <trkpt lat="45.99056" lon="6.17094">
        <ele>527.9</ele>
        <time>2020-05-18T15:16:17Z</time>
      </trkpt>
      <trkpt lat="45.99238" lon="6.17233">
        <ele>529.82</ele>
        <time>2020-05-18T15:16:29Z</time>
      </trkpt>
      <trkpt lat="45.99396" lon="6.17364">
        <ele>536.55</ele>
        <time>2020-05-18T15:16:40Z</time>
      </trkpt>
      <trkpt lat="45.99484" lon="6.17414">
        <ele>540.88</ele>
        <time>2020-05-18T15:16:46Z</time>
      </trkpt>
      <trkpt lat="45.99594" lon="6.17513">
        <ele>543.28</ele>
        <time>2020-05-18T15:16:56Z</time>
      </trkpt>
      <trkpt lat="45.99655" lon="6.17576">
        <ele>542.32</ele>
        <time>2020-05-18T15:17:01Z</time>
      </trkpt>
      <trkpt lat="45.99818" lon="6.17793">
        <ele>541.36</ele>
        <time>2020-05-18T15:17:15Z</time>
      </trkpt>
      <trkpt lat="45.99899" lon="6.17902">
        <ele>541.84</ele>
        <time>2020-05-18T15:17:24Z</time>
      </trkpt>
      <trkpt lat="45.9996" lon="6.17986">
        <ele>543.28</ele>
        <time>2020-05-18T15:17:34Z</time>
      </trkpt>
      <trkpt lat="45.99976" lon="6.18007">
        <ele>543.28</ele>
        <time>2020-05-18T15:17:40Z</time>
      </trkpt>
      <trkpt lat="45.99977" lon="6.18014">
        <ele>543.28</ele>
        <time>2020-05-18T15:17:41Z</time>
      </trkpt>
      <trkpt lat="45.99979" lon="6.18022">
        <ele>543.28</ele>
        <time>2020-05-18T15:17:42Z</time>
      </trkpt>
      <trkpt lat="45.99991" lon="6.18028">
        <ele>543.76</ele>
        <time>2020-05-18T15:17:44Z</time>
      </trkpt>
      <trkpt lat="45.99994" lon="6.18034">
        <ele>543.28</ele>
        <time>2020-05-18T15:17:45Z</time>
      </trkpt>
      <trkpt lat="46.00003" lon="6.18046">
        <ele>543.28</ele>
        <time>2020-05-18T15:17:46Z</time>
      </trkpt>
      <trkpt lat="46.00013" lon="6.18059">
        <ele>543.28</ele>
        <time>2020-05-18T15:17:47Z</time>
      </trkpt>
      <trkpt lat="46.00117" lon="6.18203">
        <ele>545.69</ele>
        <time>2020-05-18T15:17:55Z</time>
      </trkpt>
      <trkpt lat="46.002" lon="6.18367">
        <ele>546.65</ele>
        <time>2020-05-18T15:18:03Z</time>
      </trkpt>
      <trkpt lat="46.00271" lon="6.18634">
        <ele>545.69</ele>
        <time>2020-05-18T15:18:14Z</time>
      </trkpt>
      <trkpt lat="46.00314" lon="6.18766">
        <ele>546.65</ele>
        <time>2020-05-18T15:18:18Z</time>
      </trkpt>
      <trkpt lat="46.00324" lon="6.18787">
        <ele>547.61</ele>
        <time>2020-05-18T15:18:19Z</time>
      </trkpt>
      <trkpt lat="46.00336" lon="6.18804">
        <ele>548.57</ele>
        <time>2020-05-18T15:18:20Z</time>
      </trkpt>
      <trkpt lat="46.00351" lon="6.18837">
        <ele>551.45</ele>
        <time>2020-05-18T15:18:23Z</time>
      </trkpt>
      <trkpt lat="46.00356" lon="6.18852">
        <ele>552.41</ele>
        <time>2020-05-18T15:18:24Z</time>
      </trkpt>
      <trkpt lat="46.00362" lon="6.18887">
        <ele>552.9</ele>
        <time>2020-05-18T15:18:25Z</time>
      </trkpt>
      <trkpt lat="46.0036" lon="6.18897">
        <ele>553.38</ele>
        <time>2020-05-18T15:18:26Z</time>
      </trkpt>
      <trkpt lat="46.00358" lon="6.18911">
        <ele>553.38</ele>
        <time>2020-05-18T15:18:27Z</time>
      </trkpt>
      <trkpt lat="46.00362" lon="6.18924">
        <ele>554.34</ele>
        <time>2020-05-18T15:18:29Z</time>
      </trkpt>
      <trkpt lat="46.00379" lon="6.18942">
        <ele>554.34</ele>
        <time>2020-05-18T15:18:30Z</time>
      </trkpt>
      <trkpt lat="46.00385" lon="6.18946">
        <ele>554.34</ele>
        <time>2020-05-18T15:18:31Z</time>
      </trkpt>
      <trkpt lat="46.0039" lon="6.18949">
        <ele>554.82</ele>
        <time>2020-05-18T15:18:32Z</time>
      </trkpt>
      <trkpt lat="46.00394" lon="6.18951">
        <ele>554.82</ele>
        <time>2020-05-18T15:18:33Z</time>
      </trkpt>
      <trkpt lat="46.00399" lon="6.18964">
        <ele>555.3</ele>
        <time>2020-05-18T15:18:35Z</time>
      </trkpt>
      <trkpt lat="46.00397" lon="6.18973">
        <ele>555.78</ele>
        <time>2020-05-18T15:18:36Z</time>
      </trkpt>
      <trkpt lat="46.00373" lon="6.19079">
        <ele>559.14</ele>
        <time>2020-05-18T15:18:40Z</time>
      </trkpt>
      <trkpt lat="46.00331" lon="6.19289">
        <ele>561.55</ele>
        <time>2020-05-18T15:18:46Z</time>
      </trkpt>
      <trkpt lat="46.0029" lon="6.19545">
        <ele>563.47</ele>
        <time>2020-05-18T15:18:53Z</time>
      </trkpt>
      <trkpt lat="46.00284" lon="6.19737">
        <ele>563.95</ele>
        <time>2020-05-18T15:19:00Z</time>
      </trkpt>
      <trkpt lat="46.00278" lon="6.19796">
        <ele>564.43</ele>
        <time>2020-05-18T15:19:02Z</time>
      </trkpt>
      <trkpt lat="46.00211" lon="6.19976">
        <ele>567.8</ele>
        <time>2020-05-18T15:19:09Z</time>
      </trkpt>
      <trkpt lat="46.00201" lon="6.20002">
        <ele>569.24</ele>
        <time>2020-05-18T15:19:12Z</time>
      </trkpt>
      <trkpt lat="46.00195" lon="6.20017">
        <ele>569.72</ele>
        <time>2020-05-18T15:19:14Z</time>
      </trkpt>
      <trkpt lat="46.00185" lon="6.19999">
        <ele>569.24</ele>
        <time>2020-05-18T15:19:21Z</time>
      </trkpt>
      <trkpt lat="46.00181" lon="6.19993">
        <ele>569.24</ele>
        <time>2020-05-18T15:19:28Z</time>
      </trkpt>
      <trkpt lat="46.0018" lon="6.19993">
        <ele>570.68</ele>
        <time>2020-05-18T15:19:41Z</time>
      </trkpt>
      <trkpt lat="46.00181" lon="6.19995">
        <ele>549.53</ele>
        <time>2020-05-18T15:56:46Z</time>
      </trkpt>
      <trkpt lat="46.00182" lon="6.19995">
        <ele>579.81</ele>
        <time>2020-05-18T15:57:28Z</time>
      </trkpt>
      <trkpt lat="46.00181" lon="6.19994">
        <ele>578.85</ele>
        <time>2020-05-18T15:57:31Z</time>
      </trkpt>
      <trkpt lat="46.00195" lon="6.20016">
        <ele>578.37</ele>
        <time>2020-05-18T15:57:35Z</time>
      </trkpt>
      <trkpt lat="46.00194" lon="6.20019">
        <ele>578.37</ele>
        <time>2020-05-18T15:57:36Z</time>
      </trkpt>
      <trkpt lat="46.00194" lon="6.20021">
        <ele>578.37</ele>
        <time>2020-05-18T15:57:37Z</time>
      </trkpt>
      <trkpt lat="46.00192" lon="6.20024">
        <ele>578.37</ele>
        <time>2020-05-18T15:57:38Z</time>
      </trkpt>
      <trkpt lat="46.00188" lon="6.20021">
        <ele>578.37</ele>
        <time>2020-05-18T15:57:42Z</time>
      </trkpt>
      <trkpt lat="46.00196" lon="6.20015">
        <ele>578.37</ele>
        <time>2020-05-18T15:57:45Z</time>
      </trkpt>
      <trkpt lat="46.00199" lon="6.20006">
        <ele>578.37</ele>
        <time>2020-05-18T15:57:46Z</time>
      </trkpt>
      <trkpt lat="46.00229" lon="6.19927">
        <ele>577.41</ele>
        <time>2020-05-18T15:57:51Z</time>
      </trkpt>
      <trkpt lat="46.00279" lon="6.19789">
        <ele>574.53</ele>
        <time>2020-05-18T15:57:57Z</time>
      </trkpt>
      <trkpt lat="46.00281" lon="6.19764">
        <ele>574.04</ele>
        <time>2020-05-18T15:57:58Z</time>
      </trkpt>
      <trkpt lat="46.00284" lon="6.19737">
        <ele>574.04</ele>
        <time>2020-05-18T15:57:59Z</time>
      </trkpt>
      <trkpt lat="46.00292" lon="6.19501">
        <ele>573.08</ele>
        <time>2020-05-18T15:58:06Z</time>
      </trkpt>
      <trkpt lat="46.00333" lon="6.19281">
        <ele>572.12</ele>
        <time>2020-05-18T15:58:12Z</time>
      </trkpt>
      <trkpt lat="46.00379" lon="6.19053">
        <ele>569.24</ele>
        <time>2020-05-18T15:58:20Z</time>
      </trkpt>
      <trkpt lat="46.00398" lon="6.18968">
        <ele>564.43</ele>
        <time>2020-05-18T15:58:25Z</time>
      </trkpt>
      <trkpt lat="46.00401" lon="6.18955">
        <ele>562.03</ele>
        <time>2020-05-18T15:58:28Z</time>
      </trkpt>
      <trkpt lat="46.00395" lon="6.18952">
        <ele>561.07</ele>
        <time>2020-05-18T15:58:29Z</time>
      </trkpt>
      <trkpt lat="46.0039" lon="6.18949">
        <ele>559.62</ele>
        <time>2020-05-18T15:58:30Z</time>
      </trkpt>
      <trkpt lat="46.00368" lon="6.18932">
        <ele>557.22</ele>
        <time>2020-05-18T15:58:33Z</time>
      </trkpt>
      <trkpt lat="46.00361" lon="6.18893">
        <ele>557.22</ele>
        <time>2020-05-18T15:58:36Z</time>
      </trkpt>
      <trkpt lat="46.00377" lon="6.18878">
        <ele>557.7</ele>
        <time>2020-05-18T15:58:38Z</time>
      </trkpt>
      <trkpt lat="46.00381" lon="6.18876">
        <ele>558.18</ele>
        <time>2020-05-18T15:58:39Z</time>
      </trkpt>
      <trkpt lat="46.00394" lon="6.18882">
        <ele>558.66</ele>
        <time>2020-05-18T15:58:40Z</time>
      </trkpt>
      <trkpt lat="46.00405" lon="6.18888">
        <ele>559.62</ele>
        <time>2020-05-18T15:58:41Z</time>
      </trkpt>
      <trkpt lat="46.00421" lon="6.18896">
        <ele>560.59</ele>
        <time>2020-05-18T15:58:42Z</time>
      </trkpt>
      <trkpt lat="46.00456" lon="6.18936">
        <ele>562.03</ele>
        <time>2020-05-18T15:58:44Z</time>
      </trkpt>
      <trkpt lat="46.00474" lon="6.1896">
        <ele>562.51</ele>
        <time>2020-05-18T15:58:45Z</time>
      </trkpt>
      <trkpt lat="46.00492" lon="6.18985">
        <ele>563.47</ele>
        <time>2020-05-18T15:58:46Z</time>
      </trkpt>
      <trkpt lat="46.00588" lon="6.19209">
        <ele>575.01</ele>
        <time>2020-05-18T15:58:54Z</time>
      </trkpt>
      <trkpt lat="46.00651" lon="6.19392">
        <ele>586.54</ele>
        <time>2020-05-18T15:59:01Z</time>
      </trkpt>
      <trkpt lat="46.00686" lon="6.19483">
        <ele>593.27</ele>
        <time>2020-05-18T15:59:06Z</time>
      </trkpt>
      <trkpt lat="46.00691" lon="6.19496">
        <ele>594.23</ele>
        <time>2020-05-18T15:59:07Z</time>
      </trkpt>
      <trkpt lat="46.00694" lon="6.1951">
        <ele>595.19</ele>
        <time>2020-05-18T15:59:08Z</time>
      </trkpt>
      <trkpt lat="46.00692" lon="6.1953">
        <ele>596.15</ele>
        <time>2020-05-18T15:59:09Z</time>
      </trkpt>
      <trkpt lat="46.00685" lon="6.1954">
        <ele>596.64</ele>
        <time>2020-05-18T15:59:10Z</time>
      </trkpt>
      <trkpt lat="46.00675" lon="6.19538">
        <ele>596.64</ele>
        <time>2020-05-18T15:59:11Z</time>
      </trkpt>
      <trkpt lat="46.00667" lon="6.19535">
        <ele>597.12</ele>
        <time>2020-05-18T15:59:12Z</time>
      </trkpt>
      <trkpt lat="46.00659" lon="6.19517">
        <ele>598.08</ele>
        <time>2020-05-18T15:59:13Z</time>
      </trkpt>
      <trkpt lat="46.00651" lon="6.19501">
        <ele>598.56</ele>
        <time>2020-05-18T15:59:14Z</time>
      </trkpt>
      <trkpt lat="46.00643" lon="6.19483">
        <ele>599.04</ele>
        <time>2020-05-18T15:59:15Z</time>
      </trkpt>
      <trkpt lat="46.0062" lon="6.19433">
        <ele>600.96</ele>
        <time>2020-05-18T15:59:18Z</time>
      </trkpt>
      <trkpt lat="46.00612" lon="6.19418">
        <ele>601.44</ele>
        <time>2020-05-18T15:59:19Z</time>
      </trkpt>
      <trkpt lat="46.00547" lon="6.19319">
        <ele>606.25</ele>
        <time>2020-05-18T15:59:26Z</time>
      </trkpt>
      <trkpt lat="46.00536" lon="6.19311">
        <ele>606.73</ele>
        <time>2020-05-18T15:59:27Z</time>
      </trkpt>
      <trkpt lat="46.00525" lon="6.19308">
        <ele>607.69</ele>
        <time>2020-05-18T15:59:28Z</time>
      </trkpt>
      <trkpt lat="46.00514" lon="6.1931">
        <ele>609.13</ele>
        <time>2020-05-18T15:59:29Z</time>
      </trkpt>
      <trkpt lat="46.00503" lon="6.19317">
        <ele>610.09</ele>
        <time>2020-05-18T15:59:30Z</time>
      </trkpt>
      <trkpt lat="46.00495" lon="6.19325">
        <ele>611.06</ele>
        <time>2020-05-18T15:59:31Z</time>
      </trkpt>
      <trkpt lat="46.00489" lon="6.19338">
        <ele>612.02</ele>
        <time>2020-05-18T15:59:32Z</time>
      </trkpt>
      <trkpt lat="46.00483" lon="6.19351">
        <ele>612.98</ele>
        <time>2020-05-18T15:59:33Z</time>
      </trkpt>
      <trkpt lat="46.0048" lon="6.19362">
        <ele>613.46</ele>
        <time>2020-05-18T15:59:34Z</time>
      </trkpt>
      <trkpt lat="46.0048" lon="6.19379">
        <ele>614.42</ele>
        <time>2020-05-18T15:59:35Z</time>
      </trkpt>
      <trkpt lat="46.00484" lon="6.19392">
        <ele>614.9</ele>
        <time>2020-05-18T15:59:36Z</time>
      </trkpt>
      <trkpt lat="46.00489" lon="6.19408">
        <ele>615.38</ele>
        <time>2020-05-18T15:59:37Z</time>
      </trkpt>
      <trkpt lat="46.00496" lon="6.19424">
        <ele>616.34</ele>
        <time>2020-05-18T15:59:38Z</time>
      </trkpt>
      <trkpt lat="46.00505" lon="6.19439">
        <ele>617.3</ele>
        <time>2020-05-18T15:59:39Z</time>
      </trkpt>
      <trkpt lat="46.00524" lon="6.19471">
        <ele>619.23</ele>
        <time>2020-05-18T15:59:41Z</time>
      </trkpt>
      <trkpt lat="46.00536" lon="6.19482">
        <ele>620.19</ele>
        <time>2020-05-18T15:59:42Z</time>
      </trkpt>
      <trkpt lat="46.00549" lon="6.19494">
        <ele>620.67</ele>
        <time>2020-05-18T15:59:43Z</time>
      </trkpt>
      <trkpt lat="46.00585" lon="6.19531">
        <ele>623.55</ele>
        <time>2020-05-18T15:59:46Z</time>
      </trkpt>
      <trkpt lat="46.00597" lon="6.19546">
        <ele>624.51</ele>
        <time>2020-05-18T15:59:47Z</time>
      </trkpt>
      <trkpt lat="46.00608" lon="6.19563">
        <ele>625.47</ele>
        <time>2020-05-18T15:59:48Z</time>
      </trkpt>
      <trkpt lat="46.00617" lon="6.19583">
        <ele>626.44</ele>
        <time>2020-05-18T15:59:49Z</time>
      </trkpt>
      <trkpt lat="46.00625" lon="6.19604">
        <ele>627.4</ele>
        <time>2020-05-18T15:59:50Z</time>
      </trkpt>
      <trkpt lat="46.00703" lon="6.19826">
        <ele>637.97</ele>
        <time>2020-05-18T16:00:00Z</time>
      </trkpt>
      <trkpt lat="46.00759" lon="6.20091">
        <ele>648.55</ele>
        <time>2020-05-18T16:00:11Z</time>
      </trkpt>
      <trkpt lat="46.00845" lon="6.20415">
        <ele>661.04</ele>
        <time>2020-05-18T16:00:25Z</time>
      </trkpt>
      <trkpt lat="46.0087" lon="6.20499">
        <ele>662.49</ele>
        <time>2020-05-18T16:00:29Z</time>
      </trkpt>
      <trkpt lat="46.00888" lon="6.20539">
        <ele>663.45</ele>
        <time>2020-05-18T16:00:31Z</time>
      </trkpt>
      <trkpt lat="46.00899" lon="6.20557">
        <ele>663.93</ele>
        <time>2020-05-18T16:00:32Z</time>
      </trkpt>
      <trkpt lat="46.00912" lon="6.20574">
        <ele>664.41</ele>
        <time>2020-05-18T16:00:33Z</time>
      </trkpt>
      <trkpt lat="46.01044" lon="6.20732">
        <ele>665.85</ele>
        <time>2020-05-18T16:00:42Z</time>
      </trkpt>
      <trkpt lat="46.01203" lon="6.20921">
        <ele>669.22</ele>
        <time>2020-05-18T16:00:52Z</time>
      </trkpt>
      <trkpt lat="46.01233" lon="6.20957">
        <ele>669.22</ele>
        <time>2020-05-18T16:00:54Z</time>
      </trkpt>
      <trkpt lat="46.01247" lon="6.20974">
        <ele>668.73</ele>
        <time>2020-05-18T16:00:55Z</time>
      </trkpt>
      <trkpt lat="46.01373" lon="6.2114">
        <ele>671.14</ele>
        <time>2020-05-18T16:01:04Z</time>
      </trkpt>
      <trkpt lat="46.01435" lon="6.21238">
        <ele>673.06</ele>
        <time>2020-05-18T16:01:09Z</time>
      </trkpt>
      <trkpt lat="46.0145" lon="6.21254">
        <ele>673.54</ele>
        <time>2020-05-18T16:01:10Z</time>
      </trkpt>
      <trkpt lat="46.01506" lon="6.21316">
        <ele>675.46</ele>
        <time>2020-05-18T16:01:14Z</time>
      </trkpt>
      <trkpt lat="46.0152" lon="6.21329">
        <ele>675.46</ele>
        <time>2020-05-18T16:01:15Z</time>
      </trkpt>
      <trkpt lat="46.0165" lon="6.21455">
        <ele>676.91</ele>
        <time>2020-05-18T16:01:24Z</time>
      </trkpt>
      <trkpt lat="46.01732" lon="6.21585">
        <ele>679.31</ele>
        <time>2020-05-18T16:01:31Z</time>
      </trkpt>
      <trkpt lat="46.0178" lon="6.21701">
        <ele>682.19</ele>
        <time>2020-05-18T16:01:37Z</time>
      </trkpt>
      <trkpt lat="46.01786" lon="6.21717">
        <ele>682.67</ele>
        <time>2020-05-18T16:01:38Z</time>
      </trkpt>
      <trkpt lat="46.01835" lon="6.21836">
        <ele>684.6</ele>
        <time>2020-05-18T16:01:46Z</time>
      </trkpt>
      <trkpt lat="46.01883" lon="6.21971">
        <ele>688.44</ele>
        <time>2020-05-18T16:01:54Z</time>
      </trkpt>
      <trkpt lat="46.01909" lon="6.22069">
        <ele>689.88</ele>
        <time>2020-05-18T16:01:58Z</time>
      </trkpt>
      <trkpt lat="46.01945" lon="6.22262">
        <ele>691.81</ele>
        <time>2020-05-18T16:02:05Z</time>
      </trkpt>
      <trkpt lat="46.0196" lon="6.22353">
        <ele>693.25</ele>
        <time>2020-05-18T16:02:09Z</time>
      </trkpt>
      <trkpt lat="46.01964" lon="6.22378">
        <ele>694.21</ele>
        <time>2020-05-18T16:02:10Z</time>
      </trkpt>
      <trkpt lat="46.01984" lon="6.22507">
        <ele>698.05</ele>
        <time>2020-05-18T16:02:15Z</time>
      </trkpt>
      <trkpt lat="46.02012" lon="6.22709">
        <ele>702.86</ele>
        <time>2020-05-18T16:02:22Z</time>
      </trkpt>
      <trkpt lat="46.02028" lon="6.2282">
        <ele>704.3</ele>
        <time>2020-05-18T16:02:27Z</time>
      </trkpt>
      <trkpt lat="46.02059" lon="6.22964">
        <ele>707.67</ele>
        <time>2020-05-18T16:02:33Z</time>
      </trkpt>
      <trkpt lat="46.02067" lon="6.22987">
        <ele>708.15</ele>
        <time>2020-05-18T16:02:34Z</time>
      </trkpt>
      <trkpt lat="46.02078" lon="6.23007">
        <ele>708.63</ele>
        <time>2020-05-18T16:02:35Z</time>
      </trkpt>
      <trkpt lat="46.0209" lon="6.23026">
        <ele>708.63</ele>
        <time>2020-05-18T16:02:36Z</time>
      </trkpt>
      <trkpt lat="46.02102" lon="6.23041">
        <ele>709.11</ele>
        <time>2020-05-18T16:02:37Z</time>
      </trkpt>
      <trkpt lat="46.02113" lon="6.23055">
        <ele>709.11</ele>
        <time>2020-05-18T16:02:38Z</time>
      </trkpt>
      <trkpt lat="46.02124" lon="6.23069">
        <ele>709.11</ele>
        <time>2020-05-18T16:02:39Z</time>
      </trkpt>
      <trkpt lat="46.02135" lon="6.23084">
        <ele>709.11</ele>
        <time>2020-05-18T16:02:40Z</time>
      </trkpt>
      <trkpt lat="46.02147" lon="6.23101">
        <ele>709.11</ele>
        <time>2020-05-18T16:02:41Z</time>
      </trkpt>
      <trkpt lat="46.02159" lon="6.23119">
        <ele>709.59</ele>
        <time>2020-05-18T16:02:42Z</time>
      </trkpt>
      <trkpt lat="46.02194" lon="6.23185">
        <ele>710.55</ele>
        <time>2020-05-18T16:02:47Z</time>
      </trkpt>
      <trkpt lat="46.02248" lon="6.23299">
        <ele>711.99</ele>
        <time>2020-05-18T16:02:57Z</time>
      </trkpt>
      <trkpt lat="46.02293" lon="6.2338">
        <ele>713.44</ele>
        <time>2020-05-18T16:03:05Z</time>
      </trkpt>
      <trkpt lat="46.02301" lon="6.23386">
        <ele>713.92</ele>
        <time>2020-05-18T16:03:06Z</time>
      </trkpt>
      <trkpt lat="46.02308" lon="6.23393">
        <ele>713.92</ele>
        <time>2020-05-18T16:03:07Z</time>
      </trkpt>
      <trkpt lat="46.02396" lon="6.23472">
        <ele>720.16</ele>
        <time>2020-05-18T16:03:18Z</time>
      </trkpt>
      <trkpt lat="46.02423" lon="6.23513">
        <ele>722.57</ele>
        <time>2020-05-18T16:03:22Z</time>
      </trkpt>
      <trkpt lat="46.02429" lon="6.23523">
        <ele>723.05</ele>
        <time>2020-05-18T16:03:23Z</time>
      </trkpt>
      <trkpt lat="46.02433" lon="6.23533">
        <ele>723.53</ele>
        <time>2020-05-18T16:03:24Z</time>
      </trkpt>
      <trkpt lat="46.02469" lon="6.23612">
        <ele>725.93</ele>
        <time>2020-05-18T16:03:30Z</time>
      </trkpt>
      <trkpt lat="46.02516" lon="6.23687">
        <ele>728.82</ele>
        <time>2020-05-18T16:03:35Z</time>
      </trkpt>
      <trkpt lat="46.02528" lon="6.23699">
        <ele>729.3</ele>
        <time>2020-05-18T16:03:36Z</time>
      </trkpt>
      <trkpt lat="46.02584" lon="6.2374">
        <ele>731.22</ele>
        <time>2020-05-18T16:03:40Z</time>
      </trkpt>
      <trkpt lat="46.026" lon="6.23748">
        <ele>732.18</ele>
        <time>2020-05-18T16:03:41Z</time>
      </trkpt>
      <trkpt lat="46.02616" lon="6.23753">
        <ele>732.66</ele>
        <time>2020-05-18T16:03:42Z</time>
      </trkpt>
      <trkpt lat="46.02816" lon="6.23789">
        <ele>741.31</ele>
        <time>2020-05-18T16:03:53Z</time>
      </trkpt>
      <trkpt lat="46.02966" lon="6.2385">
        <ele>745.64</ele>
        <time>2020-05-18T16:04:01Z</time>
      </trkpt>
      <trkpt lat="46.03082" lon="6.23938">
        <ele>747.56</ele>
        <time>2020-05-18T16:04:07Z</time>
      </trkpt>
      <trkpt lat="46.03196" lon="6.24067">
        <ele>750.45</ele>
        <time>2020-05-18T16:04:11Z</time>
      </trkpt>
      <trkpt lat="46.03242" lon="6.24123">
        <ele>752.37</ele>
        <time>2020-05-18T16:04:13Z</time>
      </trkpt>
      <trkpt lat="46.03291" lon="6.24199">
        <ele>754.77</ele>
        <time>2020-05-18T16:04:17Z</time>
      </trkpt>
      <trkpt lat="46.03311" lon="6.24231">
        <ele>755.25</ele>
        <time>2020-05-18T16:04:19Z</time>
      </trkpt>
      <trkpt lat="46.03323" lon="6.24244">
        <ele>755.73</ele>
        <time>2020-05-18T16:04:20Z</time>
      </trkpt>
      <trkpt lat="46.03337" lon="6.24254">
        <ele>755.73</ele>
        <time>2020-05-18T16:04:21Z</time>
      </trkpt>
      <trkpt lat="46.03351" lon="6.24264">
        <ele>756.21</ele>
        <time>2020-05-18T16:04:22Z</time>
      </trkpt>
      <trkpt lat="46.03366" lon="6.24268">
        <ele>756.69</ele>
        <time>2020-05-18T16:04:23Z</time>
      </trkpt>
      <trkpt lat="46.03379" lon="6.24272">
        <ele>756.69</ele>
        <time>2020-05-18T16:04:24Z</time>
      </trkpt>
      <trkpt lat="46.03396" lon="6.24269">
        <ele>757.18</ele>
        <time>2020-05-18T16:04:25Z</time>
      </trkpt>
      <trkpt lat="46.03411" lon="6.24266">
        <ele>758.14</ele>
        <time>2020-05-18T16:04:26Z</time>
      </trkpt>
      <trkpt lat="46.03424" lon="6.24257">
        <ele>758.62</ele>
        <time>2020-05-18T16:04:27Z</time>
      </trkpt>
      <trkpt lat="46.03438" lon="6.24248">
        <ele>759.1</ele>
        <time>2020-05-18T16:04:28Z</time>
      </trkpt>
      <trkpt lat="46.03449" lon="6.24234">
        <ele>760.06</ele>
        <time>2020-05-18T16:04:29Z</time>
      </trkpt>
      <trkpt lat="46.0346" lon="6.24217">
        <ele>761.02</ele>
        <time>2020-05-18T16:04:30Z</time>
      </trkpt>
      <trkpt lat="46.03471" lon="6.242">
        <ele>761.5</ele>
        <time>2020-05-18T16:04:31Z</time>
      </trkpt>
      <trkpt lat="46.03484" lon="6.2418">
        <ele>762.46</ele>
        <time>2020-05-18T16:04:32Z</time>
      </trkpt>
      <trkpt lat="46.03498" lon="6.24156">
        <ele>763.42</ele>
        <time>2020-05-18T16:04:33Z</time>
      </trkpt>
      <trkpt lat="46.03513" lon="6.24132">
        <ele>764.39</ele>
        <time>2020-05-18T16:04:34Z</time>
      </trkpt>
      <trkpt lat="46.03527" lon="6.24109">
        <ele>765.35</ele>
        <time>2020-05-18T16:04:35Z</time>
      </trkpt>
      <trkpt lat="46.03545" lon="6.24092">
        <ele>767.27</ele>
        <time>2020-05-18T16:04:36Z</time>
      </trkpt>
      <trkpt lat="46.03565" lon="6.2408">
        <ele>768.71</ele>
        <time>2020-05-18T16:04:37Z</time>
      </trkpt>
      <trkpt lat="46.03587" lon="6.24073">
        <ele>770.15</ele>
        <time>2020-05-18T16:04:38Z</time>
      </trkpt>
      <trkpt lat="46.03608" lon="6.24072">
        <ele>771.11</ele>
        <time>2020-05-18T16:04:39Z</time>
      </trkpt>
      <trkpt lat="46.0363" lon="6.24074">
        <ele>771.6</ele>
        <time>2020-05-18T16:04:40Z</time>
      </trkpt>
      <trkpt lat="46.03652" lon="6.24082">
        <ele>772.56</ele>
        <time>2020-05-18T16:04:41Z</time>
      </trkpt>
      <trkpt lat="46.03674" lon="6.24097">
        <ele>773.52</ele>
        <time>2020-05-18T16:04:42Z</time>
      </trkpt>
      <trkpt lat="46.03695" lon="6.24117">
        <ele>774.48</ele>
        <time>2020-05-18T16:04:43Z</time>
      </trkpt>
      <trkpt lat="46.03715" lon="6.24142">
        <ele>775.92</ele>
        <time>2020-05-18T16:04:44Z</time>
      </trkpt>
      <trkpt lat="46.03734" lon="6.2417">
        <ele>776.88</ele>
        <time>2020-05-18T16:04:45Z</time>
      </trkpt>
      <trkpt lat="46.03753" lon="6.24199">
        <ele>778.32</ele>
        <time>2020-05-18T16:04:46Z</time>
      </trkpt>
      <trkpt lat="46.03769" lon="6.24232">
        <ele>779.77</ele>
        <time>2020-05-18T16:04:47Z</time>
      </trkpt>
      <trkpt lat="46.03781" lon="6.24267">
        <ele>781.69</ele>
        <time>2020-05-18T16:04:48Z</time>
      </trkpt>
      <trkpt lat="46.03794" lon="6.24304">
        <ele>783.13</ele>
        <time>2020-05-18T16:04:49Z</time>
      </trkpt>
      <trkpt lat="46.03802" lon="6.24346">
        <ele>785.05</ele>
        <time>2020-05-18T16:04:50Z</time>
      </trkpt>
      <trkpt lat="46.03837" lon="6.24508">
        <ele>792.26</ele>
        <time>2020-05-18T16:04:54Z</time>
      </trkpt>
      <trkpt lat="46.03846" lon="6.24542">
        <ele>793.71</ele>
        <time>2020-05-18T16:04:55Z</time>
      </trkpt>
      <trkpt lat="46.03859" lon="6.24573">
        <ele>795.15</ele>
        <time>2020-05-18T16:04:56Z</time>
      </trkpt>
      <trkpt lat="46.03874" lon="6.246">
        <ele>796.59</ele>
        <time>2020-05-18T16:04:57Z</time>
      </trkpt>
      <trkpt lat="46.03891" lon="6.24626">
        <ele>797.55</ele>
        <time>2020-05-18T16:04:58Z</time>
      </trkpt>
      <trkpt lat="46.0391" lon="6.24647">
        <ele>798.03</ele>
        <time>2020-05-18T16:04:59Z</time>
      </trkpt>
      <trkpt lat="46.0393" lon="6.24667">
        <ele>798.99</ele>
        <time>2020-05-18T16:05:00Z</time>
      </trkpt>
      <trkpt lat="46.03953" lon="6.24683">
        <ele>798.99</ele>
        <time>2020-05-18T16:05:01Z</time>
      </trkpt>
      <trkpt lat="46.03976" lon="6.24697">
        <ele>798.99</ele>
        <time>2020-05-18T16:05:02Z</time>
      </trkpt>
      <trkpt lat="46.04001" lon="6.24706">
        <ele>798.99</ele>
        <time>2020-05-18T16:05:03Z</time>
      </trkpt>
      <trkpt lat="46.04026" lon="6.24712">
        <ele>798.99</ele>
        <time>2020-05-18T16:05:04Z</time>
      </trkpt>
      <trkpt lat="46.04074" lon="6.2473">
        <ele>798.51</ele>
        <time>2020-05-18T16:05:06Z</time>
      </trkpt>
      <trkpt lat="46.04097" lon="6.24744">
        <ele>797.55</ele>
        <time>2020-05-18T16:05:07Z</time>
      </trkpt>
      <trkpt lat="46.0412" lon="6.24761">
        <ele>796.11</ele>
        <time>2020-05-18T16:05:08Z</time>
      </trkpt>
      <trkpt lat="46.0414" lon="6.24785">
        <ele>795.15</ele>
        <time>2020-05-18T16:05:09Z</time>
      </trkpt>
      <trkpt lat="46.04162" lon="6.2481">
        <ele>793.71</ele>
        <time>2020-05-18T16:05:10Z</time>
      </trkpt>
      <trkpt lat="46.04185" lon="6.24838">
        <ele>792.74</ele>
        <time>2020-05-18T16:05:11Z</time>
      </trkpt>
      <trkpt lat="46.04327" lon="6.25049">
        <ele>793.71</ele>
        <time>2020-05-18T16:05:18Z</time>
      </trkpt>
      <trkpt lat="46.04343" lon="6.25081">
        <ele>794.67</ele>
        <time>2020-05-18T16:05:19Z</time>
      </trkpt>
      <trkpt lat="46.04356" lon="6.25113">
        <ele>796.11</ele>
        <time>2020-05-18T16:05:20Z</time>
      </trkpt>
      <trkpt lat="46.04367" lon="6.25147">
        <ele>797.07</ele>
        <time>2020-05-18T16:05:21Z</time>
      </trkpt>
      <trkpt lat="46.04377" lon="6.25182">
        <ele>798.51</ele>
        <time>2020-05-18T16:05:22Z</time>
      </trkpt>
      <trkpt lat="46.04384" lon="6.25219">
        <ele>799.95</ele>
        <time>2020-05-18T16:05:23Z</time>
      </trkpt>
      <trkpt lat="46.04453" lon="6.25505">
        <ele>806.2</ele>
        <time>2020-05-18T16:05:31Z</time>
      </trkpt>
      <trkpt lat="46.04524" lon="6.25656">
        <ele>806.68</ele>
        <time>2020-05-18T16:05:37Z</time>
      </trkpt>
      <trkpt lat="46.04682" lon="6.25984">
        <ele>802.36</ele>
        <time>2020-05-18T16:05:52Z</time>
      </trkpt>
      <trkpt lat="46.04788" lon="6.26205">
        <ele>797.07</ele>
        <time>2020-05-18T16:06:03Z</time>
      </trkpt>
      <trkpt lat="46.04885" lon="6.26379">
        <ele>790.34</ele>
        <time>2020-05-18T16:06:12Z</time>
      </trkpt>
      <trkpt lat="46.04901" lon="6.26398">
        <ele>789.38</ele>
        <time>2020-05-18T16:06:13Z</time>
      </trkpt>
      <trkpt lat="46.04917" lon="6.26417">
        <ele>788.42</ele>
        <time>2020-05-18T16:06:14Z</time>
      </trkpt>
      <trkpt lat="46.05072" lon="6.26561">
        <ele>777.36</ele>
        <time>2020-05-18T16:06:23Z</time>
      </trkpt>
      <trkpt lat="46.05097" lon="6.26606">
        <ele>775.44</ele>
        <time>2020-05-18T16:06:25Z</time>
      </trkpt>
      <trkpt lat="46.05108" lon="6.2663">
        <ele>774.48</ele>
        <time>2020-05-18T16:06:26Z</time>
      </trkpt>
      <trkpt lat="46.05118" lon="6.26655">
        <ele>773.52</ele>
        <time>2020-05-18T16:06:27Z</time>
      </trkpt>
      <trkpt lat="46.05125" lon="6.26681">
        <ele>772.56</ele>
        <time>2020-05-18T16:06:28Z</time>
      </trkpt>
      <trkpt lat="46.05132" lon="6.26708">
        <ele>772.08</ele>
        <time>2020-05-18T16:06:29Z</time>
      </trkpt>
      <trkpt lat="46.05139" lon="6.26734">
        <ele>771.6</ele>
        <time>2020-05-18T16:06:30Z</time>
      </trkpt>
      <trkpt lat="46.05143" lon="6.26762">
        <ele>771.11</ele>
        <time>2020-05-18T16:06:31Z</time>
      </trkpt>
      <trkpt lat="46.05146" lon="6.26789">
        <ele>770.15</ele>
        <time>2020-05-18T16:06:32Z</time>
      </trkpt>
      <trkpt lat="46.05149" lon="6.26817">
        <ele>770.15</ele>
        <time>2020-05-18T16:06:33Z</time>
      </trkpt>
      <trkpt lat="46.05148" lon="6.26846">
        <ele>769.67</ele>
        <time>2020-05-18T16:06:34Z</time>
      </trkpt>
      <trkpt lat="46.05147" lon="6.26874">
        <ele>769.19</ele>
        <time>2020-05-18T16:06:35Z</time>
      </trkpt>
      <trkpt lat="46.05145" lon="6.26902">
        <ele>768.71</ele>
        <time>2020-05-18T16:06:36Z</time>
      </trkpt>
      <trkpt lat="46.05124" lon="6.27183">
        <ele>764.39</ele>
        <time>2020-05-18T16:06:46Z</time>
      </trkpt>
      <trkpt lat="46.05138" lon="6.2742">
        <ele>757.18</ele>
        <time>2020-05-18T16:06:54Z</time>
      </trkpt>
      <trkpt lat="46.05191" lon="6.27665">
        <ele>751.89</ele>
        <time>2020-05-18T16:07:03Z</time>
      </trkpt>
      <trkpt lat="46.05244" lon="6.27826">
        <ele>750.93</ele>
        <time>2020-05-18T16:07:08Z</time>
      </trkpt>
      <trkpt lat="46.05325" lon="6.28055">
        <ele>746.6</ele>
        <time>2020-05-18T16:07:14Z</time>
      </trkpt>
      <trkpt lat="46.05438" lon="6.28377">
        <ele>741.31</ele>
        <time>2020-05-18T16:07:25Z</time>
      </trkpt>
      <trkpt lat="46.05544" lon="6.28682">
        <ele>734.58</ele>
        <time>2020-05-18T16:07:36Z</time>
      </trkpt>
      <trkpt lat="46.05634" lon="6.28894">
        <ele>728.34</ele>
        <time>2020-05-18T16:07:44Z</time>
      </trkpt>
      <trkpt lat="46.05649" lon="6.28918">
        <ele>727.37</ele>
        <time>2020-05-18T16:07:45Z</time>
      </trkpt>
      <trkpt lat="46.05665" lon="6.28935">
        <ele>726.41</ele>
        <time>2020-05-18T16:07:46Z</time>
      </trkpt>
      <trkpt lat="46.05682" lon="6.28953">
        <ele>725.45</ele>
        <time>2020-05-18T16:07:47Z</time>
      </trkpt>
      <trkpt lat="46.05701" lon="6.28965">
        <ele>724.01</ele>
        <time>2020-05-18T16:07:48Z</time>
      </trkpt>
      <trkpt lat="46.05719" lon="6.28978">
        <ele>723.05</ele>
        <time>2020-05-18T16:07:49Z</time>
      </trkpt>
      <trkpt lat="46.05758" lon="6.28996">
        <ele>720.65</ele>
        <time>2020-05-18T16:07:51Z</time>
      </trkpt>
      <trkpt lat="46.05879" lon="6.29003">
        <ele>713.44</ele>
        <time>2020-05-18T16:07:57Z</time>
      </trkpt>
      <trkpt lat="46.06059" lon="6.28945">
        <ele>703.34</ele>
        <time>2020-05-18T16:08:06Z</time>
      </trkpt>
      <trkpt lat="46.06258" lon="6.28878">
        <ele>691.81</ele>
        <time>2020-05-18T16:08:17Z</time>
      </trkpt>
      <trkpt lat="46.06379" lon="6.28846">
        <ele>683.15</ele>
        <time>2020-05-18T16:08:25Z</time>
      </trkpt>
      <trkpt lat="46.06418" lon="6.28838">
        <ele>679.31</ele>
        <time>2020-05-18T16:08:29Z</time>
      </trkpt>
      <trkpt lat="46.06425" lon="6.28837">
        <ele>678.83</ele>
        <time>2020-05-18T16:08:30Z</time>
      </trkpt>
      <trkpt lat="46.06434" lon="6.28858">
        <ele>678.35</ele>
        <time>2020-05-18T16:08:31Z</time>
      </trkpt>
      <trkpt lat="46.06447" lon="6.28856">
        <ele>677.87</ele>
        <time>2020-05-18T16:08:32Z</time>
      </trkpt>
      <trkpt lat="46.06456" lon="6.28849">
        <ele>677.39</ele>
        <time>2020-05-18T16:08:33Z</time>
      </trkpt>
      <trkpt lat="46.06463" lon="6.28831">
        <ele>676.91</ele>
        <time>2020-05-18T16:08:34Z</time>
      </trkpt>
      <trkpt lat="46.06477" lon="6.28827">
        <ele>676.42</ele>
        <time>2020-05-18T16:08:35Z</time>
      </trkpt>
      <trkpt lat="46.06583" lon="6.28772">
        <ele>670.18</ele>
        <time>2020-05-18T16:08:41Z</time>
      </trkpt>
      <trkpt lat="46.06758" lon="6.28678">
        <ele>662.49</ele>
        <time>2020-05-18T16:08:51Z</time>
      </trkpt>
      <trkpt lat="46.06777" lon="6.28675">
        <ele>662.01</ele>
        <time>2020-05-18T16:08:52Z</time>
      </trkpt>
      <trkpt lat="46.06798" lon="6.28672">
        <ele>661.52</ele>
        <time>2020-05-18T16:08:53Z</time>
      </trkpt>
      <trkpt lat="46.06817" lon="6.28677">
        <ele>661.04</ele>
        <time>2020-05-18T16:08:54Z</time>
      </trkpt>
      <trkpt lat="46.06835" lon="6.28681">
        <ele>660.56</ele>
        <time>2020-05-18T16:08:55Z</time>
      </trkpt>
      <trkpt lat="46.06853" lon="6.28686">
        <ele>660.08</ele>
        <time>2020-05-18T16:08:56Z</time>
      </trkpt>
      <trkpt lat="46.06871" lon="6.28695">
        <ele>659.12</ele>
        <time>2020-05-18T16:08:57Z</time>
      </trkpt>
      <trkpt lat="46.06888" lon="6.28706">
        <ele>658.16</ele>
        <time>2020-05-18T16:08:58Z</time>
      </trkpt>
      <trkpt lat="46.06907" lon="6.28716">
        <ele>657.2</ele>
        <time>2020-05-18T16:08:59Z</time>
      </trkpt>
      <trkpt lat="46.07066" lon="6.2881">
        <ele>648.55</ele>
        <time>2020-05-18T16:09:08Z</time>
      </trkpt>
      <trkpt lat="46.07211" lon="6.28826">
        <ele>639.89</ele>
        <time>2020-05-18T16:09:16Z</time>
      </trkpt>
      <trkpt lat="46.07378" lon="6.28874">
        <ele>629.32</ele>
        <time>2020-05-18T16:09:25Z</time>
      </trkpt>
      <trkpt lat="46.07394" lon="6.28888">
        <ele>628.36</ele>
        <time>2020-05-18T16:09:26Z</time>
      </trkpt>
      <trkpt lat="46.07409" lon="6.28903">
        <ele>626.92</ele>
        <time>2020-05-18T16:09:27Z</time>
      </trkpt>
      <trkpt lat="46.07422" lon="6.28923">
        <ele>625.96</ele>
        <time>2020-05-18T16:09:28Z</time>
      </trkpt>
      <trkpt lat="46.07435" lon="6.28943">
        <ele>624.99</ele>
        <time>2020-05-18T16:09:29Z</time>
      </trkpt>
      <trkpt lat="46.07447" lon="6.28963">
        <ele>624.03</ele>
        <time>2020-05-18T16:09:30Z</time>
      </trkpt>
      <trkpt lat="46.07458" lon="6.28985">
        <ele>623.07</ele>
        <time>2020-05-18T16:09:31Z</time>
      </trkpt>
      <trkpt lat="46.07467" lon="6.29009">
        <ele>622.59</ele>
        <time>2020-05-18T16:09:32Z</time>
      </trkpt>
      <trkpt lat="46.07474" lon="6.29034">
        <ele>621.63</ele>
        <time>2020-05-18T16:09:33Z</time>
      </trkpt>
      <trkpt lat="46.0748" lon="6.29059">
        <ele>621.15</ele>
        <time>2020-05-18T16:09:34Z</time>
      </trkpt>
      <trkpt lat="46.07514" lon="6.29184">
        <ele>617.78</ele>
        <time>2020-05-18T16:09:40Z</time>
      </trkpt>
      <trkpt lat="46.0752" lon="6.2921">
        <ele>616.82</ele>
        <time>2020-05-18T16:09:41Z</time>
      </trkpt>
      <trkpt lat="46.07514" lon="6.2923">
        <ele>615.86</ele>
        <time>2020-05-18T16:09:42Z</time>
      </trkpt>
      <trkpt lat="46.07507" lon="6.29252">
        <ele>615.38</ele>
        <time>2020-05-18T16:09:43Z</time>
      </trkpt>
      <trkpt lat="46.07498" lon="6.29277">
        <ele>614.9</ele>
        <time>2020-05-18T16:09:44Z</time>
      </trkpt>
      <trkpt lat="46.07469" lon="6.29364">
        <ele>612.5</ele>
        <time>2020-05-18T16:09:47Z</time>
      </trkpt>
      <trkpt lat="46.07454" lon="6.29392">
        <ele>611.54</ele>
        <time>2020-05-18T16:09:48Z</time>
      </trkpt>
      <trkpt lat="46.07437" lon="6.29419">
        <ele>610.09</ele>
        <time>2020-05-18T16:09:49Z</time>
      </trkpt>
      <trkpt lat="46.07294" lon="6.2963">
        <ele>601.92</ele>
        <time>2020-05-18T16:09:58Z</time>
      </trkpt>
      <trkpt lat="46.07253" lon="6.29682">
        <ele>600.48</ele>
        <time>2020-05-18T16:10:01Z</time>
      </trkpt>
      <trkpt lat="46.07173" lon="6.29768">
        <ele>596.64</ele>
        <time>2020-05-18T16:10:08Z</time>
      </trkpt>
      <trkpt lat="46.07155" lon="6.2979">
        <ele>595.19</ele>
        <time>2020-05-18T16:10:11Z</time>
      </trkpt>
      <trkpt lat="46.07123" lon="6.29849">
        <ele>595.19</ele>
        <time>2020-05-18T16:10:17Z</time>
      </trkpt>
      <trkpt lat="46.07085" lon="6.29985">
        <ele>596.15</ele>
        <time>2020-05-18T16:10:27Z</time>
      </trkpt>
      <trkpt lat="46.07077" lon="6.30039">
        <ele>595.19</ele>
        <time>2020-05-18T16:10:33Z</time>
      </trkpt>
      <trkpt lat="46.07074" lon="6.30047">
        <ele>594.71</ele>
        <time>2020-05-18T16:10:34Z</time>
      </trkpt>
      <trkpt lat="46.07076" lon="6.30052">
        <ele>594.23</ele>
        <time>2020-05-18T16:10:35Z</time>
      </trkpt>
      <trkpt lat="46.07078" lon="6.30057">
        <ele>594.23</ele>
        <time>2020-05-18T16:10:36Z</time>
      </trkpt>
      <trkpt lat="46.07085" lon="6.30077">
        <ele>593.75</ele>
        <time>2020-05-18T16:10:37Z</time>
      </trkpt>
      <trkpt lat="46.07083" lon="6.3009">
        <ele>593.75</ele>
        <time>2020-05-18T16:10:38Z</time>
      </trkpt>
      <trkpt lat="46.0708" lon="6.30102">
        <ele>593.27</ele>
        <time>2020-05-18T16:10:39Z</time>
      </trkpt>
      <trkpt lat="46.07075" lon="6.30114">
        <ele>592.31</ele>
        <time>2020-05-18T16:10:40Z</time>
      </trkpt>
      <trkpt lat="46.07069" lon="6.30127">
        <ele>591.83</ele>
        <time>2020-05-18T16:10:41Z</time>
      </trkpt>
      <trkpt lat="46.07063" lon="6.3014">
        <ele>591.35</ele>
        <time>2020-05-18T16:10:42Z</time>
      </trkpt>
      <trkpt lat="46.07058" lon="6.30154">
        <ele>590.87</ele>
        <time>2020-05-18T16:10:43Z</time>
      </trkpt>
      <trkpt lat="46.07054" lon="6.30172">
        <ele>590.87</ele>
        <time>2020-05-18T16:10:44Z</time>
      </trkpt>
      <trkpt lat="46.07051" lon="6.30187">
        <ele>590.39</ele>
        <time>2020-05-18T16:10:45Z</time>
      </trkpt>
      <trkpt lat="46.07048" lon="6.30202">
        <ele>589.91</ele>
        <time>2020-05-18T16:10:46Z</time>
      </trkpt>
      <trkpt lat="46.07045" lon="6.30215">
        <ele>589.43</ele>
        <time>2020-05-18T16:10:47Z</time>
      </trkpt>
      <trkpt lat="46.07033" lon="6.30229">
        <ele>588.95</ele>
        <time>2020-05-18T16:10:48Z</time>
      </trkpt>
      <trkpt lat="46.07031" lon="6.30238">
        <ele>588.46</ele>
        <time>2020-05-18T16:10:49Z</time>
      </trkpt>
      <trkpt lat="46.0702" lon="6.30243">
        <ele>587.5</ele>
        <time>2020-05-18T16:10:50Z</time>
      </trkpt>
      <trkpt lat="46.07008" lon="6.30249">
        <ele>587.02</ele>
        <time>2020-05-18T16:10:51Z</time>
      </trkpt>
      <trkpt lat="46.06911" lon="6.30296">
        <ele>584.14</ele>
        <time>2020-05-18T16:10:58Z</time>
      </trkpt>
      <trkpt lat="46.06875" lon="6.30314">
        <ele>583.18</ele>
        <time>2020-05-18T16:11:03Z</time>
      </trkpt>
      <trkpt lat="46.06869" lon="6.30317">
        <ele>583.18</ele>
        <time>2020-05-18T16:11:08Z</time>
      </trkpt>
      <trkpt lat="46.06859" lon="6.30321">
        <ele>583.18</ele>
        <time>2020-05-18T16:11:09Z</time>
      </trkpt>
      <trkpt lat="46.06859" lon="6.30332">
        <ele>582.7</ele>
        <time>2020-05-18T16:11:10Z</time>
      </trkpt>
      <trkpt lat="46.06858" lon="6.30346">
        <ele>582.7</ele>
        <time>2020-05-18T16:11:11Z</time>
      </trkpt>
      <trkpt lat="46.06858" lon="6.3036">
        <ele>582.22</ele>
        <time>2020-05-18T16:11:12Z</time>
      </trkpt>
      <trkpt lat="46.06857" lon="6.30376">
        <ele>582.22</ele>
        <time>2020-05-18T16:11:13Z</time>
      </trkpt>
      <trkpt lat="46.06854" lon="6.30392">
        <ele>581.73</ele>
        <time>2020-05-18T16:11:14Z</time>
      </trkpt>
      <trkpt lat="46.06849" lon="6.30407">
        <ele>581.73</ele>
        <time>2020-05-18T16:11:15Z</time>
      </trkpt>
      <trkpt lat="46.06844" lon="6.30421">
        <ele>581.25</ele>
        <time>2020-05-18T16:11:16Z</time>
      </trkpt>
      <trkpt lat="46.06839" lon="6.30435">
        <ele>581.25</ele>
        <time>2020-05-18T16:11:17Z</time>
      </trkpt>
      <trkpt lat="46.06819" lon="6.30493">
        <ele>581.25</ele>
        <time>2020-05-18T16:11:24Z</time>
      </trkpt>
      <trkpt lat="46.06811" lon="6.30516">
        <ele>580.77</ele>
        <time>2020-05-18T16:11:27Z</time>
      </trkpt>
      <trkpt lat="46.06803" lon="6.3054">
        <ele>580.29</ele>
        <time>2020-05-18T16:11:30Z</time>
      </trkpt>
      <trkpt lat="46.068" lon="6.30548">
        <ele>580.29</ele>
        <time>2020-05-18T16:11:31Z</time>
      </trkpt>
      <trkpt lat="46.06797" lon="6.30557">
        <ele>580.29</ele>
        <time>2020-05-18T16:11:32Z</time>
      </trkpt>
      <trkpt lat="46.06791" lon="6.30578">
        <ele>580.77</ele>
        <time>2020-05-18T16:11:34Z</time>
      </trkpt>
      <trkpt lat="46.06787" lon="6.3059">
        <ele>580.77</ele>
        <time>2020-05-18T16:11:35Z</time>
      </trkpt>
      <trkpt lat="46.06756" lon="6.30678">
        <ele>580.29</ele>
        <time>2020-05-18T16:11:42Z</time>
      </trkpt>
      <trkpt lat="46.06709" lon="6.30772">
        <ele>576.45</ele>
        <time>2020-05-18T16:11:49Z</time>
      </trkpt>
      <trkpt lat="46.06645" lon="6.30888">
        <ele>574.53</ele>
        <time>2020-05-18T16:11:58Z</time>
      </trkpt>
      <trkpt lat="46.06642" lon="6.30895">
        <ele>574.53</ele>
        <time>2020-05-18T16:11:59Z</time>
      </trkpt>
      <trkpt lat="46.06636" lon="6.30905">
        <ele>574.04</ele>
        <time>2020-05-18T16:12:00Z</time>
      </trkpt>
      <trkpt lat="46.06645" lon="6.30909">
        <ele>574.04</ele>
        <time>2020-05-18T16:12:01Z</time>
      </trkpt>
      <trkpt lat="46.06649" lon="6.30911">
        <ele>574.04</ele>
        <time>2020-05-18T16:12:02Z</time>
      </trkpt>
      <trkpt lat="46.06653" lon="6.3091">
        <ele>574.04</ele>
        <time>2020-05-18T16:12:03Z</time>
      </trkpt>
      <trkpt lat="46.0666" lon="6.30909">
        <ele>574.04</ele>
        <time>2020-05-18T16:12:04Z</time>
      </trkpt>
      <trkpt lat="46.06668" lon="6.30907">
        <ele>574.04</ele>
        <time>2020-05-18T16:12:05Z</time>
      </trkpt>
      <trkpt lat="46.06682" lon="6.30903">
        <ele>574.04</ele>
        <time>2020-05-18T16:12:07Z</time>
      </trkpt>
      <trkpt lat="46.06692" lon="6.30901">
        <ele>574.04</ele>
        <time>2020-05-18T16:12:09Z</time>
      </trkpt>
      <trkpt lat="46.06696" lon="6.30894">
        <ele>574.04</ele>
        <time>2020-05-18T16:12:10Z</time>
      </trkpt>
      <trkpt lat="46.06699" lon="6.3089">
        <ele>574.04</ele>
        <time>2020-05-18T16:12:11Z</time>
      </trkpt>
      <trkpt lat="46.06736" lon="6.30832">
        <ele>570.68</ele>
        <time>2020-05-18T16:12:19Z</time>
      </trkpt>
      <trkpt lat="46.06745" lon="6.30819">
        <ele>568.76</ele>
        <time>2020-05-18T16:12:21Z</time>
      </trkpt>
      <trkpt lat="46.06748" lon="6.30813">
        <ele>567.8</ele>
        <time>2020-05-18T16:12:22Z</time>
      </trkpt>
      <trkpt lat="46.0675" lon="6.30811">
        <ele>567.32</ele>
        <time>2020-05-18T16:12:23Z</time>
      </trkpt>
      <trkpt lat="46.0675" lon="6.30811">
        <ele>566.35</ele>
        <time>2020-05-18T16:12:24Z</time>
      </trkpt>
      <trkpt lat="46.06751" lon="6.30809">
        <ele>566.35</ele>
        <time>2020-05-18T16:12:25Z</time>
      </trkpt>
      <trkpt lat="46.06751" lon="6.30809">
        <ele>565.87</ele>
        <time>2020-05-18T16:12:26Z</time>
      </trkpt>
      <trkpt lat="46.06751" lon="6.30809">
        <ele>565.39</ele>
        <time>2020-05-18T16:12:45Z</time>
      </trkpt>
      <trkpt lat="46.06751" lon="6.30809">
        <ele>565.39</ele>
        <time>2020-05-18T16:13:04Z</time>
      </trkpt>
    </trkseg>
  </trk>
</gpx>